<?xml version="1.0" encoding="UTF-8" standalone="no" ?>
<gpx xmlns="http://www.topografix.com/GPX/1/1" xmlns:xsi="http://www.w3.org/2001/XMLSchema-instance" xsi:schemaLocation="http://www.topografix.com/GPX/1/1 http://www.topografix.com/GPX/1/1/gpx.xsd" version="1.1" creator="VisuGPX - https://www.visugpx.com">
  <metadata>
    <name>2026-05-11 - Boucle dans le Massif du Pilat Jour 2</name>
    <desc><![CDATA[Très beau circuit dans le massif du Pilat. Il s\'agit d\'un itinéraire ayant pour base le circuit VTT n°2, ce qui constitue une sortie exigeante et difficile avec une section très roulante sur les pistes utilisées pour le domaine de ski de fond vers Le Bessat. Certaines parties caillouteuses à souhait cassent les pattes. Le point culminant frise les 1300 m.]]></desc>
  </metadata>
  <trk>
    <name><![CDATA[Vtt massif du Pilat - Jour 2]]></name>
    <trkseg>
      <trkpt lat="45.32332" lon="4.60488">
        <ele>669.1</ele>
        <time>2026-05-11T07:28:47.000Z</time>
      </trkpt>
      <trkpt lat="45.32328" lon="4.60487">
        <ele>670.59997558594</ele>
        <time>2026-05-11T07:28:48.000Z</time>
      </trkpt>
      <trkpt lat="45.32324" lon="4.60486">
        <ele>670.40002441406</ele>
        <time>2026-05-11T07:28:49.000Z</time>
      </trkpt>
      <trkpt lat="45.3232" lon="4.60486">
        <ele>670.20001220703</ele>
        <time>2026-05-11T07:28:50.000Z</time>
      </trkpt>
      <trkpt lat="45.32317" lon="4.60486">
        <ele>670</ele>
        <time>2026-05-11T07:28:51.000Z</time>
      </trkpt>
      <trkpt lat="45.32314" lon="4.60486">
        <ele>669.79998779297</ele>
        <time>2026-05-11T07:28:52.000Z</time>
      </trkpt>
      <trkpt lat="45.32311" lon="4.60487">
        <ele>669.59997558594</ele>
        <time>2026-05-11T07:28:53.000Z</time>
      </trkpt>
      <trkpt lat="45.32309" lon="4.60489">
        <ele>669.20001220703</ele>
        <time>2026-05-11T07:28:54.000Z</time>
      </trkpt>
      <trkpt lat="45.32307" lon="4.60491">
        <ele>668.79998779297</ele>
        <time>2026-05-11T07:28:55.000Z</time>
      </trkpt>
      <trkpt lat="45.32305" lon="4.60494">
        <ele>668.40002441406</ele>
        <time>2026-05-11T07:28:56.000Z</time>
      </trkpt>
      <trkpt lat="45.32304" lon="4.60497">
        <ele>668.20001220703</ele>
        <time>2026-05-11T07:28:57.000Z</time>
      </trkpt>
      <trkpt lat="45.32304" lon="4.60499">
        <ele>668</ele>
        <time>2026-05-11T07:28:58.000Z</time>
      </trkpt>
      <trkpt lat="45.32305" lon="4.60501">
        <ele>667.79998779297</ele>
        <time>2026-05-11T07:28:59.000Z</time>
      </trkpt>
      <trkpt lat="45.32305" lon="4.60503">
        <ele>667.79998779297</ele>
        <time>2026-05-11T07:29:00.000Z</time>
      </trkpt>
      <trkpt lat="45.32305" lon="4.60505">
        <ele>667.59997558594</ele>
        <time>2026-05-11T07:29:01.000Z</time>
      </trkpt>
      <trkpt lat="45.32304" lon="4.60506">
        <ele>667.59997558594</ele>
        <time>2026-05-11T07:29:02.000Z</time>
      </trkpt>
      <trkpt lat="45.32304" lon="4.60506">
        <ele>667.59997558594</ele>
        <time>2026-05-11T07:29:03.000Z</time>
      </trkpt>
      <trkpt lat="45.32304" lon="4.60505">
        <ele>667.59997558594</ele>
        <time>2026-05-11T07:29:04.000Z</time>
      </trkpt>
      <trkpt lat="45.32305" lon="4.60513">
        <ele>667.59997558594</ele>
        <time>2026-05-11T07:29:19.000Z</time>
      </trkpt>
      <trkpt lat="45.32306" lon="4.60516">
        <ele>667.40002441406</ele>
        <time>2026-05-11T07:29:20.000Z</time>
      </trkpt>
      <trkpt lat="45.32307" lon="4.6052">
        <ele>667.40002441406</ele>
        <time>2026-05-11T07:29:21.000Z</time>
      </trkpt>
      <trkpt lat="45.32307" lon="4.60523">
        <ele>667.20001220703</ele>
        <time>2026-05-11T07:29:22.000Z</time>
      </trkpt>
      <trkpt lat="45.32308" lon="4.60527">
        <ele>667</ele>
        <time>2026-05-11T07:29:23.000Z</time>
      </trkpt>
      <trkpt lat="45.32308" lon="4.6053">
        <ele>666.79998779297</ele>
        <time>2026-05-11T07:29:24.000Z</time>
      </trkpt>
      <trkpt lat="45.32308" lon="4.60534">
        <ele>666.59997558594</ele>
        <time>2026-05-11T07:29:25.000Z</time>
      </trkpt>
      <trkpt lat="45.32309" lon="4.60539">
        <ele>666.20001220703</ele>
        <time>2026-05-11T07:29:26.000Z</time>
      </trkpt>
      <trkpt lat="45.32309" lon="4.60545">
        <ele>666</ele>
        <time>2026-05-11T07:29:27.000Z</time>
      </trkpt>
      <trkpt lat="45.32309" lon="4.60551">
        <ele>665.59997558594</ele>
        <time>2026-05-11T07:29:28.000Z</time>
      </trkpt>
      <trkpt lat="45.3231" lon="4.60558">
        <ele>665.20001220703</ele>
        <time>2026-05-11T07:29:29.000Z</time>
      </trkpt>
      <trkpt lat="45.32311" lon="4.60565">
        <ele>664.79998779297</ele>
        <time>2026-05-11T07:29:30.000Z</time>
      </trkpt>
      <trkpt lat="45.32311" lon="4.60572">
        <ele>664.59997558594</ele>
        <time>2026-05-11T07:29:31.000Z</time>
      </trkpt>
      <trkpt lat="45.32311" lon="4.60579">
        <ele>664.20001220703</ele>
        <time>2026-05-11T07:29:32.000Z</time>
      </trkpt>
      <trkpt lat="45.32312" lon="4.60587">
        <ele>663.79998779297</ele>
        <time>2026-05-11T07:29:33.000Z</time>
      </trkpt>
      <trkpt lat="45.32312" lon="4.60594">
        <ele>663.40002441406</ele>
        <time>2026-05-11T07:29:34.000Z</time>
      </trkpt>
      <trkpt lat="45.32312" lon="4.60602">
        <ele>663</ele>
        <time>2026-05-11T07:29:35.000Z</time>
      </trkpt>
      <trkpt lat="45.32312" lon="4.6061">
        <ele>662.59997558594</ele>
        <time>2026-05-11T07:29:36.000Z</time>
      </trkpt>
      <trkpt lat="45.32312" lon="4.60618">
        <ele>662</ele>
        <time>2026-05-11T07:29:37.000Z</time>
      </trkpt>
      <trkpt lat="45.32312" lon="4.60627">
        <ele>661.59997558594</ele>
        <time>2026-05-11T07:29:38.000Z</time>
      </trkpt>
      <trkpt lat="45.32311" lon="4.60636">
        <ele>661</ele>
        <time>2026-05-11T07:29:39.000Z</time>
      </trkpt>
      <trkpt lat="45.32309" lon="4.60644">
        <ele>660.20001220703</ele>
        <time>2026-05-11T07:29:40.000Z</time>
      </trkpt>
      <trkpt lat="45.32306" lon="4.60651">
        <ele>659.59997558594</ele>
        <time>2026-05-11T07:29:41.000Z</time>
      </trkpt>
      <trkpt lat="45.32302" lon="4.60658">
        <ele>658.79998779297</ele>
        <time>2026-05-11T07:29:42.000Z</time>
      </trkpt>
      <trkpt lat="45.32297" lon="4.60664">
        <ele>658</ele>
        <time>2026-05-11T07:29:43.000Z</time>
      </trkpt>
      <trkpt lat="45.32292" lon="4.60669">
        <ele>657.20001220703</ele>
        <time>2026-05-11T07:29:44.000Z</time>
      </trkpt>
      <trkpt lat="45.32287" lon="4.60675">
        <ele>656.59997558594</ele>
        <time>2026-05-11T07:29:45.000Z</time>
      </trkpt>
      <trkpt lat="45.32282" lon="4.6068">
        <ele>655.79998779297</ele>
        <time>2026-05-11T07:29:46.000Z</time>
      </trkpt>
      <trkpt lat="45.32277" lon="4.60687">
        <ele>655</ele>
        <time>2026-05-11T07:29:47.000Z</time>
      </trkpt>
      <trkpt lat="45.32273" lon="4.60693">
        <ele>654</ele>
        <time>2026-05-11T07:29:48.000Z</time>
      </trkpt>
      <trkpt lat="45.32267" lon="4.607">
        <ele>653.20001220703</ele>
        <time>2026-05-11T07:29:49.000Z</time>
      </trkpt>
      <trkpt lat="45.32262" lon="4.60706">
        <ele>652.20001220703</ele>
        <time>2026-05-11T07:29:50.000Z</time>
      </trkpt>
      <trkpt lat="45.32258" lon="4.60712">
        <ele>651.40002441406</ele>
        <time>2026-05-11T07:29:51.000Z</time>
      </trkpt>
      <trkpt lat="45.32253" lon="4.60718">
        <ele>650.40002441406</ele>
        <time>2026-05-11T07:29:52.000Z</time>
      </trkpt>
      <trkpt lat="45.32249" lon="4.60725">
        <ele>649.59997558594</ele>
        <time>2026-05-11T07:29:53.000Z</time>
      </trkpt>
      <trkpt lat="45.32247" lon="4.60733">
        <ele>648.59997558594</ele>
        <time>2026-05-11T07:29:54.000Z</time>
      </trkpt>
      <trkpt lat="45.32246" lon="4.60743">
        <ele>647.59997558594</ele>
        <time>2026-05-11T07:29:55.000Z</time>
      </trkpt>
      <trkpt lat="45.32247" lon="4.60751">
        <ele>646.79998779297</ele>
        <time>2026-05-11T07:29:56.000Z</time>
      </trkpt>
      <trkpt lat="45.3225" lon="4.60759">
        <ele>646.20001220703</ele>
        <time>2026-05-11T07:29:57.000Z</time>
      </trkpt>
      <trkpt lat="45.32253" lon="4.60767">
        <ele>645.40002441406</ele>
        <time>2026-05-11T07:29:58.000Z</time>
      </trkpt>
      <trkpt lat="45.32255" lon="4.60775">
        <ele>644.59997558594</ele>
        <time>2026-05-11T07:29:59.000Z</time>
      </trkpt>
      <trkpt lat="45.32257" lon="4.60784">
        <ele>644</ele>
        <time>2026-05-11T07:30:00.000Z</time>
      </trkpt>
      <trkpt lat="45.3226" lon="4.60792">
        <ele>643.20001220703</ele>
        <time>2026-05-11T07:30:01.000Z</time>
      </trkpt>
      <trkpt lat="45.32262" lon="4.60801">
        <ele>642.59997558594</ele>
        <time>2026-05-11T07:30:02.000Z</time>
      </trkpt>
      <trkpt lat="45.32264" lon="4.60808">
        <ele>642</ele>
        <time>2026-05-11T07:30:03.000Z</time>
      </trkpt>
      <trkpt lat="45.32266" lon="4.60816">
        <ele>641.59997558594</ele>
        <time>2026-05-11T07:30:04.000Z</time>
      </trkpt>
      <trkpt lat="45.32268" lon="4.60823">
        <ele>641.20001220703</ele>
        <time>2026-05-11T07:30:05.000Z</time>
      </trkpt>
      <trkpt lat="45.32271" lon="4.60829">
        <ele>640.59997558594</ele>
        <time>2026-05-11T07:30:06.000Z</time>
      </trkpt>
      <trkpt lat="45.32273" lon="4.60836">
        <ele>640.20001220703</ele>
        <time>2026-05-11T07:30:07.000Z</time>
      </trkpt>
      <trkpt lat="45.32276" lon="4.60842">
        <ele>639.59997558594</ele>
        <time>2026-05-11T07:30:08.000Z</time>
      </trkpt>
      <trkpt lat="45.32279" lon="4.60848">
        <ele>639</ele>
        <time>2026-05-11T07:30:09.000Z</time>
      </trkpt>
      <trkpt lat="45.32281" lon="4.60854">
        <ele>638.59997558594</ele>
        <time>2026-05-11T07:30:10.000Z</time>
      </trkpt>
      <trkpt lat="45.32284" lon="4.6086">
        <ele>638</ele>
        <time>2026-05-11T07:30:11.000Z</time>
      </trkpt>
      <trkpt lat="45.32287" lon="4.60866">
        <ele>637.40002441406</ele>
        <time>2026-05-11T07:30:12.000Z</time>
      </trkpt>
      <trkpt lat="45.3229" lon="4.60871">
        <ele>636.79998779297</ele>
        <time>2026-05-11T07:30:13.000Z</time>
      </trkpt>
      <trkpt lat="45.32294" lon="4.60877">
        <ele>636</ele>
        <time>2026-05-11T07:30:14.000Z</time>
      </trkpt>
      <trkpt lat="45.32298" lon="4.60883">
        <ele>635.40002441406</ele>
        <time>2026-05-11T07:30:15.000Z</time>
      </trkpt>
      <trkpt lat="45.32301" lon="4.60888">
        <ele>634.59997558594</ele>
        <time>2026-05-11T07:30:16.000Z</time>
      </trkpt>
      <trkpt lat="45.32304" lon="4.60894">
        <ele>634.20001220703</ele>
        <time>2026-05-11T07:30:17.000Z</time>
      </trkpt>
      <trkpt lat="45.32306" lon="4.60897">
        <ele>633.59997558594</ele>
        <time>2026-05-11T07:30:18.000Z</time>
      </trkpt>
      <trkpt lat="45.32308" lon="4.60901">
        <ele>633</ele>
        <time>2026-05-11T07:30:19.000Z</time>
      </trkpt>
      <trkpt lat="45.3231" lon="4.60903">
        <ele>632.59997558594</ele>
        <time>2026-05-11T07:30:20.000Z</time>
      </trkpt>
      <trkpt lat="45.32311" lon="4.60905">
        <ele>632.20001220703</ele>
        <time>2026-05-11T07:30:21.000Z</time>
      </trkpt>
      <trkpt lat="45.32313" lon="4.60908">
        <ele>631.59997558594</ele>
        <time>2026-05-11T07:30:22.000Z</time>
      </trkpt>
      <trkpt lat="45.32314" lon="4.6091">
        <ele>631.20001220703</ele>
        <time>2026-05-11T07:30:23.000Z</time>
      </trkpt>
      <trkpt lat="45.32316" lon="4.60913">
        <ele>630.79998779297</ele>
        <time>2026-05-11T07:30:24.000Z</time>
      </trkpt>
      <trkpt lat="45.32317" lon="4.60917">
        <ele>630.20001220703</ele>
        <time>2026-05-11T07:30:25.000Z</time>
      </trkpt>
      <trkpt lat="45.32317" lon="4.60921">
        <ele>629.79998779297</ele>
        <time>2026-05-11T07:30:26.000Z</time>
      </trkpt>
      <trkpt lat="45.32316" lon="4.60926">
        <ele>629.40002441406</ele>
        <time>2026-05-11T07:30:27.000Z</time>
      </trkpt>
      <trkpt lat="45.32314" lon="4.6093">
        <ele>629.20001220703</ele>
        <time>2026-05-11T07:30:28.000Z</time>
      </trkpt>
      <trkpt lat="45.32312" lon="4.60934">
        <ele>629</ele>
        <time>2026-05-11T07:30:29.000Z</time>
      </trkpt>
      <trkpt lat="45.32309" lon="4.6094">
        <ele>628.59997558594</ele>
        <time>2026-05-11T07:30:30.000Z</time>
      </trkpt>
      <trkpt lat="45.32307" lon="4.60946">
        <ele>628.40002441406</ele>
        <time>2026-05-11T07:30:31.000Z</time>
      </trkpt>
      <trkpt lat="45.32304" lon="4.60954">
        <ele>628</ele>
        <time>2026-05-11T07:30:32.000Z</time>
      </trkpt>
      <trkpt lat="45.32303" lon="4.60962">
        <ele>627.59997558594</ele>
        <time>2026-05-11T07:30:33.000Z</time>
      </trkpt>
      <trkpt lat="45.32302" lon="4.6097">
        <ele>627.20001220703</ele>
        <time>2026-05-11T07:30:34.000Z</time>
      </trkpt>
      <trkpt lat="45.32302" lon="4.60979">
        <ele>626.79998779297</ele>
        <time>2026-05-11T07:30:35.000Z</time>
      </trkpt>
      <trkpt lat="45.32303" lon="4.60988">
        <ele>626.40002441406</ele>
        <time>2026-05-11T07:30:36.000Z</time>
      </trkpt>
      <trkpt lat="45.32305" lon="4.60997">
        <ele>626</ele>
        <time>2026-05-11T07:30:37.000Z</time>
      </trkpt>
      <trkpt lat="45.32307" lon="4.61006">
        <ele>625.59997558594</ele>
        <time>2026-05-11T07:30:38.000Z</time>
      </trkpt>
      <trkpt lat="45.3231" lon="4.61014">
        <ele>625</ele>
        <time>2026-05-11T07:30:39.000Z</time>
      </trkpt>
      <trkpt lat="45.32314" lon="4.61022">
        <ele>624.40002441406</ele>
        <time>2026-05-11T07:30:40.000Z</time>
      </trkpt>
      <trkpt lat="45.32318" lon="4.61029">
        <ele>624</ele>
        <time>2026-05-11T07:30:41.000Z</time>
      </trkpt>
      <trkpt lat="45.32323" lon="4.61034">
        <ele>623.59997558594</ele>
        <time>2026-05-11T07:30:42.000Z</time>
      </trkpt>
      <trkpt lat="45.32328" lon="4.6104">
        <ele>623</ele>
        <time>2026-05-11T07:30:43.000Z</time>
      </trkpt>
      <trkpt lat="45.32333" lon="4.61044">
        <ele>622.59997558594</ele>
        <time>2026-05-11T07:30:44.000Z</time>
      </trkpt>
      <trkpt lat="45.32339" lon="4.61048">
        <ele>622</ele>
        <time>2026-05-11T07:30:45.000Z</time>
      </trkpt>
      <trkpt lat="45.32344" lon="4.61051">
        <ele>621.40002441406</ele>
        <time>2026-05-11T07:30:46.000Z</time>
      </trkpt>
      <trkpt lat="45.3235" lon="4.61053">
        <ele>621</ele>
        <time>2026-05-11T07:30:47.000Z</time>
      </trkpt>
      <trkpt lat="45.32356" lon="4.61056">
        <ele>620.59997558594</ele>
        <time>2026-05-11T07:30:48.000Z</time>
      </trkpt>
      <trkpt lat="45.32362" lon="4.61059">
        <ele>620.20001220703</ele>
        <time>2026-05-11T07:30:49.000Z</time>
      </trkpt>
      <trkpt lat="45.32368" lon="4.61062">
        <ele>619.79998779297</ele>
        <time>2026-05-11T07:30:50.000Z</time>
      </trkpt>
      <trkpt lat="45.32374" lon="4.61065">
        <ele>619.40002441406</ele>
        <time>2026-05-11T07:30:51.000Z</time>
      </trkpt>
      <trkpt lat="45.3238" lon="4.61068">
        <ele>618.79998779297</ele>
        <time>2026-05-11T07:30:52.000Z</time>
      </trkpt>
      <trkpt lat="45.32386" lon="4.6107">
        <ele>618.40002441406</ele>
        <time>2026-05-11T07:30:53.000Z</time>
      </trkpt>
      <trkpt lat="45.32392" lon="4.61073">
        <ele>618</ele>
        <time>2026-05-11T07:30:54.000Z</time>
      </trkpt>
      <trkpt lat="45.32398" lon="4.61075">
        <ele>617.59997558594</ele>
        <time>2026-05-11T07:30:55.000Z</time>
      </trkpt>
      <trkpt lat="45.32404" lon="4.61077">
        <ele>617.20001220703</ele>
        <time>2026-05-11T07:30:56.000Z</time>
      </trkpt>
      <trkpt lat="45.3241" lon="4.61078">
        <ele>616.79998779297</ele>
        <time>2026-05-11T07:30:57.000Z</time>
      </trkpt>
      <trkpt lat="45.32416" lon="4.6108">
        <ele>616.40002441406</ele>
        <time>2026-05-11T07:30:58.000Z</time>
      </trkpt>
      <trkpt lat="45.32423" lon="4.61081">
        <ele>616</ele>
        <time>2026-05-11T07:30:59.000Z</time>
      </trkpt>
      <trkpt lat="45.32429" lon="4.61083">
        <ele>615.59997558594</ele>
        <time>2026-05-11T07:31:00.000Z</time>
      </trkpt>
      <trkpt lat="45.32435" lon="4.61085">
        <ele>615.20001220703</ele>
        <time>2026-05-11T07:31:01.000Z</time>
      </trkpt>
      <trkpt lat="45.32441" lon="4.61087">
        <ele>614.79998779297</ele>
        <time>2026-05-11T07:31:02.000Z</time>
      </trkpt>
      <trkpt lat="45.32447" lon="4.61088">
        <ele>614.40002441406</ele>
        <time>2026-05-11T07:31:03.000Z</time>
      </trkpt>
      <trkpt lat="45.32452" lon="4.61089">
        <ele>614</ele>
        <time>2026-05-11T07:31:04.000Z</time>
      </trkpt>
      <trkpt lat="45.32457" lon="4.6109">
        <ele>613.59997558594</ele>
        <time>2026-05-11T07:31:05.000Z</time>
      </trkpt>
      <trkpt lat="45.32463" lon="4.61091">
        <ele>613.20001220703</ele>
        <time>2026-05-11T07:31:06.000Z</time>
      </trkpt>
      <trkpt lat="45.32468" lon="4.61093">
        <ele>612.79998779297</ele>
        <time>2026-05-11T07:31:07.000Z</time>
      </trkpt>
      <trkpt lat="45.32472" lon="4.61097">
        <ele>612.40002441406</ele>
        <time>2026-05-11T07:31:08.000Z</time>
      </trkpt>
      <trkpt lat="45.32476" lon="4.61101">
        <ele>612</ele>
        <time>2026-05-11T07:31:09.000Z</time>
      </trkpt>
      <trkpt lat="45.3248" lon="4.61106">
        <ele>611.79998779297</ele>
        <time>2026-05-11T07:31:10.000Z</time>
      </trkpt>
      <trkpt lat="45.32483" lon="4.61112">
        <ele>611.40002441406</ele>
        <time>2026-05-11T07:31:11.000Z</time>
      </trkpt>
      <trkpt lat="45.32484" lon="4.61119">
        <ele>611</ele>
        <time>2026-05-11T07:31:12.000Z</time>
      </trkpt>
      <trkpt lat="45.32485" lon="4.61127">
        <ele>610.79998779297</ele>
        <time>2026-05-11T07:31:13.000Z</time>
      </trkpt>
      <trkpt lat="45.32484" lon="4.61135">
        <ele>610.40002441406</ele>
        <time>2026-05-11T07:31:14.000Z</time>
      </trkpt>
      <trkpt lat="45.32482" lon="4.61143">
        <ele>610.20001220703</ele>
        <time>2026-05-11T07:31:15.000Z</time>
      </trkpt>
      <trkpt lat="45.32478" lon="4.6115">
        <ele>610</ele>
        <time>2026-05-11T07:31:16.000Z</time>
      </trkpt>
      <trkpt lat="45.32474" lon="4.61156">
        <ele>609.59997558594</ele>
        <time>2026-05-11T07:31:17.000Z</time>
      </trkpt>
      <trkpt lat="45.32469" lon="4.61163">
        <ele>609.20001220703</ele>
        <time>2026-05-11T07:31:18.000Z</time>
      </trkpt>
      <trkpt lat="45.32464" lon="4.61171">
        <ele>609</ele>
        <time>2026-05-11T07:31:19.000Z</time>
      </trkpt>
      <trkpt lat="45.3246" lon="4.61179">
        <ele>608.59997558594</ele>
        <time>2026-05-11T07:31:20.000Z</time>
      </trkpt>
      <trkpt lat="45.32455" lon="4.61187">
        <ele>608.20001220703</ele>
        <time>2026-05-11T07:31:21.000Z</time>
      </trkpt>
      <trkpt lat="45.3245" lon="4.61195">
        <ele>607.79998779297</ele>
        <time>2026-05-11T07:31:22.000Z</time>
      </trkpt>
      <trkpt lat="45.32445" lon="4.61202">
        <ele>607.40002441406</ele>
        <time>2026-05-11T07:31:23.000Z</time>
      </trkpt>
      <trkpt lat="45.3244" lon="4.6121">
        <ele>607</ele>
        <time>2026-05-11T07:31:24.000Z</time>
      </trkpt>
      <trkpt lat="45.32436" lon="4.61218">
        <ele>606.59997558594</ele>
        <time>2026-05-11T07:31:25.000Z</time>
      </trkpt>
      <trkpt lat="45.32431" lon="4.61225">
        <ele>606.40002441406</ele>
        <time>2026-05-11T07:31:26.000Z</time>
      </trkpt>
      <trkpt lat="45.32427" lon="4.61232">
        <ele>606</ele>
        <time>2026-05-11T07:31:27.000Z</time>
      </trkpt>
      <trkpt lat="45.32422" lon="4.61238">
        <ele>605.79998779297</ele>
        <time>2026-05-11T07:31:28.000Z</time>
      </trkpt>
      <trkpt lat="45.32416" lon="4.61244">
        <ele>605.40002441406</ele>
        <time>2026-05-11T07:31:29.000Z</time>
      </trkpt>
      <trkpt lat="45.32411" lon="4.61249">
        <ele>605.20001220703</ele>
        <time>2026-05-11T07:31:30.000Z</time>
      </trkpt>
      <trkpt lat="45.32405" lon="4.61255">
        <ele>605</ele>
        <time>2026-05-11T07:31:31.000Z</time>
      </trkpt>
      <trkpt lat="45.32399" lon="4.6126">
        <ele>604.59997558594</ele>
        <time>2026-05-11T07:31:32.000Z</time>
      </trkpt>
      <trkpt lat="45.32393" lon="4.61266">
        <ele>604.40002441406</ele>
        <time>2026-05-11T07:31:33.000Z</time>
      </trkpt>
      <trkpt lat="45.32387" lon="4.61272">
        <ele>604.20001220703</ele>
        <time>2026-05-11T07:31:34.000Z</time>
      </trkpt>
      <trkpt lat="45.32381" lon="4.61277">
        <ele>603.79998779297</ele>
        <time>2026-05-11T07:31:35.000Z</time>
      </trkpt>
      <trkpt lat="45.32375" lon="4.61283">
        <ele>603.40002441406</ele>
        <time>2026-05-11T07:31:36.000Z</time>
      </trkpt>
      <trkpt lat="45.3237" lon="4.6129">
        <ele>603</ele>
        <time>2026-05-11T07:31:37.000Z</time>
      </trkpt>
      <trkpt lat="45.32364" lon="4.61297">
        <ele>602.59997558594</ele>
        <time>2026-05-11T07:31:38.000Z</time>
      </trkpt>
      <trkpt lat="45.32359" lon="4.61304">
        <ele>602.20001220703</ele>
        <time>2026-05-11T07:31:39.000Z</time>
      </trkpt>
      <trkpt lat="45.32353" lon="4.6131">
        <ele>602</ele>
        <time>2026-05-11T07:31:40.000Z</time>
      </trkpt>
      <trkpt lat="45.32348" lon="4.61317">
        <ele>601.59997558594</ele>
        <time>2026-05-11T07:31:41.000Z</time>
      </trkpt>
      <trkpt lat="45.32342" lon="4.61323">
        <ele>601</ele>
        <time>2026-05-11T07:31:42.000Z</time>
      </trkpt>
      <trkpt lat="45.32336" lon="4.61329">
        <ele>600.59997558594</ele>
        <time>2026-05-11T07:31:43.000Z</time>
      </trkpt>
      <trkpt lat="45.3233" lon="4.61335">
        <ele>600.20001220703</ele>
        <time>2026-05-11T07:31:44.000Z</time>
      </trkpt>
      <trkpt lat="45.32324" lon="4.6134">
        <ele>600</ele>
        <time>2026-05-11T07:31:45.000Z</time>
      </trkpt>
      <trkpt lat="45.32318" lon="4.61346">
        <ele>599.59997558594</ele>
        <time>2026-05-11T07:31:46.000Z</time>
      </trkpt>
      <trkpt lat="45.32311" lon="4.61352">
        <ele>599.20001220703</ele>
        <time>2026-05-11T07:31:47.000Z</time>
      </trkpt>
      <trkpt lat="45.32305" lon="4.61358">
        <ele>598.79998779297</ele>
        <time>2026-05-11T07:31:48.000Z</time>
      </trkpt>
      <trkpt lat="45.32299" lon="4.61364">
        <ele>598.20001220703</ele>
        <time>2026-05-11T07:31:49.000Z</time>
      </trkpt>
      <trkpt lat="45.32293" lon="4.6137">
        <ele>597.79998779297</ele>
        <time>2026-05-11T07:31:50.000Z</time>
      </trkpt>
      <trkpt lat="45.32287" lon="4.61375">
        <ele>597.40002441406</ele>
        <time>2026-05-11T07:31:51.000Z</time>
      </trkpt>
      <trkpt lat="45.32281" lon="4.61381">
        <ele>597</ele>
        <time>2026-05-11T07:31:52.000Z</time>
      </trkpt>
      <trkpt lat="45.32276" lon="4.61386">
        <ele>596.59997558594</ele>
        <time>2026-05-11T07:31:53.000Z</time>
      </trkpt>
      <trkpt lat="45.32272" lon="4.61392">
        <ele>596.40002441406</ele>
        <time>2026-05-11T07:31:54.000Z</time>
      </trkpt>
      <trkpt lat="45.32267" lon="4.61398">
        <ele>596</ele>
        <time>2026-05-11T07:31:55.000Z</time>
      </trkpt>
      <trkpt lat="45.32263" lon="4.61403">
        <ele>595.59997558594</ele>
        <time>2026-05-11T07:31:56.000Z</time>
      </trkpt>
      <trkpt lat="45.32258" lon="4.61408">
        <ele>595.40002441406</ele>
        <time>2026-05-11T07:31:57.000Z</time>
      </trkpt>
      <trkpt lat="45.32254" lon="4.61413">
        <ele>595</ele>
        <time>2026-05-11T07:31:58.000Z</time>
      </trkpt>
      <trkpt lat="45.32249" lon="4.61418">
        <ele>594.79998779297</ele>
        <time>2026-05-11T07:31:59.000Z</time>
      </trkpt>
      <trkpt lat="45.32245" lon="4.61424">
        <ele>594.40002441406</ele>
        <time>2026-05-11T07:32:00.000Z</time>
      </trkpt>
      <trkpt lat="45.3224" lon="4.61429">
        <ele>594.20001220703</ele>
        <time>2026-05-11T07:32:01.000Z</time>
      </trkpt>
      <trkpt lat="45.32236" lon="4.61433">
        <ele>593.79998779297</ele>
        <time>2026-05-11T07:32:02.000Z</time>
      </trkpt>
      <trkpt lat="45.32231" lon="4.61438">
        <ele>593.59997558594</ele>
        <time>2026-05-11T07:32:03.000Z</time>
      </trkpt>
      <trkpt lat="45.32227" lon="4.61441">
        <ele>593.20001220703</ele>
        <time>2026-05-11T07:32:04.000Z</time>
      </trkpt>
      <trkpt lat="45.32222" lon="4.61444">
        <ele>593</ele>
        <time>2026-05-11T07:32:05.000Z</time>
      </trkpt>
      <trkpt lat="45.32218" lon="4.61446">
        <ele>592.79998779297</ele>
        <time>2026-05-11T07:32:06.000Z</time>
      </trkpt>
      <trkpt lat="45.32214" lon="4.61449">
        <ele>592.59997558594</ele>
        <time>2026-05-11T07:32:07.000Z</time>
      </trkpt>
      <trkpt lat="45.32212" lon="4.6145">
        <ele>592.40002441406</ele>
        <time>2026-05-11T07:32:08.000Z</time>
      </trkpt>
      <trkpt lat="45.3221" lon="4.61451">
        <ele>592.20001220703</ele>
        <time>2026-05-11T07:32:09.000Z</time>
      </trkpt>
      <trkpt lat="45.32209" lon="4.61452">
        <ele>592</ele>
        <time>2026-05-11T07:32:10.000Z</time>
      </trkpt>
      <trkpt lat="45.32207" lon="4.61453">
        <ele>592</ele>
        <time>2026-05-11T07:32:11.000Z</time>
      </trkpt>
      <trkpt lat="45.32205" lon="4.61454">
        <ele>591.79998779297</ele>
        <time>2026-05-11T07:32:12.000Z</time>
      </trkpt>
      <trkpt lat="45.32204" lon="4.61455">
        <ele>591.79998779297</ele>
        <time>2026-05-11T07:32:13.000Z</time>
      </trkpt>
      <trkpt lat="45.32202" lon="4.61456">
        <ele>591.79998779297</ele>
        <time>2026-05-11T07:32:14.000Z</time>
      </trkpt>
      <trkpt lat="45.32201" lon="4.61457">
        <ele>591.59997558594</ele>
        <time>2026-05-11T07:32:15.000Z</time>
      </trkpt>
      <trkpt lat="45.322" lon="4.61458">
        <ele>591.59997558594</ele>
        <time>2026-05-11T07:32:16.000Z</time>
      </trkpt>
      <trkpt lat="45.32199" lon="4.61457">
        <ele>591.59997558594</ele>
        <time>2026-05-11T07:32:17.000Z</time>
      </trkpt>
      <trkpt lat="45.32197" lon="4.61457">
        <ele>591.59997558594</ele>
        <time>2026-05-11T07:32:18.000Z</time>
      </trkpt>
      <trkpt lat="45.32195" lon="4.61457">
        <ele>591.59997558594</ele>
        <time>2026-05-11T07:32:19.000Z</time>
      </trkpt>
      <trkpt lat="45.32193" lon="4.61458">
        <ele>591.59997558594</ele>
        <time>2026-05-11T07:32:20.000Z</time>
      </trkpt>
      <trkpt lat="45.32191" lon="4.61459">
        <ele>591.40002441406</ele>
        <time>2026-05-11T07:32:21.000Z</time>
      </trkpt>
      <trkpt lat="45.32189" lon="4.61459">
        <ele>591.40002441406</ele>
        <time>2026-05-11T07:32:22.000Z</time>
      </trkpt>
      <trkpt lat="45.32188" lon="4.6146">
        <ele>591.40002441406</ele>
        <time>2026-05-11T07:32:23.000Z</time>
      </trkpt>
      <trkpt lat="45.32186" lon="4.61461">
        <ele>591.40002441406</ele>
        <time>2026-05-11T07:32:24.000Z</time>
      </trkpt>
      <trkpt lat="45.32185" lon="4.61463">
        <ele>591.40002441406</ele>
        <time>2026-05-11T07:32:25.000Z</time>
      </trkpt>
      <trkpt lat="45.32183" lon="4.61464">
        <ele>591.20001220703</ele>
        <time>2026-05-11T07:32:26.000Z</time>
      </trkpt>
      <trkpt lat="45.32181" lon="4.61466">
        <ele>591.20001220703</ele>
        <time>2026-05-11T07:32:27.000Z</time>
      </trkpt>
      <trkpt lat="45.32179" lon="4.61467">
        <ele>591.20001220703</ele>
        <time>2026-05-11T07:32:28.000Z</time>
      </trkpt>
      <trkpt lat="45.32177" lon="4.61467">
        <ele>591.20001220703</ele>
        <time>2026-05-11T07:32:29.000Z</time>
      </trkpt>
      <trkpt lat="45.32175" lon="4.61468">
        <ele>591.20001220703</ele>
        <time>2026-05-11T07:32:30.000Z</time>
      </trkpt>
      <trkpt lat="45.32173" lon="4.61469">
        <ele>591.20001220703</ele>
        <time>2026-05-11T07:32:31.000Z</time>
      </trkpt>
      <trkpt lat="45.32171" lon="4.61471">
        <ele>591.20001220703</ele>
        <time>2026-05-11T07:32:32.000Z</time>
      </trkpt>
      <trkpt lat="45.32169" lon="4.61472">
        <ele>591.40002441406</ele>
        <time>2026-05-11T07:32:33.000Z</time>
      </trkpt>
      <trkpt lat="45.32167" lon="4.61473">
        <ele>591.40002441406</ele>
        <time>2026-05-11T07:32:34.000Z</time>
      </trkpt>
      <trkpt lat="45.32165" lon="4.61475">
        <ele>591.59997558594</ele>
        <time>2026-05-11T07:32:35.000Z</time>
      </trkpt>
      <trkpt lat="45.32162" lon="4.61477">
        <ele>591.59997558594</ele>
        <time>2026-05-11T07:32:36.000Z</time>
      </trkpt>
      <trkpt lat="45.3216" lon="4.61478">
        <ele>591.59997558594</ele>
        <time>2026-05-11T07:32:37.000Z</time>
      </trkpt>
      <trkpt lat="45.32158" lon="4.6148">
        <ele>591.79998779297</ele>
        <time>2026-05-11T07:32:38.000Z</time>
      </trkpt>
      <trkpt lat="45.32156" lon="4.61481">
        <ele>591.79998779297</ele>
        <time>2026-05-11T07:32:39.000Z</time>
      </trkpt>
      <trkpt lat="45.32154" lon="4.61482">
        <ele>591.79998779297</ele>
        <time>2026-05-11T07:32:40.000Z</time>
      </trkpt>
      <trkpt lat="45.32152" lon="4.61483">
        <ele>592</ele>
        <time>2026-05-11T07:32:41.000Z</time>
      </trkpt>
      <trkpt lat="45.3215" lon="4.61484">
        <ele>592</ele>
        <time>2026-05-11T07:32:42.000Z</time>
      </trkpt>
      <trkpt lat="45.32148" lon="4.61485">
        <ele>592.20001220703</ele>
        <time>2026-05-11T07:32:43.000Z</time>
      </trkpt>
      <trkpt lat="45.32146" lon="4.61487">
        <ele>592.20001220703</ele>
        <time>2026-05-11T07:32:44.000Z</time>
      </trkpt>
      <trkpt lat="45.32144" lon="4.61488">
        <ele>592.40002441406</ele>
        <time>2026-05-11T07:32:45.000Z</time>
      </trkpt>
      <trkpt lat="45.32142" lon="4.6149">
        <ele>592.59997558594</ele>
        <time>2026-05-11T07:32:46.000Z</time>
      </trkpt>
      <trkpt lat="45.32141" lon="4.61491">
        <ele>592.59997558594</ele>
        <time>2026-05-11T07:32:47.000Z</time>
      </trkpt>
      <trkpt lat="45.32139" lon="4.61493">
        <ele>592.79998779297</ele>
        <time>2026-05-11T07:32:48.000Z</time>
      </trkpt>
      <trkpt lat="45.32137" lon="4.61494">
        <ele>592.79998779297</ele>
        <time>2026-05-11T07:32:49.000Z</time>
      </trkpt>
      <trkpt lat="45.32135" lon="4.61495">
        <ele>593</ele>
        <time>2026-05-11T07:32:50.000Z</time>
      </trkpt>
      <trkpt lat="45.32133" lon="4.61497">
        <ele>593</ele>
        <time>2026-05-11T07:32:51.000Z</time>
      </trkpt>
      <trkpt lat="45.32132" lon="4.61498">
        <ele>593.20001220703</ele>
        <time>2026-05-11T07:32:52.000Z</time>
      </trkpt>
      <trkpt lat="45.3213" lon="4.615">
        <ele>593.40002441406</ele>
        <time>2026-05-11T07:32:53.000Z</time>
      </trkpt>
      <trkpt lat="45.32127" lon="4.61501">
        <ele>593.59997558594</ele>
        <time>2026-05-11T07:32:54.000Z</time>
      </trkpt>
      <trkpt lat="45.32125" lon="4.61503">
        <ele>593.59997558594</ele>
        <time>2026-05-11T07:32:55.000Z</time>
      </trkpt>
      <trkpt lat="45.32123" lon="4.61505">
        <ele>593.79998779297</ele>
        <time>2026-05-11T07:32:56.000Z</time>
      </trkpt>
      <trkpt lat="45.32121" lon="4.61506">
        <ele>593.79998779297</ele>
        <time>2026-05-11T07:32:57.000Z</time>
      </trkpt>
      <trkpt lat="45.32119" lon="4.61508">
        <ele>594</ele>
        <time>2026-05-11T07:32:58.000Z</time>
      </trkpt>
      <trkpt lat="45.32117" lon="4.6151">
        <ele>594</ele>
        <time>2026-05-11T07:32:59.000Z</time>
      </trkpt>
      <trkpt lat="45.32114" lon="4.61511">
        <ele>594.20001220703</ele>
        <time>2026-05-11T07:33:00.000Z</time>
      </trkpt>
      <trkpt lat="45.32112" lon="4.61513">
        <ele>594.20001220703</ele>
        <time>2026-05-11T07:33:01.000Z</time>
      </trkpt>
      <trkpt lat="45.3211" lon="4.61514">
        <ele>594.40002441406</ele>
        <time>2026-05-11T07:33:02.000Z</time>
      </trkpt>
      <trkpt lat="45.32108" lon="4.61516">
        <ele>594.40002441406</ele>
        <time>2026-05-11T07:33:03.000Z</time>
      </trkpt>
      <trkpt lat="45.32106" lon="4.61517">
        <ele>594.59997558594</ele>
        <time>2026-05-11T07:33:04.000Z</time>
      </trkpt>
      <trkpt lat="45.32104" lon="4.61519">
        <ele>594.59997558594</ele>
        <time>2026-05-11T07:33:05.000Z</time>
      </trkpt>
      <trkpt lat="45.32102" lon="4.6152">
        <ele>594.59997558594</ele>
        <time>2026-05-11T07:33:06.000Z</time>
      </trkpt>
      <trkpt lat="45.321" lon="4.61521">
        <ele>594.79998779297</ele>
        <time>2026-05-11T07:33:07.000Z</time>
      </trkpt>
      <trkpt lat="45.32098" lon="4.61522">
        <ele>594.79998779297</ele>
        <time>2026-05-11T07:33:08.000Z</time>
      </trkpt>
      <trkpt lat="45.32096" lon="4.61524">
        <ele>594.79998779297</ele>
        <time>2026-05-11T07:33:09.000Z</time>
      </trkpt>
      <trkpt lat="45.32094" lon="4.61524">
        <ele>594.79998779297</ele>
        <time>2026-05-11T07:33:10.000Z</time>
      </trkpt>
      <trkpt lat="45.32092" lon="4.61525">
        <ele>594.79998779297</ele>
        <time>2026-05-11T07:33:11.000Z</time>
      </trkpt>
      <trkpt lat="45.32089" lon="4.61526">
        <ele>595</ele>
        <time>2026-05-11T07:33:12.000Z</time>
      </trkpt>
      <trkpt lat="45.32087" lon="4.61526">
        <ele>595</ele>
        <time>2026-05-11T07:33:13.000Z</time>
      </trkpt>
      <trkpt lat="45.32085" lon="4.61526">
        <ele>595.20001220703</ele>
        <time>2026-05-11T07:33:14.000Z</time>
      </trkpt>
      <trkpt lat="45.32083" lon="4.61527">
        <ele>595.20001220703</ele>
        <time>2026-05-11T07:33:15.000Z</time>
      </trkpt>
      <trkpt lat="45.32081" lon="4.61527">
        <ele>595.40002441406</ele>
        <time>2026-05-11T07:33:16.000Z</time>
      </trkpt>
      <trkpt lat="45.32079" lon="4.61527">
        <ele>595.59997558594</ele>
        <time>2026-05-11T07:33:17.000Z</time>
      </trkpt>
      <trkpt lat="45.32077" lon="4.61527">
        <ele>595.79998779297</ele>
        <time>2026-05-11T07:33:18.000Z</time>
      </trkpt>
      <trkpt lat="45.32075" lon="4.61527">
        <ele>595.79998779297</ele>
        <time>2026-05-11T07:33:19.000Z</time>
      </trkpt>
      <trkpt lat="45.32072" lon="4.61527">
        <ele>596</ele>
        <time>2026-05-11T07:33:20.000Z</time>
      </trkpt>
      <trkpt lat="45.3207" lon="4.61527">
        <ele>596</ele>
        <time>2026-05-11T07:33:21.000Z</time>
      </trkpt>
      <trkpt lat="45.32068" lon="4.61527">
        <ele>596.20001220703</ele>
        <time>2026-05-11T07:33:22.000Z</time>
      </trkpt>
      <trkpt lat="45.32065" lon="4.61527">
        <ele>596.20001220703</ele>
        <time>2026-05-11T07:33:23.000Z</time>
      </trkpt>
      <trkpt lat="45.32063" lon="4.61527">
        <ele>596.40002441406</ele>
        <time>2026-05-11T07:33:24.000Z</time>
      </trkpt>
      <trkpt lat="45.32061" lon="4.61527">
        <ele>596.40002441406</ele>
        <time>2026-05-11T07:33:25.000Z</time>
      </trkpt>
      <trkpt lat="45.32059" lon="4.61527">
        <ele>596.40002441406</ele>
        <time>2026-05-11T07:33:26.000Z</time>
      </trkpt>
      <trkpt lat="45.32057" lon="4.61527">
        <ele>596.59997558594</ele>
        <time>2026-05-11T07:33:27.000Z</time>
      </trkpt>
      <trkpt lat="45.32055" lon="4.61527">
        <ele>596.59997558594</ele>
        <time>2026-05-11T07:33:28.000Z</time>
      </trkpt>
      <trkpt lat="45.32053" lon="4.61526">
        <ele>596.59997558594</ele>
        <time>2026-05-11T07:33:29.000Z</time>
      </trkpt>
      <trkpt lat="45.32051" lon="4.61527">
        <ele>596.79998779297</ele>
        <time>2026-05-11T07:33:30.000Z</time>
      </trkpt>
      <trkpt lat="45.32049" lon="4.61526">
        <ele>596.79998779297</ele>
        <time>2026-05-11T07:33:31.000Z</time>
      </trkpt>
      <trkpt lat="45.32047" lon="4.61526">
        <ele>597</ele>
        <time>2026-05-11T07:33:32.000Z</time>
      </trkpt>
      <trkpt lat="45.32045" lon="4.61526">
        <ele>597</ele>
        <time>2026-05-11T07:33:33.000Z</time>
      </trkpt>
      <trkpt lat="45.32043" lon="4.61526">
        <ele>597.20001220703</ele>
        <time>2026-05-11T07:33:34.000Z</time>
      </trkpt>
      <trkpt lat="45.32041" lon="4.61526">
        <ele>597.20001220703</ele>
        <time>2026-05-11T07:33:35.000Z</time>
      </trkpt>
      <trkpt lat="45.32039" lon="4.61526">
        <ele>597.40002441406</ele>
        <time>2026-05-11T07:33:36.000Z</time>
      </trkpt>
      <trkpt lat="45.32037" lon="4.61525">
        <ele>597.40002441406</ele>
        <time>2026-05-11T07:33:37.000Z</time>
      </trkpt>
      <trkpt lat="45.32035" lon="4.61525">
        <ele>597.59997558594</ele>
        <time>2026-05-11T07:33:38.000Z</time>
      </trkpt>
      <trkpt lat="45.32033" lon="4.61525">
        <ele>597.59997558594</ele>
        <time>2026-05-11T07:33:39.000Z</time>
      </trkpt>
      <trkpt lat="45.32031" lon="4.61525">
        <ele>597.59997558594</ele>
        <time>2026-05-11T07:33:40.000Z</time>
      </trkpt>
      <trkpt lat="45.32029" lon="4.61524">
        <ele>597.79998779297</ele>
        <time>2026-05-11T07:33:41.000Z</time>
      </trkpt>
      <trkpt lat="45.32027" lon="4.61524">
        <ele>597.79998779297</ele>
        <time>2026-05-11T07:33:42.000Z</time>
      </trkpt>
      <trkpt lat="45.32025" lon="4.61524">
        <ele>598</ele>
        <time>2026-05-11T07:33:43.000Z</time>
      </trkpt>
      <trkpt lat="45.32023" lon="4.61523">
        <ele>598</ele>
        <time>2026-05-11T07:33:44.000Z</time>
      </trkpt>
      <trkpt lat="45.32021" lon="4.61523">
        <ele>598.20001220703</ele>
        <time>2026-05-11T07:33:45.000Z</time>
      </trkpt>
      <trkpt lat="45.32019" lon="4.61522">
        <ele>598.20001220703</ele>
        <time>2026-05-11T07:33:46.000Z</time>
      </trkpt>
      <trkpt lat="45.32017" lon="4.61522">
        <ele>598.40002441406</ele>
        <time>2026-05-11T07:33:47.000Z</time>
      </trkpt>
      <trkpt lat="45.32015" lon="4.61521">
        <ele>598.40002441406</ele>
        <time>2026-05-11T07:33:48.000Z</time>
      </trkpt>
      <trkpt lat="45.32013" lon="4.61521">
        <ele>598.40002441406</ele>
        <time>2026-05-11T07:33:49.000Z</time>
      </trkpt>
      <trkpt lat="45.3201" lon="4.61521">
        <ele>598.59997558594</ele>
        <time>2026-05-11T07:33:50.000Z</time>
      </trkpt>
      <trkpt lat="45.32008" lon="4.61521">
        <ele>598.59997558594</ele>
        <time>2026-05-11T07:33:51.000Z</time>
      </trkpt>
      <trkpt lat="45.32006" lon="4.6152">
        <ele>598.59997558594</ele>
        <time>2026-05-11T07:33:52.000Z</time>
      </trkpt>
      <trkpt lat="45.32004" lon="4.6152">
        <ele>598.79998779297</ele>
        <time>2026-05-11T07:33:53.000Z</time>
      </trkpt>
      <trkpt lat="45.32002" lon="4.61519">
        <ele>599</ele>
        <time>2026-05-11T07:33:54.000Z</time>
      </trkpt>
      <trkpt lat="45.32" lon="4.61518">
        <ele>599</ele>
        <time>2026-05-11T07:33:55.000Z</time>
      </trkpt>
      <trkpt lat="45.31998" lon="4.61518">
        <ele>599.20001220703</ele>
        <time>2026-05-11T07:33:56.000Z</time>
      </trkpt>
      <trkpt lat="45.31996" lon="4.61517">
        <ele>599.20001220703</ele>
        <time>2026-05-11T07:33:57.000Z</time>
      </trkpt>
      <trkpt lat="45.31993" lon="4.61517">
        <ele>599.40002441406</ele>
        <time>2026-05-11T07:33:58.000Z</time>
      </trkpt>
      <trkpt lat="45.31991" lon="4.61516">
        <ele>599.59997558594</ele>
        <time>2026-05-11T07:33:59.000Z</time>
      </trkpt>
      <trkpt lat="45.31989" lon="4.61516">
        <ele>599.59997558594</ele>
        <time>2026-05-11T07:34:00.000Z</time>
      </trkpt>
      <trkpt lat="45.31987" lon="4.61515">
        <ele>599.79998779297</ele>
        <time>2026-05-11T07:34:01.000Z</time>
      </trkpt>
      <trkpt lat="45.31985" lon="4.61515">
        <ele>600</ele>
        <time>2026-05-11T07:34:02.000Z</time>
      </trkpt>
      <trkpt lat="45.31983" lon="4.61514">
        <ele>600</ele>
        <time>2026-05-11T07:34:03.000Z</time>
      </trkpt>
      <trkpt lat="45.31981" lon="4.61513">
        <ele>600.20001220703</ele>
        <time>2026-05-11T07:34:04.000Z</time>
      </trkpt>
      <trkpt lat="45.31979" lon="4.61513">
        <ele>600.40002441406</ele>
        <time>2026-05-11T07:34:05.000Z</time>
      </trkpt>
      <trkpt lat="45.31977" lon="4.61512">
        <ele>600.40002441406</ele>
        <time>2026-05-11T07:34:06.000Z</time>
      </trkpt>
      <trkpt lat="45.31975" lon="4.61511">
        <ele>600.59997558594</ele>
        <time>2026-05-11T07:34:07.000Z</time>
      </trkpt>
      <trkpt lat="45.31973" lon="4.6151">
        <ele>600.79998779297</ele>
        <time>2026-05-11T07:34:08.000Z</time>
      </trkpt>
      <trkpt lat="45.31971" lon="4.61508">
        <ele>601</ele>
        <time>2026-05-11T07:34:09.000Z</time>
      </trkpt>
      <trkpt lat="45.31969" lon="4.61507">
        <ele>601</ele>
        <time>2026-05-11T07:34:10.000Z</time>
      </trkpt>
      <trkpt lat="45.31967" lon="4.61506">
        <ele>601.20001220703</ele>
        <time>2026-05-11T07:34:11.000Z</time>
      </trkpt>
      <trkpt lat="45.31965" lon="4.61505">
        <ele>601.40002441406</ele>
        <time>2026-05-11T07:34:12.000Z</time>
      </trkpt>
      <trkpt lat="45.31963" lon="4.61504">
        <ele>601.59997558594</ele>
        <time>2026-05-11T07:34:13.000Z</time>
      </trkpt>
      <trkpt lat="45.3196" lon="4.61503">
        <ele>601.79998779297</ele>
        <time>2026-05-11T07:34:14.000Z</time>
      </trkpt>
      <trkpt lat="45.31958" lon="4.61501">
        <ele>601.79998779297</ele>
        <time>2026-05-11T07:34:15.000Z</time>
      </trkpt>
      <trkpt lat="45.31956" lon="4.615">
        <ele>601.79998779297</ele>
        <time>2026-05-11T07:34:16.000Z</time>
      </trkpt>
      <trkpt lat="45.31955" lon="4.61499">
        <ele>602</ele>
        <time>2026-05-11T07:34:17.000Z</time>
      </trkpt>
      <trkpt lat="45.31953" lon="4.61498">
        <ele>602</ele>
        <time>2026-05-11T07:34:18.000Z</time>
      </trkpt>
      <trkpt lat="45.31951" lon="4.61497">
        <ele>602</ele>
        <time>2026-05-11T07:34:19.000Z</time>
      </trkpt>
      <trkpt lat="45.31949" lon="4.61495">
        <ele>602</ele>
        <time>2026-05-11T07:34:20.000Z</time>
      </trkpt>
      <trkpt lat="45.31947" lon="4.61494">
        <ele>602.20001220703</ele>
        <time>2026-05-11T07:34:21.000Z</time>
      </trkpt>
      <trkpt lat="45.31945" lon="4.61492">
        <ele>602.20001220703</ele>
        <time>2026-05-11T07:34:22.000Z</time>
      </trkpt>
      <trkpt lat="45.31943" lon="4.6149">
        <ele>602.20001220703</ele>
        <time>2026-05-11T07:34:23.000Z</time>
      </trkpt>
      <trkpt lat="45.31941" lon="4.61489">
        <ele>602.20001220703</ele>
        <time>2026-05-11T07:34:24.000Z</time>
      </trkpt>
      <trkpt lat="45.31939" lon="4.61486">
        <ele>602.20001220703</ele>
        <time>2026-05-11T07:34:25.000Z</time>
      </trkpt>
      <trkpt lat="45.31937" lon="4.61484">
        <ele>602.20001220703</ele>
        <time>2026-05-11T07:34:26.000Z</time>
      </trkpt>
      <trkpt lat="45.31935" lon="4.61483">
        <ele>602.20001220703</ele>
        <time>2026-05-11T07:34:27.000Z</time>
      </trkpt>
      <trkpt lat="45.31933" lon="4.61481">
        <ele>602.20001220703</ele>
        <time>2026-05-11T07:34:28.000Z</time>
      </trkpt>
      <trkpt lat="45.3193" lon="4.61479">
        <ele>602.20001220703</ele>
        <time>2026-05-11T07:34:29.000Z</time>
      </trkpt>
      <trkpt lat="45.31928" lon="4.61477">
        <ele>602.40002441406</ele>
        <time>2026-05-11T07:34:30.000Z</time>
      </trkpt>
      <trkpt lat="45.31926" lon="4.61475">
        <ele>602.40002441406</ele>
        <time>2026-05-11T07:34:31.000Z</time>
      </trkpt>
      <trkpt lat="45.31924" lon="4.61473">
        <ele>602.40002441406</ele>
        <time>2026-05-11T07:34:32.000Z</time>
      </trkpt>
      <trkpt lat="45.31922" lon="4.61471">
        <ele>602.40002441406</ele>
        <time>2026-05-11T07:34:33.000Z</time>
      </trkpt>
      <trkpt lat="45.3192" lon="4.61469">
        <ele>602.59997558594</ele>
        <time>2026-05-11T07:34:34.000Z</time>
      </trkpt>
      <trkpt lat="45.31918" lon="4.61466">
        <ele>602.59997558594</ele>
        <time>2026-05-11T07:34:35.000Z</time>
      </trkpt>
      <trkpt lat="45.31916" lon="4.61463">
        <ele>602.59997558594</ele>
        <time>2026-05-11T07:34:36.000Z</time>
      </trkpt>
      <trkpt lat="45.31913" lon="4.61461">
        <ele>602.79998779297</ele>
        <time>2026-05-11T07:34:37.000Z</time>
      </trkpt>
      <trkpt lat="45.31911" lon="4.61458">
        <ele>602.79998779297</ele>
        <time>2026-05-11T07:34:38.000Z</time>
      </trkpt>
      <trkpt lat="45.31909" lon="4.61455">
        <ele>602.79998779297</ele>
        <time>2026-05-11T07:34:39.000Z</time>
      </trkpt>
      <trkpt lat="45.31908" lon="4.61452">
        <ele>602.79998779297</ele>
        <time>2026-05-11T07:34:40.000Z</time>
      </trkpt>
      <trkpt lat="45.31906" lon="4.61449">
        <ele>602.79998779297</ele>
        <time>2026-05-11T07:34:41.000Z</time>
      </trkpt>
      <trkpt lat="45.31904" lon="4.61446">
        <ele>602.79998779297</ele>
        <time>2026-05-11T07:34:42.000Z</time>
      </trkpt>
      <trkpt lat="45.31903" lon="4.61443">
        <ele>602.59997558594</ele>
        <time>2026-05-11T07:34:43.000Z</time>
      </trkpt>
      <trkpt lat="45.31901" lon="4.61441">
        <ele>602.59997558594</ele>
        <time>2026-05-11T07:34:44.000Z</time>
      </trkpt>
      <trkpt lat="45.319" lon="4.61438">
        <ele>602.59997558594</ele>
        <time>2026-05-11T07:34:45.000Z</time>
      </trkpt>
      <trkpt lat="45.31899" lon="4.61435">
        <ele>602.40002441406</ele>
        <time>2026-05-11T07:34:46.000Z</time>
      </trkpt>
      <trkpt lat="45.31898" lon="4.61432">
        <ele>602.40002441406</ele>
        <time>2026-05-11T07:34:47.000Z</time>
      </trkpt>
      <trkpt lat="45.31897" lon="4.61429">
        <ele>602.59997558594</ele>
        <time>2026-05-11T07:34:48.000Z</time>
      </trkpt>
      <trkpt lat="45.31895" lon="4.61426">
        <ele>602.59997558594</ele>
        <time>2026-05-11T07:34:49.000Z</time>
      </trkpt>
      <trkpt lat="45.31894" lon="4.61423">
        <ele>602.59997558594</ele>
        <time>2026-05-11T07:34:50.000Z</time>
      </trkpt>
      <trkpt lat="45.31893" lon="4.61419">
        <ele>602.79998779297</ele>
        <time>2026-05-11T07:34:51.000Z</time>
      </trkpt>
      <trkpt lat="45.31892" lon="4.61415">
        <ele>602.79998779297</ele>
        <time>2026-05-11T07:34:52.000Z</time>
      </trkpt>
      <trkpt lat="45.31891" lon="4.61412">
        <ele>603</ele>
        <time>2026-05-11T07:34:53.000Z</time>
      </trkpt>
      <trkpt lat="45.3189" lon="4.61409">
        <ele>603</ele>
        <time>2026-05-11T07:34:54.000Z</time>
      </trkpt>
      <trkpt lat="45.31889" lon="4.61406">
        <ele>603.20001220703</ele>
        <time>2026-05-11T07:34:55.000Z</time>
      </trkpt>
      <trkpt lat="45.31888" lon="4.61402">
        <ele>603.20001220703</ele>
        <time>2026-05-11T07:34:56.000Z</time>
      </trkpt>
      <trkpt lat="45.31887" lon="4.61398">
        <ele>603.40002441406</ele>
        <time>2026-05-11T07:34:57.000Z</time>
      </trkpt>
      <trkpt lat="45.31886" lon="4.61394">
        <ele>603.40002441406</ele>
        <time>2026-05-11T07:34:58.000Z</time>
      </trkpt>
      <trkpt lat="45.31885" lon="4.61391">
        <ele>603.59997558594</ele>
        <time>2026-05-11T07:34:59.000Z</time>
      </trkpt>
      <trkpt lat="45.31883" lon="4.61387">
        <ele>603.59997558594</ele>
        <time>2026-05-11T07:35:00.000Z</time>
      </trkpt>
      <trkpt lat="45.31882" lon="4.61384">
        <ele>603.79998779297</ele>
        <time>2026-05-11T07:35:01.000Z</time>
      </trkpt>
      <trkpt lat="45.31881" lon="4.6138">
        <ele>603.79998779297</ele>
        <time>2026-05-11T07:35:02.000Z</time>
      </trkpt>
      <trkpt lat="45.3188" lon="4.61376">
        <ele>604</ele>
        <time>2026-05-11T07:35:03.000Z</time>
      </trkpt>
      <trkpt lat="45.31879" lon="4.61373">
        <ele>604</ele>
        <time>2026-05-11T07:35:04.000Z</time>
      </trkpt>
      <trkpt lat="45.31878" lon="4.61369">
        <ele>604</ele>
        <time>2026-05-11T07:35:05.000Z</time>
      </trkpt>
      <trkpt lat="45.31877" lon="4.61365">
        <ele>604</ele>
        <time>2026-05-11T07:35:06.000Z</time>
      </trkpt>
      <trkpt lat="45.31876" lon="4.61362">
        <ele>604</ele>
        <time>2026-05-11T07:35:07.000Z</time>
      </trkpt>
      <trkpt lat="45.31875" lon="4.61358">
        <ele>604</ele>
        <time>2026-05-11T07:35:08.000Z</time>
      </trkpt>
      <trkpt lat="45.31873" lon="4.61354">
        <ele>604</ele>
        <time>2026-05-11T07:35:09.000Z</time>
      </trkpt>
      <trkpt lat="45.31872" lon="4.61351">
        <ele>604</ele>
        <time>2026-05-11T07:35:10.000Z</time>
      </trkpt>
      <trkpt lat="45.31871" lon="4.61347">
        <ele>604</ele>
        <time>2026-05-11T07:35:11.000Z</time>
      </trkpt>
      <trkpt lat="45.3187" lon="4.61343">
        <ele>604</ele>
        <time>2026-05-11T07:35:12.000Z</time>
      </trkpt>
      <trkpt lat="45.31869" lon="4.6134">
        <ele>604</ele>
        <time>2026-05-11T07:35:13.000Z</time>
      </trkpt>
      <trkpt lat="45.31868" lon="4.61336">
        <ele>604.20001220703</ele>
        <time>2026-05-11T07:35:14.000Z</time>
      </trkpt>
      <trkpt lat="45.31867" lon="4.61333">
        <ele>604.20001220703</ele>
        <time>2026-05-11T07:35:15.000Z</time>
      </trkpt>
      <trkpt lat="45.31866" lon="4.61329">
        <ele>604.20001220703</ele>
        <time>2026-05-11T07:35:16.000Z</time>
      </trkpt>
      <trkpt lat="45.31865" lon="4.61325">
        <ele>604.20001220703</ele>
        <time>2026-05-11T07:35:17.000Z</time>
      </trkpt>
      <trkpt lat="45.31864" lon="4.61322">
        <ele>604.20001220703</ele>
        <time>2026-05-11T07:35:18.000Z</time>
      </trkpt>
      <trkpt lat="45.31863" lon="4.61319">
        <ele>604.40002441406</ele>
        <time>2026-05-11T07:35:19.000Z</time>
      </trkpt>
      <trkpt lat="45.31862" lon="4.61315">
        <ele>604.40002441406</ele>
        <time>2026-05-11T07:35:20.000Z</time>
      </trkpt>
      <trkpt lat="45.31861" lon="4.61312">
        <ele>604.40002441406</ele>
        <time>2026-05-11T07:35:21.000Z</time>
      </trkpt>
      <trkpt lat="45.3186" lon="4.61309">
        <ele>604.40002441406</ele>
        <time>2026-05-11T07:35:22.000Z</time>
      </trkpt>
      <trkpt lat="45.31859" lon="4.61305">
        <ele>604.59997558594</ele>
        <time>2026-05-11T07:35:23.000Z</time>
      </trkpt>
      <trkpt lat="45.31858" lon="4.61302">
        <ele>604.59997558594</ele>
        <time>2026-05-11T07:35:24.000Z</time>
      </trkpt>
      <trkpt lat="45.31857" lon="4.61299">
        <ele>604.59997558594</ele>
        <time>2026-05-11T07:35:25.000Z</time>
      </trkpt>
      <trkpt lat="45.31856" lon="4.61296">
        <ele>604.79998779297</ele>
        <time>2026-05-11T07:35:26.000Z</time>
      </trkpt>
      <trkpt lat="45.31855" lon="4.61293">
        <ele>604.79998779297</ele>
        <time>2026-05-11T07:35:27.000Z</time>
      </trkpt>
      <trkpt lat="45.31854" lon="4.61289">
        <ele>604.79998779297</ele>
        <time>2026-05-11T07:35:28.000Z</time>
      </trkpt>
      <trkpt lat="45.31853" lon="4.61286">
        <ele>605</ele>
        <time>2026-05-11T07:35:29.000Z</time>
      </trkpt>
      <trkpt lat="45.31852" lon="4.61282">
        <ele>605</ele>
        <time>2026-05-11T07:35:30.000Z</time>
      </trkpt>
      <trkpt lat="45.31851" lon="4.61279">
        <ele>605</ele>
        <time>2026-05-11T07:35:31.000Z</time>
      </trkpt>
      <trkpt lat="45.3185" lon="4.61275">
        <ele>605.20001220703</ele>
        <time>2026-05-11T07:35:32.000Z</time>
      </trkpt>
      <trkpt lat="45.31849" lon="4.61272">
        <ele>605.20001220703</ele>
        <time>2026-05-11T07:35:33.000Z</time>
      </trkpt>
      <trkpt lat="45.31848" lon="4.61269">
        <ele>605.20001220703</ele>
        <time>2026-05-11T07:35:34.000Z</time>
      </trkpt>
      <trkpt lat="45.31847" lon="4.61265">
        <ele>605.40002441406</ele>
        <time>2026-05-11T07:35:35.000Z</time>
      </trkpt>
      <trkpt lat="45.31846" lon="4.61261">
        <ele>605.40002441406</ele>
        <time>2026-05-11T07:35:36.000Z</time>
      </trkpt>
      <trkpt lat="45.31845" lon="4.61258">
        <ele>605.59997558594</ele>
        <time>2026-05-11T07:35:37.000Z</time>
      </trkpt>
      <trkpt lat="45.31844" lon="4.61255">
        <ele>605.59997558594</ele>
        <time>2026-05-11T07:35:38.000Z</time>
      </trkpt>
      <trkpt lat="45.31843" lon="4.61252">
        <ele>605.59997558594</ele>
        <time>2026-05-11T07:35:39.000Z</time>
      </trkpt>
      <trkpt lat="45.31842" lon="4.61249">
        <ele>605.79998779297</ele>
        <time>2026-05-11T07:35:40.000Z</time>
      </trkpt>
      <trkpt lat="45.31841" lon="4.61246">
        <ele>605.79998779297</ele>
        <time>2026-05-11T07:35:41.000Z</time>
      </trkpt>
      <trkpt lat="45.3184" lon="4.61243">
        <ele>605.79998779297</ele>
        <time>2026-05-11T07:35:42.000Z</time>
      </trkpt>
      <trkpt lat="45.3184" lon="4.6124">
        <ele>605.79998779297</ele>
        <time>2026-05-11T07:35:43.000Z</time>
      </trkpt>
      <trkpt lat="45.31839" lon="4.61237">
        <ele>606</ele>
        <time>2026-05-11T07:35:44.000Z</time>
      </trkpt>
      <trkpt lat="45.31838" lon="4.61234">
        <ele>606</ele>
        <time>2026-05-11T07:35:45.000Z</time>
      </trkpt>
      <trkpt lat="45.31837" lon="4.61231">
        <ele>606</ele>
        <time>2026-05-11T07:35:46.000Z</time>
      </trkpt>
      <trkpt lat="45.31836" lon="4.61228">
        <ele>606.20001220703</ele>
        <time>2026-05-11T07:35:47.000Z</time>
      </trkpt>
      <trkpt lat="45.31835" lon="4.61226">
        <ele>606.20001220703</ele>
        <time>2026-05-11T07:35:48.000Z</time>
      </trkpt>
      <trkpt lat="45.31834" lon="4.61223">
        <ele>606.20001220703</ele>
        <time>2026-05-11T07:35:49.000Z</time>
      </trkpt>
      <trkpt lat="45.31834" lon="4.6122">
        <ele>606.20001220703</ele>
        <time>2026-05-11T07:35:50.000Z</time>
      </trkpt>
      <trkpt lat="45.31833" lon="4.61217">
        <ele>606.40002441406</ele>
        <time>2026-05-11T07:35:51.000Z</time>
      </trkpt>
      <trkpt lat="45.31832" lon="4.61214">
        <ele>606.40002441406</ele>
        <time>2026-05-11T07:35:52.000Z</time>
      </trkpt>
      <trkpt lat="45.31831" lon="4.61211">
        <ele>606.40002441406</ele>
        <time>2026-05-11T07:35:53.000Z</time>
      </trkpt>
      <trkpt lat="45.31831" lon="4.61208">
        <ele>606.59997558594</ele>
        <time>2026-05-11T07:35:54.000Z</time>
      </trkpt>
      <trkpt lat="45.3183" lon="4.61206">
        <ele>606.59997558594</ele>
        <time>2026-05-11T07:35:55.000Z</time>
      </trkpt>
      <trkpt lat="45.31829" lon="4.61203">
        <ele>606.59997558594</ele>
        <time>2026-05-11T07:35:56.000Z</time>
      </trkpt>
      <trkpt lat="45.31828" lon="4.612">
        <ele>606.79998779297</ele>
        <time>2026-05-11T07:35:57.000Z</time>
      </trkpt>
      <trkpt lat="45.31827" lon="4.61197">
        <ele>606.79998779297</ele>
        <time>2026-05-11T07:35:58.000Z</time>
      </trkpt>
      <trkpt lat="45.31826" lon="4.61195">
        <ele>607</ele>
        <time>2026-05-11T07:35:59.000Z</time>
      </trkpt>
      <trkpt lat="45.31826" lon="4.61191">
        <ele>607</ele>
        <time>2026-05-11T07:36:00.000Z</time>
      </trkpt>
      <trkpt lat="45.31825" lon="4.61189">
        <ele>607.20001220703</ele>
        <time>2026-05-11T07:36:01.000Z</time>
      </trkpt>
      <trkpt lat="45.31824" lon="4.61186">
        <ele>607.20001220703</ele>
        <time>2026-05-11T07:36:02.000Z</time>
      </trkpt>
      <trkpt lat="45.31823" lon="4.61184">
        <ele>607.20001220703</ele>
        <time>2026-05-11T07:36:03.000Z</time>
      </trkpt>
      <trkpt lat="45.31822" lon="4.61181">
        <ele>607.40002441406</ele>
        <time>2026-05-11T07:36:04.000Z</time>
      </trkpt>
      <trkpt lat="45.31821" lon="4.61179">
        <ele>607.40002441406</ele>
        <time>2026-05-11T07:36:05.000Z</time>
      </trkpt>
      <trkpt lat="45.31821" lon="4.61176">
        <ele>607.40002441406</ele>
        <time>2026-05-11T07:36:06.000Z</time>
      </trkpt>
      <trkpt lat="45.3182" lon="4.61173">
        <ele>607.40002441406</ele>
        <time>2026-05-11T07:36:07.000Z</time>
      </trkpt>
      <trkpt lat="45.31819" lon="4.6117">
        <ele>607.59997558594</ele>
        <time>2026-05-11T07:36:08.000Z</time>
      </trkpt>
      <trkpt lat="45.31818" lon="4.61167">
        <ele>607.59997558594</ele>
        <time>2026-05-11T07:36:09.000Z</time>
      </trkpt>
      <trkpt lat="45.31817" lon="4.61164">
        <ele>607.79998779297</ele>
        <time>2026-05-11T07:36:10.000Z</time>
      </trkpt>
      <trkpt lat="45.31816" lon="4.61161">
        <ele>608</ele>
        <time>2026-05-11T07:36:11.000Z</time>
      </trkpt>
      <trkpt lat="45.31815" lon="4.61159">
        <ele>608</ele>
        <time>2026-05-11T07:36:12.000Z</time>
      </trkpt>
      <trkpt lat="45.31814" lon="4.61156">
        <ele>608.20001220703</ele>
        <time>2026-05-11T07:36:13.000Z</time>
      </trkpt>
      <trkpt lat="45.31813" lon="4.61154">
        <ele>608.20001220703</ele>
        <time>2026-05-11T07:36:14.000Z</time>
      </trkpt>
      <trkpt lat="45.31812" lon="4.61151">
        <ele>608.20001220703</ele>
        <time>2026-05-11T07:36:15.000Z</time>
      </trkpt>
      <trkpt lat="45.31811" lon="4.61149">
        <ele>608.40002441406</ele>
        <time>2026-05-11T07:36:16.000Z</time>
      </trkpt>
      <trkpt lat="45.3181" lon="4.61146">
        <ele>608.40002441406</ele>
        <time>2026-05-11T07:36:17.000Z</time>
      </trkpt>
      <trkpt lat="45.31808" lon="4.61143">
        <ele>608.59997558594</ele>
        <time>2026-05-11T07:36:18.000Z</time>
      </trkpt>
      <trkpt lat="45.31807" lon="4.6114">
        <ele>608.59997558594</ele>
        <time>2026-05-11T07:36:19.000Z</time>
      </trkpt>
      <trkpt lat="45.31806" lon="4.61138">
        <ele>608.79998779297</ele>
        <time>2026-05-11T07:36:20.000Z</time>
      </trkpt>
      <trkpt lat="45.31805" lon="4.61135">
        <ele>609</ele>
        <time>2026-05-11T07:36:21.000Z</time>
      </trkpt>
      <trkpt lat="45.31803" lon="4.61133">
        <ele>609</ele>
        <time>2026-05-11T07:36:22.000Z</time>
      </trkpt>
      <trkpt lat="45.31802" lon="4.6113">
        <ele>609.20001220703</ele>
        <time>2026-05-11T07:36:23.000Z</time>
      </trkpt>
      <trkpt lat="45.31801" lon="4.61128">
        <ele>609.20001220703</ele>
        <time>2026-05-11T07:36:24.000Z</time>
      </trkpt>
      <trkpt lat="45.31799" lon="4.61125">
        <ele>609.20001220703</ele>
        <time>2026-05-11T07:36:25.000Z</time>
      </trkpt>
      <trkpt lat="45.31798" lon="4.61122">
        <ele>609.40002441406</ele>
        <time>2026-05-11T07:36:26.000Z</time>
      </trkpt>
      <trkpt lat="45.31796" lon="4.6112">
        <ele>609.40002441406</ele>
        <time>2026-05-11T07:36:27.000Z</time>
      </trkpt>
      <trkpt lat="45.31795" lon="4.61117">
        <ele>609.40002441406</ele>
        <time>2026-05-11T07:36:28.000Z</time>
      </trkpt>
      <trkpt lat="45.31793" lon="4.61115">
        <ele>609.59997558594</ele>
        <time>2026-05-11T07:36:29.000Z</time>
      </trkpt>
      <trkpt lat="45.31792" lon="4.61112">
        <ele>609.79998779297</ele>
        <time>2026-05-11T07:36:30.000Z</time>
      </trkpt>
      <trkpt lat="45.3179" lon="4.6111">
        <ele>609.79998779297</ele>
        <time>2026-05-11T07:36:31.000Z</time>
      </trkpt>
      <trkpt lat="45.31789" lon="4.61107">
        <ele>610</ele>
        <time>2026-05-11T07:36:32.000Z</time>
      </trkpt>
      <trkpt lat="45.31787" lon="4.61104">
        <ele>610</ele>
        <time>2026-05-11T07:36:33.000Z</time>
      </trkpt>
      <trkpt lat="45.31786" lon="4.61102">
        <ele>610.20001220703</ele>
        <time>2026-05-11T07:36:34.000Z</time>
      </trkpt>
      <trkpt lat="45.31785" lon="4.61099">
        <ele>610.20001220703</ele>
        <time>2026-05-11T07:36:35.000Z</time>
      </trkpt>
      <trkpt lat="45.31783" lon="4.61097">
        <ele>610.40002441406</ele>
        <time>2026-05-11T07:36:36.000Z</time>
      </trkpt>
      <trkpt lat="45.31782" lon="4.61095">
        <ele>610.40002441406</ele>
        <time>2026-05-11T07:36:37.000Z</time>
      </trkpt>
      <trkpt lat="45.3178" lon="4.61092">
        <ele>610.40002441406</ele>
        <time>2026-05-11T07:36:38.000Z</time>
      </trkpt>
      <trkpt lat="45.31779" lon="4.6109">
        <ele>610.59997558594</ele>
        <time>2026-05-11T07:36:39.000Z</time>
      </trkpt>
      <trkpt lat="45.31777" lon="4.61087">
        <ele>610.59997558594</ele>
        <time>2026-05-11T07:36:40.000Z</time>
      </trkpt>
      <trkpt lat="45.31776" lon="4.61085">
        <ele>610.79998779297</ele>
        <time>2026-05-11T07:36:41.000Z</time>
      </trkpt>
      <trkpt lat="45.31775" lon="4.61083">
        <ele>610.79998779297</ele>
        <time>2026-05-11T07:36:42.000Z</time>
      </trkpt>
      <trkpt lat="45.31773" lon="4.6108">
        <ele>611</ele>
        <time>2026-05-11T07:36:43.000Z</time>
      </trkpt>
      <trkpt lat="45.31772" lon="4.61077">
        <ele>611</ele>
        <time>2026-05-11T07:36:44.000Z</time>
      </trkpt>
      <trkpt lat="45.3177" lon="4.61074">
        <ele>611.20001220703</ele>
        <time>2026-05-11T07:36:45.000Z</time>
      </trkpt>
      <trkpt lat="45.31769" lon="4.61072">
        <ele>611.20001220703</ele>
        <time>2026-05-11T07:36:46.000Z</time>
      </trkpt>
      <trkpt lat="45.31767" lon="4.61069">
        <ele>611.20001220703</ele>
        <time>2026-05-11T07:36:47.000Z</time>
      </trkpt>
      <trkpt lat="45.31766" lon="4.61066">
        <ele>611.40002441406</ele>
        <time>2026-05-11T07:36:48.000Z</time>
      </trkpt>
      <trkpt lat="45.31764" lon="4.61063">
        <ele>611.40002441406</ele>
        <time>2026-05-11T07:36:49.000Z</time>
      </trkpt>
      <trkpt lat="45.31763" lon="4.61061">
        <ele>611.59997558594</ele>
        <time>2026-05-11T07:36:50.000Z</time>
      </trkpt>
      <trkpt lat="45.31761" lon="4.61058">
        <ele>611.59997558594</ele>
        <time>2026-05-11T07:36:51.000Z</time>
      </trkpt>
      <trkpt lat="45.3176" lon="4.61056">
        <ele>611.59997558594</ele>
        <time>2026-05-11T07:36:52.000Z</time>
      </trkpt>
      <trkpt lat="45.31758" lon="4.61053">
        <ele>611.79998779297</ele>
        <time>2026-05-11T07:36:53.000Z</time>
      </trkpt>
      <trkpt lat="45.31757" lon="4.61051">
        <ele>611.79998779297</ele>
        <time>2026-05-11T07:36:54.000Z</time>
      </trkpt>
      <trkpt lat="45.31755" lon="4.61049">
        <ele>612</ele>
        <time>2026-05-11T07:36:55.000Z</time>
      </trkpt>
      <trkpt lat="45.31754" lon="4.61046">
        <ele>612</ele>
        <time>2026-05-11T07:36:56.000Z</time>
      </trkpt>
      <trkpt lat="45.31753" lon="4.61043">
        <ele>612.20001220703</ele>
        <time>2026-05-11T07:36:57.000Z</time>
      </trkpt>
      <trkpt lat="45.31751" lon="4.61041">
        <ele>612.20001220703</ele>
        <time>2026-05-11T07:36:58.000Z</time>
      </trkpt>
      <trkpt lat="45.3175" lon="4.61038">
        <ele>612.40002441406</ele>
        <time>2026-05-11T07:36:59.000Z</time>
      </trkpt>
      <trkpt lat="45.31748" lon="4.61036">
        <ele>612.40002441406</ele>
        <time>2026-05-11T07:37:00.000Z</time>
      </trkpt>
      <trkpt lat="45.31747" lon="4.61033">
        <ele>612.59997558594</ele>
        <time>2026-05-11T07:37:01.000Z</time>
      </trkpt>
      <trkpt lat="45.31745" lon="4.6103">
        <ele>612.59997558594</ele>
        <time>2026-05-11T07:37:02.000Z</time>
      </trkpt>
      <trkpt lat="45.31744" lon="4.61027">
        <ele>612.59997558594</ele>
        <time>2026-05-11T07:37:03.000Z</time>
      </trkpt>
      <trkpt lat="45.31742" lon="4.61024">
        <ele>612.79998779297</ele>
        <time>2026-05-11T07:37:04.000Z</time>
      </trkpt>
      <trkpt lat="45.3174" lon="4.61022">
        <ele>612.79998779297</ele>
        <time>2026-05-11T07:37:05.000Z</time>
      </trkpt>
      <trkpt lat="45.31739" lon="4.61019">
        <ele>612.79998779297</ele>
        <time>2026-05-11T07:37:06.000Z</time>
      </trkpt>
      <trkpt lat="45.31737" lon="4.61016">
        <ele>613</ele>
        <time>2026-05-11T07:37:07.000Z</time>
      </trkpt>
      <trkpt lat="45.31735" lon="4.61013">
        <ele>613</ele>
        <time>2026-05-11T07:37:08.000Z</time>
      </trkpt>
      <trkpt lat="45.31734" lon="4.61011">
        <ele>613.20001220703</ele>
        <time>2026-05-11T07:37:09.000Z</time>
      </trkpt>
      <trkpt lat="45.31732" lon="4.61008">
        <ele>613.20001220703</ele>
        <time>2026-05-11T07:37:10.000Z</time>
      </trkpt>
      <trkpt lat="45.3173" lon="4.61005">
        <ele>613.40002441406</ele>
        <time>2026-05-11T07:37:11.000Z</time>
      </trkpt>
      <trkpt lat="45.31729" lon="4.61002">
        <ele>613.59997558594</ele>
        <time>2026-05-11T07:37:12.000Z</time>
      </trkpt>
      <trkpt lat="45.31727" lon="4.60999">
        <ele>613.59997558594</ele>
        <time>2026-05-11T07:37:13.000Z</time>
      </trkpt>
      <trkpt lat="45.31726" lon="4.60996">
        <ele>613.79998779297</ele>
        <time>2026-05-11T07:37:14.000Z</time>
      </trkpt>
      <trkpt lat="45.31724" lon="4.60994">
        <ele>613.79998779297</ele>
        <time>2026-05-11T07:37:15.000Z</time>
      </trkpt>
      <trkpt lat="45.31723" lon="4.60991">
        <ele>614</ele>
        <time>2026-05-11T07:37:16.000Z</time>
      </trkpt>
      <trkpt lat="45.31721" lon="4.60988">
        <ele>614</ele>
        <time>2026-05-11T07:37:17.000Z</time>
      </trkpt>
      <trkpt lat="45.3172" lon="4.60986">
        <ele>614.20001220703</ele>
        <time>2026-05-11T07:37:18.000Z</time>
      </trkpt>
      <trkpt lat="45.31718" lon="4.60983">
        <ele>614.20001220703</ele>
        <time>2026-05-11T07:37:19.000Z</time>
      </trkpt>
      <trkpt lat="45.31717" lon="4.6098">
        <ele>614.40002441406</ele>
        <time>2026-05-11T07:37:20.000Z</time>
      </trkpt>
      <trkpt lat="45.31715" lon="4.60977">
        <ele>614.40002441406</ele>
        <time>2026-05-11T07:37:21.000Z</time>
      </trkpt>
      <trkpt lat="45.31714" lon="4.60974">
        <ele>614.59997558594</ele>
        <time>2026-05-11T07:37:22.000Z</time>
      </trkpt>
      <trkpt lat="45.31712" lon="4.60972">
        <ele>614.59997558594</ele>
        <time>2026-05-11T07:37:23.000Z</time>
      </trkpt>
      <trkpt lat="45.31711" lon="4.60969">
        <ele>614.59997558594</ele>
        <time>2026-05-11T07:37:24.000Z</time>
      </trkpt>
      <trkpt lat="45.31709" lon="4.60966">
        <ele>614.79998779297</ele>
        <time>2026-05-11T07:37:25.000Z</time>
      </trkpt>
      <trkpt lat="45.31708" lon="4.60964">
        <ele>614.79998779297</ele>
        <time>2026-05-11T07:37:26.000Z</time>
      </trkpt>
      <trkpt lat="45.31706" lon="4.60961">
        <ele>615</ele>
        <time>2026-05-11T07:37:27.000Z</time>
      </trkpt>
      <trkpt lat="45.31705" lon="4.60958">
        <ele>615</ele>
        <time>2026-05-11T07:37:28.000Z</time>
      </trkpt>
      <trkpt lat="45.31703" lon="4.60956">
        <ele>615.20001220703</ele>
        <time>2026-05-11T07:37:29.000Z</time>
      </trkpt>
      <trkpt lat="45.31702" lon="4.60952">
        <ele>615.20001220703</ele>
        <time>2026-05-11T07:37:30.000Z</time>
      </trkpt>
      <trkpt lat="45.317" lon="4.6095">
        <ele>615.20001220703</ele>
        <time>2026-05-11T07:37:31.000Z</time>
      </trkpt>
      <trkpt lat="45.31698" lon="4.60947">
        <ele>615.40002441406</ele>
        <time>2026-05-11T07:37:32.000Z</time>
      </trkpt>
      <trkpt lat="45.31697" lon="4.60944">
        <ele>615.40002441406</ele>
        <time>2026-05-11T07:37:33.000Z</time>
      </trkpt>
      <trkpt lat="45.31695" lon="4.60941">
        <ele>615.59997558594</ele>
        <time>2026-05-11T07:37:34.000Z</time>
      </trkpt>
      <trkpt lat="45.31693" lon="4.60938">
        <ele>615.59997558594</ele>
        <time>2026-05-11T07:37:35.000Z</time>
      </trkpt>
      <trkpt lat="45.31692" lon="4.60935">
        <ele>615.79998779297</ele>
        <time>2026-05-11T07:37:36.000Z</time>
      </trkpt>
      <trkpt lat="45.3169" lon="4.60932">
        <ele>615.79998779297</ele>
        <time>2026-05-11T07:37:37.000Z</time>
      </trkpt>
      <trkpt lat="45.31689" lon="4.6093">
        <ele>616</ele>
        <time>2026-05-11T07:37:38.000Z</time>
      </trkpt>
      <trkpt lat="45.31687" lon="4.60927">
        <ele>616</ele>
        <time>2026-05-11T07:37:39.000Z</time>
      </trkpt>
      <trkpt lat="45.31685" lon="4.60925">
        <ele>616</ele>
        <time>2026-05-11T07:37:40.000Z</time>
      </trkpt>
      <trkpt lat="45.31684" lon="4.60922">
        <ele>616</ele>
        <time>2026-05-11T07:37:41.000Z</time>
      </trkpt>
      <trkpt lat="45.31682" lon="4.60918">
        <ele>616</ele>
        <time>2026-05-11T07:37:42.000Z</time>
      </trkpt>
      <trkpt lat="45.31681" lon="4.60915">
        <ele>616.20001220703</ele>
        <time>2026-05-11T07:37:43.000Z</time>
      </trkpt>
      <trkpt lat="45.31679" lon="4.60913">
        <ele>616.20001220703</ele>
        <time>2026-05-11T07:37:44.000Z</time>
      </trkpt>
      <trkpt lat="45.31677" lon="4.6091">
        <ele>616.20001220703</ele>
        <time>2026-05-11T07:37:45.000Z</time>
      </trkpt>
      <trkpt lat="45.31676" lon="4.60907">
        <ele>616.40002441406</ele>
        <time>2026-05-11T07:37:46.000Z</time>
      </trkpt>
      <trkpt lat="45.31674" lon="4.60904">
        <ele>616.40002441406</ele>
        <time>2026-05-11T07:37:47.000Z</time>
      </trkpt>
      <trkpt lat="45.31673" lon="4.60902">
        <ele>616.40002441406</ele>
        <time>2026-05-11T07:37:48.000Z</time>
      </trkpt>
      <trkpt lat="45.31671" lon="4.609">
        <ele>616.40002441406</ele>
        <time>2026-05-11T07:37:49.000Z</time>
      </trkpt>
      <trkpt lat="45.3167" lon="4.60897">
        <ele>616.59997558594</ele>
        <time>2026-05-11T07:37:50.000Z</time>
      </trkpt>
      <trkpt lat="45.31669" lon="4.60895">
        <ele>616.59997558594</ele>
        <time>2026-05-11T07:37:51.000Z</time>
      </trkpt>
      <trkpt lat="45.31668" lon="4.60893">
        <ele>616.59997558594</ele>
        <time>2026-05-11T07:37:52.000Z</time>
      </trkpt>
      <trkpt lat="45.31666" lon="4.6089">
        <ele>616.59997558594</ele>
        <time>2026-05-11T07:37:53.000Z</time>
      </trkpt>
      <trkpt lat="45.31665" lon="4.60888">
        <ele>616.79998779297</ele>
        <time>2026-05-11T07:37:54.000Z</time>
      </trkpt>
      <trkpt lat="45.31663" lon="4.60885">
        <ele>616.79998779297</ele>
        <time>2026-05-11T07:37:55.000Z</time>
      </trkpt>
      <trkpt lat="45.31662" lon="4.60883">
        <ele>616.79998779297</ele>
        <time>2026-05-11T07:37:56.000Z</time>
      </trkpt>
      <trkpt lat="45.3166" lon="4.6088">
        <ele>616.79998779297</ele>
        <time>2026-05-11T07:37:57.000Z</time>
      </trkpt>
      <trkpt lat="45.31658" lon="4.60878">
        <ele>616.79998779297</ele>
        <time>2026-05-11T07:37:58.000Z</time>
      </trkpt>
      <trkpt lat="45.31657" lon="4.60875">
        <ele>616.79998779297</ele>
        <time>2026-05-11T07:37:59.000Z</time>
      </trkpt>
      <trkpt lat="45.31656" lon="4.60872">
        <ele>617</ele>
        <time>2026-05-11T07:38:00.000Z</time>
      </trkpt>
      <trkpt lat="45.31654" lon="4.60869">
        <ele>617</ele>
        <time>2026-05-11T07:38:01.000Z</time>
      </trkpt>
      <trkpt lat="45.31652" lon="4.60867">
        <ele>617.20001220703</ele>
        <time>2026-05-11T07:38:02.000Z</time>
      </trkpt>
      <trkpt lat="45.31651" lon="4.60864">
        <ele>617.20001220703</ele>
        <time>2026-05-11T07:38:03.000Z</time>
      </trkpt>
      <trkpt lat="45.31649" lon="4.60862">
        <ele>617.20001220703</ele>
        <time>2026-05-11T07:38:04.000Z</time>
      </trkpt>
      <trkpt lat="45.31647" lon="4.60859">
        <ele>617.40002441406</ele>
        <time>2026-05-11T07:38:05.000Z</time>
      </trkpt>
      <trkpt lat="45.31646" lon="4.60856">
        <ele>617.40002441406</ele>
        <time>2026-05-11T07:38:06.000Z</time>
      </trkpt>
      <trkpt lat="45.31644" lon="4.60853">
        <ele>617.59997558594</ele>
        <time>2026-05-11T07:38:07.000Z</time>
      </trkpt>
      <trkpt lat="45.31642" lon="4.60851">
        <ele>617.59997558594</ele>
        <time>2026-05-11T07:38:08.000Z</time>
      </trkpt>
      <trkpt lat="45.31641" lon="4.60848">
        <ele>617.59997558594</ele>
        <time>2026-05-11T07:38:09.000Z</time>
      </trkpt>
      <trkpt lat="45.31639" lon="4.60845">
        <ele>617.79998779297</ele>
        <time>2026-05-11T07:38:10.000Z</time>
      </trkpt>
      <trkpt lat="45.31637" lon="4.60842">
        <ele>617.79998779297</ele>
        <time>2026-05-11T07:38:11.000Z</time>
      </trkpt>
      <trkpt lat="45.31636" lon="4.60839">
        <ele>618</ele>
        <time>2026-05-11T07:38:12.000Z</time>
      </trkpt>
      <trkpt lat="45.31634" lon="4.60836">
        <ele>618</ele>
        <time>2026-05-11T07:38:13.000Z</time>
      </trkpt>
      <trkpt lat="45.31632" lon="4.60834">
        <ele>618.20001220703</ele>
        <time>2026-05-11T07:38:14.000Z</time>
      </trkpt>
      <trkpt lat="45.31631" lon="4.60831">
        <ele>618.20001220703</ele>
        <time>2026-05-11T07:38:15.000Z</time>
      </trkpt>
      <trkpt lat="45.31629" lon="4.60827">
        <ele>618.20001220703</ele>
        <time>2026-05-11T07:38:16.000Z</time>
      </trkpt>
      <trkpt lat="45.31627" lon="4.60824">
        <ele>618.40002441406</ele>
        <time>2026-05-11T07:38:17.000Z</time>
      </trkpt>
      <trkpt lat="45.31626" lon="4.60821">
        <ele>618.40002441406</ele>
        <time>2026-05-11T07:38:18.000Z</time>
      </trkpt>
      <trkpt lat="45.31624" lon="4.60818">
        <ele>618.40002441406</ele>
        <time>2026-05-11T07:38:19.000Z</time>
      </trkpt>
      <trkpt lat="45.31622" lon="4.60816">
        <ele>618.59997558594</ele>
        <time>2026-05-11T07:38:20.000Z</time>
      </trkpt>
      <trkpt lat="45.31621" lon="4.60813">
        <ele>618.59997558594</ele>
        <time>2026-05-11T07:38:21.000Z</time>
      </trkpt>
      <trkpt lat="45.31619" lon="4.6081">
        <ele>618.59997558594</ele>
        <time>2026-05-11T07:38:22.000Z</time>
      </trkpt>
      <trkpt lat="45.31617" lon="4.60807">
        <ele>618.79998779297</ele>
        <time>2026-05-11T07:38:23.000Z</time>
      </trkpt>
      <trkpt lat="45.31615" lon="4.60804">
        <ele>618.79998779297</ele>
        <time>2026-05-11T07:38:24.000Z</time>
      </trkpt>
      <trkpt lat="45.31614" lon="4.60801">
        <ele>618.79998779297</ele>
        <time>2026-05-11T07:38:25.000Z</time>
      </trkpt>
      <trkpt lat="45.31612" lon="4.60798">
        <ele>618.79998779297</ele>
        <time>2026-05-11T07:38:26.000Z</time>
      </trkpt>
      <trkpt lat="45.3161" lon="4.60795">
        <ele>619</ele>
        <time>2026-05-11T07:38:27.000Z</time>
      </trkpt>
      <trkpt lat="45.31608" lon="4.60791">
        <ele>619</ele>
        <time>2026-05-11T07:38:28.000Z</time>
      </trkpt>
      <trkpt lat="45.31606" lon="4.60788">
        <ele>619</ele>
        <time>2026-05-11T07:38:29.000Z</time>
      </trkpt>
      <trkpt lat="45.31605" lon="4.60785">
        <ele>619</ele>
        <time>2026-05-11T07:38:30.000Z</time>
      </trkpt>
      <trkpt lat="45.31603" lon="4.60782">
        <ele>619</ele>
        <time>2026-05-11T07:38:31.000Z</time>
      </trkpt>
      <trkpt lat="45.31601" lon="4.60778">
        <ele>619</ele>
        <time>2026-05-11T07:38:32.000Z</time>
      </trkpt>
      <trkpt lat="45.31599" lon="4.60774">
        <ele>619</ele>
        <time>2026-05-11T07:38:33.000Z</time>
      </trkpt>
      <trkpt lat="45.31598" lon="4.6077">
        <ele>619</ele>
        <time>2026-05-11T07:38:34.000Z</time>
      </trkpt>
      <trkpt lat="45.31596" lon="4.60766">
        <ele>619</ele>
        <time>2026-05-11T07:38:35.000Z</time>
      </trkpt>
      <trkpt lat="45.31594" lon="4.60762">
        <ele>619.20001220703</ele>
        <time>2026-05-11T07:38:36.000Z</time>
      </trkpt>
      <trkpt lat="45.31592" lon="4.60758">
        <ele>619.20001220703</ele>
        <time>2026-05-11T07:38:37.000Z</time>
      </trkpt>
      <trkpt lat="45.31591" lon="4.60755">
        <ele>619.20001220703</ele>
        <time>2026-05-11T07:38:38.000Z</time>
      </trkpt>
      <trkpt lat="45.31589" lon="4.60751">
        <ele>619.20001220703</ele>
        <time>2026-05-11T07:38:39.000Z</time>
      </trkpt>
      <trkpt lat="45.31588" lon="4.60748">
        <ele>619.20001220703</ele>
        <time>2026-05-11T07:38:40.000Z</time>
      </trkpt>
      <trkpt lat="45.31587" lon="4.60745">
        <ele>619.20001220703</ele>
        <time>2026-05-11T07:38:41.000Z</time>
      </trkpt>
      <trkpt lat="45.31585" lon="4.60741">
        <ele>619.20001220703</ele>
        <time>2026-05-11T07:38:42.000Z</time>
      </trkpt>
      <trkpt lat="45.31584" lon="4.60738">
        <ele>619</ele>
        <time>2026-05-11T07:38:43.000Z</time>
      </trkpt>
      <trkpt lat="45.31583" lon="4.60734">
        <ele>619</ele>
        <time>2026-05-11T07:38:44.000Z</time>
      </trkpt>
      <trkpt lat="45.31581" lon="4.60729">
        <ele>619</ele>
        <time>2026-05-11T07:38:45.000Z</time>
      </trkpt>
      <trkpt lat="45.3158" lon="4.60725">
        <ele>619</ele>
        <time>2026-05-11T07:38:46.000Z</time>
      </trkpt>
      <trkpt lat="45.31578" lon="4.60721">
        <ele>619</ele>
        <time>2026-05-11T07:38:47.000Z</time>
      </trkpt>
      <trkpt lat="45.31577" lon="4.60717">
        <ele>619</ele>
        <time>2026-05-11T07:38:48.000Z</time>
      </trkpt>
      <trkpt lat="45.31575" lon="4.60713">
        <ele>619</ele>
        <time>2026-05-11T07:38:49.000Z</time>
      </trkpt>
      <trkpt lat="45.31574" lon="4.60709">
        <ele>619</ele>
        <time>2026-05-11T07:38:50.000Z</time>
      </trkpt>
      <trkpt lat="45.31572" lon="4.60705">
        <ele>619</ele>
        <time>2026-05-11T07:38:51.000Z</time>
      </trkpt>
      <trkpt lat="45.3157" lon="4.607">
        <ele>619</ele>
        <time>2026-05-11T07:38:52.000Z</time>
      </trkpt>
      <trkpt lat="45.31569" lon="4.60696">
        <ele>619</ele>
        <time>2026-05-11T07:38:53.000Z</time>
      </trkpt>
      <trkpt lat="45.31568" lon="4.60692">
        <ele>619</ele>
        <time>2026-05-11T07:38:54.000Z</time>
      </trkpt>
      <trkpt lat="45.31566" lon="4.60687">
        <ele>618.79998779297</ele>
        <time>2026-05-11T07:38:55.000Z</time>
      </trkpt>
      <trkpt lat="45.31565" lon="4.60683">
        <ele>618.79998779297</ele>
        <time>2026-05-11T07:38:56.000Z</time>
      </trkpt>
      <trkpt lat="45.31563" lon="4.60679">
        <ele>618.59997558594</ele>
        <time>2026-05-11T07:38:57.000Z</time>
      </trkpt>
      <trkpt lat="45.31562" lon="4.60675">
        <ele>618.59997558594</ele>
        <time>2026-05-11T07:38:58.000Z</time>
      </trkpt>
      <trkpt lat="45.31556" lon="4.60659">
        <ele>618.20001220703</ele>
        <time>2026-05-11T07:39:02.000Z</time>
      </trkpt>
      <trkpt lat="45.31556" lon="4.60659">
        <ele>618.20001220703</ele>
        <time>2026-05-11T07:39:03.000Z</time>
      </trkpt>
      <trkpt lat="45.31555" lon="4.60655">
        <ele>618</ele>
        <time>2026-05-11T07:39:04.000Z</time>
      </trkpt>
      <trkpt lat="45.31554" lon="4.60651">
        <ele>617.79998779297</ele>
        <time>2026-05-11T07:39:05.000Z</time>
      </trkpt>
      <trkpt lat="45.31552" lon="4.60647">
        <ele>617.59997558594</ele>
        <time>2026-05-11T07:39:06.000Z</time>
      </trkpt>
      <trkpt lat="45.3155" lon="4.60643">
        <ele>617.59997558594</ele>
        <time>2026-05-11T07:39:07.000Z</time>
      </trkpt>
      <trkpt lat="45.31548" lon="4.60639">
        <ele>617.40002441406</ele>
        <time>2026-05-11T07:39:08.000Z</time>
      </trkpt>
      <trkpt lat="45.31547" lon="4.60635">
        <ele>617.40002441406</ele>
        <time>2026-05-11T07:39:09.000Z</time>
      </trkpt>
      <trkpt lat="45.31545" lon="4.60631">
        <ele>617.40002441406</ele>
        <time>2026-05-11T07:39:10.000Z</time>
      </trkpt>
      <trkpt lat="45.31543" lon="4.60627">
        <ele>617.59997558594</ele>
        <time>2026-05-11T07:39:11.000Z</time>
      </trkpt>
      <trkpt lat="45.31542" lon="4.60623">
        <ele>617.59997558594</ele>
        <time>2026-05-11T07:39:12.000Z</time>
      </trkpt>
      <trkpt lat="45.3154" lon="4.60618">
        <ele>617.79998779297</ele>
        <time>2026-05-11T07:39:13.000Z</time>
      </trkpt>
      <trkpt lat="45.31538" lon="4.60614">
        <ele>618</ele>
        <time>2026-05-11T07:39:14.000Z</time>
      </trkpt>
      <trkpt lat="45.31537" lon="4.6061">
        <ele>618.20001220703</ele>
        <time>2026-05-11T07:39:15.000Z</time>
      </trkpt>
      <trkpt lat="45.31535" lon="4.60606">
        <ele>618.40002441406</ele>
        <time>2026-05-11T07:39:16.000Z</time>
      </trkpt>
      <trkpt lat="45.31534" lon="4.60602">
        <ele>618.40002441406</ele>
        <time>2026-05-11T07:39:17.000Z</time>
      </trkpt>
      <trkpt lat="45.31532" lon="4.60598">
        <ele>618.59997558594</ele>
        <time>2026-05-11T07:39:18.000Z</time>
      </trkpt>
      <trkpt lat="45.31531" lon="4.60594">
        <ele>618.79998779297</ele>
        <time>2026-05-11T07:39:19.000Z</time>
      </trkpt>
      <trkpt lat="45.31529" lon="4.6059">
        <ele>618.79998779297</ele>
        <time>2026-05-11T07:39:20.000Z</time>
      </trkpt>
      <trkpt lat="45.31527" lon="4.60586">
        <ele>619</ele>
        <time>2026-05-11T07:39:21.000Z</time>
      </trkpt>
      <trkpt lat="45.31526" lon="4.60582">
        <ele>619</ele>
        <time>2026-05-11T07:39:22.000Z</time>
      </trkpt>
      <trkpt lat="45.31524" lon="4.60579">
        <ele>619.20001220703</ele>
        <time>2026-05-11T07:39:23.000Z</time>
      </trkpt>
      <trkpt lat="45.31523" lon="4.60575">
        <ele>619.20001220703</ele>
        <time>2026-05-11T07:39:24.000Z</time>
      </trkpt>
      <trkpt lat="45.31521" lon="4.60571">
        <ele>619.20001220703</ele>
        <time>2026-05-11T07:39:25.000Z</time>
      </trkpt>
      <trkpt lat="45.31519" lon="4.60567">
        <ele>619.20001220703</ele>
        <time>2026-05-11T07:39:26.000Z</time>
      </trkpt>
      <trkpt lat="45.31518" lon="4.60564">
        <ele>619.20001220703</ele>
        <time>2026-05-11T07:39:27.000Z</time>
      </trkpt>
      <trkpt lat="45.31516" lon="4.6056">
        <ele>619.40002441406</ele>
        <time>2026-05-11T07:39:28.000Z</time>
      </trkpt>
      <trkpt lat="45.31515" lon="4.60556">
        <ele>619.40002441406</ele>
        <time>2026-05-11T07:39:29.000Z</time>
      </trkpt>
      <trkpt lat="45.31513" lon="4.60552">
        <ele>619.59997558594</ele>
        <time>2026-05-11T07:39:30.000Z</time>
      </trkpt>
      <trkpt lat="45.31512" lon="4.60548">
        <ele>619.59997558594</ele>
        <time>2026-05-11T07:39:31.000Z</time>
      </trkpt>
      <trkpt lat="45.3151" lon="4.60545">
        <ele>619.59997558594</ele>
        <time>2026-05-11T07:39:32.000Z</time>
      </trkpt>
      <trkpt lat="45.31508" lon="4.60541">
        <ele>619.79998779297</ele>
        <time>2026-05-11T07:39:33.000Z</time>
      </trkpt>
      <trkpt lat="45.31506" lon="4.60538">
        <ele>619.79998779297</ele>
        <time>2026-05-11T07:39:34.000Z</time>
      </trkpt>
      <trkpt lat="45.31505" lon="4.60534">
        <ele>620</ele>
        <time>2026-05-11T07:39:35.000Z</time>
      </trkpt>
      <trkpt lat="45.31503" lon="4.60531">
        <ele>620</ele>
        <time>2026-05-11T07:39:36.000Z</time>
      </trkpt>
      <trkpt lat="45.31501" lon="4.60528">
        <ele>620.20001220703</ele>
        <time>2026-05-11T07:39:37.000Z</time>
      </trkpt>
      <trkpt lat="45.31499" lon="4.60524">
        <ele>620.20001220703</ele>
        <time>2026-05-11T07:39:38.000Z</time>
      </trkpt>
      <trkpt lat="45.31497" lon="4.60521">
        <ele>620.40002441406</ele>
        <time>2026-05-11T07:39:39.000Z</time>
      </trkpt>
      <trkpt lat="45.31495" lon="4.60518">
        <ele>620.40002441406</ele>
        <time>2026-05-11T07:39:40.000Z</time>
      </trkpt>
      <trkpt lat="45.31493" lon="4.60515">
        <ele>620.59997558594</ele>
        <time>2026-05-11T07:39:41.000Z</time>
      </trkpt>
      <trkpt lat="45.31491" lon="4.60511">
        <ele>620.59997558594</ele>
        <time>2026-05-11T07:39:42.000Z</time>
      </trkpt>
      <trkpt lat="45.31489" lon="4.60508">
        <ele>620.79998779297</ele>
        <time>2026-05-11T07:39:43.000Z</time>
      </trkpt>
      <trkpt lat="45.31487" lon="4.60505">
        <ele>620.79998779297</ele>
        <time>2026-05-11T07:39:44.000Z</time>
      </trkpt>
      <trkpt lat="45.31486" lon="4.60502">
        <ele>621</ele>
        <time>2026-05-11T07:39:45.000Z</time>
      </trkpt>
      <trkpt lat="45.31484" lon="4.60499">
        <ele>621</ele>
        <time>2026-05-11T07:39:46.000Z</time>
      </trkpt>
      <trkpt lat="45.31482" lon="4.60497">
        <ele>621.20001220703</ele>
        <time>2026-05-11T07:39:47.000Z</time>
      </trkpt>
      <trkpt lat="45.3148" lon="4.60493">
        <ele>621.20001220703</ele>
        <time>2026-05-11T07:39:48.000Z</time>
      </trkpt>
      <trkpt lat="45.31478" lon="4.6049">
        <ele>621.40002441406</ele>
        <time>2026-05-11T07:39:49.000Z</time>
      </trkpt>
      <trkpt lat="45.31477" lon="4.60487">
        <ele>621.40002441406</ele>
        <time>2026-05-11T07:39:50.000Z</time>
      </trkpt>
      <trkpt lat="45.31475" lon="4.60485">
        <ele>621.59997558594</ele>
        <time>2026-05-11T07:39:51.000Z</time>
      </trkpt>
      <trkpt lat="45.31473" lon="4.60482">
        <ele>621.79998779297</ele>
        <time>2026-05-11T07:39:52.000Z</time>
      </trkpt>
      <trkpt lat="45.31472" lon="4.60479">
        <ele>621.79998779297</ele>
        <time>2026-05-11T07:39:53.000Z</time>
      </trkpt>
      <trkpt lat="45.3147" lon="4.60477">
        <ele>622</ele>
        <time>2026-05-11T07:39:54.000Z</time>
      </trkpt>
      <trkpt lat="45.31469" lon="4.60474">
        <ele>622.20001220703</ele>
        <time>2026-05-11T07:39:55.000Z</time>
      </trkpt>
      <trkpt lat="45.31467" lon="4.60472">
        <ele>622.20001220703</ele>
        <time>2026-05-11T07:39:56.000Z</time>
      </trkpt>
      <trkpt lat="45.31466" lon="4.60469">
        <ele>622.40002441406</ele>
        <time>2026-05-11T07:39:57.000Z</time>
      </trkpt>
      <trkpt lat="45.31464" lon="4.60467">
        <ele>622.59997558594</ele>
        <time>2026-05-11T07:39:58.000Z</time>
      </trkpt>
      <trkpt lat="45.31463" lon="4.60464">
        <ele>622.59997558594</ele>
        <time>2026-05-11T07:39:59.000Z</time>
      </trkpt>
      <trkpt lat="45.31461" lon="4.60462">
        <ele>622.79998779297</ele>
        <time>2026-05-11T07:40:00.000Z</time>
      </trkpt>
      <trkpt lat="45.3146" lon="4.60459">
        <ele>622.79998779297</ele>
        <time>2026-05-11T07:40:01.000Z</time>
      </trkpt>
      <trkpt lat="45.31458" lon="4.60457">
        <ele>622.79998779297</ele>
        <time>2026-05-11T07:40:02.000Z</time>
      </trkpt>
      <trkpt lat="45.31457" lon="4.60455">
        <ele>623</ele>
        <time>2026-05-11T07:40:03.000Z</time>
      </trkpt>
      <trkpt lat="45.31455" lon="4.60452">
        <ele>623</ele>
        <time>2026-05-11T07:40:04.000Z</time>
      </trkpt>
      <trkpt lat="45.31454" lon="4.6045">
        <ele>623</ele>
        <time>2026-05-11T07:40:05.000Z</time>
      </trkpt>
      <trkpt lat="45.31452" lon="4.60448">
        <ele>623.20001220703</ele>
        <time>2026-05-11T07:40:06.000Z</time>
      </trkpt>
      <trkpt lat="45.31451" lon="4.60445">
        <ele>623.20001220703</ele>
        <time>2026-05-11T07:40:07.000Z</time>
      </trkpt>
      <trkpt lat="45.31449" lon="4.60443">
        <ele>623.20001220703</ele>
        <time>2026-05-11T07:40:08.000Z</time>
      </trkpt>
      <trkpt lat="45.31448" lon="4.6044">
        <ele>623.40002441406</ele>
        <time>2026-05-11T07:40:09.000Z</time>
      </trkpt>
      <trkpt lat="45.31447" lon="4.60437">
        <ele>623.59997558594</ele>
        <time>2026-05-11T07:40:10.000Z</time>
      </trkpt>
      <trkpt lat="45.31445" lon="4.60435">
        <ele>623.59997558594</ele>
        <time>2026-05-11T07:40:11.000Z</time>
      </trkpt>
      <trkpt lat="45.31444" lon="4.60433">
        <ele>623.79998779297</ele>
        <time>2026-05-11T07:40:12.000Z</time>
      </trkpt>
      <trkpt lat="45.31442" lon="4.6043">
        <ele>624</ele>
        <time>2026-05-11T07:40:13.000Z</time>
      </trkpt>
      <trkpt lat="45.3144" lon="4.60428">
        <ele>624.20001220703</ele>
        <time>2026-05-11T07:40:14.000Z</time>
      </trkpt>
      <trkpt lat="45.31439" lon="4.60425">
        <ele>624.40002441406</ele>
        <time>2026-05-11T07:40:15.000Z</time>
      </trkpt>
      <trkpt lat="45.31437" lon="4.60422">
        <ele>624.40002441406</ele>
        <time>2026-05-11T07:40:16.000Z</time>
      </trkpt>
      <trkpt lat="45.31435" lon="4.60419">
        <ele>624.59997558594</ele>
        <time>2026-05-11T07:40:17.000Z</time>
      </trkpt>
      <trkpt lat="45.31434" lon="4.60417">
        <ele>624.79998779297</ele>
        <time>2026-05-11T07:40:18.000Z</time>
      </trkpt>
      <trkpt lat="45.31432" lon="4.60414">
        <ele>624.79998779297</ele>
        <time>2026-05-11T07:40:19.000Z</time>
      </trkpt>
      <trkpt lat="45.3143" lon="4.60411">
        <ele>625</ele>
        <time>2026-05-11T07:40:20.000Z</time>
      </trkpt>
      <trkpt lat="45.31429" lon="4.60408">
        <ele>625.20001220703</ele>
        <time>2026-05-11T07:40:21.000Z</time>
      </trkpt>
      <trkpt lat="45.31427" lon="4.60406">
        <ele>625.20001220703</ele>
        <time>2026-05-11T07:40:22.000Z</time>
      </trkpt>
      <trkpt lat="45.31425" lon="4.60403">
        <ele>625.40002441406</ele>
        <time>2026-05-11T07:40:23.000Z</time>
      </trkpt>
      <trkpt lat="45.31424" lon="4.604">
        <ele>625.59997558594</ele>
        <time>2026-05-11T07:40:24.000Z</time>
      </trkpt>
      <trkpt lat="45.31422" lon="4.60397">
        <ele>625.59997558594</ele>
        <time>2026-05-11T07:40:25.000Z</time>
      </trkpt>
      <trkpt lat="45.3142" lon="4.60395">
        <ele>625.79998779297</ele>
        <time>2026-05-11T07:40:26.000Z</time>
      </trkpt>
      <trkpt lat="45.31419" lon="4.60392">
        <ele>626</ele>
        <time>2026-05-11T07:40:27.000Z</time>
      </trkpt>
      <trkpt lat="45.31417" lon="4.60389">
        <ele>626.20001220703</ele>
        <time>2026-05-11T07:40:28.000Z</time>
      </trkpt>
      <trkpt lat="45.31415" lon="4.60386">
        <ele>626.40002441406</ele>
        <time>2026-05-11T07:40:29.000Z</time>
      </trkpt>
      <trkpt lat="45.31414" lon="4.60384">
        <ele>626.40002441406</ele>
        <time>2026-05-11T07:40:30.000Z</time>
      </trkpt>
      <trkpt lat="45.31412" lon="4.60381">
        <ele>626.59997558594</ele>
        <time>2026-05-11T07:40:31.000Z</time>
      </trkpt>
      <trkpt lat="45.31411" lon="4.60378">
        <ele>626.79998779297</ele>
        <time>2026-05-11T07:40:32.000Z</time>
      </trkpt>
      <trkpt lat="45.31409" lon="4.60375">
        <ele>626.79998779297</ele>
        <time>2026-05-11T07:40:33.000Z</time>
      </trkpt>
      <trkpt lat="45.31407" lon="4.60372">
        <ele>627</ele>
        <time>2026-05-11T07:40:34.000Z</time>
      </trkpt>
      <trkpt lat="45.31406" lon="4.60369">
        <ele>627.20001220703</ele>
        <time>2026-05-11T07:40:35.000Z</time>
      </trkpt>
      <trkpt lat="45.31404" lon="4.60367">
        <ele>627.20001220703</ele>
        <time>2026-05-11T07:40:36.000Z</time>
      </trkpt>
      <trkpt lat="45.31403" lon="4.60364">
        <ele>627.40002441406</ele>
        <time>2026-05-11T07:40:37.000Z</time>
      </trkpt>
      <trkpt lat="45.31401" lon="4.60361">
        <ele>627.40002441406</ele>
        <time>2026-05-11T07:40:38.000Z</time>
      </trkpt>
      <trkpt lat="45.314" lon="4.60358">
        <ele>627.40002441406</ele>
        <time>2026-05-11T07:40:39.000Z</time>
      </trkpt>
      <trkpt lat="45.31399" lon="4.60354">
        <ele>627.59997558594</ele>
        <time>2026-05-11T07:40:40.000Z</time>
      </trkpt>
      <trkpt lat="45.31398" lon="4.60351">
        <ele>627.79998779297</ele>
        <time>2026-05-11T07:40:41.000Z</time>
      </trkpt>
      <trkpt lat="45.31397" lon="4.60348">
        <ele>628</ele>
        <time>2026-05-11T07:40:42.000Z</time>
      </trkpt>
      <trkpt lat="45.31397" lon="4.60346">
        <ele>628</ele>
        <time>2026-05-11T07:40:43.000Z</time>
      </trkpt>
      <trkpt lat="45.31396" lon="4.60344">
        <ele>628.20001220703</ele>
        <time>2026-05-11T07:40:44.000Z</time>
      </trkpt>
      <trkpt lat="45.31395" lon="4.60342">
        <ele>628.40002441406</ele>
        <time>2026-05-11T07:40:45.000Z</time>
      </trkpt>
      <trkpt lat="45.31394" lon="4.6034">
        <ele>628.59997558594</ele>
        <time>2026-05-11T07:40:46.000Z</time>
      </trkpt>
      <trkpt lat="45.31394" lon="4.60338">
        <ele>628.79998779297</ele>
        <time>2026-05-11T07:40:47.000Z</time>
      </trkpt>
      <trkpt lat="45.31393" lon="4.60335">
        <ele>628.79998779297</ele>
        <time>2026-05-11T07:40:48.000Z</time>
      </trkpt>
      <trkpt lat="45.31392" lon="4.60333">
        <ele>628.79998779297</ele>
        <time>2026-05-11T07:40:49.000Z</time>
      </trkpt>
      <trkpt lat="45.31392" lon="4.60331">
        <ele>629</ele>
        <time>2026-05-11T07:40:50.000Z</time>
      </trkpt>
      <trkpt lat="45.31391" lon="4.60328">
        <ele>629</ele>
        <time>2026-05-11T07:40:51.000Z</time>
      </trkpt>
      <trkpt lat="45.31391" lon="4.60326">
        <ele>629.20001220703</ele>
        <time>2026-05-11T07:40:52.000Z</time>
      </trkpt>
      <trkpt lat="45.3139" lon="4.60323">
        <ele>629.40002441406</ele>
        <time>2026-05-11T07:40:53.000Z</time>
      </trkpt>
      <trkpt lat="45.3139" lon="4.6032">
        <ele>629.40002441406</ele>
        <time>2026-05-11T07:40:54.000Z</time>
      </trkpt>
      <trkpt lat="45.31389" lon="4.60318">
        <ele>629.59997558594</ele>
        <time>2026-05-11T07:40:55.000Z</time>
      </trkpt>
      <trkpt lat="45.31388" lon="4.60315">
        <ele>629.59997558594</ele>
        <time>2026-05-11T07:40:56.000Z</time>
      </trkpt>
      <trkpt lat="45.31387" lon="4.60312">
        <ele>629.79998779297</ele>
        <time>2026-05-11T07:40:57.000Z</time>
      </trkpt>
      <trkpt lat="45.31387" lon="4.6031">
        <ele>629.79998779297</ele>
        <time>2026-05-11T07:40:58.000Z</time>
      </trkpt>
      <trkpt lat="45.31386" lon="4.60308">
        <ele>630</ele>
        <time>2026-05-11T07:40:59.000Z</time>
      </trkpt>
      <trkpt lat="45.31386" lon="4.60305">
        <ele>630</ele>
        <time>2026-05-11T07:41:00.000Z</time>
      </trkpt>
      <trkpt lat="45.31386" lon="4.60302">
        <ele>630.20001220703</ele>
        <time>2026-05-11T07:41:01.000Z</time>
      </trkpt>
      <trkpt lat="45.31386" lon="4.60299">
        <ele>630.20001220703</ele>
        <time>2026-05-11T07:41:02.000Z</time>
      </trkpt>
      <trkpt lat="45.31385" lon="4.60296">
        <ele>630.40002441406</ele>
        <time>2026-05-11T07:41:03.000Z</time>
      </trkpt>
      <trkpt lat="45.31385" lon="4.60292">
        <ele>630.40002441406</ele>
        <time>2026-05-11T07:41:04.000Z</time>
      </trkpt>
      <trkpt lat="45.31384" lon="4.60289">
        <ele>630.40002441406</ele>
        <time>2026-05-11T07:41:05.000Z</time>
      </trkpt>
      <trkpt lat="45.31383" lon="4.60285">
        <ele>630.40002441406</ele>
        <time>2026-05-11T07:41:06.000Z</time>
      </trkpt>
      <trkpt lat="45.31383" lon="4.60282">
        <ele>630.59997558594</ele>
        <time>2026-05-11T07:41:07.000Z</time>
      </trkpt>
      <trkpt lat="45.31382" lon="4.60278">
        <ele>630.59997558594</ele>
        <time>2026-05-11T07:41:08.000Z</time>
      </trkpt>
      <trkpt lat="45.31381" lon="4.60275">
        <ele>630.79998779297</ele>
        <time>2026-05-11T07:41:09.000Z</time>
      </trkpt>
      <trkpt lat="45.31381" lon="4.60271">
        <ele>631</ele>
        <time>2026-05-11T07:41:10.000Z</time>
      </trkpt>
      <trkpt lat="45.3138" lon="4.60268">
        <ele>631.20001220703</ele>
        <time>2026-05-11T07:41:11.000Z</time>
      </trkpt>
      <trkpt lat="45.31379" lon="4.60264">
        <ele>631.40002441406</ele>
        <time>2026-05-11T07:41:12.000Z</time>
      </trkpt>
      <trkpt lat="45.31378" lon="4.60261">
        <ele>631.59997558594</ele>
        <time>2026-05-11T07:41:13.000Z</time>
      </trkpt>
      <trkpt lat="45.31378" lon="4.60258">
        <ele>631.59997558594</ele>
        <time>2026-05-11T07:41:14.000Z</time>
      </trkpt>
      <trkpt lat="45.31377" lon="4.60255">
        <ele>631.79998779297</ele>
        <time>2026-05-11T07:41:15.000Z</time>
      </trkpt>
      <trkpt lat="45.31377" lon="4.60251">
        <ele>631.79998779297</ele>
        <time>2026-05-11T07:41:16.000Z</time>
      </trkpt>
      <trkpt lat="45.31376" lon="4.60248">
        <ele>632</ele>
        <time>2026-05-11T07:41:17.000Z</time>
      </trkpt>
      <trkpt lat="45.31375" lon="4.60245">
        <ele>632.20001220703</ele>
        <time>2026-05-11T07:41:18.000Z</time>
      </trkpt>
      <trkpt lat="45.31375" lon="4.60242">
        <ele>632.20001220703</ele>
        <time>2026-05-11T07:41:19.000Z</time>
      </trkpt>
      <trkpt lat="45.31374" lon="4.60239">
        <ele>632.40002441406</ele>
        <time>2026-05-11T07:41:20.000Z</time>
      </trkpt>
      <trkpt lat="45.31374" lon="4.60235">
        <ele>632.59997558594</ele>
        <time>2026-05-11T07:41:21.000Z</time>
      </trkpt>
      <trkpt lat="45.31373" lon="4.60232">
        <ele>632.59997558594</ele>
        <time>2026-05-11T07:41:22.000Z</time>
      </trkpt>
      <trkpt lat="45.31372" lon="4.60229">
        <ele>633</ele>
        <time>2026-05-11T07:41:23.000Z</time>
      </trkpt>
      <trkpt lat="45.31372" lon="4.60225">
        <ele>633</ele>
        <time>2026-05-11T07:41:24.000Z</time>
      </trkpt>
      <trkpt lat="45.31371" lon="4.60222">
        <ele>633.20001220703</ele>
        <time>2026-05-11T07:41:25.000Z</time>
      </trkpt>
      <trkpt lat="45.3137" lon="4.60219">
        <ele>633.40002441406</ele>
        <time>2026-05-11T07:41:26.000Z</time>
      </trkpt>
      <trkpt lat="45.3137" lon="4.60216">
        <ele>633.59997558594</ele>
        <time>2026-05-11T07:41:27.000Z</time>
      </trkpt>
      <trkpt lat="45.31369" lon="4.60213">
        <ele>633.59997558594</ele>
        <time>2026-05-11T07:41:28.000Z</time>
      </trkpt>
      <trkpt lat="45.31368" lon="4.6021">
        <ele>633.79998779297</ele>
        <time>2026-05-11T07:41:29.000Z</time>
      </trkpt>
      <trkpt lat="45.31367" lon="4.60206">
        <ele>633.79998779297</ele>
        <time>2026-05-11T07:41:30.000Z</time>
      </trkpt>
      <trkpt lat="45.31367" lon="4.60203">
        <ele>634</ele>
        <time>2026-05-11T07:41:31.000Z</time>
      </trkpt>
      <trkpt lat="45.31366" lon="4.602">
        <ele>634.20001220703</ele>
        <time>2026-05-11T07:41:32.000Z</time>
      </trkpt>
      <trkpt lat="45.31365" lon="4.60196">
        <ele>634.20001220703</ele>
        <time>2026-05-11T07:41:33.000Z</time>
      </trkpt>
      <trkpt lat="45.31365" lon="4.60193">
        <ele>634.40002441406</ele>
        <time>2026-05-11T07:41:34.000Z</time>
      </trkpt>
      <trkpt lat="45.31364" lon="4.6019">
        <ele>634.59997558594</ele>
        <time>2026-05-11T07:41:35.000Z</time>
      </trkpt>
      <trkpt lat="45.31363" lon="4.60187">
        <ele>634.59997558594</ele>
        <time>2026-05-11T07:41:36.000Z</time>
      </trkpt>
      <trkpt lat="45.31363" lon="4.60184">
        <ele>634.79998779297</ele>
        <time>2026-05-11T07:41:37.000Z</time>
      </trkpt>
      <trkpt lat="45.31362" lon="4.6018">
        <ele>634.79998779297</ele>
        <time>2026-05-11T07:41:38.000Z</time>
      </trkpt>
      <trkpt lat="45.31362" lon="4.60177">
        <ele>634.79998779297</ele>
        <time>2026-05-11T07:41:39.000Z</time>
      </trkpt>
      <trkpt lat="45.31361" lon="4.60174">
        <ele>635</ele>
        <time>2026-05-11T07:41:40.000Z</time>
      </trkpt>
      <trkpt lat="45.31361" lon="4.60171">
        <ele>635</ele>
        <time>2026-05-11T07:41:41.000Z</time>
      </trkpt>
      <trkpt lat="45.3136" lon="4.60168">
        <ele>635.20001220703</ele>
        <time>2026-05-11T07:41:42.000Z</time>
      </trkpt>
      <trkpt lat="45.3136" lon="4.60165">
        <ele>635.40002441406</ele>
        <time>2026-05-11T07:41:43.000Z</time>
      </trkpt>
      <trkpt lat="45.3136" lon="4.60162">
        <ele>635.59997558594</ele>
        <time>2026-05-11T07:41:44.000Z</time>
      </trkpt>
      <trkpt lat="45.31359" lon="4.60159">
        <ele>635.79998779297</ele>
        <time>2026-05-11T07:41:45.000Z</time>
      </trkpt>
      <trkpt lat="45.31359" lon="4.60157">
        <ele>636</ele>
        <time>2026-05-11T07:41:46.000Z</time>
      </trkpt>
      <trkpt lat="45.31358" lon="4.60154">
        <ele>636.20001220703</ele>
        <time>2026-05-11T07:41:47.000Z</time>
      </trkpt>
      <trkpt lat="45.31358" lon="4.6015">
        <ele>636.40002441406</ele>
        <time>2026-05-11T07:41:48.000Z</time>
      </trkpt>
      <trkpt lat="45.31357" lon="4.60147">
        <ele>636.40002441406</ele>
        <time>2026-05-11T07:41:49.000Z</time>
      </trkpt>
      <trkpt lat="45.31356" lon="4.60144">
        <ele>636.59997558594</ele>
        <time>2026-05-11T07:41:50.000Z</time>
      </trkpt>
      <trkpt lat="45.31355" lon="4.60141">
        <ele>636.59997558594</ele>
        <time>2026-05-11T07:41:51.000Z</time>
      </trkpt>
      <trkpt lat="45.31354" lon="4.60138">
        <ele>636.79998779297</ele>
        <time>2026-05-11T07:41:52.000Z</time>
      </trkpt>
      <trkpt lat="45.31353" lon="4.60135">
        <ele>637</ele>
        <time>2026-05-11T07:41:53.000Z</time>
      </trkpt>
      <trkpt lat="45.31353" lon="4.60132">
        <ele>637</ele>
        <time>2026-05-11T07:41:54.000Z</time>
      </trkpt>
      <trkpt lat="45.31352" lon="4.60129">
        <ele>637.20001220703</ele>
        <time>2026-05-11T07:41:55.000Z</time>
      </trkpt>
      <trkpt lat="45.31351" lon="4.60127">
        <ele>637.40002441406</ele>
        <time>2026-05-11T07:41:56.000Z</time>
      </trkpt>
      <trkpt lat="45.3135" lon="4.60124">
        <ele>637.59997558594</ele>
        <time>2026-05-11T07:41:57.000Z</time>
      </trkpt>
      <trkpt lat="45.31348" lon="4.60121">
        <ele>637.59997558594</ele>
        <time>2026-05-11T07:41:58.000Z</time>
      </trkpt>
      <trkpt lat="45.31347" lon="4.60118">
        <ele>637.79998779297</ele>
        <time>2026-05-11T07:41:59.000Z</time>
      </trkpt>
      <trkpt lat="45.31346" lon="4.60115">
        <ele>637.79998779297</ele>
        <time>2026-05-11T07:42:00.000Z</time>
      </trkpt>
      <trkpt lat="45.31345" lon="4.60113">
        <ele>638</ele>
        <time>2026-05-11T07:42:01.000Z</time>
      </trkpt>
      <trkpt lat="45.31343" lon="4.6011">
        <ele>638</ele>
        <time>2026-05-11T07:42:02.000Z</time>
      </trkpt>
      <trkpt lat="45.31342" lon="4.60108">
        <ele>638.20001220703</ele>
        <time>2026-05-11T07:42:03.000Z</time>
      </trkpt>
      <trkpt lat="45.31341" lon="4.60105">
        <ele>638.40002441406</ele>
        <time>2026-05-11T07:42:04.000Z</time>
      </trkpt>
      <trkpt lat="45.3134" lon="4.60102">
        <ele>638.40002441406</ele>
        <time>2026-05-11T07:42:05.000Z</time>
      </trkpt>
      <trkpt lat="45.31339" lon="4.60099">
        <ele>638.59997558594</ele>
        <time>2026-05-11T07:42:06.000Z</time>
      </trkpt>
      <trkpt lat="45.31337" lon="4.60097">
        <ele>638.59997558594</ele>
        <time>2026-05-11T07:42:07.000Z</time>
      </trkpt>
      <trkpt lat="45.31336" lon="4.60094">
        <ele>638.79998779297</ele>
        <time>2026-05-11T07:42:08.000Z</time>
      </trkpt>
      <trkpt lat="45.31335" lon="4.60091">
        <ele>639</ele>
        <time>2026-05-11T07:42:09.000Z</time>
      </trkpt>
      <trkpt lat="45.31334" lon="4.60088">
        <ele>639</ele>
        <time>2026-05-11T07:42:10.000Z</time>
      </trkpt>
      <trkpt lat="45.31332" lon="4.60086">
        <ele>639.20001220703</ele>
        <time>2026-05-11T07:42:11.000Z</time>
      </trkpt>
      <trkpt lat="45.31331" lon="4.60083">
        <ele>639.40002441406</ele>
        <time>2026-05-11T07:42:12.000Z</time>
      </trkpt>
      <trkpt lat="45.3133" lon="4.6008">
        <ele>639.59997558594</ele>
        <time>2026-05-11T07:42:13.000Z</time>
      </trkpt>
      <trkpt lat="45.31328" lon="4.60077">
        <ele>639.79998779297</ele>
        <time>2026-05-11T07:42:14.000Z</time>
      </trkpt>
      <trkpt lat="45.31327" lon="4.60074">
        <ele>640</ele>
        <time>2026-05-11T07:42:15.000Z</time>
      </trkpt>
      <trkpt lat="45.31326" lon="4.60071">
        <ele>640.20001220703</ele>
        <time>2026-05-11T07:42:16.000Z</time>
      </trkpt>
      <trkpt lat="45.31325" lon="4.60069">
        <ele>640.40002441406</ele>
        <time>2026-05-11T07:42:17.000Z</time>
      </trkpt>
      <trkpt lat="45.31324" lon="4.60067">
        <ele>640.40002441406</ele>
        <time>2026-05-11T07:42:18.000Z</time>
      </trkpt>
      <trkpt lat="45.31322" lon="4.60064">
        <ele>640.40002441406</ele>
        <time>2026-05-11T07:42:19.000Z</time>
      </trkpt>
      <trkpt lat="45.31321" lon="4.60062">
        <ele>640.59997558594</ele>
        <time>2026-05-11T07:42:20.000Z</time>
      </trkpt>
      <trkpt lat="45.3132" lon="4.60059">
        <ele>640.59997558594</ele>
        <time>2026-05-11T07:42:21.000Z</time>
      </trkpt>
      <trkpt lat="45.31319" lon="4.60057">
        <ele>640.79998779297</ele>
        <time>2026-05-11T07:42:22.000Z</time>
      </trkpt>
      <trkpt lat="45.31318" lon="4.60054">
        <ele>641</ele>
        <time>2026-05-11T07:42:23.000Z</time>
      </trkpt>
      <trkpt lat="45.31317" lon="4.60052">
        <ele>641</ele>
        <time>2026-05-11T07:42:24.000Z</time>
      </trkpt>
      <trkpt lat="45.31316" lon="4.60049">
        <ele>641.20001220703</ele>
        <time>2026-05-11T07:42:25.000Z</time>
      </trkpt>
      <trkpt lat="45.31314" lon="4.60047">
        <ele>641.20001220703</ele>
        <time>2026-05-11T07:42:26.000Z</time>
      </trkpt>
      <trkpt lat="45.31313" lon="4.60044">
        <ele>641.20001220703</ele>
        <time>2026-05-11T07:42:27.000Z</time>
      </trkpt>
      <trkpt lat="45.31312" lon="4.60041">
        <ele>641.20001220703</ele>
        <time>2026-05-11T07:42:28.000Z</time>
      </trkpt>
      <trkpt lat="45.31311" lon="4.60038">
        <ele>641.40002441406</ele>
        <time>2026-05-11T07:42:29.000Z</time>
      </trkpt>
      <trkpt lat="45.3131" lon="4.60035">
        <ele>641.40002441406</ele>
        <time>2026-05-11T07:42:30.000Z</time>
      </trkpt>
      <trkpt lat="45.31308" lon="4.60032">
        <ele>641.59997558594</ele>
        <time>2026-05-11T07:42:31.000Z</time>
      </trkpt>
      <trkpt lat="45.31307" lon="4.60029">
        <ele>641.79998779297</ele>
        <time>2026-05-11T07:42:32.000Z</time>
      </trkpt>
      <trkpt lat="45.31306" lon="4.60026">
        <ele>641.79998779297</ele>
        <time>2026-05-11T07:42:33.000Z</time>
      </trkpt>
      <trkpt lat="45.31305" lon="4.60023">
        <ele>642</ele>
        <time>2026-05-11T07:42:34.000Z</time>
      </trkpt>
      <trkpt lat="45.31304" lon="4.6002">
        <ele>642.20001220703</ele>
        <time>2026-05-11T07:42:35.000Z</time>
      </trkpt>
      <trkpt lat="45.31303" lon="4.60017">
        <ele>642.40002441406</ele>
        <time>2026-05-11T07:42:36.000Z</time>
      </trkpt>
      <trkpt lat="45.31302" lon="4.60014">
        <ele>642.59997558594</ele>
        <time>2026-05-11T07:42:37.000Z</time>
      </trkpt>
      <trkpt lat="45.31301" lon="4.60011">
        <ele>642.59997558594</ele>
        <time>2026-05-11T07:42:38.000Z</time>
      </trkpt>
      <trkpt lat="45.313" lon="4.60007">
        <ele>642.79998779297</ele>
        <time>2026-05-11T07:42:39.000Z</time>
      </trkpt>
      <trkpt lat="45.313" lon="4.60004">
        <ele>642.79998779297</ele>
        <time>2026-05-11T07:42:40.000Z</time>
      </trkpt>
      <trkpt lat="45.31299" lon="4.60001">
        <ele>642.79998779297</ele>
        <time>2026-05-11T07:42:41.000Z</time>
      </trkpt>
      <trkpt lat="45.31298" lon="4.59998">
        <ele>643</ele>
        <time>2026-05-11T07:42:42.000Z</time>
      </trkpt>
      <trkpt lat="45.31298" lon="4.59995">
        <ele>643</ele>
        <time>2026-05-11T07:42:43.000Z</time>
      </trkpt>
      <trkpt lat="45.31297" lon="4.59992">
        <ele>643.20001220703</ele>
        <time>2026-05-11T07:42:44.000Z</time>
      </trkpt>
      <trkpt lat="45.31297" lon="4.59989">
        <ele>643.40002441406</ele>
        <time>2026-05-11T07:42:45.000Z</time>
      </trkpt>
      <trkpt lat="45.31296" lon="4.59985">
        <ele>643.59997558594</ele>
        <time>2026-05-11T07:42:46.000Z</time>
      </trkpt>
      <trkpt lat="45.31296" lon="4.59982">
        <ele>643.79998779297</ele>
        <time>2026-05-11T07:42:47.000Z</time>
      </trkpt>
      <trkpt lat="45.31296" lon="4.59979">
        <ele>644</ele>
        <time>2026-05-11T07:42:48.000Z</time>
      </trkpt>
      <trkpt lat="45.31296" lon="4.59976">
        <ele>644.20001220703</ele>
        <time>2026-05-11T07:42:49.000Z</time>
      </trkpt>
      <trkpt lat="45.31296" lon="4.59973">
        <ele>644.40002441406</ele>
        <time>2026-05-11T07:42:50.000Z</time>
      </trkpt>
      <trkpt lat="45.31295" lon="4.59969">
        <ele>644.40002441406</ele>
        <time>2026-05-11T07:42:51.000Z</time>
      </trkpt>
      <trkpt lat="45.31295" lon="4.59966">
        <ele>644.59997558594</ele>
        <time>2026-05-11T07:42:52.000Z</time>
      </trkpt>
      <trkpt lat="45.31295" lon="4.59962">
        <ele>644.79998779297</ele>
        <time>2026-05-11T07:42:53.000Z</time>
      </trkpt>
      <trkpt lat="45.31295" lon="4.59959">
        <ele>645</ele>
        <time>2026-05-11T07:42:54.000Z</time>
      </trkpt>
      <trkpt lat="45.31294" lon="4.59956">
        <ele>645</ele>
        <time>2026-05-11T07:42:55.000Z</time>
      </trkpt>
      <trkpt lat="45.31294" lon="4.59953">
        <ele>645.20001220703</ele>
        <time>2026-05-11T07:42:56.000Z</time>
      </trkpt>
      <trkpt lat="45.31294" lon="4.59949">
        <ele>645.20001220703</ele>
        <time>2026-05-11T07:42:57.000Z</time>
      </trkpt>
      <trkpt lat="45.31294" lon="4.59946">
        <ele>645.40002441406</ele>
        <time>2026-05-11T07:42:58.000Z</time>
      </trkpt>
      <trkpt lat="45.31293" lon="4.59943">
        <ele>645.59997558594</ele>
        <time>2026-05-11T07:42:59.000Z</time>
      </trkpt>
      <trkpt lat="45.31293" lon="4.5994">
        <ele>645.59997558594</ele>
        <time>2026-05-11T07:43:00.000Z</time>
      </trkpt>
      <trkpt lat="45.31293" lon="4.59936">
        <ele>645.79998779297</ele>
        <time>2026-05-11T07:43:01.000Z</time>
      </trkpt>
      <trkpt lat="45.31293" lon="4.59933">
        <ele>646</ele>
        <time>2026-05-11T07:43:02.000Z</time>
      </trkpt>
      <trkpt lat="45.31292" lon="4.59929">
        <ele>646.20001220703</ele>
        <time>2026-05-11T07:43:03.000Z</time>
      </trkpt>
      <trkpt lat="45.31292" lon="4.59926">
        <ele>646.40002441406</ele>
        <time>2026-05-11T07:43:04.000Z</time>
      </trkpt>
      <trkpt lat="45.31292" lon="4.59923">
        <ele>646.59997558594</ele>
        <time>2026-05-11T07:43:05.000Z</time>
      </trkpt>
      <trkpt lat="45.31292" lon="4.59919">
        <ele>646.59997558594</ele>
        <time>2026-05-11T07:43:06.000Z</time>
      </trkpt>
      <trkpt lat="45.31292" lon="4.59916">
        <ele>646.79998779297</ele>
        <time>2026-05-11T07:43:07.000Z</time>
      </trkpt>
      <trkpt lat="45.31292" lon="4.59913">
        <ele>646.79998779297</ele>
        <time>2026-05-11T07:43:08.000Z</time>
      </trkpt>
      <trkpt lat="45.31292" lon="4.5991">
        <ele>646.79998779297</ele>
        <time>2026-05-11T07:43:09.000Z</time>
      </trkpt>
      <trkpt lat="45.31291" lon="4.59907">
        <ele>647</ele>
        <time>2026-05-11T07:43:10.000Z</time>
      </trkpt>
      <trkpt lat="45.31291" lon="4.59904">
        <ele>647</ele>
        <time>2026-05-11T07:43:11.000Z</time>
      </trkpt>
      <trkpt lat="45.31291" lon="4.59901">
        <ele>647.20001220703</ele>
        <time>2026-05-11T07:43:12.000Z</time>
      </trkpt>
      <trkpt lat="45.31291" lon="4.59897">
        <ele>647.20001220703</ele>
        <time>2026-05-11T07:43:13.000Z</time>
      </trkpt>
      <trkpt lat="45.3129" lon="4.59894">
        <ele>647.40002441406</ele>
        <time>2026-05-11T07:43:14.000Z</time>
      </trkpt>
      <trkpt lat="45.3129" lon="4.59891">
        <ele>647.40002441406</ele>
        <time>2026-05-11T07:43:15.000Z</time>
      </trkpt>
      <trkpt lat="45.3129" lon="4.59888">
        <ele>647.59997558594</ele>
        <time>2026-05-11T07:43:16.000Z</time>
      </trkpt>
      <trkpt lat="45.31289" lon="4.59885">
        <ele>647.79998779297</ele>
        <time>2026-05-11T07:43:17.000Z</time>
      </trkpt>
      <trkpt lat="45.3129" lon="4.59882">
        <ele>647.79998779297</ele>
        <time>2026-05-11T07:43:18.000Z</time>
      </trkpt>
      <trkpt lat="45.3129" lon="4.59879">
        <ele>648</ele>
        <time>2026-05-11T07:43:19.000Z</time>
      </trkpt>
      <trkpt lat="45.31289" lon="4.59876">
        <ele>648.20001220703</ele>
        <time>2026-05-11T07:43:20.000Z</time>
      </trkpt>
      <trkpt lat="45.3129" lon="4.59872">
        <ele>648.20001220703</ele>
        <time>2026-05-11T07:43:21.000Z</time>
      </trkpt>
      <trkpt lat="45.3129" lon="4.59869">
        <ele>648.40002441406</ele>
        <time>2026-05-11T07:43:22.000Z</time>
      </trkpt>
      <trkpt lat="45.3129" lon="4.59866">
        <ele>648.40002441406</ele>
        <time>2026-05-11T07:43:23.000Z</time>
      </trkpt>
      <trkpt lat="45.3129" lon="4.59863">
        <ele>648.40002441406</ele>
        <time>2026-05-11T07:43:24.000Z</time>
      </trkpt>
      <trkpt lat="45.3129" lon="4.5986">
        <ele>648.59997558594</ele>
        <time>2026-05-11T07:43:25.000Z</time>
      </trkpt>
      <trkpt lat="45.3129" lon="4.59857">
        <ele>648.59997558594</ele>
        <time>2026-05-11T07:43:26.000Z</time>
      </trkpt>
      <trkpt lat="45.3129" lon="4.59854">
        <ele>648.59997558594</ele>
        <time>2026-05-11T07:43:27.000Z</time>
      </trkpt>
      <trkpt lat="45.31291" lon="4.59851">
        <ele>648.79998779297</ele>
        <time>2026-05-11T07:43:28.000Z</time>
      </trkpt>
      <trkpt lat="45.31291" lon="4.59847">
        <ele>649</ele>
        <time>2026-05-11T07:43:29.000Z</time>
      </trkpt>
      <trkpt lat="45.31291" lon="4.59844">
        <ele>649</ele>
        <time>2026-05-11T07:43:30.000Z</time>
      </trkpt>
      <trkpt lat="45.31291" lon="4.5984">
        <ele>649.20001220703</ele>
        <time>2026-05-11T07:43:31.000Z</time>
      </trkpt>
      <trkpt lat="45.31292" lon="4.59837">
        <ele>649.20001220703</ele>
        <time>2026-05-11T07:43:32.000Z</time>
      </trkpt>
      <trkpt lat="45.31292" lon="4.59834">
        <ele>649.40002441406</ele>
        <time>2026-05-11T07:43:33.000Z</time>
      </trkpt>
      <trkpt lat="45.31293" lon="4.59831">
        <ele>649.40002441406</ele>
        <time>2026-05-11T07:43:34.000Z</time>
      </trkpt>
      <trkpt lat="45.31293" lon="4.59828">
        <ele>649.40002441406</ele>
        <time>2026-05-11T07:43:35.000Z</time>
      </trkpt>
      <trkpt lat="45.31294" lon="4.59825">
        <ele>649.40002441406</ele>
        <time>2026-05-11T07:43:36.000Z</time>
      </trkpt>
      <trkpt lat="45.31295" lon="4.59822">
        <ele>649.40002441406</ele>
        <time>2026-05-11T07:43:37.000Z</time>
      </trkpt>
      <trkpt lat="45.31296" lon="4.59818">
        <ele>649.40002441406</ele>
        <time>2026-05-11T07:43:38.000Z</time>
      </trkpt>
      <trkpt lat="45.31296" lon="4.59815">
        <ele>649.40002441406</ele>
        <time>2026-05-11T07:43:39.000Z</time>
      </trkpt>
      <trkpt lat="45.31297" lon="4.59812">
        <ele>649.40002441406</ele>
        <time>2026-05-11T07:43:40.000Z</time>
      </trkpt>
      <trkpt lat="45.31297" lon="4.59809">
        <ele>649.59997558594</ele>
        <time>2026-05-11T07:43:41.000Z</time>
      </trkpt>
      <trkpt lat="45.31298" lon="4.59806">
        <ele>649.79998779297</ele>
        <time>2026-05-11T07:43:42.000Z</time>
      </trkpt>
      <trkpt lat="45.31299" lon="4.59803">
        <ele>650</ele>
        <time>2026-05-11T07:43:43.000Z</time>
      </trkpt>
      <trkpt lat="45.31299" lon="4.598">
        <ele>650</ele>
        <time>2026-05-11T07:43:44.000Z</time>
      </trkpt>
      <trkpt lat="45.31299" lon="4.59796">
        <ele>650.20001220703</ele>
        <time>2026-05-11T07:43:45.000Z</time>
      </trkpt>
      <trkpt lat="45.313" lon="4.59793">
        <ele>650.40002441406</ele>
        <time>2026-05-11T07:43:46.000Z</time>
      </trkpt>
      <trkpt lat="45.31301" lon="4.5979">
        <ele>650.59997558594</ele>
        <time>2026-05-11T07:43:47.000Z</time>
      </trkpt>
      <trkpt lat="45.31301" lon="4.59787">
        <ele>650.79998779297</ele>
        <time>2026-05-11T07:43:48.000Z</time>
      </trkpt>
      <trkpt lat="45.31302" lon="4.59783">
        <ele>651</ele>
        <time>2026-05-11T07:43:49.000Z</time>
      </trkpt>
      <trkpt lat="45.31302" lon="4.5978">
        <ele>651.20001220703</ele>
        <time>2026-05-11T07:43:50.000Z</time>
      </trkpt>
      <trkpt lat="45.31303" lon="4.59777">
        <ele>651.40002441406</ele>
        <time>2026-05-11T07:43:51.000Z</time>
      </trkpt>
      <trkpt lat="45.31303" lon="4.59774">
        <ele>651.40002441406</ele>
        <time>2026-05-11T07:43:52.000Z</time>
      </trkpt>
      <trkpt lat="45.31304" lon="4.5977">
        <ele>651.59997558594</ele>
        <time>2026-05-11T07:43:53.000Z</time>
      </trkpt>
      <trkpt lat="45.31304" lon="4.59767">
        <ele>651.79998779297</ele>
        <time>2026-05-11T07:43:54.000Z</time>
      </trkpt>
      <trkpt lat="45.31305" lon="4.59765">
        <ele>651.79998779297</ele>
        <time>2026-05-11T07:43:55.000Z</time>
      </trkpt>
      <trkpt lat="45.31306" lon="4.59761">
        <ele>652</ele>
        <time>2026-05-11T07:43:56.000Z</time>
      </trkpt>
      <trkpt lat="45.31306" lon="4.59758">
        <ele>652.20001220703</ele>
        <time>2026-05-11T07:43:57.000Z</time>
      </trkpt>
      <trkpt lat="45.31307" lon="4.59754">
        <ele>652.20001220703</ele>
        <time>2026-05-11T07:43:58.000Z</time>
      </trkpt>
      <trkpt lat="45.31308" lon="4.59751">
        <ele>652.40002441406</ele>
        <time>2026-05-11T07:43:59.000Z</time>
      </trkpt>
      <trkpt lat="45.31308" lon="4.59747">
        <ele>652.59997558594</ele>
        <time>2026-05-11T07:44:00.000Z</time>
      </trkpt>
      <trkpt lat="45.31309" lon="4.59744">
        <ele>652.59997558594</ele>
        <time>2026-05-11T07:44:01.000Z</time>
      </trkpt>
      <trkpt lat="45.3131" lon="4.5974">
        <ele>652.79998779297</ele>
        <time>2026-05-11T07:44:02.000Z</time>
      </trkpt>
      <trkpt lat="45.3131" lon="4.59736">
        <ele>653</ele>
        <time>2026-05-11T07:44:03.000Z</time>
      </trkpt>
      <trkpt lat="45.31311" lon="4.59733">
        <ele>653</ele>
        <time>2026-05-11T07:44:04.000Z</time>
      </trkpt>
      <trkpt lat="45.31312" lon="4.59729">
        <ele>653.20001220703</ele>
        <time>2026-05-11T07:44:05.000Z</time>
      </trkpt>
      <trkpt lat="45.31313" lon="4.59726">
        <ele>653.20001220703</ele>
        <time>2026-05-11T07:44:06.000Z</time>
      </trkpt>
      <trkpt lat="45.31313" lon="4.59722">
        <ele>653.40002441406</ele>
        <time>2026-05-11T07:44:07.000Z</time>
      </trkpt>
      <trkpt lat="45.31314" lon="4.59718">
        <ele>653.40002441406</ele>
        <time>2026-05-11T07:44:08.000Z</time>
      </trkpt>
      <trkpt lat="45.31315" lon="4.59714">
        <ele>653.59997558594</ele>
        <time>2026-05-11T07:44:09.000Z</time>
      </trkpt>
      <trkpt lat="45.31316" lon="4.59711">
        <ele>653.79998779297</ele>
        <time>2026-05-11T07:44:10.000Z</time>
      </trkpt>
      <trkpt lat="45.31316" lon="4.59708">
        <ele>653.79998779297</ele>
        <time>2026-05-11T07:44:11.000Z</time>
      </trkpt>
      <trkpt lat="45.31317" lon="4.59705">
        <ele>654</ele>
        <time>2026-05-11T07:44:12.000Z</time>
      </trkpt>
      <trkpt lat="45.31318" lon="4.59702">
        <ele>654.20001220703</ele>
        <time>2026-05-11T07:44:13.000Z</time>
      </trkpt>
      <trkpt lat="45.31318" lon="4.59698">
        <ele>654.20001220703</ele>
        <time>2026-05-11T07:44:14.000Z</time>
      </trkpt>
      <trkpt lat="45.31319" lon="4.59695">
        <ele>654.40002441406</ele>
        <time>2026-05-11T07:44:15.000Z</time>
      </trkpt>
      <trkpt lat="45.3132" lon="4.59692">
        <ele>654.59997558594</ele>
        <time>2026-05-11T07:44:16.000Z</time>
      </trkpt>
      <trkpt lat="45.31321" lon="4.59688">
        <ele>654.79998779297</ele>
        <time>2026-05-11T07:44:17.000Z</time>
      </trkpt>
      <trkpt lat="45.31321" lon="4.59685">
        <ele>654.79998779297</ele>
        <time>2026-05-11T07:44:18.000Z</time>
      </trkpt>
      <trkpt lat="45.31322" lon="4.59681">
        <ele>655</ele>
        <time>2026-05-11T07:44:19.000Z</time>
      </trkpt>
      <trkpt lat="45.31322" lon="4.59679">
        <ele>655.20001220703</ele>
        <time>2026-05-11T07:44:20.000Z</time>
      </trkpt>
      <trkpt lat="45.31322" lon="4.59676">
        <ele>655.40002441406</ele>
        <time>2026-05-11T07:44:21.000Z</time>
      </trkpt>
      <trkpt lat="45.31322" lon="4.59673">
        <ele>655.59997558594</ele>
        <time>2026-05-11T07:44:22.000Z</time>
      </trkpt>
      <trkpt lat="45.31322" lon="4.59669">
        <ele>655.79998779297</ele>
        <time>2026-05-11T07:44:23.000Z</time>
      </trkpt>
      <trkpt lat="45.31322" lon="4.59666">
        <ele>656</ele>
        <time>2026-05-11T07:44:24.000Z</time>
      </trkpt>
      <trkpt lat="45.31321" lon="4.59662">
        <ele>656</ele>
        <time>2026-05-11T07:44:25.000Z</time>
      </trkpt>
      <trkpt lat="45.31321" lon="4.59659">
        <ele>656</ele>
        <time>2026-05-11T07:44:26.000Z</time>
      </trkpt>
      <trkpt lat="45.3132" lon="4.59656">
        <ele>656.20001220703</ele>
        <time>2026-05-11T07:44:27.000Z</time>
      </trkpt>
      <trkpt lat="45.31319" lon="4.59653">
        <ele>656.20001220703</ele>
        <time>2026-05-11T07:44:28.000Z</time>
      </trkpt>
      <trkpt lat="45.31317" lon="4.5965">
        <ele>656.20001220703</ele>
        <time>2026-05-11T07:44:29.000Z</time>
      </trkpt>
      <trkpt lat="45.31315" lon="4.59647">
        <ele>656.40002441406</ele>
        <time>2026-05-11T07:44:30.000Z</time>
      </trkpt>
      <trkpt lat="45.31313" lon="4.59645">
        <ele>656.40002441406</ele>
        <time>2026-05-11T07:44:31.000Z</time>
      </trkpt>
      <trkpt lat="45.3131" lon="4.59643">
        <ele>656.40002441406</ele>
        <time>2026-05-11T07:44:32.000Z</time>
      </trkpt>
      <trkpt lat="45.31307" lon="4.59641">
        <ele>656.40002441406</ele>
        <time>2026-05-11T07:44:33.000Z</time>
      </trkpt>
      <trkpt lat="45.31305" lon="4.59641">
        <ele>656.59997558594</ele>
        <time>2026-05-11T07:44:34.000Z</time>
      </trkpt>
      <trkpt lat="45.31302" lon="4.59641">
        <ele>656.59997558594</ele>
        <time>2026-05-11T07:44:35.000Z</time>
      </trkpt>
      <trkpt lat="45.313" lon="4.59641">
        <ele>656.59997558594</ele>
        <time>2026-05-11T07:44:36.000Z</time>
      </trkpt>
      <trkpt lat="45.31298" lon="4.59641">
        <ele>656.79998779297</ele>
        <time>2026-05-11T07:44:37.000Z</time>
      </trkpt>
      <trkpt lat="45.31295" lon="4.59641">
        <ele>656.79998779297</ele>
        <time>2026-05-11T07:44:38.000Z</time>
      </trkpt>
      <trkpt lat="45.31293" lon="4.59642">
        <ele>656.79998779297</ele>
        <time>2026-05-11T07:44:39.000Z</time>
      </trkpt>
      <trkpt lat="45.31291" lon="4.59643">
        <ele>657</ele>
        <time>2026-05-11T07:44:40.000Z</time>
      </trkpt>
      <trkpt lat="45.31288" lon="4.59646">
        <ele>657</ele>
        <time>2026-05-11T07:44:41.000Z</time>
      </trkpt>
      <trkpt lat="45.31286" lon="4.59648">
        <ele>657.20001220703</ele>
        <time>2026-05-11T07:44:42.000Z</time>
      </trkpt>
      <trkpt lat="45.31283" lon="4.59651">
        <ele>657.20001220703</ele>
        <time>2026-05-11T07:44:43.000Z</time>
      </trkpt>
      <trkpt lat="45.31282" lon="4.59655">
        <ele>657.20001220703</ele>
        <time>2026-05-11T07:44:44.000Z</time>
      </trkpt>
      <trkpt lat="45.3128" lon="4.59657">
        <ele>657.20001220703</ele>
        <time>2026-05-11T07:44:45.000Z</time>
      </trkpt>
      <trkpt lat="45.31279" lon="4.5966">
        <ele>657.20001220703</ele>
        <time>2026-05-11T07:44:46.000Z</time>
      </trkpt>
      <trkpt lat="45.31278" lon="4.59663">
        <ele>657.40002441406</ele>
        <time>2026-05-11T07:44:47.000Z</time>
      </trkpt>
      <trkpt lat="45.31277" lon="4.59665">
        <ele>657.40002441406</ele>
        <time>2026-05-11T07:44:48.000Z</time>
      </trkpt>
      <trkpt lat="45.31276" lon="4.59668">
        <ele>657.40002441406</ele>
        <time>2026-05-11T07:44:49.000Z</time>
      </trkpt>
      <trkpt lat="45.31274" lon="4.59671">
        <ele>657.40002441406</ele>
        <time>2026-05-11T07:44:50.000Z</time>
      </trkpt>
      <trkpt lat="45.31273" lon="4.59675">
        <ele>657.59997558594</ele>
        <time>2026-05-11T07:44:51.000Z</time>
      </trkpt>
      <trkpt lat="45.31272" lon="4.59678">
        <ele>657.59997558594</ele>
        <time>2026-05-11T07:44:52.000Z</time>
      </trkpt>
      <trkpt lat="45.31271" lon="4.59682">
        <ele>657.59997558594</ele>
        <time>2026-05-11T07:44:53.000Z</time>
      </trkpt>
      <trkpt lat="45.3127" lon="4.59686">
        <ele>657.59997558594</ele>
        <time>2026-05-11T07:44:54.000Z</time>
      </trkpt>
      <trkpt lat="45.31268" lon="4.5969">
        <ele>657.59997558594</ele>
        <time>2026-05-11T07:44:55.000Z</time>
      </trkpt>
      <trkpt lat="45.31267" lon="4.59694">
        <ele>657.59997558594</ele>
        <time>2026-05-11T07:44:56.000Z</time>
      </trkpt>
      <trkpt lat="45.31265" lon="4.59698">
        <ele>657.79998779297</ele>
        <time>2026-05-11T07:44:57.000Z</time>
      </trkpt>
      <trkpt lat="45.31264" lon="4.59702">
        <ele>657.79998779297</ele>
        <time>2026-05-11T07:44:58.000Z</time>
      </trkpt>
      <trkpt lat="45.31263" lon="4.59705">
        <ele>657.79998779297</ele>
        <time>2026-05-11T07:44:59.000Z</time>
      </trkpt>
      <trkpt lat="45.31262" lon="4.59709">
        <ele>658</ele>
        <time>2026-05-11T07:45:00.000Z</time>
      </trkpt>
      <trkpt lat="45.3126" lon="4.59712">
        <ele>658</ele>
        <time>2026-05-11T07:45:01.000Z</time>
      </trkpt>
      <trkpt lat="45.31259" lon="4.59716">
        <ele>658.20001220703</ele>
        <time>2026-05-11T07:45:02.000Z</time>
      </trkpt>
      <trkpt lat="45.31258" lon="4.59719">
        <ele>658.20001220703</ele>
        <time>2026-05-11T07:45:03.000Z</time>
      </trkpt>
      <trkpt lat="45.31256" lon="4.59722">
        <ele>658.40002441406</ele>
        <time>2026-05-11T07:45:04.000Z</time>
      </trkpt>
      <trkpt lat="45.31255" lon="4.59725">
        <ele>658.59997558594</ele>
        <time>2026-05-11T07:45:05.000Z</time>
      </trkpt>
      <trkpt lat="45.31253" lon="4.59728">
        <ele>658.59997558594</ele>
        <time>2026-05-11T07:45:06.000Z</time>
      </trkpt>
      <trkpt lat="45.31252" lon="4.59732">
        <ele>658.79998779297</ele>
        <time>2026-05-11T07:45:07.000Z</time>
      </trkpt>
      <trkpt lat="45.31251" lon="4.59735">
        <ele>659</ele>
        <time>2026-05-11T07:45:08.000Z</time>
      </trkpt>
      <trkpt lat="45.3125" lon="4.59738">
        <ele>659</ele>
        <time>2026-05-11T07:45:09.000Z</time>
      </trkpt>
      <trkpt lat="45.31249" lon="4.59742">
        <ele>659.20001220703</ele>
        <time>2026-05-11T07:45:10.000Z</time>
      </trkpt>
      <trkpt lat="45.31248" lon="4.59745">
        <ele>659.40002441406</ele>
        <time>2026-05-11T07:45:11.000Z</time>
      </trkpt>
      <trkpt lat="45.31246" lon="4.59748">
        <ele>659.59997558594</ele>
        <time>2026-05-11T07:45:12.000Z</time>
      </trkpt>
      <trkpt lat="45.31245" lon="4.59751">
        <ele>659.79998779297</ele>
        <time>2026-05-11T07:45:13.000Z</time>
      </trkpt>
      <trkpt lat="45.31243" lon="4.59754">
        <ele>660</ele>
        <time>2026-05-11T07:45:14.000Z</time>
      </trkpt>
      <trkpt lat="45.31242" lon="4.59757">
        <ele>660</ele>
        <time>2026-05-11T07:45:15.000Z</time>
      </trkpt>
      <trkpt lat="45.3124" lon="4.59761">
        <ele>660.20001220703</ele>
        <time>2026-05-11T07:45:16.000Z</time>
      </trkpt>
      <trkpt lat="45.31239" lon="4.59764">
        <ele>660.40002441406</ele>
        <time>2026-05-11T07:45:17.000Z</time>
      </trkpt>
      <trkpt lat="45.31238" lon="4.59768">
        <ele>660.59997558594</ele>
        <time>2026-05-11T07:45:18.000Z</time>
      </trkpt>
      <trkpt lat="45.31237" lon="4.59771">
        <ele>660.59997558594</ele>
        <time>2026-05-11T07:45:19.000Z</time>
      </trkpt>
      <trkpt lat="45.31235" lon="4.59774">
        <ele>660.79998779297</ele>
        <time>2026-05-11T07:45:20.000Z</time>
      </trkpt>
      <trkpt lat="45.31234" lon="4.59777">
        <ele>661</ele>
        <time>2026-05-11T07:45:21.000Z</time>
      </trkpt>
      <trkpt lat="45.31232" lon="4.5978">
        <ele>661.40002441406</ele>
        <time>2026-05-11T07:45:22.000Z</time>
      </trkpt>
      <trkpt lat="45.31231" lon="4.59784">
        <ele>661.40002441406</ele>
        <time>2026-05-11T07:45:23.000Z</time>
      </trkpt>
      <trkpt lat="45.3123" lon="4.59787">
        <ele>661.59997558594</ele>
        <time>2026-05-11T07:45:24.000Z</time>
      </trkpt>
      <trkpt lat="45.31228" lon="4.5979">
        <ele>661.79998779297</ele>
        <time>2026-05-11T07:45:25.000Z</time>
      </trkpt>
      <trkpt lat="45.31227" lon="4.59793">
        <ele>661.79998779297</ele>
        <time>2026-05-11T07:45:26.000Z</time>
      </trkpt>
      <trkpt lat="45.31226" lon="4.59796">
        <ele>662</ele>
        <time>2026-05-11T07:45:27.000Z</time>
      </trkpt>
      <trkpt lat="45.31224" lon="4.59799">
        <ele>662.20001220703</ele>
        <time>2026-05-11T07:45:28.000Z</time>
      </trkpt>
      <trkpt lat="45.31223" lon="4.59802">
        <ele>662.20001220703</ele>
        <time>2026-05-11T07:45:29.000Z</time>
      </trkpt>
      <trkpt lat="45.31221" lon="4.59804">
        <ele>662.40002441406</ele>
        <time>2026-05-11T07:45:30.000Z</time>
      </trkpt>
      <trkpt lat="45.3122" lon="4.59807">
        <ele>662.59997558594</ele>
        <time>2026-05-11T07:45:31.000Z</time>
      </trkpt>
      <trkpt lat="45.31218" lon="4.59809">
        <ele>662.59997558594</ele>
        <time>2026-05-11T07:45:32.000Z</time>
      </trkpt>
      <trkpt lat="45.31217" lon="4.59812">
        <ele>662.79998779297</ele>
        <time>2026-05-11T07:45:33.000Z</time>
      </trkpt>
      <trkpt lat="45.31216" lon="4.59815">
        <ele>663</ele>
        <time>2026-05-11T07:45:34.000Z</time>
      </trkpt>
      <trkpt lat="45.31214" lon="4.59817">
        <ele>663.20001220703</ele>
        <time>2026-05-11T07:45:35.000Z</time>
      </trkpt>
      <trkpt lat="45.31213" lon="4.5982">
        <ele>663.20001220703</ele>
        <time>2026-05-11T07:45:36.000Z</time>
      </trkpt>
      <trkpt lat="45.31211" lon="4.59822">
        <ele>663.40002441406</ele>
        <time>2026-05-11T07:45:37.000Z</time>
      </trkpt>
      <trkpt lat="45.31209" lon="4.59824">
        <ele>663.59997558594</ele>
        <time>2026-05-11T07:45:38.000Z</time>
      </trkpt>
      <trkpt lat="45.31207" lon="4.59826">
        <ele>663.59997558594</ele>
        <time>2026-05-11T07:45:39.000Z</time>
      </trkpt>
      <trkpt lat="45.31205" lon="4.59828">
        <ele>663.79998779297</ele>
        <time>2026-05-11T07:45:40.000Z</time>
      </trkpt>
      <trkpt lat="45.31203" lon="4.5983">
        <ele>663.79998779297</ele>
        <time>2026-05-11T07:45:41.000Z</time>
      </trkpt>
      <trkpt lat="45.31201" lon="4.59832">
        <ele>664</ele>
        <time>2026-05-11T07:45:42.000Z</time>
      </trkpt>
      <trkpt lat="45.31199" lon="4.59834">
        <ele>664</ele>
        <time>2026-05-11T07:45:43.000Z</time>
      </trkpt>
      <trkpt lat="45.31197" lon="4.59835">
        <ele>664.20001220703</ele>
        <time>2026-05-11T07:45:44.000Z</time>
      </trkpt>
      <trkpt lat="45.31194" lon="4.59837">
        <ele>664.40002441406</ele>
        <time>2026-05-11T07:45:45.000Z</time>
      </trkpt>
      <trkpt lat="45.31192" lon="4.59838">
        <ele>664.40002441406</ele>
        <time>2026-05-11T07:45:46.000Z</time>
      </trkpt>
      <trkpt lat="45.31189" lon="4.59839">
        <ele>664.59997558594</ele>
        <time>2026-05-11T07:45:47.000Z</time>
      </trkpt>
      <trkpt lat="45.31187" lon="4.5984">
        <ele>664.59997558594</ele>
        <time>2026-05-11T07:45:48.000Z</time>
      </trkpt>
      <trkpt lat="45.31184" lon="4.59841">
        <ele>664.79998779297</ele>
        <time>2026-05-11T07:45:49.000Z</time>
      </trkpt>
      <trkpt lat="45.31182" lon="4.59842">
        <ele>665</ele>
        <time>2026-05-11T07:45:50.000Z</time>
      </trkpt>
      <trkpt lat="45.3118" lon="4.59843">
        <ele>665</ele>
        <time>2026-05-11T07:45:51.000Z</time>
      </trkpt>
      <trkpt lat="45.31177" lon="4.59844">
        <ele>665.20001220703</ele>
        <time>2026-05-11T07:45:52.000Z</time>
      </trkpt>
      <trkpt lat="45.31175" lon="4.59845">
        <ele>665.40002441406</ele>
        <time>2026-05-11T07:45:53.000Z</time>
      </trkpt>
      <trkpt lat="45.31173" lon="4.59845">
        <ele>665.59997558594</ele>
        <time>2026-05-11T07:45:54.000Z</time>
      </trkpt>
      <trkpt lat="45.3117" lon="4.59846">
        <ele>665.59997558594</ele>
        <time>2026-05-11T07:45:55.000Z</time>
      </trkpt>
      <trkpt lat="45.31168" lon="4.59846">
        <ele>665.79998779297</ele>
        <time>2026-05-11T07:45:56.000Z</time>
      </trkpt>
      <trkpt lat="45.31165" lon="4.59847">
        <ele>666</ele>
        <time>2026-05-11T07:45:57.000Z</time>
      </trkpt>
      <trkpt lat="45.31163" lon="4.59848">
        <ele>666</ele>
        <time>2026-05-11T07:45:58.000Z</time>
      </trkpt>
      <trkpt lat="45.31161" lon="4.59848">
        <ele>666.20001220703</ele>
        <time>2026-05-11T07:45:59.000Z</time>
      </trkpt>
      <trkpt lat="45.31158" lon="4.59849">
        <ele>666.20001220703</ele>
        <time>2026-05-11T07:46:00.000Z</time>
      </trkpt>
      <trkpt lat="45.31156" lon="4.59849">
        <ele>666.40002441406</ele>
        <time>2026-05-11T07:46:01.000Z</time>
      </trkpt>
      <trkpt lat="45.31154" lon="4.5985">
        <ele>666.40002441406</ele>
        <time>2026-05-11T07:46:02.000Z</time>
      </trkpt>
      <trkpt lat="45.31151" lon="4.5985">
        <ele>666.59997558594</ele>
        <time>2026-05-11T07:46:03.000Z</time>
      </trkpt>
      <trkpt lat="45.31149" lon="4.59851">
        <ele>666.79998779297</ele>
        <time>2026-05-11T07:46:04.000Z</time>
      </trkpt>
      <trkpt lat="45.31146" lon="4.59851">
        <ele>667</ele>
        <time>2026-05-11T07:46:05.000Z</time>
      </trkpt>
      <trkpt lat="45.31144" lon="4.59852">
        <ele>667.20001220703</ele>
        <time>2026-05-11T07:46:06.000Z</time>
      </trkpt>
      <trkpt lat="45.31142" lon="4.59852">
        <ele>667.20001220703</ele>
        <time>2026-05-11T07:46:07.000Z</time>
      </trkpt>
      <trkpt lat="45.3114" lon="4.59853">
        <ele>667.40002441406</ele>
        <time>2026-05-11T07:46:08.000Z</time>
      </trkpt>
      <trkpt lat="45.31137" lon="4.59854">
        <ele>667.59997558594</ele>
        <time>2026-05-11T07:46:09.000Z</time>
      </trkpt>
      <trkpt lat="45.31135" lon="4.59855">
        <ele>667.79998779297</ele>
        <time>2026-05-11T07:46:10.000Z</time>
      </trkpt>
      <trkpt lat="45.31132" lon="4.59855">
        <ele>668</ele>
        <time>2026-05-11T07:46:11.000Z</time>
      </trkpt>
      <trkpt lat="45.3113" lon="4.59856">
        <ele>668</ele>
        <time>2026-05-11T07:46:12.000Z</time>
      </trkpt>
      <trkpt lat="45.31128" lon="4.59856">
        <ele>668.20001220703</ele>
        <time>2026-05-11T07:46:13.000Z</time>
      </trkpt>
      <trkpt lat="45.31125" lon="4.59857">
        <ele>668.40002441406</ele>
        <time>2026-05-11T07:46:14.000Z</time>
      </trkpt>
      <trkpt lat="45.31123" lon="4.59858">
        <ele>668.59997558594</ele>
        <time>2026-05-11T07:46:15.000Z</time>
      </trkpt>
      <trkpt lat="45.3112" lon="4.59858">
        <ele>668.59997558594</ele>
        <time>2026-05-11T07:46:16.000Z</time>
      </trkpt>
      <trkpt lat="45.31117" lon="4.59859">
        <ele>668.79998779297</ele>
        <time>2026-05-11T07:46:17.000Z</time>
      </trkpt>
      <trkpt lat="45.31115" lon="4.5986">
        <ele>669</ele>
        <time>2026-05-11T07:46:18.000Z</time>
      </trkpt>
      <trkpt lat="45.31112" lon="4.5986">
        <ele>669</ele>
        <time>2026-05-11T07:46:19.000Z</time>
      </trkpt>
      <trkpt lat="45.3111" lon="4.5986">
        <ele>669.20001220703</ele>
        <time>2026-05-11T07:46:20.000Z</time>
      </trkpt>
      <trkpt lat="45.31107" lon="4.59861">
        <ele>669.40002441406</ele>
        <time>2026-05-11T07:46:21.000Z</time>
      </trkpt>
      <trkpt lat="45.31105" lon="4.59861">
        <ele>669.40002441406</ele>
        <time>2026-05-11T07:46:22.000Z</time>
      </trkpt>
      <trkpt lat="45.31103" lon="4.59861">
        <ele>669.59997558594</ele>
        <time>2026-05-11T07:46:23.000Z</time>
      </trkpt>
      <trkpt lat="45.311" lon="4.59862">
        <ele>669.79998779297</ele>
        <time>2026-05-11T07:46:24.000Z</time>
      </trkpt>
      <trkpt lat="45.31098" lon="4.59863">
        <ele>669.79998779297</ele>
        <time>2026-05-11T07:46:25.000Z</time>
      </trkpt>
      <trkpt lat="45.31096" lon="4.59863">
        <ele>670</ele>
        <time>2026-05-11T07:46:26.000Z</time>
      </trkpt>
      <trkpt lat="45.31094" lon="4.59864">
        <ele>670.20001220703</ele>
        <time>2026-05-11T07:46:27.000Z</time>
      </trkpt>
      <trkpt lat="45.31091" lon="4.59864">
        <ele>670.20001220703</ele>
        <time>2026-05-11T07:46:28.000Z</time>
      </trkpt>
      <trkpt lat="45.31089" lon="4.59865">
        <ele>670.40002441406</ele>
        <time>2026-05-11T07:46:29.000Z</time>
      </trkpt>
      <trkpt lat="45.31086" lon="4.59865">
        <ele>670.59997558594</ele>
        <time>2026-05-11T07:46:30.000Z</time>
      </trkpt>
      <trkpt lat="45.31084" lon="4.59865">
        <ele>670.59997558594</ele>
        <time>2026-05-11T07:46:31.000Z</time>
      </trkpt>
      <trkpt lat="45.31081" lon="4.59866">
        <ele>670.79998779297</ele>
        <time>2026-05-11T07:46:32.000Z</time>
      </trkpt>
      <trkpt lat="45.31079" lon="4.59866">
        <ele>670.79998779297</ele>
        <time>2026-05-11T07:46:33.000Z</time>
      </trkpt>
      <trkpt lat="45.31077" lon="4.59867">
        <ele>671</ele>
        <time>2026-05-11T07:46:34.000Z</time>
      </trkpt>
      <trkpt lat="45.31074" lon="4.59867">
        <ele>671</ele>
        <time>2026-05-11T07:46:35.000Z</time>
      </trkpt>
      <trkpt lat="45.31072" lon="4.59868">
        <ele>671.20001220703</ele>
        <time>2026-05-11T07:46:36.000Z</time>
      </trkpt>
      <trkpt lat="45.31069" lon="4.59869">
        <ele>671.40002441406</ele>
        <time>2026-05-11T07:46:37.000Z</time>
      </trkpt>
      <trkpt lat="45.31067" lon="4.59869">
        <ele>671.40002441406</ele>
        <time>2026-05-11T07:46:38.000Z</time>
      </trkpt>
      <trkpt lat="45.31065" lon="4.5987">
        <ele>671.59997558594</ele>
        <time>2026-05-11T07:46:39.000Z</time>
      </trkpt>
      <trkpt lat="45.31063" lon="4.5987">
        <ele>671.79998779297</ele>
        <time>2026-05-11T07:46:40.000Z</time>
      </trkpt>
      <trkpt lat="45.31061" lon="4.59869">
        <ele>671.79998779297</ele>
        <time>2026-05-11T07:46:41.000Z</time>
      </trkpt>
      <trkpt lat="45.31058" lon="4.59869">
        <ele>672</ele>
        <time>2026-05-11T07:46:42.000Z</time>
      </trkpt>
      <trkpt lat="45.31056" lon="4.59869">
        <ele>672</ele>
        <time>2026-05-11T07:46:43.000Z</time>
      </trkpt>
      <trkpt lat="45.31054" lon="4.59868">
        <ele>672.20001220703</ele>
        <time>2026-05-11T07:46:44.000Z</time>
      </trkpt>
      <trkpt lat="45.31051" lon="4.59867">
        <ele>672.40002441406</ele>
        <time>2026-05-11T07:46:45.000Z</time>
      </trkpt>
      <trkpt lat="45.31049" lon="4.59866">
        <ele>672.40002441406</ele>
        <time>2026-05-11T07:46:46.000Z</time>
      </trkpt>
      <trkpt lat="45.31046" lon="4.59864">
        <ele>672.40002441406</ele>
        <time>2026-05-11T07:46:47.000Z</time>
      </trkpt>
      <trkpt lat="45.31044" lon="4.59863">
        <ele>672.59997558594</ele>
        <time>2026-05-11T07:46:48.000Z</time>
      </trkpt>
      <trkpt lat="45.31042" lon="4.59862">
        <ele>672.59997558594</ele>
        <time>2026-05-11T07:46:49.000Z</time>
      </trkpt>
      <trkpt lat="45.3104" lon="4.5986">
        <ele>672.59997558594</ele>
        <time>2026-05-11T07:46:50.000Z</time>
      </trkpt>
      <trkpt lat="45.31037" lon="4.59858">
        <ele>672.79998779297</ele>
        <time>2026-05-11T07:46:51.000Z</time>
      </trkpt>
      <trkpt lat="45.31036" lon="4.59856">
        <ele>672.79998779297</ele>
        <time>2026-05-11T07:46:52.000Z</time>
      </trkpt>
      <trkpt lat="45.31034" lon="4.59854">
        <ele>672.79998779297</ele>
        <time>2026-05-11T07:46:53.000Z</time>
      </trkpt>
      <trkpt lat="45.31032" lon="4.59852">
        <ele>673</ele>
        <time>2026-05-11T07:46:54.000Z</time>
      </trkpt>
      <trkpt lat="45.31031" lon="4.5985">
        <ele>673</ele>
        <time>2026-05-11T07:46:55.000Z</time>
      </trkpt>
      <trkpt lat="45.31029" lon="4.59848">
        <ele>673</ele>
        <time>2026-05-11T07:46:56.000Z</time>
      </trkpt>
      <trkpt lat="45.31028" lon="4.59846">
        <ele>673</ele>
        <time>2026-05-11T07:46:57.000Z</time>
      </trkpt>
      <trkpt lat="45.31027" lon="4.59844">
        <ele>673</ele>
        <time>2026-05-11T07:46:58.000Z</time>
      </trkpt>
      <trkpt lat="45.31025" lon="4.59843">
        <ele>673</ele>
        <time>2026-05-11T07:46:59.000Z</time>
      </trkpt>
      <trkpt lat="45.31023" lon="4.59842">
        <ele>672.79998779297</ele>
        <time>2026-05-11T07:47:00.000Z</time>
      </trkpt>
      <trkpt lat="45.3102" lon="4.59841">
        <ele>672.79998779297</ele>
        <time>2026-05-11T07:47:01.000Z</time>
      </trkpt>
      <trkpt lat="45.31018" lon="4.5984">
        <ele>672.59997558594</ele>
        <time>2026-05-11T07:47:02.000Z</time>
      </trkpt>
      <trkpt lat="45.31016" lon="4.5984">
        <ele>672.59997558594</ele>
        <time>2026-05-11T07:47:03.000Z</time>
      </trkpt>
      <trkpt lat="45.31013" lon="4.59838">
        <ele>672.59997558594</ele>
        <time>2026-05-11T07:47:04.000Z</time>
      </trkpt>
      <trkpt lat="45.31012" lon="4.59836">
        <ele>672.79998779297</ele>
        <time>2026-05-11T07:47:05.000Z</time>
      </trkpt>
      <trkpt lat="45.3101" lon="4.59833">
        <ele>672.79998779297</ele>
        <time>2026-05-11T07:47:06.000Z</time>
      </trkpt>
      <trkpt lat="45.31009" lon="4.59831">
        <ele>672.79998779297</ele>
        <time>2026-05-11T07:47:07.000Z</time>
      </trkpt>
      <trkpt lat="45.31009" lon="4.59827">
        <ele>672.79998779297</ele>
        <time>2026-05-11T07:47:08.000Z</time>
      </trkpt>
      <trkpt lat="45.31008" lon="4.59824">
        <ele>672.79998779297</ele>
        <time>2026-05-11T07:47:09.000Z</time>
      </trkpt>
      <trkpt lat="45.31008" lon="4.59821">
        <ele>672.59997558594</ele>
        <time>2026-05-11T07:47:10.000Z</time>
      </trkpt>
      <trkpt lat="45.31007" lon="4.59818">
        <ele>672.59997558594</ele>
        <time>2026-05-11T07:47:11.000Z</time>
      </trkpt>
      <trkpt lat="45.31006" lon="4.59814">
        <ele>672.40002441406</ele>
        <time>2026-05-11T07:47:12.000Z</time>
      </trkpt>
      <trkpt lat="45.31005" lon="4.5981">
        <ele>672.20001220703</ele>
        <time>2026-05-11T07:47:13.000Z</time>
      </trkpt>
      <trkpt lat="45.31005" lon="4.59806">
        <ele>671.79998779297</ele>
        <time>2026-05-11T07:47:14.000Z</time>
      </trkpt>
      <trkpt lat="45.31004" lon="4.59801">
        <ele>671.59997558594</ele>
        <time>2026-05-11T07:47:15.000Z</time>
      </trkpt>
      <trkpt lat="45.31003" lon="4.59798">
        <ele>671.40002441406</ele>
        <time>2026-05-11T07:47:16.000Z</time>
      </trkpt>
      <trkpt lat="45.31003" lon="4.59794">
        <ele>671</ele>
        <time>2026-05-11T07:47:17.000Z</time>
      </trkpt>
      <trkpt lat="45.31001" lon="4.5979">
        <ele>670.79998779297</ele>
        <time>2026-05-11T07:47:18.000Z</time>
      </trkpt>
      <trkpt lat="45.31" lon="4.59785">
        <ele>670.40002441406</ele>
        <time>2026-05-11T07:47:19.000Z</time>
      </trkpt>
      <trkpt lat="45.30999" lon="4.5978">
        <ele>670</ele>
        <time>2026-05-11T07:47:20.000Z</time>
      </trkpt>
      <trkpt lat="45.30998" lon="4.59774">
        <ele>669.59997558594</ele>
        <time>2026-05-11T07:47:21.000Z</time>
      </trkpt>
      <trkpt lat="45.30997" lon="4.59769">
        <ele>669.20001220703</ele>
        <time>2026-05-11T07:47:22.000Z</time>
      </trkpt>
      <trkpt lat="45.30997" lon="4.59763">
        <ele>668.79998779297</ele>
        <time>2026-05-11T07:47:23.000Z</time>
      </trkpt>
      <trkpt lat="45.30997" lon="4.59758">
        <ele>668.40002441406</ele>
        <time>2026-05-11T07:47:24.000Z</time>
      </trkpt>
      <trkpt lat="45.30996" lon="4.59753">
        <ele>667.79998779297</ele>
        <time>2026-05-11T07:47:25.000Z</time>
      </trkpt>
      <trkpt lat="45.30995" lon="4.59747">
        <ele>667.20001220703</ele>
        <time>2026-05-11T07:47:26.000Z</time>
      </trkpt>
      <trkpt lat="45.30995" lon="4.59742">
        <ele>666.79998779297</ele>
        <time>2026-05-11T07:47:27.000Z</time>
      </trkpt>
      <trkpt lat="45.30994" lon="4.59737">
        <ele>666.20001220703</ele>
        <time>2026-05-11T07:47:28.000Z</time>
      </trkpt>
      <trkpt lat="45.30993" lon="4.59732">
        <ele>665.79998779297</ele>
        <time>2026-05-11T07:47:29.000Z</time>
      </trkpt>
      <trkpt lat="45.30991" lon="4.59726">
        <ele>665.20001220703</ele>
        <time>2026-05-11T07:47:30.000Z</time>
      </trkpt>
      <trkpt lat="45.3099" lon="4.59719">
        <ele>664.79998779297</ele>
        <time>2026-05-11T07:47:31.000Z</time>
      </trkpt>
      <trkpt lat="45.30989" lon="4.59713">
        <ele>664.20001220703</ele>
        <time>2026-05-11T07:47:32.000Z</time>
      </trkpt>
      <trkpt lat="45.30987" lon="4.59706">
        <ele>663.79998779297</ele>
        <time>2026-05-11T07:47:33.000Z</time>
      </trkpt>
      <trkpt lat="45.30985" lon="4.59699">
        <ele>663.20001220703</ele>
        <time>2026-05-11T07:47:34.000Z</time>
      </trkpt>
      <trkpt lat="45.30984" lon="4.59693">
        <ele>662.79998779297</ele>
        <time>2026-05-11T07:47:35.000Z</time>
      </trkpt>
      <trkpt lat="45.30982" lon="4.59686">
        <ele>662.20001220703</ele>
        <time>2026-05-11T07:47:36.000Z</time>
      </trkpt>
      <trkpt lat="45.3098" lon="4.59681">
        <ele>661.59997558594</ele>
        <time>2026-05-11T07:47:37.000Z</time>
      </trkpt>
      <trkpt lat="45.30978" lon="4.59675">
        <ele>661</ele>
        <time>2026-05-11T07:47:38.000Z</time>
      </trkpt>
      <trkpt lat="45.30976" lon="4.59668">
        <ele>660.20001220703</ele>
        <time>2026-05-11T07:47:39.000Z</time>
      </trkpt>
      <trkpt lat="45.30973" lon="4.59662">
        <ele>659.59997558594</ele>
        <time>2026-05-11T07:47:40.000Z</time>
      </trkpt>
      <trkpt lat="45.30971" lon="4.59655">
        <ele>659</ele>
        <time>2026-05-11T07:47:41.000Z</time>
      </trkpt>
      <trkpt lat="45.30968" lon="4.59648">
        <ele>658.40002441406</ele>
        <time>2026-05-11T07:47:42.000Z</time>
      </trkpt>
      <trkpt lat="45.30965" lon="4.59643">
        <ele>657.79998779297</ele>
        <time>2026-05-11T07:47:43.000Z</time>
      </trkpt>
      <trkpt lat="45.30963" lon="4.59638">
        <ele>657</ele>
        <time>2026-05-11T07:47:44.000Z</time>
      </trkpt>
      <trkpt lat="45.30962" lon="4.59631">
        <ele>656.40002441406</ele>
        <time>2026-05-11T07:47:45.000Z</time>
      </trkpt>
      <trkpt lat="45.3096" lon="4.59626">
        <ele>655.79998779297</ele>
        <time>2026-05-11T07:47:46.000Z</time>
      </trkpt>
      <trkpt lat="45.30959" lon="4.5962">
        <ele>655.20001220703</ele>
        <time>2026-05-11T07:47:47.000Z</time>
      </trkpt>
      <trkpt lat="45.30957" lon="4.59614">
        <ele>654.40002441406</ele>
        <time>2026-05-11T07:47:48.000Z</time>
      </trkpt>
      <trkpt lat="45.30956" lon="4.59609">
        <ele>653.79998779297</ele>
        <time>2026-05-11T07:47:49.000Z</time>
      </trkpt>
      <trkpt lat="45.30954" lon="4.59603">
        <ele>653.20001220703</ele>
        <time>2026-05-11T07:47:50.000Z</time>
      </trkpt>
      <trkpt lat="45.30952" lon="4.59597">
        <ele>652.59997558594</ele>
        <time>2026-05-11T07:47:51.000Z</time>
      </trkpt>
      <trkpt lat="45.3095" lon="4.5959">
        <ele>652.20001220703</ele>
        <time>2026-05-11T07:47:52.000Z</time>
      </trkpt>
      <trkpt lat="45.30948" lon="4.59584">
        <ele>651.59997558594</ele>
        <time>2026-05-11T07:47:53.000Z</time>
      </trkpt>
      <trkpt lat="45.30945" lon="4.59578">
        <ele>651.20001220703</ele>
        <time>2026-05-11T07:47:54.000Z</time>
      </trkpt>
      <trkpt lat="45.30943" lon="4.59572">
        <ele>650.59997558594</ele>
        <time>2026-05-11T07:47:55.000Z</time>
      </trkpt>
      <trkpt lat="45.30941" lon="4.59566">
        <ele>650</ele>
        <time>2026-05-11T07:47:56.000Z</time>
      </trkpt>
      <trkpt lat="45.30939" lon="4.59561">
        <ele>649.59997558594</ele>
        <time>2026-05-11T07:47:57.000Z</time>
      </trkpt>
      <trkpt lat="45.30938" lon="4.59556">
        <ele>649.20001220703</ele>
        <time>2026-05-11T07:47:58.000Z</time>
      </trkpt>
      <trkpt lat="45.30936" lon="4.59551">
        <ele>648.59997558594</ele>
        <time>2026-05-11T07:47:59.000Z</time>
      </trkpt>
      <trkpt lat="45.30934" lon="4.59546">
        <ele>648.20001220703</ele>
        <time>2026-05-11T07:48:00.000Z</time>
      </trkpt>
      <trkpt lat="45.30931" lon="4.5954">
        <ele>647.59997558594</ele>
        <time>2026-05-11T07:48:01.000Z</time>
      </trkpt>
      <trkpt lat="45.30929" lon="4.59536">
        <ele>647.20001220703</ele>
        <time>2026-05-11T07:48:02.000Z</time>
      </trkpt>
      <trkpt lat="45.30926" lon="4.59531">
        <ele>646.79998779297</ele>
        <time>2026-05-11T07:48:03.000Z</time>
      </trkpt>
      <trkpt lat="45.30923" lon="4.59527">
        <ele>646.20001220703</ele>
        <time>2026-05-11T07:48:04.000Z</time>
      </trkpt>
      <trkpt lat="45.30919" lon="4.59523">
        <ele>645.79998779297</ele>
        <time>2026-05-11T07:48:05.000Z</time>
      </trkpt>
      <trkpt lat="45.30916" lon="4.59518">
        <ele>645.40002441406</ele>
        <time>2026-05-11T07:48:06.000Z</time>
      </trkpt>
      <trkpt lat="45.30912" lon="4.59514">
        <ele>644.79998779297</ele>
        <time>2026-05-11T07:48:07.000Z</time>
      </trkpt>
      <trkpt lat="45.30909" lon="4.59509">
        <ele>644.20001220703</ele>
        <time>2026-05-11T07:48:08.000Z</time>
      </trkpt>
      <trkpt lat="45.30906" lon="4.59504">
        <ele>643.79998779297</ele>
        <time>2026-05-11T07:48:09.000Z</time>
      </trkpt>
      <trkpt lat="45.30902" lon="4.59499">
        <ele>643.20001220703</ele>
        <time>2026-05-11T07:48:10.000Z</time>
      </trkpt>
      <trkpt lat="45.30899" lon="4.59494">
        <ele>642.59997558594</ele>
        <time>2026-05-11T07:48:11.000Z</time>
      </trkpt>
      <trkpt lat="45.30896" lon="4.59489">
        <ele>642</ele>
        <time>2026-05-11T07:48:12.000Z</time>
      </trkpt>
      <trkpt lat="45.30893" lon="4.59485">
        <ele>641.40002441406</ele>
        <time>2026-05-11T07:48:13.000Z</time>
      </trkpt>
      <trkpt lat="45.3089" lon="4.5948">
        <ele>640.79998779297</ele>
        <time>2026-05-11T07:48:14.000Z</time>
      </trkpt>
      <trkpt lat="45.30887" lon="4.59475">
        <ele>640.20001220703</ele>
        <time>2026-05-11T07:48:15.000Z</time>
      </trkpt>
      <trkpt lat="45.30884" lon="4.5947">
        <ele>639.59997558594</ele>
        <time>2026-05-11T07:48:16.000Z</time>
      </trkpt>
      <trkpt lat="45.3088" lon="4.59466">
        <ele>639</ele>
        <time>2026-05-11T07:48:17.000Z</time>
      </trkpt>
      <trkpt lat="45.30877" lon="4.59461">
        <ele>638.40002441406</ele>
        <time>2026-05-11T07:48:18.000Z</time>
      </trkpt>
      <trkpt lat="45.30873" lon="4.59456">
        <ele>637.59997558594</ele>
        <time>2026-05-11T07:48:19.000Z</time>
      </trkpt>
      <trkpt lat="45.30869" lon="4.59451">
        <ele>637</ele>
        <time>2026-05-11T07:48:20.000Z</time>
      </trkpt>
      <trkpt lat="45.30866" lon="4.59444">
        <ele>636.40002441406</ele>
        <time>2026-05-11T07:48:21.000Z</time>
      </trkpt>
      <trkpt lat="45.30863" lon="4.59438">
        <ele>635.79998779297</ele>
        <time>2026-05-11T07:48:22.000Z</time>
      </trkpt>
      <trkpt lat="45.30859" lon="4.59433">
        <ele>635.20001220703</ele>
        <time>2026-05-11T07:48:23.000Z</time>
      </trkpt>
      <trkpt lat="45.30856" lon="4.59426">
        <ele>634.40002441406</ele>
        <time>2026-05-11T07:48:24.000Z</time>
      </trkpt>
      <trkpt lat="45.30854" lon="4.5942">
        <ele>633.59997558594</ele>
        <time>2026-05-11T07:48:25.000Z</time>
      </trkpt>
      <trkpt lat="45.3085" lon="4.59414">
        <ele>633</ele>
        <time>2026-05-11T07:48:26.000Z</time>
      </trkpt>
      <trkpt lat="45.30847" lon="4.59408">
        <ele>632.40002441406</ele>
        <time>2026-05-11T07:48:27.000Z</time>
      </trkpt>
      <trkpt lat="45.30845" lon="4.59402">
        <ele>631.79998779297</ele>
        <time>2026-05-11T07:48:28.000Z</time>
      </trkpt>
      <trkpt lat="45.30842" lon="4.59396">
        <ele>631.20001220703</ele>
        <time>2026-05-11T07:48:29.000Z</time>
      </trkpt>
      <trkpt lat="45.30839" lon="4.5939">
        <ele>630.40002441406</ele>
        <time>2026-05-11T07:48:30.000Z</time>
      </trkpt>
      <trkpt lat="45.30837" lon="4.59383">
        <ele>629.59997558594</ele>
        <time>2026-05-11T07:48:31.000Z</time>
      </trkpt>
      <trkpt lat="45.30835" lon="4.59377">
        <ele>629</ele>
        <time>2026-05-11T07:48:32.000Z</time>
      </trkpt>
      <trkpt lat="45.30832" lon="4.59372">
        <ele>628.40002441406</ele>
        <time>2026-05-11T07:48:33.000Z</time>
      </trkpt>
      <trkpt lat="45.30829" lon="4.59366">
        <ele>627.79998779297</ele>
        <time>2026-05-11T07:48:34.000Z</time>
      </trkpt>
      <trkpt lat="45.30827" lon="4.59361">
        <ele>627.20001220703</ele>
        <time>2026-05-11T07:48:35.000Z</time>
      </trkpt>
      <trkpt lat="45.30824" lon="4.59355">
        <ele>626.40002441406</ele>
        <time>2026-05-11T07:48:36.000Z</time>
      </trkpt>
      <trkpt lat="45.30821" lon="4.59351">
        <ele>625.59997558594</ele>
        <time>2026-05-11T07:48:37.000Z</time>
      </trkpt>
      <trkpt lat="45.30818" lon="4.59346">
        <ele>625</ele>
        <time>2026-05-11T07:48:38.000Z</time>
      </trkpt>
      <trkpt lat="45.30815" lon="4.59341">
        <ele>624.20001220703</ele>
        <time>2026-05-11T07:48:39.000Z</time>
      </trkpt>
      <trkpt lat="45.30812" lon="4.59336">
        <ele>623.59997558594</ele>
        <time>2026-05-11T07:48:40.000Z</time>
      </trkpt>
      <trkpt lat="45.30809" lon="4.59331">
        <ele>622.79998779297</ele>
        <time>2026-05-11T07:48:41.000Z</time>
      </trkpt>
      <trkpt lat="45.30806" lon="4.59326">
        <ele>622</ele>
        <time>2026-05-11T07:48:42.000Z</time>
      </trkpt>
      <trkpt lat="45.30803" lon="4.59321">
        <ele>621.40002441406</ele>
        <time>2026-05-11T07:48:43.000Z</time>
      </trkpt>
      <trkpt lat="45.308" lon="4.59315">
        <ele>620.79998779297</ele>
        <time>2026-05-11T07:48:44.000Z</time>
      </trkpt>
      <trkpt lat="45.30797" lon="4.5931">
        <ele>620</ele>
        <time>2026-05-11T07:48:45.000Z</time>
      </trkpt>
      <trkpt lat="45.30794" lon="4.59304">
        <ele>619.40002441406</ele>
        <time>2026-05-11T07:48:46.000Z</time>
      </trkpt>
      <trkpt lat="45.30791" lon="4.59299">
        <ele>618.79998779297</ele>
        <time>2026-05-11T07:48:47.000Z</time>
      </trkpt>
      <trkpt lat="45.30789" lon="4.59293">
        <ele>618</ele>
        <time>2026-05-11T07:48:48.000Z</time>
      </trkpt>
      <trkpt lat="45.30787" lon="4.59288">
        <ele>617.40002441406</ele>
        <time>2026-05-11T07:48:49.000Z</time>
      </trkpt>
      <trkpt lat="45.30784" lon="4.59281">
        <ele>616.79998779297</ele>
        <time>2026-05-11T07:48:50.000Z</time>
      </trkpt>
      <trkpt lat="45.30783" lon="4.59275">
        <ele>616.20001220703</ele>
        <time>2026-05-11T07:48:51.000Z</time>
      </trkpt>
      <trkpt lat="45.30781" lon="4.59269">
        <ele>615.59997558594</ele>
        <time>2026-05-11T07:48:52.000Z</time>
      </trkpt>
      <trkpt lat="45.3078" lon="4.59263">
        <ele>615</ele>
        <time>2026-05-11T07:48:53.000Z</time>
      </trkpt>
      <trkpt lat="45.30779" lon="4.59256">
        <ele>614.40002441406</ele>
        <time>2026-05-11T07:48:54.000Z</time>
      </trkpt>
      <trkpt lat="45.30778" lon="4.5925">
        <ele>613.79998779297</ele>
        <time>2026-05-11T07:48:55.000Z</time>
      </trkpt>
      <trkpt lat="45.30777" lon="4.59243">
        <ele>613</ele>
        <time>2026-05-11T07:48:56.000Z</time>
      </trkpt>
      <trkpt lat="45.30777" lon="4.59235">
        <ele>612.40002441406</ele>
        <time>2026-05-11T07:48:57.000Z</time>
      </trkpt>
      <trkpt lat="45.30775" lon="4.59228">
        <ele>611.79998779297</ele>
        <time>2026-05-11T07:48:58.000Z</time>
      </trkpt>
      <trkpt lat="45.30775" lon="4.59222">
        <ele>611</ele>
        <time>2026-05-11T07:48:59.000Z</time>
      </trkpt>
      <trkpt lat="45.30773" lon="4.59215">
        <ele>610.20001220703</ele>
        <time>2026-05-11T07:49:00.000Z</time>
      </trkpt>
      <trkpt lat="45.30773" lon="4.59209">
        <ele>609.40002441406</ele>
        <time>2026-05-11T07:49:01.000Z</time>
      </trkpt>
      <trkpt lat="45.30773" lon="4.59202">
        <ele>608.79998779297</ele>
        <time>2026-05-11T07:49:02.000Z</time>
      </trkpt>
      <trkpt lat="45.30772" lon="4.59195">
        <ele>608</ele>
        <time>2026-05-11T07:49:03.000Z</time>
      </trkpt>
      <trkpt lat="45.30772" lon="4.59189">
        <ele>607.40002441406</ele>
        <time>2026-05-11T07:49:04.000Z</time>
      </trkpt>
      <trkpt lat="45.30772" lon="4.59183">
        <ele>606.79998779297</ele>
        <time>2026-05-11T07:49:05.000Z</time>
      </trkpt>
      <trkpt lat="45.30772" lon="4.59178">
        <ele>606</ele>
        <time>2026-05-11T07:49:06.000Z</time>
      </trkpt>
      <trkpt lat="45.30773" lon="4.59173">
        <ele>605.20001220703</ele>
        <time>2026-05-11T07:49:07.000Z</time>
      </trkpt>
      <trkpt lat="45.30774" lon="4.59167">
        <ele>604.59997558594</ele>
        <time>2026-05-11T07:49:08.000Z</time>
      </trkpt>
      <trkpt lat="45.30775" lon="4.59162">
        <ele>604</ele>
        <time>2026-05-11T07:49:09.000Z</time>
      </trkpt>
      <trkpt lat="45.30776" lon="4.59157">
        <ele>603.40002441406</ele>
        <time>2026-05-11T07:49:10.000Z</time>
      </trkpt>
      <trkpt lat="45.30778" lon="4.59153">
        <ele>603</ele>
        <time>2026-05-11T07:49:11.000Z</time>
      </trkpt>
      <trkpt lat="45.30781" lon="4.59149">
        <ele>602.20001220703</ele>
        <time>2026-05-11T07:49:12.000Z</time>
      </trkpt>
      <trkpt lat="45.30783" lon="4.59146">
        <ele>601.59997558594</ele>
        <time>2026-05-11T07:49:13.000Z</time>
      </trkpt>
      <trkpt lat="45.30786" lon="4.59143">
        <ele>601</ele>
        <time>2026-05-11T07:49:14.000Z</time>
      </trkpt>
      <trkpt lat="45.30789" lon="4.5914">
        <ele>600.40002441406</ele>
        <time>2026-05-11T07:49:15.000Z</time>
      </trkpt>
      <trkpt lat="45.30791" lon="4.59136">
        <ele>599.79998779297</ele>
        <time>2026-05-11T07:49:16.000Z</time>
      </trkpt>
      <trkpt lat="45.30793" lon="4.59132">
        <ele>599.40002441406</ele>
        <time>2026-05-11T07:49:17.000Z</time>
      </trkpt>
      <trkpt lat="45.30794" lon="4.59127">
        <ele>598.59997558594</ele>
        <time>2026-05-11T07:49:18.000Z</time>
      </trkpt>
      <trkpt lat="45.30793" lon="4.59123">
        <ele>598.20001220703</ele>
        <time>2026-05-11T07:49:19.000Z</time>
      </trkpt>
      <trkpt lat="45.30792" lon="4.59119">
        <ele>597.79998779297</ele>
        <time>2026-05-11T07:49:20.000Z</time>
      </trkpt>
      <trkpt lat="45.3079" lon="4.59114">
        <ele>597.40002441406</ele>
        <time>2026-05-11T07:49:21.000Z</time>
      </trkpt>
      <trkpt lat="45.30788" lon="4.59109">
        <ele>596.79998779297</ele>
        <time>2026-05-11T07:49:22.000Z</time>
      </trkpt>
      <trkpt lat="45.30785" lon="4.59104">
        <ele>596.40002441406</ele>
        <time>2026-05-11T07:49:23.000Z</time>
      </trkpt>
      <trkpt lat="45.30781" lon="4.59099">
        <ele>595.79998779297</ele>
        <time>2026-05-11T07:49:24.000Z</time>
      </trkpt>
      <trkpt lat="45.30779" lon="4.59095">
        <ele>595.20001220703</ele>
        <time>2026-05-11T07:49:25.000Z</time>
      </trkpt>
      <trkpt lat="45.30776" lon="4.5909">
        <ele>594.59997558594</ele>
        <time>2026-05-11T07:49:26.000Z</time>
      </trkpt>
      <trkpt lat="45.30773" lon="4.59085">
        <ele>594.20001220703</ele>
        <time>2026-05-11T07:49:27.000Z</time>
      </trkpt>
      <trkpt lat="45.3077" lon="4.59081">
        <ele>593.59997558594</ele>
        <time>2026-05-11T07:49:28.000Z</time>
      </trkpt>
      <trkpt lat="45.30768" lon="4.59076">
        <ele>593.20001220703</ele>
        <time>2026-05-11T07:49:29.000Z</time>
      </trkpt>
      <trkpt lat="45.30765" lon="4.5907">
        <ele>592.40002441406</ele>
        <time>2026-05-11T07:49:30.000Z</time>
      </trkpt>
      <trkpt lat="45.30762" lon="4.59064">
        <ele>591.79998779297</ele>
        <time>2026-05-11T07:49:31.000Z</time>
      </trkpt>
      <trkpt lat="45.30759" lon="4.59057">
        <ele>591.20001220703</ele>
        <time>2026-05-11T07:49:32.000Z</time>
      </trkpt>
      <trkpt lat="45.30755" lon="4.59051">
        <ele>590.59997558594</ele>
        <time>2026-05-11T07:49:33.000Z</time>
      </trkpt>
      <trkpt lat="45.30752" lon="4.59044">
        <ele>590</ele>
        <time>2026-05-11T07:49:34.000Z</time>
      </trkpt>
      <trkpt lat="45.30749" lon="4.59038">
        <ele>589.40002441406</ele>
        <time>2026-05-11T07:49:35.000Z</time>
      </trkpt>
      <trkpt lat="45.30746" lon="4.59032">
        <ele>588.79998779297</ele>
        <time>2026-05-11T07:49:36.000Z</time>
      </trkpt>
      <trkpt lat="45.30743" lon="4.59025">
        <ele>588</ele>
        <time>2026-05-11T07:49:37.000Z</time>
      </trkpt>
      <trkpt lat="45.3074" lon="4.59019">
        <ele>587.40002441406</ele>
        <time>2026-05-11T07:49:38.000Z</time>
      </trkpt>
      <trkpt lat="45.30737" lon="4.59014">
        <ele>586.79998779297</ele>
        <time>2026-05-11T07:49:39.000Z</time>
      </trkpt>
      <trkpt lat="45.30734" lon="4.59009">
        <ele>586.20001220703</ele>
        <time>2026-05-11T07:49:40.000Z</time>
      </trkpt>
      <trkpt lat="45.30731" lon="4.59004">
        <ele>585.40002441406</ele>
        <time>2026-05-11T07:49:41.000Z</time>
      </trkpt>
      <trkpt lat="45.30729" lon="4.59">
        <ele>584.79998779297</ele>
        <time>2026-05-11T07:49:42.000Z</time>
      </trkpt>
      <trkpt lat="45.30727" lon="4.58995">
        <ele>584.20001220703</ele>
        <time>2026-05-11T07:49:43.000Z</time>
      </trkpt>
      <trkpt lat="45.30725" lon="4.58992">
        <ele>583.79998779297</ele>
        <time>2026-05-11T07:49:44.000Z</time>
      </trkpt>
      <trkpt lat="45.30723" lon="4.58989">
        <ele>583.20001220703</ele>
        <time>2026-05-11T07:49:45.000Z</time>
      </trkpt>
      <trkpt lat="45.30722" lon="4.58986">
        <ele>582.59997558594</ele>
        <time>2026-05-11T07:49:46.000Z</time>
      </trkpt>
      <trkpt lat="45.30721" lon="4.58984">
        <ele>582.20001220703</ele>
        <time>2026-05-11T07:49:47.000Z</time>
      </trkpt>
      <trkpt lat="45.30719" lon="4.58981">
        <ele>581.59997558594</ele>
        <time>2026-05-11T07:49:48.000Z</time>
      </trkpt>
      <trkpt lat="45.30717" lon="4.58977">
        <ele>581.20001220703</ele>
        <time>2026-05-11T07:49:49.000Z</time>
      </trkpt>
      <trkpt lat="45.30715" lon="4.58972">
        <ele>580.79998779297</ele>
        <time>2026-05-11T07:49:50.000Z</time>
      </trkpt>
      <trkpt lat="45.30714" lon="4.58967">
        <ele>580.20001220703</ele>
        <time>2026-05-11T07:49:51.000Z</time>
      </trkpt>
      <trkpt lat="45.30712" lon="4.58962">
        <ele>579.79998779297</ele>
        <time>2026-05-11T07:49:52.000Z</time>
      </trkpt>
      <trkpt lat="45.30709" lon="4.58958">
        <ele>579.20001220703</ele>
        <time>2026-05-11T07:49:53.000Z</time>
      </trkpt>
      <trkpt lat="45.30706" lon="4.58953">
        <ele>578.59997558594</ele>
        <time>2026-05-11T07:49:54.000Z</time>
      </trkpt>
      <trkpt lat="45.30703" lon="4.58948">
        <ele>578</ele>
        <time>2026-05-11T07:49:55.000Z</time>
      </trkpt>
      <trkpt lat="45.30701" lon="4.58943">
        <ele>577.59997558594</ele>
        <time>2026-05-11T07:49:56.000Z</time>
      </trkpt>
      <trkpt lat="45.307" lon="4.58937">
        <ele>577.20001220703</ele>
        <time>2026-05-11T07:49:57.000Z</time>
      </trkpt>
      <trkpt lat="45.30699" lon="4.58932">
        <ele>576.79998779297</ele>
        <time>2026-05-11T07:49:58.000Z</time>
      </trkpt>
      <trkpt lat="45.30699" lon="4.58928">
        <ele>576.20001220703</ele>
        <time>2026-05-11T07:49:59.000Z</time>
      </trkpt>
      <trkpt lat="45.30699" lon="4.58924">
        <ele>576</ele>
        <time>2026-05-11T07:50:00.000Z</time>
      </trkpt>
      <trkpt lat="45.30701" lon="4.58918">
        <ele>575.59997558594</ele>
        <time>2026-05-11T07:50:01.000Z</time>
      </trkpt>
      <trkpt lat="45.30703" lon="4.58913">
        <ele>575.20001220703</ele>
        <time>2026-05-11T07:50:02.000Z</time>
      </trkpt>
      <trkpt lat="45.30706" lon="4.58908">
        <ele>574.79998779297</ele>
        <time>2026-05-11T07:50:03.000Z</time>
      </trkpt>
      <trkpt lat="45.30709" lon="4.58903">
        <ele>574.40002441406</ele>
        <time>2026-05-11T07:50:04.000Z</time>
      </trkpt>
      <trkpt lat="45.30711" lon="4.58897">
        <ele>573.59997558594</ele>
        <time>2026-05-11T07:50:05.000Z</time>
      </trkpt>
      <trkpt lat="45.30711" lon="4.58891">
        <ele>573.20001220703</ele>
        <time>2026-05-11T07:50:06.000Z</time>
      </trkpt>
      <trkpt lat="45.3071" lon="4.58886">
        <ele>572.79998779297</ele>
        <time>2026-05-11T07:50:07.000Z</time>
      </trkpt>
      <trkpt lat="45.30707" lon="4.58882">
        <ele>572.40002441406</ele>
        <time>2026-05-11T07:50:08.000Z</time>
      </trkpt>
      <trkpt lat="45.30703" lon="4.58879">
        <ele>572</ele>
        <time>2026-05-11T07:50:09.000Z</time>
      </trkpt>
      <trkpt lat="45.30699" lon="4.58876">
        <ele>571.40002441406</ele>
        <time>2026-05-11T07:50:10.000Z</time>
      </trkpt>
      <trkpt lat="45.30694" lon="4.58872">
        <ele>570.79998779297</ele>
        <time>2026-05-11T07:50:11.000Z</time>
      </trkpt>
      <trkpt lat="45.3069" lon="4.58869">
        <ele>570.40002441406</ele>
        <time>2026-05-11T07:50:12.000Z</time>
      </trkpt>
      <trkpt lat="45.30685" lon="4.58866">
        <ele>569.79998779297</ele>
        <time>2026-05-11T07:50:13.000Z</time>
      </trkpt>
      <trkpt lat="45.30681" lon="4.58863">
        <ele>569.40002441406</ele>
        <time>2026-05-11T07:50:14.000Z</time>
      </trkpt>
      <trkpt lat="45.30677" lon="4.5886">
        <ele>569</ele>
        <time>2026-05-11T07:50:15.000Z</time>
      </trkpt>
      <trkpt lat="45.30673" lon="4.58856">
        <ele>568.40002441406</ele>
        <time>2026-05-11T07:50:16.000Z</time>
      </trkpt>
      <trkpt lat="45.30669" lon="4.58853">
        <ele>568</ele>
        <time>2026-05-11T07:50:17.000Z</time>
      </trkpt>
      <trkpt lat="45.30665" lon="4.58849">
        <ele>567.59997558594</ele>
        <time>2026-05-11T07:50:18.000Z</time>
      </trkpt>
      <trkpt lat="45.3066" lon="4.58846">
        <ele>567</ele>
        <time>2026-05-11T07:50:19.000Z</time>
      </trkpt>
      <trkpt lat="45.30656" lon="4.58842">
        <ele>566.59997558594</ele>
        <time>2026-05-11T07:50:20.000Z</time>
      </trkpt>
      <trkpt lat="45.30652" lon="4.58839">
        <ele>566</ele>
        <time>2026-05-11T07:50:21.000Z</time>
      </trkpt>
      <trkpt lat="45.30648" lon="4.58836">
        <ele>565.40002441406</ele>
        <time>2026-05-11T07:50:22.000Z</time>
      </trkpt>
      <trkpt lat="45.30644" lon="4.58833">
        <ele>565</ele>
        <time>2026-05-11T07:50:23.000Z</time>
      </trkpt>
      <trkpt lat="45.3064" lon="4.58829">
        <ele>564.40002441406</ele>
        <time>2026-05-11T07:50:24.000Z</time>
      </trkpt>
      <trkpt lat="45.30635" lon="4.58826">
        <ele>564</ele>
        <time>2026-05-11T07:50:25.000Z</time>
      </trkpt>
      <trkpt lat="45.30631" lon="4.58822">
        <ele>563.40002441406</ele>
        <time>2026-05-11T07:50:26.000Z</time>
      </trkpt>
      <trkpt lat="45.30627" lon="4.58819">
        <ele>562.79998779297</ele>
        <time>2026-05-11T07:50:27.000Z</time>
      </trkpt>
      <trkpt lat="45.30624" lon="4.58816">
        <ele>562.20001220703</ele>
        <time>2026-05-11T07:50:28.000Z</time>
      </trkpt>
      <trkpt lat="45.3062" lon="4.58813">
        <ele>561.59997558594</ele>
        <time>2026-05-11T07:50:29.000Z</time>
      </trkpt>
      <trkpt lat="45.30617" lon="4.58811">
        <ele>561</ele>
        <time>2026-05-11T07:50:30.000Z</time>
      </trkpt>
      <trkpt lat="45.30613" lon="4.58808">
        <ele>560.59997558594</ele>
        <time>2026-05-11T07:50:31.000Z</time>
      </trkpt>
      <trkpt lat="45.30609" lon="4.58806">
        <ele>560</ele>
        <time>2026-05-11T07:50:32.000Z</time>
      </trkpt>
      <trkpt lat="45.30606" lon="4.58804">
        <ele>559.40002441406</ele>
        <time>2026-05-11T07:50:33.000Z</time>
      </trkpt>
      <trkpt lat="45.30603" lon="4.58801">
        <ele>558.79998779297</ele>
        <time>2026-05-11T07:50:34.000Z</time>
      </trkpt>
      <trkpt lat="45.306" lon="4.58798">
        <ele>558.20001220703</ele>
        <time>2026-05-11T07:50:35.000Z</time>
      </trkpt>
      <trkpt lat="45.30597" lon="4.58797">
        <ele>557.79998779297</ele>
        <time>2026-05-11T07:50:36.000Z</time>
      </trkpt>
      <trkpt lat="45.30594" lon="4.58795">
        <ele>557.20001220703</ele>
        <time>2026-05-11T07:50:37.000Z</time>
      </trkpt>
      <trkpt lat="45.30591" lon="4.58793">
        <ele>556.79998779297</ele>
        <time>2026-05-11T07:50:38.000Z</time>
      </trkpt>
      <trkpt lat="45.30588" lon="4.5879">
        <ele>556.40002441406</ele>
        <time>2026-05-11T07:50:39.000Z</time>
      </trkpt>
      <trkpt lat="45.30584" lon="4.58788">
        <ele>555.79998779297</ele>
        <time>2026-05-11T07:50:40.000Z</time>
      </trkpt>
      <trkpt lat="45.3058" lon="4.58785">
        <ele>555.40002441406</ele>
        <time>2026-05-11T07:50:41.000Z</time>
      </trkpt>
      <trkpt lat="45.30576" lon="4.58782">
        <ele>554.79998779297</ele>
        <time>2026-05-11T07:50:42.000Z</time>
      </trkpt>
      <trkpt lat="45.30572" lon="4.58779">
        <ele>554.40002441406</ele>
        <time>2026-05-11T07:50:43.000Z</time>
      </trkpt>
      <trkpt lat="45.30568" lon="4.58776">
        <ele>553.79998779297</ele>
        <time>2026-05-11T07:50:44.000Z</time>
      </trkpt>
      <trkpt lat="45.30563" lon="4.58773">
        <ele>553.20001220703</ele>
        <time>2026-05-11T07:50:45.000Z</time>
      </trkpt>
      <trkpt lat="45.30558" lon="4.58771">
        <ele>552.59997558594</ele>
        <time>2026-05-11T07:50:46.000Z</time>
      </trkpt>
      <trkpt lat="45.30554" lon="4.58768">
        <ele>552</ele>
        <time>2026-05-11T07:50:47.000Z</time>
      </trkpt>
      <trkpt lat="45.30548" lon="4.58765">
        <ele>551.40002441406</ele>
        <time>2026-05-11T07:50:48.000Z</time>
      </trkpt>
      <trkpt lat="45.30543" lon="4.58762">
        <ele>551</ele>
        <time>2026-05-11T07:50:49.000Z</time>
      </trkpt>
      <trkpt lat="45.30538" lon="4.5876">
        <ele>550.40002441406</ele>
        <time>2026-05-11T07:50:50.000Z</time>
      </trkpt>
      <trkpt lat="45.30533" lon="4.58758">
        <ele>550</ele>
        <time>2026-05-11T07:50:51.000Z</time>
      </trkpt>
      <trkpt lat="45.30528" lon="4.58756">
        <ele>549.40002441406</ele>
        <time>2026-05-11T07:50:52.000Z</time>
      </trkpt>
      <trkpt lat="45.30523" lon="4.58755">
        <ele>549</ele>
        <time>2026-05-11T07:50:53.000Z</time>
      </trkpt>
      <trkpt lat="45.30518" lon="4.58752">
        <ele>548.40002441406</ele>
        <time>2026-05-11T07:50:54.000Z</time>
      </trkpt>
      <trkpt lat="45.30514" lon="4.5875">
        <ele>548</ele>
        <time>2026-05-11T07:50:55.000Z</time>
      </trkpt>
      <trkpt lat="45.30508" lon="4.58748">
        <ele>547.40002441406</ele>
        <time>2026-05-11T07:50:56.000Z</time>
      </trkpt>
      <trkpt lat="45.30503" lon="4.58746">
        <ele>546.79998779297</ele>
        <time>2026-05-11T07:50:57.000Z</time>
      </trkpt>
      <trkpt lat="45.30499" lon="4.58745">
        <ele>546.20001220703</ele>
        <time>2026-05-11T07:50:58.000Z</time>
      </trkpt>
      <trkpt lat="45.30494" lon="4.58743">
        <ele>545.59997558594</ele>
        <time>2026-05-11T07:50:59.000Z</time>
      </trkpt>
      <trkpt lat="45.30489" lon="4.58741">
        <ele>545</ele>
        <time>2026-05-11T07:51:00.000Z</time>
      </trkpt>
      <trkpt lat="45.30485" lon="4.58741">
        <ele>544.40002441406</ele>
        <time>2026-05-11T07:51:01.000Z</time>
      </trkpt>
      <trkpt lat="45.3048" lon="4.5874">
        <ele>543.79998779297</ele>
        <time>2026-05-11T07:51:02.000Z</time>
      </trkpt>
      <trkpt lat="45.30475" lon="4.58738">
        <ele>543.20001220703</ele>
        <time>2026-05-11T07:51:03.000Z</time>
      </trkpt>
      <trkpt lat="45.3047" lon="4.58736">
        <ele>542.59997558594</ele>
        <time>2026-05-11T07:51:04.000Z</time>
      </trkpt>
      <trkpt lat="45.30466" lon="4.58734">
        <ele>542.20001220703</ele>
        <time>2026-05-11T07:51:05.000Z</time>
      </trkpt>
      <trkpt lat="45.30461" lon="4.58733">
        <ele>541.79998779297</ele>
        <time>2026-05-11T07:51:06.000Z</time>
      </trkpt>
      <trkpt lat="45.30456" lon="4.58732">
        <ele>541.59997558594</ele>
        <time>2026-05-11T07:51:07.000Z</time>
      </trkpt>
      <trkpt lat="45.30451" lon="4.5873">
        <ele>541.20001220703</ele>
        <time>2026-05-11T07:51:08.000Z</time>
      </trkpt>
      <trkpt lat="45.30446" lon="4.58728">
        <ele>540.79998779297</ele>
        <time>2026-05-11T07:51:09.000Z</time>
      </trkpt>
      <trkpt lat="45.30442" lon="4.58726">
        <ele>540.40002441406</ele>
        <time>2026-05-11T07:51:10.000Z</time>
      </trkpt>
      <trkpt lat="45.30439" lon="4.58723">
        <ele>540</ele>
        <time>2026-05-11T07:51:11.000Z</time>
      </trkpt>
      <trkpt lat="45.30435" lon="4.58719">
        <ele>539.59997558594</ele>
        <time>2026-05-11T07:51:12.000Z</time>
      </trkpt>
      <trkpt lat="45.30432" lon="4.58714">
        <ele>539.20001220703</ele>
        <time>2026-05-11T07:51:13.000Z</time>
      </trkpt>
      <trkpt lat="45.30429" lon="4.5871">
        <ele>538.79998779297</ele>
        <time>2026-05-11T07:51:14.000Z</time>
      </trkpt>
      <trkpt lat="45.30426" lon="4.58706">
        <ele>538.40002441406</ele>
        <time>2026-05-11T07:51:15.000Z</time>
      </trkpt>
      <trkpt lat="45.30422" lon="4.58702">
        <ele>538.20001220703</ele>
        <time>2026-05-11T07:51:16.000Z</time>
      </trkpt>
      <trkpt lat="45.30418" lon="4.58698">
        <ele>537.79998779297</ele>
        <time>2026-05-11T07:51:17.000Z</time>
      </trkpt>
      <trkpt lat="45.30413" lon="4.58696">
        <ele>537.59997558594</ele>
        <time>2026-05-11T07:51:18.000Z</time>
      </trkpt>
      <trkpt lat="45.30409" lon="4.58695">
        <ele>537.40002441406</ele>
        <time>2026-05-11T07:51:19.000Z</time>
      </trkpt>
      <trkpt lat="45.30406" lon="4.58694">
        <ele>537.40002441406</ele>
        <time>2026-05-11T07:51:20.000Z</time>
      </trkpt>
      <trkpt lat="45.30403" lon="4.58694">
        <ele>537.40002441406</ele>
        <time>2026-05-11T07:51:21.000Z</time>
      </trkpt>
      <trkpt lat="45.304" lon="4.58694">
        <ele>537.40002441406</ele>
        <time>2026-05-11T07:51:22.000Z</time>
      </trkpt>
      <trkpt lat="45.30398" lon="4.58695">
        <ele>537.40002441406</ele>
        <time>2026-05-11T07:51:23.000Z</time>
      </trkpt>
      <trkpt lat="45.30395" lon="4.58696">
        <ele>537.59997558594</ele>
        <time>2026-05-11T07:51:24.000Z</time>
      </trkpt>
      <trkpt lat="45.30392" lon="4.58697">
        <ele>537.59997558594</ele>
        <time>2026-05-11T07:51:25.000Z</time>
      </trkpt>
      <trkpt lat="45.30389" lon="4.58697">
        <ele>537.79998779297</ele>
        <time>2026-05-11T07:51:26.000Z</time>
      </trkpt>
      <trkpt lat="45.30387" lon="4.58697">
        <ele>538</ele>
        <time>2026-05-11T07:51:27.000Z</time>
      </trkpt>
      <trkpt lat="45.30384" lon="4.58698">
        <ele>538.20001220703</ele>
        <time>2026-05-11T07:51:28.000Z</time>
      </trkpt>
      <trkpt lat="45.30381" lon="4.58698">
        <ele>538.40002441406</ele>
        <time>2026-05-11T07:51:29.000Z</time>
      </trkpt>
      <trkpt lat="45.30378" lon="4.58699">
        <ele>538.40002441406</ele>
        <time>2026-05-11T07:51:30.000Z</time>
      </trkpt>
      <trkpt lat="45.30376" lon="4.58699">
        <ele>538.59997558594</ele>
        <time>2026-05-11T07:51:31.000Z</time>
      </trkpt>
      <trkpt lat="45.30373" lon="4.58699">
        <ele>538.79998779297</ele>
        <time>2026-05-11T07:51:32.000Z</time>
      </trkpt>
      <trkpt lat="45.3037" lon="4.58699">
        <ele>539</ele>
        <time>2026-05-11T07:51:33.000Z</time>
      </trkpt>
      <trkpt lat="45.30368" lon="4.587">
        <ele>539</ele>
        <time>2026-05-11T07:51:34.000Z</time>
      </trkpt>
      <trkpt lat="45.30365" lon="4.587">
        <ele>539.20001220703</ele>
        <time>2026-05-11T07:51:35.000Z</time>
      </trkpt>
      <trkpt lat="45.30362" lon="4.587">
        <ele>539.40002441406</ele>
        <time>2026-05-11T07:51:36.000Z</time>
      </trkpt>
      <trkpt lat="45.3036" lon="4.58699">
        <ele>539.40002441406</ele>
        <time>2026-05-11T07:51:37.000Z</time>
      </trkpt>
      <trkpt lat="45.30357" lon="4.58699">
        <ele>539.59997558594</ele>
        <time>2026-05-11T07:51:38.000Z</time>
      </trkpt>
      <trkpt lat="45.30355" lon="4.58699">
        <ele>539.79998779297</ele>
        <time>2026-05-11T07:51:39.000Z</time>
      </trkpt>
      <trkpt lat="45.30352" lon="4.58698">
        <ele>539.79998779297</ele>
        <time>2026-05-11T07:51:40.000Z</time>
      </trkpt>
      <trkpt lat="45.30349" lon="4.58698">
        <ele>539.79998779297</ele>
        <time>2026-05-11T07:51:41.000Z</time>
      </trkpt>
      <trkpt lat="45.30346" lon="4.58698">
        <ele>540</ele>
        <time>2026-05-11T07:51:42.000Z</time>
      </trkpt>
      <trkpt lat="45.30344" lon="4.58698">
        <ele>540</ele>
        <time>2026-05-11T07:51:43.000Z</time>
      </trkpt>
      <trkpt lat="45.30342" lon="4.58698">
        <ele>540.20001220703</ele>
        <time>2026-05-11T07:51:44.000Z</time>
      </trkpt>
      <trkpt lat="45.3034" lon="4.58697">
        <ele>540.20001220703</ele>
        <time>2026-05-11T07:51:45.000Z</time>
      </trkpt>
      <trkpt lat="45.30338" lon="4.58697">
        <ele>540.40002441406</ele>
        <time>2026-05-11T07:51:46.000Z</time>
      </trkpt>
      <trkpt lat="45.30336" lon="4.58698">
        <ele>540.40002441406</ele>
        <time>2026-05-11T07:51:47.000Z</time>
      </trkpt>
      <trkpt lat="45.30334" lon="4.58698">
        <ele>540.59997558594</ele>
        <time>2026-05-11T07:51:48.000Z</time>
      </trkpt>
      <trkpt lat="45.30333" lon="4.58698">
        <ele>540.79998779297</ele>
        <time>2026-05-11T07:51:49.000Z</time>
      </trkpt>
      <trkpt lat="45.30332" lon="4.58698">
        <ele>540.79998779297</ele>
        <time>2026-05-11T07:51:50.000Z</time>
      </trkpt>
      <trkpt lat="45.30331" lon="4.58699">
        <ele>541</ele>
        <time>2026-05-11T07:51:51.000Z</time>
      </trkpt>
      <trkpt lat="45.3033" lon="4.58699">
        <ele>541</ele>
        <time>2026-05-11T07:51:52.000Z</time>
      </trkpt>
      <trkpt lat="45.30329" lon="4.587">
        <ele>540.79998779297</ele>
        <time>2026-05-11T07:51:53.000Z</time>
      </trkpt>
      <trkpt lat="45.30328" lon="4.58701">
        <ele>540.79998779297</ele>
        <time>2026-05-11T07:51:54.000Z</time>
      </trkpt>
      <trkpt lat="45.30327" lon="4.58702">
        <ele>540.59997558594</ele>
        <time>2026-05-11T07:51:55.000Z</time>
      </trkpt>
      <trkpt lat="45.30325" lon="4.58703">
        <ele>540.40002441406</ele>
        <time>2026-05-11T07:51:56.000Z</time>
      </trkpt>
      <trkpt lat="45.30323" lon="4.58703">
        <ele>540.40002441406</ele>
        <time>2026-05-11T07:51:57.000Z</time>
      </trkpt>
      <trkpt lat="45.3032" lon="4.58704">
        <ele>540.20001220703</ele>
        <time>2026-05-11T07:51:58.000Z</time>
      </trkpt>
      <trkpt lat="45.30318" lon="4.58705">
        <ele>540</ele>
        <time>2026-05-11T07:51:59.000Z</time>
      </trkpt>
      <trkpt lat="45.30315" lon="4.58706">
        <ele>540</ele>
        <time>2026-05-11T07:52:00.000Z</time>
      </trkpt>
      <trkpt lat="45.30311" lon="4.58707">
        <ele>539.79998779297</ele>
        <time>2026-05-11T07:52:01.000Z</time>
      </trkpt>
      <trkpt lat="45.30308" lon="4.58708">
        <ele>539.59997558594</ele>
        <time>2026-05-11T07:52:02.000Z</time>
      </trkpt>
      <trkpt lat="45.30305" lon="4.58709">
        <ele>539.40002441406</ele>
        <time>2026-05-11T07:52:03.000Z</time>
      </trkpt>
      <trkpt lat="45.30302" lon="4.5871">
        <ele>539.40002441406</ele>
        <time>2026-05-11T07:52:04.000Z</time>
      </trkpt>
      <trkpt lat="45.30298" lon="4.58711">
        <ele>539.20001220703</ele>
        <time>2026-05-11T07:52:05.000Z</time>
      </trkpt>
      <trkpt lat="45.30294" lon="4.58711">
        <ele>539</ele>
        <time>2026-05-11T07:52:06.000Z</time>
      </trkpt>
      <trkpt lat="45.30291" lon="4.58712">
        <ele>539</ele>
        <time>2026-05-11T07:52:07.000Z</time>
      </trkpt>
      <trkpt lat="45.30288" lon="4.58713">
        <ele>538.79998779297</ele>
        <time>2026-05-11T07:52:08.000Z</time>
      </trkpt>
      <trkpt lat="45.30285" lon="4.58713">
        <ele>538.79998779297</ele>
        <time>2026-05-11T07:52:09.000Z</time>
      </trkpt>
      <trkpt lat="45.30281" lon="4.58714">
        <ele>538.59997558594</ele>
        <time>2026-05-11T07:52:10.000Z</time>
      </trkpt>
      <trkpt lat="45.30278" lon="4.58715">
        <ele>538.40002441406</ele>
        <time>2026-05-11T07:52:11.000Z</time>
      </trkpt>
      <trkpt lat="45.30275" lon="4.58715">
        <ele>538.40002441406</ele>
        <time>2026-05-11T07:52:12.000Z</time>
      </trkpt>
      <trkpt lat="45.30273" lon="4.58716">
        <ele>538.20001220703</ele>
        <time>2026-05-11T07:52:13.000Z</time>
      </trkpt>
      <trkpt lat="45.3027" lon="4.58716">
        <ele>538.20001220703</ele>
        <time>2026-05-11T07:52:14.000Z</time>
      </trkpt>
      <trkpt lat="45.30267" lon="4.58716">
        <ele>538</ele>
        <time>2026-05-11T07:52:15.000Z</time>
      </trkpt>
      <trkpt lat="45.30265" lon="4.58716">
        <ele>538</ele>
        <time>2026-05-11T07:52:16.000Z</time>
      </trkpt>
      <trkpt lat="45.30262" lon="4.58716">
        <ele>537.79998779297</ele>
        <time>2026-05-11T07:52:17.000Z</time>
      </trkpt>
      <trkpt lat="45.30259" lon="4.58716">
        <ele>537.79998779297</ele>
        <time>2026-05-11T07:52:18.000Z</time>
      </trkpt>
      <trkpt lat="45.30256" lon="4.58715">
        <ele>537.79998779297</ele>
        <time>2026-05-11T07:52:19.000Z</time>
      </trkpt>
      <trkpt lat="45.30253" lon="4.58715">
        <ele>537.79998779297</ele>
        <time>2026-05-11T07:52:20.000Z</time>
      </trkpt>
      <trkpt lat="45.3025" lon="4.58714">
        <ele>537.79998779297</ele>
        <time>2026-05-11T07:52:21.000Z</time>
      </trkpt>
      <trkpt lat="45.30248" lon="4.58713">
        <ele>537.79998779297</ele>
        <time>2026-05-11T07:52:22.000Z</time>
      </trkpt>
      <trkpt lat="45.30246" lon="4.58712">
        <ele>537.79998779297</ele>
        <time>2026-05-11T07:52:23.000Z</time>
      </trkpt>
      <trkpt lat="45.30243" lon="4.58711">
        <ele>537.79998779297</ele>
        <time>2026-05-11T07:52:24.000Z</time>
      </trkpt>
      <trkpt lat="45.30241" lon="4.58709">
        <ele>537.79998779297</ele>
        <time>2026-05-11T07:52:25.000Z</time>
      </trkpt>
      <trkpt lat="45.30239" lon="4.58708">
        <ele>537.79998779297</ele>
        <time>2026-05-11T07:52:26.000Z</time>
      </trkpt>
      <trkpt lat="45.30237" lon="4.58706">
        <ele>538</ele>
        <time>2026-05-11T07:52:27.000Z</time>
      </trkpt>
      <trkpt lat="45.30234" lon="4.58705">
        <ele>538</ele>
        <time>2026-05-11T07:52:28.000Z</time>
      </trkpt>
      <trkpt lat="45.30232" lon="4.58703">
        <ele>538.20001220703</ele>
        <time>2026-05-11T07:52:29.000Z</time>
      </trkpt>
      <trkpt lat="45.30229" lon="4.58702">
        <ele>538.20001220703</ele>
        <time>2026-05-11T07:52:30.000Z</time>
      </trkpt>
      <trkpt lat="45.30227" lon="4.587">
        <ele>538.40002441406</ele>
        <time>2026-05-11T07:52:31.000Z</time>
      </trkpt>
      <trkpt lat="45.30224" lon="4.58698">
        <ele>538.40002441406</ele>
        <time>2026-05-11T07:52:32.000Z</time>
      </trkpt>
      <trkpt lat="45.30222" lon="4.58697">
        <ele>538.59997558594</ele>
        <time>2026-05-11T07:52:33.000Z</time>
      </trkpt>
      <trkpt lat="45.30219" lon="4.58695">
        <ele>538.59997558594</ele>
        <time>2026-05-11T07:52:34.000Z</time>
      </trkpt>
      <trkpt lat="45.30217" lon="4.58694">
        <ele>538.79998779297</ele>
        <time>2026-05-11T07:52:35.000Z</time>
      </trkpt>
      <trkpt lat="45.30215" lon="4.58692">
        <ele>539</ele>
        <time>2026-05-11T07:52:36.000Z</time>
      </trkpt>
      <trkpt lat="45.30213" lon="4.58691">
        <ele>539.20001220703</ele>
        <time>2026-05-11T07:52:37.000Z</time>
      </trkpt>
      <trkpt lat="45.3021" lon="4.58689">
        <ele>539.40002441406</ele>
        <time>2026-05-11T07:52:38.000Z</time>
      </trkpt>
      <trkpt lat="45.30208" lon="4.58687">
        <ele>539.59997558594</ele>
        <time>2026-05-11T07:52:39.000Z</time>
      </trkpt>
      <trkpt lat="45.30206" lon="4.58686">
        <ele>539.59997558594</ele>
        <time>2026-05-11T07:52:40.000Z</time>
      </trkpt>
      <trkpt lat="45.30204" lon="4.58684">
        <ele>539.79998779297</ele>
        <time>2026-05-11T07:52:41.000Z</time>
      </trkpt>
      <trkpt lat="45.30202" lon="4.58682">
        <ele>540</ele>
        <time>2026-05-11T07:52:42.000Z</time>
      </trkpt>
      <trkpt lat="45.302" lon="4.58681">
        <ele>540.20001220703</ele>
        <time>2026-05-11T07:52:43.000Z</time>
      </trkpt>
      <trkpt lat="45.30199" lon="4.5868">
        <ele>540.20001220703</ele>
        <time>2026-05-11T07:52:44.000Z</time>
      </trkpt>
      <trkpt lat="45.30197" lon="4.58678">
        <ele>540.40002441406</ele>
        <time>2026-05-11T07:52:45.000Z</time>
      </trkpt>
      <trkpt lat="45.30195" lon="4.58677">
        <ele>540.40002441406</ele>
        <time>2026-05-11T07:52:46.000Z</time>
      </trkpt>
      <trkpt lat="45.30193" lon="4.58676">
        <ele>540.59997558594</ele>
        <time>2026-05-11T07:52:47.000Z</time>
      </trkpt>
      <trkpt lat="45.30191" lon="4.58674">
        <ele>540.59997558594</ele>
        <time>2026-05-11T07:52:48.000Z</time>
      </trkpt>
      <trkpt lat="45.30189" lon="4.58673">
        <ele>540.59997558594</ele>
        <time>2026-05-11T07:52:49.000Z</time>
      </trkpt>
      <trkpt lat="45.30186" lon="4.5867">
        <ele>540.59997558594</ele>
        <time>2026-05-11T07:52:50.000Z</time>
      </trkpt>
      <trkpt lat="45.30184" lon="4.58668">
        <ele>540.40002441406</ele>
        <time>2026-05-11T07:52:51.000Z</time>
      </trkpt>
      <trkpt lat="45.30182" lon="4.58665">
        <ele>540.40002441406</ele>
        <time>2026-05-11T07:52:52.000Z</time>
      </trkpt>
      <trkpt lat="45.30179" lon="4.58663">
        <ele>540.20001220703</ele>
        <time>2026-05-11T07:52:53.000Z</time>
      </trkpt>
      <trkpt lat="45.30177" lon="4.58661">
        <ele>540.20001220703</ele>
        <time>2026-05-11T07:52:54.000Z</time>
      </trkpt>
      <trkpt lat="45.30175" lon="4.58658">
        <ele>540</ele>
        <time>2026-05-11T07:52:55.000Z</time>
      </trkpt>
      <trkpt lat="45.30172" lon="4.58655">
        <ele>540</ele>
        <time>2026-05-11T07:52:56.000Z</time>
      </trkpt>
      <trkpt lat="45.30169" lon="4.58652">
        <ele>539.79998779297</ele>
        <time>2026-05-11T07:52:57.000Z</time>
      </trkpt>
      <trkpt lat="45.30166" lon="4.58649">
        <ele>539.59997558594</ele>
        <time>2026-05-11T07:52:58.000Z</time>
      </trkpt>
      <trkpt lat="45.30164" lon="4.58645">
        <ele>539.40002441406</ele>
        <time>2026-05-11T07:52:59.000Z</time>
      </trkpt>
      <trkpt lat="45.30162" lon="4.58642">
        <ele>539.20001220703</ele>
        <time>2026-05-11T07:53:00.000Z</time>
      </trkpt>
      <trkpt lat="45.30159" lon="4.58639">
        <ele>538.79998779297</ele>
        <time>2026-05-11T07:53:01.000Z</time>
      </trkpt>
      <trkpt lat="45.30156" lon="4.58635">
        <ele>538.59997558594</ele>
        <time>2026-05-11T07:53:02.000Z</time>
      </trkpt>
      <trkpt lat="45.30153" lon="4.58631">
        <ele>538.40002441406</ele>
        <time>2026-05-11T07:53:03.000Z</time>
      </trkpt>
      <trkpt lat="45.3015" lon="4.58628">
        <ele>538.20001220703</ele>
        <time>2026-05-11T07:53:04.000Z</time>
      </trkpt>
      <trkpt lat="45.30148" lon="4.58624">
        <ele>538</ele>
        <time>2026-05-11T07:53:05.000Z</time>
      </trkpt>
      <trkpt lat="45.30145" lon="4.5862">
        <ele>537.79998779297</ele>
        <time>2026-05-11T07:53:06.000Z</time>
      </trkpt>
      <trkpt lat="45.30142" lon="4.58616">
        <ele>537.40002441406</ele>
        <time>2026-05-11T07:53:07.000Z</time>
      </trkpt>
      <trkpt lat="45.30139" lon="4.58612">
        <ele>537.20001220703</ele>
        <time>2026-05-11T07:53:08.000Z</time>
      </trkpt>
      <trkpt lat="45.30137" lon="4.58608">
        <ele>537</ele>
        <time>2026-05-11T07:53:09.000Z</time>
      </trkpt>
      <trkpt lat="45.30133" lon="4.58604">
        <ele>536.79998779297</ele>
        <time>2026-05-11T07:53:10.000Z</time>
      </trkpt>
      <trkpt lat="45.30131" lon="4.586">
        <ele>536.59997558594</ele>
        <time>2026-05-11T07:53:11.000Z</time>
      </trkpt>
      <trkpt lat="45.30128" lon="4.58597">
        <ele>536.40002441406</ele>
        <time>2026-05-11T07:53:12.000Z</time>
      </trkpt>
      <trkpt lat="45.30125" lon="4.58592">
        <ele>536</ele>
        <time>2026-05-11T07:53:13.000Z</time>
      </trkpt>
      <trkpt lat="45.30123" lon="4.58588">
        <ele>535.79998779297</ele>
        <time>2026-05-11T07:53:14.000Z</time>
      </trkpt>
      <trkpt lat="45.30121" lon="4.58584">
        <ele>535.59997558594</ele>
        <time>2026-05-11T07:53:15.000Z</time>
      </trkpt>
      <trkpt lat="45.30119" lon="4.5858">
        <ele>535.40002441406</ele>
        <time>2026-05-11T07:53:16.000Z</time>
      </trkpt>
      <trkpt lat="45.30116" lon="4.58576">
        <ele>535.20001220703</ele>
        <time>2026-05-11T07:53:17.000Z</time>
      </trkpt>
      <trkpt lat="45.30114" lon="4.58572">
        <ele>535</ele>
        <time>2026-05-11T07:53:18.000Z</time>
      </trkpt>
      <trkpt lat="45.30111" lon="4.58568">
        <ele>534.79998779297</ele>
        <time>2026-05-11T07:53:19.000Z</time>
      </trkpt>
      <trkpt lat="45.30109" lon="4.58565">
        <ele>534.59997558594</ele>
        <time>2026-05-11T07:53:20.000Z</time>
      </trkpt>
      <trkpt lat="45.30106" lon="4.5856">
        <ele>534.40002441406</ele>
        <time>2026-05-11T07:53:21.000Z</time>
      </trkpt>
      <trkpt lat="45.30103" lon="4.58555">
        <ele>534.20001220703</ele>
        <time>2026-05-11T07:53:22.000Z</time>
      </trkpt>
      <trkpt lat="45.301" lon="4.5855">
        <ele>534</ele>
        <time>2026-05-11T07:53:23.000Z</time>
      </trkpt>
      <trkpt lat="45.30097" lon="4.58546">
        <ele>533.79998779297</ele>
        <time>2026-05-11T07:53:24.000Z</time>
      </trkpt>
      <trkpt lat="45.30095" lon="4.58541">
        <ele>533.59997558594</ele>
        <time>2026-05-11T07:53:25.000Z</time>
      </trkpt>
      <trkpt lat="45.30092" lon="4.58536">
        <ele>533.40002441406</ele>
        <time>2026-05-11T07:53:26.000Z</time>
      </trkpt>
      <trkpt lat="45.3009" lon="4.58532">
        <ele>533.20001220703</ele>
        <time>2026-05-11T07:53:27.000Z</time>
      </trkpt>
      <trkpt lat="45.30088" lon="4.58528">
        <ele>533</ele>
        <time>2026-05-11T07:53:28.000Z</time>
      </trkpt>
      <trkpt lat="45.30086" lon="4.58524">
        <ele>532.79998779297</ele>
        <time>2026-05-11T07:53:29.000Z</time>
      </trkpt>
      <trkpt lat="45.30084" lon="4.58521">
        <ele>532.59997558594</ele>
        <time>2026-05-11T07:53:30.000Z</time>
      </trkpt>
      <trkpt lat="45.30082" lon="4.58519">
        <ele>532.59997558594</ele>
        <time>2026-05-11T07:53:31.000Z</time>
      </trkpt>
      <trkpt lat="45.3008" lon="4.58517">
        <ele>532.40002441406</ele>
        <time>2026-05-11T07:53:32.000Z</time>
      </trkpt>
      <trkpt lat="45.30078" lon="4.58514">
        <ele>532.20001220703</ele>
        <time>2026-05-11T07:53:33.000Z</time>
      </trkpt>
      <trkpt lat="45.30076" lon="4.5851">
        <ele>532.20001220703</ele>
        <time>2026-05-11T07:53:34.000Z</time>
      </trkpt>
      <trkpt lat="45.30072" lon="4.58506">
        <ele>531.79998779297</ele>
        <time>2026-05-11T07:53:35.000Z</time>
      </trkpt>
      <trkpt lat="45.30069" lon="4.58502">
        <ele>531.59997558594</ele>
        <time>2026-05-11T07:53:36.000Z</time>
      </trkpt>
      <trkpt lat="45.30065" lon="4.58497">
        <ele>531.40002441406</ele>
        <time>2026-05-11T07:53:37.000Z</time>
      </trkpt>
      <trkpt lat="45.30061" lon="4.58491">
        <ele>531</ele>
        <time>2026-05-11T07:53:38.000Z</time>
      </trkpt>
      <trkpt lat="45.30057" lon="4.58486">
        <ele>530.79998779297</ele>
        <time>2026-05-11T07:53:39.000Z</time>
      </trkpt>
      <trkpt lat="45.30052" lon="4.58479">
        <ele>530.40002441406</ele>
        <time>2026-05-11T07:53:40.000Z</time>
      </trkpt>
      <trkpt lat="45.30047" lon="4.58471">
        <ele>529.79998779297</ele>
        <time>2026-05-11T07:53:41.000Z</time>
      </trkpt>
      <trkpt lat="45.30043" lon="4.58462">
        <ele>529.20001220703</ele>
        <time>2026-05-11T07:53:42.000Z</time>
      </trkpt>
      <trkpt lat="45.30038" lon="4.58452">
        <ele>528.59997558594</ele>
        <time>2026-05-11T07:53:43.000Z</time>
      </trkpt>
      <trkpt lat="45.30035" lon="4.58442">
        <ele>528</ele>
        <time>2026-05-11T07:53:44.000Z</time>
      </trkpt>
      <trkpt lat="45.30031" lon="4.58432">
        <ele>527.40002441406</ele>
        <time>2026-05-11T07:53:45.000Z</time>
      </trkpt>
      <trkpt lat="45.30027" lon="4.58423">
        <ele>526.59997558594</ele>
        <time>2026-05-11T07:53:46.000Z</time>
      </trkpt>
      <trkpt lat="45.30024" lon="4.58414">
        <ele>525.79998779297</ele>
        <time>2026-05-11T07:53:47.000Z</time>
      </trkpt>
      <trkpt lat="45.3002" lon="4.58405">
        <ele>524.79998779297</ele>
        <time>2026-05-11T07:53:48.000Z</time>
      </trkpt>
      <trkpt lat="45.30016" lon="4.58397">
        <ele>524</ele>
        <time>2026-05-11T07:53:49.000Z</time>
      </trkpt>
      <trkpt lat="45.30013" lon="4.58389">
        <ele>523.20001220703</ele>
        <time>2026-05-11T07:53:50.000Z</time>
      </trkpt>
      <trkpt lat="45.30009" lon="4.58381">
        <ele>522.40002441406</ele>
        <time>2026-05-11T07:53:51.000Z</time>
      </trkpt>
      <trkpt lat="45.30006" lon="4.58373">
        <ele>521.40002441406</ele>
        <time>2026-05-11T07:53:52.000Z</time>
      </trkpt>
      <trkpt lat="45.30004" lon="4.58364">
        <ele>520.59997558594</ele>
        <time>2026-05-11T07:53:53.000Z</time>
      </trkpt>
      <trkpt lat="45.30003" lon="4.58355">
        <ele>519.40002441406</ele>
        <time>2026-05-11T07:53:54.000Z</time>
      </trkpt>
      <trkpt lat="45.30002" lon="4.58347">
        <ele>518.59997558594</ele>
        <time>2026-05-11T07:53:55.000Z</time>
      </trkpt>
      <trkpt lat="45.30001" lon="4.58338">
        <ele>517.79998779297</ele>
        <time>2026-05-11T07:53:56.000Z</time>
      </trkpt>
      <trkpt lat="45.30001" lon="4.58331">
        <ele>517</ele>
        <time>2026-05-11T07:53:57.000Z</time>
      </trkpt>
      <trkpt lat="45.30002" lon="4.58324">
        <ele>516.20001220703</ele>
        <time>2026-05-11T07:53:58.000Z</time>
      </trkpt>
      <trkpt lat="45.30003" lon="4.58316">
        <ele>515.40002441406</ele>
        <time>2026-05-11T07:53:59.000Z</time>
      </trkpt>
      <trkpt lat="45.30004" lon="4.58308">
        <ele>514.40002441406</ele>
        <time>2026-05-11T07:54:00.000Z</time>
      </trkpt>
      <trkpt lat="45.30004" lon="4.58301">
        <ele>513.59997558594</ele>
        <time>2026-05-11T07:54:01.000Z</time>
      </trkpt>
      <trkpt lat="45.30003" lon="4.58295">
        <ele>513</ele>
        <time>2026-05-11T07:54:02.000Z</time>
      </trkpt>
      <trkpt lat="45.3" lon="4.58289">
        <ele>512.40002441406</ele>
        <time>2026-05-11T07:54:03.000Z</time>
      </trkpt>
      <trkpt lat="45.29997" lon="4.58285">
        <ele>511.79998779297</ele>
        <time>2026-05-11T07:54:04.000Z</time>
      </trkpt>
      <trkpt lat="45.29994" lon="4.58281">
        <ele>511.39999389648</ele>
        <time>2026-05-11T07:54:05.000Z</time>
      </trkpt>
      <trkpt lat="45.29991" lon="4.58276">
        <ele>510.79998779297</ele>
        <time>2026-05-11T07:54:06.000Z</time>
      </trkpt>
      <trkpt lat="45.2999" lon="4.58271">
        <ele>510.60000610352</ele>
        <time>2026-05-11T07:54:07.000Z</time>
      </trkpt>
      <trkpt lat="45.29988" lon="4.58265">
        <ele>510.20001220703</ele>
        <time>2026-05-11T07:54:08.000Z</time>
      </trkpt>
      <trkpt lat="45.29988" lon="4.58258">
        <ele>509.79998779297</ele>
        <time>2026-05-11T07:54:09.000Z</time>
      </trkpt>
      <trkpt lat="45.29987" lon="4.58252">
        <ele>509.60000610352</ele>
        <time>2026-05-11T07:54:10.000Z</time>
      </trkpt>
      <trkpt lat="45.29987" lon="4.58246">
        <ele>509.39999389648</ele>
        <time>2026-05-11T07:54:11.000Z</time>
      </trkpt>
      <trkpt lat="45.29986" lon="4.5824">
        <ele>509.20001220703</ele>
        <time>2026-05-11T07:54:12.000Z</time>
      </trkpt>
      <trkpt lat="45.29986" lon="4.58234">
        <ele>509</ele>
        <time>2026-05-11T07:54:13.000Z</time>
      </trkpt>
      <trkpt lat="45.29985" lon="4.58228">
        <ele>509</ele>
        <time>2026-05-11T07:54:14.000Z</time>
      </trkpt>
      <trkpt lat="45.29985" lon="4.58222">
        <ele>509</ele>
        <time>2026-05-11T07:54:15.000Z</time>
      </trkpt>
      <trkpt lat="45.29984" lon="4.58216">
        <ele>508.79998779297</ele>
        <time>2026-05-11T07:54:16.000Z</time>
      </trkpt>
      <trkpt lat="45.29984" lon="4.5821">
        <ele>508.79998779297</ele>
        <time>2026-05-11T07:54:17.000Z</time>
      </trkpt>
      <trkpt lat="45.29983" lon="4.58205">
        <ele>508.79998779297</ele>
        <time>2026-05-11T07:54:18.000Z</time>
      </trkpt>
      <trkpt lat="45.29983" lon="4.58199">
        <ele>508.79998779297</ele>
        <time>2026-05-11T07:54:19.000Z</time>
      </trkpt>
      <trkpt lat="45.29983" lon="4.58194">
        <ele>508.60000610352</ele>
        <time>2026-05-11T07:54:20.000Z</time>
      </trkpt>
      <trkpt lat="45.29982" lon="4.5819">
        <ele>508.60000610352</ele>
        <time>2026-05-11T07:54:21.000Z</time>
      </trkpt>
      <trkpt lat="45.29982" lon="4.58186">
        <ele>508.60000610352</ele>
        <time>2026-05-11T07:54:22.000Z</time>
      </trkpt>
      <trkpt lat="45.29981" lon="4.58181">
        <ele>508.60000610352</ele>
        <time>2026-05-11T07:54:23.000Z</time>
      </trkpt>
      <trkpt lat="45.2998" lon="4.58177">
        <ele>508.60000610352</ele>
        <time>2026-05-11T07:54:24.000Z</time>
      </trkpt>
      <trkpt lat="45.2998" lon="4.58173">
        <ele>508.60000610352</ele>
        <time>2026-05-11T07:54:25.000Z</time>
      </trkpt>
      <trkpt lat="45.29979" lon="4.58169">
        <ele>508.60000610352</ele>
        <time>2026-05-11T07:54:26.000Z</time>
      </trkpt>
      <trkpt lat="45.29978" lon="4.58166">
        <ele>508.60000610352</ele>
        <time>2026-05-11T07:54:27.000Z</time>
      </trkpt>
      <trkpt lat="45.29975" lon="4.58164">
        <ele>508.60000610352</ele>
        <time>2026-05-11T07:54:28.000Z</time>
      </trkpt>
      <trkpt lat="45.29972" lon="4.58162">
        <ele>508.60000610352</ele>
        <time>2026-05-11T07:54:29.000Z</time>
      </trkpt>
      <trkpt lat="45.29969" lon="4.5816">
        <ele>508.60000610352</ele>
        <time>2026-05-11T07:54:30.000Z</time>
      </trkpt>
      <trkpt lat="45.29964" lon="4.5816">
        <ele>508.39999389648</ele>
        <time>2026-05-11T07:54:31.000Z</time>
      </trkpt>
      <trkpt lat="45.2996" lon="4.5816">
        <ele>508.39999389648</ele>
        <time>2026-05-11T07:54:32.000Z</time>
      </trkpt>
      <trkpt lat="45.29955" lon="4.5816">
        <ele>508.20001220703</ele>
        <time>2026-05-11T07:54:33.000Z</time>
      </trkpt>
      <trkpt lat="45.2995" lon="4.58161">
        <ele>508</ele>
        <time>2026-05-11T07:54:34.000Z</time>
      </trkpt>
      <trkpt lat="45.29944" lon="4.58162">
        <ele>507.79998779297</ele>
        <time>2026-05-11T07:54:35.000Z</time>
      </trkpt>
      <trkpt lat="45.29938" lon="4.58164">
        <ele>507.39999389648</ele>
        <time>2026-05-11T07:54:36.000Z</time>
      </trkpt>
      <trkpt lat="45.29932" lon="4.58167">
        <ele>507</ele>
        <time>2026-05-11T07:54:37.000Z</time>
      </trkpt>
      <trkpt lat="45.29926" lon="4.58173">
        <ele>506.79998779297</ele>
        <time>2026-05-11T07:54:38.000Z</time>
      </trkpt>
      <trkpt lat="45.2992" lon="4.5818">
        <ele>506.20001220703</ele>
        <time>2026-05-11T07:54:39.000Z</time>
      </trkpt>
      <trkpt lat="45.29914" lon="4.58187">
        <ele>505.79998779297</ele>
        <time>2026-05-11T07:54:40.000Z</time>
      </trkpt>
      <trkpt lat="45.29909" lon="4.58196">
        <ele>505</ele>
        <time>2026-05-11T07:54:41.000Z</time>
      </trkpt>
      <trkpt lat="45.29905" lon="4.58205">
        <ele>504.60000610352</ele>
        <time>2026-05-11T07:54:42.000Z</time>
      </trkpt>
      <trkpt lat="45.29901" lon="4.58214">
        <ele>504</ele>
        <time>2026-05-11T07:54:43.000Z</time>
      </trkpt>
      <trkpt lat="45.299" lon="4.58224">
        <ele>503.60000610352</ele>
        <time>2026-05-11T07:54:44.000Z</time>
      </trkpt>
      <trkpt lat="45.299" lon="4.58234">
        <ele>503.20001220703</ele>
        <time>2026-05-11T07:54:45.000Z</time>
      </trkpt>
      <trkpt lat="45.29901" lon="4.58243">
        <ele>502.79998779297</ele>
        <time>2026-05-11T07:54:46.000Z</time>
      </trkpt>
      <trkpt lat="45.29903" lon="4.58252">
        <ele>502.39999389648</ele>
        <time>2026-05-11T07:54:47.000Z</time>
      </trkpt>
      <trkpt lat="45.29905" lon="4.58259">
        <ele>502.20001220703</ele>
        <time>2026-05-11T07:54:48.000Z</time>
      </trkpt>
      <trkpt lat="45.29906" lon="4.58266">
        <ele>502</ele>
        <time>2026-05-11T07:54:49.000Z</time>
      </trkpt>
      <trkpt lat="45.29907" lon="4.58272">
        <ele>501.79998779297</ele>
        <time>2026-05-11T07:54:50.000Z</time>
      </trkpt>
      <trkpt lat="45.29908" lon="4.58278">
        <ele>501.60000610352</ele>
        <time>2026-05-11T07:54:51.000Z</time>
      </trkpt>
      <trkpt lat="45.2991" lon="4.58283">
        <ele>501.60000610352</ele>
        <time>2026-05-11T07:54:52.000Z</time>
      </trkpt>
      <trkpt lat="45.29912" lon="4.58287">
        <ele>501.60000610352</ele>
        <time>2026-05-11T07:54:53.000Z</time>
      </trkpt>
      <trkpt lat="45.29915" lon="4.58291">
        <ele>501.39999389648</ele>
        <time>2026-05-11T07:54:54.000Z</time>
      </trkpt>
      <trkpt lat="45.29916" lon="4.58295">
        <ele>501.39999389648</ele>
        <time>2026-05-11T07:54:55.000Z</time>
      </trkpt>
      <trkpt lat="45.29918" lon="4.583">
        <ele>501.39999389648</ele>
        <time>2026-05-11T07:54:56.000Z</time>
      </trkpt>
      <trkpt lat="45.29918" lon="4.58304">
        <ele>501.39999389648</ele>
        <time>2026-05-11T07:54:57.000Z</time>
      </trkpt>
      <trkpt lat="45.29919" lon="4.58308">
        <ele>501.39999389648</ele>
        <time>2026-05-11T07:54:58.000Z</time>
      </trkpt>
      <trkpt lat="45.29919" lon="4.58313">
        <ele>501.39999389648</ele>
        <time>2026-05-11T07:54:59.000Z</time>
      </trkpt>
      <trkpt lat="45.29919" lon="4.58317">
        <ele>501.39999389648</ele>
        <time>2026-05-11T07:55:00.000Z</time>
      </trkpt>
      <trkpt lat="45.29918" lon="4.58322">
        <ele>501.39999389648</ele>
        <time>2026-05-11T07:55:01.000Z</time>
      </trkpt>
      <trkpt lat="45.29916" lon="4.58327">
        <ele>501.20001220703</ele>
        <time>2026-05-11T07:55:02.000Z</time>
      </trkpt>
      <trkpt lat="45.29914" lon="4.58331">
        <ele>501.20001220703</ele>
        <time>2026-05-11T07:55:03.000Z</time>
      </trkpt>
      <trkpt lat="45.29912" lon="4.58335">
        <ele>501.20001220703</ele>
        <time>2026-05-11T07:55:04.000Z</time>
      </trkpt>
      <trkpt lat="45.29909" lon="4.58338">
        <ele>501.20001220703</ele>
        <time>2026-05-11T07:55:05.000Z</time>
      </trkpt>
      <trkpt lat="45.29906" lon="4.58341">
        <ele>501.20001220703</ele>
        <time>2026-05-11T07:55:06.000Z</time>
      </trkpt>
      <trkpt lat="45.29902" lon="4.58343">
        <ele>501</ele>
        <time>2026-05-11T07:55:07.000Z</time>
      </trkpt>
      <trkpt lat="45.29898" lon="4.58345">
        <ele>501</ele>
        <time>2026-05-11T07:55:08.000Z</time>
      </trkpt>
      <trkpt lat="45.29894" lon="4.58347">
        <ele>500.79998779297</ele>
        <time>2026-05-11T07:55:09.000Z</time>
      </trkpt>
      <trkpt lat="45.2989" lon="4.58349">
        <ele>500.79998779297</ele>
        <time>2026-05-11T07:55:10.000Z</time>
      </trkpt>
      <trkpt lat="45.29885" lon="4.58351">
        <ele>500.60000610352</ele>
        <time>2026-05-11T07:55:11.000Z</time>
      </trkpt>
      <trkpt lat="45.29881" lon="4.58352">
        <ele>500.60000610352</ele>
        <time>2026-05-11T07:55:12.000Z</time>
      </trkpt>
      <trkpt lat="45.29877" lon="4.58355">
        <ele>500.39999389648</ele>
        <time>2026-05-11T07:55:13.000Z</time>
      </trkpt>
      <trkpt lat="45.29873" lon="4.58357">
        <ele>500.39999389648</ele>
        <time>2026-05-11T07:55:14.000Z</time>
      </trkpt>
      <trkpt lat="45.29869" lon="4.58359">
        <ele>500.39999389648</ele>
        <time>2026-05-11T07:55:15.000Z</time>
      </trkpt>
      <trkpt lat="45.29865" lon="4.58361">
        <ele>500.20001220703</ele>
        <time>2026-05-11T07:55:16.000Z</time>
      </trkpt>
      <trkpt lat="45.29861" lon="4.58364">
        <ele>500.20001220703</ele>
        <time>2026-05-11T07:55:17.000Z</time>
      </trkpt>
      <trkpt lat="45.29858" lon="4.58366">
        <ele>500</ele>
        <time>2026-05-11T07:55:18.000Z</time>
      </trkpt>
      <trkpt lat="45.29855" lon="4.58369">
        <ele>500</ele>
        <time>2026-05-11T07:55:19.000Z</time>
      </trkpt>
      <trkpt lat="45.29852" lon="4.58372">
        <ele>500</ele>
        <time>2026-05-11T07:55:20.000Z</time>
      </trkpt>
      <trkpt lat="45.29849" lon="4.58376">
        <ele>500</ele>
        <time>2026-05-11T07:55:21.000Z</time>
      </trkpt>
      <trkpt lat="45.29846" lon="4.5838">
        <ele>500</ele>
        <time>2026-05-11T07:55:22.000Z</time>
      </trkpt>
      <trkpt lat="45.29844" lon="4.58384">
        <ele>500</ele>
        <time>2026-05-11T07:55:23.000Z</time>
      </trkpt>
      <trkpt lat="45.29842" lon="4.58388">
        <ele>500</ele>
        <time>2026-05-11T07:55:24.000Z</time>
      </trkpt>
      <trkpt lat="45.2984" lon="4.58393">
        <ele>500</ele>
        <time>2026-05-11T07:55:25.000Z</time>
      </trkpt>
      <trkpt lat="45.29838" lon="4.58397">
        <ele>500</ele>
        <time>2026-05-11T07:55:26.000Z</time>
      </trkpt>
      <trkpt lat="45.29837" lon="4.58402">
        <ele>500</ele>
        <time>2026-05-11T07:55:27.000Z</time>
      </trkpt>
      <trkpt lat="45.29836" lon="4.58407">
        <ele>500</ele>
        <time>2026-05-11T07:55:28.000Z</time>
      </trkpt>
      <trkpt lat="45.29834" lon="4.58412">
        <ele>500</ele>
        <time>2026-05-11T07:55:29.000Z</time>
      </trkpt>
      <trkpt lat="45.29833" lon="4.58417">
        <ele>500</ele>
        <time>2026-05-11T07:55:30.000Z</time>
      </trkpt>
      <trkpt lat="45.29832" lon="4.58422">
        <ele>500</ele>
        <time>2026-05-11T07:55:31.000Z</time>
      </trkpt>
      <trkpt lat="45.29831" lon="4.58427">
        <ele>500</ele>
        <time>2026-05-11T07:55:32.000Z</time>
      </trkpt>
      <trkpt lat="45.29831" lon="4.58433">
        <ele>500</ele>
        <time>2026-05-11T07:55:33.000Z</time>
      </trkpt>
      <trkpt lat="45.2983" lon="4.58438">
        <ele>500.20001220703</ele>
        <time>2026-05-11T07:55:34.000Z</time>
      </trkpt>
      <trkpt lat="45.29828" lon="4.58444">
        <ele>500.20001220703</ele>
        <time>2026-05-11T07:55:35.000Z</time>
      </trkpt>
      <trkpt lat="45.29828" lon="4.58449">
        <ele>500.20001220703</ele>
        <time>2026-05-11T07:55:36.000Z</time>
      </trkpt>
      <trkpt lat="45.29827" lon="4.58454">
        <ele>500.20001220703</ele>
        <time>2026-05-11T07:55:37.000Z</time>
      </trkpt>
      <trkpt lat="45.29826" lon="4.5846">
        <ele>500.20001220703</ele>
        <time>2026-05-11T07:55:38.000Z</time>
      </trkpt>
      <trkpt lat="45.29825" lon="4.58465">
        <ele>500.20001220703</ele>
        <time>2026-05-11T07:55:39.000Z</time>
      </trkpt>
      <trkpt lat="45.29823" lon="4.58471">
        <ele>500.20001220703</ele>
        <time>2026-05-11T07:55:40.000Z</time>
      </trkpt>
      <trkpt lat="45.29823" lon="4.58477">
        <ele>500.20001220703</ele>
        <time>2026-05-11T07:55:41.000Z</time>
      </trkpt>
      <trkpt lat="45.29822" lon="4.58483">
        <ele>500.20001220703</ele>
        <time>2026-05-11T07:55:42.000Z</time>
      </trkpt>
      <trkpt lat="45.29821" lon="4.58489">
        <ele>500.20001220703</ele>
        <time>2026-05-11T07:55:43.000Z</time>
      </trkpt>
      <trkpt lat="45.29821" lon="4.58494">
        <ele>500.20001220703</ele>
        <time>2026-05-11T07:55:44.000Z</time>
      </trkpt>
      <trkpt lat="45.2982" lon="4.585">
        <ele>500.20001220703</ele>
        <time>2026-05-11T07:55:45.000Z</time>
      </trkpt>
      <trkpt lat="45.29819" lon="4.58505">
        <ele>500</ele>
        <time>2026-05-11T07:55:46.000Z</time>
      </trkpt>
      <trkpt lat="45.29818" lon="4.58509">
        <ele>500</ele>
        <time>2026-05-11T07:55:47.000Z</time>
      </trkpt>
      <trkpt lat="45.29817" lon="4.58514">
        <ele>500</ele>
        <time>2026-05-11T07:55:48.000Z</time>
      </trkpt>
      <trkpt lat="45.29817" lon="4.58519">
        <ele>500</ele>
        <time>2026-05-11T07:55:49.000Z</time>
      </trkpt>
      <trkpt lat="45.29816" lon="4.58524">
        <ele>500</ele>
        <time>2026-05-11T07:55:50.000Z</time>
      </trkpt>
      <trkpt lat="45.29816" lon="4.58529">
        <ele>500</ele>
        <time>2026-05-11T07:55:51.000Z</time>
      </trkpt>
      <trkpt lat="45.29815" lon="4.58534">
        <ele>500</ele>
        <time>2026-05-11T07:55:52.000Z</time>
      </trkpt>
      <trkpt lat="45.29814" lon="4.58539">
        <ele>500</ele>
        <time>2026-05-11T07:55:53.000Z</time>
      </trkpt>
      <trkpt lat="45.29814" lon="4.58544">
        <ele>500</ele>
        <time>2026-05-11T07:55:54.000Z</time>
      </trkpt>
      <trkpt lat="45.29813" lon="4.58549">
        <ele>500</ele>
        <time>2026-05-11T07:55:55.000Z</time>
      </trkpt>
      <trkpt lat="45.29813" lon="4.58555">
        <ele>500</ele>
        <time>2026-05-11T07:55:56.000Z</time>
      </trkpt>
      <trkpt lat="45.29812" lon="4.58561">
        <ele>500</ele>
        <time>2026-05-11T07:55:57.000Z</time>
      </trkpt>
      <trkpt lat="45.29812" lon="4.58567">
        <ele>500</ele>
        <time>2026-05-11T07:55:58.000Z</time>
      </trkpt>
      <trkpt lat="45.29812" lon="4.58573">
        <ele>500</ele>
        <time>2026-05-11T07:55:59.000Z</time>
      </trkpt>
      <trkpt lat="45.29812" lon="4.58579">
        <ele>500</ele>
        <time>2026-05-11T07:56:00.000Z</time>
      </trkpt>
      <trkpt lat="45.29812" lon="4.58584">
        <ele>500</ele>
        <time>2026-05-11T07:56:01.000Z</time>
      </trkpt>
      <trkpt lat="45.29812" lon="4.5859">
        <ele>500</ele>
        <time>2026-05-11T07:56:02.000Z</time>
      </trkpt>
      <trkpt lat="45.29812" lon="4.58596">
        <ele>500</ele>
        <time>2026-05-11T07:56:03.000Z</time>
      </trkpt>
      <trkpt lat="45.29813" lon="4.58602">
        <ele>500.20001220703</ele>
        <time>2026-05-11T07:56:04.000Z</time>
      </trkpt>
      <trkpt lat="45.29813" lon="4.58607">
        <ele>500.20001220703</ele>
        <time>2026-05-11T07:56:05.000Z</time>
      </trkpt>
      <trkpt lat="45.29813" lon="4.58613">
        <ele>500.20001220703</ele>
        <time>2026-05-11T07:56:06.000Z</time>
      </trkpt>
      <trkpt lat="45.29814" lon="4.58619">
        <ele>500.20001220703</ele>
        <time>2026-05-11T07:56:07.000Z</time>
      </trkpt>
      <trkpt lat="45.29814" lon="4.58624">
        <ele>500.20001220703</ele>
        <time>2026-05-11T07:56:08.000Z</time>
      </trkpt>
      <trkpt lat="45.29814" lon="4.58629">
        <ele>500.20001220703</ele>
        <time>2026-05-11T07:56:09.000Z</time>
      </trkpt>
      <trkpt lat="45.29815" lon="4.58635">
        <ele>500.20001220703</ele>
        <time>2026-05-11T07:56:10.000Z</time>
      </trkpt>
      <trkpt lat="45.29815" lon="4.5864">
        <ele>500.20001220703</ele>
        <time>2026-05-11T07:56:11.000Z</time>
      </trkpt>
      <trkpt lat="45.29816" lon="4.58646">
        <ele>500.20001220703</ele>
        <time>2026-05-11T07:56:12.000Z</time>
      </trkpt>
      <trkpt lat="45.29816" lon="4.58652">
        <ele>500.20001220703</ele>
        <time>2026-05-11T07:56:13.000Z</time>
      </trkpt>
      <trkpt lat="45.29817" lon="4.58658">
        <ele>500.20001220703</ele>
        <time>2026-05-11T07:56:14.000Z</time>
      </trkpt>
      <trkpt lat="45.29817" lon="4.58664">
        <ele>500.20001220703</ele>
        <time>2026-05-11T07:56:15.000Z</time>
      </trkpt>
      <trkpt lat="45.29817" lon="4.58669">
        <ele>500.39999389648</ele>
        <time>2026-05-11T07:56:16.000Z</time>
      </trkpt>
      <trkpt lat="45.29817" lon="4.58675">
        <ele>500.39999389648</ele>
        <time>2026-05-11T07:56:17.000Z</time>
      </trkpt>
      <trkpt lat="45.29817" lon="4.5868">
        <ele>500.39999389648</ele>
        <time>2026-05-11T07:56:18.000Z</time>
      </trkpt>
      <trkpt lat="45.29818" lon="4.58685">
        <ele>500.60000610352</ele>
        <time>2026-05-11T07:56:19.000Z</time>
      </trkpt>
      <trkpt lat="45.29817" lon="4.58689">
        <ele>500.60000610352</ele>
        <time>2026-05-11T07:56:20.000Z</time>
      </trkpt>
      <trkpt lat="45.29817" lon="4.58693">
        <ele>500.79998779297</ele>
        <time>2026-05-11T07:56:21.000Z</time>
      </trkpt>
      <trkpt lat="45.29818" lon="4.58698">
        <ele>501</ele>
        <time>2026-05-11T07:56:22.000Z</time>
      </trkpt>
      <trkpt lat="45.29818" lon="4.58702">
        <ele>501.39999389648</ele>
        <time>2026-05-11T07:56:23.000Z</time>
      </trkpt>
      <trkpt lat="45.29818" lon="4.58707">
        <ele>501.60000610352</ele>
        <time>2026-05-11T07:56:24.000Z</time>
      </trkpt>
      <trkpt lat="45.29817" lon="4.58711">
        <ele>501.79998779297</ele>
        <time>2026-05-11T07:56:25.000Z</time>
      </trkpt>
      <trkpt lat="45.29816" lon="4.58715">
        <ele>502.20001220703</ele>
        <time>2026-05-11T07:56:26.000Z</time>
      </trkpt>
      <trkpt lat="45.29815" lon="4.58719">
        <ele>502.60000610352</ele>
        <time>2026-05-11T07:56:27.000Z</time>
      </trkpt>
      <trkpt lat="45.29815" lon="4.58724">
        <ele>502.79998779297</ele>
        <time>2026-05-11T07:56:28.000Z</time>
      </trkpt>
      <trkpt lat="45.29814" lon="4.58728">
        <ele>503.20001220703</ele>
        <time>2026-05-11T07:56:29.000Z</time>
      </trkpt>
      <trkpt lat="45.29814" lon="4.58732">
        <ele>503.39999389648</ele>
        <time>2026-05-11T07:56:30.000Z</time>
      </trkpt>
      <trkpt lat="45.29814" lon="4.58735">
        <ele>503.60000610352</ele>
        <time>2026-05-11T07:56:31.000Z</time>
      </trkpt>
      <trkpt lat="45.29813" lon="4.58738">
        <ele>503.79998779297</ele>
        <time>2026-05-11T07:56:32.000Z</time>
      </trkpt>
      <trkpt lat="45.29811" lon="4.58741">
        <ele>504.20001220703</ele>
        <time>2026-05-11T07:56:33.000Z</time>
      </trkpt>
      <trkpt lat="45.29809" lon="4.5874">
        <ele>504.20001220703</ele>
        <time>2026-05-11T07:56:34.000Z</time>
      </trkpt>
      <trkpt lat="45.29808" lon="4.58737">
        <ele>504.39999389648</ele>
        <time>2026-05-11T07:56:35.000Z</time>
      </trkpt>
      <trkpt lat="45.29808" lon="4.58735">
        <ele>504.60000610352</ele>
        <time>2026-05-11T07:56:36.000Z</time>
      </trkpt>
      <trkpt lat="45.29808" lon="4.58732">
        <ele>504.60000610352</ele>
        <time>2026-05-11T07:56:37.000Z</time>
      </trkpt>
      <trkpt lat="45.29808" lon="4.58729">
        <ele>504.79998779297</ele>
        <time>2026-05-11T07:56:38.000Z</time>
      </trkpt>
      <trkpt lat="45.29809" lon="4.58726">
        <ele>505</ele>
        <time>2026-05-11T07:56:39.000Z</time>
      </trkpt>
      <trkpt lat="45.29809" lon="4.58723">
        <ele>505.20001220703</ele>
        <time>2026-05-11T07:56:40.000Z</time>
      </trkpt>
      <trkpt lat="45.29809" lon="4.5872">
        <ele>505.39999389648</ele>
        <time>2026-05-11T07:56:41.000Z</time>
      </trkpt>
      <trkpt lat="45.29809" lon="4.58717">
        <ele>505.79998779297</ele>
        <time>2026-05-11T07:56:42.000Z</time>
      </trkpt>
      <trkpt lat="45.29809" lon="4.58715">
        <ele>506</ele>
        <time>2026-05-11T07:56:43.000Z</time>
      </trkpt>
      <trkpt lat="45.29809" lon="4.58711">
        <ele>506.20001220703</ele>
        <time>2026-05-11T07:56:44.000Z</time>
      </trkpt>
      <trkpt lat="45.29809" lon="4.58707">
        <ele>506.60000610352</ele>
        <time>2026-05-11T07:56:45.000Z</time>
      </trkpt>
      <trkpt lat="45.29808" lon="4.58704">
        <ele>506.79998779297</ele>
        <time>2026-05-11T07:56:46.000Z</time>
      </trkpt>
      <trkpt lat="45.29807" lon="4.587">
        <ele>507.20001220703</ele>
        <time>2026-05-11T07:56:47.000Z</time>
      </trkpt>
      <trkpt lat="45.29806" lon="4.58697">
        <ele>507.39999389648</ele>
        <time>2026-05-11T07:56:48.000Z</time>
      </trkpt>
      <trkpt lat="45.29805" lon="4.58694">
        <ele>507.60000610352</ele>
        <time>2026-05-11T07:56:49.000Z</time>
      </trkpt>
      <trkpt lat="45.29804" lon="4.58691">
        <ele>507.79998779297</ele>
        <time>2026-05-11T07:56:50.000Z</time>
      </trkpt>
      <trkpt lat="45.29802" lon="4.58688">
        <ele>508</ele>
        <time>2026-05-11T07:56:51.000Z</time>
      </trkpt>
      <trkpt lat="45.29801" lon="4.58684">
        <ele>508.39999389648</ele>
        <time>2026-05-11T07:56:52.000Z</time>
      </trkpt>
      <trkpt lat="45.298" lon="4.58681">
        <ele>508.60000610352</ele>
        <time>2026-05-11T07:56:53.000Z</time>
      </trkpt>
      <trkpt lat="45.298" lon="4.58678">
        <ele>509</ele>
        <time>2026-05-11T07:56:54.000Z</time>
      </trkpt>
      <trkpt lat="45.29799" lon="4.58675">
        <ele>509.20001220703</ele>
        <time>2026-05-11T07:56:55.000Z</time>
      </trkpt>
      <trkpt lat="45.29799" lon="4.58672">
        <ele>509.39999389648</ele>
        <time>2026-05-11T07:56:56.000Z</time>
      </trkpt>
      <trkpt lat="45.29798" lon="4.58668">
        <ele>509.60000610352</ele>
        <time>2026-05-11T07:56:57.000Z</time>
      </trkpt>
      <trkpt lat="45.29798" lon="4.58664">
        <ele>509.79998779297</ele>
        <time>2026-05-11T07:56:58.000Z</time>
      </trkpt>
      <trkpt lat="45.29796" lon="4.58661">
        <ele>509.79998779297</ele>
        <time>2026-05-11T07:56:59.000Z</time>
      </trkpt>
      <trkpt lat="45.29794" lon="4.58656">
        <ele>510</ele>
        <time>2026-05-11T07:57:00.000Z</time>
      </trkpt>
      <trkpt lat="45.29793" lon="4.58653">
        <ele>510.20001220703</ele>
        <time>2026-05-11T07:57:01.000Z</time>
      </trkpt>
      <trkpt lat="45.29792" lon="4.5865">
        <ele>510.39999389648</ele>
        <time>2026-05-11T07:57:02.000Z</time>
      </trkpt>
      <trkpt lat="45.29791" lon="4.58647">
        <ele>510.39999389648</ele>
        <time>2026-05-11T07:57:03.000Z</time>
      </trkpt>
      <trkpt lat="45.2979" lon="4.58644">
        <ele>510.60000610352</ele>
        <time>2026-05-11T07:57:04.000Z</time>
      </trkpt>
      <trkpt lat="45.29789" lon="4.5864">
        <ele>510.60000610352</ele>
        <time>2026-05-11T07:57:05.000Z</time>
      </trkpt>
      <trkpt lat="45.29789" lon="4.58635">
        <ele>510.79998779297</ele>
        <time>2026-05-11T07:57:06.000Z</time>
      </trkpt>
      <trkpt lat="45.29788" lon="4.58631">
        <ele>510.79998779297</ele>
        <time>2026-05-11T07:57:07.000Z</time>
      </trkpt>
      <trkpt lat="45.29788" lon="4.58627">
        <ele>510.79998779297</ele>
        <time>2026-05-11T07:57:08.000Z</time>
      </trkpt>
      <trkpt lat="45.29787" lon="4.58624">
        <ele>511</ele>
        <time>2026-05-11T07:57:09.000Z</time>
      </trkpt>
      <trkpt lat="45.29786" lon="4.5862">
        <ele>511</ele>
        <time>2026-05-11T07:57:10.000Z</time>
      </trkpt>
      <trkpt lat="45.29785" lon="4.58617">
        <ele>511</ele>
        <time>2026-05-11T07:57:11.000Z</time>
      </trkpt>
      <trkpt lat="45.29784" lon="4.58614">
        <ele>511.20001220703</ele>
        <time>2026-05-11T07:57:12.000Z</time>
      </trkpt>
      <trkpt lat="45.29784" lon="4.58611">
        <ele>511.39999389648</ele>
        <time>2026-05-11T07:57:13.000Z</time>
      </trkpt>
      <trkpt lat="45.29783" lon="4.58607">
        <ele>511.60000610352</ele>
        <time>2026-05-11T07:57:14.000Z</time>
      </trkpt>
      <trkpt lat="45.29782" lon="4.58604">
        <ele>511.60000610352</ele>
        <time>2026-05-11T07:57:15.000Z</time>
      </trkpt>
      <trkpt lat="45.29782" lon="4.586">
        <ele>511.79998779297</ele>
        <time>2026-05-11T07:57:16.000Z</time>
      </trkpt>
      <trkpt lat="45.29782" lon="4.58595">
        <ele>512</ele>
        <time>2026-05-11T07:57:17.000Z</time>
      </trkpt>
      <trkpt lat="45.29782" lon="4.58591">
        <ele>512.20001220703</ele>
        <time>2026-05-11T07:57:18.000Z</time>
      </trkpt>
      <trkpt lat="45.29781" lon="4.58587">
        <ele>512.40002441406</ele>
        <time>2026-05-11T07:57:19.000Z</time>
      </trkpt>
      <trkpt lat="45.29781" lon="4.58583">
        <ele>512.40002441406</ele>
        <time>2026-05-11T07:57:20.000Z</time>
      </trkpt>
      <trkpt lat="45.29781" lon="4.58579">
        <ele>512.59997558594</ele>
        <time>2026-05-11T07:57:21.000Z</time>
      </trkpt>
      <trkpt lat="45.2978" lon="4.58574">
        <ele>512.79998779297</ele>
        <time>2026-05-11T07:57:22.000Z</time>
      </trkpt>
      <trkpt lat="45.29781" lon="4.58571">
        <ele>513</ele>
        <time>2026-05-11T07:57:23.000Z</time>
      </trkpt>
      <trkpt lat="45.29781" lon="4.58568">
        <ele>513.20001220703</ele>
        <time>2026-05-11T07:57:24.000Z</time>
      </trkpt>
      <trkpt lat="45.29781" lon="4.58565">
        <ele>513.40002441406</ele>
        <time>2026-05-11T07:57:25.000Z</time>
      </trkpt>
      <trkpt lat="45.29781" lon="4.58562">
        <ele>513.79998779297</ele>
        <time>2026-05-11T07:57:26.000Z</time>
      </trkpt>
      <trkpt lat="45.2978" lon="4.58559">
        <ele>514</ele>
        <time>2026-05-11T07:57:27.000Z</time>
      </trkpt>
      <trkpt lat="45.2978" lon="4.58555">
        <ele>514.20001220703</ele>
        <time>2026-05-11T07:57:28.000Z</time>
      </trkpt>
      <trkpt lat="45.2978" lon="4.58551">
        <ele>514.40002441406</ele>
        <time>2026-05-11T07:57:29.000Z</time>
      </trkpt>
      <trkpt lat="45.2978" lon="4.58548">
        <ele>514.59997558594</ele>
        <time>2026-05-11T07:57:30.000Z</time>
      </trkpt>
      <trkpt lat="45.2978" lon="4.58545">
        <ele>515</ele>
        <time>2026-05-11T07:57:31.000Z</time>
      </trkpt>
      <trkpt lat="45.2978" lon="4.58541">
        <ele>515.20001220703</ele>
        <time>2026-05-11T07:57:32.000Z</time>
      </trkpt>
      <trkpt lat="45.2978" lon="4.58537">
        <ele>515.40002441406</ele>
        <time>2026-05-11T07:57:33.000Z</time>
      </trkpt>
      <trkpt lat="45.2978" lon="4.58533">
        <ele>515.59997558594</ele>
        <time>2026-05-11T07:57:34.000Z</time>
      </trkpt>
      <trkpt lat="45.2978" lon="4.58529">
        <ele>515.79998779297</ele>
        <time>2026-05-11T07:57:35.000Z</time>
      </trkpt>
      <trkpt lat="45.2978" lon="4.58526">
        <ele>516</ele>
        <time>2026-05-11T07:57:36.000Z</time>
      </trkpt>
      <trkpt lat="45.2978" lon="4.58522">
        <ele>516</ele>
        <time>2026-05-11T07:57:37.000Z</time>
      </trkpt>
      <trkpt lat="45.29781" lon="4.58518">
        <ele>516.20001220703</ele>
        <time>2026-05-11T07:57:38.000Z</time>
      </trkpt>
      <trkpt lat="45.2978" lon="4.58515">
        <ele>516.40002441406</ele>
        <time>2026-05-11T07:57:39.000Z</time>
      </trkpt>
      <trkpt lat="45.2978" lon="4.58513">
        <ele>516.59997558594</ele>
        <time>2026-05-11T07:57:40.000Z</time>
      </trkpt>
      <trkpt lat="45.29781" lon="4.5851">
        <ele>516.59997558594</ele>
        <time>2026-05-11T07:57:41.000Z</time>
      </trkpt>
      <trkpt lat="45.29782" lon="4.58507">
        <ele>516.79998779297</ele>
        <time>2026-05-11T07:57:42.000Z</time>
      </trkpt>
      <trkpt lat="45.29782" lon="4.58504">
        <ele>517</ele>
        <time>2026-05-11T07:57:43.000Z</time>
      </trkpt>
      <trkpt lat="45.29782" lon="4.58501">
        <ele>517.20001220703</ele>
        <time>2026-05-11T07:57:44.000Z</time>
      </trkpt>
      <trkpt lat="45.29782" lon="4.58499">
        <ele>517.20001220703</ele>
        <time>2026-05-11T07:57:45.000Z</time>
      </trkpt>
      <trkpt lat="45.29783" lon="4.58496">
        <ele>517.40002441406</ele>
        <time>2026-05-11T07:57:46.000Z</time>
      </trkpt>
      <trkpt lat="45.29783" lon="4.58494">
        <ele>517.59997558594</ele>
        <time>2026-05-11T07:57:47.000Z</time>
      </trkpt>
      <trkpt lat="45.29783" lon="4.58492">
        <ele>517.79998779297</ele>
        <time>2026-05-11T07:57:48.000Z</time>
      </trkpt>
      <trkpt lat="45.29784" lon="4.58489">
        <ele>517.79998779297</ele>
        <time>2026-05-11T07:57:49.000Z</time>
      </trkpt>
      <trkpt lat="45.29784" lon="4.58487">
        <ele>518</ele>
        <time>2026-05-11T07:57:50.000Z</time>
      </trkpt>
      <trkpt lat="45.29785" lon="4.58484">
        <ele>518.20001220703</ele>
        <time>2026-05-11T07:57:51.000Z</time>
      </trkpt>
      <trkpt lat="45.29785" lon="4.58481">
        <ele>518.40002441406</ele>
        <time>2026-05-11T07:57:52.000Z</time>
      </trkpt>
      <trkpt lat="45.29785" lon="4.58479">
        <ele>518.40002441406</ele>
        <time>2026-05-11T07:57:53.000Z</time>
      </trkpt>
      <trkpt lat="45.29786" lon="4.58476">
        <ele>518.59997558594</ele>
        <time>2026-05-11T07:57:54.000Z</time>
      </trkpt>
      <trkpt lat="45.29785" lon="4.58474">
        <ele>518.79998779297</ele>
        <time>2026-05-11T07:57:55.000Z</time>
      </trkpt>
      <trkpt lat="45.29786" lon="4.58471">
        <ele>518.79998779297</ele>
        <time>2026-05-11T07:57:56.000Z</time>
      </trkpt>
      <trkpt lat="45.29787" lon="4.58468">
        <ele>519</ele>
        <time>2026-05-11T07:57:57.000Z</time>
      </trkpt>
      <trkpt lat="45.29787" lon="4.58465">
        <ele>519.20001220703</ele>
        <time>2026-05-11T07:57:58.000Z</time>
      </trkpt>
      <trkpt lat="45.29787" lon="4.58462">
        <ele>519.20001220703</ele>
        <time>2026-05-11T07:57:59.000Z</time>
      </trkpt>
      <trkpt lat="45.29788" lon="4.58459">
        <ele>519.40002441406</ele>
        <time>2026-05-11T07:58:00.000Z</time>
      </trkpt>
      <trkpt lat="45.29788" lon="4.58457">
        <ele>519.40002441406</ele>
        <time>2026-05-11T07:58:01.000Z</time>
      </trkpt>
      <trkpt lat="45.29788" lon="4.58454">
        <ele>519.59997558594</ele>
        <time>2026-05-11T07:58:02.000Z</time>
      </trkpt>
      <trkpt lat="45.29789" lon="4.58451">
        <ele>519.79998779297</ele>
        <time>2026-05-11T07:58:03.000Z</time>
      </trkpt>
      <trkpt lat="45.29789" lon="4.58449">
        <ele>519.79998779297</ele>
        <time>2026-05-11T07:58:04.000Z</time>
      </trkpt>
      <trkpt lat="45.29789" lon="4.58447">
        <ele>520</ele>
        <time>2026-05-11T07:58:05.000Z</time>
      </trkpt>
      <trkpt lat="45.2979" lon="4.58444">
        <ele>520.20001220703</ele>
        <time>2026-05-11T07:58:06.000Z</time>
      </trkpt>
      <trkpt lat="45.2979" lon="4.58442">
        <ele>520.20001220703</ele>
        <time>2026-05-11T07:58:07.000Z</time>
      </trkpt>
      <trkpt lat="45.29791" lon="4.5844">
        <ele>520.40002441406</ele>
        <time>2026-05-11T07:58:08.000Z</time>
      </trkpt>
      <trkpt lat="45.29791" lon="4.58437">
        <ele>520.40002441406</ele>
        <time>2026-05-11T07:58:09.000Z</time>
      </trkpt>
      <trkpt lat="45.29791" lon="4.58435">
        <ele>520.59997558594</ele>
        <time>2026-05-11T07:58:10.000Z</time>
      </trkpt>
      <trkpt lat="45.29792" lon="4.58432">
        <ele>520.59997558594</ele>
        <time>2026-05-11T07:58:11.000Z</time>
      </trkpt>
      <trkpt lat="45.29792" lon="4.5843">
        <ele>520.79998779297</ele>
        <time>2026-05-11T07:58:12.000Z</time>
      </trkpt>
      <trkpt lat="45.29793" lon="4.58427">
        <ele>521</ele>
        <time>2026-05-11T07:58:13.000Z</time>
      </trkpt>
      <trkpt lat="45.29794" lon="4.58425">
        <ele>521</ele>
        <time>2026-05-11T07:58:14.000Z</time>
      </trkpt>
      <trkpt lat="45.29795" lon="4.58423">
        <ele>521.20001220703</ele>
        <time>2026-05-11T07:58:15.000Z</time>
      </trkpt>
      <trkpt lat="45.29795" lon="4.5842">
        <ele>521.20001220703</ele>
        <time>2026-05-11T07:58:16.000Z</time>
      </trkpt>
      <trkpt lat="45.29795" lon="4.58417">
        <ele>521.40002441406</ele>
        <time>2026-05-11T07:58:17.000Z</time>
      </trkpt>
      <trkpt lat="45.29796" lon="4.58415">
        <ele>521.40002441406</ele>
        <time>2026-05-11T07:58:18.000Z</time>
      </trkpt>
      <trkpt lat="45.29795" lon="4.58412">
        <ele>521.59997558594</ele>
        <time>2026-05-11T07:58:19.000Z</time>
      </trkpt>
      <trkpt lat="45.29796" lon="4.58409">
        <ele>521.59997558594</ele>
        <time>2026-05-11T07:58:20.000Z</time>
      </trkpt>
      <trkpt lat="45.29796" lon="4.58406">
        <ele>521.59997558594</ele>
        <time>2026-05-11T07:58:21.000Z</time>
      </trkpt>
      <trkpt lat="45.29797" lon="4.58403">
        <ele>521.79998779297</ele>
        <time>2026-05-11T07:58:22.000Z</time>
      </trkpt>
      <trkpt lat="45.29797" lon="4.584">
        <ele>521.79998779297</ele>
        <time>2026-05-11T07:58:23.000Z</time>
      </trkpt>
      <trkpt lat="45.29798" lon="4.58398">
        <ele>522</ele>
        <time>2026-05-11T07:58:24.000Z</time>
      </trkpt>
      <trkpt lat="45.29798" lon="4.58395">
        <ele>522</ele>
        <time>2026-05-11T07:58:25.000Z</time>
      </trkpt>
      <trkpt lat="45.29799" lon="4.58393">
        <ele>522</ele>
        <time>2026-05-11T07:58:26.000Z</time>
      </trkpt>
      <trkpt lat="45.29799" lon="4.58391">
        <ele>522.20001220703</ele>
        <time>2026-05-11T07:58:27.000Z</time>
      </trkpt>
      <trkpt lat="45.29799" lon="4.58388">
        <ele>522.20001220703</ele>
        <time>2026-05-11T07:58:28.000Z</time>
      </trkpt>
      <trkpt lat="45.298" lon="4.58385">
        <ele>522.20001220703</ele>
        <time>2026-05-11T07:58:29.000Z</time>
      </trkpt>
      <trkpt lat="45.298" lon="4.58383">
        <ele>522.40002441406</ele>
        <time>2026-05-11T07:58:30.000Z</time>
      </trkpt>
      <trkpt lat="45.29801" lon="4.5838">
        <ele>522.40002441406</ele>
        <time>2026-05-11T07:58:31.000Z</time>
      </trkpt>
      <trkpt lat="45.29801" lon="4.58377">
        <ele>522.59997558594</ele>
        <time>2026-05-11T07:58:32.000Z</time>
      </trkpt>
      <trkpt lat="45.29802" lon="4.58375">
        <ele>522.59997558594</ele>
        <time>2026-05-11T07:58:33.000Z</time>
      </trkpt>
      <trkpt lat="45.29803" lon="4.58374">
        <ele>522.79998779297</ele>
        <time>2026-05-11T07:58:34.000Z</time>
      </trkpt>
      <trkpt lat="45.29803" lon="4.58371">
        <ele>522.79998779297</ele>
        <time>2026-05-11T07:58:35.000Z</time>
      </trkpt>
      <trkpt lat="45.29804" lon="4.58369">
        <ele>522.79998779297</ele>
        <time>2026-05-11T07:58:36.000Z</time>
      </trkpt>
      <trkpt lat="45.29805" lon="4.58366">
        <ele>523</ele>
        <time>2026-05-11T07:58:37.000Z</time>
      </trkpt>
      <trkpt lat="45.29806" lon="4.58363">
        <ele>523</ele>
        <time>2026-05-11T07:58:38.000Z</time>
      </trkpt>
      <trkpt lat="45.29806" lon="4.5836">
        <ele>523.20001220703</ele>
        <time>2026-05-11T07:58:39.000Z</time>
      </trkpt>
      <trkpt lat="45.29807" lon="4.58358">
        <ele>523.20001220703</ele>
        <time>2026-05-11T07:58:40.000Z</time>
      </trkpt>
      <trkpt lat="45.29808" lon="4.58355">
        <ele>523.40002441406</ele>
        <time>2026-05-11T07:58:41.000Z</time>
      </trkpt>
      <trkpt lat="45.29809" lon="4.58353">
        <ele>523.40002441406</ele>
        <time>2026-05-11T07:58:42.000Z</time>
      </trkpt>
      <trkpt lat="45.29809" lon="4.58351">
        <ele>523.59997558594</ele>
        <time>2026-05-11T07:58:43.000Z</time>
      </trkpt>
      <trkpt lat="45.2981" lon="4.58348">
        <ele>523.59997558594</ele>
        <time>2026-05-11T07:58:44.000Z</time>
      </trkpt>
      <trkpt lat="45.29811" lon="4.58345">
        <ele>523.59997558594</ele>
        <time>2026-05-11T07:58:45.000Z</time>
      </trkpt>
      <trkpt lat="45.29811" lon="4.58342">
        <ele>523.79998779297</ele>
        <time>2026-05-11T07:58:46.000Z</time>
      </trkpt>
      <trkpt lat="45.29811" lon="4.5834">
        <ele>523.79998779297</ele>
        <time>2026-05-11T07:58:47.000Z</time>
      </trkpt>
      <trkpt lat="45.29812" lon="4.58338">
        <ele>524</ele>
        <time>2026-05-11T07:58:48.000Z</time>
      </trkpt>
      <trkpt lat="45.29812" lon="4.58335">
        <ele>524</ele>
        <time>2026-05-11T07:58:49.000Z</time>
      </trkpt>
      <trkpt lat="45.29812" lon="4.58333">
        <ele>524.20001220703</ele>
        <time>2026-05-11T07:58:50.000Z</time>
      </trkpt>
      <trkpt lat="45.29813" lon="4.5833">
        <ele>524.20001220703</ele>
        <time>2026-05-11T07:58:51.000Z</time>
      </trkpt>
      <trkpt lat="45.29814" lon="4.58327">
        <ele>524.40002441406</ele>
        <time>2026-05-11T07:58:52.000Z</time>
      </trkpt>
      <trkpt lat="45.29814" lon="4.58325">
        <ele>524.59997558594</ele>
        <time>2026-05-11T07:58:53.000Z</time>
      </trkpt>
      <trkpt lat="45.29815" lon="4.58323">
        <ele>524.59997558594</ele>
        <time>2026-05-11T07:58:54.000Z</time>
      </trkpt>
      <trkpt lat="45.29815" lon="4.5832">
        <ele>524.79998779297</ele>
        <time>2026-05-11T07:58:55.000Z</time>
      </trkpt>
      <trkpt lat="45.29816" lon="4.58318">
        <ele>524.79998779297</ele>
        <time>2026-05-11T07:58:56.000Z</time>
      </trkpt>
      <trkpt lat="45.29816" lon="4.58316">
        <ele>525</ele>
        <time>2026-05-11T07:58:57.000Z</time>
      </trkpt>
      <trkpt lat="45.29816" lon="4.58314">
        <ele>525</ele>
        <time>2026-05-11T07:58:58.000Z</time>
      </trkpt>
      <trkpt lat="45.29816" lon="4.58312">
        <ele>525.20001220703</ele>
        <time>2026-05-11T07:58:59.000Z</time>
      </trkpt>
      <trkpt lat="45.29817" lon="4.5831">
        <ele>525.20001220703</ele>
        <time>2026-05-11T07:59:00.000Z</time>
      </trkpt>
      <trkpt lat="45.29816" lon="4.58308">
        <ele>525.40002441406</ele>
        <time>2026-05-11T07:59:01.000Z</time>
      </trkpt>
      <trkpt lat="45.29816" lon="4.58306">
        <ele>525.40002441406</ele>
        <time>2026-05-11T07:59:02.000Z</time>
      </trkpt>
      <trkpt lat="45.29816" lon="4.58304">
        <ele>525.59997558594</ele>
        <time>2026-05-11T07:59:03.000Z</time>
      </trkpt>
      <trkpt lat="45.29815" lon="4.58302">
        <ele>525.79998779297</ele>
        <time>2026-05-11T07:59:04.000Z</time>
      </trkpt>
      <trkpt lat="45.29815" lon="4.583">
        <ele>525.79998779297</ele>
        <time>2026-05-11T07:59:05.000Z</time>
      </trkpt>
      <trkpt lat="45.29815" lon="4.58298">
        <ele>526</ele>
        <time>2026-05-11T07:59:06.000Z</time>
      </trkpt>
      <trkpt lat="45.29815" lon="4.58296">
        <ele>526</ele>
        <time>2026-05-11T07:59:07.000Z</time>
      </trkpt>
      <trkpt lat="45.29814" lon="4.58294">
        <ele>526.20001220703</ele>
        <time>2026-05-11T07:59:08.000Z</time>
      </trkpt>
      <trkpt lat="45.29814" lon="4.58291">
        <ele>526.20001220703</ele>
        <time>2026-05-11T07:59:09.000Z</time>
      </trkpt>
      <trkpt lat="45.29814" lon="4.5829">
        <ele>526.40002441406</ele>
        <time>2026-05-11T07:59:10.000Z</time>
      </trkpt>
      <trkpt lat="45.29813" lon="4.58288">
        <ele>526.59997558594</ele>
        <time>2026-05-11T07:59:11.000Z</time>
      </trkpt>
      <trkpt lat="45.29813" lon="4.58286">
        <ele>526.79998779297</ele>
        <time>2026-05-11T07:59:12.000Z</time>
      </trkpt>
      <trkpt lat="45.29812" lon="4.58284">
        <ele>527</ele>
        <time>2026-05-11T07:59:13.000Z</time>
      </trkpt>
      <trkpt lat="45.29812" lon="4.58282">
        <ele>527</ele>
        <time>2026-05-11T07:59:14.000Z</time>
      </trkpt>
      <trkpt lat="45.29811" lon="4.5828">
        <ele>527.20001220703</ele>
        <time>2026-05-11T07:59:15.000Z</time>
      </trkpt>
      <trkpt lat="45.2981" lon="4.58278">
        <ele>527.40002441406</ele>
        <time>2026-05-11T07:59:16.000Z</time>
      </trkpt>
      <trkpt lat="45.29809" lon="4.58276">
        <ele>527.59997558594</ele>
        <time>2026-05-11T07:59:17.000Z</time>
      </trkpt>
      <trkpt lat="45.29809" lon="4.58274">
        <ele>527.59997558594</ele>
        <time>2026-05-11T07:59:18.000Z</time>
      </trkpt>
      <trkpt lat="45.29808" lon="4.58274">
        <ele>527.79998779297</ele>
        <time>2026-05-11T07:59:19.000Z</time>
      </trkpt>
      <trkpt lat="45.29807" lon="4.58272">
        <ele>528</ele>
        <time>2026-05-11T07:59:20.000Z</time>
      </trkpt>
      <trkpt lat="45.29805" lon="4.58271">
        <ele>528</ele>
        <time>2026-05-11T07:59:21.000Z</time>
      </trkpt>
      <trkpt lat="45.29804" lon="4.58269">
        <ele>528.20001220703</ele>
        <time>2026-05-11T07:59:22.000Z</time>
      </trkpt>
      <trkpt lat="45.29803" lon="4.58268">
        <ele>528.20001220703</ele>
        <time>2026-05-11T07:59:23.000Z</time>
      </trkpt>
      <trkpt lat="45.29801" lon="4.58267">
        <ele>528.40002441406</ele>
        <time>2026-05-11T07:59:24.000Z</time>
      </trkpt>
      <trkpt lat="45.298" lon="4.58265">
        <ele>528.40002441406</ele>
        <time>2026-05-11T07:59:25.000Z</time>
      </trkpt>
      <trkpt lat="45.29798" lon="4.58264">
        <ele>528.59997558594</ele>
        <time>2026-05-11T07:59:26.000Z</time>
      </trkpt>
      <trkpt lat="45.29797" lon="4.58263">
        <ele>528.59997558594</ele>
        <time>2026-05-11T07:59:27.000Z</time>
      </trkpt>
      <trkpt lat="45.29796" lon="4.58261">
        <ele>528.79998779297</ele>
        <time>2026-05-11T07:59:28.000Z</time>
      </trkpt>
      <trkpt lat="45.29795" lon="4.58259">
        <ele>528.79998779297</ele>
        <time>2026-05-11T07:59:29.000Z</time>
      </trkpt>
      <trkpt lat="45.29794" lon="4.58258">
        <ele>529</ele>
        <time>2026-05-11T07:59:30.000Z</time>
      </trkpt>
      <trkpt lat="45.29792" lon="4.58256">
        <ele>529.20001220703</ele>
        <time>2026-05-11T07:59:31.000Z</time>
      </trkpt>
      <trkpt lat="45.29791" lon="4.58254">
        <ele>529.40002441406</ele>
        <time>2026-05-11T07:59:32.000Z</time>
      </trkpt>
      <trkpt lat="45.2979" lon="4.58253">
        <ele>529.59997558594</ele>
        <time>2026-05-11T07:59:33.000Z</time>
      </trkpt>
      <trkpt lat="45.29789" lon="4.58251">
        <ele>529.79998779297</ele>
        <time>2026-05-11T07:59:34.000Z</time>
      </trkpt>
      <trkpt lat="45.29788" lon="4.58249">
        <ele>530</ele>
        <time>2026-05-11T07:59:35.000Z</time>
      </trkpt>
      <trkpt lat="45.29788" lon="4.58247">
        <ele>530.20001220703</ele>
        <time>2026-05-11T07:59:36.000Z</time>
      </trkpt>
      <trkpt lat="45.29788" lon="4.58244">
        <ele>530.40002441406</ele>
        <time>2026-05-11T07:59:37.000Z</time>
      </trkpt>
      <trkpt lat="45.29788" lon="4.58242">
        <ele>530.59997558594</ele>
        <time>2026-05-11T07:59:38.000Z</time>
      </trkpt>
      <trkpt lat="45.29788" lon="4.58239">
        <ele>530.79998779297</ele>
        <time>2026-05-11T07:59:39.000Z</time>
      </trkpt>
      <trkpt lat="45.29789" lon="4.58236">
        <ele>531</ele>
        <time>2026-05-11T07:59:40.000Z</time>
      </trkpt>
      <trkpt lat="45.2979" lon="4.58234">
        <ele>531.20001220703</ele>
        <time>2026-05-11T07:59:41.000Z</time>
      </trkpt>
      <trkpt lat="45.2979" lon="4.58232">
        <ele>531.20001220703</ele>
        <time>2026-05-11T07:59:42.000Z</time>
      </trkpt>
      <trkpt lat="45.29791" lon="4.58229">
        <ele>531.40002441406</ele>
        <time>2026-05-11T07:59:43.000Z</time>
      </trkpt>
      <trkpt lat="45.29792" lon="4.58227">
        <ele>531.40002441406</ele>
        <time>2026-05-11T07:59:44.000Z</time>
      </trkpt>
      <trkpt lat="45.29792" lon="4.58225">
        <ele>531.59997558594</ele>
        <time>2026-05-11T07:59:45.000Z</time>
      </trkpt>
      <trkpt lat="45.29793" lon="4.58223">
        <ele>531.59997558594</ele>
        <time>2026-05-11T07:59:46.000Z</time>
      </trkpt>
      <trkpt lat="45.29794" lon="4.58221">
        <ele>531.79998779297</ele>
        <time>2026-05-11T07:59:47.000Z</time>
      </trkpt>
      <trkpt lat="45.29795" lon="4.5822">
        <ele>531.79998779297</ele>
        <time>2026-05-11T07:59:48.000Z</time>
      </trkpt>
      <trkpt lat="45.29795" lon="4.58218">
        <ele>531.79998779297</ele>
        <time>2026-05-11T07:59:49.000Z</time>
      </trkpt>
      <trkpt lat="45.29796" lon="4.58217">
        <ele>532</ele>
        <time>2026-05-11T07:59:50.000Z</time>
      </trkpt>
      <trkpt lat="45.29796" lon="4.58215">
        <ele>532</ele>
        <time>2026-05-11T07:59:51.000Z</time>
      </trkpt>
      <trkpt lat="45.29797" lon="4.58214">
        <ele>532.20001220703</ele>
        <time>2026-05-11T07:59:52.000Z</time>
      </trkpt>
      <trkpt lat="45.29797" lon="4.58212">
        <ele>532.40002441406</ele>
        <time>2026-05-11T07:59:53.000Z</time>
      </trkpt>
      <trkpt lat="45.29797" lon="4.5821">
        <ele>532.40002441406</ele>
        <time>2026-05-11T07:59:54.000Z</time>
      </trkpt>
      <trkpt lat="45.29798" lon="4.58208">
        <ele>532.59997558594</ele>
        <time>2026-05-11T07:59:55.000Z</time>
      </trkpt>
      <trkpt lat="45.29798" lon="4.58207">
        <ele>532.59997558594</ele>
        <time>2026-05-11T07:59:56.000Z</time>
      </trkpt>
      <trkpt lat="45.29799" lon="4.58205">
        <ele>532.79998779297</ele>
        <time>2026-05-11T07:59:57.000Z</time>
      </trkpt>
      <trkpt lat="45.29799" lon="4.58202">
        <ele>532.79998779297</ele>
        <time>2026-05-11T07:59:58.000Z</time>
      </trkpt>
      <trkpt lat="45.298" lon="4.58201">
        <ele>533</ele>
        <time>2026-05-11T07:59:59.000Z</time>
      </trkpt>
      <trkpt lat="45.298" lon="4.58199">
        <ele>533.20001220703</ele>
        <time>2026-05-11T08:00:00.000Z</time>
      </trkpt>
      <trkpt lat="45.29802" lon="4.58196">
        <ele>533.40002441406</ele>
        <time>2026-05-11T08:00:01.000Z</time>
      </trkpt>
      <trkpt lat="45.29802" lon="4.58195">
        <ele>533.40002441406</ele>
        <time>2026-05-11T08:00:02.000Z</time>
      </trkpt>
      <trkpt lat="45.29803" lon="4.58193">
        <ele>533.59997558594</ele>
        <time>2026-05-11T08:00:03.000Z</time>
      </trkpt>
      <trkpt lat="45.29803" lon="4.58191">
        <ele>533.79998779297</ele>
        <time>2026-05-11T08:00:04.000Z</time>
      </trkpt>
      <trkpt lat="45.29804" lon="4.58189">
        <ele>533.79998779297</ele>
        <time>2026-05-11T08:00:05.000Z</time>
      </trkpt>
      <trkpt lat="45.29805" lon="4.58187">
        <ele>534</ele>
        <time>2026-05-11T08:00:06.000Z</time>
      </trkpt>
      <trkpt lat="45.29806" lon="4.58184">
        <ele>534.20001220703</ele>
        <time>2026-05-11T08:00:07.000Z</time>
      </trkpt>
      <trkpt lat="45.29807" lon="4.58183">
        <ele>534.20001220703</ele>
        <time>2026-05-11T08:00:08.000Z</time>
      </trkpt>
      <trkpt lat="45.29807" lon="4.58181">
        <ele>534.40002441406</ele>
        <time>2026-05-11T08:00:09.000Z</time>
      </trkpt>
      <trkpt lat="45.29807" lon="4.58179">
        <ele>534.59997558594</ele>
        <time>2026-05-11T08:00:10.000Z</time>
      </trkpt>
      <trkpt lat="45.29808" lon="4.58177">
        <ele>534.59997558594</ele>
        <time>2026-05-11T08:00:11.000Z</time>
      </trkpt>
      <trkpt lat="45.29808" lon="4.58175">
        <ele>534.59997558594</ele>
        <time>2026-05-11T08:00:12.000Z</time>
      </trkpt>
      <trkpt lat="45.29807" lon="4.58173">
        <ele>534.79998779297</ele>
        <time>2026-05-11T08:00:13.000Z</time>
      </trkpt>
      <trkpt lat="45.29807" lon="4.58171">
        <ele>534.79998779297</ele>
        <time>2026-05-11T08:00:14.000Z</time>
      </trkpt>
      <trkpt lat="45.29807" lon="4.58169">
        <ele>534.79998779297</ele>
        <time>2026-05-11T08:00:15.000Z</time>
      </trkpt>
      <trkpt lat="45.29807" lon="4.58167">
        <ele>534.79998779297</ele>
        <time>2026-05-11T08:00:16.000Z</time>
      </trkpt>
      <trkpt lat="45.29808" lon="4.58165">
        <ele>535</ele>
        <time>2026-05-11T08:00:17.000Z</time>
      </trkpt>
      <trkpt lat="45.29807" lon="4.58162">
        <ele>535</ele>
        <time>2026-05-11T08:00:18.000Z</time>
      </trkpt>
      <trkpt lat="45.29807" lon="4.58159">
        <ele>535</ele>
        <time>2026-05-11T08:00:19.000Z</time>
      </trkpt>
      <trkpt lat="45.29807" lon="4.58156">
        <ele>535</ele>
        <time>2026-05-11T08:00:20.000Z</time>
      </trkpt>
      <trkpt lat="45.29807" lon="4.58154">
        <ele>535</ele>
        <time>2026-05-11T08:00:21.000Z</time>
      </trkpt>
      <trkpt lat="45.29808" lon="4.58152">
        <ele>535</ele>
        <time>2026-05-11T08:00:22.000Z</time>
      </trkpt>
      <trkpt lat="45.29808" lon="4.58149">
        <ele>534.79998779297</ele>
        <time>2026-05-11T08:00:23.000Z</time>
      </trkpt>
      <trkpt lat="45.29808" lon="4.58146">
        <ele>534.79998779297</ele>
        <time>2026-05-11T08:00:24.000Z</time>
      </trkpt>
      <trkpt lat="45.29808" lon="4.58144">
        <ele>534.79998779297</ele>
        <time>2026-05-11T08:00:25.000Z</time>
      </trkpt>
      <trkpt lat="45.29808" lon="4.58142">
        <ele>534.79998779297</ele>
        <time>2026-05-11T08:00:26.000Z</time>
      </trkpt>
      <trkpt lat="45.29808" lon="4.5814">
        <ele>534.79998779297</ele>
        <time>2026-05-11T08:00:27.000Z</time>
      </trkpt>
      <trkpt lat="45.29808" lon="4.58137">
        <ele>534.59997558594</ele>
        <time>2026-05-11T08:00:28.000Z</time>
      </trkpt>
      <trkpt lat="45.29807" lon="4.58134">
        <ele>534.59997558594</ele>
        <time>2026-05-11T08:00:29.000Z</time>
      </trkpt>
      <trkpt lat="45.29807" lon="4.58131">
        <ele>534.59997558594</ele>
        <time>2026-05-11T08:00:30.000Z</time>
      </trkpt>
      <trkpt lat="45.29807" lon="4.58127">
        <ele>534.59997558594</ele>
        <time>2026-05-11T08:00:31.000Z</time>
      </trkpt>
      <trkpt lat="45.29807" lon="4.58123">
        <ele>534.59997558594</ele>
        <time>2026-05-11T08:00:32.000Z</time>
      </trkpt>
      <trkpt lat="45.29808" lon="4.5812">
        <ele>534.59997558594</ele>
        <time>2026-05-11T08:00:33.000Z</time>
      </trkpt>
      <trkpt lat="45.29808" lon="4.58117">
        <ele>534.59997558594</ele>
        <time>2026-05-11T08:00:34.000Z</time>
      </trkpt>
      <trkpt lat="45.29808" lon="4.58115">
        <ele>534.59997558594</ele>
        <time>2026-05-11T08:00:35.000Z</time>
      </trkpt>
      <trkpt lat="45.29809" lon="4.58112">
        <ele>534.59997558594</ele>
        <time>2026-05-11T08:00:36.000Z</time>
      </trkpt>
      <trkpt lat="45.29809" lon="4.58109">
        <ele>534.59997558594</ele>
        <time>2026-05-11T08:00:37.000Z</time>
      </trkpt>
      <trkpt lat="45.29809" lon="4.58107">
        <ele>534.59997558594</ele>
        <time>2026-05-11T08:00:38.000Z</time>
      </trkpt>
      <trkpt lat="45.29809" lon="4.58104">
        <ele>534.79998779297</ele>
        <time>2026-05-11T08:00:39.000Z</time>
      </trkpt>
      <trkpt lat="45.29809" lon="4.58101">
        <ele>534.79998779297</ele>
        <time>2026-05-11T08:00:40.000Z</time>
      </trkpt>
      <trkpt lat="45.29809" lon="4.58099">
        <ele>534.79998779297</ele>
        <time>2026-05-11T08:00:41.000Z</time>
      </trkpt>
      <trkpt lat="45.29809" lon="4.58097">
        <ele>535</ele>
        <time>2026-05-11T08:00:42.000Z</time>
      </trkpt>
      <trkpt lat="45.2981" lon="4.58095">
        <ele>535</ele>
        <time>2026-05-11T08:00:43.000Z</time>
      </trkpt>
      <trkpt lat="45.2981" lon="4.58093">
        <ele>535.20001220703</ele>
        <time>2026-05-11T08:00:44.000Z</time>
      </trkpt>
      <trkpt lat="45.2981" lon="4.5809">
        <ele>535.20001220703</ele>
        <time>2026-05-11T08:00:45.000Z</time>
      </trkpt>
      <trkpt lat="45.2981" lon="4.58087">
        <ele>535.20001220703</ele>
        <time>2026-05-11T08:00:46.000Z</time>
      </trkpt>
      <trkpt lat="45.2981" lon="4.58085">
        <ele>535.40002441406</ele>
        <time>2026-05-11T08:00:47.000Z</time>
      </trkpt>
      <trkpt lat="45.2981" lon="4.58082">
        <ele>535.40002441406</ele>
        <time>2026-05-11T08:00:48.000Z</time>
      </trkpt>
      <trkpt lat="45.2981" lon="4.58078">
        <ele>535.59997558594</ele>
        <time>2026-05-11T08:00:49.000Z</time>
      </trkpt>
      <trkpt lat="45.2981" lon="4.58076">
        <ele>535.59997558594</ele>
        <time>2026-05-11T08:00:50.000Z</time>
      </trkpt>
      <trkpt lat="45.2981" lon="4.58074">
        <ele>535.59997558594</ele>
        <time>2026-05-11T08:00:51.000Z</time>
      </trkpt>
      <trkpt lat="45.2981" lon="4.58071">
        <ele>535.79998779297</ele>
        <time>2026-05-11T08:00:52.000Z</time>
      </trkpt>
      <trkpt lat="45.29811" lon="4.58069">
        <ele>535.79998779297</ele>
        <time>2026-05-11T08:00:53.000Z</time>
      </trkpt>
      <trkpt lat="45.29811" lon="4.58067">
        <ele>536</ele>
        <time>2026-05-11T08:00:54.000Z</time>
      </trkpt>
      <trkpt lat="45.29811" lon="4.58064">
        <ele>536</ele>
        <time>2026-05-11T08:00:55.000Z</time>
      </trkpt>
      <trkpt lat="45.29811" lon="4.58061">
        <ele>536.20001220703</ele>
        <time>2026-05-11T08:00:56.000Z</time>
      </trkpt>
      <trkpt lat="45.29811" lon="4.58058">
        <ele>536.20001220703</ele>
        <time>2026-05-11T08:00:57.000Z</time>
      </trkpt>
      <trkpt lat="45.29811" lon="4.58055">
        <ele>536.40002441406</ele>
        <time>2026-05-11T08:00:58.000Z</time>
      </trkpt>
      <trkpt lat="45.29811" lon="4.58052">
        <ele>536.40002441406</ele>
        <time>2026-05-11T08:00:59.000Z</time>
      </trkpt>
      <trkpt lat="45.29811" lon="4.5805">
        <ele>536.40002441406</ele>
        <time>2026-05-11T08:01:00.000Z</time>
      </trkpt>
      <trkpt lat="45.29811" lon="4.58048">
        <ele>536.59997558594</ele>
        <time>2026-05-11T08:01:01.000Z</time>
      </trkpt>
      <trkpt lat="45.29811" lon="4.58046">
        <ele>536.59997558594</ele>
        <time>2026-05-11T08:01:02.000Z</time>
      </trkpt>
      <trkpt lat="45.29811" lon="4.58042">
        <ele>536.59997558594</ele>
        <time>2026-05-11T08:01:03.000Z</time>
      </trkpt>
      <trkpt lat="45.29811" lon="4.5804">
        <ele>536.79998779297</ele>
        <time>2026-05-11T08:01:04.000Z</time>
      </trkpt>
      <trkpt lat="45.29811" lon="4.58038">
        <ele>536.79998779297</ele>
        <time>2026-05-11T08:01:05.000Z</time>
      </trkpt>
      <trkpt lat="45.29811" lon="4.58036">
        <ele>536.79998779297</ele>
        <time>2026-05-11T08:01:06.000Z</time>
      </trkpt>
      <trkpt lat="45.2981" lon="4.58032">
        <ele>536.79998779297</ele>
        <time>2026-05-11T08:01:07.000Z</time>
      </trkpt>
      <trkpt lat="45.29811" lon="4.5803">
        <ele>536.79998779297</ele>
        <time>2026-05-11T08:01:08.000Z</time>
      </trkpt>
      <trkpt lat="45.2981" lon="4.58026">
        <ele>536.79998779297</ele>
        <time>2026-05-11T08:01:09.000Z</time>
      </trkpt>
      <trkpt lat="45.2981" lon="4.58024">
        <ele>536.79998779297</ele>
        <time>2026-05-11T08:01:10.000Z</time>
      </trkpt>
      <trkpt lat="45.2981" lon="4.58021">
        <ele>536.79998779297</ele>
        <time>2026-05-11T08:01:11.000Z</time>
      </trkpt>
      <trkpt lat="45.29809" lon="4.58019">
        <ele>536.79998779297</ele>
        <time>2026-05-11T08:01:12.000Z</time>
      </trkpt>
      <trkpt lat="45.29808" lon="4.58016">
        <ele>536.79998779297</ele>
        <time>2026-05-11T08:01:13.000Z</time>
      </trkpt>
      <trkpt lat="45.29808" lon="4.58013">
        <ele>536.79998779297</ele>
        <time>2026-05-11T08:01:14.000Z</time>
      </trkpt>
      <trkpt lat="45.29808" lon="4.58011">
        <ele>536.79998779297</ele>
        <time>2026-05-11T08:01:15.000Z</time>
      </trkpt>
      <trkpt lat="45.29809" lon="4.58008">
        <ele>536.79998779297</ele>
        <time>2026-05-11T08:01:16.000Z</time>
      </trkpt>
      <trkpt lat="45.29809" lon="4.58005">
        <ele>536.79998779297</ele>
        <time>2026-05-11T08:01:17.000Z</time>
      </trkpt>
      <trkpt lat="45.29809" lon="4.58002">
        <ele>536.79998779297</ele>
        <time>2026-05-11T08:01:18.000Z</time>
      </trkpt>
      <trkpt lat="45.2981" lon="4.57999">
        <ele>537</ele>
        <time>2026-05-11T08:01:19.000Z</time>
      </trkpt>
      <trkpt lat="45.2981" lon="4.57996">
        <ele>537</ele>
        <time>2026-05-11T08:01:20.000Z</time>
      </trkpt>
      <trkpt lat="45.2981" lon="4.57993">
        <ele>537</ele>
        <time>2026-05-11T08:01:21.000Z</time>
      </trkpt>
      <trkpt lat="45.29809" lon="4.5799">
        <ele>537</ele>
        <time>2026-05-11T08:01:22.000Z</time>
      </trkpt>
      <trkpt lat="45.29809" lon="4.57987">
        <ele>537</ele>
        <time>2026-05-11T08:01:23.000Z</time>
      </trkpt>
      <trkpt lat="45.29809" lon="4.57985">
        <ele>537</ele>
        <time>2026-05-11T08:01:24.000Z</time>
      </trkpt>
      <trkpt lat="45.29809" lon="4.57982">
        <ele>537</ele>
        <time>2026-05-11T08:01:25.000Z</time>
      </trkpt>
      <trkpt lat="45.29808" lon="4.57979">
        <ele>537</ele>
        <time>2026-05-11T08:01:26.000Z</time>
      </trkpt>
      <trkpt lat="45.29808" lon="4.57975">
        <ele>537</ele>
        <time>2026-05-11T08:01:27.000Z</time>
      </trkpt>
      <trkpt lat="45.29808" lon="4.57972">
        <ele>537</ele>
        <time>2026-05-11T08:01:28.000Z</time>
      </trkpt>
      <trkpt lat="45.29808" lon="4.57969">
        <ele>537</ele>
        <time>2026-05-11T08:01:29.000Z</time>
      </trkpt>
      <trkpt lat="45.29808" lon="4.57966">
        <ele>537</ele>
        <time>2026-05-11T08:01:30.000Z</time>
      </trkpt>
      <trkpt lat="45.29808" lon="4.57964">
        <ele>537</ele>
        <time>2026-05-11T08:01:31.000Z</time>
      </trkpt>
      <trkpt lat="45.29808" lon="4.57961">
        <ele>537.20001220703</ele>
        <time>2026-05-11T08:01:32.000Z</time>
      </trkpt>
      <trkpt lat="45.29808" lon="4.57958">
        <ele>537.20001220703</ele>
        <time>2026-05-11T08:01:33.000Z</time>
      </trkpt>
      <trkpt lat="45.29808" lon="4.57955">
        <ele>537.20001220703</ele>
        <time>2026-05-11T08:01:34.000Z</time>
      </trkpt>
      <trkpt lat="45.29807" lon="4.57952">
        <ele>537.40002441406</ele>
        <time>2026-05-11T08:01:35.000Z</time>
      </trkpt>
      <trkpt lat="45.29807" lon="4.57949">
        <ele>537.40002441406</ele>
        <time>2026-05-11T08:01:36.000Z</time>
      </trkpt>
      <trkpt lat="45.29807" lon="4.57946">
        <ele>537.40002441406</ele>
        <time>2026-05-11T08:01:37.000Z</time>
      </trkpt>
      <trkpt lat="45.29806" lon="4.57943">
        <ele>537.59997558594</ele>
        <time>2026-05-11T08:01:38.000Z</time>
      </trkpt>
      <trkpt lat="45.29806" lon="4.5794">
        <ele>537.59997558594</ele>
        <time>2026-05-11T08:01:39.000Z</time>
      </trkpt>
      <trkpt lat="45.29805" lon="4.57937">
        <ele>537.59997558594</ele>
        <time>2026-05-11T08:01:40.000Z</time>
      </trkpt>
      <trkpt lat="45.29804" lon="4.57934">
        <ele>537.59997558594</ele>
        <time>2026-05-11T08:01:41.000Z</time>
      </trkpt>
      <trkpt lat="45.29804" lon="4.57931">
        <ele>537.59997558594</ele>
        <time>2026-05-11T08:01:42.000Z</time>
      </trkpt>
      <trkpt lat="45.29803" lon="4.57928">
        <ele>537.59997558594</ele>
        <time>2026-05-11T08:01:43.000Z</time>
      </trkpt>
      <trkpt lat="45.29802" lon="4.57926">
        <ele>537.59997558594</ele>
        <time>2026-05-11T08:01:44.000Z</time>
      </trkpt>
      <trkpt lat="45.29801" lon="4.57923">
        <ele>537.59997558594</ele>
        <time>2026-05-11T08:01:45.000Z</time>
      </trkpt>
      <trkpt lat="45.298" lon="4.5792">
        <ele>537.59997558594</ele>
        <time>2026-05-11T08:01:46.000Z</time>
      </trkpt>
      <trkpt lat="45.298" lon="4.57918">
        <ele>537.59997558594</ele>
        <time>2026-05-11T08:01:47.000Z</time>
      </trkpt>
      <trkpt lat="45.29799" lon="4.57915">
        <ele>537.59997558594</ele>
        <time>2026-05-11T08:01:48.000Z</time>
      </trkpt>
      <trkpt lat="45.29799" lon="4.57913">
        <ele>537.59997558594</ele>
        <time>2026-05-11T08:01:49.000Z</time>
      </trkpt>
      <trkpt lat="45.29798" lon="4.5791">
        <ele>537.59997558594</ele>
        <time>2026-05-11T08:01:50.000Z</time>
      </trkpt>
      <trkpt lat="45.29798" lon="4.57907">
        <ele>537.59997558594</ele>
        <time>2026-05-11T08:01:51.000Z</time>
      </trkpt>
      <trkpt lat="45.29797" lon="4.57905">
        <ele>537.79998779297</ele>
        <time>2026-05-11T08:01:52.000Z</time>
      </trkpt>
      <trkpt lat="45.29796" lon="4.57902">
        <ele>537.79998779297</ele>
        <time>2026-05-11T08:01:53.000Z</time>
      </trkpt>
      <trkpt lat="45.29796" lon="4.57899">
        <ele>537.79998779297</ele>
        <time>2026-05-11T08:01:54.000Z</time>
      </trkpt>
      <trkpt lat="45.29795" lon="4.57896">
        <ele>537.79998779297</ele>
        <time>2026-05-11T08:01:55.000Z</time>
      </trkpt>
      <trkpt lat="45.29794" lon="4.57893">
        <ele>537.79998779297</ele>
        <time>2026-05-11T08:01:56.000Z</time>
      </trkpt>
      <trkpt lat="45.29793" lon="4.5789">
        <ele>537.79998779297</ele>
        <time>2026-05-11T08:01:57.000Z</time>
      </trkpt>
      <trkpt lat="45.29793" lon="4.57887">
        <ele>537.59997558594</ele>
        <time>2026-05-11T08:01:58.000Z</time>
      </trkpt>
      <trkpt lat="45.29792" lon="4.57883">
        <ele>537.59997558594</ele>
        <time>2026-05-11T08:01:59.000Z</time>
      </trkpt>
      <trkpt lat="45.29792" lon="4.57881">
        <ele>537.59997558594</ele>
        <time>2026-05-11T08:02:00.000Z</time>
      </trkpt>
      <trkpt lat="45.29792" lon="4.57878">
        <ele>537.79998779297</ele>
        <time>2026-05-11T08:02:01.000Z</time>
      </trkpt>
      <trkpt lat="45.29792" lon="4.57875">
        <ele>537.79998779297</ele>
        <time>2026-05-11T08:02:02.000Z</time>
      </trkpt>
      <trkpt lat="45.29791" lon="4.57872">
        <ele>537.79998779297</ele>
        <time>2026-05-11T08:02:03.000Z</time>
      </trkpt>
      <trkpt lat="45.29791" lon="4.5787">
        <ele>537.79998779297</ele>
        <time>2026-05-11T08:02:04.000Z</time>
      </trkpt>
      <trkpt lat="45.2979" lon="4.57868">
        <ele>537.79998779297</ele>
        <time>2026-05-11T08:02:05.000Z</time>
      </trkpt>
      <trkpt lat="45.2979" lon="4.57865">
        <ele>537.79998779297</ele>
        <time>2026-05-11T08:02:06.000Z</time>
      </trkpt>
      <trkpt lat="45.29789" lon="4.57863">
        <ele>537.79998779297</ele>
        <time>2026-05-11T08:02:07.000Z</time>
      </trkpt>
      <trkpt lat="45.29789" lon="4.5786">
        <ele>538</ele>
        <time>2026-05-11T08:02:08.000Z</time>
      </trkpt>
      <trkpt lat="45.29789" lon="4.57857">
        <ele>538</ele>
        <time>2026-05-11T08:02:09.000Z</time>
      </trkpt>
      <trkpt lat="45.29788" lon="4.57854">
        <ele>538.20001220703</ele>
        <time>2026-05-11T08:02:10.000Z</time>
      </trkpt>
      <trkpt lat="45.29788" lon="4.57851">
        <ele>538.20001220703</ele>
        <time>2026-05-11T08:02:11.000Z</time>
      </trkpt>
      <trkpt lat="45.29788" lon="4.57848">
        <ele>538.20001220703</ele>
        <time>2026-05-11T08:02:12.000Z</time>
      </trkpt>
      <trkpt lat="45.29787" lon="4.57845">
        <ele>538.40002441406</ele>
        <time>2026-05-11T08:02:13.000Z</time>
      </trkpt>
      <trkpt lat="45.29787" lon="4.57842">
        <ele>538.40002441406</ele>
        <time>2026-05-11T08:02:14.000Z</time>
      </trkpt>
      <trkpt lat="45.29786" lon="4.57838">
        <ele>538.40002441406</ele>
        <time>2026-05-11T08:02:15.000Z</time>
      </trkpt>
      <trkpt lat="45.29786" lon="4.57836">
        <ele>538.59997558594</ele>
        <time>2026-05-11T08:02:16.000Z</time>
      </trkpt>
      <trkpt lat="45.29785" lon="4.57833">
        <ele>538.59997558594</ele>
        <time>2026-05-11T08:02:17.000Z</time>
      </trkpt>
      <trkpt lat="45.29784" lon="4.5783">
        <ele>538.59997558594</ele>
        <time>2026-05-11T08:02:18.000Z</time>
      </trkpt>
      <trkpt lat="45.29784" lon="4.57827">
        <ele>538.79998779297</ele>
        <time>2026-05-11T08:02:19.000Z</time>
      </trkpt>
      <trkpt lat="45.29783" lon="4.57824">
        <ele>538.79998779297</ele>
        <time>2026-05-11T08:02:20.000Z</time>
      </trkpt>
      <trkpt lat="45.29783" lon="4.57821">
        <ele>538.79998779297</ele>
        <time>2026-05-11T08:02:21.000Z</time>
      </trkpt>
      <trkpt lat="45.29783" lon="4.57818">
        <ele>538.79998779297</ele>
        <time>2026-05-11T08:02:22.000Z</time>
      </trkpt>
      <trkpt lat="45.29782" lon="4.57815">
        <ele>539</ele>
        <time>2026-05-11T08:02:23.000Z</time>
      </trkpt>
      <trkpt lat="45.29781" lon="4.57812">
        <ele>539</ele>
        <time>2026-05-11T08:02:24.000Z</time>
      </trkpt>
      <trkpt lat="45.29781" lon="4.57809">
        <ele>539</ele>
        <time>2026-05-11T08:02:25.000Z</time>
      </trkpt>
      <trkpt lat="45.2978" lon="4.57806">
        <ele>539.20001220703</ele>
        <time>2026-05-11T08:02:26.000Z</time>
      </trkpt>
      <trkpt lat="45.2978" lon="4.57803">
        <ele>539.20001220703</ele>
        <time>2026-05-11T08:02:27.000Z</time>
      </trkpt>
      <trkpt lat="45.2978" lon="4.578">
        <ele>539.20001220703</ele>
        <time>2026-05-11T08:02:28.000Z</time>
      </trkpt>
      <trkpt lat="45.2978" lon="4.57798">
        <ele>539.40002441406</ele>
        <time>2026-05-11T08:02:29.000Z</time>
      </trkpt>
      <trkpt lat="45.2978" lon="4.57795">
        <ele>539.40002441406</ele>
        <time>2026-05-11T08:02:30.000Z</time>
      </trkpt>
      <trkpt lat="45.2978" lon="4.57792">
        <ele>539.40002441406</ele>
        <time>2026-05-11T08:02:31.000Z</time>
      </trkpt>
      <trkpt lat="45.2978" lon="4.57789">
        <ele>539.59997558594</ele>
        <time>2026-05-11T08:02:32.000Z</time>
      </trkpt>
      <trkpt lat="45.29779" lon="4.57786">
        <ele>539.59997558594</ele>
        <time>2026-05-11T08:02:33.000Z</time>
      </trkpt>
      <trkpt lat="45.29779" lon="4.57783">
        <ele>539.59997558594</ele>
        <time>2026-05-11T08:02:34.000Z</time>
      </trkpt>
      <trkpt lat="45.29779" lon="4.5778">
        <ele>539.79998779297</ele>
        <time>2026-05-11T08:02:35.000Z</time>
      </trkpt>
      <trkpt lat="45.29779" lon="4.57777">
        <ele>539.79998779297</ele>
        <time>2026-05-11T08:02:36.000Z</time>
      </trkpt>
      <trkpt lat="45.29778" lon="4.57775">
        <ele>539.79998779297</ele>
        <time>2026-05-11T08:02:37.000Z</time>
      </trkpt>
      <trkpt lat="45.29778" lon="4.57772">
        <ele>540</ele>
        <time>2026-05-11T08:02:38.000Z</time>
      </trkpt>
      <trkpt lat="45.29778" lon="4.57769">
        <ele>540</ele>
        <time>2026-05-11T08:02:39.000Z</time>
      </trkpt>
      <trkpt lat="45.29778" lon="4.57766">
        <ele>540</ele>
        <time>2026-05-11T08:02:40.000Z</time>
      </trkpt>
      <trkpt lat="45.29777" lon="4.57763">
        <ele>540.20001220703</ele>
        <time>2026-05-11T08:02:41.000Z</time>
      </trkpt>
      <trkpt lat="45.29777" lon="4.57761">
        <ele>540.20001220703</ele>
        <time>2026-05-11T08:02:42.000Z</time>
      </trkpt>
      <trkpt lat="45.29776" lon="4.57758">
        <ele>540.20001220703</ele>
        <time>2026-05-11T08:02:43.000Z</time>
      </trkpt>
      <trkpt lat="45.29776" lon="4.57755">
        <ele>540.40002441406</ele>
        <time>2026-05-11T08:02:44.000Z</time>
      </trkpt>
      <trkpt lat="45.29775" lon="4.57753">
        <ele>540.40002441406</ele>
        <time>2026-05-11T08:02:45.000Z</time>
      </trkpt>
      <trkpt lat="45.29775" lon="4.5775">
        <ele>540.40002441406</ele>
        <time>2026-05-11T08:02:46.000Z</time>
      </trkpt>
      <trkpt lat="45.29775" lon="4.57747">
        <ele>540.59997558594</ele>
        <time>2026-05-11T08:02:47.000Z</time>
      </trkpt>
      <trkpt lat="45.29774" lon="4.57744">
        <ele>540.59997558594</ele>
        <time>2026-05-11T08:02:48.000Z</time>
      </trkpt>
      <trkpt lat="45.29774" lon="4.57742">
        <ele>540.79998779297</ele>
        <time>2026-05-11T08:02:49.000Z</time>
      </trkpt>
      <trkpt lat="45.29774" lon="4.5774">
        <ele>541</ele>
        <time>2026-05-11T08:02:50.000Z</time>
      </trkpt>
      <trkpt lat="45.29774" lon="4.57737">
        <ele>541</ele>
        <time>2026-05-11T08:02:51.000Z</time>
      </trkpt>
      <trkpt lat="45.29774" lon="4.57735">
        <ele>541.20001220703</ele>
        <time>2026-05-11T08:02:52.000Z</time>
      </trkpt>
      <trkpt lat="45.29773" lon="4.57733">
        <ele>541.20001220703</ele>
        <time>2026-05-11T08:02:53.000Z</time>
      </trkpt>
      <trkpt lat="45.29773" lon="4.57731">
        <ele>541.40002441406</ele>
        <time>2026-05-11T08:02:54.000Z</time>
      </trkpt>
      <trkpt lat="45.29773" lon="4.57729">
        <ele>541.40002441406</ele>
        <time>2026-05-11T08:02:55.000Z</time>
      </trkpt>
      <trkpt lat="45.29772" lon="4.57727">
        <ele>541.40002441406</ele>
        <time>2026-05-11T08:02:56.000Z</time>
      </trkpt>
      <trkpt lat="45.29772" lon="4.57724">
        <ele>541.40002441406</ele>
        <time>2026-05-11T08:02:57.000Z</time>
      </trkpt>
      <trkpt lat="45.29772" lon="4.57722">
        <ele>541.40002441406</ele>
        <time>2026-05-11T08:02:58.000Z</time>
      </trkpt>
      <trkpt lat="45.29772" lon="4.5772">
        <ele>541.40002441406</ele>
        <time>2026-05-11T08:02:59.000Z</time>
      </trkpt>
      <trkpt lat="45.29772" lon="4.57716">
        <ele>541.20001220703</ele>
        <time>2026-05-11T08:03:00.000Z</time>
      </trkpt>
      <trkpt lat="45.29771" lon="4.57712">
        <ele>541.20001220703</ele>
        <time>2026-05-11T08:03:01.000Z</time>
      </trkpt>
      <trkpt lat="45.29771" lon="4.57709">
        <ele>541.20001220703</ele>
        <time>2026-05-11T08:03:02.000Z</time>
      </trkpt>
      <trkpt lat="45.2977" lon="4.57705">
        <ele>541</ele>
        <time>2026-05-11T08:03:03.000Z</time>
      </trkpt>
      <trkpt lat="45.29769" lon="4.57703">
        <ele>541</ele>
        <time>2026-05-11T08:03:04.000Z</time>
      </trkpt>
      <trkpt lat="45.29769" lon="4.57699">
        <ele>541</ele>
        <time>2026-05-11T08:03:05.000Z</time>
      </trkpt>
      <trkpt lat="45.29768" lon="4.57695">
        <ele>540.79998779297</ele>
        <time>2026-05-11T08:03:06.000Z</time>
      </trkpt>
      <trkpt lat="45.29767" lon="4.57691">
        <ele>540.59997558594</ele>
        <time>2026-05-11T08:03:07.000Z</time>
      </trkpt>
      <trkpt lat="45.29767" lon="4.57686">
        <ele>540.40002441406</ele>
        <time>2026-05-11T08:03:08.000Z</time>
      </trkpt>
      <trkpt lat="45.29766" lon="4.57681">
        <ele>540.20001220703</ele>
        <time>2026-05-11T08:03:09.000Z</time>
      </trkpt>
      <trkpt lat="45.29765" lon="4.57676">
        <ele>540</ele>
        <time>2026-05-11T08:03:10.000Z</time>
      </trkpt>
      <trkpt lat="45.29764" lon="4.5767">
        <ele>539.59997558594</ele>
        <time>2026-05-11T08:03:11.000Z</time>
      </trkpt>
      <trkpt lat="45.29764" lon="4.57663">
        <ele>539.20001220703</ele>
        <time>2026-05-11T08:03:12.000Z</time>
      </trkpt>
      <trkpt lat="45.29763" lon="4.57655">
        <ele>538.79998779297</ele>
        <time>2026-05-11T08:03:13.000Z</time>
      </trkpt>
      <trkpt lat="45.29763" lon="4.57648">
        <ele>538.40002441406</ele>
        <time>2026-05-11T08:03:14.000Z</time>
      </trkpt>
      <trkpt lat="45.29763" lon="4.57642">
        <ele>538.20001220703</ele>
        <time>2026-05-11T08:03:15.000Z</time>
      </trkpt>
      <trkpt lat="45.29762" lon="4.57636">
        <ele>537.79998779297</ele>
        <time>2026-05-11T08:03:16.000Z</time>
      </trkpt>
      <trkpt lat="45.29762" lon="4.5763">
        <ele>537.59997558594</ele>
        <time>2026-05-11T08:03:17.000Z</time>
      </trkpt>
      <trkpt lat="45.29761" lon="4.57625">
        <ele>537.40002441406</ele>
        <time>2026-05-11T08:03:18.000Z</time>
      </trkpt>
      <trkpt lat="45.2976" lon="4.57619">
        <ele>537.20001220703</ele>
        <time>2026-05-11T08:03:19.000Z</time>
      </trkpt>
      <trkpt lat="45.29759" lon="4.57612">
        <ele>537</ele>
        <time>2026-05-11T08:03:20.000Z</time>
      </trkpt>
      <trkpt lat="45.29758" lon="4.57606">
        <ele>537</ele>
        <time>2026-05-11T08:03:21.000Z</time>
      </trkpt>
      <trkpt lat="45.29758" lon="4.576">
        <ele>536.79998779297</ele>
        <time>2026-05-11T08:03:22.000Z</time>
      </trkpt>
      <trkpt lat="45.29757" lon="4.57594">
        <ele>536.59997558594</ele>
        <time>2026-05-11T08:03:23.000Z</time>
      </trkpt>
      <trkpt lat="45.29756" lon="4.57589">
        <ele>536.40002441406</ele>
        <time>2026-05-11T08:03:24.000Z</time>
      </trkpt>
      <trkpt lat="45.29756" lon="4.57584">
        <ele>536.40002441406</ele>
        <time>2026-05-11T08:03:25.000Z</time>
      </trkpt>
      <trkpt lat="45.29755" lon="4.5758">
        <ele>536.20001220703</ele>
        <time>2026-05-11T08:03:26.000Z</time>
      </trkpt>
      <trkpt lat="45.29754" lon="4.57578">
        <ele>536</ele>
        <time>2026-05-11T08:03:27.000Z</time>
      </trkpt>
      <trkpt lat="45.29753" lon="4.57575">
        <ele>536</ele>
        <time>2026-05-11T08:03:28.000Z</time>
      </trkpt>
      <trkpt lat="45.29753" lon="4.57573">
        <ele>535.79998779297</ele>
        <time>2026-05-11T08:03:29.000Z</time>
      </trkpt>
      <trkpt lat="45.29752" lon="4.57571">
        <ele>535.79998779297</ele>
        <time>2026-05-11T08:03:30.000Z</time>
      </trkpt>
      <trkpt lat="45.29752" lon="4.57568">
        <ele>535.79998779297</ele>
        <time>2026-05-11T08:03:31.000Z</time>
      </trkpt>
      <trkpt lat="45.29751" lon="4.57566">
        <ele>535.59997558594</ele>
        <time>2026-05-11T08:03:32.000Z</time>
      </trkpt>
      <trkpt lat="45.29751" lon="4.57566">
        <ele>535.40002441406</ele>
        <time>2026-05-11T08:03:33.000Z</time>
      </trkpt>
      <trkpt lat="45.29752" lon="4.57566">
        <ele>535.40002441406</ele>
        <time>2026-05-11T08:03:34.000Z</time>
      </trkpt>
      <trkpt lat="45.29746" lon="4.57505">
        <ele>526.40002441406</ele>
        <time>2026-05-11T08:04:48.000Z</time>
      </trkpt>
      <trkpt lat="45.29746" lon="4.57502">
        <ele>526.20001220703</ele>
        <time>2026-05-11T08:04:49.000Z</time>
      </trkpt>
      <trkpt lat="45.29745" lon="4.57499">
        <ele>526.20001220703</ele>
        <time>2026-05-11T08:04:50.000Z</time>
      </trkpt>
      <trkpt lat="45.29745" lon="4.57496">
        <ele>526</ele>
        <time>2026-05-11T08:04:51.000Z</time>
      </trkpt>
      <trkpt lat="45.29744" lon="4.57494">
        <ele>526</ele>
        <time>2026-05-11T08:04:52.000Z</time>
      </trkpt>
      <trkpt lat="45.29743" lon="4.57491">
        <ele>526</ele>
        <time>2026-05-11T08:04:53.000Z</time>
      </trkpt>
      <trkpt lat="45.29743" lon="4.57488">
        <ele>526</ele>
        <time>2026-05-11T08:04:54.000Z</time>
      </trkpt>
      <trkpt lat="45.29742" lon="4.57486">
        <ele>526</ele>
        <time>2026-05-11T08:04:55.000Z</time>
      </trkpt>
      <trkpt lat="45.29741" lon="4.57483">
        <ele>525.79998779297</ele>
        <time>2026-05-11T08:04:56.000Z</time>
      </trkpt>
      <trkpt lat="45.2974" lon="4.5748">
        <ele>525.79998779297</ele>
        <time>2026-05-11T08:04:57.000Z</time>
      </trkpt>
      <trkpt lat="45.29739" lon="4.57478">
        <ele>526</ele>
        <time>2026-05-11T08:04:58.000Z</time>
      </trkpt>
      <trkpt lat="45.29738" lon="4.57475">
        <ele>526</ele>
        <time>2026-05-11T08:04:59.000Z</time>
      </trkpt>
      <trkpt lat="45.29737" lon="4.57471">
        <ele>526</ele>
        <time>2026-05-11T08:05:00.000Z</time>
      </trkpt>
      <trkpt lat="45.29736" lon="4.57468">
        <ele>526</ele>
        <time>2026-05-11T08:05:01.000Z</time>
      </trkpt>
      <trkpt lat="45.29735" lon="4.57465">
        <ele>526</ele>
        <time>2026-05-11T08:05:02.000Z</time>
      </trkpt>
      <trkpt lat="45.29734" lon="4.57462">
        <ele>526</ele>
        <time>2026-05-11T08:05:03.000Z</time>
      </trkpt>
      <trkpt lat="45.29734" lon="4.57459">
        <ele>526</ele>
        <time>2026-05-11T08:05:04.000Z</time>
      </trkpt>
      <trkpt lat="45.29733" lon="4.57456">
        <ele>526</ele>
        <time>2026-05-11T08:05:05.000Z</time>
      </trkpt>
      <trkpt lat="45.29733" lon="4.57452">
        <ele>526</ele>
        <time>2026-05-11T08:05:06.000Z</time>
      </trkpt>
      <trkpt lat="45.29733" lon="4.57448">
        <ele>526</ele>
        <time>2026-05-11T08:05:07.000Z</time>
      </trkpt>
      <trkpt lat="45.29733" lon="4.57443">
        <ele>526</ele>
        <time>2026-05-11T08:05:08.000Z</time>
      </trkpt>
      <trkpt lat="45.29732" lon="4.57438">
        <ele>525.79998779297</ele>
        <time>2026-05-11T08:05:09.000Z</time>
      </trkpt>
      <trkpt lat="45.29732" lon="4.57432">
        <ele>525.40002441406</ele>
        <time>2026-05-11T08:05:10.000Z</time>
      </trkpt>
      <trkpt lat="45.29731" lon="4.57425">
        <ele>525.20001220703</ele>
        <time>2026-05-11T08:05:11.000Z</time>
      </trkpt>
      <trkpt lat="45.2973" lon="4.57417">
        <ele>524.79998779297</ele>
        <time>2026-05-11T08:05:12.000Z</time>
      </trkpt>
      <trkpt lat="45.29729" lon="4.57409">
        <ele>524.40002441406</ele>
        <time>2026-05-11T08:05:13.000Z</time>
      </trkpt>
      <trkpt lat="45.29727" lon="4.57401">
        <ele>523.79998779297</ele>
        <time>2026-05-11T08:05:14.000Z</time>
      </trkpt>
      <trkpt lat="45.29726" lon="4.57393">
        <ele>523.40002441406</ele>
        <time>2026-05-11T08:05:15.000Z</time>
      </trkpt>
      <trkpt lat="45.29724" lon="4.57386">
        <ele>523.20001220703</ele>
        <time>2026-05-11T08:05:16.000Z</time>
      </trkpt>
      <trkpt lat="45.29723" lon="4.57379">
        <ele>522.79998779297</ele>
        <time>2026-05-11T08:05:17.000Z</time>
      </trkpt>
      <trkpt lat="45.29721" lon="4.57373">
        <ele>522.79998779297</ele>
        <time>2026-05-11T08:05:18.000Z</time>
      </trkpt>
      <trkpt lat="45.2972" lon="4.57368">
        <ele>522.59997558594</ele>
        <time>2026-05-11T08:05:19.000Z</time>
      </trkpt>
      <trkpt lat="45.29719" lon="4.57364">
        <ele>522.59997558594</ele>
        <time>2026-05-11T08:05:20.000Z</time>
      </trkpt>
      <trkpt lat="45.29717" lon="4.5736">
        <ele>522.59997558594</ele>
        <time>2026-05-11T08:05:21.000Z</time>
      </trkpt>
      <trkpt lat="45.29716" lon="4.57356">
        <ele>522.59997558594</ele>
        <time>2026-05-11T08:05:22.000Z</time>
      </trkpt>
      <trkpt lat="45.29715" lon="4.57352">
        <ele>522.59997558594</ele>
        <time>2026-05-11T08:05:23.000Z</time>
      </trkpt>
      <trkpt lat="45.29713" lon="4.57348">
        <ele>522.79998779297</ele>
        <time>2026-05-11T08:05:24.000Z</time>
      </trkpt>
      <trkpt lat="45.29712" lon="4.57344">
        <ele>522.79998779297</ele>
        <time>2026-05-11T08:05:25.000Z</time>
      </trkpt>
      <trkpt lat="45.2971" lon="4.57341">
        <ele>523</ele>
        <time>2026-05-11T08:05:26.000Z</time>
      </trkpt>
      <trkpt lat="45.29708" lon="4.57337">
        <ele>523</ele>
        <time>2026-05-11T08:05:27.000Z</time>
      </trkpt>
      <trkpt lat="45.29707" lon="4.57333">
        <ele>523</ele>
        <time>2026-05-11T08:05:28.000Z</time>
      </trkpt>
      <trkpt lat="45.29705" lon="4.5733">
        <ele>523.20001220703</ele>
        <time>2026-05-11T08:05:29.000Z</time>
      </trkpt>
      <trkpt lat="45.29705" lon="4.57326">
        <ele>523.20001220703</ele>
        <time>2026-05-11T08:05:30.000Z</time>
      </trkpt>
      <trkpt lat="45.29704" lon="4.57323">
        <ele>523.40002441406</ele>
        <time>2026-05-11T08:05:31.000Z</time>
      </trkpt>
      <trkpt lat="45.29704" lon="4.57319">
        <ele>523.40002441406</ele>
        <time>2026-05-11T08:05:32.000Z</time>
      </trkpt>
      <trkpt lat="45.29703" lon="4.57315">
        <ele>523.59997558594</ele>
        <time>2026-05-11T08:05:33.000Z</time>
      </trkpt>
      <trkpt lat="45.29703" lon="4.57312">
        <ele>523.59997558594</ele>
        <time>2026-05-11T08:05:34.000Z</time>
      </trkpt>
      <trkpt lat="45.29703" lon="4.57309">
        <ele>523.79998779297</ele>
        <time>2026-05-11T08:05:35.000Z</time>
      </trkpt>
      <trkpt lat="45.29704" lon="4.57306">
        <ele>524</ele>
        <time>2026-05-11T08:05:36.000Z</time>
      </trkpt>
      <trkpt lat="45.29703" lon="4.57303">
        <ele>524.20001220703</ele>
        <time>2026-05-11T08:05:37.000Z</time>
      </trkpt>
      <trkpt lat="45.29704" lon="4.57299">
        <ele>524.20001220703</ele>
        <time>2026-05-11T08:05:38.000Z</time>
      </trkpt>
      <trkpt lat="45.29704" lon="4.57296">
        <ele>524.40002441406</ele>
        <time>2026-05-11T08:05:39.000Z</time>
      </trkpt>
      <trkpt lat="45.29704" lon="4.57293">
        <ele>524.59997558594</ele>
        <time>2026-05-11T08:05:40.000Z</time>
      </trkpt>
      <trkpt lat="45.29703" lon="4.5729">
        <ele>524.79998779297</ele>
        <time>2026-05-11T08:05:41.000Z</time>
      </trkpt>
      <trkpt lat="45.29703" lon="4.57285">
        <ele>524.79998779297</ele>
        <time>2026-05-11T08:05:42.000Z</time>
      </trkpt>
      <trkpt lat="45.29702" lon="4.57281">
        <ele>525</ele>
        <time>2026-05-11T08:05:43.000Z</time>
      </trkpt>
      <trkpt lat="45.29701" lon="4.57277">
        <ele>525</ele>
        <time>2026-05-11T08:05:44.000Z</time>
      </trkpt>
      <trkpt lat="45.297" lon="4.57273">
        <ele>525</ele>
        <time>2026-05-11T08:05:45.000Z</time>
      </trkpt>
      <trkpt lat="45.29698" lon="4.5727">
        <ele>525</ele>
        <time>2026-05-11T08:05:46.000Z</time>
      </trkpt>
      <trkpt lat="45.29697" lon="4.57267">
        <ele>525</ele>
        <time>2026-05-11T08:05:47.000Z</time>
      </trkpt>
      <trkpt lat="45.29697" lon="4.57264">
        <ele>525</ele>
        <time>2026-05-11T08:05:48.000Z</time>
      </trkpt>
      <trkpt lat="45.29696" lon="4.5726">
        <ele>525</ele>
        <time>2026-05-11T08:05:49.000Z</time>
      </trkpt>
      <trkpt lat="45.29695" lon="4.57257">
        <ele>525</ele>
        <time>2026-05-11T08:05:50.000Z</time>
      </trkpt>
      <trkpt lat="45.29694" lon="4.57254">
        <ele>525</ele>
        <time>2026-05-11T08:05:51.000Z</time>
      </trkpt>
      <trkpt lat="45.29692" lon="4.5725">
        <ele>525</ele>
        <time>2026-05-11T08:05:52.000Z</time>
      </trkpt>
      <trkpt lat="45.2969" lon="4.57246">
        <ele>525</ele>
        <time>2026-05-11T08:05:53.000Z</time>
      </trkpt>
      <trkpt lat="45.29689" lon="4.57242">
        <ele>525</ele>
        <time>2026-05-11T08:05:54.000Z</time>
      </trkpt>
      <trkpt lat="45.29688" lon="4.57238">
        <ele>525</ele>
        <time>2026-05-11T08:05:55.000Z</time>
      </trkpt>
      <trkpt lat="45.29686" lon="4.57234">
        <ele>525</ele>
        <time>2026-05-11T08:05:56.000Z</time>
      </trkpt>
      <trkpt lat="45.29685" lon="4.57231">
        <ele>525</ele>
        <time>2026-05-11T08:05:57.000Z</time>
      </trkpt>
      <trkpt lat="45.29684" lon="4.57227">
        <ele>525</ele>
        <time>2026-05-11T08:05:58.000Z</time>
      </trkpt>
      <trkpt lat="45.29682" lon="4.57224">
        <ele>525</ele>
        <time>2026-05-11T08:05:59.000Z</time>
      </trkpt>
      <trkpt lat="45.2968" lon="4.5722">
        <ele>525</ele>
        <time>2026-05-11T08:06:00.000Z</time>
      </trkpt>
      <trkpt lat="45.2968" lon="4.57217">
        <ele>524.79998779297</ele>
        <time>2026-05-11T08:06:01.000Z</time>
      </trkpt>
      <trkpt lat="45.29679" lon="4.57214">
        <ele>524.79998779297</ele>
        <time>2026-05-11T08:06:02.000Z</time>
      </trkpt>
      <trkpt lat="45.29678" lon="4.5721">
        <ele>524.79998779297</ele>
        <time>2026-05-11T08:06:03.000Z</time>
      </trkpt>
      <trkpt lat="45.29677" lon="4.57206">
        <ele>524.79998779297</ele>
        <time>2026-05-11T08:06:04.000Z</time>
      </trkpt>
      <trkpt lat="45.29675" lon="4.57203">
        <ele>524.79998779297</ele>
        <time>2026-05-11T08:06:05.000Z</time>
      </trkpt>
      <trkpt lat="45.29674" lon="4.57199">
        <ele>524.79998779297</ele>
        <time>2026-05-11T08:06:06.000Z</time>
      </trkpt>
      <trkpt lat="45.29672" lon="4.57195">
        <ele>524.79998779297</ele>
        <time>2026-05-11T08:06:07.000Z</time>
      </trkpt>
      <trkpt lat="45.2967" lon="4.57191">
        <ele>524.79998779297</ele>
        <time>2026-05-11T08:06:08.000Z</time>
      </trkpt>
      <trkpt lat="45.29668" lon="4.57187">
        <ele>524.79998779297</ele>
        <time>2026-05-11T08:06:09.000Z</time>
      </trkpt>
      <trkpt lat="45.29667" lon="4.57182">
        <ele>524.59997558594</ele>
        <time>2026-05-11T08:06:10.000Z</time>
      </trkpt>
      <trkpt lat="45.29666" lon="4.57178">
        <ele>524.59997558594</ele>
        <time>2026-05-11T08:06:11.000Z</time>
      </trkpt>
      <trkpt lat="45.29664" lon="4.57174">
        <ele>524.40002441406</ele>
        <time>2026-05-11T08:06:12.000Z</time>
      </trkpt>
      <trkpt lat="45.29663" lon="4.57169">
        <ele>524.40002441406</ele>
        <time>2026-05-11T08:06:13.000Z</time>
      </trkpt>
      <trkpt lat="45.29662" lon="4.57165">
        <ele>524.40002441406</ele>
        <time>2026-05-11T08:06:14.000Z</time>
      </trkpt>
      <trkpt lat="45.2966" lon="4.57161">
        <ele>524.20001220703</ele>
        <time>2026-05-11T08:06:15.000Z</time>
      </trkpt>
      <trkpt lat="45.29658" lon="4.57158">
        <ele>524.20001220703</ele>
        <time>2026-05-11T08:06:16.000Z</time>
      </trkpt>
      <trkpt lat="45.29656" lon="4.57156">
        <ele>524.20001220703</ele>
        <time>2026-05-11T08:06:17.000Z</time>
      </trkpt>
      <trkpt lat="45.29655" lon="4.57154">
        <ele>524</ele>
        <time>2026-05-11T08:06:18.000Z</time>
      </trkpt>
      <trkpt lat="45.29654" lon="4.57151">
        <ele>524</ele>
        <time>2026-05-11T08:06:19.000Z</time>
      </trkpt>
      <trkpt lat="45.29652" lon="4.57147">
        <ele>524</ele>
        <time>2026-05-11T08:06:20.000Z</time>
      </trkpt>
      <trkpt lat="45.29651" lon="4.57143">
        <ele>524</ele>
        <time>2026-05-11T08:06:21.000Z</time>
      </trkpt>
      <trkpt lat="45.29649" lon="4.57139">
        <ele>523.79998779297</ele>
        <time>2026-05-11T08:06:22.000Z</time>
      </trkpt>
      <trkpt lat="45.29648" lon="4.57136">
        <ele>523.79998779297</ele>
        <time>2026-05-11T08:06:23.000Z</time>
      </trkpt>
      <trkpt lat="45.29647" lon="4.57132">
        <ele>523.79998779297</ele>
        <time>2026-05-11T08:06:24.000Z</time>
      </trkpt>
      <trkpt lat="45.29645" lon="4.57127">
        <ele>523.79998779297</ele>
        <time>2026-05-11T08:06:25.000Z</time>
      </trkpt>
      <trkpt lat="45.29644" lon="4.57124">
        <ele>523.59997558594</ele>
        <time>2026-05-11T08:06:26.000Z</time>
      </trkpt>
      <trkpt lat="45.29643" lon="4.5712">
        <ele>523.59997558594</ele>
        <time>2026-05-11T08:06:27.000Z</time>
      </trkpt>
      <trkpt lat="45.29641" lon="4.57116">
        <ele>523.59997558594</ele>
        <time>2026-05-11T08:06:28.000Z</time>
      </trkpt>
      <trkpt lat="45.29639" lon="4.57111">
        <ele>523.59997558594</ele>
        <time>2026-05-11T08:06:29.000Z</time>
      </trkpt>
      <trkpt lat="45.29638" lon="4.57107">
        <ele>523.59997558594</ele>
        <time>2026-05-11T08:06:30.000Z</time>
      </trkpt>
      <trkpt lat="45.29637" lon="4.57104">
        <ele>523.40002441406</ele>
        <time>2026-05-11T08:06:31.000Z</time>
      </trkpt>
      <trkpt lat="45.29635" lon="4.571">
        <ele>523.40002441406</ele>
        <time>2026-05-11T08:06:32.000Z</time>
      </trkpt>
      <trkpt lat="45.29633" lon="4.57097">
        <ele>523.40002441406</ele>
        <time>2026-05-11T08:06:33.000Z</time>
      </trkpt>
      <trkpt lat="45.29631" lon="4.57093">
        <ele>523.40002441406</ele>
        <time>2026-05-11T08:06:34.000Z</time>
      </trkpt>
      <trkpt lat="45.2963" lon="4.57089">
        <ele>523.20001220703</ele>
        <time>2026-05-11T08:06:35.000Z</time>
      </trkpt>
      <trkpt lat="45.29628" lon="4.57086">
        <ele>523.20001220703</ele>
        <time>2026-05-11T08:06:36.000Z</time>
      </trkpt>
      <trkpt lat="45.29626" lon="4.57083">
        <ele>523.20001220703</ele>
        <time>2026-05-11T08:06:37.000Z</time>
      </trkpt>
      <trkpt lat="45.29625" lon="4.5708">
        <ele>523</ele>
        <time>2026-05-11T08:06:38.000Z</time>
      </trkpt>
      <trkpt lat="45.29623" lon="4.57077">
        <ele>523</ele>
        <time>2026-05-11T08:06:39.000Z</time>
      </trkpt>
      <trkpt lat="45.29621" lon="4.57073">
        <ele>523</ele>
        <time>2026-05-11T08:06:40.000Z</time>
      </trkpt>
      <trkpt lat="45.2962" lon="4.57069">
        <ele>523</ele>
        <time>2026-05-11T08:06:41.000Z</time>
      </trkpt>
      <trkpt lat="45.29618" lon="4.57066">
        <ele>523</ele>
        <time>2026-05-11T08:06:42.000Z</time>
      </trkpt>
      <trkpt lat="45.29617" lon="4.57062">
        <ele>523</ele>
        <time>2026-05-11T08:06:43.000Z</time>
      </trkpt>
      <trkpt lat="45.29615" lon="4.57059">
        <ele>523</ele>
        <time>2026-05-11T08:06:44.000Z</time>
      </trkpt>
      <trkpt lat="45.29613" lon="4.57055">
        <ele>522.79998779297</ele>
        <time>2026-05-11T08:06:45.000Z</time>
      </trkpt>
      <trkpt lat="45.29612" lon="4.57051">
        <ele>522.79998779297</ele>
        <time>2026-05-11T08:06:46.000Z</time>
      </trkpt>
      <trkpt lat="45.29609" lon="4.57048">
        <ele>522.79998779297</ele>
        <time>2026-05-11T08:06:47.000Z</time>
      </trkpt>
      <trkpt lat="45.29608" lon="4.57044">
        <ele>522.79998779297</ele>
        <time>2026-05-11T08:06:48.000Z</time>
      </trkpt>
      <trkpt lat="45.29607" lon="4.5704">
        <ele>522.79998779297</ele>
        <time>2026-05-11T08:06:49.000Z</time>
      </trkpt>
      <trkpt lat="45.29606" lon="4.57037">
        <ele>522.79998779297</ele>
        <time>2026-05-11T08:06:50.000Z</time>
      </trkpt>
      <trkpt lat="45.29604" lon="4.57034">
        <ele>522.79998779297</ele>
        <time>2026-05-11T08:06:51.000Z</time>
      </trkpt>
      <trkpt lat="45.29602" lon="4.5703">
        <ele>522.79998779297</ele>
        <time>2026-05-11T08:06:52.000Z</time>
      </trkpt>
      <trkpt lat="45.29601" lon="4.57026">
        <ele>522.79998779297</ele>
        <time>2026-05-11T08:06:53.000Z</time>
      </trkpt>
      <trkpt lat="45.29599" lon="4.57023">
        <ele>522.79998779297</ele>
        <time>2026-05-11T08:06:54.000Z</time>
      </trkpt>
      <trkpt lat="45.29598" lon="4.57019">
        <ele>522.79998779297</ele>
        <time>2026-05-11T08:06:55.000Z</time>
      </trkpt>
      <trkpt lat="45.29596" lon="4.57016">
        <ele>522.79998779297</ele>
        <time>2026-05-11T08:06:56.000Z</time>
      </trkpt>
      <trkpt lat="45.29594" lon="4.57012">
        <ele>522.79998779297</ele>
        <time>2026-05-11T08:06:57.000Z</time>
      </trkpt>
      <trkpt lat="45.29593" lon="4.57009">
        <ele>522.79998779297</ele>
        <time>2026-05-11T08:06:58.000Z</time>
      </trkpt>
      <trkpt lat="45.29591" lon="4.57005">
        <ele>522.79998779297</ele>
        <time>2026-05-11T08:06:59.000Z</time>
      </trkpt>
      <trkpt lat="45.2959" lon="4.57002">
        <ele>522.79998779297</ele>
        <time>2026-05-11T08:07:00.000Z</time>
      </trkpt>
      <trkpt lat="45.29588" lon="4.56999">
        <ele>522.79998779297</ele>
        <time>2026-05-11T08:07:01.000Z</time>
      </trkpt>
      <trkpt lat="45.29586" lon="4.56996">
        <ele>522.79998779297</ele>
        <time>2026-05-11T08:07:02.000Z</time>
      </trkpt>
      <trkpt lat="45.29585" lon="4.56992">
        <ele>522.79998779297</ele>
        <time>2026-05-11T08:07:03.000Z</time>
      </trkpt>
      <trkpt lat="45.29583" lon="4.56989">
        <ele>522.79998779297</ele>
        <time>2026-05-11T08:07:04.000Z</time>
      </trkpt>
      <trkpt lat="45.29581" lon="4.56985">
        <ele>522.59997558594</ele>
        <time>2026-05-11T08:07:05.000Z</time>
      </trkpt>
      <trkpt lat="45.29579" lon="4.56982">
        <ele>522.59997558594</ele>
        <time>2026-05-11T08:07:06.000Z</time>
      </trkpt>
      <trkpt lat="45.29577" lon="4.56979">
        <ele>522.59997558594</ele>
        <time>2026-05-11T08:07:07.000Z</time>
      </trkpt>
      <trkpt lat="45.29574" lon="4.56976">
        <ele>522.59997558594</ele>
        <time>2026-05-11T08:07:08.000Z</time>
      </trkpt>
      <trkpt lat="45.29571" lon="4.56972">
        <ele>522.59997558594</ele>
        <time>2026-05-11T08:07:09.000Z</time>
      </trkpt>
      <trkpt lat="45.29568" lon="4.56969">
        <ele>522.79998779297</ele>
        <time>2026-05-11T08:07:10.000Z</time>
      </trkpt>
      <trkpt lat="45.29565" lon="4.56967">
        <ele>522.79998779297</ele>
        <time>2026-05-11T08:07:11.000Z</time>
      </trkpt>
      <trkpt lat="45.29562" lon="4.56966">
        <ele>522.79998779297</ele>
        <time>2026-05-11T08:07:12.000Z</time>
      </trkpt>
      <trkpt lat="45.29559" lon="4.56963">
        <ele>522.59997558594</ele>
        <time>2026-05-11T08:07:13.000Z</time>
      </trkpt>
      <trkpt lat="45.29555" lon="4.56961">
        <ele>522.59997558594</ele>
        <time>2026-05-11T08:07:14.000Z</time>
      </trkpt>
      <trkpt lat="45.29552" lon="4.56959">
        <ele>522.40002441406</ele>
        <time>2026-05-11T08:07:15.000Z</time>
      </trkpt>
      <trkpt lat="45.29549" lon="4.56957">
        <ele>522.40002441406</ele>
        <time>2026-05-11T08:07:16.000Z</time>
      </trkpt>
      <trkpt lat="45.29545" lon="4.56955">
        <ele>522.20001220703</ele>
        <time>2026-05-11T08:07:17.000Z</time>
      </trkpt>
      <trkpt lat="45.29541" lon="4.56954">
        <ele>522.20001220703</ele>
        <time>2026-05-11T08:07:18.000Z</time>
      </trkpt>
      <trkpt lat="45.29538" lon="4.56954">
        <ele>522</ele>
        <time>2026-05-11T08:07:19.000Z</time>
      </trkpt>
      <trkpt lat="45.29535" lon="4.56952">
        <ele>522</ele>
        <time>2026-05-11T08:07:20.000Z</time>
      </trkpt>
      <trkpt lat="45.29533" lon="4.56951">
        <ele>522</ele>
        <time>2026-05-11T08:07:21.000Z</time>
      </trkpt>
      <trkpt lat="45.29531" lon="4.56949">
        <ele>522</ele>
        <time>2026-05-11T08:07:22.000Z</time>
      </trkpt>
      <trkpt lat="45.29529" lon="4.56946">
        <ele>522</ele>
        <time>2026-05-11T08:07:23.000Z</time>
      </trkpt>
      <trkpt lat="45.29528" lon="4.56942">
        <ele>522</ele>
        <time>2026-05-11T08:07:24.000Z</time>
      </trkpt>
      <trkpt lat="45.29527" lon="4.56938">
        <ele>522.20001220703</ele>
        <time>2026-05-11T08:07:25.000Z</time>
      </trkpt>
      <trkpt lat="45.29526" lon="4.56935">
        <ele>522.20001220703</ele>
        <time>2026-05-11T08:07:26.000Z</time>
      </trkpt>
      <trkpt lat="45.29526" lon="4.56932">
        <ele>522.20001220703</ele>
        <time>2026-05-11T08:07:27.000Z</time>
      </trkpt>
      <trkpt lat="45.29525" lon="4.56928">
        <ele>522.20001220703</ele>
        <time>2026-05-11T08:07:28.000Z</time>
      </trkpt>
      <trkpt lat="45.29523" lon="4.56925">
        <ele>522.40002441406</ele>
        <time>2026-05-11T08:07:29.000Z</time>
      </trkpt>
      <trkpt lat="45.29522" lon="4.56921">
        <ele>522.40002441406</ele>
        <time>2026-05-11T08:07:30.000Z</time>
      </trkpt>
      <trkpt lat="45.29521" lon="4.56918">
        <ele>522.59997558594</ele>
        <time>2026-05-11T08:07:31.000Z</time>
      </trkpt>
      <trkpt lat="45.2952" lon="4.56914">
        <ele>522.59997558594</ele>
        <time>2026-05-11T08:07:32.000Z</time>
      </trkpt>
      <trkpt lat="45.29518" lon="4.56911">
        <ele>522.59997558594</ele>
        <time>2026-05-11T08:07:33.000Z</time>
      </trkpt>
      <trkpt lat="45.29517" lon="4.56908">
        <ele>522.79998779297</ele>
        <time>2026-05-11T08:07:34.000Z</time>
      </trkpt>
      <trkpt lat="45.29515" lon="4.56905">
        <ele>522.79998779297</ele>
        <time>2026-05-11T08:07:35.000Z</time>
      </trkpt>
      <trkpt lat="45.29513" lon="4.56902">
        <ele>523</ele>
        <time>2026-05-11T08:07:36.000Z</time>
      </trkpt>
      <trkpt lat="45.29511" lon="4.56899">
        <ele>523</ele>
        <time>2026-05-11T08:07:37.000Z</time>
      </trkpt>
      <trkpt lat="45.29509" lon="4.56896">
        <ele>523.20001220703</ele>
        <time>2026-05-11T08:07:38.000Z</time>
      </trkpt>
      <trkpt lat="45.29507" lon="4.56893">
        <ele>523.20001220703</ele>
        <time>2026-05-11T08:07:39.000Z</time>
      </trkpt>
      <trkpt lat="45.29506" lon="4.5689">
        <ele>523.40002441406</ele>
        <time>2026-05-11T08:07:40.000Z</time>
      </trkpt>
      <trkpt lat="45.29504" lon="4.56886">
        <ele>523.40002441406</ele>
        <time>2026-05-11T08:07:41.000Z</time>
      </trkpt>
      <trkpt lat="45.29503" lon="4.56883">
        <ele>523.59997558594</ele>
        <time>2026-05-11T08:07:42.000Z</time>
      </trkpt>
      <trkpt lat="45.29502" lon="4.56879">
        <ele>523.59997558594</ele>
        <time>2026-05-11T08:07:43.000Z</time>
      </trkpt>
      <trkpt lat="45.29501" lon="4.56875">
        <ele>523.79998779297</ele>
        <time>2026-05-11T08:07:44.000Z</time>
      </trkpt>
      <trkpt lat="45.295" lon="4.56871">
        <ele>523.79998779297</ele>
        <time>2026-05-11T08:07:45.000Z</time>
      </trkpt>
      <trkpt lat="45.29499" lon="4.56867">
        <ele>523.79998779297</ele>
        <time>2026-05-11T08:07:46.000Z</time>
      </trkpt>
      <trkpt lat="45.29498" lon="4.56863">
        <ele>524</ele>
        <time>2026-05-11T08:07:47.000Z</time>
      </trkpt>
      <trkpt lat="45.29497" lon="4.56859">
        <ele>524</ele>
        <time>2026-05-11T08:07:48.000Z</time>
      </trkpt>
      <trkpt lat="45.29497" lon="4.56854">
        <ele>524</ele>
        <time>2026-05-11T08:07:49.000Z</time>
      </trkpt>
      <trkpt lat="45.29496" lon="4.5685">
        <ele>524</ele>
        <time>2026-05-11T08:07:50.000Z</time>
      </trkpt>
      <trkpt lat="45.29495" lon="4.56846">
        <ele>524</ele>
        <time>2026-05-11T08:07:51.000Z</time>
      </trkpt>
      <trkpt lat="45.29494" lon="4.56842">
        <ele>524</ele>
        <time>2026-05-11T08:07:52.000Z</time>
      </trkpt>
      <trkpt lat="45.29494" lon="4.56838">
        <ele>524</ele>
        <time>2026-05-11T08:07:53.000Z</time>
      </trkpt>
      <trkpt lat="45.29493" lon="4.56834">
        <ele>524.20001220703</ele>
        <time>2026-05-11T08:07:54.000Z</time>
      </trkpt>
      <trkpt lat="45.29493" lon="4.56831">
        <ele>524.20001220703</ele>
        <time>2026-05-11T08:07:55.000Z</time>
      </trkpt>
      <trkpt lat="45.29492" lon="4.56827">
        <ele>524.20001220703</ele>
        <time>2026-05-11T08:07:56.000Z</time>
      </trkpt>
      <trkpt lat="45.29492" lon="4.56824">
        <ele>524.20001220703</ele>
        <time>2026-05-11T08:07:57.000Z</time>
      </trkpt>
      <trkpt lat="45.29491" lon="4.5682">
        <ele>524.40002441406</ele>
        <time>2026-05-11T08:07:58.000Z</time>
      </trkpt>
      <trkpt lat="45.29489" lon="4.56817">
        <ele>524.40002441406</ele>
        <time>2026-05-11T08:07:59.000Z</time>
      </trkpt>
      <trkpt lat="45.29489" lon="4.56814">
        <ele>524.59997558594</ele>
        <time>2026-05-11T08:08:00.000Z</time>
      </trkpt>
      <trkpt lat="45.29488" lon="4.5681">
        <ele>524.79998779297</ele>
        <time>2026-05-11T08:08:01.000Z</time>
      </trkpt>
      <trkpt lat="45.29488" lon="4.56808">
        <ele>524.79998779297</ele>
        <time>2026-05-11T08:08:02.000Z</time>
      </trkpt>
      <trkpt lat="45.29487" lon="4.56805">
        <ele>525</ele>
        <time>2026-05-11T08:08:03.000Z</time>
      </trkpt>
      <trkpt lat="45.29486" lon="4.56802">
        <ele>525.20001220703</ele>
        <time>2026-05-11T08:08:04.000Z</time>
      </trkpt>
      <trkpt lat="45.29485" lon="4.56799">
        <ele>525.20001220703</ele>
        <time>2026-05-11T08:08:05.000Z</time>
      </trkpt>
      <trkpt lat="45.29484" lon="4.56796">
        <ele>525.40002441406</ele>
        <time>2026-05-11T08:08:06.000Z</time>
      </trkpt>
      <trkpt lat="45.29483" lon="4.56793">
        <ele>525.40002441406</ele>
        <time>2026-05-11T08:08:07.000Z</time>
      </trkpt>
      <trkpt lat="45.29482" lon="4.5679">
        <ele>525.59997558594</ele>
        <time>2026-05-11T08:08:08.000Z</time>
      </trkpt>
      <trkpt lat="45.29482" lon="4.56787">
        <ele>525.79998779297</ele>
        <time>2026-05-11T08:08:09.000Z</time>
      </trkpt>
      <trkpt lat="45.29481" lon="4.56784">
        <ele>526</ele>
        <time>2026-05-11T08:08:10.000Z</time>
      </trkpt>
      <trkpt lat="45.29481" lon="4.56781">
        <ele>526</ele>
        <time>2026-05-11T08:08:11.000Z</time>
      </trkpt>
      <trkpt lat="45.2948" lon="4.56778">
        <ele>526.20001220703</ele>
        <time>2026-05-11T08:08:12.000Z</time>
      </trkpt>
      <trkpt lat="45.29479" lon="4.56775">
        <ele>526.40002441406</ele>
        <time>2026-05-11T08:08:13.000Z</time>
      </trkpt>
      <trkpt lat="45.29479" lon="4.56773">
        <ele>526.59997558594</ele>
        <time>2026-05-11T08:08:14.000Z</time>
      </trkpt>
      <trkpt lat="45.29478" lon="4.5677">
        <ele>526.59997558594</ele>
        <time>2026-05-11T08:08:15.000Z</time>
      </trkpt>
      <trkpt lat="45.29478" lon="4.56767">
        <ele>526.79998779297</ele>
        <time>2026-05-11T08:08:16.000Z</time>
      </trkpt>
      <trkpt lat="45.29478" lon="4.56764">
        <ele>527</ele>
        <time>2026-05-11T08:08:17.000Z</time>
      </trkpt>
      <trkpt lat="45.29477" lon="4.56761">
        <ele>527</ele>
        <time>2026-05-11T08:08:18.000Z</time>
      </trkpt>
      <trkpt lat="45.29477" lon="4.56757">
        <ele>527.20001220703</ele>
        <time>2026-05-11T08:08:19.000Z</time>
      </trkpt>
      <trkpt lat="45.29477" lon="4.56755">
        <ele>527.20001220703</ele>
        <time>2026-05-11T08:08:20.000Z</time>
      </trkpt>
      <trkpt lat="45.29477" lon="4.56752">
        <ele>527.40002441406</ele>
        <time>2026-05-11T08:08:21.000Z</time>
      </trkpt>
      <trkpt lat="45.29476" lon="4.5675">
        <ele>527.59997558594</ele>
        <time>2026-05-11T08:08:22.000Z</time>
      </trkpt>
      <trkpt lat="45.29476" lon="4.56747">
        <ele>527.59997558594</ele>
        <time>2026-05-11T08:08:23.000Z</time>
      </trkpt>
      <trkpt lat="45.29476" lon="4.56745">
        <ele>527.79998779297</ele>
        <time>2026-05-11T08:08:24.000Z</time>
      </trkpt>
      <trkpt lat="45.29476" lon="4.56742">
        <ele>528</ele>
        <time>2026-05-11T08:08:25.000Z</time>
      </trkpt>
      <trkpt lat="45.29476" lon="4.5674">
        <ele>528.20001220703</ele>
        <time>2026-05-11T08:08:26.000Z</time>
      </trkpt>
      <trkpt lat="45.29476" lon="4.56738">
        <ele>528.20001220703</ele>
        <time>2026-05-11T08:08:27.000Z</time>
      </trkpt>
      <trkpt lat="45.29476" lon="4.56735">
        <ele>528.40002441406</ele>
        <time>2026-05-11T08:08:28.000Z</time>
      </trkpt>
      <trkpt lat="45.29475" lon="4.56733">
        <ele>528.40002441406</ele>
        <time>2026-05-11T08:08:29.000Z</time>
      </trkpt>
      <trkpt lat="45.29476" lon="4.5673">
        <ele>528.40002441406</ele>
        <time>2026-05-11T08:08:30.000Z</time>
      </trkpt>
      <trkpt lat="45.29477" lon="4.56727">
        <ele>528.59997558594</ele>
        <time>2026-05-11T08:08:31.000Z</time>
      </trkpt>
      <trkpt lat="45.29477" lon="4.56723">
        <ele>528.59997558594</ele>
        <time>2026-05-11T08:08:32.000Z</time>
      </trkpt>
      <trkpt lat="45.29478" lon="4.56719">
        <ele>528.59997558594</ele>
        <time>2026-05-11T08:08:33.000Z</time>
      </trkpt>
      <trkpt lat="45.2948" lon="4.56715">
        <ele>528.59997558594</ele>
        <time>2026-05-11T08:08:34.000Z</time>
      </trkpt>
      <trkpt lat="45.29482" lon="4.56711">
        <ele>528.59997558594</ele>
        <time>2026-05-11T08:08:35.000Z</time>
      </trkpt>
      <trkpt lat="45.29484" lon="4.56707">
        <ele>528.59997558594</ele>
        <time>2026-05-11T08:08:36.000Z</time>
      </trkpt>
      <trkpt lat="45.29487" lon="4.56702">
        <ele>528.40002441406</ele>
        <time>2026-05-11T08:08:37.000Z</time>
      </trkpt>
      <trkpt lat="45.2949" lon="4.56698">
        <ele>528.20001220703</ele>
        <time>2026-05-11T08:08:38.000Z</time>
      </trkpt>
      <trkpt lat="45.29493" lon="4.56694">
        <ele>528</ele>
        <time>2026-05-11T08:08:39.000Z</time>
      </trkpt>
      <trkpt lat="45.29496" lon="4.5669">
        <ele>528</ele>
        <time>2026-05-11T08:08:40.000Z</time>
      </trkpt>
      <trkpt lat="45.295" lon="4.56686">
        <ele>527.79998779297</ele>
        <time>2026-05-11T08:08:41.000Z</time>
      </trkpt>
      <trkpt lat="45.29504" lon="4.56682">
        <ele>527.59997558594</ele>
        <time>2026-05-11T08:08:42.000Z</time>
      </trkpt>
      <trkpt lat="45.29508" lon="4.56678">
        <ele>527.20001220703</ele>
        <time>2026-05-11T08:08:43.000Z</time>
      </trkpt>
      <trkpt lat="45.29512" lon="4.56674">
        <ele>527.20001220703</ele>
        <time>2026-05-11T08:08:44.000Z</time>
      </trkpt>
      <trkpt lat="45.29517" lon="4.5667">
        <ele>527</ele>
        <time>2026-05-11T08:08:45.000Z</time>
      </trkpt>
      <trkpt lat="45.29521" lon="4.56666">
        <ele>526.59997558594</ele>
        <time>2026-05-11T08:08:46.000Z</time>
      </trkpt>
      <trkpt lat="45.29526" lon="4.56662">
        <ele>526.40002441406</ele>
        <time>2026-05-11T08:08:47.000Z</time>
      </trkpt>
      <trkpt lat="45.29531" lon="4.56658">
        <ele>526.20001220703</ele>
        <time>2026-05-11T08:08:48.000Z</time>
      </trkpt>
      <trkpt lat="45.29535" lon="4.56654">
        <ele>526</ele>
        <time>2026-05-11T08:08:49.000Z</time>
      </trkpt>
      <trkpt lat="45.29539" lon="4.56651">
        <ele>525.79998779297</ele>
        <time>2026-05-11T08:08:50.000Z</time>
      </trkpt>
      <trkpt lat="45.29543" lon="4.56647">
        <ele>525.79998779297</ele>
        <time>2026-05-11T08:08:51.000Z</time>
      </trkpt>
      <trkpt lat="45.29547" lon="4.56644">
        <ele>525.59997558594</ele>
        <time>2026-05-11T08:08:52.000Z</time>
      </trkpt>
      <trkpt lat="45.2955" lon="4.56642">
        <ele>525.59997558594</ele>
        <time>2026-05-11T08:08:53.000Z</time>
      </trkpt>
      <trkpt lat="45.29554" lon="4.56639">
        <ele>525.40002441406</ele>
        <time>2026-05-11T08:08:54.000Z</time>
      </trkpt>
      <trkpt lat="45.29558" lon="4.56637">
        <ele>525.40002441406</ele>
        <time>2026-05-11T08:08:55.000Z</time>
      </trkpt>
      <trkpt lat="45.29561" lon="4.56635">
        <ele>525.20001220703</ele>
        <time>2026-05-11T08:08:56.000Z</time>
      </trkpt>
      <trkpt lat="45.29563" lon="4.56634">
        <ele>525</ele>
        <time>2026-05-11T08:08:57.000Z</time>
      </trkpt>
      <trkpt lat="45.29564" lon="4.56633">
        <ele>525</ele>
        <time>2026-05-11T08:08:58.000Z</time>
      </trkpt>
      <trkpt lat="45.29565" lon="4.56632">
        <ele>524.79998779297</ele>
        <time>2026-05-11T08:08:59.000Z</time>
      </trkpt>
      <trkpt lat="45.29565" lon="4.56632">
        <ele>524.79998779297</ele>
        <time>2026-05-11T08:09:00.000Z</time>
      </trkpt>
      <trkpt lat="45.2957" lon="4.56629">
        <ele>524.79998779297</ele>
        <time>2026-05-11T08:11:38.000Z</time>
      </trkpt>
      <trkpt lat="45.29572" lon="4.56628">
        <ele>524.79998779297</ele>
        <time>2026-05-11T08:11:39.000Z</time>
      </trkpt>
      <trkpt lat="45.29574" lon="4.56627">
        <ele>524.79998779297</ele>
        <time>2026-05-11T08:11:40.000Z</time>
      </trkpt>
      <trkpt lat="45.29576" lon="4.56626">
        <ele>524.79998779297</ele>
        <time>2026-05-11T08:11:41.000Z</time>
      </trkpt>
      <trkpt lat="45.29578" lon="4.56625">
        <ele>524.79998779297</ele>
        <time>2026-05-11T08:11:42.000Z</time>
      </trkpt>
      <trkpt lat="45.2958" lon="4.56623">
        <ele>524.79998779297</ele>
        <time>2026-05-11T08:11:43.000Z</time>
      </trkpt>
      <trkpt lat="45.29582" lon="4.56622">
        <ele>524.79998779297</ele>
        <time>2026-05-11T08:11:44.000Z</time>
      </trkpt>
      <trkpt lat="45.29583" lon="4.5662">
        <ele>524.79998779297</ele>
        <time>2026-05-11T08:11:45.000Z</time>
      </trkpt>
      <trkpt lat="45.29585" lon="4.56619">
        <ele>524.79998779297</ele>
        <time>2026-05-11T08:11:46.000Z</time>
      </trkpt>
      <trkpt lat="45.29587" lon="4.56617">
        <ele>524.79998779297</ele>
        <time>2026-05-11T08:11:47.000Z</time>
      </trkpt>
      <trkpt lat="45.29588" lon="4.56616">
        <ele>524.79998779297</ele>
        <time>2026-05-11T08:11:48.000Z</time>
      </trkpt>
      <trkpt lat="45.29589" lon="4.56614">
        <ele>524.79998779297</ele>
        <time>2026-05-11T08:11:49.000Z</time>
      </trkpt>
      <trkpt lat="45.29591" lon="4.56611">
        <ele>525</ele>
        <time>2026-05-11T08:11:50.000Z</time>
      </trkpt>
      <trkpt lat="45.29592" lon="4.56608">
        <ele>525</ele>
        <time>2026-05-11T08:11:51.000Z</time>
      </trkpt>
      <trkpt lat="45.29594" lon="4.56605">
        <ele>525</ele>
        <time>2026-05-11T08:11:52.000Z</time>
      </trkpt>
      <trkpt lat="45.29596" lon="4.56603">
        <ele>525</ele>
        <time>2026-05-11T08:11:53.000Z</time>
      </trkpt>
      <trkpt lat="45.29597" lon="4.566">
        <ele>525</ele>
        <time>2026-05-11T08:11:54.000Z</time>
      </trkpt>
      <trkpt lat="45.29598" lon="4.56597">
        <ele>525</ele>
        <time>2026-05-11T08:11:55.000Z</time>
      </trkpt>
      <trkpt lat="45.296" lon="4.56594">
        <ele>525</ele>
        <time>2026-05-11T08:11:56.000Z</time>
      </trkpt>
      <trkpt lat="45.29601" lon="4.5659">
        <ele>525</ele>
        <time>2026-05-11T08:11:57.000Z</time>
      </trkpt>
      <trkpt lat="45.29602" lon="4.56587">
        <ele>525</ele>
        <time>2026-05-11T08:11:58.000Z</time>
      </trkpt>
      <trkpt lat="45.29603" lon="4.56583">
        <ele>525</ele>
        <time>2026-05-11T08:11:59.000Z</time>
      </trkpt>
      <trkpt lat="45.29604" lon="4.5658">
        <ele>525</ele>
        <time>2026-05-11T08:12:00.000Z</time>
      </trkpt>
      <trkpt lat="45.29605" lon="4.56576">
        <ele>525</ele>
        <time>2026-05-11T08:12:01.000Z</time>
      </trkpt>
      <trkpt lat="45.29606" lon="4.56573">
        <ele>525.20001220703</ele>
        <time>2026-05-11T08:12:02.000Z</time>
      </trkpt>
      <trkpt lat="45.29608" lon="4.56569">
        <ele>525.20001220703</ele>
        <time>2026-05-11T08:12:03.000Z</time>
      </trkpt>
      <trkpt lat="45.29609" lon="4.56565">
        <ele>525.20001220703</ele>
        <time>2026-05-11T08:12:04.000Z</time>
      </trkpt>
      <trkpt lat="45.29609" lon="4.56561">
        <ele>525.20001220703</ele>
        <time>2026-05-11T08:12:05.000Z</time>
      </trkpt>
      <trkpt lat="45.2961" lon="4.56557">
        <ele>525.40002441406</ele>
        <time>2026-05-11T08:12:06.000Z</time>
      </trkpt>
      <trkpt lat="45.29611" lon="4.56553">
        <ele>525.40002441406</ele>
        <time>2026-05-11T08:12:07.000Z</time>
      </trkpt>
      <trkpt lat="45.29611" lon="4.56549">
        <ele>525.40002441406</ele>
        <time>2026-05-11T08:12:08.000Z</time>
      </trkpt>
      <trkpt lat="45.29611" lon="4.56545">
        <ele>525.59997558594</ele>
        <time>2026-05-11T08:12:09.000Z</time>
      </trkpt>
      <trkpt lat="45.29611" lon="4.56541">
        <ele>525.59997558594</ele>
        <time>2026-05-11T08:12:10.000Z</time>
      </trkpt>
      <trkpt lat="45.29611" lon="4.56537">
        <ele>525.59997558594</ele>
        <time>2026-05-11T08:12:11.000Z</time>
      </trkpt>
      <trkpt lat="45.29611" lon="4.56532">
        <ele>525.79998779297</ele>
        <time>2026-05-11T08:12:12.000Z</time>
      </trkpt>
      <trkpt lat="45.29611" lon="4.56529">
        <ele>525.79998779297</ele>
        <time>2026-05-11T08:12:13.000Z</time>
      </trkpt>
      <trkpt lat="45.29611" lon="4.56525">
        <ele>526</ele>
        <time>2026-05-11T08:12:14.000Z</time>
      </trkpt>
      <trkpt lat="45.29611" lon="4.56522">
        <ele>526</ele>
        <time>2026-05-11T08:12:15.000Z</time>
      </trkpt>
      <trkpt lat="45.2961" lon="4.56518">
        <ele>526.20001220703</ele>
        <time>2026-05-11T08:12:16.000Z</time>
      </trkpt>
      <trkpt lat="45.2961" lon="4.56514">
        <ele>526.20001220703</ele>
        <time>2026-05-11T08:12:17.000Z</time>
      </trkpt>
      <trkpt lat="45.29609" lon="4.56511">
        <ele>526.40002441406</ele>
        <time>2026-05-11T08:12:18.000Z</time>
      </trkpt>
      <trkpt lat="45.29608" lon="4.56507">
        <ele>526.59997558594</ele>
        <time>2026-05-11T08:12:19.000Z</time>
      </trkpt>
      <trkpt lat="45.29607" lon="4.56504">
        <ele>526.59997558594</ele>
        <time>2026-05-11T08:12:20.000Z</time>
      </trkpt>
      <trkpt lat="45.29606" lon="4.565">
        <ele>526.79998779297</ele>
        <time>2026-05-11T08:12:21.000Z</time>
      </trkpt>
      <trkpt lat="45.29605" lon="4.56497">
        <ele>527</ele>
        <time>2026-05-11T08:12:22.000Z</time>
      </trkpt>
      <trkpt lat="45.29604" lon="4.56493">
        <ele>527</ele>
        <time>2026-05-11T08:12:23.000Z</time>
      </trkpt>
      <trkpt lat="45.29602" lon="4.5649">
        <ele>527.20001220703</ele>
        <time>2026-05-11T08:12:24.000Z</time>
      </trkpt>
      <trkpt lat="45.29601" lon="4.56487">
        <ele>527.40002441406</ele>
        <time>2026-05-11T08:12:25.000Z</time>
      </trkpt>
      <trkpt lat="45.296" lon="4.56484">
        <ele>527.40002441406</ele>
        <time>2026-05-11T08:12:26.000Z</time>
      </trkpt>
      <trkpt lat="45.29598" lon="4.56481">
        <ele>527.40002441406</ele>
        <time>2026-05-11T08:12:27.000Z</time>
      </trkpt>
      <trkpt lat="45.29597" lon="4.56477">
        <ele>527.59997558594</ele>
        <time>2026-05-11T08:12:28.000Z</time>
      </trkpt>
      <trkpt lat="45.29596" lon="4.56474">
        <ele>527.59997558594</ele>
        <time>2026-05-11T08:12:29.000Z</time>
      </trkpt>
      <trkpt lat="45.29595" lon="4.56471">
        <ele>527.79998779297</ele>
        <time>2026-05-11T08:12:30.000Z</time>
      </trkpt>
      <trkpt lat="45.29594" lon="4.56468">
        <ele>528</ele>
        <time>2026-05-11T08:12:31.000Z</time>
      </trkpt>
      <trkpt lat="45.29593" lon="4.56465">
        <ele>528</ele>
        <time>2026-05-11T08:12:32.000Z</time>
      </trkpt>
      <trkpt lat="45.29592" lon="4.56463">
        <ele>528.20001220703</ele>
        <time>2026-05-11T08:12:33.000Z</time>
      </trkpt>
      <trkpt lat="45.29591" lon="4.5646">
        <ele>528.20001220703</ele>
        <time>2026-05-11T08:12:34.000Z</time>
      </trkpt>
      <trkpt lat="45.2959" lon="4.56456">
        <ele>528.40002441406</ele>
        <time>2026-05-11T08:12:35.000Z</time>
      </trkpt>
      <trkpt lat="45.29589" lon="4.56453">
        <ele>528.59997558594</ele>
        <time>2026-05-11T08:12:36.000Z</time>
      </trkpt>
      <trkpt lat="45.29587" lon="4.56449">
        <ele>528.59997558594</ele>
        <time>2026-05-11T08:12:37.000Z</time>
      </trkpt>
      <trkpt lat="45.29586" lon="4.56446">
        <ele>528.79998779297</ele>
        <time>2026-05-11T08:12:38.000Z</time>
      </trkpt>
      <trkpt lat="45.29585" lon="4.56443">
        <ele>528.79998779297</ele>
        <time>2026-05-11T08:12:39.000Z</time>
      </trkpt>
      <trkpt lat="45.29584" lon="4.5644">
        <ele>529</ele>
        <time>2026-05-11T08:12:40.000Z</time>
      </trkpt>
      <trkpt lat="45.29583" lon="4.56437">
        <ele>529</ele>
        <time>2026-05-11T08:12:41.000Z</time>
      </trkpt>
      <trkpt lat="45.29581" lon="4.56434">
        <ele>529.20001220703</ele>
        <time>2026-05-11T08:12:42.000Z</time>
      </trkpt>
      <trkpt lat="45.2958" lon="4.56431">
        <ele>529.20001220703</ele>
        <time>2026-05-11T08:12:43.000Z</time>
      </trkpt>
      <trkpt lat="45.29579" lon="4.56428">
        <ele>529.40002441406</ele>
        <time>2026-05-11T08:12:44.000Z</time>
      </trkpt>
      <trkpt lat="45.29579" lon="4.56425">
        <ele>529.59997558594</ele>
        <time>2026-05-11T08:12:45.000Z</time>
      </trkpt>
      <trkpt lat="45.29578" lon="4.56422">
        <ele>529.59997558594</ele>
        <time>2026-05-11T08:12:46.000Z</time>
      </trkpt>
      <trkpt lat="45.29577" lon="4.56419">
        <ele>529.59997558594</ele>
        <time>2026-05-11T08:12:47.000Z</time>
      </trkpt>
      <trkpt lat="45.29576" lon="4.56417">
        <ele>529.79998779297</ele>
        <time>2026-05-11T08:12:48.000Z</time>
      </trkpt>
      <trkpt lat="45.29574" lon="4.56414">
        <ele>529.79998779297</ele>
        <time>2026-05-11T08:12:49.000Z</time>
      </trkpt>
      <trkpt lat="45.29574" lon="4.56411">
        <ele>530</ele>
        <time>2026-05-11T08:12:50.000Z</time>
      </trkpt>
      <trkpt lat="45.29573" lon="4.56408">
        <ele>530</ele>
        <time>2026-05-11T08:12:51.000Z</time>
      </trkpt>
      <trkpt lat="45.29572" lon="4.56405">
        <ele>530.20001220703</ele>
        <time>2026-05-11T08:12:52.000Z</time>
      </trkpt>
      <trkpt lat="45.2957" lon="4.56402">
        <ele>530.20001220703</ele>
        <time>2026-05-11T08:12:53.000Z</time>
      </trkpt>
      <trkpt lat="45.29569" lon="4.56399">
        <ele>530.20001220703</ele>
        <time>2026-05-11T08:12:54.000Z</time>
      </trkpt>
      <trkpt lat="45.29568" lon="4.56396">
        <ele>530.40002441406</ele>
        <time>2026-05-11T08:12:55.000Z</time>
      </trkpt>
      <trkpt lat="45.29568" lon="4.56393">
        <ele>530.40002441406</ele>
        <time>2026-05-11T08:12:56.000Z</time>
      </trkpt>
      <trkpt lat="45.29566" lon="4.5639">
        <ele>530.59997558594</ele>
        <time>2026-05-11T08:12:57.000Z</time>
      </trkpt>
      <trkpt lat="45.29565" lon="4.56387">
        <ele>530.59997558594</ele>
        <time>2026-05-11T08:12:58.000Z</time>
      </trkpt>
      <trkpt lat="45.29564" lon="4.56384">
        <ele>530.79998779297</ele>
        <time>2026-05-11T08:12:59.000Z</time>
      </trkpt>
      <trkpt lat="45.29563" lon="4.56382">
        <ele>530.79998779297</ele>
        <time>2026-05-11T08:13:00.000Z</time>
      </trkpt>
      <trkpt lat="45.29563" lon="4.5638">
        <ele>531</ele>
        <time>2026-05-11T08:13:01.000Z</time>
      </trkpt>
      <trkpt lat="45.29562" lon="4.56379">
        <ele>531</ele>
        <time>2026-05-11T08:13:02.000Z</time>
      </trkpt>
      <trkpt lat="45.29562" lon="4.56378">
        <ele>531.20001220703</ele>
        <time>2026-05-11T08:13:03.000Z</time>
      </trkpt>
      <trkpt lat="45.29561" lon="4.56376">
        <ele>531.40002441406</ele>
        <time>2026-05-11T08:13:04.000Z</time>
      </trkpt>
      <trkpt lat="45.2956" lon="4.56374">
        <ele>531.40002441406</ele>
        <time>2026-05-11T08:13:05.000Z</time>
      </trkpt>
      <trkpt lat="45.29559" lon="4.56371">
        <ele>531.59997558594</ele>
        <time>2026-05-11T08:13:06.000Z</time>
      </trkpt>
      <trkpt lat="45.29558" lon="4.56367">
        <ele>531.59997558594</ele>
        <time>2026-05-11T08:13:07.000Z</time>
      </trkpt>
      <trkpt lat="45.29558" lon="4.56364">
        <ele>531.79998779297</ele>
        <time>2026-05-11T08:13:08.000Z</time>
      </trkpt>
      <trkpt lat="45.29557" lon="4.5636">
        <ele>531.79998779297</ele>
        <time>2026-05-11T08:13:09.000Z</time>
      </trkpt>
      <trkpt lat="45.29557" lon="4.56357">
        <ele>531.79998779297</ele>
        <time>2026-05-11T08:13:10.000Z</time>
      </trkpt>
      <trkpt lat="45.29557" lon="4.56354">
        <ele>532</ele>
        <time>2026-05-11T08:13:11.000Z</time>
      </trkpt>
      <trkpt lat="45.29557" lon="4.5635">
        <ele>532</ele>
        <time>2026-05-11T08:13:12.000Z</time>
      </trkpt>
      <trkpt lat="45.29556" lon="4.56346">
        <ele>532.20001220703</ele>
        <time>2026-05-11T08:13:13.000Z</time>
      </trkpt>
      <trkpt lat="45.29556" lon="4.56342">
        <ele>532.20001220703</ele>
        <time>2026-05-11T08:13:14.000Z</time>
      </trkpt>
      <trkpt lat="45.29557" lon="4.56339">
        <ele>532.40002441406</ele>
        <time>2026-05-11T08:13:15.000Z</time>
      </trkpt>
      <trkpt lat="45.29557" lon="4.56335">
        <ele>532.59997558594</ele>
        <time>2026-05-11T08:13:16.000Z</time>
      </trkpt>
      <trkpt lat="45.29557" lon="4.56332">
        <ele>532.79998779297</ele>
        <time>2026-05-11T08:13:17.000Z</time>
      </trkpt>
      <trkpt lat="45.29557" lon="4.56329">
        <ele>533</ele>
        <time>2026-05-11T08:13:18.000Z</time>
      </trkpt>
      <trkpt lat="45.29558" lon="4.56326">
        <ele>533</ele>
        <time>2026-05-11T08:13:19.000Z</time>
      </trkpt>
      <trkpt lat="45.29558" lon="4.56322">
        <ele>533.20001220703</ele>
        <time>2026-05-11T08:13:20.000Z</time>
      </trkpt>
      <trkpt lat="45.29559" lon="4.56319">
        <ele>533.40002441406</ele>
        <time>2026-05-11T08:13:21.000Z</time>
      </trkpt>
      <trkpt lat="45.29559" lon="4.56315">
        <ele>533.59997558594</ele>
        <time>2026-05-11T08:13:22.000Z</time>
      </trkpt>
      <trkpt lat="45.29559" lon="4.56312">
        <ele>533.59997558594</ele>
        <time>2026-05-11T08:13:23.000Z</time>
      </trkpt>
      <trkpt lat="45.2956" lon="4.56309">
        <ele>533.79998779297</ele>
        <time>2026-05-11T08:13:24.000Z</time>
      </trkpt>
      <trkpt lat="45.2956" lon="4.56306">
        <ele>533.79998779297</ele>
        <time>2026-05-11T08:13:25.000Z</time>
      </trkpt>
      <trkpt lat="45.29561" lon="4.56302">
        <ele>534</ele>
        <time>2026-05-11T08:13:26.000Z</time>
      </trkpt>
      <trkpt lat="45.29562" lon="4.56299">
        <ele>534.20001220703</ele>
        <time>2026-05-11T08:13:27.000Z</time>
      </trkpt>
      <trkpt lat="45.29562" lon="4.56296">
        <ele>534.20001220703</ele>
        <time>2026-05-11T08:13:28.000Z</time>
      </trkpt>
      <trkpt lat="45.29563" lon="4.56293">
        <ele>534.40002441406</ele>
        <time>2026-05-11T08:13:29.000Z</time>
      </trkpt>
      <trkpt lat="45.29564" lon="4.56291">
        <ele>534.59997558594</ele>
        <time>2026-05-11T08:13:30.000Z</time>
      </trkpt>
      <trkpt lat="45.29565" lon="4.56288">
        <ele>534.59997558594</ele>
        <time>2026-05-11T08:13:31.000Z</time>
      </trkpt>
      <trkpt lat="45.29566" lon="4.56285">
        <ele>534.79998779297</ele>
        <time>2026-05-11T08:13:32.000Z</time>
      </trkpt>
      <trkpt lat="45.29568" lon="4.56283">
        <ele>535</ele>
        <time>2026-05-11T08:13:33.000Z</time>
      </trkpt>
      <trkpt lat="45.29569" lon="4.5628">
        <ele>535</ele>
        <time>2026-05-11T08:13:34.000Z</time>
      </trkpt>
      <trkpt lat="45.2957" lon="4.56277">
        <ele>535.20001220703</ele>
        <time>2026-05-11T08:13:35.000Z</time>
      </trkpt>
      <trkpt lat="45.29571" lon="4.56274">
        <ele>535.40002441406</ele>
        <time>2026-05-11T08:13:36.000Z</time>
      </trkpt>
      <trkpt lat="45.29572" lon="4.56271">
        <ele>535.40002441406</ele>
        <time>2026-05-11T08:13:37.000Z</time>
      </trkpt>
      <trkpt lat="45.29573" lon="4.56268">
        <ele>535.59997558594</ele>
        <time>2026-05-11T08:13:38.000Z</time>
      </trkpt>
      <trkpt lat="45.29574" lon="4.56266">
        <ele>535.79998779297</ele>
        <time>2026-05-11T08:13:39.000Z</time>
      </trkpt>
      <trkpt lat="45.29576" lon="4.56263">
        <ele>535.79998779297</ele>
        <time>2026-05-11T08:13:40.000Z</time>
      </trkpt>
      <trkpt lat="45.29577" lon="4.5626">
        <ele>536</ele>
        <time>2026-05-11T08:13:41.000Z</time>
      </trkpt>
      <trkpt lat="45.29579" lon="4.56257">
        <ele>536.20001220703</ele>
        <time>2026-05-11T08:13:42.000Z</time>
      </trkpt>
      <trkpt lat="45.29581" lon="4.56255">
        <ele>536.20001220703</ele>
        <time>2026-05-11T08:13:43.000Z</time>
      </trkpt>
      <trkpt lat="45.29583" lon="4.56252">
        <ele>536.40002441406</ele>
        <time>2026-05-11T08:13:44.000Z</time>
      </trkpt>
      <trkpt lat="45.29585" lon="4.5625">
        <ele>536.59997558594</ele>
        <time>2026-05-11T08:13:45.000Z</time>
      </trkpt>
      <trkpt lat="45.29587" lon="4.56247">
        <ele>536.59997558594</ele>
        <time>2026-05-11T08:13:46.000Z</time>
      </trkpt>
      <trkpt lat="45.29588" lon="4.56245">
        <ele>536.79998779297</ele>
        <time>2026-05-11T08:13:47.000Z</time>
      </trkpt>
      <trkpt lat="45.2959" lon="4.56242">
        <ele>536.79998779297</ele>
        <time>2026-05-11T08:13:48.000Z</time>
      </trkpt>
      <trkpt lat="45.29592" lon="4.56239">
        <ele>536.79998779297</ele>
        <time>2026-05-11T08:13:49.000Z</time>
      </trkpt>
      <trkpt lat="45.29594" lon="4.56237">
        <ele>537</ele>
        <time>2026-05-11T08:13:50.000Z</time>
      </trkpt>
      <trkpt lat="45.29596" lon="4.56236">
        <ele>537</ele>
        <time>2026-05-11T08:13:51.000Z</time>
      </trkpt>
      <trkpt lat="45.29599" lon="4.56234">
        <ele>537</ele>
        <time>2026-05-11T08:13:52.000Z</time>
      </trkpt>
      <trkpt lat="45.29602" lon="4.56232">
        <ele>537.20001220703</ele>
        <time>2026-05-11T08:13:53.000Z</time>
      </trkpt>
      <trkpt lat="45.29604" lon="4.5623">
        <ele>537.20001220703</ele>
        <time>2026-05-11T08:13:54.000Z</time>
      </trkpt>
      <trkpt lat="45.29606" lon="4.56229">
        <ele>537.40002441406</ele>
        <time>2026-05-11T08:13:55.000Z</time>
      </trkpt>
      <trkpt lat="45.29608" lon="4.56227">
        <ele>537.40002441406</ele>
        <time>2026-05-11T08:13:56.000Z</time>
      </trkpt>
      <trkpt lat="45.2961" lon="4.56225">
        <ele>537.59997558594</ele>
        <time>2026-05-11T08:13:57.000Z</time>
      </trkpt>
      <trkpt lat="45.29612" lon="4.56223">
        <ele>537.59997558594</ele>
        <time>2026-05-11T08:13:58.000Z</time>
      </trkpt>
      <trkpt lat="45.29614" lon="4.56221">
        <ele>537.59997558594</ele>
        <time>2026-05-11T08:13:59.000Z</time>
      </trkpt>
      <trkpt lat="45.29616" lon="4.56219">
        <ele>537.79998779297</ele>
        <time>2026-05-11T08:14:00.000Z</time>
      </trkpt>
      <trkpt lat="45.29618" lon="4.56217">
        <ele>537.79998779297</ele>
        <time>2026-05-11T08:14:01.000Z</time>
      </trkpt>
      <trkpt lat="45.2962" lon="4.56215">
        <ele>538</ele>
        <time>2026-05-11T08:14:02.000Z</time>
      </trkpt>
      <trkpt lat="45.29622" lon="4.56213">
        <ele>538.20001220703</ele>
        <time>2026-05-11T08:14:03.000Z</time>
      </trkpt>
      <trkpt lat="45.29624" lon="4.56211">
        <ele>538.20001220703</ele>
        <time>2026-05-11T08:14:04.000Z</time>
      </trkpt>
      <trkpt lat="45.29626" lon="4.5621">
        <ele>538.20001220703</ele>
        <time>2026-05-11T08:14:05.000Z</time>
      </trkpt>
      <trkpt lat="45.29628" lon="4.56208">
        <ele>538.40002441406</ele>
        <time>2026-05-11T08:14:06.000Z</time>
      </trkpt>
      <trkpt lat="45.2963" lon="4.56207">
        <ele>538.40002441406</ele>
        <time>2026-05-11T08:14:07.000Z</time>
      </trkpt>
      <trkpt lat="45.29631" lon="4.56206">
        <ele>538.59997558594</ele>
        <time>2026-05-11T08:14:08.000Z</time>
      </trkpt>
      <trkpt lat="45.29632" lon="4.56207">
        <ele>538.59997558594</ele>
        <time>2026-05-11T08:14:09.000Z</time>
      </trkpt>
      <trkpt lat="45.29633" lon="4.56208">
        <ele>538.59997558594</ele>
        <time>2026-05-11T08:14:10.000Z</time>
      </trkpt>
      <trkpt lat="45.29635" lon="4.56208">
        <ele>538.79998779297</ele>
        <time>2026-05-11T08:14:11.000Z</time>
      </trkpt>
      <trkpt lat="45.29636" lon="4.56208">
        <ele>538.79998779297</ele>
        <time>2026-05-11T08:14:12.000Z</time>
      </trkpt>
      <trkpt lat="45.29636" lon="4.56209">
        <ele>538.79998779297</ele>
        <time>2026-05-11T08:14:13.000Z</time>
      </trkpt>
      <trkpt lat="45.29636" lon="4.56209">
        <ele>539</ele>
        <time>2026-05-11T08:14:14.000Z</time>
      </trkpt>
      <trkpt lat="45.29642" lon="4.56202">
        <ele>538.79998779297</ele>
        <time>2026-05-11T08:14:35.000Z</time>
      </trkpt>
      <trkpt lat="45.29641" lon="4.56198">
        <ele>538.59997558594</ele>
        <time>2026-05-11T08:14:36.000Z</time>
      </trkpt>
      <trkpt lat="45.29641" lon="4.56194">
        <ele>538.59997558594</ele>
        <time>2026-05-11T08:14:37.000Z</time>
      </trkpt>
      <trkpt lat="45.29641" lon="4.5619">
        <ele>538.59997558594</ele>
        <time>2026-05-11T08:14:38.000Z</time>
      </trkpt>
      <trkpt lat="45.2964" lon="4.56185">
        <ele>538.59997558594</ele>
        <time>2026-05-11T08:14:39.000Z</time>
      </trkpt>
      <trkpt lat="45.29639" lon="4.56181">
        <ele>538.59997558594</ele>
        <time>2026-05-11T08:14:40.000Z</time>
      </trkpt>
      <trkpt lat="45.29638" lon="4.56178">
        <ele>538.59997558594</ele>
        <time>2026-05-11T08:14:41.000Z</time>
      </trkpt>
      <trkpt lat="45.29636" lon="4.56175">
        <ele>538.59997558594</ele>
        <time>2026-05-11T08:14:42.000Z</time>
      </trkpt>
      <trkpt lat="45.29634" lon="4.56172">
        <ele>538.40002441406</ele>
        <time>2026-05-11T08:14:43.000Z</time>
      </trkpt>
      <trkpt lat="45.29631" lon="4.5617">
        <ele>538.40002441406</ele>
        <time>2026-05-11T08:14:44.000Z</time>
      </trkpt>
      <trkpt lat="45.29628" lon="4.56166">
        <ele>538.40002441406</ele>
        <time>2026-05-11T08:14:45.000Z</time>
      </trkpt>
      <trkpt lat="45.29625" lon="4.56162">
        <ele>538.40002441406</ele>
        <time>2026-05-11T08:14:46.000Z</time>
      </trkpt>
      <trkpt lat="45.29622" lon="4.56158">
        <ele>538.20001220703</ele>
        <time>2026-05-11T08:14:47.000Z</time>
      </trkpt>
      <trkpt lat="45.29618" lon="4.56155">
        <ele>538.20001220703</ele>
        <time>2026-05-11T08:14:48.000Z</time>
      </trkpt>
      <trkpt lat="45.29614" lon="4.56152">
        <ele>538</ele>
        <time>2026-05-11T08:14:49.000Z</time>
      </trkpt>
      <trkpt lat="45.2961" lon="4.5615">
        <ele>537.79998779297</ele>
        <time>2026-05-11T08:14:50.000Z</time>
      </trkpt>
      <trkpt lat="45.29606" lon="4.56148">
        <ele>537.79998779297</ele>
        <time>2026-05-11T08:14:51.000Z</time>
      </trkpt>
      <trkpt lat="45.29601" lon="4.56146">
        <ele>537.59997558594</ele>
        <time>2026-05-11T08:14:52.000Z</time>
      </trkpt>
      <trkpt lat="45.29597" lon="4.56145">
        <ele>537.40002441406</ele>
        <time>2026-05-11T08:14:53.000Z</time>
      </trkpt>
      <trkpt lat="45.29594" lon="4.56143">
        <ele>537.20001220703</ele>
        <time>2026-05-11T08:14:54.000Z</time>
      </trkpt>
      <trkpt lat="45.2959" lon="4.56141">
        <ele>537</ele>
        <time>2026-05-11T08:14:55.000Z</time>
      </trkpt>
      <trkpt lat="45.29587" lon="4.5614">
        <ele>537</ele>
        <time>2026-05-11T08:14:56.000Z</time>
      </trkpt>
      <trkpt lat="45.29585" lon="4.56138">
        <ele>536.79998779297</ele>
        <time>2026-05-11T08:14:57.000Z</time>
      </trkpt>
      <trkpt lat="45.29584" lon="4.56135">
        <ele>536.59997558594</ele>
        <time>2026-05-11T08:14:58.000Z</time>
      </trkpt>
      <trkpt lat="45.29583" lon="4.56131">
        <ele>536.59997558594</ele>
        <time>2026-05-11T08:14:59.000Z</time>
      </trkpt>
      <trkpt lat="45.29583" lon="4.56127">
        <ele>536.40002441406</ele>
        <time>2026-05-11T08:15:00.000Z</time>
      </trkpt>
      <trkpt lat="45.29584" lon="4.56122">
        <ele>536.20001220703</ele>
        <time>2026-05-11T08:15:01.000Z</time>
      </trkpt>
      <trkpt lat="45.29586" lon="4.56118">
        <ele>536</ele>
        <time>2026-05-11T08:15:02.000Z</time>
      </trkpt>
      <trkpt lat="45.29587" lon="4.56114">
        <ele>535.79998779297</ele>
        <time>2026-05-11T08:15:03.000Z</time>
      </trkpt>
      <trkpt lat="45.29589" lon="4.56111">
        <ele>535.59997558594</ele>
        <time>2026-05-11T08:15:04.000Z</time>
      </trkpt>
      <trkpt lat="45.2959" lon="4.56107">
        <ele>535.40002441406</ele>
        <time>2026-05-11T08:15:05.000Z</time>
      </trkpt>
      <trkpt lat="45.29591" lon="4.56104">
        <ele>535.40002441406</ele>
        <time>2026-05-11T08:15:06.000Z</time>
      </trkpt>
      <trkpt lat="45.29592" lon="4.56101">
        <ele>535.20001220703</ele>
        <time>2026-05-11T08:15:07.000Z</time>
      </trkpt>
      <trkpt lat="45.29593" lon="4.56099">
        <ele>535.20001220703</ele>
        <time>2026-05-11T08:15:08.000Z</time>
      </trkpt>
      <trkpt lat="45.29593" lon="4.56098">
        <ele>535.20001220703</ele>
        <time>2026-05-11T08:15:09.000Z</time>
      </trkpt>
      <trkpt lat="45.29594" lon="4.56097">
        <ele>535</ele>
        <time>2026-05-11T08:15:10.000Z</time>
      </trkpt>
      <trkpt lat="45.29594" lon="4.56095">
        <ele>535</ele>
        <time>2026-05-11T08:15:11.000Z</time>
      </trkpt>
      <trkpt lat="45.29595" lon="4.56094">
        <ele>535.20001220703</ele>
        <time>2026-05-11T08:15:12.000Z</time>
      </trkpt>
      <trkpt lat="45.29594" lon="4.56092">
        <ele>535.20001220703</ele>
        <time>2026-05-11T08:15:13.000Z</time>
      </trkpt>
      <trkpt lat="45.29593" lon="4.5609">
        <ele>535</ele>
        <time>2026-05-11T08:15:14.000Z</time>
      </trkpt>
      <trkpt lat="45.29592" lon="4.56088">
        <ele>535</ele>
        <time>2026-05-11T08:15:15.000Z</time>
      </trkpt>
      <trkpt lat="45.2959" lon="4.56087">
        <ele>535</ele>
        <time>2026-05-11T08:15:16.000Z</time>
      </trkpt>
      <trkpt lat="45.29589" lon="4.56085">
        <ele>535</ele>
        <time>2026-05-11T08:15:17.000Z</time>
      </trkpt>
      <trkpt lat="45.29588" lon="4.56083">
        <ele>535</ele>
        <time>2026-05-11T08:15:18.000Z</time>
      </trkpt>
      <trkpt lat="45.29586" lon="4.56082">
        <ele>535</ele>
        <time>2026-05-11T08:15:19.000Z</time>
      </trkpt>
      <trkpt lat="45.29585" lon="4.56081">
        <ele>535</ele>
        <time>2026-05-11T08:15:20.000Z</time>
      </trkpt>
      <trkpt lat="45.29585" lon="4.5608">
        <ele>535.20001220703</ele>
        <time>2026-05-11T08:15:21.000Z</time>
      </trkpt>
      <trkpt lat="45.29584" lon="4.56078">
        <ele>535.20001220703</ele>
        <time>2026-05-11T08:15:22.000Z</time>
      </trkpt>
      <trkpt lat="45.29583" lon="4.56077">
        <ele>535.20001220703</ele>
        <time>2026-05-11T08:15:23.000Z</time>
      </trkpt>
      <trkpt lat="45.29583" lon="4.56075">
        <ele>535.40002441406</ele>
        <time>2026-05-11T08:15:24.000Z</time>
      </trkpt>
      <trkpt lat="45.29582" lon="4.56075">
        <ele>535.40002441406</ele>
        <time>2026-05-11T08:15:25.000Z</time>
      </trkpt>
      <trkpt lat="45.2958" lon="4.56073">
        <ele>535.40002441406</ele>
        <time>2026-05-11T08:15:26.000Z</time>
      </trkpt>
      <trkpt lat="45.29579" lon="4.56071">
        <ele>535.40002441406</ele>
        <time>2026-05-11T08:15:27.000Z</time>
      </trkpt>
      <trkpt lat="45.29578" lon="4.5607">
        <ele>535.59997558594</ele>
        <time>2026-05-11T08:15:28.000Z</time>
      </trkpt>
      <trkpt lat="45.29577" lon="4.56068">
        <ele>535.59997558594</ele>
        <time>2026-05-11T08:15:29.000Z</time>
      </trkpt>
      <trkpt lat="45.29576" lon="4.56067">
        <ele>535.59997558594</ele>
        <time>2026-05-11T08:15:30.000Z</time>
      </trkpt>
      <trkpt lat="45.29574" lon="4.56065">
        <ele>535.59997558594</ele>
        <time>2026-05-11T08:15:31.000Z</time>
      </trkpt>
      <trkpt lat="45.29573" lon="4.56063">
        <ele>535.59997558594</ele>
        <time>2026-05-11T08:15:32.000Z</time>
      </trkpt>
      <trkpt lat="45.29573" lon="4.56061">
        <ele>535.59997558594</ele>
        <time>2026-05-11T08:15:33.000Z</time>
      </trkpt>
      <trkpt lat="45.29574" lon="4.56059">
        <ele>535.59997558594</ele>
        <time>2026-05-11T08:15:34.000Z</time>
      </trkpt>
      <trkpt lat="45.29576" lon="4.56059">
        <ele>535.59997558594</ele>
        <time>2026-05-11T08:15:35.000Z</time>
      </trkpt>
      <trkpt lat="45.29577" lon="4.5606">
        <ele>535.59997558594</ele>
        <time>2026-05-11T08:15:36.000Z</time>
      </trkpt>
      <trkpt lat="45.29577" lon="4.56063">
        <ele>535.59997558594</ele>
        <time>2026-05-11T08:15:37.000Z</time>
      </trkpt>
      <trkpt lat="45.29577" lon="4.56065">
        <ele>535.59997558594</ele>
        <time>2026-05-11T08:15:38.000Z</time>
      </trkpt>
      <trkpt lat="45.29577" lon="4.56067">
        <ele>535.59997558594</ele>
        <time>2026-05-11T08:15:39.000Z</time>
      </trkpt>
      <trkpt lat="45.29578" lon="4.56069">
        <ele>535.40002441406</ele>
        <time>2026-05-11T08:15:40.000Z</time>
      </trkpt>
      <trkpt lat="45.29579" lon="4.56071">
        <ele>535.40002441406</ele>
        <time>2026-05-11T08:15:41.000Z</time>
      </trkpt>
      <trkpt lat="45.29581" lon="4.56072">
        <ele>535.40002441406</ele>
        <time>2026-05-11T08:15:42.000Z</time>
      </trkpt>
      <trkpt lat="45.29583" lon="4.56072">
        <ele>535.40002441406</ele>
        <time>2026-05-11T08:15:43.000Z</time>
      </trkpt>
      <trkpt lat="45.29585" lon="4.56073">
        <ele>535.40002441406</ele>
        <time>2026-05-11T08:15:44.000Z</time>
      </trkpt>
      <trkpt lat="45.29587" lon="4.56072">
        <ele>535.20001220703</ele>
        <time>2026-05-11T08:15:45.000Z</time>
      </trkpt>
      <trkpt lat="45.29589" lon="4.56071">
        <ele>535.20001220703</ele>
        <time>2026-05-11T08:15:46.000Z</time>
      </trkpt>
      <trkpt lat="45.2959" lon="4.56068">
        <ele>535.20001220703</ele>
        <time>2026-05-11T08:15:47.000Z</time>
      </trkpt>
      <trkpt lat="45.29591" lon="4.56066">
        <ele>535.20001220703</ele>
        <time>2026-05-11T08:15:48.000Z</time>
      </trkpt>
      <trkpt lat="45.29592" lon="4.56064">
        <ele>535</ele>
        <time>2026-05-11T08:15:49.000Z</time>
      </trkpt>
      <trkpt lat="45.29593" lon="4.56061">
        <ele>535</ele>
        <time>2026-05-11T08:15:50.000Z</time>
      </trkpt>
      <trkpt lat="45.29595" lon="4.56059">
        <ele>535.20001220703</ele>
        <time>2026-05-11T08:15:51.000Z</time>
      </trkpt>
      <trkpt lat="45.29597" lon="4.56057">
        <ele>535.20001220703</ele>
        <time>2026-05-11T08:15:52.000Z</time>
      </trkpt>
      <trkpt lat="45.29598" lon="4.56055">
        <ele>535.20001220703</ele>
        <time>2026-05-11T08:15:53.000Z</time>
      </trkpt>
      <trkpt lat="45.29601" lon="4.56054">
        <ele>535.20001220703</ele>
        <time>2026-05-11T08:15:54.000Z</time>
      </trkpt>
      <trkpt lat="45.29603" lon="4.56053">
        <ele>535.40002441406</ele>
        <time>2026-05-11T08:15:55.000Z</time>
      </trkpt>
      <trkpt lat="45.29605" lon="4.56051">
        <ele>535.40002441406</ele>
        <time>2026-05-11T08:15:56.000Z</time>
      </trkpt>
      <trkpt lat="45.29607" lon="4.5605">
        <ele>535.40002441406</ele>
        <time>2026-05-11T08:15:57.000Z</time>
      </trkpt>
      <trkpt lat="45.29608" lon="4.56049">
        <ele>535.59997558594</ele>
        <time>2026-05-11T08:15:58.000Z</time>
      </trkpt>
      <trkpt lat="45.29609" lon="4.56047">
        <ele>535.59997558594</ele>
        <time>2026-05-11T08:15:59.000Z</time>
      </trkpt>
      <trkpt lat="45.29609" lon="4.56044">
        <ele>535.59997558594</ele>
        <time>2026-05-11T08:16:00.000Z</time>
      </trkpt>
      <trkpt lat="45.29608" lon="4.56042">
        <ele>535.79998779297</ele>
        <time>2026-05-11T08:16:01.000Z</time>
      </trkpt>
      <trkpt lat="45.29607" lon="4.5604">
        <ele>535.79998779297</ele>
        <time>2026-05-11T08:16:02.000Z</time>
      </trkpt>
      <trkpt lat="45.29606" lon="4.56036">
        <ele>535.79998779297</ele>
        <time>2026-05-11T08:16:03.000Z</time>
      </trkpt>
      <trkpt lat="45.29605" lon="4.56033">
        <ele>535.79998779297</ele>
        <time>2026-05-11T08:16:04.000Z</time>
      </trkpt>
      <trkpt lat="45.29604" lon="4.56029">
        <ele>536</ele>
        <time>2026-05-11T08:16:05.000Z</time>
      </trkpt>
      <trkpt lat="45.29603" lon="4.56026">
        <ele>536.20001220703</ele>
        <time>2026-05-11T08:16:06.000Z</time>
      </trkpt>
      <trkpt lat="45.29602" lon="4.56023">
        <ele>536.40002441406</ele>
        <time>2026-05-11T08:16:07.000Z</time>
      </trkpt>
      <trkpt lat="45.29601" lon="4.5602">
        <ele>536.59997558594</ele>
        <time>2026-05-11T08:16:08.000Z</time>
      </trkpt>
      <trkpt lat="45.296" lon="4.56017">
        <ele>536.79998779297</ele>
        <time>2026-05-11T08:16:09.000Z</time>
      </trkpt>
      <trkpt lat="45.29599" lon="4.56014">
        <ele>537</ele>
        <time>2026-05-11T08:16:10.000Z</time>
      </trkpt>
      <trkpt lat="45.29599" lon="4.5601">
        <ele>537.20001220703</ele>
        <time>2026-05-11T08:16:11.000Z</time>
      </trkpt>
      <trkpt lat="45.29597" lon="4.56008">
        <ele>537.40002441406</ele>
        <time>2026-05-11T08:16:12.000Z</time>
      </trkpt>
      <trkpt lat="45.29597" lon="4.56005">
        <ele>537.59997558594</ele>
        <time>2026-05-11T08:16:13.000Z</time>
      </trkpt>
      <trkpt lat="45.29596" lon="4.56002">
        <ele>537.79998779297</ele>
        <time>2026-05-11T08:16:14.000Z</time>
      </trkpt>
      <trkpt lat="45.29595" lon="4.55999">
        <ele>538</ele>
        <time>2026-05-11T08:16:15.000Z</time>
      </trkpt>
      <trkpt lat="45.29593" lon="4.55996">
        <ele>538.20001220703</ele>
        <time>2026-05-11T08:16:16.000Z</time>
      </trkpt>
      <trkpt lat="45.29592" lon="4.55992">
        <ele>538.40002441406</ele>
        <time>2026-05-11T08:16:17.000Z</time>
      </trkpt>
      <trkpt lat="45.29591" lon="4.55989">
        <ele>538.59997558594</ele>
        <time>2026-05-11T08:16:18.000Z</time>
      </trkpt>
      <trkpt lat="45.29591" lon="4.55985">
        <ele>538.79998779297</ele>
        <time>2026-05-11T08:16:19.000Z</time>
      </trkpt>
      <trkpt lat="45.2959" lon="4.55982">
        <ele>538.79998779297</ele>
        <time>2026-05-11T08:16:20.000Z</time>
      </trkpt>
      <trkpt lat="45.29591" lon="4.55978">
        <ele>539</ele>
        <time>2026-05-11T08:16:21.000Z</time>
      </trkpt>
      <trkpt lat="45.29592" lon="4.55975">
        <ele>539</ele>
        <time>2026-05-11T08:16:22.000Z</time>
      </trkpt>
      <trkpt lat="45.29593" lon="4.55972">
        <ele>539.20001220703</ele>
        <time>2026-05-11T08:16:23.000Z</time>
      </trkpt>
      <trkpt lat="45.29594" lon="4.5597">
        <ele>539.20001220703</ele>
        <time>2026-05-11T08:16:24.000Z</time>
      </trkpt>
      <trkpt lat="45.29595" lon="4.55968">
        <ele>539.20001220703</ele>
        <time>2026-05-11T08:16:25.000Z</time>
      </trkpt>
      <trkpt lat="45.29597" lon="4.55966">
        <ele>539.20001220703</ele>
        <time>2026-05-11T08:16:26.000Z</time>
      </trkpt>
      <trkpt lat="45.29599" lon="4.55964">
        <ele>539.20001220703</ele>
        <time>2026-05-11T08:16:27.000Z</time>
      </trkpt>
      <trkpt lat="45.296" lon="4.55961">
        <ele>539.40002441406</ele>
        <time>2026-05-11T08:16:28.000Z</time>
      </trkpt>
      <trkpt lat="45.29601" lon="4.55958">
        <ele>539.40002441406</ele>
        <time>2026-05-11T08:16:29.000Z</time>
      </trkpt>
      <trkpt lat="45.29602" lon="4.55955">
        <ele>539.59997558594</ele>
        <time>2026-05-11T08:16:30.000Z</time>
      </trkpt>
      <trkpt lat="45.29602" lon="4.55952">
        <ele>539.59997558594</ele>
        <time>2026-05-11T08:16:31.000Z</time>
      </trkpt>
      <trkpt lat="45.29601" lon="4.55949">
        <ele>539.79998779297</ele>
        <time>2026-05-11T08:16:32.000Z</time>
      </trkpt>
      <trkpt lat="45.29601" lon="4.55946">
        <ele>539.79998779297</ele>
        <time>2026-05-11T08:16:33.000Z</time>
      </trkpt>
      <trkpt lat="45.296" lon="4.55943">
        <ele>540</ele>
        <time>2026-05-11T08:16:34.000Z</time>
      </trkpt>
      <trkpt lat="45.29598" lon="4.5594">
        <ele>540</ele>
        <time>2026-05-11T08:16:35.000Z</time>
      </trkpt>
      <trkpt lat="45.29597" lon="4.55937">
        <ele>540</ele>
        <time>2026-05-11T08:16:36.000Z</time>
      </trkpt>
      <trkpt lat="45.29594" lon="4.55934">
        <ele>540.20001220703</ele>
        <time>2026-05-11T08:16:37.000Z</time>
      </trkpt>
      <trkpt lat="45.29592" lon="4.55932">
        <ele>540.20001220703</ele>
        <time>2026-05-11T08:16:38.000Z</time>
      </trkpt>
      <trkpt lat="45.2959" lon="4.5593">
        <ele>540.20001220703</ele>
        <time>2026-05-11T08:16:39.000Z</time>
      </trkpt>
      <trkpt lat="45.29588" lon="4.55928">
        <ele>540.40002441406</ele>
        <time>2026-05-11T08:16:40.000Z</time>
      </trkpt>
      <trkpt lat="45.29586" lon="4.55925">
        <ele>540.40002441406</ele>
        <time>2026-05-11T08:16:41.000Z</time>
      </trkpt>
      <trkpt lat="45.29584" lon="4.55923">
        <ele>540.40002441406</ele>
        <time>2026-05-11T08:16:42.000Z</time>
      </trkpt>
      <trkpt lat="45.29582" lon="4.5592">
        <ele>540.40002441406</ele>
        <time>2026-05-11T08:16:43.000Z</time>
      </trkpt>
      <trkpt lat="45.29581" lon="4.55917">
        <ele>540.59997558594</ele>
        <time>2026-05-11T08:16:44.000Z</time>
      </trkpt>
      <trkpt lat="45.29579" lon="4.55914">
        <ele>540.59997558594</ele>
        <time>2026-05-11T08:16:45.000Z</time>
      </trkpt>
      <trkpt lat="45.29577" lon="4.55911">
        <ele>540.59997558594</ele>
        <time>2026-05-11T08:16:46.000Z</time>
      </trkpt>
      <trkpt lat="45.29574" lon="4.55908">
        <ele>540.79998779297</ele>
        <time>2026-05-11T08:16:47.000Z</time>
      </trkpt>
      <trkpt lat="45.29572" lon="4.55906">
        <ele>540.79998779297</ele>
        <time>2026-05-11T08:16:48.000Z</time>
      </trkpt>
      <trkpt lat="45.29569" lon="4.55903">
        <ele>540.79998779297</ele>
        <time>2026-05-11T08:16:49.000Z</time>
      </trkpt>
      <trkpt lat="45.29567" lon="4.55901">
        <ele>541</ele>
        <time>2026-05-11T08:16:50.000Z</time>
      </trkpt>
      <trkpt lat="45.29564" lon="4.55898">
        <ele>541</ele>
        <time>2026-05-11T08:16:51.000Z</time>
      </trkpt>
      <trkpt lat="45.29562" lon="4.55895">
        <ele>541.20001220703</ele>
        <time>2026-05-11T08:16:52.000Z</time>
      </trkpt>
      <trkpt lat="45.2956" lon="4.55892">
        <ele>541.20001220703</ele>
        <time>2026-05-11T08:16:53.000Z</time>
      </trkpt>
      <trkpt lat="45.29558" lon="4.55889">
        <ele>541.40002441406</ele>
        <time>2026-05-11T08:16:54.000Z</time>
      </trkpt>
      <trkpt lat="45.29556" lon="4.55886">
        <ele>541.40002441406</ele>
        <time>2026-05-11T08:16:55.000Z</time>
      </trkpt>
      <trkpt lat="45.29554" lon="4.55883">
        <ele>541.59997558594</ele>
        <time>2026-05-11T08:16:56.000Z</time>
      </trkpt>
      <trkpt lat="45.29552" lon="4.5588">
        <ele>541.59997558594</ele>
        <time>2026-05-11T08:16:57.000Z</time>
      </trkpt>
      <trkpt lat="45.2955" lon="4.55877">
        <ele>541.59997558594</ele>
        <time>2026-05-11T08:16:58.000Z</time>
      </trkpt>
      <trkpt lat="45.29549" lon="4.55874">
        <ele>541.59997558594</ele>
        <time>2026-05-11T08:16:59.000Z</time>
      </trkpt>
      <trkpt lat="45.29547" lon="4.5587">
        <ele>541.79998779297</ele>
        <time>2026-05-11T08:17:00.000Z</time>
      </trkpt>
      <trkpt lat="45.29546" lon="4.55866">
        <ele>541.79998779297</ele>
        <time>2026-05-11T08:17:01.000Z</time>
      </trkpt>
      <trkpt lat="45.29544" lon="4.55863">
        <ele>541.79998779297</ele>
        <time>2026-05-11T08:17:02.000Z</time>
      </trkpt>
      <trkpt lat="45.29542" lon="4.5586">
        <ele>542</ele>
        <time>2026-05-11T08:17:03.000Z</time>
      </trkpt>
      <trkpt lat="45.29541" lon="4.55857">
        <ele>542</ele>
        <time>2026-05-11T08:17:04.000Z</time>
      </trkpt>
      <trkpt lat="45.29539" lon="4.55853">
        <ele>542</ele>
        <time>2026-05-11T08:17:05.000Z</time>
      </trkpt>
      <trkpt lat="45.29537" lon="4.5585">
        <ele>542.20001220703</ele>
        <time>2026-05-11T08:17:06.000Z</time>
      </trkpt>
      <trkpt lat="45.29536" lon="4.55847">
        <ele>542.20001220703</ele>
        <time>2026-05-11T08:17:07.000Z</time>
      </trkpt>
      <trkpt lat="45.29534" lon="4.55844">
        <ele>542.20001220703</ele>
        <time>2026-05-11T08:17:08.000Z</time>
      </trkpt>
      <trkpt lat="45.29532" lon="4.5584">
        <ele>542.40002441406</ele>
        <time>2026-05-11T08:17:09.000Z</time>
      </trkpt>
      <trkpt lat="45.2953" lon="4.55837">
        <ele>542.40002441406</ele>
        <time>2026-05-11T08:17:10.000Z</time>
      </trkpt>
      <trkpt lat="45.29528" lon="4.55834">
        <ele>542.40002441406</ele>
        <time>2026-05-11T08:17:11.000Z</time>
      </trkpt>
      <trkpt lat="45.29527" lon="4.55831">
        <ele>542.40002441406</ele>
        <time>2026-05-11T08:17:12.000Z</time>
      </trkpt>
      <trkpt lat="45.29525" lon="4.55828">
        <ele>542.59997558594</ele>
        <time>2026-05-11T08:17:13.000Z</time>
      </trkpt>
      <trkpt lat="45.29523" lon="4.55825">
        <ele>542.59997558594</ele>
        <time>2026-05-11T08:17:14.000Z</time>
      </trkpt>
      <trkpt lat="45.29521" lon="4.55822">
        <ele>542.59997558594</ele>
        <time>2026-05-11T08:17:15.000Z</time>
      </trkpt>
      <trkpt lat="45.29519" lon="4.55818">
        <ele>542.59997558594</ele>
        <time>2026-05-11T08:17:16.000Z</time>
      </trkpt>
      <trkpt lat="45.29517" lon="4.55815">
        <ele>542.79998779297</ele>
        <time>2026-05-11T08:17:17.000Z</time>
      </trkpt>
      <trkpt lat="45.29516" lon="4.55812">
        <ele>542.79998779297</ele>
        <time>2026-05-11T08:17:18.000Z</time>
      </trkpt>
      <trkpt lat="45.29514" lon="4.55809">
        <ele>542.79998779297</ele>
        <time>2026-05-11T08:17:19.000Z</time>
      </trkpt>
      <trkpt lat="45.29512" lon="4.55805">
        <ele>542.79998779297</ele>
        <time>2026-05-11T08:17:20.000Z</time>
      </trkpt>
      <trkpt lat="45.2951" lon="4.55802">
        <ele>543</ele>
        <time>2026-05-11T08:17:21.000Z</time>
      </trkpt>
      <trkpt lat="45.29508" lon="4.55799">
        <ele>543</ele>
        <time>2026-05-11T08:17:22.000Z</time>
      </trkpt>
      <trkpt lat="45.29505" lon="4.55796">
        <ele>543</ele>
        <time>2026-05-11T08:17:23.000Z</time>
      </trkpt>
      <trkpt lat="45.29503" lon="4.55793">
        <ele>543</ele>
        <time>2026-05-11T08:17:24.000Z</time>
      </trkpt>
      <trkpt lat="45.295" lon="4.55789">
        <ele>543</ele>
        <time>2026-05-11T08:17:25.000Z</time>
      </trkpt>
      <trkpt lat="45.29497" lon="4.55786">
        <ele>543</ele>
        <time>2026-05-11T08:17:26.000Z</time>
      </trkpt>
      <trkpt lat="45.29494" lon="4.55782">
        <ele>542.79998779297</ele>
        <time>2026-05-11T08:17:27.000Z</time>
      </trkpt>
      <trkpt lat="45.29491" lon="4.55779">
        <ele>542.79998779297</ele>
        <time>2026-05-11T08:17:28.000Z</time>
      </trkpt>
      <trkpt lat="45.29488" lon="4.55776">
        <ele>542.79998779297</ele>
        <time>2026-05-11T08:17:29.000Z</time>
      </trkpt>
      <trkpt lat="45.29484" lon="4.55772">
        <ele>542.59997558594</ele>
        <time>2026-05-11T08:17:30.000Z</time>
      </trkpt>
      <trkpt lat="45.29481" lon="4.55768">
        <ele>542.59997558594</ele>
        <time>2026-05-11T08:17:31.000Z</time>
      </trkpt>
      <trkpt lat="45.29478" lon="4.55764">
        <ele>542.40002441406</ele>
        <time>2026-05-11T08:17:32.000Z</time>
      </trkpt>
      <trkpt lat="45.29474" lon="4.5576">
        <ele>542.20001220703</ele>
        <time>2026-05-11T08:17:33.000Z</time>
      </trkpt>
      <trkpt lat="45.2947" lon="4.55756">
        <ele>542.20001220703</ele>
        <time>2026-05-11T08:17:34.000Z</time>
      </trkpt>
      <trkpt lat="45.29467" lon="4.55751">
        <ele>542</ele>
        <time>2026-05-11T08:17:35.000Z</time>
      </trkpt>
      <trkpt lat="45.29463" lon="4.55747">
        <ele>541.79998779297</ele>
        <time>2026-05-11T08:17:36.000Z</time>
      </trkpt>
      <trkpt lat="45.2946" lon="4.55742">
        <ele>541.59997558594</ele>
        <time>2026-05-11T08:17:37.000Z</time>
      </trkpt>
      <trkpt lat="45.29456" lon="4.55736">
        <ele>541.59997558594</ele>
        <time>2026-05-11T08:17:38.000Z</time>
      </trkpt>
      <trkpt lat="45.29453" lon="4.55731">
        <ele>541.40002441406</ele>
        <time>2026-05-11T08:17:39.000Z</time>
      </trkpt>
      <trkpt lat="45.2945" lon="4.55726">
        <ele>541.20001220703</ele>
        <time>2026-05-11T08:17:40.000Z</time>
      </trkpt>
      <trkpt lat="45.29446" lon="4.5572">
        <ele>541.20001220703</ele>
        <time>2026-05-11T08:17:41.000Z</time>
      </trkpt>
      <trkpt lat="45.29443" lon="4.55716">
        <ele>541</ele>
        <time>2026-05-11T08:17:42.000Z</time>
      </trkpt>
      <trkpt lat="45.2944" lon="4.5571">
        <ele>541</ele>
        <time>2026-05-11T08:17:43.000Z</time>
      </trkpt>
      <trkpt lat="45.29437" lon="4.55706">
        <ele>540.79998779297</ele>
        <time>2026-05-11T08:17:44.000Z</time>
      </trkpt>
      <trkpt lat="45.29434" lon="4.55702">
        <ele>540.79998779297</ele>
        <time>2026-05-11T08:17:45.000Z</time>
      </trkpt>
      <trkpt lat="45.29431" lon="4.55698">
        <ele>540.59997558594</ele>
        <time>2026-05-11T08:17:46.000Z</time>
      </trkpt>
      <trkpt lat="45.29428" lon="4.55693">
        <ele>540.59997558594</ele>
        <time>2026-05-11T08:17:47.000Z</time>
      </trkpt>
      <trkpt lat="45.29426" lon="4.55689">
        <ele>540.59997558594</ele>
        <time>2026-05-11T08:17:48.000Z</time>
      </trkpt>
      <trkpt lat="45.29423" lon="4.55684">
        <ele>540.59997558594</ele>
        <time>2026-05-11T08:17:49.000Z</time>
      </trkpt>
      <trkpt lat="45.29421" lon="4.5568">
        <ele>540.59997558594</ele>
        <time>2026-05-11T08:17:50.000Z</time>
      </trkpt>
      <trkpt lat="45.29418" lon="4.55677">
        <ele>540.59997558594</ele>
        <time>2026-05-11T08:17:51.000Z</time>
      </trkpt>
      <trkpt lat="45.29415" lon="4.55673">
        <ele>540.79998779297</ele>
        <time>2026-05-11T08:17:52.000Z</time>
      </trkpt>
      <trkpt lat="45.29412" lon="4.5567">
        <ele>540.79998779297</ele>
        <time>2026-05-11T08:17:53.000Z</time>
      </trkpt>
      <trkpt lat="45.29409" lon="4.55666">
        <ele>540.79998779297</ele>
        <time>2026-05-11T08:17:54.000Z</time>
      </trkpt>
      <trkpt lat="45.29406" lon="4.55662">
        <ele>540.79998779297</ele>
        <time>2026-05-11T08:17:55.000Z</time>
      </trkpt>
      <trkpt lat="45.29403" lon="4.55659">
        <ele>541</ele>
        <time>2026-05-11T08:17:56.000Z</time>
      </trkpt>
      <trkpt lat="45.29401" lon="4.55655">
        <ele>541</ele>
        <time>2026-05-11T08:17:57.000Z</time>
      </trkpt>
      <trkpt lat="45.29398" lon="4.55652">
        <ele>541</ele>
        <time>2026-05-11T08:17:58.000Z</time>
      </trkpt>
      <trkpt lat="45.29396" lon="4.55648">
        <ele>541</ele>
        <time>2026-05-11T08:17:59.000Z</time>
      </trkpt>
      <trkpt lat="45.29393" lon="4.55645">
        <ele>541</ele>
        <time>2026-05-11T08:18:00.000Z</time>
      </trkpt>
      <trkpt lat="45.29391" lon="4.55641">
        <ele>541.20001220703</ele>
        <time>2026-05-11T08:18:01.000Z</time>
      </trkpt>
      <trkpt lat="45.29388" lon="4.55637">
        <ele>541.20001220703</ele>
        <time>2026-05-11T08:18:02.000Z</time>
      </trkpt>
      <trkpt lat="45.29385" lon="4.55633">
        <ele>541.40002441406</ele>
        <time>2026-05-11T08:18:03.000Z</time>
      </trkpt>
      <trkpt lat="45.29383" lon="4.55629">
        <ele>541.40002441406</ele>
        <time>2026-05-11T08:18:04.000Z</time>
      </trkpt>
      <trkpt lat="45.29381" lon="4.55625">
        <ele>541.59997558594</ele>
        <time>2026-05-11T08:18:05.000Z</time>
      </trkpt>
      <trkpt lat="45.29379" lon="4.55621">
        <ele>541.59997558594</ele>
        <time>2026-05-11T08:18:06.000Z</time>
      </trkpt>
      <trkpt lat="45.29377" lon="4.55617">
        <ele>541.79998779297</ele>
        <time>2026-05-11T08:18:07.000Z</time>
      </trkpt>
      <trkpt lat="45.29375" lon="4.55614">
        <ele>541.79998779297</ele>
        <time>2026-05-11T08:18:08.000Z</time>
      </trkpt>
      <trkpt lat="45.29373" lon="4.55611">
        <ele>541.79998779297</ele>
        <time>2026-05-11T08:18:09.000Z</time>
      </trkpt>
      <trkpt lat="45.29371" lon="4.55608">
        <ele>542</ele>
        <time>2026-05-11T08:18:10.000Z</time>
      </trkpt>
      <trkpt lat="45.2937" lon="4.55605">
        <ele>542</ele>
        <time>2026-05-11T08:18:11.000Z</time>
      </trkpt>
      <trkpt lat="45.29367" lon="4.55602">
        <ele>542.20001220703</ele>
        <time>2026-05-11T08:18:12.000Z</time>
      </trkpt>
      <trkpt lat="45.29366" lon="4.55599">
        <ele>542.20001220703</ele>
        <time>2026-05-11T08:18:13.000Z</time>
      </trkpt>
      <trkpt lat="45.29364" lon="4.55595">
        <ele>542.40002441406</ele>
        <time>2026-05-11T08:18:14.000Z</time>
      </trkpt>
      <trkpt lat="45.29363" lon="4.55591">
        <ele>542.40002441406</ele>
        <time>2026-05-11T08:18:15.000Z</time>
      </trkpt>
      <trkpt lat="45.29361" lon="4.55588">
        <ele>542.40002441406</ele>
        <time>2026-05-11T08:18:16.000Z</time>
      </trkpt>
      <trkpt lat="45.2936" lon="4.55584">
        <ele>542.59997558594</ele>
        <time>2026-05-11T08:18:17.000Z</time>
      </trkpt>
      <trkpt lat="45.29359" lon="4.5558">
        <ele>542.59997558594</ele>
        <time>2026-05-11T08:18:18.000Z</time>
      </trkpt>
      <trkpt lat="45.29358" lon="4.55576">
        <ele>542.79998779297</ele>
        <time>2026-05-11T08:18:19.000Z</time>
      </trkpt>
      <trkpt lat="45.29357" lon="4.55572">
        <ele>542.79998779297</ele>
        <time>2026-05-11T08:18:20.000Z</time>
      </trkpt>
      <trkpt lat="45.29356" lon="4.55568">
        <ele>543</ele>
        <time>2026-05-11T08:18:21.000Z</time>
      </trkpt>
      <trkpt lat="45.29355" lon="4.55565">
        <ele>543</ele>
        <time>2026-05-11T08:18:22.000Z</time>
      </trkpt>
      <trkpt lat="45.29353" lon="4.55561">
        <ele>543.20001220703</ele>
        <time>2026-05-11T08:18:23.000Z</time>
      </trkpt>
      <trkpt lat="45.29352" lon="4.55558">
        <ele>543.20001220703</ele>
        <time>2026-05-11T08:18:24.000Z</time>
      </trkpt>
      <trkpt lat="45.29351" lon="4.55554">
        <ele>543.40002441406</ele>
        <time>2026-05-11T08:18:25.000Z</time>
      </trkpt>
      <trkpt lat="45.2935" lon="4.55551">
        <ele>543.59997558594</ele>
        <time>2026-05-11T08:18:26.000Z</time>
      </trkpt>
      <trkpt lat="45.29348" lon="4.55547">
        <ele>543.59997558594</ele>
        <time>2026-05-11T08:18:27.000Z</time>
      </trkpt>
      <trkpt lat="45.29347" lon="4.55544">
        <ele>543.59997558594</ele>
        <time>2026-05-11T08:18:28.000Z</time>
      </trkpt>
      <trkpt lat="45.29346" lon="4.5554">
        <ele>543.79998779297</ele>
        <time>2026-05-11T08:18:29.000Z</time>
      </trkpt>
      <trkpt lat="45.29346" lon="4.55536">
        <ele>544</ele>
        <time>2026-05-11T08:18:30.000Z</time>
      </trkpt>
      <trkpt lat="45.29345" lon="4.55532">
        <ele>544</ele>
        <time>2026-05-11T08:18:31.000Z</time>
      </trkpt>
      <trkpt lat="45.29344" lon="4.55528">
        <ele>544.20001220703</ele>
        <time>2026-05-11T08:18:32.000Z</time>
      </trkpt>
      <trkpt lat="45.29343" lon="4.55525">
        <ele>544.40002441406</ele>
        <time>2026-05-11T08:18:33.000Z</time>
      </trkpt>
      <trkpt lat="45.29342" lon="4.55521">
        <ele>544.59997558594</ele>
        <time>2026-05-11T08:18:34.000Z</time>
      </trkpt>
      <trkpt lat="45.29341" lon="4.55518">
        <ele>544.59997558594</ele>
        <time>2026-05-11T08:18:35.000Z</time>
      </trkpt>
      <trkpt lat="45.29341" lon="4.55514">
        <ele>544.79998779297</ele>
        <time>2026-05-11T08:18:36.000Z</time>
      </trkpt>
      <trkpt lat="45.2934" lon="4.55511">
        <ele>545</ele>
        <time>2026-05-11T08:18:37.000Z</time>
      </trkpt>
      <trkpt lat="45.29339" lon="4.55507">
        <ele>545.20001220703</ele>
        <time>2026-05-11T08:18:38.000Z</time>
      </trkpt>
      <trkpt lat="45.29338" lon="4.55504">
        <ele>545.20001220703</ele>
        <time>2026-05-11T08:18:39.000Z</time>
      </trkpt>
      <trkpt lat="45.29337" lon="4.555">
        <ele>545.40002441406</ele>
        <time>2026-05-11T08:18:40.000Z</time>
      </trkpt>
      <trkpt lat="45.29336" lon="4.55496">
        <ele>545.59997558594</ele>
        <time>2026-05-11T08:18:41.000Z</time>
      </trkpt>
      <trkpt lat="45.29335" lon="4.55493">
        <ele>545.59997558594</ele>
        <time>2026-05-11T08:18:42.000Z</time>
      </trkpt>
      <trkpt lat="45.29333" lon="4.5549">
        <ele>545.79998779297</ele>
        <time>2026-05-11T08:18:43.000Z</time>
      </trkpt>
      <trkpt lat="45.29332" lon="4.55487">
        <ele>545.79998779297</ele>
        <time>2026-05-11T08:18:44.000Z</time>
      </trkpt>
      <trkpt lat="45.29331" lon="4.55484">
        <ele>546</ele>
        <time>2026-05-11T08:18:45.000Z</time>
      </trkpt>
      <trkpt lat="45.29329" lon="4.55481">
        <ele>546</ele>
        <time>2026-05-11T08:18:46.000Z</time>
      </trkpt>
      <trkpt lat="45.29328" lon="4.55478">
        <ele>546.20001220703</ele>
        <time>2026-05-11T08:18:47.000Z</time>
      </trkpt>
      <trkpt lat="45.29327" lon="4.55476">
        <ele>546.40002441406</ele>
        <time>2026-05-11T08:18:48.000Z</time>
      </trkpt>
      <trkpt lat="45.29325" lon="4.55473">
        <ele>546.59997558594</ele>
        <time>2026-05-11T08:18:49.000Z</time>
      </trkpt>
      <trkpt lat="45.29324" lon="4.5547">
        <ele>546.59997558594</ele>
        <time>2026-05-11T08:18:50.000Z</time>
      </trkpt>
      <trkpt lat="45.29323" lon="4.55468">
        <ele>546.79998779297</ele>
        <time>2026-05-11T08:18:51.000Z</time>
      </trkpt>
      <trkpt lat="45.29321" lon="4.55465">
        <ele>547</ele>
        <time>2026-05-11T08:18:52.000Z</time>
      </trkpt>
      <trkpt lat="45.2932" lon="4.55462">
        <ele>547</ele>
        <time>2026-05-11T08:18:53.000Z</time>
      </trkpt>
      <trkpt lat="45.29319" lon="4.55459">
        <ele>547.20001220703</ele>
        <time>2026-05-11T08:18:54.000Z</time>
      </trkpt>
      <trkpt lat="45.29318" lon="4.55456">
        <ele>547.20001220703</ele>
        <time>2026-05-11T08:18:55.000Z</time>
      </trkpt>
      <trkpt lat="45.29316" lon="4.55454">
        <ele>547.40002441406</ele>
        <time>2026-05-11T08:18:56.000Z</time>
      </trkpt>
      <trkpt lat="45.29315" lon="4.55451">
        <ele>547.40002441406</ele>
        <time>2026-05-11T08:18:57.000Z</time>
      </trkpt>
      <trkpt lat="45.29314" lon="4.55448">
        <ele>547.59997558594</ele>
        <time>2026-05-11T08:18:58.000Z</time>
      </trkpt>
      <trkpt lat="45.29313" lon="4.55445">
        <ele>547.59997558594</ele>
        <time>2026-05-11T08:18:59.000Z</time>
      </trkpt>
      <trkpt lat="45.29312" lon="4.55443">
        <ele>547.79998779297</ele>
        <time>2026-05-11T08:19:00.000Z</time>
      </trkpt>
      <trkpt lat="45.29311" lon="4.5544">
        <ele>548</ele>
        <time>2026-05-11T08:19:01.000Z</time>
      </trkpt>
      <trkpt lat="45.2931" lon="4.55437">
        <ele>548.20001220703</ele>
        <time>2026-05-11T08:19:02.000Z</time>
      </trkpt>
      <trkpt lat="45.29309" lon="4.55434">
        <ele>548.20001220703</ele>
        <time>2026-05-11T08:19:03.000Z</time>
      </trkpt>
      <trkpt lat="45.29309" lon="4.55431">
        <ele>548.40002441406</ele>
        <time>2026-05-11T08:19:04.000Z</time>
      </trkpt>
      <trkpt lat="45.29308" lon="4.55428">
        <ele>548.59997558594</ele>
        <time>2026-05-11T08:19:05.000Z</time>
      </trkpt>
      <trkpt lat="45.29307" lon="4.55426">
        <ele>548.59997558594</ele>
        <time>2026-05-11T08:19:06.000Z</time>
      </trkpt>
      <trkpt lat="45.29306" lon="4.55423">
        <ele>548.79998779297</ele>
        <time>2026-05-11T08:19:07.000Z</time>
      </trkpt>
      <trkpt lat="45.29305" lon="4.5542">
        <ele>549</ele>
        <time>2026-05-11T08:19:08.000Z</time>
      </trkpt>
      <trkpt lat="45.29304" lon="4.55417">
        <ele>549</ele>
        <time>2026-05-11T08:19:09.000Z</time>
      </trkpt>
      <trkpt lat="45.29303" lon="4.55414">
        <ele>549.20001220703</ele>
        <time>2026-05-11T08:19:10.000Z</time>
      </trkpt>
      <trkpt lat="45.29302" lon="4.55411">
        <ele>549.40002441406</ele>
        <time>2026-05-11T08:19:11.000Z</time>
      </trkpt>
      <trkpt lat="45.29301" lon="4.55408">
        <ele>549.59997558594</ele>
        <time>2026-05-11T08:19:12.000Z</time>
      </trkpt>
      <trkpt lat="45.293" lon="4.55405">
        <ele>549.79998779297</ele>
        <time>2026-05-11T08:19:13.000Z</time>
      </trkpt>
      <trkpt lat="45.29299" lon="4.55402">
        <ele>549.79998779297</ele>
        <time>2026-05-11T08:19:14.000Z</time>
      </trkpt>
      <trkpt lat="45.29298" lon="4.554">
        <ele>550</ele>
        <time>2026-05-11T08:19:15.000Z</time>
      </trkpt>
      <trkpt lat="45.29297" lon="4.55397">
        <ele>550.20001220703</ele>
        <time>2026-05-11T08:19:16.000Z</time>
      </trkpt>
      <trkpt lat="45.29296" lon="4.55394">
        <ele>550.40002441406</ele>
        <time>2026-05-11T08:19:17.000Z</time>
      </trkpt>
      <trkpt lat="45.29294" lon="4.55392">
        <ele>550.40002441406</ele>
        <time>2026-05-11T08:19:18.000Z</time>
      </trkpt>
      <trkpt lat="45.29293" lon="4.55389">
        <ele>550.59997558594</ele>
        <time>2026-05-11T08:19:19.000Z</time>
      </trkpt>
      <trkpt lat="45.29292" lon="4.55386">
        <ele>550.79998779297</ele>
        <time>2026-05-11T08:19:20.000Z</time>
      </trkpt>
      <trkpt lat="45.29291" lon="4.55384">
        <ele>551</ele>
        <time>2026-05-11T08:19:21.000Z</time>
      </trkpt>
      <trkpt lat="45.29289" lon="4.55381">
        <ele>551.20001220703</ele>
        <time>2026-05-11T08:19:22.000Z</time>
      </trkpt>
      <trkpt lat="45.29288" lon="4.55379">
        <ele>551.20001220703</ele>
        <time>2026-05-11T08:19:23.000Z</time>
      </trkpt>
      <trkpt lat="45.29287" lon="4.55376">
        <ele>551.40002441406</ele>
        <time>2026-05-11T08:19:24.000Z</time>
      </trkpt>
      <trkpt lat="45.29286" lon="4.55373">
        <ele>551.59997558594</ele>
        <time>2026-05-11T08:19:25.000Z</time>
      </trkpt>
      <trkpt lat="45.29285" lon="4.5537">
        <ele>551.59997558594</ele>
        <time>2026-05-11T08:19:26.000Z</time>
      </trkpt>
      <trkpt lat="45.29283" lon="4.55366">
        <ele>551.79998779297</ele>
        <time>2026-05-11T08:19:27.000Z</time>
      </trkpt>
      <trkpt lat="45.29282" lon="4.55363">
        <ele>551.79998779297</ele>
        <time>2026-05-11T08:19:28.000Z</time>
      </trkpt>
      <trkpt lat="45.29281" lon="4.55359">
        <ele>551.79998779297</ele>
        <time>2026-05-11T08:19:29.000Z</time>
      </trkpt>
      <trkpt lat="45.2928" lon="4.55356">
        <ele>551.79998779297</ele>
        <time>2026-05-11T08:19:30.000Z</time>
      </trkpt>
      <trkpt lat="45.29279" lon="4.55352">
        <ele>551.79998779297</ele>
        <time>2026-05-11T08:19:31.000Z</time>
      </trkpt>
      <trkpt lat="45.29277" lon="4.55349">
        <ele>552</ele>
        <time>2026-05-11T08:19:32.000Z</time>
      </trkpt>
      <trkpt lat="45.29276" lon="4.55345">
        <ele>552</ele>
        <time>2026-05-11T08:19:33.000Z</time>
      </trkpt>
      <trkpt lat="45.29275" lon="4.55341">
        <ele>552</ele>
        <time>2026-05-11T08:19:34.000Z</time>
      </trkpt>
      <trkpt lat="45.29273" lon="4.55337">
        <ele>552</ele>
        <time>2026-05-11T08:19:35.000Z</time>
      </trkpt>
      <trkpt lat="45.29272" lon="4.55333">
        <ele>552</ele>
        <time>2026-05-11T08:19:36.000Z</time>
      </trkpt>
      <trkpt lat="45.29271" lon="4.55329">
        <ele>552</ele>
        <time>2026-05-11T08:19:37.000Z</time>
      </trkpt>
      <trkpt lat="45.2927" lon="4.55325">
        <ele>552</ele>
        <time>2026-05-11T08:19:38.000Z</time>
      </trkpt>
      <trkpt lat="45.29269" lon="4.55322">
        <ele>552</ele>
        <time>2026-05-11T08:19:39.000Z</time>
      </trkpt>
      <trkpt lat="45.29268" lon="4.55318">
        <ele>552</ele>
        <time>2026-05-11T08:19:40.000Z</time>
      </trkpt>
      <trkpt lat="45.29266" lon="4.55314">
        <ele>552</ele>
        <time>2026-05-11T08:19:41.000Z</time>
      </trkpt>
      <trkpt lat="45.29265" lon="4.5531">
        <ele>552.20001220703</ele>
        <time>2026-05-11T08:19:42.000Z</time>
      </trkpt>
      <trkpt lat="45.29263" lon="4.55306">
        <ele>552.20001220703</ele>
        <time>2026-05-11T08:19:43.000Z</time>
      </trkpt>
      <trkpt lat="45.29262" lon="4.55302">
        <ele>552.20001220703</ele>
        <time>2026-05-11T08:19:44.000Z</time>
      </trkpt>
      <trkpt lat="45.29261" lon="4.55298">
        <ele>552.20001220703</ele>
        <time>2026-05-11T08:19:45.000Z</time>
      </trkpt>
      <trkpt lat="45.2926" lon="4.55294">
        <ele>552.20001220703</ele>
        <time>2026-05-11T08:19:46.000Z</time>
      </trkpt>
      <trkpt lat="45.29258" lon="4.55291">
        <ele>552.20001220703</ele>
        <time>2026-05-11T08:19:47.000Z</time>
      </trkpt>
      <trkpt lat="45.29257" lon="4.55287">
        <ele>552.20001220703</ele>
        <time>2026-05-11T08:19:48.000Z</time>
      </trkpt>
      <trkpt lat="45.29256" lon="4.55283">
        <ele>552.20001220703</ele>
        <time>2026-05-11T08:19:49.000Z</time>
      </trkpt>
      <trkpt lat="45.29254" lon="4.55279">
        <ele>552.20001220703</ele>
        <time>2026-05-11T08:19:50.000Z</time>
      </trkpt>
      <trkpt lat="45.29253" lon="4.55275">
        <ele>552.20001220703</ele>
        <time>2026-05-11T08:19:51.000Z</time>
      </trkpt>
      <trkpt lat="45.29251" lon="4.55271">
        <ele>552.40002441406</ele>
        <time>2026-05-11T08:19:52.000Z</time>
      </trkpt>
      <trkpt lat="45.2925" lon="4.55267">
        <ele>552.40002441406</ele>
        <time>2026-05-11T08:19:53.000Z</time>
      </trkpt>
      <trkpt lat="45.29248" lon="4.55264">
        <ele>552.40002441406</ele>
        <time>2026-05-11T08:19:54.000Z</time>
      </trkpt>
      <trkpt lat="45.29247" lon="4.5526">
        <ele>552.40002441406</ele>
        <time>2026-05-11T08:19:55.000Z</time>
      </trkpt>
      <trkpt lat="45.29246" lon="4.55256">
        <ele>552.40002441406</ele>
        <time>2026-05-11T08:19:56.000Z</time>
      </trkpt>
      <trkpt lat="45.29245" lon="4.55252">
        <ele>552.40002441406</ele>
        <time>2026-05-11T08:19:57.000Z</time>
      </trkpt>
      <trkpt lat="45.29243" lon="4.55248">
        <ele>552.40002441406</ele>
        <time>2026-05-11T08:19:58.000Z</time>
      </trkpt>
      <trkpt lat="45.29242" lon="4.55244">
        <ele>552.40002441406</ele>
        <time>2026-05-11T08:19:59.000Z</time>
      </trkpt>
      <trkpt lat="45.2924" lon="4.55239">
        <ele>552.40002441406</ele>
        <time>2026-05-11T08:20:00.000Z</time>
      </trkpt>
      <trkpt lat="45.29239" lon="4.55235">
        <ele>552.40002441406</ele>
        <time>2026-05-11T08:20:01.000Z</time>
      </trkpt>
      <trkpt lat="45.29238" lon="4.5523">
        <ele>552.40002441406</ele>
        <time>2026-05-11T08:20:02.000Z</time>
      </trkpt>
      <trkpt lat="45.29237" lon="4.55226">
        <ele>552.40002441406</ele>
        <time>2026-05-11T08:20:03.000Z</time>
      </trkpt>
      <trkpt lat="45.29236" lon="4.55221">
        <ele>552.40002441406</ele>
        <time>2026-05-11T08:20:04.000Z</time>
      </trkpt>
      <trkpt lat="45.29235" lon="4.55217">
        <ele>552.40002441406</ele>
        <time>2026-05-11T08:20:05.000Z</time>
      </trkpt>
      <trkpt lat="45.29234" lon="4.55213">
        <ele>552.40002441406</ele>
        <time>2026-05-11T08:20:06.000Z</time>
      </trkpt>
      <trkpt lat="45.29232" lon="4.55209">
        <ele>552.59997558594</ele>
        <time>2026-05-11T08:20:07.000Z</time>
      </trkpt>
      <trkpt lat="45.29231" lon="4.55205">
        <ele>552.59997558594</ele>
        <time>2026-05-11T08:20:08.000Z</time>
      </trkpt>
      <trkpt lat="45.2923" lon="4.55201">
        <ele>552.59997558594</ele>
        <time>2026-05-11T08:20:09.000Z</time>
      </trkpt>
      <trkpt lat="45.29228" lon="4.55197">
        <ele>552.59997558594</ele>
        <time>2026-05-11T08:20:10.000Z</time>
      </trkpt>
      <trkpt lat="45.29227" lon="4.55193">
        <ele>552.79998779297</ele>
        <time>2026-05-11T08:20:11.000Z</time>
      </trkpt>
      <trkpt lat="45.29226" lon="4.55189">
        <ele>552.79998779297</ele>
        <time>2026-05-11T08:20:12.000Z</time>
      </trkpt>
      <trkpt lat="45.29224" lon="4.55185">
        <ele>552.79998779297</ele>
        <time>2026-05-11T08:20:13.000Z</time>
      </trkpt>
      <trkpt lat="45.29223" lon="4.5518">
        <ele>552.79998779297</ele>
        <time>2026-05-11T08:20:14.000Z</time>
      </trkpt>
      <trkpt lat="45.29222" lon="4.55176">
        <ele>552.79998779297</ele>
        <time>2026-05-11T08:20:15.000Z</time>
      </trkpt>
      <trkpt lat="45.2922" lon="4.55172">
        <ele>552.79998779297</ele>
        <time>2026-05-11T08:20:16.000Z</time>
      </trkpt>
      <trkpt lat="45.29219" lon="4.55168">
        <ele>552.79998779297</ele>
        <time>2026-05-11T08:20:17.000Z</time>
      </trkpt>
      <trkpt lat="45.29218" lon="4.55164">
        <ele>552.79998779297</ele>
        <time>2026-05-11T08:20:18.000Z</time>
      </trkpt>
      <trkpt lat="45.29216" lon="4.5516">
        <ele>552.79998779297</ele>
        <time>2026-05-11T08:20:19.000Z</time>
      </trkpt>
      <trkpt lat="45.29214" lon="4.55156">
        <ele>553</ele>
        <time>2026-05-11T08:20:20.000Z</time>
      </trkpt>
      <trkpt lat="45.29213" lon="4.55152">
        <ele>553</ele>
        <time>2026-05-11T08:20:21.000Z</time>
      </trkpt>
      <trkpt lat="45.29211" lon="4.55148">
        <ele>553</ele>
        <time>2026-05-11T08:20:22.000Z</time>
      </trkpt>
      <trkpt lat="45.2921" lon="4.55144">
        <ele>553</ele>
        <time>2026-05-11T08:20:23.000Z</time>
      </trkpt>
      <trkpt lat="45.29209" lon="4.5514">
        <ele>553.20001220703</ele>
        <time>2026-05-11T08:20:24.000Z</time>
      </trkpt>
      <trkpt lat="45.29208" lon="4.55135">
        <ele>553.20001220703</ele>
        <time>2026-05-11T08:20:25.000Z</time>
      </trkpt>
      <trkpt lat="45.29206" lon="4.55131">
        <ele>553.20001220703</ele>
        <time>2026-05-11T08:20:26.000Z</time>
      </trkpt>
      <trkpt lat="45.29205" lon="4.55127">
        <ele>553.20001220703</ele>
        <time>2026-05-11T08:20:27.000Z</time>
      </trkpt>
      <trkpt lat="45.29204" lon="4.55124">
        <ele>553.40002441406</ele>
        <time>2026-05-11T08:20:28.000Z</time>
      </trkpt>
      <trkpt lat="45.29202" lon="4.5512">
        <ele>553.40002441406</ele>
        <time>2026-05-11T08:20:29.000Z</time>
      </trkpt>
      <trkpt lat="45.29201" lon="4.55115">
        <ele>553.40002441406</ele>
        <time>2026-05-11T08:20:30.000Z</time>
      </trkpt>
      <trkpt lat="45.292" lon="4.5511">
        <ele>553.40002441406</ele>
        <time>2026-05-11T08:20:31.000Z</time>
      </trkpt>
      <trkpt lat="45.29199" lon="4.55106">
        <ele>553.40002441406</ele>
        <time>2026-05-11T08:20:32.000Z</time>
      </trkpt>
      <trkpt lat="45.29198" lon="4.55101">
        <ele>553.40002441406</ele>
        <time>2026-05-11T08:20:33.000Z</time>
      </trkpt>
      <trkpt lat="45.29197" lon="4.55097">
        <ele>553.59997558594</ele>
        <time>2026-05-11T08:20:34.000Z</time>
      </trkpt>
      <trkpt lat="45.29196" lon="4.55094">
        <ele>553.59997558594</ele>
        <time>2026-05-11T08:20:35.000Z</time>
      </trkpt>
      <trkpt lat="45.29195" lon="4.5509">
        <ele>553.59997558594</ele>
        <time>2026-05-11T08:20:36.000Z</time>
      </trkpt>
      <trkpt lat="45.29194" lon="4.55085">
        <ele>553.59997558594</ele>
        <time>2026-05-11T08:20:37.000Z</time>
      </trkpt>
      <trkpt lat="45.29193" lon="4.55081">
        <ele>553.59997558594</ele>
        <time>2026-05-11T08:20:38.000Z</time>
      </trkpt>
      <trkpt lat="45.29191" lon="4.55076">
        <ele>553.79998779297</ele>
        <time>2026-05-11T08:20:39.000Z</time>
      </trkpt>
      <trkpt lat="45.2919" lon="4.55072">
        <ele>553.79998779297</ele>
        <time>2026-05-11T08:20:40.000Z</time>
      </trkpt>
      <trkpt lat="45.29189" lon="4.55068">
        <ele>553.79998779297</ele>
        <time>2026-05-11T08:20:41.000Z</time>
      </trkpt>
      <trkpt lat="45.29188" lon="4.55064">
        <ele>553.79998779297</ele>
        <time>2026-05-11T08:20:42.000Z</time>
      </trkpt>
      <trkpt lat="45.29187" lon="4.5506">
        <ele>553.79998779297</ele>
        <time>2026-05-11T08:20:43.000Z</time>
      </trkpt>
      <trkpt lat="45.29186" lon="4.55055">
        <ele>553.79998779297</ele>
        <time>2026-05-11T08:20:44.000Z</time>
      </trkpt>
      <trkpt lat="45.29184" lon="4.55051">
        <ele>553.79998779297</ele>
        <time>2026-05-11T08:20:45.000Z</time>
      </trkpt>
      <trkpt lat="45.29182" lon="4.55047">
        <ele>554</ele>
        <time>2026-05-11T08:20:46.000Z</time>
      </trkpt>
      <trkpt lat="45.2918" lon="4.55044">
        <ele>554</ele>
        <time>2026-05-11T08:20:47.000Z</time>
      </trkpt>
      <trkpt lat="45.29178" lon="4.5504">
        <ele>554</ele>
        <time>2026-05-11T08:20:48.000Z</time>
      </trkpt>
      <trkpt lat="45.29176" lon="4.55038">
        <ele>554.20001220703</ele>
        <time>2026-05-11T08:20:49.000Z</time>
      </trkpt>
      <trkpt lat="45.29174" lon="4.55036">
        <ele>554.20001220703</ele>
        <time>2026-05-11T08:20:50.000Z</time>
      </trkpt>
      <trkpt lat="45.29171" lon="4.55035">
        <ele>554.40002441406</ele>
        <time>2026-05-11T08:20:51.000Z</time>
      </trkpt>
      <trkpt lat="45.29169" lon="4.55035">
        <ele>554.40002441406</ele>
        <time>2026-05-11T08:20:52.000Z</time>
      </trkpt>
      <trkpt lat="45.29167" lon="4.55035">
        <ele>554.59997558594</ele>
        <time>2026-05-11T08:20:53.000Z</time>
      </trkpt>
      <trkpt lat="45.29165" lon="4.55035">
        <ele>554.79998779297</ele>
        <time>2026-05-11T08:20:54.000Z</time>
      </trkpt>
      <trkpt lat="45.29163" lon="4.55034">
        <ele>555</ele>
        <time>2026-05-11T08:20:55.000Z</time>
      </trkpt>
      <trkpt lat="45.29162" lon="4.55034">
        <ele>555.20001220703</ele>
        <time>2026-05-11T08:20:56.000Z</time>
      </trkpt>
      <trkpt lat="45.29159" lon="4.55034">
        <ele>555.40002441406</ele>
        <time>2026-05-11T08:20:57.000Z</time>
      </trkpt>
      <trkpt lat="45.29157" lon="4.55034">
        <ele>555.59997558594</ele>
        <time>2026-05-11T08:20:58.000Z</time>
      </trkpt>
      <trkpt lat="45.29155" lon="4.55034">
        <ele>555.79998779297</ele>
        <time>2026-05-11T08:20:59.000Z</time>
      </trkpt>
      <trkpt lat="45.29152" lon="4.55033">
        <ele>556</ele>
        <time>2026-05-11T08:21:00.000Z</time>
      </trkpt>
      <trkpt lat="45.29149" lon="4.55033">
        <ele>556</ele>
        <time>2026-05-11T08:21:01.000Z</time>
      </trkpt>
      <trkpt lat="45.29146" lon="4.55032">
        <ele>556.20001220703</ele>
        <time>2026-05-11T08:21:02.000Z</time>
      </trkpt>
      <trkpt lat="45.29143" lon="4.55031">
        <ele>556.20001220703</ele>
        <time>2026-05-11T08:21:03.000Z</time>
      </trkpt>
      <trkpt lat="45.2914" lon="4.55031">
        <ele>556.20001220703</ele>
        <time>2026-05-11T08:21:04.000Z</time>
      </trkpt>
      <trkpt lat="45.29138" lon="4.55029">
        <ele>556.40002441406</ele>
        <time>2026-05-11T08:21:05.000Z</time>
      </trkpt>
      <trkpt lat="45.29136" lon="4.55027">
        <ele>556.40002441406</ele>
        <time>2026-05-11T08:21:06.000Z</time>
      </trkpt>
      <trkpt lat="45.29135" lon="4.55026">
        <ele>556.40002441406</ele>
        <time>2026-05-11T08:21:07.000Z</time>
      </trkpt>
      <trkpt lat="45.29133" lon="4.55023">
        <ele>556.40002441406</ele>
        <time>2026-05-11T08:21:08.000Z</time>
      </trkpt>
      <trkpt lat="45.29132" lon="4.55021">
        <ele>556.40002441406</ele>
        <time>2026-05-11T08:21:09.000Z</time>
      </trkpt>
      <trkpt lat="45.2913" lon="4.55018">
        <ele>556.40002441406</ele>
        <time>2026-05-11T08:21:10.000Z</time>
      </trkpt>
      <trkpt lat="45.29129" lon="4.55015">
        <ele>556.40002441406</ele>
        <time>2026-05-11T08:21:11.000Z</time>
      </trkpt>
      <trkpt lat="45.29128" lon="4.55011">
        <ele>556.59997558594</ele>
        <time>2026-05-11T08:21:12.000Z</time>
      </trkpt>
      <trkpt lat="45.29127" lon="4.55007">
        <ele>556.59997558594</ele>
        <time>2026-05-11T08:21:13.000Z</time>
      </trkpt>
      <trkpt lat="45.29127" lon="4.55003">
        <ele>556.59997558594</ele>
        <time>2026-05-11T08:21:14.000Z</time>
      </trkpt>
      <trkpt lat="45.29126" lon="4.54999">
        <ele>556.79998779297</ele>
        <time>2026-05-11T08:21:15.000Z</time>
      </trkpt>
      <trkpt lat="45.29126" lon="4.54996">
        <ele>557</ele>
        <time>2026-05-11T08:21:16.000Z</time>
      </trkpt>
      <trkpt lat="45.29125" lon="4.54993">
        <ele>557</ele>
        <time>2026-05-11T08:21:17.000Z</time>
      </trkpt>
      <trkpt lat="45.29125" lon="4.54989">
        <ele>557.20001220703</ele>
        <time>2026-05-11T08:21:18.000Z</time>
      </trkpt>
      <trkpt lat="45.29125" lon="4.54986">
        <ele>557.40002441406</ele>
        <time>2026-05-11T08:21:19.000Z</time>
      </trkpt>
      <trkpt lat="45.29125" lon="4.54983">
        <ele>557.40002441406</ele>
        <time>2026-05-11T08:21:20.000Z</time>
      </trkpt>
      <trkpt lat="45.29125" lon="4.5498">
        <ele>557.59997558594</ele>
        <time>2026-05-11T08:21:21.000Z</time>
      </trkpt>
      <trkpt lat="45.29124" lon="4.54977">
        <ele>557.79998779297</ele>
        <time>2026-05-11T08:21:22.000Z</time>
      </trkpt>
      <trkpt lat="45.29124" lon="4.54974">
        <ele>558</ele>
        <time>2026-05-11T08:21:23.000Z</time>
      </trkpt>
      <trkpt lat="45.29123" lon="4.54971">
        <ele>558.20001220703</ele>
        <time>2026-05-11T08:21:24.000Z</time>
      </trkpt>
      <trkpt lat="45.29123" lon="4.54968">
        <ele>558.40002441406</ele>
        <time>2026-05-11T08:21:25.000Z</time>
      </trkpt>
      <trkpt lat="45.29122" lon="4.54965">
        <ele>558.40002441406</ele>
        <time>2026-05-11T08:21:26.000Z</time>
      </trkpt>
      <trkpt lat="45.29121" lon="4.54962">
        <ele>558.59997558594</ele>
        <time>2026-05-11T08:21:27.000Z</time>
      </trkpt>
      <trkpt lat="45.2912" lon="4.54959">
        <ele>558.79998779297</ele>
        <time>2026-05-11T08:21:28.000Z</time>
      </trkpt>
      <trkpt lat="45.29119" lon="4.54957">
        <ele>558.79998779297</ele>
        <time>2026-05-11T08:21:29.000Z</time>
      </trkpt>
      <trkpt lat="45.29118" lon="4.54954">
        <ele>559</ele>
        <time>2026-05-11T08:21:30.000Z</time>
      </trkpt>
      <trkpt lat="45.29117" lon="4.54951">
        <ele>559</ele>
        <time>2026-05-11T08:21:31.000Z</time>
      </trkpt>
      <trkpt lat="45.29116" lon="4.54948">
        <ele>559.20001220703</ele>
        <time>2026-05-11T08:21:32.000Z</time>
      </trkpt>
      <trkpt lat="45.29114" lon="4.54945">
        <ele>559.20001220703</ele>
        <time>2026-05-11T08:21:33.000Z</time>
      </trkpt>
      <trkpt lat="45.29113" lon="4.54943">
        <ele>559.40002441406</ele>
        <time>2026-05-11T08:21:34.000Z</time>
      </trkpt>
      <trkpt lat="45.29112" lon="4.5494">
        <ele>559.59997558594</ele>
        <time>2026-05-11T08:21:35.000Z</time>
      </trkpt>
      <trkpt lat="45.2911" lon="4.54938">
        <ele>559.59997558594</ele>
        <time>2026-05-11T08:21:36.000Z</time>
      </trkpt>
      <trkpt lat="45.29109" lon="4.54935">
        <ele>559.79998779297</ele>
        <time>2026-05-11T08:21:37.000Z</time>
      </trkpt>
      <trkpt lat="45.29107" lon="4.54933">
        <ele>559.79998779297</ele>
        <time>2026-05-11T08:21:38.000Z</time>
      </trkpt>
      <trkpt lat="45.29106" lon="4.54931">
        <ele>560</ele>
        <time>2026-05-11T08:21:39.000Z</time>
      </trkpt>
      <trkpt lat="45.29105" lon="4.54929">
        <ele>560</ele>
        <time>2026-05-11T08:21:40.000Z</time>
      </trkpt>
      <trkpt lat="45.29103" lon="4.54927">
        <ele>560.20001220703</ele>
        <time>2026-05-11T08:21:41.000Z</time>
      </trkpt>
      <trkpt lat="45.29101" lon="4.54925">
        <ele>560.20001220703</ele>
        <time>2026-05-11T08:21:42.000Z</time>
      </trkpt>
      <trkpt lat="45.291" lon="4.54923">
        <ele>560.40002441406</ele>
        <time>2026-05-11T08:21:43.000Z</time>
      </trkpt>
      <trkpt lat="45.29098" lon="4.54921">
        <ele>560.40002441406</ele>
        <time>2026-05-11T08:21:44.000Z</time>
      </trkpt>
      <trkpt lat="45.29096" lon="4.54919">
        <ele>560.59997558594</ele>
        <time>2026-05-11T08:21:45.000Z</time>
      </trkpt>
      <trkpt lat="45.29095" lon="4.54917">
        <ele>560.59997558594</ele>
        <time>2026-05-11T08:21:46.000Z</time>
      </trkpt>
      <trkpt lat="45.29093" lon="4.54915">
        <ele>560.59997558594</ele>
        <time>2026-05-11T08:21:47.000Z</time>
      </trkpt>
      <trkpt lat="45.29092" lon="4.54914">
        <ele>560.79998779297</ele>
        <time>2026-05-11T08:21:48.000Z</time>
      </trkpt>
      <trkpt lat="45.2909" lon="4.54912">
        <ele>560.79998779297</ele>
        <time>2026-05-11T08:21:49.000Z</time>
      </trkpt>
      <trkpt lat="45.29089" lon="4.54909">
        <ele>561</ele>
        <time>2026-05-11T08:21:50.000Z</time>
      </trkpt>
      <trkpt lat="45.29087" lon="4.54907">
        <ele>561.20001220703</ele>
        <time>2026-05-11T08:21:51.000Z</time>
      </trkpt>
      <trkpt lat="45.29086" lon="4.54905">
        <ele>561.20001220703</ele>
        <time>2026-05-11T08:21:52.000Z</time>
      </trkpt>
      <trkpt lat="45.29084" lon="4.54902">
        <ele>561.40002441406</ele>
        <time>2026-05-11T08:21:53.000Z</time>
      </trkpt>
      <trkpt lat="45.29083" lon="4.549">
        <ele>561.40002441406</ele>
        <time>2026-05-11T08:21:54.000Z</time>
      </trkpt>
      <trkpt lat="45.29081" lon="4.54898">
        <ele>561.59997558594</ele>
        <time>2026-05-11T08:21:55.000Z</time>
      </trkpt>
      <trkpt lat="45.29079" lon="4.54896">
        <ele>561.79998779297</ele>
        <time>2026-05-11T08:21:56.000Z</time>
      </trkpt>
      <trkpt lat="45.29078" lon="4.54894">
        <ele>561.79998779297</ele>
        <time>2026-05-11T08:21:57.000Z</time>
      </trkpt>
      <trkpt lat="45.29076" lon="4.54892">
        <ele>561.79998779297</ele>
        <time>2026-05-11T08:21:58.000Z</time>
      </trkpt>
      <trkpt lat="45.29074" lon="4.5489">
        <ele>562</ele>
        <time>2026-05-11T08:21:59.000Z</time>
      </trkpt>
      <trkpt lat="45.29073" lon="4.54888">
        <ele>562</ele>
        <time>2026-05-11T08:22:00.000Z</time>
      </trkpt>
      <trkpt lat="45.29071" lon="4.54887">
        <ele>562.20001220703</ele>
        <time>2026-05-11T08:22:01.000Z</time>
      </trkpt>
      <trkpt lat="45.2907" lon="4.54885">
        <ele>562.40002441406</ele>
        <time>2026-05-11T08:22:02.000Z</time>
      </trkpt>
      <trkpt lat="45.29068" lon="4.54883">
        <ele>562.40002441406</ele>
        <time>2026-05-11T08:22:03.000Z</time>
      </trkpt>
      <trkpt lat="45.29067" lon="4.54881">
        <ele>562.59997558594</ele>
        <time>2026-05-11T08:22:04.000Z</time>
      </trkpt>
      <trkpt lat="45.29065" lon="4.5488">
        <ele>562.59997558594</ele>
        <time>2026-05-11T08:22:05.000Z</time>
      </trkpt>
      <trkpt lat="45.29064" lon="4.54878">
        <ele>562.79998779297</ele>
        <time>2026-05-11T08:22:06.000Z</time>
      </trkpt>
      <trkpt lat="45.29062" lon="4.54876">
        <ele>563</ele>
        <time>2026-05-11T08:22:07.000Z</time>
      </trkpt>
      <trkpt lat="45.29061" lon="4.54875">
        <ele>563</ele>
        <time>2026-05-11T08:22:08.000Z</time>
      </trkpt>
      <trkpt lat="45.29059" lon="4.54873">
        <ele>563.20001220703</ele>
        <time>2026-05-11T08:22:09.000Z</time>
      </trkpt>
      <trkpt lat="45.29057" lon="4.54872">
        <ele>563.40002441406</ele>
        <time>2026-05-11T08:22:10.000Z</time>
      </trkpt>
      <trkpt lat="45.29056" lon="4.5487">
        <ele>563.40002441406</ele>
        <time>2026-05-11T08:22:11.000Z</time>
      </trkpt>
      <trkpt lat="45.29054" lon="4.54869">
        <ele>563.59997558594</ele>
        <time>2026-05-11T08:22:12.000Z</time>
      </trkpt>
      <trkpt lat="45.29052" lon="4.54867">
        <ele>563.59997558594</ele>
        <time>2026-05-11T08:22:13.000Z</time>
      </trkpt>
      <trkpt lat="45.2905" lon="4.54866">
        <ele>563.79998779297</ele>
        <time>2026-05-11T08:22:14.000Z</time>
      </trkpt>
      <trkpt lat="45.29048" lon="4.54864">
        <ele>564</ele>
        <time>2026-05-11T08:22:15.000Z</time>
      </trkpt>
      <trkpt lat="45.29047" lon="4.54862">
        <ele>564</ele>
        <time>2026-05-11T08:22:16.000Z</time>
      </trkpt>
      <trkpt lat="45.29045" lon="4.5486">
        <ele>564.20001220703</ele>
        <time>2026-05-11T08:22:17.000Z</time>
      </trkpt>
      <trkpt lat="45.29043" lon="4.54859">
        <ele>564.40002441406</ele>
        <time>2026-05-11T08:22:18.000Z</time>
      </trkpt>
      <trkpt lat="45.29042" lon="4.54857">
        <ele>564.79998779297</ele>
        <time>2026-05-11T08:22:19.000Z</time>
      </trkpt>
      <trkpt lat="45.2904" lon="4.54856">
        <ele>565</ele>
        <time>2026-05-11T08:22:20.000Z</time>
      </trkpt>
      <trkpt lat="45.29039" lon="4.54854">
        <ele>565.20001220703</ele>
        <time>2026-05-11T08:22:21.000Z</time>
      </trkpt>
      <trkpt lat="45.29037" lon="4.54852">
        <ele>565.40002441406</ele>
        <time>2026-05-11T08:22:22.000Z</time>
      </trkpt>
      <trkpt lat="45.29036" lon="4.54851">
        <ele>565.40002441406</ele>
        <time>2026-05-11T08:22:23.000Z</time>
      </trkpt>
      <trkpt lat="45.29034" lon="4.54849">
        <ele>565.59997558594</ele>
        <time>2026-05-11T08:22:24.000Z</time>
      </trkpt>
      <trkpt lat="45.29032" lon="4.54847">
        <ele>566</ele>
        <time>2026-05-11T08:22:25.000Z</time>
      </trkpt>
      <trkpt lat="45.2903" lon="4.54846">
        <ele>566.20001220703</ele>
        <time>2026-05-11T08:22:26.000Z</time>
      </trkpt>
      <trkpt lat="45.29029" lon="4.54844">
        <ele>566.20001220703</ele>
        <time>2026-05-11T08:22:27.000Z</time>
      </trkpt>
      <trkpt lat="45.29027" lon="4.54843">
        <ele>566.40002441406</ele>
        <time>2026-05-11T08:22:28.000Z</time>
      </trkpt>
      <trkpt lat="45.29026" lon="4.54843">
        <ele>566.59997558594</ele>
        <time>2026-05-11T08:22:29.000Z</time>
      </trkpt>
      <trkpt lat="45.29024" lon="4.54842">
        <ele>566.79998779297</ele>
        <time>2026-05-11T08:22:30.000Z</time>
      </trkpt>
      <trkpt lat="45.29023" lon="4.54841">
        <ele>567</ele>
        <time>2026-05-11T08:22:31.000Z</time>
      </trkpt>
      <trkpt lat="45.29022" lon="4.54841">
        <ele>567.20001220703</ele>
        <time>2026-05-11T08:22:32.000Z</time>
      </trkpt>
      <trkpt lat="45.29021" lon="4.5484">
        <ele>567.40002441406</ele>
        <time>2026-05-11T08:22:33.000Z</time>
      </trkpt>
      <trkpt lat="45.2902" lon="4.54838">
        <ele>567.59997558594</ele>
        <time>2026-05-11T08:22:34.000Z</time>
      </trkpt>
      <trkpt lat="45.29019" lon="4.54837">
        <ele>567.79998779297</ele>
        <time>2026-05-11T08:22:35.000Z</time>
      </trkpt>
      <trkpt lat="45.29018" lon="4.54836">
        <ele>568</ele>
        <time>2026-05-11T08:22:36.000Z</time>
      </trkpt>
      <trkpt lat="45.29017" lon="4.54834">
        <ele>568.20001220703</ele>
        <time>2026-05-11T08:22:37.000Z</time>
      </trkpt>
      <trkpt lat="45.29016" lon="4.54833">
        <ele>568.59997558594</ele>
        <time>2026-05-11T08:22:38.000Z</time>
      </trkpt>
      <trkpt lat="45.29015" lon="4.54831">
        <ele>568.79998779297</ele>
        <time>2026-05-11T08:22:39.000Z</time>
      </trkpt>
      <trkpt lat="45.29015" lon="4.54829">
        <ele>569</ele>
        <time>2026-05-11T08:22:40.000Z</time>
      </trkpt>
      <trkpt lat="45.29015" lon="4.54827">
        <ele>569.20001220703</ele>
        <time>2026-05-11T08:22:41.000Z</time>
      </trkpt>
      <trkpt lat="45.29014" lon="4.54825">
        <ele>569.40002441406</ele>
        <time>2026-05-11T08:22:42.000Z</time>
      </trkpt>
      <trkpt lat="45.29014" lon="4.54822">
        <ele>569.79998779297</ele>
        <time>2026-05-11T08:22:43.000Z</time>
      </trkpt>
      <trkpt lat="45.29014" lon="4.54821">
        <ele>570</ele>
        <time>2026-05-11T08:22:44.000Z</time>
      </trkpt>
      <trkpt lat="45.29014" lon="4.54818">
        <ele>570.40002441406</ele>
        <time>2026-05-11T08:22:45.000Z</time>
      </trkpt>
      <trkpt lat="45.29013" lon="4.54816">
        <ele>570.59997558594</ele>
        <time>2026-05-11T08:22:46.000Z</time>
      </trkpt>
      <trkpt lat="45.29013" lon="4.54814">
        <ele>570.79998779297</ele>
        <time>2026-05-11T08:22:47.000Z</time>
      </trkpt>
      <trkpt lat="45.29013" lon="4.54812">
        <ele>571.20001220703</ele>
        <time>2026-05-11T08:22:48.000Z</time>
      </trkpt>
      <trkpt lat="45.29013" lon="4.5481">
        <ele>571.40002441406</ele>
        <time>2026-05-11T08:22:49.000Z</time>
      </trkpt>
      <trkpt lat="45.29012" lon="4.54808">
        <ele>571.59997558594</ele>
        <time>2026-05-11T08:22:50.000Z</time>
      </trkpt>
      <trkpt lat="45.29012" lon="4.54806">
        <ele>571.79998779297</ele>
        <time>2026-05-11T08:22:51.000Z</time>
      </trkpt>
      <trkpt lat="45.29011" lon="4.54804">
        <ele>572</ele>
        <time>2026-05-11T08:22:52.000Z</time>
      </trkpt>
      <trkpt lat="45.29011" lon="4.54802">
        <ele>572.20001220703</ele>
        <time>2026-05-11T08:22:53.000Z</time>
      </trkpt>
      <trkpt lat="45.29011" lon="4.548">
        <ele>572.59997558594</ele>
        <time>2026-05-11T08:22:54.000Z</time>
      </trkpt>
      <trkpt lat="45.2901" lon="4.54799">
        <ele>572.79998779297</ele>
        <time>2026-05-11T08:22:55.000Z</time>
      </trkpt>
      <trkpt lat="45.2901" lon="4.54797">
        <ele>572.79998779297</ele>
        <time>2026-05-11T08:22:56.000Z</time>
      </trkpt>
      <trkpt lat="45.2901" lon="4.54795">
        <ele>573</ele>
        <time>2026-05-11T08:22:57.000Z</time>
      </trkpt>
      <trkpt lat="45.29009" lon="4.54794">
        <ele>573.20001220703</ele>
        <time>2026-05-11T08:22:58.000Z</time>
      </trkpt>
      <trkpt lat="45.29009" lon="4.54792">
        <ele>573.40002441406</ele>
        <time>2026-05-11T08:22:59.000Z</time>
      </trkpt>
      <trkpt lat="45.29008" lon="4.5479">
        <ele>573.79998779297</ele>
        <time>2026-05-11T08:23:00.000Z</time>
      </trkpt>
      <trkpt lat="45.29008" lon="4.54788">
        <ele>574</ele>
        <time>2026-05-11T08:23:01.000Z</time>
      </trkpt>
      <trkpt lat="45.29007" lon="4.54786">
        <ele>574.20001220703</ele>
        <time>2026-05-11T08:23:02.000Z</time>
      </trkpt>
      <trkpt lat="45.29007" lon="4.54784">
        <ele>574.40002441406</ele>
        <time>2026-05-11T08:23:03.000Z</time>
      </trkpt>
      <trkpt lat="45.29007" lon="4.54782">
        <ele>574.40002441406</ele>
        <time>2026-05-11T08:23:04.000Z</time>
      </trkpt>
      <trkpt lat="45.29006" lon="4.5478">
        <ele>574.59997558594</ele>
        <time>2026-05-11T08:23:05.000Z</time>
      </trkpt>
      <trkpt lat="45.29006" lon="4.54778">
        <ele>575</ele>
        <time>2026-05-11T08:23:06.000Z</time>
      </trkpt>
      <trkpt lat="45.29005" lon="4.54775">
        <ele>575</ele>
        <time>2026-05-11T08:23:07.000Z</time>
      </trkpt>
      <trkpt lat="45.29005" lon="4.54774">
        <ele>575.20001220703</ele>
        <time>2026-05-11T08:23:08.000Z</time>
      </trkpt>
      <trkpt lat="45.29005" lon="4.54772">
        <ele>575.40002441406</ele>
        <time>2026-05-11T08:23:09.000Z</time>
      </trkpt>
      <trkpt lat="45.29005" lon="4.5477">
        <ele>575.59997558594</ele>
        <time>2026-05-11T08:23:10.000Z</time>
      </trkpt>
      <trkpt lat="45.29004" lon="4.54768">
        <ele>575.79998779297</ele>
        <time>2026-05-11T08:23:11.000Z</time>
      </trkpt>
      <trkpt lat="45.29003" lon="4.54767">
        <ele>576</ele>
        <time>2026-05-11T08:23:12.000Z</time>
      </trkpt>
      <trkpt lat="45.29003" lon="4.54765">
        <ele>576.20001220703</ele>
        <time>2026-05-11T08:23:13.000Z</time>
      </trkpt>
      <trkpt lat="45.29002" lon="4.54763">
        <ele>576.40002441406</ele>
        <time>2026-05-11T08:23:14.000Z</time>
      </trkpt>
      <trkpt lat="45.29002" lon="4.54761">
        <ele>576.59997558594</ele>
        <time>2026-05-11T08:23:15.000Z</time>
      </trkpt>
      <trkpt lat="45.29001" lon="4.54759">
        <ele>576.79998779297</ele>
        <time>2026-05-11T08:23:16.000Z</time>
      </trkpt>
      <trkpt lat="45.29" lon="4.54757">
        <ele>577</ele>
        <time>2026-05-11T08:23:17.000Z</time>
      </trkpt>
      <trkpt lat="45.29" lon="4.54756">
        <ele>577.20001220703</ele>
        <time>2026-05-11T08:23:18.000Z</time>
      </trkpt>
      <trkpt lat="45.29" lon="4.54754">
        <ele>577.40002441406</ele>
        <time>2026-05-11T08:23:19.000Z</time>
      </trkpt>
      <trkpt lat="45.28999" lon="4.54752">
        <ele>577.40002441406</ele>
        <time>2026-05-11T08:23:20.000Z</time>
      </trkpt>
      <trkpt lat="45.28999" lon="4.5475">
        <ele>577.59997558594</ele>
        <time>2026-05-11T08:23:21.000Z</time>
      </trkpt>
      <trkpt lat="45.28998" lon="4.54749">
        <ele>577.79998779297</ele>
        <time>2026-05-11T08:23:22.000Z</time>
      </trkpt>
      <trkpt lat="45.28997" lon="4.54747">
        <ele>578</ele>
        <time>2026-05-11T08:23:23.000Z</time>
      </trkpt>
      <trkpt lat="45.28997" lon="4.54745">
        <ele>578.20001220703</ele>
        <time>2026-05-11T08:23:24.000Z</time>
      </trkpt>
      <trkpt lat="45.28996" lon="4.54743">
        <ele>578.20001220703</ele>
        <time>2026-05-11T08:23:25.000Z</time>
      </trkpt>
      <trkpt lat="45.28996" lon="4.54741">
        <ele>578.40002441406</ele>
        <time>2026-05-11T08:23:26.000Z</time>
      </trkpt>
      <trkpt lat="45.28995" lon="4.54739">
        <ele>578.59997558594</ele>
        <time>2026-05-11T08:23:27.000Z</time>
      </trkpt>
      <trkpt lat="45.28994" lon="4.54737">
        <ele>578.59997558594</ele>
        <time>2026-05-11T08:23:28.000Z</time>
      </trkpt>
      <trkpt lat="45.28994" lon="4.54735">
        <ele>578.79998779297</ele>
        <time>2026-05-11T08:23:29.000Z</time>
      </trkpt>
      <trkpt lat="45.28993" lon="4.54734">
        <ele>579</ele>
        <time>2026-05-11T08:23:30.000Z</time>
      </trkpt>
      <trkpt lat="45.28992" lon="4.54732">
        <ele>579.20001220703</ele>
        <time>2026-05-11T08:23:31.000Z</time>
      </trkpt>
      <trkpt lat="45.28992" lon="4.5473">
        <ele>579.40002441406</ele>
        <time>2026-05-11T08:23:32.000Z</time>
      </trkpt>
      <trkpt lat="45.28991" lon="4.54728">
        <ele>579.59997558594</ele>
        <time>2026-05-11T08:23:33.000Z</time>
      </trkpt>
      <trkpt lat="45.2899" lon="4.54727">
        <ele>579.79998779297</ele>
        <time>2026-05-11T08:23:34.000Z</time>
      </trkpt>
      <trkpt lat="45.2899" lon="4.54725">
        <ele>580</ele>
        <time>2026-05-11T08:23:35.000Z</time>
      </trkpt>
      <trkpt lat="45.28989" lon="4.54724">
        <ele>580.20001220703</ele>
        <time>2026-05-11T08:23:36.000Z</time>
      </trkpt>
      <trkpt lat="45.28989" lon="4.54722">
        <ele>580.40002441406</ele>
        <time>2026-05-11T08:23:37.000Z</time>
      </trkpt>
      <trkpt lat="45.28988" lon="4.54721">
        <ele>580.59997558594</ele>
        <time>2026-05-11T08:23:38.000Z</time>
      </trkpt>
      <trkpt lat="45.28987" lon="4.5472">
        <ele>580.59997558594</ele>
        <time>2026-05-11T08:23:39.000Z</time>
      </trkpt>
      <trkpt lat="45.28987" lon="4.54719">
        <ele>580.79998779297</ele>
        <time>2026-05-11T08:23:40.000Z</time>
      </trkpt>
      <trkpt lat="45.28986" lon="4.54718">
        <ele>581</ele>
        <time>2026-05-11T08:23:41.000Z</time>
      </trkpt>
      <trkpt lat="45.28986" lon="4.54716">
        <ele>581.20001220703</ele>
        <time>2026-05-11T08:23:42.000Z</time>
      </trkpt>
      <trkpt lat="45.28985" lon="4.54714">
        <ele>581.40002441406</ele>
        <time>2026-05-11T08:23:43.000Z</time>
      </trkpt>
      <trkpt lat="45.28985" lon="4.54713">
        <ele>581.59997558594</ele>
        <time>2026-05-11T08:23:44.000Z</time>
      </trkpt>
      <trkpt lat="45.28984" lon="4.54711">
        <ele>581.79998779297</ele>
        <time>2026-05-11T08:23:45.000Z</time>
      </trkpt>
      <trkpt lat="45.28983" lon="4.5471">
        <ele>582</ele>
        <time>2026-05-11T08:23:46.000Z</time>
      </trkpt>
      <trkpt lat="45.28983" lon="4.54708">
        <ele>582.20001220703</ele>
        <time>2026-05-11T08:23:47.000Z</time>
      </trkpt>
      <trkpt lat="45.28983" lon="4.54706">
        <ele>582.40002441406</ele>
        <time>2026-05-11T08:23:48.000Z</time>
      </trkpt>
      <trkpt lat="45.28983" lon="4.54705">
        <ele>582.59997558594</ele>
        <time>2026-05-11T08:23:49.000Z</time>
      </trkpt>
      <trkpt lat="45.28982" lon="4.54703">
        <ele>582.79998779297</ele>
        <time>2026-05-11T08:23:50.000Z</time>
      </trkpt>
      <trkpt lat="45.28982" lon="4.54702">
        <ele>583</ele>
        <time>2026-05-11T08:23:51.000Z</time>
      </trkpt>
      <trkpt lat="45.28981" lon="4.547">
        <ele>583.20001220703</ele>
        <time>2026-05-11T08:23:52.000Z</time>
      </trkpt>
      <trkpt lat="45.2898" lon="4.54698">
        <ele>583.40002441406</ele>
        <time>2026-05-11T08:23:53.000Z</time>
      </trkpt>
      <trkpt lat="45.2898" lon="4.54696">
        <ele>583.59997558594</ele>
        <time>2026-05-11T08:23:54.000Z</time>
      </trkpt>
      <trkpt lat="45.2898" lon="4.54694">
        <ele>583.79998779297</ele>
        <time>2026-05-11T08:23:55.000Z</time>
      </trkpt>
      <trkpt lat="45.2898" lon="4.54692">
        <ele>583.79998779297</ele>
        <time>2026-05-11T08:23:56.000Z</time>
      </trkpt>
      <trkpt lat="45.2898" lon="4.5469">
        <ele>584</ele>
        <time>2026-05-11T08:23:57.000Z</time>
      </trkpt>
      <trkpt lat="45.28979" lon="4.54689">
        <ele>584.20001220703</ele>
        <time>2026-05-11T08:23:58.000Z</time>
      </trkpt>
      <trkpt lat="45.28979" lon="4.54688">
        <ele>584.40002441406</ele>
        <time>2026-05-11T08:23:59.000Z</time>
      </trkpt>
      <trkpt lat="45.28978" lon="4.54686">
        <ele>584.59997558594</ele>
        <time>2026-05-11T08:24:00.000Z</time>
      </trkpt>
      <trkpt lat="45.28978" lon="4.54684">
        <ele>584.79998779297</ele>
        <time>2026-05-11T08:24:01.000Z</time>
      </trkpt>
      <trkpt lat="45.28978" lon="4.54682">
        <ele>585</ele>
        <time>2026-05-11T08:24:02.000Z</time>
      </trkpt>
      <trkpt lat="45.28977" lon="4.5468">
        <ele>585.20001220703</ele>
        <time>2026-05-11T08:24:03.000Z</time>
      </trkpt>
      <trkpt lat="45.28976" lon="4.54678">
        <ele>585.40002441406</ele>
        <time>2026-05-11T08:24:04.000Z</time>
      </trkpt>
      <trkpt lat="45.28976" lon="4.54676">
        <ele>585.79998779297</ele>
        <time>2026-05-11T08:24:05.000Z</time>
      </trkpt>
      <trkpt lat="45.28976" lon="4.54674">
        <ele>586</ele>
        <time>2026-05-11T08:24:06.000Z</time>
      </trkpt>
      <trkpt lat="45.28975" lon="4.54672">
        <ele>586.20001220703</ele>
        <time>2026-05-11T08:24:07.000Z</time>
      </trkpt>
      <trkpt lat="45.28975" lon="4.5467">
        <ele>586.40002441406</ele>
        <time>2026-05-11T08:24:08.000Z</time>
      </trkpt>
      <trkpt lat="45.28975" lon="4.54667">
        <ele>586.59997558594</ele>
        <time>2026-05-11T08:24:09.000Z</time>
      </trkpt>
      <trkpt lat="45.28974" lon="4.54665">
        <ele>586.79998779297</ele>
        <time>2026-05-11T08:24:10.000Z</time>
      </trkpt>
      <trkpt lat="45.28974" lon="4.54663">
        <ele>587.20001220703</ele>
        <time>2026-05-11T08:24:11.000Z</time>
      </trkpt>
      <trkpt lat="45.28974" lon="4.5466">
        <ele>587.40002441406</ele>
        <time>2026-05-11T08:24:12.000Z</time>
      </trkpt>
      <trkpt lat="45.28973" lon="4.54658">
        <ele>587.59997558594</ele>
        <time>2026-05-11T08:24:13.000Z</time>
      </trkpt>
      <trkpt lat="45.28973" lon="4.54656">
        <ele>588</ele>
        <time>2026-05-11T08:24:14.000Z</time>
      </trkpt>
      <trkpt lat="45.28973" lon="4.54655">
        <ele>588.20001220703</ele>
        <time>2026-05-11T08:24:15.000Z</time>
      </trkpt>
      <trkpt lat="45.28972" lon="4.54653">
        <ele>588.59997558594</ele>
        <time>2026-05-11T08:24:16.000Z</time>
      </trkpt>
      <trkpt lat="45.28972" lon="4.54651">
        <ele>588.79998779297</ele>
        <time>2026-05-11T08:24:17.000Z</time>
      </trkpt>
      <trkpt lat="45.28971" lon="4.54649">
        <ele>589.20001220703</ele>
        <time>2026-05-11T08:24:18.000Z</time>
      </trkpt>
      <trkpt lat="45.28971" lon="4.54647">
        <ele>589.40002441406</ele>
        <time>2026-05-11T08:24:19.000Z</time>
      </trkpt>
      <trkpt lat="45.2897" lon="4.54645">
        <ele>589.79998779297</ele>
        <time>2026-05-11T08:24:20.000Z</time>
      </trkpt>
      <trkpt lat="45.28969" lon="4.54644">
        <ele>590</ele>
        <time>2026-05-11T08:24:21.000Z</time>
      </trkpt>
      <trkpt lat="45.28968" lon="4.54642">
        <ele>590.40002441406</ele>
        <time>2026-05-11T08:24:22.000Z</time>
      </trkpt>
      <trkpt lat="45.28967" lon="4.54639">
        <ele>590.59997558594</ele>
        <time>2026-05-11T08:24:23.000Z</time>
      </trkpt>
      <trkpt lat="45.28967" lon="4.54637">
        <ele>591</ele>
        <time>2026-05-11T08:24:24.000Z</time>
      </trkpt>
      <trkpt lat="45.28966" lon="4.54635">
        <ele>591.20001220703</ele>
        <time>2026-05-11T08:24:25.000Z</time>
      </trkpt>
      <trkpt lat="45.28965" lon="4.54633">
        <ele>591.40002441406</ele>
        <time>2026-05-11T08:24:26.000Z</time>
      </trkpt>
      <trkpt lat="45.28965" lon="4.54631">
        <ele>591.79998779297</ele>
        <time>2026-05-11T08:24:27.000Z</time>
      </trkpt>
      <trkpt lat="45.28965" lon="4.54629">
        <ele>592</ele>
        <time>2026-05-11T08:24:28.000Z</time>
      </trkpt>
      <trkpt lat="45.28964" lon="4.54627">
        <ele>592.20001220703</ele>
        <time>2026-05-11T08:24:29.000Z</time>
      </trkpt>
      <trkpt lat="45.28964" lon="4.54625">
        <ele>592.59997558594</ele>
        <time>2026-05-11T08:24:30.000Z</time>
      </trkpt>
      <trkpt lat="45.28963" lon="4.54624">
        <ele>592.79998779297</ele>
        <time>2026-05-11T08:24:31.000Z</time>
      </trkpt>
      <trkpt lat="45.28962" lon="4.54622">
        <ele>593</ele>
        <time>2026-05-11T08:24:32.000Z</time>
      </trkpt>
      <trkpt lat="45.28962" lon="4.54619">
        <ele>593.20001220703</ele>
        <time>2026-05-11T08:24:33.000Z</time>
      </trkpt>
      <trkpt lat="45.28961" lon="4.54617">
        <ele>593.59997558594</ele>
        <time>2026-05-11T08:24:34.000Z</time>
      </trkpt>
      <trkpt lat="45.28961" lon="4.54616">
        <ele>593.79998779297</ele>
        <time>2026-05-11T08:24:35.000Z</time>
      </trkpt>
      <trkpt lat="45.2896" lon="4.54614">
        <ele>594</ele>
        <time>2026-05-11T08:24:36.000Z</time>
      </trkpt>
      <trkpt lat="45.28959" lon="4.54612">
        <ele>594.20001220703</ele>
        <time>2026-05-11T08:24:37.000Z</time>
      </trkpt>
      <trkpt lat="45.28959" lon="4.54611">
        <ele>594.40002441406</ele>
        <time>2026-05-11T08:24:38.000Z</time>
      </trkpt>
      <trkpt lat="45.28958" lon="4.54608">
        <ele>594.59997558594</ele>
        <time>2026-05-11T08:24:39.000Z</time>
      </trkpt>
      <trkpt lat="45.28958" lon="4.54607">
        <ele>594.79998779297</ele>
        <time>2026-05-11T08:24:40.000Z</time>
      </trkpt>
      <trkpt lat="45.28957" lon="4.54605">
        <ele>595</ele>
        <time>2026-05-11T08:24:41.000Z</time>
      </trkpt>
      <trkpt lat="45.28957" lon="4.54603">
        <ele>595.20001220703</ele>
        <time>2026-05-11T08:24:42.000Z</time>
      </trkpt>
      <trkpt lat="45.28956" lon="4.54602">
        <ele>595.40002441406</ele>
        <time>2026-05-11T08:24:43.000Z</time>
      </trkpt>
      <trkpt lat="45.28955" lon="4.546">
        <ele>595.59997558594</ele>
        <time>2026-05-11T08:24:44.000Z</time>
      </trkpt>
      <trkpt lat="45.28954" lon="4.54598">
        <ele>596</ele>
        <time>2026-05-11T08:24:45.000Z</time>
      </trkpt>
      <trkpt lat="45.28954" lon="4.54597">
        <ele>596.20001220703</ele>
        <time>2026-05-11T08:24:46.000Z</time>
      </trkpt>
      <trkpt lat="45.28953" lon="4.54595">
        <ele>596.40002441406</ele>
        <time>2026-05-11T08:24:47.000Z</time>
      </trkpt>
      <trkpt lat="45.28952" lon="4.54593">
        <ele>596.59997558594</ele>
        <time>2026-05-11T08:24:48.000Z</time>
      </trkpt>
      <trkpt lat="45.28951" lon="4.54591">
        <ele>596.79998779297</ele>
        <time>2026-05-11T08:24:49.000Z</time>
      </trkpt>
      <trkpt lat="45.2895" lon="4.5459">
        <ele>597</ele>
        <time>2026-05-11T08:24:50.000Z</time>
      </trkpt>
      <trkpt lat="45.28949" lon="4.54588">
        <ele>597.40002441406</ele>
        <time>2026-05-11T08:24:51.000Z</time>
      </trkpt>
      <trkpt lat="45.28948" lon="4.54586">
        <ele>597.59997558594</ele>
        <time>2026-05-11T08:24:52.000Z</time>
      </trkpt>
      <trkpt lat="45.28948" lon="4.54584">
        <ele>597.79998779297</ele>
        <time>2026-05-11T08:24:53.000Z</time>
      </trkpt>
      <trkpt lat="45.28947" lon="4.54582">
        <ele>598</ele>
        <time>2026-05-11T08:24:54.000Z</time>
      </trkpt>
      <trkpt lat="45.28946" lon="4.5458">
        <ele>598</ele>
        <time>2026-05-11T08:24:55.000Z</time>
      </trkpt>
      <trkpt lat="45.28945" lon="4.54579">
        <ele>598.20001220703</ele>
        <time>2026-05-11T08:24:56.000Z</time>
      </trkpt>
      <trkpt lat="45.28944" lon="4.54577">
        <ele>598.40002441406</ele>
        <time>2026-05-11T08:24:57.000Z</time>
      </trkpt>
      <trkpt lat="45.28944" lon="4.54576">
        <ele>598.59997558594</ele>
        <time>2026-05-11T08:24:58.000Z</time>
      </trkpt>
      <trkpt lat="45.28943" lon="4.54574">
        <ele>598.79998779297</ele>
        <time>2026-05-11T08:24:59.000Z</time>
      </trkpt>
      <trkpt lat="45.28942" lon="4.54572">
        <ele>599</ele>
        <time>2026-05-11T08:25:00.000Z</time>
      </trkpt>
      <trkpt lat="45.28941" lon="4.54571">
        <ele>599.20001220703</ele>
        <time>2026-05-11T08:25:01.000Z</time>
      </trkpt>
      <trkpt lat="45.2894" lon="4.54569">
        <ele>599.40002441406</ele>
        <time>2026-05-11T08:25:02.000Z</time>
      </trkpt>
      <trkpt lat="45.2894" lon="4.54567">
        <ele>599.79998779297</ele>
        <time>2026-05-11T08:25:03.000Z</time>
      </trkpt>
      <trkpt lat="45.28939" lon="4.54566">
        <ele>600</ele>
        <time>2026-05-11T08:25:04.000Z</time>
      </trkpt>
      <trkpt lat="45.28938" lon="4.54564">
        <ele>600</ele>
        <time>2026-05-11T08:25:05.000Z</time>
      </trkpt>
      <trkpt lat="45.28937" lon="4.54563">
        <ele>600.20001220703</ele>
        <time>2026-05-11T08:25:06.000Z</time>
      </trkpt>
      <trkpt lat="45.28936" lon="4.54561">
        <ele>600.40002441406</ele>
        <time>2026-05-11T08:25:07.000Z</time>
      </trkpt>
      <trkpt lat="45.28936" lon="4.54559">
        <ele>600.79998779297</ele>
        <time>2026-05-11T08:25:08.000Z</time>
      </trkpt>
      <trkpt lat="45.28935" lon="4.54558">
        <ele>601</ele>
        <time>2026-05-11T08:25:09.000Z</time>
      </trkpt>
      <trkpt lat="45.28934" lon="4.54556">
        <ele>601.20001220703</ele>
        <time>2026-05-11T08:25:10.000Z</time>
      </trkpt>
      <trkpt lat="45.28933" lon="4.54554">
        <ele>601.40002441406</ele>
        <time>2026-05-11T08:25:11.000Z</time>
      </trkpt>
      <trkpt lat="45.28932" lon="4.54552">
        <ele>601.59997558594</ele>
        <time>2026-05-11T08:25:12.000Z</time>
      </trkpt>
      <trkpt lat="45.28931" lon="4.54551">
        <ele>601.79998779297</ele>
        <time>2026-05-11T08:25:13.000Z</time>
      </trkpt>
      <trkpt lat="45.2893" lon="4.5455">
        <ele>602</ele>
        <time>2026-05-11T08:25:14.000Z</time>
      </trkpt>
      <trkpt lat="45.28929" lon="4.54548">
        <ele>602.20001220703</ele>
        <time>2026-05-11T08:25:15.000Z</time>
      </trkpt>
      <trkpt lat="45.28928" lon="4.54546">
        <ele>602.40002441406</ele>
        <time>2026-05-11T08:25:16.000Z</time>
      </trkpt>
      <trkpt lat="45.28927" lon="4.54544">
        <ele>602.59997558594</ele>
        <time>2026-05-11T08:25:17.000Z</time>
      </trkpt>
      <trkpt lat="45.28926" lon="4.54543">
        <ele>602.79998779297</ele>
        <time>2026-05-11T08:25:18.000Z</time>
      </trkpt>
      <trkpt lat="45.28925" lon="4.54541">
        <ele>603</ele>
        <time>2026-05-11T08:25:19.000Z</time>
      </trkpt>
      <trkpt lat="45.28924" lon="4.54539">
        <ele>603.40002441406</ele>
        <time>2026-05-11T08:25:20.000Z</time>
      </trkpt>
      <trkpt lat="45.28923" lon="4.54538">
        <ele>603.40002441406</ele>
        <time>2026-05-11T08:25:21.000Z</time>
      </trkpt>
      <trkpt lat="45.28923" lon="4.54536">
        <ele>603.59997558594</ele>
        <time>2026-05-11T08:25:22.000Z</time>
      </trkpt>
      <trkpt lat="45.28922" lon="4.54535">
        <ele>604</ele>
        <time>2026-05-11T08:25:23.000Z</time>
      </trkpt>
      <trkpt lat="45.28921" lon="4.54533">
        <ele>604.20001220703</ele>
        <time>2026-05-11T08:25:24.000Z</time>
      </trkpt>
      <trkpt lat="45.2892" lon="4.54531">
        <ele>604.40002441406</ele>
        <time>2026-05-11T08:25:25.000Z</time>
      </trkpt>
      <trkpt lat="45.28919" lon="4.5453">
        <ele>604.59997558594</ele>
        <time>2026-05-11T08:25:26.000Z</time>
      </trkpt>
      <trkpt lat="45.28918" lon="4.54528">
        <ele>604.59997558594</ele>
        <time>2026-05-11T08:25:27.000Z</time>
      </trkpt>
      <trkpt lat="45.28917" lon="4.54526">
        <ele>604.79998779297</ele>
        <time>2026-05-11T08:25:28.000Z</time>
      </trkpt>
      <trkpt lat="45.28916" lon="4.54524">
        <ele>605</ele>
        <time>2026-05-11T08:25:29.000Z</time>
      </trkpt>
      <trkpt lat="45.28915" lon="4.54522">
        <ele>605.20001220703</ele>
        <time>2026-05-11T08:25:30.000Z</time>
      </trkpt>
      <trkpt lat="45.28914" lon="4.5452">
        <ele>605.40002441406</ele>
        <time>2026-05-11T08:25:31.000Z</time>
      </trkpt>
      <trkpt lat="45.28913" lon="4.54519">
        <ele>605.59997558594</ele>
        <time>2026-05-11T08:25:32.000Z</time>
      </trkpt>
      <trkpt lat="45.28912" lon="4.54518">
        <ele>605.79998779297</ele>
        <time>2026-05-11T08:25:33.000Z</time>
      </trkpt>
      <trkpt lat="45.28911" lon="4.54516">
        <ele>606.20001220703</ele>
        <time>2026-05-11T08:25:34.000Z</time>
      </trkpt>
      <trkpt lat="45.2891" lon="4.54514">
        <ele>606.40002441406</ele>
        <time>2026-05-11T08:25:35.000Z</time>
      </trkpt>
      <trkpt lat="45.2891" lon="4.54512">
        <ele>606.59997558594</ele>
        <time>2026-05-11T08:25:36.000Z</time>
      </trkpt>
      <trkpt lat="45.28909" lon="4.5451">
        <ele>606.79998779297</ele>
        <time>2026-05-11T08:25:37.000Z</time>
      </trkpt>
      <trkpt lat="45.28907" lon="4.54508">
        <ele>607</ele>
        <time>2026-05-11T08:25:38.000Z</time>
      </trkpt>
      <trkpt lat="45.28906" lon="4.54506">
        <ele>607.20001220703</ele>
        <time>2026-05-11T08:25:39.000Z</time>
      </trkpt>
      <trkpt lat="45.28905" lon="4.54504">
        <ele>607.40002441406</ele>
        <time>2026-05-11T08:25:40.000Z</time>
      </trkpt>
      <trkpt lat="45.28904" lon="4.54502">
        <ele>607.59997558594</ele>
        <time>2026-05-11T08:25:41.000Z</time>
      </trkpt>
      <trkpt lat="45.28903" lon="4.54501">
        <ele>607.79998779297</ele>
        <time>2026-05-11T08:25:42.000Z</time>
      </trkpt>
      <trkpt lat="45.28902" lon="4.54499">
        <ele>608</ele>
        <time>2026-05-11T08:25:43.000Z</time>
      </trkpt>
      <trkpt lat="45.28902" lon="4.54497">
        <ele>608.40002441406</ele>
        <time>2026-05-11T08:25:44.000Z</time>
      </trkpt>
      <trkpt lat="45.28901" lon="4.54495">
        <ele>608.59997558594</ele>
        <time>2026-05-11T08:25:45.000Z</time>
      </trkpt>
      <trkpt lat="45.28901" lon="4.54493">
        <ele>608.79998779297</ele>
        <time>2026-05-11T08:25:46.000Z</time>
      </trkpt>
      <trkpt lat="45.289" lon="4.54491">
        <ele>609</ele>
        <time>2026-05-11T08:25:47.000Z</time>
      </trkpt>
      <trkpt lat="45.289" lon="4.54489">
        <ele>609.20001220703</ele>
        <time>2026-05-11T08:25:48.000Z</time>
      </trkpt>
      <trkpt lat="45.28899" lon="4.54486">
        <ele>609.40002441406</ele>
        <time>2026-05-11T08:25:49.000Z</time>
      </trkpt>
      <trkpt lat="45.28899" lon="4.54484">
        <ele>609.59997558594</ele>
        <time>2026-05-11T08:25:50.000Z</time>
      </trkpt>
      <trkpt lat="45.28899" lon="4.54482">
        <ele>609.79998779297</ele>
        <time>2026-05-11T08:25:51.000Z</time>
      </trkpt>
      <trkpt lat="45.28898" lon="4.5448">
        <ele>610</ele>
        <time>2026-05-11T08:25:52.000Z</time>
      </trkpt>
      <trkpt lat="45.28898" lon="4.54478">
        <ele>610.20001220703</ele>
        <time>2026-05-11T08:25:53.000Z</time>
      </trkpt>
      <trkpt lat="45.28897" lon="4.54476">
        <ele>610.40002441406</ele>
        <time>2026-05-11T08:25:54.000Z</time>
      </trkpt>
      <trkpt lat="45.28897" lon="4.54474">
        <ele>610.59997558594</ele>
        <time>2026-05-11T08:25:55.000Z</time>
      </trkpt>
      <trkpt lat="45.28897" lon="4.54472">
        <ele>610.79998779297</ele>
        <time>2026-05-11T08:25:56.000Z</time>
      </trkpt>
      <trkpt lat="45.28896" lon="4.54469">
        <ele>611</ele>
        <time>2026-05-11T08:25:57.000Z</time>
      </trkpt>
      <trkpt lat="45.28896" lon="4.54468">
        <ele>611.20001220703</ele>
        <time>2026-05-11T08:25:58.000Z</time>
      </trkpt>
      <trkpt lat="45.28895" lon="4.54466">
        <ele>611.40002441406</ele>
        <time>2026-05-11T08:25:59.000Z</time>
      </trkpt>
      <trkpt lat="45.28895" lon="4.54463">
        <ele>611.40002441406</ele>
        <time>2026-05-11T08:26:00.000Z</time>
      </trkpt>
      <trkpt lat="45.28894" lon="4.54462">
        <ele>611.79998779297</ele>
        <time>2026-05-11T08:26:01.000Z</time>
      </trkpt>
      <trkpt lat="45.28894" lon="4.54459">
        <ele>612</ele>
        <time>2026-05-11T08:26:02.000Z</time>
      </trkpt>
      <trkpt lat="45.28893" lon="4.54457">
        <ele>612</ele>
        <time>2026-05-11T08:26:03.000Z</time>
      </trkpt>
      <trkpt lat="45.28892" lon="4.54455">
        <ele>612.20001220703</ele>
        <time>2026-05-11T08:26:04.000Z</time>
      </trkpt>
      <trkpt lat="45.28891" lon="4.54453">
        <ele>612.40002441406</ele>
        <time>2026-05-11T08:26:05.000Z</time>
      </trkpt>
      <trkpt lat="45.28891" lon="4.54451">
        <ele>612.59997558594</ele>
        <time>2026-05-11T08:26:06.000Z</time>
      </trkpt>
      <trkpt lat="45.2889" lon="4.54449">
        <ele>612.79998779297</ele>
        <time>2026-05-11T08:26:07.000Z</time>
      </trkpt>
      <trkpt lat="45.28889" lon="4.54447">
        <ele>613</ele>
        <time>2026-05-11T08:26:08.000Z</time>
      </trkpt>
      <trkpt lat="45.28889" lon="4.54445">
        <ele>613.20001220703</ele>
        <time>2026-05-11T08:26:09.000Z</time>
      </trkpt>
      <trkpt lat="45.28888" lon="4.54444">
        <ele>613.20001220703</ele>
        <time>2026-05-11T08:26:10.000Z</time>
      </trkpt>
      <trkpt lat="45.28887" lon="4.54442">
        <ele>613.40002441406</ele>
        <time>2026-05-11T08:26:11.000Z</time>
      </trkpt>
      <trkpt lat="45.28886" lon="4.54441">
        <ele>613.59997558594</ele>
        <time>2026-05-11T08:26:12.000Z</time>
      </trkpt>
      <trkpt lat="45.28886" lon="4.54439">
        <ele>613.79998779297</ele>
        <time>2026-05-11T08:26:13.000Z</time>
      </trkpt>
      <trkpt lat="45.28885" lon="4.54437">
        <ele>614</ele>
        <time>2026-05-11T08:26:14.000Z</time>
      </trkpt>
      <trkpt lat="45.28884" lon="4.54435">
        <ele>614.20001220703</ele>
        <time>2026-05-11T08:26:15.000Z</time>
      </trkpt>
      <trkpt lat="45.28883" lon="4.54433">
        <ele>614.40002441406</ele>
        <time>2026-05-11T08:26:16.000Z</time>
      </trkpt>
      <trkpt lat="45.28883" lon="4.54432">
        <ele>614.59997558594</ele>
        <time>2026-05-11T08:26:17.000Z</time>
      </trkpt>
      <trkpt lat="45.28882" lon="4.5443">
        <ele>614.79998779297</ele>
        <time>2026-05-11T08:26:18.000Z</time>
      </trkpt>
      <trkpt lat="45.28881" lon="4.54428">
        <ele>615</ele>
        <time>2026-05-11T08:26:19.000Z</time>
      </trkpt>
      <trkpt lat="45.2888" lon="4.54426">
        <ele>615.20001220703</ele>
        <time>2026-05-11T08:26:20.000Z</time>
      </trkpt>
      <trkpt lat="45.2888" lon="4.54424">
        <ele>615.40002441406</ele>
        <time>2026-05-11T08:26:21.000Z</time>
      </trkpt>
      <trkpt lat="45.28879" lon="4.54422">
        <ele>615.79998779297</ele>
        <time>2026-05-11T08:26:22.000Z</time>
      </trkpt>
      <trkpt lat="45.28878" lon="4.5442">
        <ele>616</ele>
        <time>2026-05-11T08:26:23.000Z</time>
      </trkpt>
      <trkpt lat="45.28877" lon="4.54418">
        <ele>616.20001220703</ele>
        <time>2026-05-11T08:26:24.000Z</time>
      </trkpt>
      <trkpt lat="45.28877" lon="4.54416">
        <ele>616.40002441406</ele>
        <time>2026-05-11T08:26:25.000Z</time>
      </trkpt>
      <trkpt lat="45.28875" lon="4.54414">
        <ele>616.59997558594</ele>
        <time>2026-05-11T08:26:26.000Z</time>
      </trkpt>
      <trkpt lat="45.28875" lon="4.54412">
        <ele>616.79998779297</ele>
        <time>2026-05-11T08:26:27.000Z</time>
      </trkpt>
      <trkpt lat="45.28874" lon="4.5441">
        <ele>617.20001220703</ele>
        <time>2026-05-11T08:26:28.000Z</time>
      </trkpt>
      <trkpt lat="45.28873" lon="4.54408">
        <ele>617.40002441406</ele>
        <time>2026-05-11T08:26:29.000Z</time>
      </trkpt>
      <trkpt lat="45.28872" lon="4.54405">
        <ele>617.59997558594</ele>
        <time>2026-05-11T08:26:30.000Z</time>
      </trkpt>
      <trkpt lat="45.28872" lon="4.54403">
        <ele>618</ele>
        <time>2026-05-11T08:26:31.000Z</time>
      </trkpt>
      <trkpt lat="45.28871" lon="4.54401">
        <ele>618.20001220703</ele>
        <time>2026-05-11T08:26:32.000Z</time>
      </trkpt>
      <trkpt lat="45.2887" lon="4.54399">
        <ele>618.59997558594</ele>
        <time>2026-05-11T08:26:33.000Z</time>
      </trkpt>
      <trkpt lat="45.2887" lon="4.54397">
        <ele>618.79998779297</ele>
        <time>2026-05-11T08:26:34.000Z</time>
      </trkpt>
      <trkpt lat="45.2887" lon="4.54395">
        <ele>619</ele>
        <time>2026-05-11T08:26:35.000Z</time>
      </trkpt>
      <trkpt lat="45.28869" lon="4.54393">
        <ele>619.40002441406</ele>
        <time>2026-05-11T08:26:36.000Z</time>
      </trkpt>
      <trkpt lat="45.28868" lon="4.54391">
        <ele>619.79998779297</ele>
        <time>2026-05-11T08:26:37.000Z</time>
      </trkpt>
      <trkpt lat="45.28868" lon="4.54389">
        <ele>620</ele>
        <time>2026-05-11T08:26:38.000Z</time>
      </trkpt>
      <trkpt lat="45.28867" lon="4.54387">
        <ele>620.20001220703</ele>
        <time>2026-05-11T08:26:39.000Z</time>
      </trkpt>
      <trkpt lat="45.28867" lon="4.54385">
        <ele>620.59997558594</ele>
        <time>2026-05-11T08:26:40.000Z</time>
      </trkpt>
      <trkpt lat="45.28866" lon="4.54382">
        <ele>620.79998779297</ele>
        <time>2026-05-11T08:26:41.000Z</time>
      </trkpt>
      <trkpt lat="45.28865" lon="4.5438">
        <ele>621</ele>
        <time>2026-05-11T08:26:42.000Z</time>
      </trkpt>
      <trkpt lat="45.28865" lon="4.54378">
        <ele>621.40002441406</ele>
        <time>2026-05-11T08:26:43.000Z</time>
      </trkpt>
      <trkpt lat="45.28864" lon="4.54376">
        <ele>621.59997558594</ele>
        <time>2026-05-11T08:26:44.000Z</time>
      </trkpt>
      <trkpt lat="45.28864" lon="4.54374">
        <ele>621.79998779297</ele>
        <time>2026-05-11T08:26:45.000Z</time>
      </trkpt>
      <trkpt lat="45.28863" lon="4.54372">
        <ele>622</ele>
        <time>2026-05-11T08:26:46.000Z</time>
      </trkpt>
      <trkpt lat="45.28862" lon="4.5437">
        <ele>622.40002441406</ele>
        <time>2026-05-11T08:26:47.000Z</time>
      </trkpt>
      <trkpt lat="45.28861" lon="4.54368">
        <ele>622.59997558594</ele>
        <time>2026-05-11T08:26:48.000Z</time>
      </trkpt>
      <trkpt lat="45.28861" lon="4.54366">
        <ele>622.79998779297</ele>
        <time>2026-05-11T08:26:49.000Z</time>
      </trkpt>
      <trkpt lat="45.2886" lon="4.54364">
        <ele>623</ele>
        <time>2026-05-11T08:26:50.000Z</time>
      </trkpt>
      <trkpt lat="45.2886" lon="4.54362">
        <ele>623.20001220703</ele>
        <time>2026-05-11T08:26:51.000Z</time>
      </trkpt>
      <trkpt lat="45.28859" lon="4.54361">
        <ele>623.40002441406</ele>
        <time>2026-05-11T08:26:52.000Z</time>
      </trkpt>
      <trkpt lat="45.28858" lon="4.54359">
        <ele>623.59997558594</ele>
        <time>2026-05-11T08:26:53.000Z</time>
      </trkpt>
      <trkpt lat="45.28858" lon="4.54357">
        <ele>623.79998779297</ele>
        <time>2026-05-11T08:26:54.000Z</time>
      </trkpt>
      <trkpt lat="45.28858" lon="4.54355">
        <ele>623.79998779297</ele>
        <time>2026-05-11T08:26:55.000Z</time>
      </trkpt>
      <trkpt lat="45.28858" lon="4.54354">
        <ele>624</ele>
        <time>2026-05-11T08:26:56.000Z</time>
      </trkpt>
      <trkpt lat="45.28858" lon="4.54352">
        <ele>624</ele>
        <time>2026-05-11T08:26:57.000Z</time>
      </trkpt>
      <trkpt lat="45.28857" lon="4.5435">
        <ele>624.20001220703</ele>
        <time>2026-05-11T08:26:58.000Z</time>
      </trkpt>
      <trkpt lat="45.28856" lon="4.54348">
        <ele>624.20001220703</ele>
        <time>2026-05-11T08:26:59.000Z</time>
      </trkpt>
      <trkpt lat="45.28856" lon="4.54346">
        <ele>624.20001220703</ele>
        <time>2026-05-11T08:27:00.000Z</time>
      </trkpt>
      <trkpt lat="45.28856" lon="4.54344">
        <ele>624.20001220703</ele>
        <time>2026-05-11T08:27:01.000Z</time>
      </trkpt>
      <trkpt lat="45.28856" lon="4.54342">
        <ele>624.40002441406</ele>
        <time>2026-05-11T08:27:02.000Z</time>
      </trkpt>
      <trkpt lat="45.28857" lon="4.54341">
        <ele>624.40002441406</ele>
        <time>2026-05-11T08:27:03.000Z</time>
      </trkpt>
      <trkpt lat="45.28857" lon="4.54339">
        <ele>624.40002441406</ele>
        <time>2026-05-11T08:27:04.000Z</time>
      </trkpt>
      <trkpt lat="45.28858" lon="4.54338">
        <ele>624.40002441406</ele>
        <time>2026-05-11T08:27:05.000Z</time>
      </trkpt>
      <trkpt lat="45.28858" lon="4.54336">
        <ele>624.40002441406</ele>
        <time>2026-05-11T08:27:06.000Z</time>
      </trkpt>
      <trkpt lat="45.28858" lon="4.54336">
        <ele>624.40002441406</ele>
        <time>2026-05-11T08:27:07.000Z</time>
      </trkpt>
      <trkpt lat="45.28858" lon="4.54337">
        <ele>624.59997558594</ele>
        <time>2026-05-11T08:27:08.000Z</time>
      </trkpt>
      <trkpt lat="45.28858" lon="4.54328">
        <ele>624.40002441406</ele>
        <time>2026-05-11T08:28:06.000Z</time>
      </trkpt>
      <trkpt lat="45.28858" lon="4.54326">
        <ele>624.40002441406</ele>
        <time>2026-05-11T08:28:07.000Z</time>
      </trkpt>
      <trkpt lat="45.28858" lon="4.54323">
        <ele>624.40002441406</ele>
        <time>2026-05-11T08:28:08.000Z</time>
      </trkpt>
      <trkpt lat="45.28859" lon="4.54321">
        <ele>624.40002441406</ele>
        <time>2026-05-11T08:28:09.000Z</time>
      </trkpt>
      <trkpt lat="45.28859" lon="4.54318">
        <ele>624.40002441406</ele>
        <time>2026-05-11T08:28:10.000Z</time>
      </trkpt>
      <trkpt lat="45.28859" lon="4.54316">
        <ele>624.40002441406</ele>
        <time>2026-05-11T08:28:11.000Z</time>
      </trkpt>
      <trkpt lat="45.28859" lon="4.54314">
        <ele>624.40002441406</ele>
        <time>2026-05-11T08:28:12.000Z</time>
      </trkpt>
      <trkpt lat="45.2886" lon="4.54311">
        <ele>624.40002441406</ele>
        <time>2026-05-11T08:28:13.000Z</time>
      </trkpt>
      <trkpt lat="45.2886" lon="4.54308">
        <ele>624.59997558594</ele>
        <time>2026-05-11T08:28:14.000Z</time>
      </trkpt>
      <trkpt lat="45.2886" lon="4.54305">
        <ele>624.59997558594</ele>
        <time>2026-05-11T08:28:15.000Z</time>
      </trkpt>
      <trkpt lat="45.2886" lon="4.54302">
        <ele>624.59997558594</ele>
        <time>2026-05-11T08:28:16.000Z</time>
      </trkpt>
      <trkpt lat="45.2886" lon="4.54299">
        <ele>624.59997558594</ele>
        <time>2026-05-11T08:28:17.000Z</time>
      </trkpt>
      <trkpt lat="45.2886" lon="4.54296">
        <ele>624.79998779297</ele>
        <time>2026-05-11T08:28:18.000Z</time>
      </trkpt>
      <trkpt lat="45.2886" lon="4.54293">
        <ele>624.79998779297</ele>
        <time>2026-05-11T08:28:19.000Z</time>
      </trkpt>
      <trkpt lat="45.28861" lon="4.54291">
        <ele>624.79998779297</ele>
        <time>2026-05-11T08:28:20.000Z</time>
      </trkpt>
      <trkpt lat="45.28861" lon="4.54288">
        <ele>624.79998779297</ele>
        <time>2026-05-11T08:28:21.000Z</time>
      </trkpt>
      <trkpt lat="45.28861" lon="4.54285">
        <ele>625</ele>
        <time>2026-05-11T08:28:22.000Z</time>
      </trkpt>
      <trkpt lat="45.28861" lon="4.54282">
        <ele>625</ele>
        <time>2026-05-11T08:28:23.000Z</time>
      </trkpt>
      <trkpt lat="45.28861" lon="4.54279">
        <ele>625</ele>
        <time>2026-05-11T08:28:24.000Z</time>
      </trkpt>
      <trkpt lat="45.28861" lon="4.54276">
        <ele>625</ele>
        <time>2026-05-11T08:28:25.000Z</time>
      </trkpt>
      <trkpt lat="45.28862" lon="4.54274">
        <ele>625</ele>
        <time>2026-05-11T08:28:26.000Z</time>
      </trkpt>
      <trkpt lat="45.28862" lon="4.54271">
        <ele>625.20001220703</ele>
        <time>2026-05-11T08:28:27.000Z</time>
      </trkpt>
      <trkpt lat="45.28862" lon="4.54268">
        <ele>625.20001220703</ele>
        <time>2026-05-11T08:28:28.000Z</time>
      </trkpt>
      <trkpt lat="45.28862" lon="4.54265">
        <ele>625.20001220703</ele>
        <time>2026-05-11T08:28:29.000Z</time>
      </trkpt>
      <trkpt lat="45.28861" lon="4.54262">
        <ele>625.20001220703</ele>
        <time>2026-05-11T08:28:30.000Z</time>
      </trkpt>
      <trkpt lat="45.28861" lon="4.54259">
        <ele>625.20001220703</ele>
        <time>2026-05-11T08:28:31.000Z</time>
      </trkpt>
      <trkpt lat="45.28861" lon="4.54257">
        <ele>625.20001220703</ele>
        <time>2026-05-11T08:28:32.000Z</time>
      </trkpt>
      <trkpt lat="45.2886" lon="4.54254">
        <ele>625.20001220703</ele>
        <time>2026-05-11T08:28:33.000Z</time>
      </trkpt>
      <trkpt lat="45.28859" lon="4.54252">
        <ele>625.40002441406</ele>
        <time>2026-05-11T08:28:34.000Z</time>
      </trkpt>
      <trkpt lat="45.28858" lon="4.5425">
        <ele>625.40002441406</ele>
        <time>2026-05-11T08:28:35.000Z</time>
      </trkpt>
      <trkpt lat="45.28856" lon="4.54248">
        <ele>625.40002441406</ele>
        <time>2026-05-11T08:28:36.000Z</time>
      </trkpt>
      <trkpt lat="45.28855" lon="4.54246">
        <ele>625.59997558594</ele>
        <time>2026-05-11T08:28:37.000Z</time>
      </trkpt>
      <trkpt lat="45.28853" lon="4.54244">
        <ele>625.59997558594</ele>
        <time>2026-05-11T08:28:38.000Z</time>
      </trkpt>
      <trkpt lat="45.28852" lon="4.54243">
        <ele>625.79998779297</ele>
        <time>2026-05-11T08:28:39.000Z</time>
      </trkpt>
      <trkpt lat="45.2885" lon="4.54242">
        <ele>625.79998779297</ele>
        <time>2026-05-11T08:28:40.000Z</time>
      </trkpt>
      <trkpt lat="45.28849" lon="4.54241">
        <ele>626</ele>
        <time>2026-05-11T08:28:41.000Z</time>
      </trkpt>
      <trkpt lat="45.28847" lon="4.5424">
        <ele>626.20001220703</ele>
        <time>2026-05-11T08:28:42.000Z</time>
      </trkpt>
      <trkpt lat="45.28846" lon="4.54239">
        <ele>626.20001220703</ele>
        <time>2026-05-11T08:28:43.000Z</time>
      </trkpt>
      <trkpt lat="45.28844" lon="4.54238">
        <ele>626.40002441406</ele>
        <time>2026-05-11T08:28:44.000Z</time>
      </trkpt>
      <trkpt lat="45.28842" lon="4.54237">
        <ele>626.59997558594</ele>
        <time>2026-05-11T08:28:45.000Z</time>
      </trkpt>
      <trkpt lat="45.2884" lon="4.54236">
        <ele>626.79998779297</ele>
        <time>2026-05-11T08:28:46.000Z</time>
      </trkpt>
      <trkpt lat="45.28838" lon="4.54235">
        <ele>626.79998779297</ele>
        <time>2026-05-11T08:28:47.000Z</time>
      </trkpt>
      <trkpt lat="45.28837" lon="4.54234">
        <ele>627</ele>
        <time>2026-05-11T08:28:48.000Z</time>
      </trkpt>
      <trkpt lat="45.28835" lon="4.54233">
        <ele>627</ele>
        <time>2026-05-11T08:28:49.000Z</time>
      </trkpt>
      <trkpt lat="45.28833" lon="4.54233">
        <ele>627.20001220703</ele>
        <time>2026-05-11T08:28:50.000Z</time>
      </trkpt>
      <trkpt lat="45.28831" lon="4.54232">
        <ele>627.40002441406</ele>
        <time>2026-05-11T08:28:51.000Z</time>
      </trkpt>
      <trkpt lat="45.28829" lon="4.54231">
        <ele>627.40002441406</ele>
        <time>2026-05-11T08:28:52.000Z</time>
      </trkpt>
      <trkpt lat="45.28827" lon="4.5423">
        <ele>627.59997558594</ele>
        <time>2026-05-11T08:28:53.000Z</time>
      </trkpt>
      <trkpt lat="45.28825" lon="4.54229">
        <ele>627.59997558594</ele>
        <time>2026-05-11T08:28:54.000Z</time>
      </trkpt>
      <trkpt lat="45.28823" lon="4.54228">
        <ele>627.79998779297</ele>
        <time>2026-05-11T08:28:55.000Z</time>
      </trkpt>
      <trkpt lat="45.28821" lon="4.54227">
        <ele>627.79998779297</ele>
        <time>2026-05-11T08:28:56.000Z</time>
      </trkpt>
      <trkpt lat="45.2882" lon="4.54226">
        <ele>627.79998779297</ele>
        <time>2026-05-11T08:28:57.000Z</time>
      </trkpt>
      <trkpt lat="45.28818" lon="4.54226">
        <ele>628</ele>
        <time>2026-05-11T08:28:58.000Z</time>
      </trkpt>
      <trkpt lat="45.28816" lon="4.54225">
        <ele>628.20001220703</ele>
        <time>2026-05-11T08:28:59.000Z</time>
      </trkpt>
      <trkpt lat="45.28815" lon="4.54224">
        <ele>628.20001220703</ele>
        <time>2026-05-11T08:29:00.000Z</time>
      </trkpt>
      <trkpt lat="45.28813" lon="4.54224">
        <ele>628.40002441406</ele>
        <time>2026-05-11T08:29:01.000Z</time>
      </trkpt>
      <trkpt lat="45.28811" lon="4.54223">
        <ele>628.59997558594</ele>
        <time>2026-05-11T08:29:02.000Z</time>
      </trkpt>
      <trkpt lat="45.2881" lon="4.54223">
        <ele>628.79998779297</ele>
        <time>2026-05-11T08:29:03.000Z</time>
      </trkpt>
      <trkpt lat="45.28808" lon="4.54222">
        <ele>629</ele>
        <time>2026-05-11T08:29:04.000Z</time>
      </trkpt>
      <trkpt lat="45.28806" lon="4.54221">
        <ele>629.20001220703</ele>
        <time>2026-05-11T08:29:05.000Z</time>
      </trkpt>
      <trkpt lat="45.28804" lon="4.54221">
        <ele>629.40002441406</ele>
        <time>2026-05-11T08:29:06.000Z</time>
      </trkpt>
      <trkpt lat="45.28803" lon="4.5422">
        <ele>629.40002441406</ele>
        <time>2026-05-11T08:29:07.000Z</time>
      </trkpt>
      <trkpt lat="45.28801" lon="4.5422">
        <ele>629.79998779297</ele>
        <time>2026-05-11T08:29:08.000Z</time>
      </trkpt>
      <trkpt lat="45.28799" lon="4.54219">
        <ele>630</ele>
        <time>2026-05-11T08:29:09.000Z</time>
      </trkpt>
      <trkpt lat="45.28797" lon="4.54219">
        <ele>630.20001220703</ele>
        <time>2026-05-11T08:29:10.000Z</time>
      </trkpt>
      <trkpt lat="45.28795" lon="4.54218">
        <ele>630.40002441406</ele>
        <time>2026-05-11T08:29:11.000Z</time>
      </trkpt>
      <trkpt lat="45.28794" lon="4.54217">
        <ele>630.59997558594</ele>
        <time>2026-05-11T08:29:12.000Z</time>
      </trkpt>
      <trkpt lat="45.28792" lon="4.54217">
        <ele>630.59997558594</ele>
        <time>2026-05-11T08:29:13.000Z</time>
      </trkpt>
      <trkpt lat="45.2879" lon="4.54216">
        <ele>631</ele>
        <time>2026-05-11T08:29:14.000Z</time>
      </trkpt>
      <trkpt lat="45.28788" lon="4.54215">
        <ele>631.20001220703</ele>
        <time>2026-05-11T08:29:15.000Z</time>
      </trkpt>
      <trkpt lat="45.28787" lon="4.54215">
        <ele>631.40002441406</ele>
        <time>2026-05-11T08:29:16.000Z</time>
      </trkpt>
      <trkpt lat="45.28785" lon="4.54215">
        <ele>631.59997558594</ele>
        <time>2026-05-11T08:29:17.000Z</time>
      </trkpt>
      <trkpt lat="45.28783" lon="4.54214">
        <ele>631.79998779297</ele>
        <time>2026-05-11T08:29:18.000Z</time>
      </trkpt>
      <trkpt lat="45.28781" lon="4.54213">
        <ele>632</ele>
        <time>2026-05-11T08:29:19.000Z</time>
      </trkpt>
      <trkpt lat="45.28779" lon="4.54212">
        <ele>632.20001220703</ele>
        <time>2026-05-11T08:29:20.000Z</time>
      </trkpt>
      <trkpt lat="45.28778" lon="4.54211">
        <ele>632.40002441406</ele>
        <time>2026-05-11T08:29:21.000Z</time>
      </trkpt>
      <trkpt lat="45.28776" lon="4.54209">
        <ele>632.59997558594</ele>
        <time>2026-05-11T08:29:22.000Z</time>
      </trkpt>
      <trkpt lat="45.28774" lon="4.54208">
        <ele>633</ele>
        <time>2026-05-11T08:29:23.000Z</time>
      </trkpt>
      <trkpt lat="45.28772" lon="4.54207">
        <ele>633.20001220703</ele>
        <time>2026-05-11T08:29:24.000Z</time>
      </trkpt>
      <trkpt lat="45.28771" lon="4.54206">
        <ele>633.40002441406</ele>
        <time>2026-05-11T08:29:25.000Z</time>
      </trkpt>
      <trkpt lat="45.2877" lon="4.54204">
        <ele>633.59997558594</ele>
        <time>2026-05-11T08:29:26.000Z</time>
      </trkpt>
      <trkpt lat="45.28768" lon="4.54202">
        <ele>633.79998779297</ele>
        <time>2026-05-11T08:29:27.000Z</time>
      </trkpt>
      <trkpt lat="45.28767" lon="4.542">
        <ele>634</ele>
        <time>2026-05-11T08:29:28.000Z</time>
      </trkpt>
      <trkpt lat="45.28766" lon="4.54197">
        <ele>634.20001220703</ele>
        <time>2026-05-11T08:29:29.000Z</time>
      </trkpt>
      <trkpt lat="45.28765" lon="4.54195">
        <ele>634.40002441406</ele>
        <time>2026-05-11T08:29:30.000Z</time>
      </trkpt>
      <trkpt lat="45.28765" lon="4.54193">
        <ele>634.59997558594</ele>
        <time>2026-05-11T08:29:31.000Z</time>
      </trkpt>
      <trkpt lat="45.28764" lon="4.5419">
        <ele>634.79998779297</ele>
        <time>2026-05-11T08:29:32.000Z</time>
      </trkpt>
      <trkpt lat="45.28763" lon="4.54188">
        <ele>635</ele>
        <time>2026-05-11T08:29:33.000Z</time>
      </trkpt>
      <trkpt lat="45.28762" lon="4.54185">
        <ele>635.20001220703</ele>
        <time>2026-05-11T08:29:34.000Z</time>
      </trkpt>
      <trkpt lat="45.28762" lon="4.54183">
        <ele>635.20001220703</ele>
        <time>2026-05-11T08:29:35.000Z</time>
      </trkpt>
      <trkpt lat="45.28761" lon="4.5418">
        <ele>635.40002441406</ele>
        <time>2026-05-11T08:29:36.000Z</time>
      </trkpt>
      <trkpt lat="45.2876" lon="4.54177">
        <ele>635.59997558594</ele>
        <time>2026-05-11T08:29:37.000Z</time>
      </trkpt>
      <trkpt lat="45.2876" lon="4.54174">
        <ele>635.79998779297</ele>
        <time>2026-05-11T08:29:38.000Z</time>
      </trkpt>
      <trkpt lat="45.2876" lon="4.54171">
        <ele>636</ele>
        <time>2026-05-11T08:29:39.000Z</time>
      </trkpt>
      <trkpt lat="45.2876" lon="4.54168">
        <ele>636.20001220703</ele>
        <time>2026-05-11T08:29:40.000Z</time>
      </trkpt>
      <trkpt lat="45.28759" lon="4.54166">
        <ele>636.20001220703</ele>
        <time>2026-05-11T08:29:41.000Z</time>
      </trkpt>
      <trkpt lat="45.28759" lon="4.54163">
        <ele>636.40002441406</ele>
        <time>2026-05-11T08:29:42.000Z</time>
      </trkpt>
      <trkpt lat="45.28759" lon="4.5416">
        <ele>636.59997558594</ele>
        <time>2026-05-11T08:29:43.000Z</time>
      </trkpt>
      <trkpt lat="45.28759" lon="4.54157">
        <ele>636.59997558594</ele>
        <time>2026-05-11T08:29:44.000Z</time>
      </trkpt>
      <trkpt lat="45.28759" lon="4.54154">
        <ele>636.79998779297</ele>
        <time>2026-05-11T08:29:45.000Z</time>
      </trkpt>
      <trkpt lat="45.28759" lon="4.54151">
        <ele>636.79998779297</ele>
        <time>2026-05-11T08:29:46.000Z</time>
      </trkpt>
      <trkpt lat="45.28759" lon="4.54149">
        <ele>637</ele>
        <time>2026-05-11T08:29:47.000Z</time>
      </trkpt>
      <trkpt lat="45.2876" lon="4.54146">
        <ele>637</ele>
        <time>2026-05-11T08:29:48.000Z</time>
      </trkpt>
      <trkpt lat="45.2876" lon="4.54143">
        <ele>637.20001220703</ele>
        <time>2026-05-11T08:29:49.000Z</time>
      </trkpt>
      <trkpt lat="45.28761" lon="4.5414">
        <ele>637.20001220703</ele>
        <time>2026-05-11T08:29:50.000Z</time>
      </trkpt>
      <trkpt lat="45.28761" lon="4.54138">
        <ele>637.40002441406</ele>
        <time>2026-05-11T08:29:51.000Z</time>
      </trkpt>
      <trkpt lat="45.28762" lon="4.54135">
        <ele>637.40002441406</ele>
        <time>2026-05-11T08:29:52.000Z</time>
      </trkpt>
      <trkpt lat="45.28762" lon="4.54133">
        <ele>637.59997558594</ele>
        <time>2026-05-11T08:29:53.000Z</time>
      </trkpt>
      <trkpt lat="45.28762" lon="4.5413">
        <ele>637.59997558594</ele>
        <time>2026-05-11T08:29:54.000Z</time>
      </trkpt>
      <trkpt lat="45.28762" lon="4.54128">
        <ele>637.79998779297</ele>
        <time>2026-05-11T08:29:55.000Z</time>
      </trkpt>
      <trkpt lat="45.28763" lon="4.54126">
        <ele>637.79998779297</ele>
        <time>2026-05-11T08:29:56.000Z</time>
      </trkpt>
      <trkpt lat="45.28764" lon="4.54124">
        <ele>638</ele>
        <time>2026-05-11T08:29:57.000Z</time>
      </trkpt>
      <trkpt lat="45.28764" lon="4.54122">
        <ele>638.20001220703</ele>
        <time>2026-05-11T08:29:58.000Z</time>
      </trkpt>
      <trkpt lat="45.28765" lon="4.5412">
        <ele>638.20001220703</ele>
        <time>2026-05-11T08:29:59.000Z</time>
      </trkpt>
      <trkpt lat="45.28766" lon="4.54118">
        <ele>638.40002441406</ele>
        <time>2026-05-11T08:30:00.000Z</time>
      </trkpt>
      <trkpt lat="45.28767" lon="4.54116">
        <ele>638.59997558594</ele>
        <time>2026-05-11T08:30:01.000Z</time>
      </trkpt>
      <trkpt lat="45.28768" lon="4.54114">
        <ele>638.79998779297</ele>
        <time>2026-05-11T08:30:02.000Z</time>
      </trkpt>
      <trkpt lat="45.28769" lon="4.54112">
        <ele>639</ele>
        <time>2026-05-11T08:30:03.000Z</time>
      </trkpt>
      <trkpt lat="45.2877" lon="4.5411">
        <ele>639</ele>
        <time>2026-05-11T08:30:04.000Z</time>
      </trkpt>
      <trkpt lat="45.28771" lon="4.54108">
        <ele>639.20001220703</ele>
        <time>2026-05-11T08:30:05.000Z</time>
      </trkpt>
      <trkpt lat="45.28772" lon="4.54107">
        <ele>639.40002441406</ele>
        <time>2026-05-11T08:30:06.000Z</time>
      </trkpt>
      <trkpt lat="45.28773" lon="4.54105">
        <ele>639.59997558594</ele>
        <time>2026-05-11T08:30:07.000Z</time>
      </trkpt>
      <trkpt lat="45.28775" lon="4.54103">
        <ele>639.79998779297</ele>
        <time>2026-05-11T08:30:08.000Z</time>
      </trkpt>
      <trkpt lat="45.28776" lon="4.54101">
        <ele>640</ele>
        <time>2026-05-11T08:30:09.000Z</time>
      </trkpt>
      <trkpt lat="45.28777" lon="4.541">
        <ele>640.20001220703</ele>
        <time>2026-05-11T08:30:10.000Z</time>
      </trkpt>
      <trkpt lat="45.28779" lon="4.54098">
        <ele>640.40002441406</ele>
        <time>2026-05-11T08:30:11.000Z</time>
      </trkpt>
      <trkpt lat="45.2878" lon="4.54096">
        <ele>640.59997558594</ele>
        <time>2026-05-11T08:30:12.000Z</time>
      </trkpt>
      <trkpt lat="45.28782" lon="4.54095">
        <ele>640.59997558594</ele>
        <time>2026-05-11T08:30:13.000Z</time>
      </trkpt>
      <trkpt lat="45.28783" lon="4.54093">
        <ele>640.79998779297</ele>
        <time>2026-05-11T08:30:14.000Z</time>
      </trkpt>
      <trkpt lat="45.28784" lon="4.54092">
        <ele>640.79998779297</ele>
        <time>2026-05-11T08:30:15.000Z</time>
      </trkpt>
      <trkpt lat="45.28786" lon="4.5409">
        <ele>641</ele>
        <time>2026-05-11T08:30:16.000Z</time>
      </trkpt>
      <trkpt lat="45.28787" lon="4.54088">
        <ele>641.20001220703</ele>
        <time>2026-05-11T08:30:17.000Z</time>
      </trkpt>
      <trkpt lat="45.28788" lon="4.54086">
        <ele>641.40002441406</ele>
        <time>2026-05-11T08:30:18.000Z</time>
      </trkpt>
      <trkpt lat="45.28789" lon="4.54085">
        <ele>641.40002441406</ele>
        <time>2026-05-11T08:30:19.000Z</time>
      </trkpt>
      <trkpt lat="45.2879" lon="4.54083">
        <ele>641.59997558594</ele>
        <time>2026-05-11T08:30:20.000Z</time>
      </trkpt>
      <trkpt lat="45.28792" lon="4.54081">
        <ele>641.59997558594</ele>
        <time>2026-05-11T08:30:21.000Z</time>
      </trkpt>
      <trkpt lat="45.28793" lon="4.5408">
        <ele>641.79998779297</ele>
        <time>2026-05-11T08:30:22.000Z</time>
      </trkpt>
      <trkpt lat="45.28794" lon="4.54079">
        <ele>642</ele>
        <time>2026-05-11T08:30:23.000Z</time>
      </trkpt>
      <trkpt lat="45.28795" lon="4.54077">
        <ele>642</ele>
        <time>2026-05-11T08:30:24.000Z</time>
      </trkpt>
      <trkpt lat="45.28797" lon="4.54076">
        <ele>642.20001220703</ele>
        <time>2026-05-11T08:30:25.000Z</time>
      </trkpt>
      <trkpt lat="45.28798" lon="4.54074">
        <ele>642.40002441406</ele>
        <time>2026-05-11T08:30:26.000Z</time>
      </trkpt>
      <trkpt lat="45.28799" lon="4.54072">
        <ele>642.40002441406</ele>
        <time>2026-05-11T08:30:27.000Z</time>
      </trkpt>
      <trkpt lat="45.288" lon="4.54071">
        <ele>642.59997558594</ele>
        <time>2026-05-11T08:30:28.000Z</time>
      </trkpt>
      <trkpt lat="45.28801" lon="4.54069">
        <ele>642.79998779297</ele>
        <time>2026-05-11T08:30:29.000Z</time>
      </trkpt>
      <trkpt lat="45.28802" lon="4.54068">
        <ele>642.79998779297</ele>
        <time>2026-05-11T08:30:30.000Z</time>
      </trkpt>
      <trkpt lat="45.28803" lon="4.54067">
        <ele>643</ele>
        <time>2026-05-11T08:30:31.000Z</time>
      </trkpt>
      <trkpt lat="45.28804" lon="4.54065">
        <ele>643.20001220703</ele>
        <time>2026-05-11T08:30:32.000Z</time>
      </trkpt>
      <trkpt lat="45.28805" lon="4.54064">
        <ele>643.40002441406</ele>
        <time>2026-05-11T08:30:33.000Z</time>
      </trkpt>
      <trkpt lat="45.28806" lon="4.54062">
        <ele>643.59997558594</ele>
        <time>2026-05-11T08:30:34.000Z</time>
      </trkpt>
      <trkpt lat="45.28808" lon="4.54061">
        <ele>643.79998779297</ele>
        <time>2026-05-11T08:30:35.000Z</time>
      </trkpt>
      <trkpt lat="45.28809" lon="4.5406">
        <ele>644</ele>
        <time>2026-05-11T08:30:36.000Z</time>
      </trkpt>
      <trkpt lat="45.2881" lon="4.54058">
        <ele>644.20001220703</ele>
        <time>2026-05-11T08:30:37.000Z</time>
      </trkpt>
      <trkpt lat="45.28811" lon="4.54057">
        <ele>644.20001220703</ele>
        <time>2026-05-11T08:30:38.000Z</time>
      </trkpt>
      <trkpt lat="45.28812" lon="4.54055">
        <ele>644.40002441406</ele>
        <time>2026-05-11T08:30:39.000Z</time>
      </trkpt>
      <trkpt lat="45.28813" lon="4.54054">
        <ele>644.59997558594</ele>
        <time>2026-05-11T08:30:40.000Z</time>
      </trkpt>
      <trkpt lat="45.28813" lon="4.54053">
        <ele>644.79998779297</ele>
        <time>2026-05-11T08:30:41.000Z</time>
      </trkpt>
      <trkpt lat="45.28814" lon="4.54051">
        <ele>645</ele>
        <time>2026-05-11T08:30:42.000Z</time>
      </trkpt>
      <trkpt lat="45.28815" lon="4.54048">
        <ele>645.20001220703</ele>
        <time>2026-05-11T08:30:43.000Z</time>
      </trkpt>
      <trkpt lat="45.28815" lon="4.54046">
        <ele>645.40002441406</ele>
        <time>2026-05-11T08:30:44.000Z</time>
      </trkpt>
      <trkpt lat="45.28816" lon="4.54044">
        <ele>645.59997558594</ele>
        <time>2026-05-11T08:30:45.000Z</time>
      </trkpt>
      <trkpt lat="45.28816" lon="4.54042">
        <ele>645.79998779297</ele>
        <time>2026-05-11T08:30:46.000Z</time>
      </trkpt>
      <trkpt lat="45.28817" lon="4.54039">
        <ele>646</ele>
        <time>2026-05-11T08:30:47.000Z</time>
      </trkpt>
      <trkpt lat="45.28817" lon="4.54037">
        <ele>646.20001220703</ele>
        <time>2026-05-11T08:30:48.000Z</time>
      </trkpt>
      <trkpt lat="45.28817" lon="4.54035">
        <ele>646.40002441406</ele>
        <time>2026-05-11T08:30:49.000Z</time>
      </trkpt>
      <trkpt lat="45.28818" lon="4.54034">
        <ele>646.59997558594</ele>
        <time>2026-05-11T08:30:50.000Z</time>
      </trkpt>
      <trkpt lat="45.28819" lon="4.54032">
        <ele>646.79998779297</ele>
        <time>2026-05-11T08:30:51.000Z</time>
      </trkpt>
      <trkpt lat="45.28819" lon="4.5403">
        <ele>646.79998779297</ele>
        <time>2026-05-11T08:30:52.000Z</time>
      </trkpt>
      <trkpt lat="45.2882" lon="4.54028">
        <ele>647.20001220703</ele>
        <time>2026-05-11T08:30:53.000Z</time>
      </trkpt>
      <trkpt lat="45.2882" lon="4.54026">
        <ele>647.20001220703</ele>
        <time>2026-05-11T08:30:54.000Z</time>
      </trkpt>
      <trkpt lat="45.2882" lon="4.54023">
        <ele>647.40002441406</ele>
        <time>2026-05-11T08:30:55.000Z</time>
      </trkpt>
      <trkpt lat="45.2882" lon="4.54021">
        <ele>647.59997558594</ele>
        <time>2026-05-11T08:30:56.000Z</time>
      </trkpt>
      <trkpt lat="45.28821" lon="4.54019">
        <ele>647.59997558594</ele>
        <time>2026-05-11T08:30:57.000Z</time>
      </trkpt>
      <trkpt lat="45.28821" lon="4.54017">
        <ele>647.79998779297</ele>
        <time>2026-05-11T08:30:58.000Z</time>
      </trkpt>
      <trkpt lat="45.28821" lon="4.54014">
        <ele>648</ele>
        <time>2026-05-11T08:30:59.000Z</time>
      </trkpt>
      <trkpt lat="45.28821" lon="4.54012">
        <ele>648.20001220703</ele>
        <time>2026-05-11T08:31:00.000Z</time>
      </trkpt>
      <trkpt lat="45.28821" lon="4.54009">
        <ele>648.40002441406</ele>
        <time>2026-05-11T08:31:01.000Z</time>
      </trkpt>
      <trkpt lat="45.28821" lon="4.54007">
        <ele>648.40002441406</ele>
        <time>2026-05-11T08:31:02.000Z</time>
      </trkpt>
      <trkpt lat="45.28821" lon="4.54005">
        <ele>648.59997558594</ele>
        <time>2026-05-11T08:31:03.000Z</time>
      </trkpt>
      <trkpt lat="45.28821" lon="4.54002">
        <ele>648.79998779297</ele>
        <time>2026-05-11T08:31:04.000Z</time>
      </trkpt>
      <trkpt lat="45.28821" lon="4.54">
        <ele>649</ele>
        <time>2026-05-11T08:31:05.000Z</time>
      </trkpt>
      <trkpt lat="45.28821" lon="4.53998">
        <ele>649.20001220703</ele>
        <time>2026-05-11T08:31:06.000Z</time>
      </trkpt>
      <trkpt lat="45.28821" lon="4.53995">
        <ele>649.40002441406</ele>
        <time>2026-05-11T08:31:07.000Z</time>
      </trkpt>
      <trkpt lat="45.28821" lon="4.53993">
        <ele>649.40002441406</ele>
        <time>2026-05-11T08:31:08.000Z</time>
      </trkpt>
      <trkpt lat="45.28822" lon="4.5399">
        <ele>649.59997558594</ele>
        <time>2026-05-11T08:31:09.000Z</time>
      </trkpt>
      <trkpt lat="45.28822" lon="4.53988">
        <ele>649.79998779297</ele>
        <time>2026-05-11T08:31:10.000Z</time>
      </trkpt>
      <trkpt lat="45.28822" lon="4.53986">
        <ele>650</ele>
        <time>2026-05-11T08:31:11.000Z</time>
      </trkpt>
      <trkpt lat="45.28822" lon="4.53984">
        <ele>650</ele>
        <time>2026-05-11T08:31:12.000Z</time>
      </trkpt>
      <trkpt lat="45.28822" lon="4.53981">
        <ele>650.20001220703</ele>
        <time>2026-05-11T08:31:13.000Z</time>
      </trkpt>
      <trkpt lat="45.28822" lon="4.53979">
        <ele>650.40002441406</ele>
        <time>2026-05-11T08:31:14.000Z</time>
      </trkpt>
      <trkpt lat="45.28822" lon="4.53977">
        <ele>650.40002441406</ele>
        <time>2026-05-11T08:31:15.000Z</time>
      </trkpt>
      <trkpt lat="45.28822" lon="4.53974">
        <ele>650.59997558594</ele>
        <time>2026-05-11T08:31:16.000Z</time>
      </trkpt>
      <trkpt lat="45.28822" lon="4.53972">
        <ele>650.79998779297</ele>
        <time>2026-05-11T08:31:17.000Z</time>
      </trkpt>
      <trkpt lat="45.28822" lon="4.53969">
        <ele>651</ele>
        <time>2026-05-11T08:31:18.000Z</time>
      </trkpt>
      <trkpt lat="45.28822" lon="4.53967">
        <ele>651</ele>
        <time>2026-05-11T08:31:19.000Z</time>
      </trkpt>
      <trkpt lat="45.28822" lon="4.53965">
        <ele>651.20001220703</ele>
        <time>2026-05-11T08:31:20.000Z</time>
      </trkpt>
      <trkpt lat="45.28822" lon="4.53963">
        <ele>651.40002441406</ele>
        <time>2026-05-11T08:31:21.000Z</time>
      </trkpt>
      <trkpt lat="45.28821" lon="4.5396">
        <ele>651.40002441406</ele>
        <time>2026-05-11T08:31:22.000Z</time>
      </trkpt>
      <trkpt lat="45.28821" lon="4.53958">
        <ele>651.59997558594</ele>
        <time>2026-05-11T08:31:23.000Z</time>
      </trkpt>
      <trkpt lat="45.2882" lon="4.53956">
        <ele>651.79998779297</ele>
        <time>2026-05-11T08:31:24.000Z</time>
      </trkpt>
      <trkpt lat="45.2882" lon="4.53954">
        <ele>651.79998779297</ele>
        <time>2026-05-11T08:31:25.000Z</time>
      </trkpt>
      <trkpt lat="45.28819" lon="4.53953">
        <ele>652</ele>
        <time>2026-05-11T08:31:26.000Z</time>
      </trkpt>
      <trkpt lat="45.28818" lon="4.53951">
        <ele>652.20001220703</ele>
        <time>2026-05-11T08:31:27.000Z</time>
      </trkpt>
      <trkpt lat="45.28818" lon="4.53948">
        <ele>652.20001220703</ele>
        <time>2026-05-11T08:31:28.000Z</time>
      </trkpt>
      <trkpt lat="45.28817" lon="4.53946">
        <ele>652.40002441406</ele>
        <time>2026-05-11T08:31:29.000Z</time>
      </trkpt>
      <trkpt lat="45.28816" lon="4.53944">
        <ele>652.59997558594</ele>
        <time>2026-05-11T08:31:30.000Z</time>
      </trkpt>
      <trkpt lat="45.28815" lon="4.53942">
        <ele>652.79998779297</ele>
        <time>2026-05-11T08:31:31.000Z</time>
      </trkpt>
      <trkpt lat="45.28815" lon="4.5394">
        <ele>653</ele>
        <time>2026-05-11T08:31:32.000Z</time>
      </trkpt>
      <trkpt lat="45.28814" lon="4.53939">
        <ele>653.20001220703</ele>
        <time>2026-05-11T08:31:33.000Z</time>
      </trkpt>
      <trkpt lat="45.28813" lon="4.53937">
        <ele>653.40002441406</ele>
        <time>2026-05-11T08:31:34.000Z</time>
      </trkpt>
      <trkpt lat="45.28812" lon="4.53935">
        <ele>653.59997558594</ele>
        <time>2026-05-11T08:31:35.000Z</time>
      </trkpt>
      <trkpt lat="45.28811" lon="4.53933">
        <ele>653.59997558594</ele>
        <time>2026-05-11T08:31:36.000Z</time>
      </trkpt>
      <trkpt lat="45.2881" lon="4.53931">
        <ele>653.79998779297</ele>
        <time>2026-05-11T08:31:37.000Z</time>
      </trkpt>
      <trkpt lat="45.28809" lon="4.5393">
        <ele>654</ele>
        <time>2026-05-11T08:31:38.000Z</time>
      </trkpt>
      <trkpt lat="45.28808" lon="4.53928">
        <ele>654.20001220703</ele>
        <time>2026-05-11T08:31:39.000Z</time>
      </trkpt>
      <trkpt lat="45.28807" lon="4.53926">
        <ele>654.59997558594</ele>
        <time>2026-05-11T08:31:40.000Z</time>
      </trkpt>
      <trkpt lat="45.28806" lon="4.53924">
        <ele>654.59997558594</ele>
        <time>2026-05-11T08:31:41.000Z</time>
      </trkpt>
      <trkpt lat="45.28805" lon="4.53923">
        <ele>654.79998779297</ele>
        <time>2026-05-11T08:31:42.000Z</time>
      </trkpt>
      <trkpt lat="45.28804" lon="4.53921">
        <ele>655</ele>
        <time>2026-05-11T08:31:43.000Z</time>
      </trkpt>
      <trkpt lat="45.28803" lon="4.5392">
        <ele>655.20001220703</ele>
        <time>2026-05-11T08:31:44.000Z</time>
      </trkpt>
      <trkpt lat="45.28802" lon="4.53918">
        <ele>655.40002441406</ele>
        <time>2026-05-11T08:31:45.000Z</time>
      </trkpt>
      <trkpt lat="45.28801" lon="4.53916">
        <ele>655.59997558594</ele>
        <time>2026-05-11T08:31:46.000Z</time>
      </trkpt>
      <trkpt lat="45.288" lon="4.53915">
        <ele>655.79998779297</ele>
        <time>2026-05-11T08:31:47.000Z</time>
      </trkpt>
      <trkpt lat="45.28799" lon="4.53912">
        <ele>656</ele>
        <time>2026-05-11T08:31:48.000Z</time>
      </trkpt>
      <trkpt lat="45.28798" lon="4.5391">
        <ele>656.20001220703</ele>
        <time>2026-05-11T08:31:49.000Z</time>
      </trkpt>
      <trkpt lat="45.28797" lon="4.53908">
        <ele>656.40002441406</ele>
        <time>2026-05-11T08:31:50.000Z</time>
      </trkpt>
      <trkpt lat="45.28796" lon="4.53906">
        <ele>656.59997558594</ele>
        <time>2026-05-11T08:31:51.000Z</time>
      </trkpt>
      <trkpt lat="45.28795" lon="4.53905">
        <ele>656.59997558594</ele>
        <time>2026-05-11T08:31:52.000Z</time>
      </trkpt>
      <trkpt lat="45.28794" lon="4.53903">
        <ele>656.79998779297</ele>
        <time>2026-05-11T08:31:53.000Z</time>
      </trkpt>
      <trkpt lat="45.28793" lon="4.53901">
        <ele>657</ele>
        <time>2026-05-11T08:31:54.000Z</time>
      </trkpt>
      <trkpt lat="45.28792" lon="4.53899">
        <ele>657.20001220703</ele>
        <time>2026-05-11T08:31:55.000Z</time>
      </trkpt>
      <trkpt lat="45.28791" lon="4.53897">
        <ele>657.20001220703</ele>
        <time>2026-05-11T08:31:56.000Z</time>
      </trkpt>
      <trkpt lat="45.2879" lon="4.53895">
        <ele>657.40002441406</ele>
        <time>2026-05-11T08:31:57.000Z</time>
      </trkpt>
      <trkpt lat="45.28789" lon="4.53893">
        <ele>657.59997558594</ele>
        <time>2026-05-11T08:31:58.000Z</time>
      </trkpt>
      <trkpt lat="45.28788" lon="4.53891">
        <ele>657.79998779297</ele>
        <time>2026-05-11T08:31:59.000Z</time>
      </trkpt>
      <trkpt lat="45.28788" lon="4.53889">
        <ele>658</ele>
        <time>2026-05-11T08:32:00.000Z</time>
      </trkpt>
      <trkpt lat="45.28787" lon="4.53887">
        <ele>658.20001220703</ele>
        <time>2026-05-11T08:32:01.000Z</time>
      </trkpt>
      <trkpt lat="45.28786" lon="4.53885">
        <ele>658.40002441406</ele>
        <time>2026-05-11T08:32:02.000Z</time>
      </trkpt>
      <trkpt lat="45.28785" lon="4.53883">
        <ele>658.59997558594</ele>
        <time>2026-05-11T08:32:03.000Z</time>
      </trkpt>
      <trkpt lat="45.28784" lon="4.53881">
        <ele>658.59997558594</ele>
        <time>2026-05-11T08:32:04.000Z</time>
      </trkpt>
      <trkpt lat="45.28783" lon="4.53879">
        <ele>658.79998779297</ele>
        <time>2026-05-11T08:32:05.000Z</time>
      </trkpt>
      <trkpt lat="45.28783" lon="4.53876">
        <ele>659</ele>
        <time>2026-05-11T08:32:06.000Z</time>
      </trkpt>
      <trkpt lat="45.28782" lon="4.53874">
        <ele>659.20001220703</ele>
        <time>2026-05-11T08:32:07.000Z</time>
      </trkpt>
      <trkpt lat="45.28781" lon="4.53872">
        <ele>659.40002441406</ele>
        <time>2026-05-11T08:32:08.000Z</time>
      </trkpt>
      <trkpt lat="45.28781" lon="4.5387">
        <ele>659.40002441406</ele>
        <time>2026-05-11T08:32:09.000Z</time>
      </trkpt>
      <trkpt lat="45.2878" lon="4.53868">
        <ele>659.59997558594</ele>
        <time>2026-05-11T08:32:10.000Z</time>
      </trkpt>
      <trkpt lat="45.28779" lon="4.53866">
        <ele>659.79998779297</ele>
        <time>2026-05-11T08:32:11.000Z</time>
      </trkpt>
      <trkpt lat="45.28778" lon="4.53864">
        <ele>659.79998779297</ele>
        <time>2026-05-11T08:32:12.000Z</time>
      </trkpt>
      <trkpt lat="45.28778" lon="4.53861">
        <ele>660</ele>
        <time>2026-05-11T08:32:13.000Z</time>
      </trkpt>
      <trkpt lat="45.28777" lon="4.53859">
        <ele>660.20001220703</ele>
        <time>2026-05-11T08:32:14.000Z</time>
      </trkpt>
      <trkpt lat="45.28776" lon="4.53857">
        <ele>660.20001220703</ele>
        <time>2026-05-11T08:32:15.000Z</time>
      </trkpt>
      <trkpt lat="45.28775" lon="4.53854">
        <ele>660.40002441406</ele>
        <time>2026-05-11T08:32:16.000Z</time>
      </trkpt>
      <trkpt lat="45.28775" lon="4.53852">
        <ele>660.59997558594</ele>
        <time>2026-05-11T08:32:17.000Z</time>
      </trkpt>
      <trkpt lat="45.28774" lon="4.5385">
        <ele>660.59997558594</ele>
        <time>2026-05-11T08:32:18.000Z</time>
      </trkpt>
      <trkpt lat="45.28774" lon="4.53847">
        <ele>660.79998779297</ele>
        <time>2026-05-11T08:32:19.000Z</time>
      </trkpt>
      <trkpt lat="45.28774" lon="4.53845">
        <ele>661</ele>
        <time>2026-05-11T08:32:20.000Z</time>
      </trkpt>
      <trkpt lat="45.28773" lon="4.53843">
        <ele>661</ele>
        <time>2026-05-11T08:32:21.000Z</time>
      </trkpt>
      <trkpt lat="45.28772" lon="4.53841">
        <ele>661.20001220703</ele>
        <time>2026-05-11T08:32:22.000Z</time>
      </trkpt>
      <trkpt lat="45.28772" lon="4.53839">
        <ele>661.20001220703</ele>
        <time>2026-05-11T08:32:23.000Z</time>
      </trkpt>
      <trkpt lat="45.28772" lon="4.53836">
        <ele>661.40002441406</ele>
        <time>2026-05-11T08:32:24.000Z</time>
      </trkpt>
      <trkpt lat="45.28772" lon="4.53834">
        <ele>661.40002441406</ele>
        <time>2026-05-11T08:32:25.000Z</time>
      </trkpt>
      <trkpt lat="45.28772" lon="4.53832">
        <ele>661.59997558594</ele>
        <time>2026-05-11T08:32:26.000Z</time>
      </trkpt>
      <trkpt lat="45.28771" lon="4.5383">
        <ele>661.59997558594</ele>
        <time>2026-05-11T08:32:27.000Z</time>
      </trkpt>
      <trkpt lat="45.28771" lon="4.53828">
        <ele>661.79998779297</ele>
        <time>2026-05-11T08:32:28.000Z</time>
      </trkpt>
      <trkpt lat="45.2877" lon="4.53826">
        <ele>661.79998779297</ele>
        <time>2026-05-11T08:32:29.000Z</time>
      </trkpt>
      <trkpt lat="45.2877" lon="4.53823">
        <ele>662</ele>
        <time>2026-05-11T08:32:30.000Z</time>
      </trkpt>
      <trkpt lat="45.2877" lon="4.53821">
        <ele>662</ele>
        <time>2026-05-11T08:32:31.000Z</time>
      </trkpt>
      <trkpt lat="45.2877" lon="4.53819">
        <ele>662.20001220703</ele>
        <time>2026-05-11T08:32:32.000Z</time>
      </trkpt>
      <trkpt lat="45.2877" lon="4.53816">
        <ele>662.40002441406</ele>
        <time>2026-05-11T08:32:33.000Z</time>
      </trkpt>
      <trkpt lat="45.28769" lon="4.53814">
        <ele>662.40002441406</ele>
        <time>2026-05-11T08:32:34.000Z</time>
      </trkpt>
      <trkpt lat="45.28769" lon="4.53812">
        <ele>662.59997558594</ele>
        <time>2026-05-11T08:32:35.000Z</time>
      </trkpt>
      <trkpt lat="45.28769" lon="4.53809">
        <ele>662.79998779297</ele>
        <time>2026-05-11T08:32:36.000Z</time>
      </trkpt>
      <trkpt lat="45.28769" lon="4.53807">
        <ele>662.79998779297</ele>
        <time>2026-05-11T08:32:37.000Z</time>
      </trkpt>
      <trkpt lat="45.28769" lon="4.53805">
        <ele>663</ele>
        <time>2026-05-11T08:32:38.000Z</time>
      </trkpt>
      <trkpt lat="45.28769" lon="4.53802">
        <ele>663.20001220703</ele>
        <time>2026-05-11T08:32:39.000Z</time>
      </trkpt>
      <trkpt lat="45.28769" lon="4.538">
        <ele>663.20001220703</ele>
        <time>2026-05-11T08:32:40.000Z</time>
      </trkpt>
      <trkpt lat="45.28769" lon="4.53798">
        <ele>663.40002441406</ele>
        <time>2026-05-11T08:32:41.000Z</time>
      </trkpt>
      <trkpt lat="45.28769" lon="4.53795">
        <ele>663.40002441406</ele>
        <time>2026-05-11T08:32:42.000Z</time>
      </trkpt>
      <trkpt lat="45.28769" lon="4.53793">
        <ele>663.59997558594</ele>
        <time>2026-05-11T08:32:43.000Z</time>
      </trkpt>
      <trkpt lat="45.28769" lon="4.53791">
        <ele>663.79998779297</ele>
        <time>2026-05-11T08:32:44.000Z</time>
      </trkpt>
      <trkpt lat="45.2877" lon="4.53788">
        <ele>663.79998779297</ele>
        <time>2026-05-11T08:32:45.000Z</time>
      </trkpt>
      <trkpt lat="45.2877" lon="4.53786">
        <ele>663.79998779297</ele>
        <time>2026-05-11T08:32:46.000Z</time>
      </trkpt>
      <trkpt lat="45.2877" lon="4.53784">
        <ele>664</ele>
        <time>2026-05-11T08:32:47.000Z</time>
      </trkpt>
      <trkpt lat="45.2877" lon="4.53781">
        <ele>664</ele>
        <time>2026-05-11T08:32:48.000Z</time>
      </trkpt>
      <trkpt lat="45.2877" lon="4.53779">
        <ele>664.20001220703</ele>
        <time>2026-05-11T08:32:49.000Z</time>
      </trkpt>
      <trkpt lat="45.28769" lon="4.53777">
        <ele>664.40002441406</ele>
        <time>2026-05-11T08:32:50.000Z</time>
      </trkpt>
      <trkpt lat="45.28769" lon="4.53775">
        <ele>664.40002441406</ele>
        <time>2026-05-11T08:32:51.000Z</time>
      </trkpt>
      <trkpt lat="45.28769" lon="4.53773">
        <ele>664.59997558594</ele>
        <time>2026-05-11T08:32:52.000Z</time>
      </trkpt>
      <trkpt lat="45.28769" lon="4.5377">
        <ele>664.59997558594</ele>
        <time>2026-05-11T08:32:53.000Z</time>
      </trkpt>
      <trkpt lat="45.28769" lon="4.53768">
        <ele>664.79998779297</ele>
        <time>2026-05-11T08:32:54.000Z</time>
      </trkpt>
      <trkpt lat="45.28769" lon="4.53765">
        <ele>665</ele>
        <time>2026-05-11T08:32:55.000Z</time>
      </trkpt>
      <trkpt lat="45.28769" lon="4.53763">
        <ele>665.20001220703</ele>
        <time>2026-05-11T08:32:56.000Z</time>
      </trkpt>
      <trkpt lat="45.28769" lon="4.53761">
        <ele>665.20001220703</ele>
        <time>2026-05-11T08:32:57.000Z</time>
      </trkpt>
      <trkpt lat="45.28769" lon="4.53759">
        <ele>665.40002441406</ele>
        <time>2026-05-11T08:32:58.000Z</time>
      </trkpt>
      <trkpt lat="45.28769" lon="4.53757">
        <ele>665.59997558594</ele>
        <time>2026-05-11T08:32:59.000Z</time>
      </trkpt>
      <trkpt lat="45.28769" lon="4.53755">
        <ele>665.79998779297</ele>
        <time>2026-05-11T08:33:00.000Z</time>
      </trkpt>
      <trkpt lat="45.28769" lon="4.53754">
        <ele>665.79998779297</ele>
        <time>2026-05-11T08:33:01.000Z</time>
      </trkpt>
      <trkpt lat="45.28769" lon="4.53752">
        <ele>666</ele>
        <time>2026-05-11T08:33:02.000Z</time>
      </trkpt>
      <trkpt lat="45.28769" lon="4.53749">
        <ele>666.20001220703</ele>
        <time>2026-05-11T08:33:03.000Z</time>
      </trkpt>
      <trkpt lat="45.28769" lon="4.53746">
        <ele>666.40002441406</ele>
        <time>2026-05-11T08:33:04.000Z</time>
      </trkpt>
      <trkpt lat="45.28769" lon="4.53744">
        <ele>666.59997558594</ele>
        <time>2026-05-11T08:33:05.000Z</time>
      </trkpt>
      <trkpt lat="45.28769" lon="4.53741">
        <ele>666.79998779297</ele>
        <time>2026-05-11T08:33:06.000Z</time>
      </trkpt>
      <trkpt lat="45.28769" lon="4.53739">
        <ele>667</ele>
        <time>2026-05-11T08:33:07.000Z</time>
      </trkpt>
      <trkpt lat="45.28769" lon="4.53737">
        <ele>667.20001220703</ele>
        <time>2026-05-11T08:33:08.000Z</time>
      </trkpt>
      <trkpt lat="45.28769" lon="4.53735">
        <ele>667.20001220703</ele>
        <time>2026-05-11T08:33:09.000Z</time>
      </trkpt>
      <trkpt lat="45.28768" lon="4.53733">
        <ele>667.40002441406</ele>
        <time>2026-05-11T08:33:10.000Z</time>
      </trkpt>
      <trkpt lat="45.28767" lon="4.53731">
        <ele>667.59997558594</ele>
        <time>2026-05-11T08:33:11.000Z</time>
      </trkpt>
      <trkpt lat="45.28767" lon="4.53728">
        <ele>667.79998779297</ele>
        <time>2026-05-11T08:33:12.000Z</time>
      </trkpt>
      <trkpt lat="45.28766" lon="4.53726">
        <ele>668</ele>
        <time>2026-05-11T08:33:13.000Z</time>
      </trkpt>
      <trkpt lat="45.28765" lon="4.53724">
        <ele>668.20001220703</ele>
        <time>2026-05-11T08:33:14.000Z</time>
      </trkpt>
      <trkpt lat="45.28765" lon="4.53721">
        <ele>668.40002441406</ele>
        <time>2026-05-11T08:33:15.000Z</time>
      </trkpt>
      <trkpt lat="45.28764" lon="4.53719">
        <ele>668.40002441406</ele>
        <time>2026-05-11T08:33:16.000Z</time>
      </trkpt>
      <trkpt lat="45.28763" lon="4.53717">
        <ele>668.59997558594</ele>
        <time>2026-05-11T08:33:17.000Z</time>
      </trkpt>
      <trkpt lat="45.28763" lon="4.53716">
        <ele>668.79998779297</ele>
        <time>2026-05-11T08:33:18.000Z</time>
      </trkpt>
      <trkpt lat="45.28762" lon="4.53714">
        <ele>669.20001220703</ele>
        <time>2026-05-11T08:33:19.000Z</time>
      </trkpt>
      <trkpt lat="45.28762" lon="4.53712">
        <ele>669.40002441406</ele>
        <time>2026-05-11T08:33:20.000Z</time>
      </trkpt>
      <trkpt lat="45.28761" lon="4.5371">
        <ele>669.59997558594</ele>
        <time>2026-05-11T08:33:21.000Z</time>
      </trkpt>
      <trkpt lat="45.2876" lon="4.53709">
        <ele>669.79998779297</ele>
        <time>2026-05-11T08:33:22.000Z</time>
      </trkpt>
      <trkpt lat="45.2876" lon="4.53707">
        <ele>670</ele>
        <time>2026-05-11T08:33:23.000Z</time>
      </trkpt>
      <trkpt lat="45.2876" lon="4.53706">
        <ele>670.20001220703</ele>
        <time>2026-05-11T08:33:24.000Z</time>
      </trkpt>
      <trkpt lat="45.28759" lon="4.53704">
        <ele>670.40002441406</ele>
        <time>2026-05-11T08:33:25.000Z</time>
      </trkpt>
      <trkpt lat="45.28758" lon="4.53703">
        <ele>670.59997558594</ele>
        <time>2026-05-11T08:33:26.000Z</time>
      </trkpt>
      <trkpt lat="45.28758" lon="4.53701">
        <ele>670.79998779297</ele>
        <time>2026-05-11T08:33:27.000Z</time>
      </trkpt>
      <trkpt lat="45.28758" lon="4.53699">
        <ele>671</ele>
        <time>2026-05-11T08:33:28.000Z</time>
      </trkpt>
      <trkpt lat="45.28757" lon="4.53697">
        <ele>671.20001220703</ele>
        <time>2026-05-11T08:33:29.000Z</time>
      </trkpt>
      <trkpt lat="45.28757" lon="4.53695">
        <ele>671.40002441406</ele>
        <time>2026-05-11T08:33:30.000Z</time>
      </trkpt>
      <trkpt lat="45.28757" lon="4.53693">
        <ele>671.59997558594</ele>
        <time>2026-05-11T08:33:31.000Z</time>
      </trkpt>
      <trkpt lat="45.28757" lon="4.53691">
        <ele>671.79998779297</ele>
        <time>2026-05-11T08:33:32.000Z</time>
      </trkpt>
      <trkpt lat="45.28756" lon="4.53689">
        <ele>672</ele>
        <time>2026-05-11T08:33:33.000Z</time>
      </trkpt>
      <trkpt lat="45.28755" lon="4.53687">
        <ele>672.20001220703</ele>
        <time>2026-05-11T08:33:34.000Z</time>
      </trkpt>
      <trkpt lat="45.28755" lon="4.53685">
        <ele>672.40002441406</ele>
        <time>2026-05-11T08:33:35.000Z</time>
      </trkpt>
      <trkpt lat="45.28755" lon="4.53683">
        <ele>672.59997558594</ele>
        <time>2026-05-11T08:33:36.000Z</time>
      </trkpt>
      <trkpt lat="45.28755" lon="4.53681">
        <ele>672.79998779297</ele>
        <time>2026-05-11T08:33:37.000Z</time>
      </trkpt>
      <trkpt lat="45.28755" lon="4.53679">
        <ele>672.79998779297</ele>
        <time>2026-05-11T08:33:38.000Z</time>
      </trkpt>
      <trkpt lat="45.28754" lon="4.53677">
        <ele>673</ele>
        <time>2026-05-11T08:33:39.000Z</time>
      </trkpt>
      <trkpt lat="45.28754" lon="4.53675">
        <ele>673.20001220703</ele>
        <time>2026-05-11T08:33:40.000Z</time>
      </trkpt>
      <trkpt lat="45.28754" lon="4.53673">
        <ele>673.40002441406</ele>
        <time>2026-05-11T08:33:41.000Z</time>
      </trkpt>
      <trkpt lat="45.28754" lon="4.53672">
        <ele>673.59997558594</ele>
        <time>2026-05-11T08:33:42.000Z</time>
      </trkpt>
      <trkpt lat="45.28754" lon="4.53669">
        <ele>673.79998779297</ele>
        <time>2026-05-11T08:33:43.000Z</time>
      </trkpt>
      <trkpt lat="45.28755" lon="4.53667">
        <ele>674</ele>
        <time>2026-05-11T08:33:44.000Z</time>
      </trkpt>
      <trkpt lat="45.28755" lon="4.53665">
        <ele>674.20001220703</ele>
        <time>2026-05-11T08:33:45.000Z</time>
      </trkpt>
      <trkpt lat="45.28755" lon="4.53663">
        <ele>674.40002441406</ele>
        <time>2026-05-11T08:33:46.000Z</time>
      </trkpt>
      <trkpt lat="45.28755" lon="4.5366">
        <ele>674.59997558594</ele>
        <time>2026-05-11T08:33:47.000Z</time>
      </trkpt>
      <trkpt lat="45.28755" lon="4.53658">
        <ele>674.79998779297</ele>
        <time>2026-05-11T08:33:48.000Z</time>
      </trkpt>
      <trkpt lat="45.28756" lon="4.53656">
        <ele>675</ele>
        <time>2026-05-11T08:33:49.000Z</time>
      </trkpt>
      <trkpt lat="45.28756" lon="4.53654">
        <ele>675.20001220703</ele>
        <time>2026-05-11T08:33:50.000Z</time>
      </trkpt>
      <trkpt lat="45.28756" lon="4.53652">
        <ele>675.40002441406</ele>
        <time>2026-05-11T08:33:51.000Z</time>
      </trkpt>
      <trkpt lat="45.28756" lon="4.5365">
        <ele>675.59997558594</ele>
        <time>2026-05-11T08:33:52.000Z</time>
      </trkpt>
      <trkpt lat="45.28756" lon="4.53648">
        <ele>675.79998779297</ele>
        <time>2026-05-11T08:33:53.000Z</time>
      </trkpt>
      <trkpt lat="45.28756" lon="4.53646">
        <ele>676</ele>
        <time>2026-05-11T08:33:54.000Z</time>
      </trkpt>
      <trkpt lat="45.28757" lon="4.53644">
        <ele>676.20001220703</ele>
        <time>2026-05-11T08:33:55.000Z</time>
      </trkpt>
      <trkpt lat="45.28757" lon="4.53642">
        <ele>676.40002441406</ele>
        <time>2026-05-11T08:33:56.000Z</time>
      </trkpt>
      <trkpt lat="45.28757" lon="4.5364">
        <ele>676.59997558594</ele>
        <time>2026-05-11T08:33:57.000Z</time>
      </trkpt>
      <trkpt lat="45.28757" lon="4.53638">
        <ele>676.59997558594</ele>
        <time>2026-05-11T08:33:58.000Z</time>
      </trkpt>
      <trkpt lat="45.28757" lon="4.53636">
        <ele>676.79998779297</ele>
        <time>2026-05-11T08:33:59.000Z</time>
      </trkpt>
      <trkpt lat="45.28757" lon="4.53634">
        <ele>677</ele>
        <time>2026-05-11T08:34:00.000Z</time>
      </trkpt>
      <trkpt lat="45.28758" lon="4.53632">
        <ele>677.20001220703</ele>
        <time>2026-05-11T08:34:01.000Z</time>
      </trkpt>
      <trkpt lat="45.28758" lon="4.5363">
        <ele>677.40002441406</ele>
        <time>2026-05-11T08:34:02.000Z</time>
      </trkpt>
      <trkpt lat="45.28758" lon="4.53627">
        <ele>677.59997558594</ele>
        <time>2026-05-11T08:34:03.000Z</time>
      </trkpt>
      <trkpt lat="45.28759" lon="4.53625">
        <ele>677.59997558594</ele>
        <time>2026-05-11T08:34:04.000Z</time>
      </trkpt>
      <trkpt lat="45.28759" lon="4.53622">
        <ele>677.79998779297</ele>
        <time>2026-05-11T08:34:05.000Z</time>
      </trkpt>
      <trkpt lat="45.2876" lon="4.5362">
        <ele>678</ele>
        <time>2026-05-11T08:34:06.000Z</time>
      </trkpt>
      <trkpt lat="45.2876" lon="4.53618">
        <ele>678</ele>
        <time>2026-05-11T08:34:07.000Z</time>
      </trkpt>
      <trkpt lat="45.2876" lon="4.53616">
        <ele>678.20001220703</ele>
        <time>2026-05-11T08:34:08.000Z</time>
      </trkpt>
      <trkpt lat="45.2876" lon="4.53614">
        <ele>678.20001220703</ele>
        <time>2026-05-11T08:34:09.000Z</time>
      </trkpt>
      <trkpt lat="45.2876" lon="4.53611">
        <ele>678.40002441406</ele>
        <time>2026-05-11T08:34:10.000Z</time>
      </trkpt>
      <trkpt lat="45.28761" lon="4.53609">
        <ele>678.59997558594</ele>
        <time>2026-05-11T08:34:11.000Z</time>
      </trkpt>
      <trkpt lat="45.28761" lon="4.53607">
        <ele>678.59997558594</ele>
        <time>2026-05-11T08:34:12.000Z</time>
      </trkpt>
      <trkpt lat="45.28761" lon="4.53605">
        <ele>678.79998779297</ele>
        <time>2026-05-11T08:34:13.000Z</time>
      </trkpt>
      <trkpt lat="45.28762" lon="4.53603">
        <ele>678.79998779297</ele>
        <time>2026-05-11T08:34:14.000Z</time>
      </trkpt>
      <trkpt lat="45.28762" lon="4.53601">
        <ele>679</ele>
        <time>2026-05-11T08:34:15.000Z</time>
      </trkpt>
      <trkpt lat="45.28762" lon="4.53599">
        <ele>679</ele>
        <time>2026-05-11T08:34:16.000Z</time>
      </trkpt>
      <trkpt lat="45.28762" lon="4.53597">
        <ele>679.20001220703</ele>
        <time>2026-05-11T08:34:17.000Z</time>
      </trkpt>
      <trkpt lat="45.28762" lon="4.53594">
        <ele>679.40002441406</ele>
        <time>2026-05-11T08:34:18.000Z</time>
      </trkpt>
      <trkpt lat="45.28763" lon="4.53592">
        <ele>679.40002441406</ele>
        <time>2026-05-11T08:34:19.000Z</time>
      </trkpt>
      <trkpt lat="45.28763" lon="4.5359">
        <ele>679.40002441406</ele>
        <time>2026-05-11T08:34:20.000Z</time>
      </trkpt>
      <trkpt lat="45.28764" lon="4.53588">
        <ele>679.59997558594</ele>
        <time>2026-05-11T08:34:21.000Z</time>
      </trkpt>
      <trkpt lat="45.28765" lon="4.53586">
        <ele>679.79998779297</ele>
        <time>2026-05-11T08:34:22.000Z</time>
      </trkpt>
      <trkpt lat="45.28765" lon="4.53584">
        <ele>679.79998779297</ele>
        <time>2026-05-11T08:34:23.000Z</time>
      </trkpt>
      <trkpt lat="45.28766" lon="4.53582">
        <ele>680</ele>
        <time>2026-05-11T08:34:24.000Z</time>
      </trkpt>
      <trkpt lat="45.28766" lon="4.5358">
        <ele>680.20001220703</ele>
        <time>2026-05-11T08:34:25.000Z</time>
      </trkpt>
      <trkpt lat="45.28767" lon="4.53578">
        <ele>680.20001220703</ele>
        <time>2026-05-11T08:34:26.000Z</time>
      </trkpt>
      <trkpt lat="45.28768" lon="4.53576">
        <ele>680.40002441406</ele>
        <time>2026-05-11T08:34:27.000Z</time>
      </trkpt>
      <trkpt lat="45.28768" lon="4.53574">
        <ele>680.40002441406</ele>
        <time>2026-05-11T08:34:28.000Z</time>
      </trkpt>
      <trkpt lat="45.28769" lon="4.53572">
        <ele>680.59997558594</ele>
        <time>2026-05-11T08:34:29.000Z</time>
      </trkpt>
      <trkpt lat="45.2877" lon="4.5357">
        <ele>680.59997558594</ele>
        <time>2026-05-11T08:34:30.000Z</time>
      </trkpt>
      <trkpt lat="45.2877" lon="4.53568">
        <ele>680.79998779297</ele>
        <time>2026-05-11T08:34:31.000Z</time>
      </trkpt>
      <trkpt lat="45.28771" lon="4.53565">
        <ele>680.79998779297</ele>
        <time>2026-05-11T08:34:32.000Z</time>
      </trkpt>
      <trkpt lat="45.28772" lon="4.53564">
        <ele>681</ele>
        <time>2026-05-11T08:34:33.000Z</time>
      </trkpt>
      <trkpt lat="45.28773" lon="4.53561">
        <ele>681</ele>
        <time>2026-05-11T08:34:34.000Z</time>
      </trkpt>
      <trkpt lat="45.28773" lon="4.53559">
        <ele>681.20001220703</ele>
        <time>2026-05-11T08:34:35.000Z</time>
      </trkpt>
      <trkpt lat="45.28774" lon="4.53557">
        <ele>681.40002441406</ele>
        <time>2026-05-11T08:34:36.000Z</time>
      </trkpt>
      <trkpt lat="45.28775" lon="4.53555">
        <ele>681.40002441406</ele>
        <time>2026-05-11T08:34:37.000Z</time>
      </trkpt>
      <trkpt lat="45.28775" lon="4.53553">
        <ele>681.40002441406</ele>
        <time>2026-05-11T08:34:38.000Z</time>
      </trkpt>
      <trkpt lat="45.28776" lon="4.53551">
        <ele>681.59997558594</ele>
        <time>2026-05-11T08:34:39.000Z</time>
      </trkpt>
      <trkpt lat="45.28776" lon="4.53549">
        <ele>681.79998779297</ele>
        <time>2026-05-11T08:34:40.000Z</time>
      </trkpt>
      <trkpt lat="45.28777" lon="4.53547">
        <ele>681.79998779297</ele>
        <time>2026-05-11T08:34:41.000Z</time>
      </trkpt>
      <trkpt lat="45.28777" lon="4.53545">
        <ele>682</ele>
        <time>2026-05-11T08:34:42.000Z</time>
      </trkpt>
      <trkpt lat="45.28778" lon="4.53542">
        <ele>682.20001220703</ele>
        <time>2026-05-11T08:34:43.000Z</time>
      </trkpt>
      <trkpt lat="45.28778" lon="4.53541">
        <ele>682.20001220703</ele>
        <time>2026-05-11T08:34:44.000Z</time>
      </trkpt>
      <trkpt lat="45.28779" lon="4.53538">
        <ele>682.40002441406</ele>
        <time>2026-05-11T08:34:45.000Z</time>
      </trkpt>
      <trkpt lat="45.28779" lon="4.53537">
        <ele>682.59997558594</ele>
        <time>2026-05-11T08:34:46.000Z</time>
      </trkpt>
      <trkpt lat="45.2878" lon="4.53535">
        <ele>682.59997558594</ele>
        <time>2026-05-11T08:34:47.000Z</time>
      </trkpt>
      <trkpt lat="45.28781" lon="4.53533">
        <ele>682.79998779297</ele>
        <time>2026-05-11T08:34:48.000Z</time>
      </trkpt>
      <trkpt lat="45.28781" lon="4.53531">
        <ele>682.79998779297</ele>
        <time>2026-05-11T08:34:49.000Z</time>
      </trkpt>
      <trkpt lat="45.28782" lon="4.53529">
        <ele>683</ele>
        <time>2026-05-11T08:34:50.000Z</time>
      </trkpt>
      <trkpt lat="45.28783" lon="4.53527">
        <ele>683.20001220703</ele>
        <time>2026-05-11T08:34:51.000Z</time>
      </trkpt>
      <trkpt lat="45.28783" lon="4.53525">
        <ele>683.40002441406</ele>
        <time>2026-05-11T08:34:52.000Z</time>
      </trkpt>
      <trkpt lat="45.28783" lon="4.53522">
        <ele>683.40002441406</ele>
        <time>2026-05-11T08:34:53.000Z</time>
      </trkpt>
      <trkpt lat="45.28783" lon="4.5352">
        <ele>683.59997558594</ele>
        <time>2026-05-11T08:34:54.000Z</time>
      </trkpt>
      <trkpt lat="45.28783" lon="4.53518">
        <ele>683.59997558594</ele>
        <time>2026-05-11T08:34:55.000Z</time>
      </trkpt>
      <trkpt lat="45.28784" lon="4.53515">
        <ele>683.79998779297</ele>
        <time>2026-05-11T08:34:56.000Z</time>
      </trkpt>
      <trkpt lat="45.28784" lon="4.53513">
        <ele>683.79998779297</ele>
        <time>2026-05-11T08:34:57.000Z</time>
      </trkpt>
      <trkpt lat="45.28784" lon="4.53511">
        <ele>684</ele>
        <time>2026-05-11T08:34:58.000Z</time>
      </trkpt>
      <trkpt lat="45.28785" lon="4.53509">
        <ele>684.20001220703</ele>
        <time>2026-05-11T08:34:59.000Z</time>
      </trkpt>
      <trkpt lat="45.28785" lon="4.53507">
        <ele>684.20001220703</ele>
        <time>2026-05-11T08:35:00.000Z</time>
      </trkpt>
      <trkpt lat="45.28785" lon="4.53505">
        <ele>684.40002441406</ele>
        <time>2026-05-11T08:35:01.000Z</time>
      </trkpt>
      <trkpt lat="45.28786" lon="4.53502">
        <ele>684.59997558594</ele>
        <time>2026-05-11T08:35:02.000Z</time>
      </trkpt>
      <trkpt lat="45.28786" lon="4.535">
        <ele>684.59997558594</ele>
        <time>2026-05-11T08:35:03.000Z</time>
      </trkpt>
      <trkpt lat="45.28787" lon="4.53498">
        <ele>684.79998779297</ele>
        <time>2026-05-11T08:35:04.000Z</time>
      </trkpt>
      <trkpt lat="45.28787" lon="4.53496">
        <ele>685</ele>
        <time>2026-05-11T08:35:05.000Z</time>
      </trkpt>
      <trkpt lat="45.28788" lon="4.53494">
        <ele>685</ele>
        <time>2026-05-11T08:35:06.000Z</time>
      </trkpt>
      <trkpt lat="45.28788" lon="4.53491">
        <ele>685.20001220703</ele>
        <time>2026-05-11T08:35:07.000Z</time>
      </trkpt>
      <trkpt lat="45.28789" lon="4.53489">
        <ele>685.20001220703</ele>
        <time>2026-05-11T08:35:08.000Z</time>
      </trkpt>
      <trkpt lat="45.28789" lon="4.53487">
        <ele>685.40002441406</ele>
        <time>2026-05-11T08:35:09.000Z</time>
      </trkpt>
      <trkpt lat="45.28789" lon="4.53484">
        <ele>685.40002441406</ele>
        <time>2026-05-11T08:35:10.000Z</time>
      </trkpt>
      <trkpt lat="45.2879" lon="4.53482">
        <ele>685.59997558594</ele>
        <time>2026-05-11T08:35:11.000Z</time>
      </trkpt>
      <trkpt lat="45.2879" lon="4.5348">
        <ele>685.59997558594</ele>
        <time>2026-05-11T08:35:12.000Z</time>
      </trkpt>
      <trkpt lat="45.28791" lon="4.53478">
        <ele>685.79998779297</ele>
        <time>2026-05-11T08:35:13.000Z</time>
      </trkpt>
      <trkpt lat="45.28791" lon="4.53476">
        <ele>685.79998779297</ele>
        <time>2026-05-11T08:35:14.000Z</time>
      </trkpt>
      <trkpt lat="45.28792" lon="4.53473">
        <ele>686</ele>
        <time>2026-05-11T08:35:15.000Z</time>
      </trkpt>
      <trkpt lat="45.28792" lon="4.53471">
        <ele>686</ele>
        <time>2026-05-11T08:35:16.000Z</time>
      </trkpt>
      <trkpt lat="45.28793" lon="4.53468">
        <ele>686.20001220703</ele>
        <time>2026-05-11T08:35:17.000Z</time>
      </trkpt>
      <trkpt lat="45.28794" lon="4.53466">
        <ele>686.20001220703</ele>
        <time>2026-05-11T08:35:18.000Z</time>
      </trkpt>
      <trkpt lat="45.28794" lon="4.53463">
        <ele>686.20001220703</ele>
        <time>2026-05-11T08:35:19.000Z</time>
      </trkpt>
      <trkpt lat="45.28795" lon="4.53461">
        <ele>686.20001220703</ele>
        <time>2026-05-11T08:35:20.000Z</time>
      </trkpt>
      <trkpt lat="45.28796" lon="4.53458">
        <ele>686.40002441406</ele>
        <time>2026-05-11T08:35:21.000Z</time>
      </trkpt>
      <trkpt lat="45.28796" lon="4.53455">
        <ele>686.40002441406</ele>
        <time>2026-05-11T08:35:22.000Z</time>
      </trkpt>
      <trkpt lat="45.28797" lon="4.53453">
        <ele>686.40002441406</ele>
        <time>2026-05-11T08:35:23.000Z</time>
      </trkpt>
      <trkpt lat="45.28797" lon="4.5345">
        <ele>686.59997558594</ele>
        <time>2026-05-11T08:35:24.000Z</time>
      </trkpt>
      <trkpt lat="45.28798" lon="4.53447">
        <ele>686.59997558594</ele>
        <time>2026-05-11T08:35:25.000Z</time>
      </trkpt>
      <trkpt lat="45.28799" lon="4.53444">
        <ele>686.59997558594</ele>
        <time>2026-05-11T08:35:26.000Z</time>
      </trkpt>
      <trkpt lat="45.28799" lon="4.53442">
        <ele>686.79998779297</ele>
        <time>2026-05-11T08:35:27.000Z</time>
      </trkpt>
      <trkpt lat="45.288" lon="4.53439">
        <ele>686.79998779297</ele>
        <time>2026-05-11T08:35:28.000Z</time>
      </trkpt>
      <trkpt lat="45.28801" lon="4.53436">
        <ele>686.79998779297</ele>
        <time>2026-05-11T08:35:29.000Z</time>
      </trkpt>
      <trkpt lat="45.28802" lon="4.53433">
        <ele>686.79998779297</ele>
        <time>2026-05-11T08:35:30.000Z</time>
      </trkpt>
      <trkpt lat="45.28803" lon="4.5343">
        <ele>687</ele>
        <time>2026-05-11T08:35:31.000Z</time>
      </trkpt>
      <trkpt lat="45.28804" lon="4.53427">
        <ele>687</ele>
        <time>2026-05-11T08:35:32.000Z</time>
      </trkpt>
      <trkpt lat="45.28805" lon="4.53425">
        <ele>687</ele>
        <time>2026-05-11T08:35:33.000Z</time>
      </trkpt>
      <trkpt lat="45.28805" lon="4.53422">
        <ele>687.20001220703</ele>
        <time>2026-05-11T08:35:34.000Z</time>
      </trkpt>
      <trkpt lat="45.28806" lon="4.53419">
        <ele>687.20001220703</ele>
        <time>2026-05-11T08:35:35.000Z</time>
      </trkpt>
      <trkpt lat="45.28807" lon="4.53417">
        <ele>687.20001220703</ele>
        <time>2026-05-11T08:35:36.000Z</time>
      </trkpt>
      <trkpt lat="45.28807" lon="4.53414">
        <ele>687.40002441406</ele>
        <time>2026-05-11T08:35:37.000Z</time>
      </trkpt>
      <trkpt lat="45.28808" lon="4.53412">
        <ele>687.40002441406</ele>
        <time>2026-05-11T08:35:38.000Z</time>
      </trkpt>
      <trkpt lat="45.28809" lon="4.53409">
        <ele>687.40002441406</ele>
        <time>2026-05-11T08:35:39.000Z</time>
      </trkpt>
      <trkpt lat="45.2881" lon="4.53407">
        <ele>687.40002441406</ele>
        <time>2026-05-11T08:35:40.000Z</time>
      </trkpt>
      <trkpt lat="45.28811" lon="4.53404">
        <ele>687.59997558594</ele>
        <time>2026-05-11T08:35:41.000Z</time>
      </trkpt>
      <trkpt lat="45.28812" lon="4.53401">
        <ele>687.59997558594</ele>
        <time>2026-05-11T08:35:42.000Z</time>
      </trkpt>
      <trkpt lat="45.28812" lon="4.53399">
        <ele>687.59997558594</ele>
        <time>2026-05-11T08:35:43.000Z</time>
      </trkpt>
      <trkpt lat="45.28813" lon="4.53397">
        <ele>687.79998779297</ele>
        <time>2026-05-11T08:35:44.000Z</time>
      </trkpt>
      <trkpt lat="45.28814" lon="4.53395">
        <ele>687.79998779297</ele>
        <time>2026-05-11T08:35:45.000Z</time>
      </trkpt>
      <trkpt lat="45.28815" lon="4.53392">
        <ele>687.79998779297</ele>
        <time>2026-05-11T08:35:46.000Z</time>
      </trkpt>
      <trkpt lat="45.28816" lon="4.5339">
        <ele>688</ele>
        <time>2026-05-11T08:35:47.000Z</time>
      </trkpt>
      <trkpt lat="45.28817" lon="4.53387">
        <ele>688</ele>
        <time>2026-05-11T08:35:48.000Z</time>
      </trkpt>
      <trkpt lat="45.28818" lon="4.53385">
        <ele>688.20001220703</ele>
        <time>2026-05-11T08:35:49.000Z</time>
      </trkpt>
      <trkpt lat="45.28819" lon="4.53383">
        <ele>688.20001220703</ele>
        <time>2026-05-11T08:35:50.000Z</time>
      </trkpt>
      <trkpt lat="45.28821" lon="4.5338">
        <ele>688.20001220703</ele>
        <time>2026-05-11T08:35:51.000Z</time>
      </trkpt>
      <trkpt lat="45.28822" lon="4.53378">
        <ele>688.40002441406</ele>
        <time>2026-05-11T08:35:52.000Z</time>
      </trkpt>
      <trkpt lat="45.28823" lon="4.53375">
        <ele>688.40002441406</ele>
        <time>2026-05-11T08:35:53.000Z</time>
      </trkpt>
      <trkpt lat="45.28824" lon="4.53373">
        <ele>688.40002441406</ele>
        <time>2026-05-11T08:35:54.000Z</time>
      </trkpt>
      <trkpt lat="45.28825" lon="4.5337">
        <ele>688.59997558594</ele>
        <time>2026-05-11T08:35:55.000Z</time>
      </trkpt>
      <trkpt lat="45.28826" lon="4.53368">
        <ele>688.59997558594</ele>
        <time>2026-05-11T08:35:56.000Z</time>
      </trkpt>
      <trkpt lat="45.28828" lon="4.53366">
        <ele>688.79998779297</ele>
        <time>2026-05-11T08:35:57.000Z</time>
      </trkpt>
      <trkpt lat="45.28829" lon="4.53364">
        <ele>688.79998779297</ele>
        <time>2026-05-11T08:35:58.000Z</time>
      </trkpt>
      <trkpt lat="45.2883" lon="4.53362">
        <ele>688.79998779297</ele>
        <time>2026-05-11T08:35:59.000Z</time>
      </trkpt>
      <trkpt lat="45.28831" lon="4.5336">
        <ele>689</ele>
        <time>2026-05-11T08:36:00.000Z</time>
      </trkpt>
      <trkpt lat="45.28832" lon="4.53357">
        <ele>689</ele>
        <time>2026-05-11T08:36:01.000Z</time>
      </trkpt>
      <trkpt lat="45.28833" lon="4.53355">
        <ele>689.20001220703</ele>
        <time>2026-05-11T08:36:02.000Z</time>
      </trkpt>
      <trkpt lat="45.28834" lon="4.53352">
        <ele>689.20001220703</ele>
        <time>2026-05-11T08:36:03.000Z</time>
      </trkpt>
      <trkpt lat="45.28835" lon="4.5335">
        <ele>689.40002441406</ele>
        <time>2026-05-11T08:36:04.000Z</time>
      </trkpt>
      <trkpt lat="45.28837" lon="4.53348">
        <ele>689.40002441406</ele>
        <time>2026-05-11T08:36:05.000Z</time>
      </trkpt>
      <trkpt lat="45.28838" lon="4.53346">
        <ele>689.40002441406</ele>
        <time>2026-05-11T08:36:06.000Z</time>
      </trkpt>
      <trkpt lat="45.28839" lon="4.53343">
        <ele>689.59997558594</ele>
        <time>2026-05-11T08:36:07.000Z</time>
      </trkpt>
      <trkpt lat="45.28841" lon="4.53341">
        <ele>689.59997558594</ele>
        <time>2026-05-11T08:36:08.000Z</time>
      </trkpt>
      <trkpt lat="45.28842" lon="4.53339">
        <ele>689.59997558594</ele>
        <time>2026-05-11T08:36:09.000Z</time>
      </trkpt>
      <trkpt lat="45.28843" lon="4.53337">
        <ele>689.59997558594</ele>
        <time>2026-05-11T08:36:10.000Z</time>
      </trkpt>
      <trkpt lat="45.28844" lon="4.53334">
        <ele>689.79998779297</ele>
        <time>2026-05-11T08:36:11.000Z</time>
      </trkpt>
      <trkpt lat="45.28846" lon="4.53332">
        <ele>689.79998779297</ele>
        <time>2026-05-11T08:36:12.000Z</time>
      </trkpt>
      <trkpt lat="45.28847" lon="4.53329">
        <ele>689.79998779297</ele>
        <time>2026-05-11T08:36:13.000Z</time>
      </trkpt>
      <trkpt lat="45.28848" lon="4.53326">
        <ele>689.79998779297</ele>
        <time>2026-05-11T08:36:14.000Z</time>
      </trkpt>
      <trkpt lat="45.28849" lon="4.53324">
        <ele>690</ele>
        <time>2026-05-11T08:36:15.000Z</time>
      </trkpt>
      <trkpt lat="45.2885" lon="4.53321">
        <ele>690</ele>
        <time>2026-05-11T08:36:16.000Z</time>
      </trkpt>
      <trkpt lat="45.28851" lon="4.53318">
        <ele>690</ele>
        <time>2026-05-11T08:36:17.000Z</time>
      </trkpt>
      <trkpt lat="45.28853" lon="4.53316">
        <ele>690.20001220703</ele>
        <time>2026-05-11T08:36:18.000Z</time>
      </trkpt>
      <trkpt lat="45.28854" lon="4.53313">
        <ele>690.20001220703</ele>
        <time>2026-05-11T08:36:19.000Z</time>
      </trkpt>
      <trkpt lat="45.28856" lon="4.5331">
        <ele>690.20001220703</ele>
        <time>2026-05-11T08:36:20.000Z</time>
      </trkpt>
      <trkpt lat="45.28858" lon="4.53308">
        <ele>690.20001220703</ele>
        <time>2026-05-11T08:36:21.000Z</time>
      </trkpt>
      <trkpt lat="45.28859" lon="4.53306">
        <ele>690.40002441406</ele>
        <time>2026-05-11T08:36:22.000Z</time>
      </trkpt>
      <trkpt lat="45.28861" lon="4.53303">
        <ele>690.40002441406</ele>
        <time>2026-05-11T08:36:23.000Z</time>
      </trkpt>
      <trkpt lat="45.28862" lon="4.533">
        <ele>690.40002441406</ele>
        <time>2026-05-11T08:36:24.000Z</time>
      </trkpt>
      <trkpt lat="45.28864" lon="4.53298">
        <ele>690.40002441406</ele>
        <time>2026-05-11T08:36:25.000Z</time>
      </trkpt>
      <trkpt lat="45.28865" lon="4.53295">
        <ele>690.40002441406</ele>
        <time>2026-05-11T08:36:26.000Z</time>
      </trkpt>
      <trkpt lat="45.28867" lon="4.53292">
        <ele>690.40002441406</ele>
        <time>2026-05-11T08:36:27.000Z</time>
      </trkpt>
      <trkpt lat="45.28868" lon="4.53289">
        <ele>690.59997558594</ele>
        <time>2026-05-11T08:36:28.000Z</time>
      </trkpt>
      <trkpt lat="45.28869" lon="4.53287">
        <ele>690.59997558594</ele>
        <time>2026-05-11T08:36:29.000Z</time>
      </trkpt>
      <trkpt lat="45.2887" lon="4.53284">
        <ele>690.59997558594</ele>
        <time>2026-05-11T08:36:30.000Z</time>
      </trkpt>
      <trkpt lat="45.28872" lon="4.53281">
        <ele>690.59997558594</ele>
        <time>2026-05-11T08:36:31.000Z</time>
      </trkpt>
      <trkpt lat="45.28873" lon="4.53279">
        <ele>690.79998779297</ele>
        <time>2026-05-11T08:36:32.000Z</time>
      </trkpt>
      <trkpt lat="45.28875" lon="4.53277">
        <ele>690.79998779297</ele>
        <time>2026-05-11T08:36:33.000Z</time>
      </trkpt>
      <trkpt lat="45.28876" lon="4.53274">
        <ele>690.79998779297</ele>
        <time>2026-05-11T08:36:34.000Z</time>
      </trkpt>
      <trkpt lat="45.28877" lon="4.53271">
        <ele>691</ele>
        <time>2026-05-11T08:36:35.000Z</time>
      </trkpt>
      <trkpt lat="45.28879" lon="4.53269">
        <ele>691</ele>
        <time>2026-05-11T08:36:36.000Z</time>
      </trkpt>
      <trkpt lat="45.2888" lon="4.53266">
        <ele>691</ele>
        <time>2026-05-11T08:36:37.000Z</time>
      </trkpt>
      <trkpt lat="45.28882" lon="4.53264">
        <ele>691</ele>
        <time>2026-05-11T08:36:38.000Z</time>
      </trkpt>
      <trkpt lat="45.28884" lon="4.53261">
        <ele>691</ele>
        <time>2026-05-11T08:36:39.000Z</time>
      </trkpt>
      <trkpt lat="45.28885" lon="4.53258">
        <ele>691.20001220703</ele>
        <time>2026-05-11T08:36:40.000Z</time>
      </trkpt>
      <trkpt lat="45.28886" lon="4.53255">
        <ele>691.20001220703</ele>
        <time>2026-05-11T08:36:41.000Z</time>
      </trkpt>
      <trkpt lat="45.28888" lon="4.53253">
        <ele>691.20001220703</ele>
        <time>2026-05-11T08:36:42.000Z</time>
      </trkpt>
      <trkpt lat="45.28889" lon="4.53251">
        <ele>691.20001220703</ele>
        <time>2026-05-11T08:36:43.000Z</time>
      </trkpt>
      <trkpt lat="45.2889" lon="4.53249">
        <ele>691.20001220703</ele>
        <time>2026-05-11T08:36:44.000Z</time>
      </trkpt>
      <trkpt lat="45.28892" lon="4.53246">
        <ele>691.20001220703</ele>
        <time>2026-05-11T08:36:45.000Z</time>
      </trkpt>
      <trkpt lat="45.28893" lon="4.53244">
        <ele>691.40002441406</ele>
        <time>2026-05-11T08:36:46.000Z</time>
      </trkpt>
      <trkpt lat="45.28894" lon="4.53241">
        <ele>691.40002441406</ele>
        <time>2026-05-11T08:36:47.000Z</time>
      </trkpt>
      <trkpt lat="45.28895" lon="4.53239">
        <ele>691.40002441406</ele>
        <time>2026-05-11T08:36:48.000Z</time>
      </trkpt>
      <trkpt lat="45.28895" lon="4.53237">
        <ele>691.40002441406</ele>
        <time>2026-05-11T08:36:49.000Z</time>
      </trkpt>
      <trkpt lat="45.28896" lon="4.53235">
        <ele>691.40002441406</ele>
        <time>2026-05-11T08:36:50.000Z</time>
      </trkpt>
      <trkpt lat="45.28897" lon="4.53233">
        <ele>691.40002441406</ele>
        <time>2026-05-11T08:36:51.000Z</time>
      </trkpt>
      <trkpt lat="45.28898" lon="4.53231">
        <ele>691.40002441406</ele>
        <time>2026-05-11T08:36:52.000Z</time>
      </trkpt>
      <trkpt lat="45.28899" lon="4.53229">
        <ele>691.59997558594</ele>
        <time>2026-05-11T08:36:53.000Z</time>
      </trkpt>
      <trkpt lat="45.289" lon="4.53225">
        <ele>691.59997558594</ele>
        <time>2026-05-11T08:36:54.000Z</time>
      </trkpt>
      <trkpt lat="45.289" lon="4.53223">
        <ele>691.59997558594</ele>
        <time>2026-05-11T08:36:55.000Z</time>
      </trkpt>
      <trkpt lat="45.28901" lon="4.5322">
        <ele>691.59997558594</ele>
        <time>2026-05-11T08:36:56.000Z</time>
      </trkpt>
      <trkpt lat="45.28901" lon="4.53217">
        <ele>691.59997558594</ele>
        <time>2026-05-11T08:36:57.000Z</time>
      </trkpt>
      <trkpt lat="45.28902" lon="4.53215">
        <ele>691.59997558594</ele>
        <time>2026-05-11T08:36:58.000Z</time>
      </trkpt>
      <trkpt lat="45.28902" lon="4.53212">
        <ele>691.79998779297</ele>
        <time>2026-05-11T08:36:59.000Z</time>
      </trkpt>
      <trkpt lat="45.28902" lon="4.5321">
        <ele>691.79998779297</ele>
        <time>2026-05-11T08:37:00.000Z</time>
      </trkpt>
      <trkpt lat="45.28903" lon="4.53207">
        <ele>691.79998779297</ele>
        <time>2026-05-11T08:37:01.000Z</time>
      </trkpt>
      <trkpt lat="45.28903" lon="4.53204">
        <ele>692</ele>
        <time>2026-05-11T08:37:02.000Z</time>
      </trkpt>
      <trkpt lat="45.28903" lon="4.53202">
        <ele>692</ele>
        <time>2026-05-11T08:37:03.000Z</time>
      </trkpt>
      <trkpt lat="45.28904" lon="4.53199">
        <ele>692.20001220703</ele>
        <time>2026-05-11T08:37:04.000Z</time>
      </trkpt>
      <trkpt lat="45.28904" lon="4.53196">
        <ele>692.20001220703</ele>
        <time>2026-05-11T08:37:05.000Z</time>
      </trkpt>
      <trkpt lat="45.28905" lon="4.53194">
        <ele>692.40002441406</ele>
        <time>2026-05-11T08:37:06.000Z</time>
      </trkpt>
      <trkpt lat="45.28905" lon="4.53191">
        <ele>692.59997558594</ele>
        <time>2026-05-11T08:37:07.000Z</time>
      </trkpt>
      <trkpt lat="45.28905" lon="4.53188">
        <ele>692.59997558594</ele>
        <time>2026-05-11T08:37:08.000Z</time>
      </trkpt>
      <trkpt lat="45.28905" lon="4.53185">
        <ele>692.79998779297</ele>
        <time>2026-05-11T08:37:09.000Z</time>
      </trkpt>
      <trkpt lat="45.28906" lon="4.53182">
        <ele>692.79998779297</ele>
        <time>2026-05-11T08:37:10.000Z</time>
      </trkpt>
      <trkpt lat="45.28906" lon="4.53179">
        <ele>693</ele>
        <time>2026-05-11T08:37:11.000Z</time>
      </trkpt>
      <trkpt lat="45.28906" lon="4.53176">
        <ele>693.20001220703</ele>
        <time>2026-05-11T08:37:12.000Z</time>
      </trkpt>
      <trkpt lat="45.28906" lon="4.53173">
        <ele>693.40002441406</ele>
        <time>2026-05-11T08:37:13.000Z</time>
      </trkpt>
      <trkpt lat="45.28906" lon="4.53171">
        <ele>693.40002441406</ele>
        <time>2026-05-11T08:37:14.000Z</time>
      </trkpt>
      <trkpt lat="45.28906" lon="4.53168">
        <ele>693.59997558594</ele>
        <time>2026-05-11T08:37:15.000Z</time>
      </trkpt>
      <trkpt lat="45.28906" lon="4.53165">
        <ele>693.79998779297</ele>
        <time>2026-05-11T08:37:16.000Z</time>
      </trkpt>
      <trkpt lat="45.28906" lon="4.53162">
        <ele>694</ele>
        <time>2026-05-11T08:37:17.000Z</time>
      </trkpt>
      <trkpt lat="45.28906" lon="4.53159">
        <ele>694.20001220703</ele>
        <time>2026-05-11T08:37:18.000Z</time>
      </trkpt>
      <trkpt lat="45.28906" lon="4.53156">
        <ele>694.40002441406</ele>
        <time>2026-05-11T08:37:19.000Z</time>
      </trkpt>
      <trkpt lat="45.28907" lon="4.53153">
        <ele>694.59997558594</ele>
        <time>2026-05-11T08:37:20.000Z</time>
      </trkpt>
      <trkpt lat="45.28907" lon="4.5315">
        <ele>694.79998779297</ele>
        <time>2026-05-11T08:37:21.000Z</time>
      </trkpt>
      <trkpt lat="45.28907" lon="4.53147">
        <ele>694.79998779297</ele>
        <time>2026-05-11T08:37:22.000Z</time>
      </trkpt>
      <trkpt lat="45.28907" lon="4.53144">
        <ele>695</ele>
        <time>2026-05-11T08:37:23.000Z</time>
      </trkpt>
      <trkpt lat="45.28907" lon="4.53141">
        <ele>695.40002441406</ele>
        <time>2026-05-11T08:37:24.000Z</time>
      </trkpt>
      <trkpt lat="45.28908" lon="4.53139">
        <ele>695.40002441406</ele>
        <time>2026-05-11T08:37:25.000Z</time>
      </trkpt>
      <trkpt lat="45.28909" lon="4.53136">
        <ele>695.59997558594</ele>
        <time>2026-05-11T08:37:26.000Z</time>
      </trkpt>
      <trkpt lat="45.28909" lon="4.53133">
        <ele>695.79998779297</ele>
        <time>2026-05-11T08:37:27.000Z</time>
      </trkpt>
      <trkpt lat="45.2891" lon="4.5313">
        <ele>696</ele>
        <time>2026-05-11T08:37:28.000Z</time>
      </trkpt>
      <trkpt lat="45.2891" lon="4.53128">
        <ele>696.20001220703</ele>
        <time>2026-05-11T08:37:29.000Z</time>
      </trkpt>
      <trkpt lat="45.28911" lon="4.53126">
        <ele>696.59997558594</ele>
        <time>2026-05-11T08:37:30.000Z</time>
      </trkpt>
      <trkpt lat="45.28911" lon="4.53124">
        <ele>696.79998779297</ele>
        <time>2026-05-11T08:37:31.000Z</time>
      </trkpt>
      <trkpt lat="45.28912" lon="4.53121">
        <ele>697</ele>
        <time>2026-05-11T08:37:32.000Z</time>
      </trkpt>
      <trkpt lat="45.28913" lon="4.53119">
        <ele>697.20001220703</ele>
        <time>2026-05-11T08:37:33.000Z</time>
      </trkpt>
      <trkpt lat="45.28913" lon="4.53117">
        <ele>697.40002441406</ele>
        <time>2026-05-11T08:37:34.000Z</time>
      </trkpt>
      <trkpt lat="45.28914" lon="4.53114">
        <ele>697.79998779297</ele>
        <time>2026-05-11T08:37:35.000Z</time>
      </trkpt>
      <trkpt lat="45.28914" lon="4.53111">
        <ele>698</ele>
        <time>2026-05-11T08:37:36.000Z</time>
      </trkpt>
      <trkpt lat="45.28915" lon="4.53108">
        <ele>698.20001220703</ele>
        <time>2026-05-11T08:37:37.000Z</time>
      </trkpt>
      <trkpt lat="45.28916" lon="4.53106">
        <ele>698.40002441406</ele>
        <time>2026-05-11T08:37:38.000Z</time>
      </trkpt>
      <trkpt lat="45.28917" lon="4.53103">
        <ele>698.59997558594</ele>
        <time>2026-05-11T08:37:39.000Z</time>
      </trkpt>
      <trkpt lat="45.28917" lon="4.531">
        <ele>698.79998779297</ele>
        <time>2026-05-11T08:37:40.000Z</time>
      </trkpt>
      <trkpt lat="45.28918" lon="4.53098">
        <ele>699.20001220703</ele>
        <time>2026-05-11T08:37:41.000Z</time>
      </trkpt>
      <trkpt lat="45.28918" lon="4.53095">
        <ele>699.40002441406</ele>
        <time>2026-05-11T08:37:42.000Z</time>
      </trkpt>
      <trkpt lat="45.28919" lon="4.53093">
        <ele>699.59997558594</ele>
        <time>2026-05-11T08:37:43.000Z</time>
      </trkpt>
      <trkpt lat="45.28919" lon="4.53091">
        <ele>699.79998779297</ele>
        <time>2026-05-11T08:37:44.000Z</time>
      </trkpt>
      <trkpt lat="45.2892" lon="4.53088">
        <ele>700</ele>
        <time>2026-05-11T08:37:45.000Z</time>
      </trkpt>
      <trkpt lat="45.28921" lon="4.53086">
        <ele>700.20001220703</ele>
        <time>2026-05-11T08:37:46.000Z</time>
      </trkpt>
      <trkpt lat="45.28921" lon="4.53083">
        <ele>700.40002441406</ele>
        <time>2026-05-11T08:37:47.000Z</time>
      </trkpt>
      <trkpt lat="45.28922" lon="4.53081">
        <ele>700.59997558594</ele>
        <time>2026-05-11T08:37:48.000Z</time>
      </trkpt>
      <trkpt lat="45.28923" lon="4.53078">
        <ele>700.79998779297</ele>
        <time>2026-05-11T08:37:49.000Z</time>
      </trkpt>
      <trkpt lat="45.28924" lon="4.53076">
        <ele>701</ele>
        <time>2026-05-11T08:37:50.000Z</time>
      </trkpt>
      <trkpt lat="45.28924" lon="4.53073">
        <ele>701.20001220703</ele>
        <time>2026-05-11T08:37:51.000Z</time>
      </trkpt>
      <trkpt lat="45.28925" lon="4.53071">
        <ele>701.40002441406</ele>
        <time>2026-05-11T08:37:52.000Z</time>
      </trkpt>
      <trkpt lat="45.28926" lon="4.53068">
        <ele>701.59997558594</ele>
        <time>2026-05-11T08:37:53.000Z</time>
      </trkpt>
      <trkpt lat="45.28926" lon="4.53066">
        <ele>701.79998779297</ele>
        <time>2026-05-11T08:37:54.000Z</time>
      </trkpt>
      <trkpt lat="45.28927" lon="4.53063">
        <ele>702</ele>
        <time>2026-05-11T08:37:55.000Z</time>
      </trkpt>
      <trkpt lat="45.28927" lon="4.53061">
        <ele>702.20001220703</ele>
        <time>2026-05-11T08:37:56.000Z</time>
      </trkpt>
      <trkpt lat="45.28928" lon="4.53058">
        <ele>702.40002441406</ele>
        <time>2026-05-11T08:37:57.000Z</time>
      </trkpt>
      <trkpt lat="45.28929" lon="4.53056">
        <ele>702.59997558594</ele>
        <time>2026-05-11T08:37:58.000Z</time>
      </trkpt>
      <trkpt lat="45.28929" lon="4.53054">
        <ele>703</ele>
        <time>2026-05-11T08:37:59.000Z</time>
      </trkpt>
      <trkpt lat="45.2893" lon="4.53051">
        <ele>703.20001220703</ele>
        <time>2026-05-11T08:38:00.000Z</time>
      </trkpt>
      <trkpt lat="45.2893" lon="4.53048">
        <ele>703.40002441406</ele>
        <time>2026-05-11T08:38:01.000Z</time>
      </trkpt>
      <trkpt lat="45.28931" lon="4.53046">
        <ele>703.59997558594</ele>
        <time>2026-05-11T08:38:02.000Z</time>
      </trkpt>
      <trkpt lat="45.28931" lon="4.53043">
        <ele>703.79998779297</ele>
        <time>2026-05-11T08:38:03.000Z</time>
      </trkpt>
      <trkpt lat="45.28932" lon="4.53042">
        <ele>704</ele>
        <time>2026-05-11T08:38:04.000Z</time>
      </trkpt>
      <trkpt lat="45.28933" lon="4.5304">
        <ele>704.20001220703</ele>
        <time>2026-05-11T08:38:05.000Z</time>
      </trkpt>
      <trkpt lat="45.28933" lon="4.53038">
        <ele>704.40002441406</ele>
        <time>2026-05-11T08:38:06.000Z</time>
      </trkpt>
      <trkpt lat="45.28934" lon="4.53036">
        <ele>704.79998779297</ele>
        <time>2026-05-11T08:38:07.000Z</time>
      </trkpt>
      <trkpt lat="45.28934" lon="4.53034">
        <ele>705</ele>
        <time>2026-05-11T08:38:08.000Z</time>
      </trkpt>
      <trkpt lat="45.28935" lon="4.53032">
        <ele>705.20001220703</ele>
        <time>2026-05-11T08:38:09.000Z</time>
      </trkpt>
      <trkpt lat="45.28936" lon="4.53031">
        <ele>705.40002441406</ele>
        <time>2026-05-11T08:38:10.000Z</time>
      </trkpt>
      <trkpt lat="45.28937" lon="4.53029">
        <ele>705.59997558594</ele>
        <time>2026-05-11T08:38:11.000Z</time>
      </trkpt>
      <trkpt lat="45.28938" lon="4.53028">
        <ele>705.79998779297</ele>
        <time>2026-05-11T08:38:12.000Z</time>
      </trkpt>
      <trkpt lat="45.28939" lon="4.53027">
        <ele>706</ele>
        <time>2026-05-11T08:38:13.000Z</time>
      </trkpt>
      <trkpt lat="45.2894" lon="4.53026">
        <ele>706.20001220703</ele>
        <time>2026-05-11T08:38:14.000Z</time>
      </trkpt>
      <trkpt lat="45.28941" lon="4.53026">
        <ele>706.40002441406</ele>
        <time>2026-05-11T08:38:15.000Z</time>
      </trkpt>
      <trkpt lat="45.28943" lon="4.53027">
        <ele>706.79998779297</ele>
        <time>2026-05-11T08:38:16.000Z</time>
      </trkpt>
      <trkpt lat="45.28944" lon="4.53027">
        <ele>707</ele>
        <time>2026-05-11T08:38:17.000Z</time>
      </trkpt>
      <trkpt lat="45.28945" lon="4.53027">
        <ele>707.20001220703</ele>
        <time>2026-05-11T08:38:18.000Z</time>
      </trkpt>
      <trkpt lat="45.28946" lon="4.53028">
        <ele>707.40002441406</ele>
        <time>2026-05-11T08:38:19.000Z</time>
      </trkpt>
      <trkpt lat="45.28948" lon="4.53028">
        <ele>707.40002441406</ele>
        <time>2026-05-11T08:38:20.000Z</time>
      </trkpt>
      <trkpt lat="45.28949" lon="4.53029">
        <ele>707.59997558594</ele>
        <time>2026-05-11T08:38:21.000Z</time>
      </trkpt>
      <trkpt lat="45.2895" lon="4.5303">
        <ele>707.79998779297</ele>
        <time>2026-05-11T08:38:22.000Z</time>
      </trkpt>
      <trkpt lat="45.28951" lon="4.5303">
        <ele>708</ele>
        <time>2026-05-11T08:38:23.000Z</time>
      </trkpt>
      <trkpt lat="45.28953" lon="4.53031">
        <ele>708.20001220703</ele>
        <time>2026-05-11T08:38:24.000Z</time>
      </trkpt>
      <trkpt lat="45.28954" lon="4.53031">
        <ele>708.40002441406</ele>
        <time>2026-05-11T08:38:25.000Z</time>
      </trkpt>
      <trkpt lat="45.28956" lon="4.53032">
        <ele>708.40002441406</ele>
        <time>2026-05-11T08:38:26.000Z</time>
      </trkpt>
      <trkpt lat="45.28957" lon="4.53032">
        <ele>708.59997558594</ele>
        <time>2026-05-11T08:38:27.000Z</time>
      </trkpt>
      <trkpt lat="45.28958" lon="4.53033">
        <ele>708.79998779297</ele>
        <time>2026-05-11T08:38:28.000Z</time>
      </trkpt>
      <trkpt lat="45.2896" lon="4.53034">
        <ele>709</ele>
        <time>2026-05-11T08:38:29.000Z</time>
      </trkpt>
      <trkpt lat="45.28961" lon="4.53034">
        <ele>709.20001220703</ele>
        <time>2026-05-11T08:38:30.000Z</time>
      </trkpt>
      <trkpt lat="45.28963" lon="4.53035">
        <ele>709.40002441406</ele>
        <time>2026-05-11T08:38:31.000Z</time>
      </trkpt>
      <trkpt lat="45.28964" lon="4.53035">
        <ele>709.59997558594</ele>
        <time>2026-05-11T08:38:32.000Z</time>
      </trkpt>
      <trkpt lat="45.28965" lon="4.53034">
        <ele>709.79998779297</ele>
        <time>2026-05-11T08:38:33.000Z</time>
      </trkpt>
      <trkpt lat="45.28967" lon="4.53034">
        <ele>710.20001220703</ele>
        <time>2026-05-11T08:38:34.000Z</time>
      </trkpt>
      <trkpt lat="45.28968" lon="4.53032">
        <ele>710.40002441406</ele>
        <time>2026-05-11T08:38:35.000Z</time>
      </trkpt>
      <trkpt lat="45.28969" lon="4.53031">
        <ele>710.59997558594</ele>
        <time>2026-05-11T08:38:36.000Z</time>
      </trkpt>
      <trkpt lat="45.2897" lon="4.53029">
        <ele>710.79998779297</ele>
        <time>2026-05-11T08:38:37.000Z</time>
      </trkpt>
      <trkpt lat="45.28971" lon="4.53028">
        <ele>711</ele>
        <time>2026-05-11T08:38:38.000Z</time>
      </trkpt>
      <trkpt lat="45.28972" lon="4.53026">
        <ele>711.20001220703</ele>
        <time>2026-05-11T08:38:39.000Z</time>
      </trkpt>
      <trkpt lat="45.28972" lon="4.53024">
        <ele>711.59997558594</ele>
        <time>2026-05-11T08:38:40.000Z</time>
      </trkpt>
      <trkpt lat="45.28972" lon="4.53022">
        <ele>711.79998779297</ele>
        <time>2026-05-11T08:38:41.000Z</time>
      </trkpt>
      <trkpt lat="45.28972" lon="4.53021">
        <ele>712</ele>
        <time>2026-05-11T08:38:42.000Z</time>
      </trkpt>
      <trkpt lat="45.28973" lon="4.53019">
        <ele>712.20001220703</ele>
        <time>2026-05-11T08:38:43.000Z</time>
      </trkpt>
      <trkpt lat="45.28974" lon="4.53018">
        <ele>712.40002441406</ele>
        <time>2026-05-11T08:38:44.000Z</time>
      </trkpt>
      <trkpt lat="45.28974" lon="4.53016">
        <ele>712.79998779297</ele>
        <time>2026-05-11T08:38:45.000Z</time>
      </trkpt>
      <trkpt lat="45.28975" lon="4.53013">
        <ele>713</ele>
        <time>2026-05-11T08:38:46.000Z</time>
      </trkpt>
      <trkpt lat="45.28976" lon="4.53011">
        <ele>713.20001220703</ele>
        <time>2026-05-11T08:38:47.000Z</time>
      </trkpt>
      <trkpt lat="45.28977" lon="4.5301">
        <ele>713.40002441406</ele>
        <time>2026-05-11T08:38:48.000Z</time>
      </trkpt>
      <trkpt lat="45.28978" lon="4.53008">
        <ele>713.59997558594</ele>
        <time>2026-05-11T08:38:49.000Z</time>
      </trkpt>
      <trkpt lat="45.28979" lon="4.53007">
        <ele>713.79998779297</ele>
        <time>2026-05-11T08:38:50.000Z</time>
      </trkpt>
      <trkpt lat="45.2898" lon="4.53005">
        <ele>714.20001220703</ele>
        <time>2026-05-11T08:38:51.000Z</time>
      </trkpt>
      <trkpt lat="45.28981" lon="4.53003">
        <ele>714.40002441406</ele>
        <time>2026-05-11T08:38:52.000Z</time>
      </trkpt>
      <trkpt lat="45.28981" lon="4.53001">
        <ele>714.59997558594</ele>
        <time>2026-05-11T08:38:53.000Z</time>
      </trkpt>
      <trkpt lat="45.28982" lon="4.52999">
        <ele>714.79998779297</ele>
        <time>2026-05-11T08:38:54.000Z</time>
      </trkpt>
      <trkpt lat="45.28982" lon="4.52997">
        <ele>715</ele>
        <time>2026-05-11T08:38:55.000Z</time>
      </trkpt>
      <trkpt lat="45.28983" lon="4.52996">
        <ele>715.20001220703</ele>
        <time>2026-05-11T08:38:56.000Z</time>
      </trkpt>
      <trkpt lat="45.28984" lon="4.52994">
        <ele>715.40002441406</ele>
        <time>2026-05-11T08:38:57.000Z</time>
      </trkpt>
      <trkpt lat="45.28984" lon="4.52993">
        <ele>715.40002441406</ele>
        <time>2026-05-11T08:38:58.000Z</time>
      </trkpt>
      <trkpt lat="45.28985" lon="4.52991">
        <ele>715.59997558594</ele>
        <time>2026-05-11T08:38:59.000Z</time>
      </trkpt>
      <trkpt lat="45.28986" lon="4.52989">
        <ele>715.79998779297</ele>
        <time>2026-05-11T08:39:00.000Z</time>
      </trkpt>
      <trkpt lat="45.28987" lon="4.52987">
        <ele>715.79998779297</ele>
        <time>2026-05-11T08:39:01.000Z</time>
      </trkpt>
      <trkpt lat="45.28988" lon="4.52985">
        <ele>716</ele>
        <time>2026-05-11T08:39:02.000Z</time>
      </trkpt>
      <trkpt lat="45.28988" lon="4.52983">
        <ele>716.20001220703</ele>
        <time>2026-05-11T08:39:03.000Z</time>
      </trkpt>
      <trkpt lat="45.28989" lon="4.52981">
        <ele>716.40002441406</ele>
        <time>2026-05-11T08:39:04.000Z</time>
      </trkpt>
      <trkpt lat="45.2899" lon="4.52979">
        <ele>716.40002441406</ele>
        <time>2026-05-11T08:39:05.000Z</time>
      </trkpt>
      <trkpt lat="45.28991" lon="4.52977">
        <ele>716.59997558594</ele>
        <time>2026-05-11T08:39:06.000Z</time>
      </trkpt>
      <trkpt lat="45.28991" lon="4.52975">
        <ele>716.79998779297</ele>
        <time>2026-05-11T08:39:07.000Z</time>
      </trkpt>
      <trkpt lat="45.28992" lon="4.52973">
        <ele>717</ele>
        <time>2026-05-11T08:39:08.000Z</time>
      </trkpt>
      <trkpt lat="45.28992" lon="4.52972">
        <ele>717</ele>
        <time>2026-05-11T08:39:09.000Z</time>
      </trkpt>
      <trkpt lat="45.28993" lon="4.5297">
        <ele>717.20001220703</ele>
        <time>2026-05-11T08:39:10.000Z</time>
      </trkpt>
      <trkpt lat="45.28994" lon="4.52969">
        <ele>717.20001220703</ele>
        <time>2026-05-11T08:39:11.000Z</time>
      </trkpt>
      <trkpt lat="45.28995" lon="4.52967">
        <ele>717.40002441406</ele>
        <time>2026-05-11T08:39:12.000Z</time>
      </trkpt>
      <trkpt lat="45.28996" lon="4.52966">
        <ele>717.59997558594</ele>
        <time>2026-05-11T08:39:13.000Z</time>
      </trkpt>
      <trkpt lat="45.28997" lon="4.52965">
        <ele>717.79998779297</ele>
        <time>2026-05-11T08:39:14.000Z</time>
      </trkpt>
      <trkpt lat="45.28998" lon="4.52963">
        <ele>717.79998779297</ele>
        <time>2026-05-11T08:39:15.000Z</time>
      </trkpt>
      <trkpt lat="45.28999" lon="4.52962">
        <ele>718</ele>
        <time>2026-05-11T08:39:16.000Z</time>
      </trkpt>
      <trkpt lat="45.29" lon="4.52961">
        <ele>718</ele>
        <time>2026-05-11T08:39:17.000Z</time>
      </trkpt>
      <trkpt lat="45.29001" lon="4.5296">
        <ele>718.20001220703</ele>
        <time>2026-05-11T08:39:18.000Z</time>
      </trkpt>
      <trkpt lat="45.29002" lon="4.52959">
        <ele>718.40002441406</ele>
        <time>2026-05-11T08:39:19.000Z</time>
      </trkpt>
      <trkpt lat="45.29003" lon="4.52958">
        <ele>718.59997558594</ele>
        <time>2026-05-11T08:39:20.000Z</time>
      </trkpt>
      <trkpt lat="45.29004" lon="4.52957">
        <ele>718.59997558594</ele>
        <time>2026-05-11T08:39:21.000Z</time>
      </trkpt>
      <trkpt lat="45.29006" lon="4.52956">
        <ele>718.79998779297</ele>
        <time>2026-05-11T08:39:22.000Z</time>
      </trkpt>
      <trkpt lat="45.29007" lon="4.52956">
        <ele>719</ele>
        <time>2026-05-11T08:39:23.000Z</time>
      </trkpt>
      <trkpt lat="45.29008" lon="4.52955">
        <ele>719.20001220703</ele>
        <time>2026-05-11T08:39:24.000Z</time>
      </trkpt>
      <trkpt lat="45.29009" lon="4.52954">
        <ele>719.40002441406</ele>
        <time>2026-05-11T08:39:25.000Z</time>
      </trkpt>
      <trkpt lat="45.2901" lon="4.52953">
        <ele>719.59997558594</ele>
        <time>2026-05-11T08:39:26.000Z</time>
      </trkpt>
      <trkpt lat="45.29011" lon="4.52953">
        <ele>719.79998779297</ele>
        <time>2026-05-11T08:39:27.000Z</time>
      </trkpt>
      <trkpt lat="45.29012" lon="4.52952">
        <ele>720</ele>
        <time>2026-05-11T08:39:28.000Z</time>
      </trkpt>
      <trkpt lat="45.29013" lon="4.52952">
        <ele>720.20001220703</ele>
        <time>2026-05-11T08:39:29.000Z</time>
      </trkpt>
      <trkpt lat="45.29014" lon="4.52951">
        <ele>720.40002441406</ele>
        <time>2026-05-11T08:39:30.000Z</time>
      </trkpt>
      <trkpt lat="45.29015" lon="4.5295">
        <ele>720.59997558594</ele>
        <time>2026-05-11T08:39:31.000Z</time>
      </trkpt>
      <trkpt lat="45.29016" lon="4.5295">
        <ele>720.79998779297</ele>
        <time>2026-05-11T08:39:32.000Z</time>
      </trkpt>
      <trkpt lat="45.29017" lon="4.52949">
        <ele>721</ele>
        <time>2026-05-11T08:39:33.000Z</time>
      </trkpt>
      <trkpt lat="45.29018" lon="4.52949">
        <ele>721.40002441406</ele>
        <time>2026-05-11T08:39:34.000Z</time>
      </trkpt>
      <trkpt lat="45.2902" lon="4.52949">
        <ele>721.59997558594</ele>
        <time>2026-05-11T08:39:35.000Z</time>
      </trkpt>
      <trkpt lat="45.29021" lon="4.52948">
        <ele>721.79998779297</ele>
        <time>2026-05-11T08:39:36.000Z</time>
      </trkpt>
      <trkpt lat="45.29022" lon="4.52947">
        <ele>722</ele>
        <time>2026-05-11T08:39:37.000Z</time>
      </trkpt>
      <trkpt lat="45.29023" lon="4.52946">
        <ele>722.40002441406</ele>
        <time>2026-05-11T08:39:38.000Z</time>
      </trkpt>
      <trkpt lat="45.29024" lon="4.52945">
        <ele>722.59997558594</ele>
        <time>2026-05-11T08:39:39.000Z</time>
      </trkpt>
      <trkpt lat="45.29026" lon="4.52944">
        <ele>723</ele>
        <time>2026-05-11T08:39:40.000Z</time>
      </trkpt>
      <trkpt lat="45.29027" lon="4.52944">
        <ele>723.20001220703</ele>
        <time>2026-05-11T08:39:41.000Z</time>
      </trkpt>
      <trkpt lat="45.29028" lon="4.52944">
        <ele>723.40002441406</ele>
        <time>2026-05-11T08:39:42.000Z</time>
      </trkpt>
      <trkpt lat="45.29029" lon="4.52943">
        <ele>723.79998779297</ele>
        <time>2026-05-11T08:39:43.000Z</time>
      </trkpt>
      <trkpt lat="45.29031" lon="4.52943">
        <ele>724</ele>
        <time>2026-05-11T08:39:44.000Z</time>
      </trkpt>
      <trkpt lat="45.29032" lon="4.52942">
        <ele>724.40002441406</ele>
        <time>2026-05-11T08:39:45.000Z</time>
      </trkpt>
      <trkpt lat="45.29033" lon="4.52942">
        <ele>724.59997558594</ele>
        <time>2026-05-11T08:39:46.000Z</time>
      </trkpt>
      <trkpt lat="45.29035" lon="4.52941">
        <ele>724.79998779297</ele>
        <time>2026-05-11T08:39:47.000Z</time>
      </trkpt>
      <trkpt lat="45.29036" lon="4.52941">
        <ele>725.20001220703</ele>
        <time>2026-05-11T08:39:48.000Z</time>
      </trkpt>
      <trkpt lat="45.29038" lon="4.5294">
        <ele>725.59997558594</ele>
        <time>2026-05-11T08:39:49.000Z</time>
      </trkpt>
      <trkpt lat="45.29039" lon="4.5294">
        <ele>725.79998779297</ele>
        <time>2026-05-11T08:39:50.000Z</time>
      </trkpt>
      <trkpt lat="45.29041" lon="4.52941">
        <ele>726.20001220703</ele>
        <time>2026-05-11T08:39:51.000Z</time>
      </trkpt>
      <trkpt lat="45.29041" lon="4.52943">
        <ele>726.40002441406</ele>
        <time>2026-05-11T08:39:52.000Z</time>
      </trkpt>
      <trkpt lat="45.29042" lon="4.52945">
        <ele>726.79998779297</ele>
        <time>2026-05-11T08:39:53.000Z</time>
      </trkpt>
      <trkpt lat="45.29041" lon="4.52947">
        <ele>727</ele>
        <time>2026-05-11T08:39:54.000Z</time>
      </trkpt>
      <trkpt lat="45.29041" lon="4.52949">
        <ele>727.40002441406</ele>
        <time>2026-05-11T08:39:55.000Z</time>
      </trkpt>
      <trkpt lat="45.2904" lon="4.5295">
        <ele>727.59997558594</ele>
        <time>2026-05-11T08:39:56.000Z</time>
      </trkpt>
      <trkpt lat="45.29039" lon="4.52952">
        <ele>727.79998779297</ele>
        <time>2026-05-11T08:39:57.000Z</time>
      </trkpt>
      <trkpt lat="45.29039" lon="4.52954">
        <ele>728</ele>
        <time>2026-05-11T08:39:58.000Z</time>
      </trkpt>
      <trkpt lat="45.29039" lon="4.52957">
        <ele>728.20001220703</ele>
        <time>2026-05-11T08:39:59.000Z</time>
      </trkpt>
      <trkpt lat="45.29038" lon="4.5296">
        <ele>728.59997558594</ele>
        <time>2026-05-11T08:40:00.000Z</time>
      </trkpt>
      <trkpt lat="45.29037" lon="4.52962">
        <ele>728.59997558594</ele>
        <time>2026-05-11T08:40:01.000Z</time>
      </trkpt>
      <trkpt lat="45.29037" lon="4.52963">
        <ele>728.79998779297</ele>
        <time>2026-05-11T08:40:02.000Z</time>
      </trkpt>
      <trkpt lat="45.29035" lon="4.52964">
        <ele>729</ele>
        <time>2026-05-11T08:40:03.000Z</time>
      </trkpt>
      <trkpt lat="45.29034" lon="4.52966">
        <ele>729</ele>
        <time>2026-05-11T08:40:04.000Z</time>
      </trkpt>
      <trkpt lat="45.29033" lon="4.52968">
        <ele>729</ele>
        <time>2026-05-11T08:40:05.000Z</time>
      </trkpt>
      <trkpt lat="45.29032" lon="4.52971">
        <ele>729</ele>
        <time>2026-05-11T08:40:06.000Z</time>
      </trkpt>
      <trkpt lat="45.2903" lon="4.52974">
        <ele>729</ele>
        <time>2026-05-11T08:40:07.000Z</time>
      </trkpt>
      <trkpt lat="45.29028" lon="4.52977">
        <ele>729</ele>
        <time>2026-05-11T08:40:08.000Z</time>
      </trkpt>
      <trkpt lat="45.29026" lon="4.5298">
        <ele>728.79998779297</ele>
        <time>2026-05-11T08:40:09.000Z</time>
      </trkpt>
      <trkpt lat="45.29025" lon="4.52983">
        <ele>728.59997558594</ele>
        <time>2026-05-11T08:40:10.000Z</time>
      </trkpt>
      <trkpt lat="45.29023" lon="4.52986">
        <ele>728.40002441406</ele>
        <time>2026-05-11T08:40:11.000Z</time>
      </trkpt>
      <trkpt lat="45.29021" lon="4.52989">
        <ele>728.20001220703</ele>
        <time>2026-05-11T08:40:12.000Z</time>
      </trkpt>
      <trkpt lat="45.2902" lon="4.52992">
        <ele>728</ele>
        <time>2026-05-11T08:40:13.000Z</time>
      </trkpt>
      <trkpt lat="45.29019" lon="4.52995">
        <ele>727.79998779297</ele>
        <time>2026-05-11T08:40:14.000Z</time>
      </trkpt>
      <trkpt lat="45.29019" lon="4.52997">
        <ele>727.59997558594</ele>
        <time>2026-05-11T08:40:15.000Z</time>
      </trkpt>
      <trkpt lat="45.2902" lon="4.52999">
        <ele>727.40002441406</ele>
        <time>2026-05-11T08:40:16.000Z</time>
      </trkpt>
      <trkpt lat="45.29019" lon="4.53002">
        <ele>727.20001220703</ele>
        <time>2026-05-11T08:40:17.000Z</time>
      </trkpt>
      <trkpt lat="45.29018" lon="4.53004">
        <ele>727</ele>
        <time>2026-05-11T08:40:18.000Z</time>
      </trkpt>
      <trkpt lat="45.29017" lon="4.53007">
        <ele>726.79998779297</ele>
        <time>2026-05-11T08:40:19.000Z</time>
      </trkpt>
      <trkpt lat="45.29016" lon="4.5301">
        <ele>726.59997558594</ele>
        <time>2026-05-11T08:40:20.000Z</time>
      </trkpt>
      <trkpt lat="45.29015" lon="4.53012">
        <ele>726.40002441406</ele>
        <time>2026-05-11T08:40:21.000Z</time>
      </trkpt>
      <trkpt lat="45.29014" lon="4.53016">
        <ele>726.20001220703</ele>
        <time>2026-05-11T08:40:22.000Z</time>
      </trkpt>
      <trkpt lat="45.29013" lon="4.5302">
        <ele>726</ele>
        <time>2026-05-11T08:40:23.000Z</time>
      </trkpt>
      <trkpt lat="45.29012" lon="4.53025">
        <ele>725.79998779297</ele>
        <time>2026-05-11T08:40:24.000Z</time>
      </trkpt>
      <trkpt lat="45.29012" lon="4.53029">
        <ele>725.59997558594</ele>
        <time>2026-05-11T08:40:25.000Z</time>
      </trkpt>
      <trkpt lat="45.29012" lon="4.53032">
        <ele>725.59997558594</ele>
        <time>2026-05-11T08:40:26.000Z</time>
      </trkpt>
      <trkpt lat="45.29013" lon="4.53035">
        <ele>725.40002441406</ele>
        <time>2026-05-11T08:40:27.000Z</time>
      </trkpt>
      <trkpt lat="45.29013" lon="4.53037">
        <ele>725.40002441406</ele>
        <time>2026-05-11T08:40:28.000Z</time>
      </trkpt>
      <trkpt lat="45.29014" lon="4.53039">
        <ele>725.40002441406</ele>
        <time>2026-05-11T08:40:29.000Z</time>
      </trkpt>
      <trkpt lat="45.29015" lon="4.53041">
        <ele>725.59997558594</ele>
        <time>2026-05-11T08:40:30.000Z</time>
      </trkpt>
      <trkpt lat="45.29016" lon="4.53043">
        <ele>725.59997558594</ele>
        <time>2026-05-11T08:40:31.000Z</time>
      </trkpt>
      <trkpt lat="45.29016" lon="4.53045">
        <ele>725.79998779297</ele>
        <time>2026-05-11T08:40:32.000Z</time>
      </trkpt>
      <trkpt lat="45.29017" lon="4.53047">
        <ele>726</ele>
        <time>2026-05-11T08:40:33.000Z</time>
      </trkpt>
      <trkpt lat="45.29018" lon="4.53049">
        <ele>726.20001220703</ele>
        <time>2026-05-11T08:40:34.000Z</time>
      </trkpt>
      <trkpt lat="45.29018" lon="4.53052">
        <ele>726.40002441406</ele>
        <time>2026-05-11T08:40:35.000Z</time>
      </trkpt>
      <trkpt lat="45.29019" lon="4.53054">
        <ele>726.59997558594</ele>
        <time>2026-05-11T08:40:36.000Z</time>
      </trkpt>
      <trkpt lat="45.2902" lon="4.53056">
        <ele>726.79998779297</ele>
        <time>2026-05-11T08:40:37.000Z</time>
      </trkpt>
      <trkpt lat="45.29021" lon="4.53059">
        <ele>727</ele>
        <time>2026-05-11T08:40:38.000Z</time>
      </trkpt>
      <trkpt lat="45.29021" lon="4.53061">
        <ele>727.20001220703</ele>
        <time>2026-05-11T08:40:39.000Z</time>
      </trkpt>
      <trkpt lat="45.29021" lon="4.53064">
        <ele>727.40002441406</ele>
        <time>2026-05-11T08:40:40.000Z</time>
      </trkpt>
      <trkpt lat="45.29021" lon="4.53066">
        <ele>727.59997558594</ele>
        <time>2026-05-11T08:40:41.000Z</time>
      </trkpt>
      <trkpt lat="45.29021" lon="4.53068">
        <ele>727.79998779297</ele>
        <time>2026-05-11T08:40:42.000Z</time>
      </trkpt>
      <trkpt lat="45.29022" lon="4.5307">
        <ele>728</ele>
        <time>2026-05-11T08:40:43.000Z</time>
      </trkpt>
      <trkpt lat="45.29022" lon="4.53073">
        <ele>728</ele>
        <time>2026-05-11T08:40:44.000Z</time>
      </trkpt>
      <trkpt lat="45.29022" lon="4.53075">
        <ele>728.20001220703</ele>
        <time>2026-05-11T08:40:45.000Z</time>
      </trkpt>
      <trkpt lat="45.29023" lon="4.53077">
        <ele>728.40002441406</ele>
        <time>2026-05-11T08:40:46.000Z</time>
      </trkpt>
      <trkpt lat="45.29023" lon="4.53079">
        <ele>728.40002441406</ele>
        <time>2026-05-11T08:40:47.000Z</time>
      </trkpt>
      <trkpt lat="45.29024" lon="4.53081">
        <ele>728.59997558594</ele>
        <time>2026-05-11T08:40:48.000Z</time>
      </trkpt>
      <trkpt lat="45.29025" lon="4.53084">
        <ele>728.79998779297</ele>
        <time>2026-05-11T08:40:49.000Z</time>
      </trkpt>
      <trkpt lat="45.29026" lon="4.53086">
        <ele>728.79998779297</ele>
        <time>2026-05-11T08:40:50.000Z</time>
      </trkpt>
      <trkpt lat="45.29026" lon="4.53088">
        <ele>729</ele>
        <time>2026-05-11T08:40:51.000Z</time>
      </trkpt>
      <trkpt lat="45.29027" lon="4.5309">
        <ele>729.20001220703</ele>
        <time>2026-05-11T08:40:52.000Z</time>
      </trkpt>
      <trkpt lat="45.29027" lon="4.53093">
        <ele>729.40002441406</ele>
        <time>2026-05-11T08:40:53.000Z</time>
      </trkpt>
      <trkpt lat="45.29027" lon="4.53095">
        <ele>729.40002441406</ele>
        <time>2026-05-11T08:40:54.000Z</time>
      </trkpt>
      <trkpt lat="45.29028" lon="4.53097">
        <ele>729.59997558594</ele>
        <time>2026-05-11T08:40:55.000Z</time>
      </trkpt>
      <trkpt lat="45.29029" lon="4.531">
        <ele>729.79998779297</ele>
        <time>2026-05-11T08:40:56.000Z</time>
      </trkpt>
      <trkpt lat="45.29029" lon="4.53102">
        <ele>729.79998779297</ele>
        <time>2026-05-11T08:40:57.000Z</time>
      </trkpt>
      <trkpt lat="45.29029" lon="4.53104">
        <ele>730</ele>
        <time>2026-05-11T08:40:58.000Z</time>
      </trkpt>
      <trkpt lat="45.2903" lon="4.53106">
        <ele>730.20001220703</ele>
        <time>2026-05-11T08:40:59.000Z</time>
      </trkpt>
      <trkpt lat="45.2903" lon="4.53109">
        <ele>730.20001220703</ele>
        <time>2026-05-11T08:41:00.000Z</time>
      </trkpt>
      <trkpt lat="45.2903" lon="4.53111">
        <ele>730.40002441406</ele>
        <time>2026-05-11T08:41:01.000Z</time>
      </trkpt>
      <trkpt lat="45.29031" lon="4.53113">
        <ele>730.59997558594</ele>
        <time>2026-05-11T08:41:02.000Z</time>
      </trkpt>
      <trkpt lat="45.29031" lon="4.53115">
        <ele>730.79998779297</ele>
        <time>2026-05-11T08:41:03.000Z</time>
      </trkpt>
      <trkpt lat="45.29032" lon="4.53117">
        <ele>731</ele>
        <time>2026-05-11T08:41:04.000Z</time>
      </trkpt>
      <trkpt lat="45.29032" lon="4.53119">
        <ele>731.20001220703</ele>
        <time>2026-05-11T08:41:05.000Z</time>
      </trkpt>
      <trkpt lat="45.29033" lon="4.53122">
        <ele>731.40002441406</ele>
        <time>2026-05-11T08:41:06.000Z</time>
      </trkpt>
      <trkpt lat="45.29033" lon="4.53124">
        <ele>731.40002441406</ele>
        <time>2026-05-11T08:41:07.000Z</time>
      </trkpt>
      <trkpt lat="45.29034" lon="4.53126">
        <ele>731.59997558594</ele>
        <time>2026-05-11T08:41:08.000Z</time>
      </trkpt>
      <trkpt lat="45.29034" lon="4.53129">
        <ele>731.79998779297</ele>
        <time>2026-05-11T08:41:09.000Z</time>
      </trkpt>
      <trkpt lat="45.29035" lon="4.53131">
        <ele>732</ele>
        <time>2026-05-11T08:41:10.000Z</time>
      </trkpt>
      <trkpt lat="45.29035" lon="4.53133">
        <ele>732.20001220703</ele>
        <time>2026-05-11T08:41:11.000Z</time>
      </trkpt>
      <trkpt lat="45.29036" lon="4.53135">
        <ele>732.40002441406</ele>
        <time>2026-05-11T08:41:12.000Z</time>
      </trkpt>
      <trkpt lat="45.29037" lon="4.53137">
        <ele>732.59997558594</ele>
        <time>2026-05-11T08:41:13.000Z</time>
      </trkpt>
      <trkpt lat="45.29037" lon="4.53139">
        <ele>732.79998779297</ele>
        <time>2026-05-11T08:41:14.000Z</time>
      </trkpt>
      <trkpt lat="45.29038" lon="4.53141">
        <ele>733</ele>
        <time>2026-05-11T08:41:15.000Z</time>
      </trkpt>
      <trkpt lat="45.29038" lon="4.53144">
        <ele>733.20001220703</ele>
        <time>2026-05-11T08:41:16.000Z</time>
      </trkpt>
      <trkpt lat="45.29039" lon="4.53146">
        <ele>733.40002441406</ele>
        <time>2026-05-11T08:41:17.000Z</time>
      </trkpt>
      <trkpt lat="45.29039" lon="4.53148">
        <ele>733.59997558594</ele>
        <time>2026-05-11T08:41:18.000Z</time>
      </trkpt>
      <trkpt lat="45.2904" lon="4.53149">
        <ele>733.79998779297</ele>
        <time>2026-05-11T08:41:19.000Z</time>
      </trkpt>
      <trkpt lat="45.2904" lon="4.53152">
        <ele>733.79998779297</ele>
        <time>2026-05-11T08:41:20.000Z</time>
      </trkpt>
      <trkpt lat="45.29041" lon="4.53154">
        <ele>734</ele>
        <time>2026-05-11T08:41:21.000Z</time>
      </trkpt>
      <trkpt lat="45.29042" lon="4.53156">
        <ele>734.20001220703</ele>
        <time>2026-05-11T08:41:22.000Z</time>
      </trkpt>
      <trkpt lat="45.29043" lon="4.53158">
        <ele>734.40002441406</ele>
        <time>2026-05-11T08:41:23.000Z</time>
      </trkpt>
      <trkpt lat="45.29043" lon="4.5316">
        <ele>734.59997558594</ele>
        <time>2026-05-11T08:41:24.000Z</time>
      </trkpt>
      <trkpt lat="45.29043" lon="4.53162">
        <ele>734.79998779297</ele>
        <time>2026-05-11T08:41:25.000Z</time>
      </trkpt>
      <trkpt lat="45.29044" lon="4.53164">
        <ele>735</ele>
        <time>2026-05-11T08:41:26.000Z</time>
      </trkpt>
      <trkpt lat="45.29045" lon="4.53167">
        <ele>735.20001220703</ele>
        <time>2026-05-11T08:41:27.000Z</time>
      </trkpt>
      <trkpt lat="45.29045" lon="4.53169">
        <ele>735.40002441406</ele>
        <time>2026-05-11T08:41:28.000Z</time>
      </trkpt>
      <trkpt lat="45.29046" lon="4.53171">
        <ele>735.40002441406</ele>
        <time>2026-05-11T08:41:29.000Z</time>
      </trkpt>
      <trkpt lat="45.29047" lon="4.53173">
        <ele>735.59997558594</ele>
        <time>2026-05-11T08:41:30.000Z</time>
      </trkpt>
      <trkpt lat="45.29047" lon="4.53175">
        <ele>735.79998779297</ele>
        <time>2026-05-11T08:41:31.000Z</time>
      </trkpt>
      <trkpt lat="45.29047" lon="4.53177">
        <ele>736</ele>
        <time>2026-05-11T08:41:32.000Z</time>
      </trkpt>
      <trkpt lat="45.29048" lon="4.53179">
        <ele>736.20001220703</ele>
        <time>2026-05-11T08:41:33.000Z</time>
      </trkpt>
      <trkpt lat="45.29048" lon="4.53182">
        <ele>736.40002441406</ele>
        <time>2026-05-11T08:41:34.000Z</time>
      </trkpt>
      <trkpt lat="45.29048" lon="4.53184">
        <ele>736.59997558594</ele>
        <time>2026-05-11T08:41:35.000Z</time>
      </trkpt>
      <trkpt lat="45.29049" lon="4.53186">
        <ele>736.79998779297</ele>
        <time>2026-05-11T08:41:36.000Z</time>
      </trkpt>
      <trkpt lat="45.29049" lon="4.53188">
        <ele>737</ele>
        <time>2026-05-11T08:41:37.000Z</time>
      </trkpt>
      <trkpt lat="45.2905" lon="4.5319">
        <ele>737</ele>
        <time>2026-05-11T08:41:38.000Z</time>
      </trkpt>
      <trkpt lat="45.2905" lon="4.53192">
        <ele>737.40002441406</ele>
        <time>2026-05-11T08:41:39.000Z</time>
      </trkpt>
      <trkpt lat="45.2905" lon="4.53194">
        <ele>737.59997558594</ele>
        <time>2026-05-11T08:41:40.000Z</time>
      </trkpt>
      <trkpt lat="45.29051" lon="4.53196">
        <ele>737.79998779297</ele>
        <time>2026-05-11T08:41:41.000Z</time>
      </trkpt>
      <trkpt lat="45.29051" lon="4.53198">
        <ele>737.79998779297</ele>
        <time>2026-05-11T08:41:42.000Z</time>
      </trkpt>
      <trkpt lat="45.29052" lon="4.53201">
        <ele>738</ele>
        <time>2026-05-11T08:41:43.000Z</time>
      </trkpt>
      <trkpt lat="45.29052" lon="4.53203">
        <ele>738.20001220703</ele>
        <time>2026-05-11T08:41:44.000Z</time>
      </trkpt>
      <trkpt lat="45.29052" lon="4.53204">
        <ele>738.40002441406</ele>
        <time>2026-05-11T08:41:45.000Z</time>
      </trkpt>
      <trkpt lat="45.29053" lon="4.53206">
        <ele>738.59997558594</ele>
        <time>2026-05-11T08:41:46.000Z</time>
      </trkpt>
      <trkpt lat="45.29053" lon="4.53208">
        <ele>738.79998779297</ele>
        <time>2026-05-11T08:41:47.000Z</time>
      </trkpt>
      <trkpt lat="45.29053" lon="4.5321">
        <ele>739</ele>
        <time>2026-05-11T08:41:48.000Z</time>
      </trkpt>
      <trkpt lat="45.29053" lon="4.53212">
        <ele>739.20001220703</ele>
        <time>2026-05-11T08:41:49.000Z</time>
      </trkpt>
      <trkpt lat="45.29054" lon="4.53214">
        <ele>739.40002441406</ele>
        <time>2026-05-11T08:41:50.000Z</time>
      </trkpt>
      <trkpt lat="45.29054" lon="4.53216">
        <ele>739.79998779297</ele>
        <time>2026-05-11T08:41:51.000Z</time>
      </trkpt>
      <trkpt lat="45.29054" lon="4.53218">
        <ele>740</ele>
        <time>2026-05-11T08:41:52.000Z</time>
      </trkpt>
      <trkpt lat="45.29054" lon="4.5322">
        <ele>740.20001220703</ele>
        <time>2026-05-11T08:41:53.000Z</time>
      </trkpt>
      <trkpt lat="45.29054" lon="4.53222">
        <ele>740.40002441406</ele>
        <time>2026-05-11T08:41:54.000Z</time>
      </trkpt>
      <trkpt lat="45.29054" lon="4.53224">
        <ele>740.59997558594</ele>
        <time>2026-05-11T08:41:55.000Z</time>
      </trkpt>
      <trkpt lat="45.29054" lon="4.53226">
        <ele>740.79998779297</ele>
        <time>2026-05-11T08:41:56.000Z</time>
      </trkpt>
      <trkpt lat="45.29054" lon="4.53228">
        <ele>741.20001220703</ele>
        <time>2026-05-11T08:41:57.000Z</time>
      </trkpt>
      <trkpt lat="45.29054" lon="4.5323">
        <ele>741.40002441406</ele>
        <time>2026-05-11T08:41:58.000Z</time>
      </trkpt>
      <trkpt lat="45.29055" lon="4.53232">
        <ele>741.79998779297</ele>
        <time>2026-05-11T08:41:59.000Z</time>
      </trkpt>
      <trkpt lat="45.29055" lon="4.53235">
        <ele>742</ele>
        <time>2026-05-11T08:42:00.000Z</time>
      </trkpt>
      <trkpt lat="45.29055" lon="4.53237">
        <ele>742.20001220703</ele>
        <time>2026-05-11T08:42:01.000Z</time>
      </trkpt>
      <trkpt lat="45.29056" lon="4.5324">
        <ele>742.40002441406</ele>
        <time>2026-05-11T08:42:02.000Z</time>
      </trkpt>
      <trkpt lat="45.29056" lon="4.53242">
        <ele>742.79998779297</ele>
        <time>2026-05-11T08:42:03.000Z</time>
      </trkpt>
      <trkpt lat="45.29057" lon="4.53244">
        <ele>743</ele>
        <time>2026-05-11T08:42:04.000Z</time>
      </trkpt>
      <trkpt lat="45.29057" lon="4.53246">
        <ele>743.20001220703</ele>
        <time>2026-05-11T08:42:05.000Z</time>
      </trkpt>
      <trkpt lat="45.29058" lon="4.53248">
        <ele>743.40002441406</ele>
        <time>2026-05-11T08:42:06.000Z</time>
      </trkpt>
      <trkpt lat="45.29058" lon="4.5325">
        <ele>743.40002441406</ele>
        <time>2026-05-11T08:42:07.000Z</time>
      </trkpt>
      <trkpt lat="45.29058" lon="4.53252">
        <ele>743.59997558594</ele>
        <time>2026-05-11T08:42:08.000Z</time>
      </trkpt>
      <trkpt lat="45.29059" lon="4.53254">
        <ele>743.79998779297</ele>
        <time>2026-05-11T08:42:09.000Z</time>
      </trkpt>
      <trkpt lat="45.29059" lon="4.53257">
        <ele>744</ele>
        <time>2026-05-11T08:42:10.000Z</time>
      </trkpt>
      <trkpt lat="45.2906" lon="4.53259">
        <ele>744</ele>
        <time>2026-05-11T08:42:11.000Z</time>
      </trkpt>
      <trkpt lat="45.2906" lon="4.53261">
        <ele>744.20001220703</ele>
        <time>2026-05-11T08:42:12.000Z</time>
      </trkpt>
      <trkpt lat="45.2906" lon="4.53264">
        <ele>744.20001220703</ele>
        <time>2026-05-11T08:42:13.000Z</time>
      </trkpt>
      <trkpt lat="45.2906" lon="4.53266">
        <ele>744.40002441406</ele>
        <time>2026-05-11T08:42:14.000Z</time>
      </trkpt>
      <trkpt lat="45.29061" lon="4.53268">
        <ele>744.59997558594</ele>
        <time>2026-05-11T08:42:15.000Z</time>
      </trkpt>
      <trkpt lat="45.29061" lon="4.53271">
        <ele>744.59997558594</ele>
        <time>2026-05-11T08:42:16.000Z</time>
      </trkpt>
      <trkpt lat="45.29062" lon="4.53273">
        <ele>744.79998779297</ele>
        <time>2026-05-11T08:42:17.000Z</time>
      </trkpt>
      <trkpt lat="45.29062" lon="4.53274">
        <ele>745</ele>
        <time>2026-05-11T08:42:18.000Z</time>
      </trkpt>
      <trkpt lat="45.29062" lon="4.53277">
        <ele>745.20001220703</ele>
        <time>2026-05-11T08:42:19.000Z</time>
      </trkpt>
      <trkpt lat="45.29062" lon="4.53279">
        <ele>745.40002441406</ele>
        <time>2026-05-11T08:42:20.000Z</time>
      </trkpt>
      <trkpt lat="45.29063" lon="4.53281">
        <ele>745.59997558594</ele>
        <time>2026-05-11T08:42:21.000Z</time>
      </trkpt>
      <trkpt lat="45.29063" lon="4.53283">
        <ele>745.79998779297</ele>
        <time>2026-05-11T08:42:22.000Z</time>
      </trkpt>
      <trkpt lat="45.29063" lon="4.53285">
        <ele>746</ele>
        <time>2026-05-11T08:42:23.000Z</time>
      </trkpt>
      <trkpt lat="45.29063" lon="4.53287">
        <ele>746.20001220703</ele>
        <time>2026-05-11T08:42:24.000Z</time>
      </trkpt>
      <trkpt lat="45.29064" lon="4.53289">
        <ele>746.40002441406</ele>
        <time>2026-05-11T08:42:25.000Z</time>
      </trkpt>
      <trkpt lat="45.29064" lon="4.53291">
        <ele>746.59997558594</ele>
        <time>2026-05-11T08:42:26.000Z</time>
      </trkpt>
      <trkpt lat="45.29065" lon="4.53294">
        <ele>747</ele>
        <time>2026-05-11T08:42:27.000Z</time>
      </trkpt>
      <trkpt lat="45.29065" lon="4.53296">
        <ele>747</ele>
        <time>2026-05-11T08:42:28.000Z</time>
      </trkpt>
      <trkpt lat="45.29065" lon="4.53298">
        <ele>747.20001220703</ele>
        <time>2026-05-11T08:42:29.000Z</time>
      </trkpt>
      <trkpt lat="45.29066" lon="4.533">
        <ele>747.40002441406</ele>
        <time>2026-05-11T08:42:30.000Z</time>
      </trkpt>
      <trkpt lat="45.29066" lon="4.53302">
        <ele>747.59997558594</ele>
        <time>2026-05-11T08:42:31.000Z</time>
      </trkpt>
      <trkpt lat="45.29066" lon="4.53303">
        <ele>748</ele>
        <time>2026-05-11T08:42:32.000Z</time>
      </trkpt>
      <trkpt lat="45.29067" lon="4.53305">
        <ele>748.20001220703</ele>
        <time>2026-05-11T08:42:33.000Z</time>
      </trkpt>
      <trkpt lat="45.29067" lon="4.53308">
        <ele>748.40002441406</ele>
        <time>2026-05-11T08:42:34.000Z</time>
      </trkpt>
      <trkpt lat="45.29068" lon="4.5331">
        <ele>748.59997558594</ele>
        <time>2026-05-11T08:42:35.000Z</time>
      </trkpt>
      <trkpt lat="45.29068" lon="4.53312">
        <ele>748.79998779297</ele>
        <time>2026-05-11T08:42:36.000Z</time>
      </trkpt>
      <trkpt lat="45.29068" lon="4.53314">
        <ele>749</ele>
        <time>2026-05-11T08:42:37.000Z</time>
      </trkpt>
      <trkpt lat="45.29069" lon="4.53316">
        <ele>749.20001220703</ele>
        <time>2026-05-11T08:42:38.000Z</time>
      </trkpt>
      <trkpt lat="45.29069" lon="4.53319">
        <ele>749.40002441406</ele>
        <time>2026-05-11T08:42:39.000Z</time>
      </trkpt>
      <trkpt lat="45.29069" lon="4.53321">
        <ele>749.59997558594</ele>
        <time>2026-05-11T08:42:40.000Z</time>
      </trkpt>
      <trkpt lat="45.29069" lon="4.53323">
        <ele>749.79998779297</ele>
        <time>2026-05-11T08:42:41.000Z</time>
      </trkpt>
      <trkpt lat="45.2907" lon="4.53325">
        <ele>750</ele>
        <time>2026-05-11T08:42:42.000Z</time>
      </trkpt>
      <trkpt lat="45.2907" lon="4.53327">
        <ele>750.20001220703</ele>
        <time>2026-05-11T08:42:43.000Z</time>
      </trkpt>
      <trkpt lat="45.2907" lon="4.53329">
        <ele>750.40002441406</ele>
        <time>2026-05-11T08:42:44.000Z</time>
      </trkpt>
      <trkpt lat="45.2907" lon="4.53332">
        <ele>750.59997558594</ele>
        <time>2026-05-11T08:42:45.000Z</time>
      </trkpt>
      <trkpt lat="45.29071" lon="4.53334">
        <ele>750.79998779297</ele>
        <time>2026-05-11T08:42:46.000Z</time>
      </trkpt>
      <trkpt lat="45.29071" lon="4.53335">
        <ele>751</ele>
        <time>2026-05-11T08:42:47.000Z</time>
      </trkpt>
      <trkpt lat="45.29072" lon="4.53338">
        <ele>751.20001220703</ele>
        <time>2026-05-11T08:42:48.000Z</time>
      </trkpt>
      <trkpt lat="45.29072" lon="4.5334">
        <ele>751.40002441406</ele>
        <time>2026-05-11T08:42:49.000Z</time>
      </trkpt>
      <trkpt lat="45.29073" lon="4.53342">
        <ele>751.59997558594</ele>
        <time>2026-05-11T08:42:50.000Z</time>
      </trkpt>
      <trkpt lat="45.29073" lon="4.53343">
        <ele>751.79998779297</ele>
        <time>2026-05-11T08:42:51.000Z</time>
      </trkpt>
      <trkpt lat="45.29074" lon="4.53345">
        <ele>752</ele>
        <time>2026-05-11T08:42:52.000Z</time>
      </trkpt>
      <trkpt lat="45.29074" lon="4.53347">
        <ele>752.20001220703</ele>
        <time>2026-05-11T08:42:53.000Z</time>
      </trkpt>
      <trkpt lat="45.29075" lon="4.53349">
        <ele>752.20001220703</ele>
        <time>2026-05-11T08:42:54.000Z</time>
      </trkpt>
      <trkpt lat="45.29075" lon="4.53351">
        <ele>752.40002441406</ele>
        <time>2026-05-11T08:42:55.000Z</time>
      </trkpt>
      <trkpt lat="45.29076" lon="4.53353">
        <ele>752.59997558594</ele>
        <time>2026-05-11T08:42:56.000Z</time>
      </trkpt>
      <trkpt lat="45.29076" lon="4.53354">
        <ele>752.79998779297</ele>
        <time>2026-05-11T08:42:57.000Z</time>
      </trkpt>
      <trkpt lat="45.29077" lon="4.53356">
        <ele>753</ele>
        <time>2026-05-11T08:42:58.000Z</time>
      </trkpt>
      <trkpt lat="45.29077" lon="4.53359">
        <ele>753</ele>
        <time>2026-05-11T08:42:59.000Z</time>
      </trkpt>
      <trkpt lat="45.29078" lon="4.53361">
        <ele>753.20001220703</ele>
        <time>2026-05-11T08:43:00.000Z</time>
      </trkpt>
      <trkpt lat="45.29078" lon="4.53364">
        <ele>753.40002441406</ele>
        <time>2026-05-11T08:43:01.000Z</time>
      </trkpt>
      <trkpt lat="45.29078" lon="4.53365">
        <ele>753.59997558594</ele>
        <time>2026-05-11T08:43:02.000Z</time>
      </trkpt>
      <trkpt lat="45.29078" lon="4.53368">
        <ele>754</ele>
        <time>2026-05-11T08:43:03.000Z</time>
      </trkpt>
      <trkpt lat="45.29078" lon="4.5337">
        <ele>754.20001220703</ele>
        <time>2026-05-11T08:43:04.000Z</time>
      </trkpt>
      <trkpt lat="45.29078" lon="4.53372">
        <ele>754.40002441406</ele>
        <time>2026-05-11T08:43:05.000Z</time>
      </trkpt>
      <trkpt lat="45.29079" lon="4.53374">
        <ele>754.59997558594</ele>
        <time>2026-05-11T08:43:06.000Z</time>
      </trkpt>
      <trkpt lat="45.2908" lon="4.53376">
        <ele>754.79998779297</ele>
        <time>2026-05-11T08:43:07.000Z</time>
      </trkpt>
      <trkpt lat="45.2908" lon="4.53378">
        <ele>755.20001220703</ele>
        <time>2026-05-11T08:43:08.000Z</time>
      </trkpt>
      <trkpt lat="45.29081" lon="4.5338">
        <ele>755.40002441406</ele>
        <time>2026-05-11T08:43:09.000Z</time>
      </trkpt>
      <trkpt lat="45.29082" lon="4.53383">
        <ele>755.59997558594</ele>
        <time>2026-05-11T08:43:10.000Z</time>
      </trkpt>
      <trkpt lat="45.29082" lon="4.53386">
        <ele>755.79998779297</ele>
        <time>2026-05-11T08:43:11.000Z</time>
      </trkpt>
      <trkpt lat="45.29083" lon="4.53388">
        <ele>756.20001220703</ele>
        <time>2026-05-11T08:43:12.000Z</time>
      </trkpt>
      <trkpt lat="45.29084" lon="4.53391">
        <ele>756.40002441406</ele>
        <time>2026-05-11T08:43:13.000Z</time>
      </trkpt>
      <trkpt lat="45.29084" lon="4.53393">
        <ele>756.79998779297</ele>
        <time>2026-05-11T08:43:14.000Z</time>
      </trkpt>
      <trkpt lat="45.29085" lon="4.53395">
        <ele>757</ele>
        <time>2026-05-11T08:43:15.000Z</time>
      </trkpt>
      <trkpt lat="45.29086" lon="4.53397">
        <ele>757.40002441406</ele>
        <time>2026-05-11T08:43:16.000Z</time>
      </trkpt>
      <trkpt lat="45.29087" lon="4.53399">
        <ele>757.79998779297</ele>
        <time>2026-05-11T08:43:17.000Z</time>
      </trkpt>
      <trkpt lat="45.29087" lon="4.53401">
        <ele>758.20001220703</ele>
        <time>2026-05-11T08:43:18.000Z</time>
      </trkpt>
      <trkpt lat="45.29088" lon="4.53403">
        <ele>758.59997558594</ele>
        <time>2026-05-11T08:43:19.000Z</time>
      </trkpt>
      <trkpt lat="45.29088" lon="4.53405">
        <ele>758.79998779297</ele>
        <time>2026-05-11T08:43:20.000Z</time>
      </trkpt>
      <trkpt lat="45.29089" lon="4.53407">
        <ele>759.20001220703</ele>
        <time>2026-05-11T08:43:21.000Z</time>
      </trkpt>
      <trkpt lat="45.29089" lon="4.5341">
        <ele>759.59997558594</ele>
        <time>2026-05-11T08:43:22.000Z</time>
      </trkpt>
      <trkpt lat="45.2909" lon="4.53412">
        <ele>760</ele>
        <time>2026-05-11T08:43:23.000Z</time>
      </trkpt>
      <trkpt lat="45.29091" lon="4.53414">
        <ele>760.40002441406</ele>
        <time>2026-05-11T08:43:24.000Z</time>
      </trkpt>
      <trkpt lat="45.29092" lon="4.53417">
        <ele>760.79998779297</ele>
        <time>2026-05-11T08:43:25.000Z</time>
      </trkpt>
      <trkpt lat="45.29092" lon="4.53419">
        <ele>761.20001220703</ele>
        <time>2026-05-11T08:43:26.000Z</time>
      </trkpt>
      <trkpt lat="45.29093" lon="4.53421">
        <ele>761.59997558594</ele>
        <time>2026-05-11T08:43:27.000Z</time>
      </trkpt>
      <trkpt lat="45.29094" lon="4.53424">
        <ele>762</ele>
        <time>2026-05-11T08:43:28.000Z</time>
      </trkpt>
      <trkpt lat="45.29095" lon="4.53425">
        <ele>762.40002441406</ele>
        <time>2026-05-11T08:43:29.000Z</time>
      </trkpt>
      <trkpt lat="45.29097" lon="4.53425">
        <ele>763</ele>
        <time>2026-05-11T08:43:30.000Z</time>
      </trkpt>
      <trkpt lat="45.29098" lon="4.53424">
        <ele>763.40002441406</ele>
        <time>2026-05-11T08:43:31.000Z</time>
      </trkpt>
      <trkpt lat="45.29098" lon="4.53422">
        <ele>763.59997558594</ele>
        <time>2026-05-11T08:43:32.000Z</time>
      </trkpt>
      <trkpt lat="45.29099" lon="4.5342">
        <ele>764</ele>
        <time>2026-05-11T08:43:33.000Z</time>
      </trkpt>
      <trkpt lat="45.291" lon="4.53418">
        <ele>764.20001220703</ele>
        <time>2026-05-11T08:43:34.000Z</time>
      </trkpt>
      <trkpt lat="45.29101" lon="4.53416">
        <ele>764.40002441406</ele>
        <time>2026-05-11T08:43:35.000Z</time>
      </trkpt>
      <trkpt lat="45.29102" lon="4.53416">
        <ele>764.79998779297</ele>
        <time>2026-05-11T08:43:36.000Z</time>
      </trkpt>
      <trkpt lat="45.29102" lon="4.53416">
        <ele>765</ele>
        <time>2026-05-11T08:43:37.000Z</time>
      </trkpt>
      <trkpt lat="45.29107" lon="4.53402">
        <ele>765.59997558594</ele>
        <time>2026-05-11T08:50:34.000Z</time>
      </trkpt>
      <trkpt lat="45.29109" lon="4.53402">
        <ele>765.79998779297</ele>
        <time>2026-05-11T08:50:35.000Z</time>
      </trkpt>
      <trkpt lat="45.29111" lon="4.53401">
        <ele>765.79998779297</ele>
        <time>2026-05-11T08:50:36.000Z</time>
      </trkpt>
      <trkpt lat="45.29112" lon="4.534">
        <ele>765.59997558594</ele>
        <time>2026-05-11T08:50:37.000Z</time>
      </trkpt>
      <trkpt lat="45.29114" lon="4.53399">
        <ele>765.59997558594</ele>
        <time>2026-05-11T08:50:38.000Z</time>
      </trkpt>
      <trkpt lat="45.29115" lon="4.53397">
        <ele>765.59997558594</ele>
        <time>2026-05-11T08:50:39.000Z</time>
      </trkpt>
      <trkpt lat="45.29116" lon="4.53396">
        <ele>765.79998779297</ele>
        <time>2026-05-11T08:50:40.000Z</time>
      </trkpt>
      <trkpt lat="45.29117" lon="4.53395">
        <ele>765.79998779297</ele>
        <time>2026-05-11T08:50:41.000Z</time>
      </trkpt>
      <trkpt lat="45.29117" lon="4.53393">
        <ele>766</ele>
        <time>2026-05-11T08:50:42.000Z</time>
      </trkpt>
      <trkpt lat="45.29118" lon="4.53392">
        <ele>766.20001220703</ele>
        <time>2026-05-11T08:50:43.000Z</time>
      </trkpt>
      <trkpt lat="45.29119" lon="4.5339">
        <ele>766.40002441406</ele>
        <time>2026-05-11T08:50:44.000Z</time>
      </trkpt>
      <trkpt lat="45.29119" lon="4.53389">
        <ele>766.59997558594</ele>
        <time>2026-05-11T08:50:45.000Z</time>
      </trkpt>
      <trkpt lat="45.2912" lon="4.53388">
        <ele>766.79998779297</ele>
        <time>2026-05-11T08:50:46.000Z</time>
      </trkpt>
      <trkpt lat="45.29121" lon="4.53387">
        <ele>767.20001220703</ele>
        <time>2026-05-11T08:50:47.000Z</time>
      </trkpt>
      <trkpt lat="45.29123" lon="4.53386">
        <ele>767.40002441406</ele>
        <time>2026-05-11T08:50:48.000Z</time>
      </trkpt>
      <trkpt lat="45.29124" lon="4.53385">
        <ele>767.59997558594</ele>
        <time>2026-05-11T08:50:49.000Z</time>
      </trkpt>
      <trkpt lat="45.29125" lon="4.53384">
        <ele>768</ele>
        <time>2026-05-11T08:50:50.000Z</time>
      </trkpt>
      <trkpt lat="45.29126" lon="4.53383">
        <ele>768.20001220703</ele>
        <time>2026-05-11T08:50:51.000Z</time>
      </trkpt>
      <trkpt lat="45.29126" lon="4.5338">
        <ele>768.59997558594</ele>
        <time>2026-05-11T08:50:52.000Z</time>
      </trkpt>
      <trkpt lat="45.29127" lon="4.53378">
        <ele>768.79998779297</ele>
        <time>2026-05-11T08:50:53.000Z</time>
      </trkpt>
      <trkpt lat="45.29129" lon="4.53377">
        <ele>769.20001220703</ele>
        <time>2026-05-11T08:50:54.000Z</time>
      </trkpt>
      <trkpt lat="45.2913" lon="4.53376">
        <ele>769.40002441406</ele>
        <time>2026-05-11T08:50:55.000Z</time>
      </trkpt>
      <trkpt lat="45.29131" lon="4.53375">
        <ele>769.59997558594</ele>
        <time>2026-05-11T08:50:56.000Z</time>
      </trkpt>
      <trkpt lat="45.29132" lon="4.53374">
        <ele>770</ele>
        <time>2026-05-11T08:50:57.000Z</time>
      </trkpt>
      <trkpt lat="45.29133" lon="4.53373">
        <ele>770.20001220703</ele>
        <time>2026-05-11T08:50:58.000Z</time>
      </trkpt>
      <trkpt lat="45.29134" lon="4.53372">
        <ele>770.40002441406</ele>
        <time>2026-05-11T08:50:59.000Z</time>
      </trkpt>
      <trkpt lat="45.29135" lon="4.53371">
        <ele>770.79998779297</ele>
        <time>2026-05-11T08:51:00.000Z</time>
      </trkpt>
      <trkpt lat="45.29136" lon="4.5337">
        <ele>771</ele>
        <time>2026-05-11T08:51:01.000Z</time>
      </trkpt>
      <trkpt lat="45.29138" lon="4.53368">
        <ele>771.20001220703</ele>
        <time>2026-05-11T08:51:02.000Z</time>
      </trkpt>
      <trkpt lat="45.29139" lon="4.53367">
        <ele>771.59997558594</ele>
        <time>2026-05-11T08:51:03.000Z</time>
      </trkpt>
      <trkpt lat="45.2914" lon="4.53365">
        <ele>771.79998779297</ele>
        <time>2026-05-11T08:51:04.000Z</time>
      </trkpt>
      <trkpt lat="45.29141" lon="4.53364">
        <ele>772</ele>
        <time>2026-05-11T08:51:05.000Z</time>
      </trkpt>
      <trkpt lat="45.29143" lon="4.53362">
        <ele>772.20001220703</ele>
        <time>2026-05-11T08:51:06.000Z</time>
      </trkpt>
      <trkpt lat="45.29144" lon="4.53361">
        <ele>772.20001220703</ele>
        <time>2026-05-11T08:51:07.000Z</time>
      </trkpt>
      <trkpt lat="45.29146" lon="4.5336">
        <ele>772.40002441406</ele>
        <time>2026-05-11T08:51:08.000Z</time>
      </trkpt>
      <trkpt lat="45.29147" lon="4.53359">
        <ele>772.79998779297</ele>
        <time>2026-05-11T08:51:09.000Z</time>
      </trkpt>
      <trkpt lat="45.29148" lon="4.53357">
        <ele>772.79998779297</ele>
        <time>2026-05-11T08:51:10.000Z</time>
      </trkpt>
      <trkpt lat="45.29149" lon="4.53356">
        <ele>773</ele>
        <time>2026-05-11T08:51:11.000Z</time>
      </trkpt>
      <trkpt lat="45.29151" lon="4.53354">
        <ele>773.20001220703</ele>
        <time>2026-05-11T08:51:12.000Z</time>
      </trkpt>
      <trkpt lat="45.29152" lon="4.53353">
        <ele>773.59997558594</ele>
        <time>2026-05-11T08:51:13.000Z</time>
      </trkpt>
      <trkpt lat="45.29153" lon="4.53351">
        <ele>773.79998779297</ele>
        <time>2026-05-11T08:51:14.000Z</time>
      </trkpt>
      <trkpt lat="45.29154" lon="4.53349">
        <ele>774</ele>
        <time>2026-05-11T08:51:15.000Z</time>
      </trkpt>
      <trkpt lat="45.29155" lon="4.53347">
        <ele>774.20001220703</ele>
        <time>2026-05-11T08:51:16.000Z</time>
      </trkpt>
      <trkpt lat="45.29156" lon="4.53345">
        <ele>774.20001220703</ele>
        <time>2026-05-11T08:51:17.000Z</time>
      </trkpt>
      <trkpt lat="45.29157" lon="4.53343">
        <ele>774.40002441406</ele>
        <time>2026-05-11T08:51:18.000Z</time>
      </trkpt>
      <trkpt lat="45.29158" lon="4.53342">
        <ele>774.59997558594</ele>
        <time>2026-05-11T08:51:19.000Z</time>
      </trkpt>
      <trkpt lat="45.29159" lon="4.5334">
        <ele>774.79998779297</ele>
        <time>2026-05-11T08:51:20.000Z</time>
      </trkpt>
      <trkpt lat="45.29159" lon="4.53339">
        <ele>775.20001220703</ele>
        <time>2026-05-11T08:51:21.000Z</time>
      </trkpt>
      <trkpt lat="45.2916" lon="4.53337">
        <ele>775.40002441406</ele>
        <time>2026-05-11T08:51:22.000Z</time>
      </trkpt>
      <trkpt lat="45.29161" lon="4.53335">
        <ele>775.59997558594</ele>
        <time>2026-05-11T08:51:23.000Z</time>
      </trkpt>
      <trkpt lat="45.29161" lon="4.53333">
        <ele>775.79998779297</ele>
        <time>2026-05-11T08:51:24.000Z</time>
      </trkpt>
      <trkpt lat="45.29162" lon="4.53331">
        <ele>776</ele>
        <time>2026-05-11T08:51:25.000Z</time>
      </trkpt>
      <trkpt lat="45.29163" lon="4.53329">
        <ele>776.20001220703</ele>
        <time>2026-05-11T08:51:26.000Z</time>
      </trkpt>
      <trkpt lat="45.29164" lon="4.53327">
        <ele>776.40002441406</ele>
        <time>2026-05-11T08:51:27.000Z</time>
      </trkpt>
      <trkpt lat="45.29164" lon="4.53325">
        <ele>776.59997558594</ele>
        <time>2026-05-11T08:51:28.000Z</time>
      </trkpt>
      <trkpt lat="45.29165" lon="4.53323">
        <ele>776.79998779297</ele>
        <time>2026-05-11T08:51:29.000Z</time>
      </trkpt>
      <trkpt lat="45.29165" lon="4.5332">
        <ele>777</ele>
        <time>2026-05-11T08:51:30.000Z</time>
      </trkpt>
      <trkpt lat="45.29165" lon="4.53318">
        <ele>777</ele>
        <time>2026-05-11T08:51:31.000Z</time>
      </trkpt>
      <trkpt lat="45.29165" lon="4.53316">
        <ele>777.20001220703</ele>
        <time>2026-05-11T08:51:32.000Z</time>
      </trkpt>
      <trkpt lat="45.29166" lon="4.53313">
        <ele>777.40002441406</ele>
        <time>2026-05-11T08:51:33.000Z</time>
      </trkpt>
      <trkpt lat="45.29166" lon="4.53311">
        <ele>777.59997558594</ele>
        <time>2026-05-11T08:51:34.000Z</time>
      </trkpt>
      <trkpt lat="45.29166" lon="4.53309">
        <ele>777.79998779297</ele>
        <time>2026-05-11T08:51:35.000Z</time>
      </trkpt>
      <trkpt lat="45.29166" lon="4.53307">
        <ele>778</ele>
        <time>2026-05-11T08:51:36.000Z</time>
      </trkpt>
      <trkpt lat="45.29167" lon="4.53305">
        <ele>778.20001220703</ele>
        <time>2026-05-11T08:51:37.000Z</time>
      </trkpt>
      <trkpt lat="45.29167" lon="4.53303">
        <ele>778.40002441406</ele>
        <time>2026-05-11T08:51:38.000Z</time>
      </trkpt>
      <trkpt lat="45.29167" lon="4.53301">
        <ele>778.59997558594</ele>
        <time>2026-05-11T08:51:39.000Z</time>
      </trkpt>
      <trkpt lat="45.29168" lon="4.53298">
        <ele>778.79998779297</ele>
        <time>2026-05-11T08:51:40.000Z</time>
      </trkpt>
      <trkpt lat="45.29168" lon="4.53297">
        <ele>779</ele>
        <time>2026-05-11T08:51:41.000Z</time>
      </trkpt>
      <trkpt lat="45.29169" lon="4.53295">
        <ele>779.20001220703</ele>
        <time>2026-05-11T08:51:42.000Z</time>
      </trkpt>
      <trkpt lat="45.29169" lon="4.53292">
        <ele>779.40002441406</ele>
        <time>2026-05-11T08:51:43.000Z</time>
      </trkpt>
      <trkpt lat="45.2917" lon="4.5329">
        <ele>779.79998779297</ele>
        <time>2026-05-11T08:51:44.000Z</time>
      </trkpt>
      <trkpt lat="45.2917" lon="4.53288">
        <ele>780</ele>
        <time>2026-05-11T08:51:45.000Z</time>
      </trkpt>
      <trkpt lat="45.2917" lon="4.53285">
        <ele>780.20001220703</ele>
        <time>2026-05-11T08:51:46.000Z</time>
      </trkpt>
      <trkpt lat="45.2917" lon="4.53283">
        <ele>780.40002441406</ele>
        <time>2026-05-11T08:51:47.000Z</time>
      </trkpt>
      <trkpt lat="45.2917" lon="4.53282">
        <ele>780.79998779297</ele>
        <time>2026-05-11T08:51:48.000Z</time>
      </trkpt>
      <trkpt lat="45.29171" lon="4.5328">
        <ele>781</ele>
        <time>2026-05-11T08:51:49.000Z</time>
      </trkpt>
      <trkpt lat="45.29171" lon="4.53278">
        <ele>781.20001220703</ele>
        <time>2026-05-11T08:51:50.000Z</time>
      </trkpt>
      <trkpt lat="45.29171" lon="4.53275">
        <ele>781.59997558594</ele>
        <time>2026-05-11T08:51:51.000Z</time>
      </trkpt>
      <trkpt lat="45.29171" lon="4.53272">
        <ele>781.79998779297</ele>
        <time>2026-05-11T08:51:52.000Z</time>
      </trkpt>
      <trkpt lat="45.29171" lon="4.5327">
        <ele>782</ele>
        <time>2026-05-11T08:51:53.000Z</time>
      </trkpt>
      <trkpt lat="45.29171" lon="4.53268">
        <ele>782.40002441406</ele>
        <time>2026-05-11T08:51:54.000Z</time>
      </trkpt>
      <trkpt lat="45.29172" lon="4.53266">
        <ele>782.59997558594</ele>
        <time>2026-05-11T08:51:55.000Z</time>
      </trkpt>
      <trkpt lat="45.29172" lon="4.53264">
        <ele>783</ele>
        <time>2026-05-11T08:51:56.000Z</time>
      </trkpt>
      <trkpt lat="45.29172" lon="4.53262">
        <ele>783.20001220703</ele>
        <time>2026-05-11T08:51:57.000Z</time>
      </trkpt>
      <trkpt lat="45.29173" lon="4.5326">
        <ele>783.40002441406</ele>
        <time>2026-05-11T08:51:58.000Z</time>
      </trkpt>
      <trkpt lat="45.29173" lon="4.53258">
        <ele>783.59997558594</ele>
        <time>2026-05-11T08:51:59.000Z</time>
      </trkpt>
      <trkpt lat="45.29173" lon="4.53256">
        <ele>784</ele>
        <time>2026-05-11T08:52:00.000Z</time>
      </trkpt>
      <trkpt lat="45.29174" lon="4.53254">
        <ele>784.20001220703</ele>
        <time>2026-05-11T08:52:01.000Z</time>
      </trkpt>
      <trkpt lat="45.29174" lon="4.53252">
        <ele>784.59997558594</ele>
        <time>2026-05-11T08:52:02.000Z</time>
      </trkpt>
      <trkpt lat="45.29174" lon="4.53249">
        <ele>784.79998779297</ele>
        <time>2026-05-11T08:52:03.000Z</time>
      </trkpt>
      <trkpt lat="45.29174" lon="4.53247">
        <ele>785</ele>
        <time>2026-05-11T08:52:04.000Z</time>
      </trkpt>
      <trkpt lat="45.29174" lon="4.53245">
        <ele>785.40002441406</ele>
        <time>2026-05-11T08:52:05.000Z</time>
      </trkpt>
      <trkpt lat="45.29174" lon="4.53243">
        <ele>785.59997558594</ele>
        <time>2026-05-11T08:52:06.000Z</time>
      </trkpt>
      <trkpt lat="45.29174" lon="4.53242">
        <ele>785.79998779297</ele>
        <time>2026-05-11T08:52:07.000Z</time>
      </trkpt>
      <trkpt lat="45.29174" lon="4.5324">
        <ele>786.20001220703</ele>
        <time>2026-05-11T08:52:08.000Z</time>
      </trkpt>
      <trkpt lat="45.29175" lon="4.53238">
        <ele>786.40002441406</ele>
        <time>2026-05-11T08:52:09.000Z</time>
      </trkpt>
      <trkpt lat="45.29175" lon="4.53236">
        <ele>786.59997558594</ele>
        <time>2026-05-11T08:52:10.000Z</time>
      </trkpt>
      <trkpt lat="45.29175" lon="4.53234">
        <ele>787</ele>
        <time>2026-05-11T08:52:11.000Z</time>
      </trkpt>
      <trkpt lat="45.29176" lon="4.53232">
        <ele>787.20001220703</ele>
        <time>2026-05-11T08:52:12.000Z</time>
      </trkpt>
      <trkpt lat="45.29176" lon="4.5323">
        <ele>787.40002441406</ele>
        <time>2026-05-11T08:52:13.000Z</time>
      </trkpt>
      <trkpt lat="45.29176" lon="4.53228">
        <ele>787.79998779297</ele>
        <time>2026-05-11T08:52:14.000Z</time>
      </trkpt>
      <trkpt lat="45.29177" lon="4.53226">
        <ele>788</ele>
        <time>2026-05-11T08:52:15.000Z</time>
      </trkpt>
      <trkpt lat="45.29177" lon="4.53224">
        <ele>788.20001220703</ele>
        <time>2026-05-11T08:52:16.000Z</time>
      </trkpt>
      <trkpt lat="45.29178" lon="4.53223">
        <ele>788.59997558594</ele>
        <time>2026-05-11T08:52:17.000Z</time>
      </trkpt>
      <trkpt lat="45.29178" lon="4.53221">
        <ele>789</ele>
        <time>2026-05-11T08:52:18.000Z</time>
      </trkpt>
      <trkpt lat="45.29178" lon="4.53219">
        <ele>789.40002441406</ele>
        <time>2026-05-11T08:52:19.000Z</time>
      </trkpt>
      <trkpt lat="45.29178" lon="4.53217">
        <ele>789.79998779297</ele>
        <time>2026-05-11T08:52:20.000Z</time>
      </trkpt>
      <trkpt lat="45.29178" lon="4.53215">
        <ele>790</ele>
        <time>2026-05-11T08:52:21.000Z</time>
      </trkpt>
      <trkpt lat="45.29179" lon="4.53213">
        <ele>790.40002441406</ele>
        <time>2026-05-11T08:52:22.000Z</time>
      </trkpt>
      <trkpt lat="45.29179" lon="4.53212">
        <ele>790.59997558594</ele>
        <time>2026-05-11T08:52:23.000Z</time>
      </trkpt>
      <trkpt lat="45.2918" lon="4.5321">
        <ele>790.79998779297</ele>
        <time>2026-05-11T08:52:24.000Z</time>
      </trkpt>
      <trkpt lat="45.2918" lon="4.53208">
        <ele>791.20001220703</ele>
        <time>2026-05-11T08:52:25.000Z</time>
      </trkpt>
      <trkpt lat="45.29181" lon="4.53207">
        <ele>791.59997558594</ele>
        <time>2026-05-11T08:52:26.000Z</time>
      </trkpt>
      <trkpt lat="45.29181" lon="4.53205">
        <ele>791.79998779297</ele>
        <time>2026-05-11T08:52:27.000Z</time>
      </trkpt>
      <trkpt lat="45.29182" lon="4.53203">
        <ele>792</ele>
        <time>2026-05-11T08:52:28.000Z</time>
      </trkpt>
      <trkpt lat="45.29182" lon="4.53201">
        <ele>792.20001220703</ele>
        <time>2026-05-11T08:52:29.000Z</time>
      </trkpt>
      <trkpt lat="45.29183" lon="4.53199">
        <ele>792.40002441406</ele>
        <time>2026-05-11T08:52:30.000Z</time>
      </trkpt>
      <trkpt lat="45.29183" lon="4.53198">
        <ele>792.79998779297</ele>
        <time>2026-05-11T08:52:31.000Z</time>
      </trkpt>
      <trkpt lat="45.29183" lon="4.53196">
        <ele>793</ele>
        <time>2026-05-11T08:52:32.000Z</time>
      </trkpt>
      <trkpt lat="45.29184" lon="4.53194">
        <ele>793.20001220703</ele>
        <time>2026-05-11T08:52:33.000Z</time>
      </trkpt>
      <trkpt lat="45.29184" lon="4.53192">
        <ele>793.40002441406</ele>
        <time>2026-05-11T08:52:34.000Z</time>
      </trkpt>
      <trkpt lat="45.29185" lon="4.53191">
        <ele>793.59997558594</ele>
        <time>2026-05-11T08:52:35.000Z</time>
      </trkpt>
      <trkpt lat="45.29186" lon="4.53189">
        <ele>794</ele>
        <time>2026-05-11T08:52:36.000Z</time>
      </trkpt>
      <trkpt lat="45.29186" lon="4.53188">
        <ele>794.20001220703</ele>
        <time>2026-05-11T08:52:37.000Z</time>
      </trkpt>
      <trkpt lat="45.29186" lon="4.53186">
        <ele>794.59997558594</ele>
        <time>2026-05-11T08:52:38.000Z</time>
      </trkpt>
      <trkpt lat="45.29187" lon="4.53185">
        <ele>794.79998779297</ele>
        <time>2026-05-11T08:52:39.000Z</time>
      </trkpt>
      <trkpt lat="45.29187" lon="4.53183">
        <ele>795.20001220703</ele>
        <time>2026-05-11T08:52:40.000Z</time>
      </trkpt>
      <trkpt lat="45.29188" lon="4.53181">
        <ele>795.40002441406</ele>
        <time>2026-05-11T08:52:41.000Z</time>
      </trkpt>
      <trkpt lat="45.29189" lon="4.5318">
        <ele>795.59997558594</ele>
        <time>2026-05-11T08:52:42.000Z</time>
      </trkpt>
      <trkpt lat="45.2919" lon="4.53178">
        <ele>796</ele>
        <time>2026-05-11T08:52:43.000Z</time>
      </trkpt>
      <trkpt lat="45.29191" lon="4.53177">
        <ele>796.20001220703</ele>
        <time>2026-05-11T08:52:44.000Z</time>
      </trkpt>
      <trkpt lat="45.29192" lon="4.53175">
        <ele>796.59997558594</ele>
        <time>2026-05-11T08:52:45.000Z</time>
      </trkpt>
      <trkpt lat="45.29192" lon="4.53173">
        <ele>796.79998779297</ele>
        <time>2026-05-11T08:52:46.000Z</time>
      </trkpt>
      <trkpt lat="45.29193" lon="4.53171">
        <ele>797</ele>
        <time>2026-05-11T08:52:47.000Z</time>
      </trkpt>
      <trkpt lat="45.29194" lon="4.5317">
        <ele>797.20001220703</ele>
        <time>2026-05-11T08:52:48.000Z</time>
      </trkpt>
      <trkpt lat="45.29195" lon="4.53168">
        <ele>797.59997558594</ele>
        <time>2026-05-11T08:52:49.000Z</time>
      </trkpt>
      <trkpt lat="45.29196" lon="4.53166">
        <ele>797.79998779297</ele>
        <time>2026-05-11T08:52:50.000Z</time>
      </trkpt>
      <trkpt lat="45.29197" lon="4.53165">
        <ele>798</ele>
        <time>2026-05-11T08:52:51.000Z</time>
      </trkpt>
      <trkpt lat="45.29197" lon="4.53163">
        <ele>798.40002441406</ele>
        <time>2026-05-11T08:52:52.000Z</time>
      </trkpt>
      <trkpt lat="45.29198" lon="4.53161">
        <ele>798.59997558594</ele>
        <time>2026-05-11T08:52:53.000Z</time>
      </trkpt>
      <trkpt lat="45.29199" lon="4.5316">
        <ele>799</ele>
        <time>2026-05-11T08:52:54.000Z</time>
      </trkpt>
      <trkpt lat="45.292" lon="4.53158">
        <ele>799.20001220703</ele>
        <time>2026-05-11T08:52:55.000Z</time>
      </trkpt>
      <trkpt lat="45.292" lon="4.53156">
        <ele>799.40002441406</ele>
        <time>2026-05-11T08:52:56.000Z</time>
      </trkpt>
      <trkpt lat="45.29201" lon="4.53155">
        <ele>799.59997558594</ele>
        <time>2026-05-11T08:52:57.000Z</time>
      </trkpt>
      <trkpt lat="45.29202" lon="4.53153">
        <ele>800</ele>
        <time>2026-05-11T08:52:58.000Z</time>
      </trkpt>
      <trkpt lat="45.29202" lon="4.53152">
        <ele>800.20001220703</ele>
        <time>2026-05-11T08:52:59.000Z</time>
      </trkpt>
      <trkpt lat="45.29203" lon="4.53151">
        <ele>800.59997558594</ele>
        <time>2026-05-11T08:53:00.000Z</time>
      </trkpt>
      <trkpt lat="45.29203" lon="4.53149">
        <ele>800.79998779297</ele>
        <time>2026-05-11T08:53:01.000Z</time>
      </trkpt>
      <trkpt lat="45.29204" lon="4.53148">
        <ele>801</ele>
        <time>2026-05-11T08:53:02.000Z</time>
      </trkpt>
      <trkpt lat="45.29205" lon="4.53146">
        <ele>801.20001220703</ele>
        <time>2026-05-11T08:53:03.000Z</time>
      </trkpt>
      <trkpt lat="45.29206" lon="4.53145">
        <ele>801.40002441406</ele>
        <time>2026-05-11T08:53:04.000Z</time>
      </trkpt>
      <trkpt lat="45.29206" lon="4.53143">
        <ele>801.59997558594</ele>
        <time>2026-05-11T08:53:05.000Z</time>
      </trkpt>
      <trkpt lat="45.29207" lon="4.53142">
        <ele>802</ele>
        <time>2026-05-11T08:53:06.000Z</time>
      </trkpt>
      <trkpt lat="45.29208" lon="4.5314">
        <ele>802.20001220703</ele>
        <time>2026-05-11T08:53:07.000Z</time>
      </trkpt>
      <trkpt lat="45.29209" lon="4.53139">
        <ele>802.40002441406</ele>
        <time>2026-05-11T08:53:08.000Z</time>
      </trkpt>
      <trkpt lat="45.29209" lon="4.53137">
        <ele>802.59997558594</ele>
        <time>2026-05-11T08:53:09.000Z</time>
      </trkpt>
      <trkpt lat="45.2921" lon="4.53136">
        <ele>802.79998779297</ele>
        <time>2026-05-11T08:53:10.000Z</time>
      </trkpt>
      <trkpt lat="45.29211" lon="4.53134">
        <ele>803</ele>
        <time>2026-05-11T08:53:11.000Z</time>
      </trkpt>
      <trkpt lat="45.29212" lon="4.53133">
        <ele>803.20001220703</ele>
        <time>2026-05-11T08:53:12.000Z</time>
      </trkpt>
      <trkpt lat="45.29213" lon="4.53131">
        <ele>803.59997558594</ele>
        <time>2026-05-11T08:53:13.000Z</time>
      </trkpt>
      <trkpt lat="45.29214" lon="4.5313">
        <ele>803.79998779297</ele>
        <time>2026-05-11T08:53:14.000Z</time>
      </trkpt>
      <trkpt lat="45.29214" lon="4.53128">
        <ele>804</ele>
        <time>2026-05-11T08:53:15.000Z</time>
      </trkpt>
      <trkpt lat="45.29215" lon="4.53127">
        <ele>804.20001220703</ele>
        <time>2026-05-11T08:53:16.000Z</time>
      </trkpt>
      <trkpt lat="45.29215" lon="4.53125">
        <ele>804.59997558594</ele>
        <time>2026-05-11T08:53:17.000Z</time>
      </trkpt>
      <trkpt lat="45.29216" lon="4.53123">
        <ele>804.79998779297</ele>
        <time>2026-05-11T08:53:18.000Z</time>
      </trkpt>
      <trkpt lat="45.29218" lon="4.53123">
        <ele>805.20001220703</ele>
        <time>2026-05-11T08:53:19.000Z</time>
      </trkpt>
      <trkpt lat="45.29219" lon="4.53121">
        <ele>805.40002441406</ele>
        <time>2026-05-11T08:53:20.000Z</time>
      </trkpt>
      <trkpt lat="45.2922" lon="4.5312">
        <ele>805.59997558594</ele>
        <time>2026-05-11T08:53:21.000Z</time>
      </trkpt>
      <trkpt lat="45.29221" lon="4.53118">
        <ele>805.79998779297</ele>
        <time>2026-05-11T08:53:22.000Z</time>
      </trkpt>
      <trkpt lat="45.29222" lon="4.53116">
        <ele>806.20001220703</ele>
        <time>2026-05-11T08:53:23.000Z</time>
      </trkpt>
      <trkpt lat="45.29222" lon="4.53115">
        <ele>806.40002441406</ele>
        <time>2026-05-11T08:53:24.000Z</time>
      </trkpt>
      <trkpt lat="45.29223" lon="4.53113">
        <ele>806.79998779297</ele>
        <time>2026-05-11T08:53:25.000Z</time>
      </trkpt>
      <trkpt lat="45.29224" lon="4.53111">
        <ele>807</ele>
        <time>2026-05-11T08:53:26.000Z</time>
      </trkpt>
      <trkpt lat="45.29224" lon="4.53109">
        <ele>807.40002441406</ele>
        <time>2026-05-11T08:53:27.000Z</time>
      </trkpt>
      <trkpt lat="45.29225" lon="4.53107">
        <ele>807.59997558594</ele>
        <time>2026-05-11T08:53:28.000Z</time>
      </trkpt>
      <trkpt lat="45.29226" lon="4.53106">
        <ele>808</ele>
        <time>2026-05-11T08:53:29.000Z</time>
      </trkpt>
      <trkpt lat="45.29227" lon="4.53104">
        <ele>808.20001220703</ele>
        <time>2026-05-11T08:53:30.000Z</time>
      </trkpt>
      <trkpt lat="45.29229" lon="4.53103">
        <ele>808.59997558594</ele>
        <time>2026-05-11T08:53:31.000Z</time>
      </trkpt>
      <trkpt lat="45.2923" lon="4.53101">
        <ele>808.79998779297</ele>
        <time>2026-05-11T08:53:32.000Z</time>
      </trkpt>
      <trkpt lat="45.29231" lon="4.531">
        <ele>809.20001220703</ele>
        <time>2026-05-11T08:53:33.000Z</time>
      </trkpt>
      <trkpt lat="45.29232" lon="4.53098">
        <ele>809.40002441406</ele>
        <time>2026-05-11T08:53:34.000Z</time>
      </trkpt>
      <trkpt lat="45.29233" lon="4.53097">
        <ele>809.79998779297</ele>
        <time>2026-05-11T08:53:35.000Z</time>
      </trkpt>
      <trkpt lat="45.29234" lon="4.53096">
        <ele>810</ele>
        <time>2026-05-11T08:53:36.000Z</time>
      </trkpt>
      <trkpt lat="45.29236" lon="4.53094">
        <ele>810.20001220703</ele>
        <time>2026-05-11T08:53:37.000Z</time>
      </trkpt>
      <trkpt lat="45.29237" lon="4.53094">
        <ele>810.40002441406</ele>
        <time>2026-05-11T08:53:38.000Z</time>
      </trkpt>
      <trkpt lat="45.29238" lon="4.53093">
        <ele>810.59997558594</ele>
        <time>2026-05-11T08:53:39.000Z</time>
      </trkpt>
      <trkpt lat="45.29239" lon="4.53091">
        <ele>810.79998779297</ele>
        <time>2026-05-11T08:53:40.000Z</time>
      </trkpt>
      <trkpt lat="45.2924" lon="4.5309">
        <ele>811.20001220703</ele>
        <time>2026-05-11T08:53:41.000Z</time>
      </trkpt>
      <trkpt lat="45.29241" lon="4.53088">
        <ele>811.20001220703</ele>
        <time>2026-05-11T08:53:42.000Z</time>
      </trkpt>
      <trkpt lat="45.29242" lon="4.53087">
        <ele>811.40002441406</ele>
        <time>2026-05-11T08:53:43.000Z</time>
      </trkpt>
      <trkpt lat="45.29243" lon="4.53086">
        <ele>811.79998779297</ele>
        <time>2026-05-11T08:53:44.000Z</time>
      </trkpt>
      <trkpt lat="45.29244" lon="4.53085">
        <ele>812</ele>
        <time>2026-05-11T08:53:45.000Z</time>
      </trkpt>
      <trkpt lat="45.29245" lon="4.53084">
        <ele>812.20001220703</ele>
        <time>2026-05-11T08:53:46.000Z</time>
      </trkpt>
      <trkpt lat="45.29247" lon="4.53083">
        <ele>812.40002441406</ele>
        <time>2026-05-11T08:53:47.000Z</time>
      </trkpt>
      <trkpt lat="45.29248" lon="4.53083">
        <ele>812.40002441406</ele>
        <time>2026-05-11T08:53:48.000Z</time>
      </trkpt>
      <trkpt lat="45.29249" lon="4.53081">
        <ele>812.59997558594</ele>
        <time>2026-05-11T08:53:49.000Z</time>
      </trkpt>
      <trkpt lat="45.2925" lon="4.5308">
        <ele>812.79998779297</ele>
        <time>2026-05-11T08:53:50.000Z</time>
      </trkpt>
      <trkpt lat="45.29251" lon="4.53078">
        <ele>813</ele>
        <time>2026-05-11T08:53:51.000Z</time>
      </trkpt>
      <trkpt lat="45.29252" lon="4.53077">
        <ele>813.20001220703</ele>
        <time>2026-05-11T08:53:52.000Z</time>
      </trkpt>
      <trkpt lat="45.29254" lon="4.53076">
        <ele>813.40002441406</ele>
        <time>2026-05-11T08:53:53.000Z</time>
      </trkpt>
      <trkpt lat="45.29255" lon="4.53076">
        <ele>813.40002441406</ele>
        <time>2026-05-11T08:53:54.000Z</time>
      </trkpt>
      <trkpt lat="45.29256" lon="4.53075">
        <ele>813.59997558594</ele>
        <time>2026-05-11T08:53:55.000Z</time>
      </trkpt>
      <trkpt lat="45.29258" lon="4.53074">
        <ele>813.59997558594</ele>
        <time>2026-05-11T08:53:56.000Z</time>
      </trkpt>
      <trkpt lat="45.29259" lon="4.53073">
        <ele>813.79998779297</ele>
        <time>2026-05-11T08:53:57.000Z</time>
      </trkpt>
      <trkpt lat="45.2926" lon="4.53071">
        <ele>813.79998779297</ele>
        <time>2026-05-11T08:53:58.000Z</time>
      </trkpt>
      <trkpt lat="45.29261" lon="4.53071">
        <ele>813.79998779297</ele>
        <time>2026-05-11T08:53:59.000Z</time>
      </trkpt>
      <trkpt lat="45.29263" lon="4.5307">
        <ele>814</ele>
        <time>2026-05-11T08:54:00.000Z</time>
      </trkpt>
      <trkpt lat="45.29264" lon="4.53069">
        <ele>814.20001220703</ele>
        <time>2026-05-11T08:54:01.000Z</time>
      </trkpt>
      <trkpt lat="45.29265" lon="4.53068">
        <ele>814.40002441406</ele>
        <time>2026-05-11T08:54:02.000Z</time>
      </trkpt>
      <trkpt lat="45.29267" lon="4.53068">
        <ele>814.40002441406</ele>
        <time>2026-05-11T08:54:03.000Z</time>
      </trkpt>
      <trkpt lat="45.29268" lon="4.53066">
        <ele>814.59997558594</ele>
        <time>2026-05-11T08:54:04.000Z</time>
      </trkpt>
      <trkpt lat="45.29269" lon="4.53065">
        <ele>814.79998779297</ele>
        <time>2026-05-11T08:54:05.000Z</time>
      </trkpt>
      <trkpt lat="45.2927" lon="4.53064">
        <ele>815</ele>
        <time>2026-05-11T08:54:06.000Z</time>
      </trkpt>
      <trkpt lat="45.29271" lon="4.53064">
        <ele>815.20001220703</ele>
        <time>2026-05-11T08:54:07.000Z</time>
      </trkpt>
      <trkpt lat="45.29273" lon="4.53063">
        <ele>815.40002441406</ele>
        <time>2026-05-11T08:54:08.000Z</time>
      </trkpt>
      <trkpt lat="45.29274" lon="4.53062">
        <ele>815.59997558594</ele>
        <time>2026-05-11T08:54:09.000Z</time>
      </trkpt>
      <trkpt lat="45.29275" lon="4.53061">
        <ele>815.79998779297</ele>
        <time>2026-05-11T08:54:10.000Z</time>
      </trkpt>
      <trkpt lat="45.29275" lon="4.53059">
        <ele>815.79998779297</ele>
        <time>2026-05-11T08:54:11.000Z</time>
      </trkpt>
      <trkpt lat="45.29277" lon="4.53058">
        <ele>816</ele>
        <time>2026-05-11T08:54:12.000Z</time>
      </trkpt>
      <trkpt lat="45.29278" lon="4.53057">
        <ele>816.20001220703</ele>
        <time>2026-05-11T08:54:13.000Z</time>
      </trkpt>
      <trkpt lat="45.29279" lon="4.53056">
        <ele>816.40002441406</ele>
        <time>2026-05-11T08:54:14.000Z</time>
      </trkpt>
      <trkpt lat="45.2928" lon="4.53055">
        <ele>816.59997558594</ele>
        <time>2026-05-11T08:54:15.000Z</time>
      </trkpt>
      <trkpt lat="45.29281" lon="4.53054">
        <ele>816.79998779297</ele>
        <time>2026-05-11T08:54:16.000Z</time>
      </trkpt>
      <trkpt lat="45.29282" lon="4.53052">
        <ele>817</ele>
        <time>2026-05-11T08:54:17.000Z</time>
      </trkpt>
      <trkpt lat="45.29283" lon="4.53051">
        <ele>817</ele>
        <time>2026-05-11T08:54:18.000Z</time>
      </trkpt>
      <trkpt lat="45.29284" lon="4.53049">
        <ele>817.20001220703</ele>
        <time>2026-05-11T08:54:19.000Z</time>
      </trkpt>
      <trkpt lat="45.29285" lon="4.53048">
        <ele>817.40002441406</ele>
        <time>2026-05-11T08:54:20.000Z</time>
      </trkpt>
      <trkpt lat="45.29287" lon="4.53046">
        <ele>817.59997558594</ele>
        <time>2026-05-11T08:54:21.000Z</time>
      </trkpt>
      <trkpt lat="45.29288" lon="4.53045">
        <ele>817.79998779297</ele>
        <time>2026-05-11T08:54:22.000Z</time>
      </trkpt>
      <trkpt lat="45.29288" lon="4.53043">
        <ele>818</ele>
        <time>2026-05-11T08:54:23.000Z</time>
      </trkpt>
      <trkpt lat="45.29289" lon="4.53041">
        <ele>818.20001220703</ele>
        <time>2026-05-11T08:54:24.000Z</time>
      </trkpt>
      <trkpt lat="45.2929" lon="4.5304">
        <ele>818.40002441406</ele>
        <time>2026-05-11T08:54:25.000Z</time>
      </trkpt>
      <trkpt lat="45.2929" lon="4.53038">
        <ele>818.59997558594</ele>
        <time>2026-05-11T08:54:26.000Z</time>
      </trkpt>
      <trkpt lat="45.29291" lon="4.53037">
        <ele>818.79998779297</ele>
        <time>2026-05-11T08:54:27.000Z</time>
      </trkpt>
      <trkpt lat="45.29293" lon="4.53035">
        <ele>819</ele>
        <time>2026-05-11T08:54:28.000Z</time>
      </trkpt>
      <trkpt lat="45.29294" lon="4.53034">
        <ele>819.20001220703</ele>
        <time>2026-05-11T08:54:29.000Z</time>
      </trkpt>
      <trkpt lat="45.29295" lon="4.53032">
        <ele>819.40002441406</ele>
        <time>2026-05-11T08:54:30.000Z</time>
      </trkpt>
      <trkpt lat="45.29296" lon="4.53031">
        <ele>819.59997558594</ele>
        <time>2026-05-11T08:54:31.000Z</time>
      </trkpt>
      <trkpt lat="45.29297" lon="4.53029">
        <ele>819.79998779297</ele>
        <time>2026-05-11T08:54:32.000Z</time>
      </trkpt>
      <trkpt lat="45.29298" lon="4.53028">
        <ele>820</ele>
        <time>2026-05-11T08:54:33.000Z</time>
      </trkpt>
      <trkpt lat="45.29299" lon="4.53026">
        <ele>820.20001220703</ele>
        <time>2026-05-11T08:54:34.000Z</time>
      </trkpt>
      <trkpt lat="45.29299" lon="4.53025">
        <ele>820.20001220703</ele>
        <time>2026-05-11T08:54:35.000Z</time>
      </trkpt>
      <trkpt lat="45.293" lon="4.53023">
        <ele>820.40002441406</ele>
        <time>2026-05-11T08:54:36.000Z</time>
      </trkpt>
      <trkpt lat="45.29301" lon="4.53021">
        <ele>820.59997558594</ele>
        <time>2026-05-11T08:54:37.000Z</time>
      </trkpt>
      <trkpt lat="45.29302" lon="4.53019">
        <ele>820.79998779297</ele>
        <time>2026-05-11T08:54:38.000Z</time>
      </trkpt>
      <trkpt lat="45.29303" lon="4.53017">
        <ele>820.79998779297</ele>
        <time>2026-05-11T08:54:39.000Z</time>
      </trkpt>
      <trkpt lat="45.29304" lon="4.53016">
        <ele>821</ele>
        <time>2026-05-11T08:54:40.000Z</time>
      </trkpt>
      <trkpt lat="45.29305" lon="4.53014">
        <ele>821.20001220703</ele>
        <time>2026-05-11T08:54:41.000Z</time>
      </trkpt>
      <trkpt lat="45.29307" lon="4.53013">
        <ele>821.20001220703</ele>
        <time>2026-05-11T08:54:42.000Z</time>
      </trkpt>
      <trkpt lat="45.29307" lon="4.53012">
        <ele>821.40002441406</ele>
        <time>2026-05-11T08:54:43.000Z</time>
      </trkpt>
      <trkpt lat="45.29309" lon="4.5301">
        <ele>821.59997558594</ele>
        <time>2026-05-11T08:54:44.000Z</time>
      </trkpt>
      <trkpt lat="45.29309" lon="4.53008">
        <ele>821.79998779297</ele>
        <time>2026-05-11T08:54:45.000Z</time>
      </trkpt>
      <trkpt lat="45.2931" lon="4.53007">
        <ele>821.79998779297</ele>
        <time>2026-05-11T08:54:46.000Z</time>
      </trkpt>
      <trkpt lat="45.29312" lon="4.53005">
        <ele>822</ele>
        <time>2026-05-11T08:54:47.000Z</time>
      </trkpt>
      <trkpt lat="45.29313" lon="4.53003">
        <ele>822</ele>
        <time>2026-05-11T08:54:48.000Z</time>
      </trkpt>
      <trkpt lat="45.29314" lon="4.53002">
        <ele>822.20001220703</ele>
        <time>2026-05-11T08:54:49.000Z</time>
      </trkpt>
      <trkpt lat="45.29315" lon="4.53001">
        <ele>822.20001220703</ele>
        <time>2026-05-11T08:54:50.000Z</time>
      </trkpt>
      <trkpt lat="45.29316" lon="4.53">
        <ele>822.40002441406</ele>
        <time>2026-05-11T08:54:51.000Z</time>
      </trkpt>
      <trkpt lat="45.29317" lon="4.52999">
        <ele>822.59997558594</ele>
        <time>2026-05-11T08:54:52.000Z</time>
      </trkpt>
      <trkpt lat="45.29319" lon="4.52998">
        <ele>822.59997558594</ele>
        <time>2026-05-11T08:54:53.000Z</time>
      </trkpt>
      <trkpt lat="45.2932" lon="4.52996">
        <ele>822.59997558594</ele>
        <time>2026-05-11T08:54:54.000Z</time>
      </trkpt>
      <trkpt lat="45.29321" lon="4.52995">
        <ele>822.79998779297</ele>
        <time>2026-05-11T08:54:55.000Z</time>
      </trkpt>
      <trkpt lat="45.29322" lon="4.52994">
        <ele>822.79998779297</ele>
        <time>2026-05-11T08:54:56.000Z</time>
      </trkpt>
      <trkpt lat="45.29324" lon="4.52993">
        <ele>823</ele>
        <time>2026-05-11T08:54:57.000Z</time>
      </trkpt>
      <trkpt lat="45.29325" lon="4.52993">
        <ele>823</ele>
        <time>2026-05-11T08:54:58.000Z</time>
      </trkpt>
      <trkpt lat="45.29327" lon="4.52992">
        <ele>823.20001220703</ele>
        <time>2026-05-11T08:54:59.000Z</time>
      </trkpt>
      <trkpt lat="45.29328" lon="4.52992">
        <ele>823.20001220703</ele>
        <time>2026-05-11T08:55:00.000Z</time>
      </trkpt>
      <trkpt lat="45.29329" lon="4.52991">
        <ele>823.40002441406</ele>
        <time>2026-05-11T08:55:01.000Z</time>
      </trkpt>
      <trkpt lat="45.2933" lon="4.5299">
        <ele>823.40002441406</ele>
        <time>2026-05-11T08:55:02.000Z</time>
      </trkpt>
      <trkpt lat="45.29332" lon="4.52989">
        <ele>823.59997558594</ele>
        <time>2026-05-11T08:55:03.000Z</time>
      </trkpt>
      <trkpt lat="45.29333" lon="4.52988">
        <ele>823.59997558594</ele>
        <time>2026-05-11T08:55:04.000Z</time>
      </trkpt>
      <trkpt lat="45.29335" lon="4.52988">
        <ele>823.79998779297</ele>
        <time>2026-05-11T08:55:05.000Z</time>
      </trkpt>
      <trkpt lat="45.29336" lon="4.52987">
        <ele>823.79998779297</ele>
        <time>2026-05-11T08:55:06.000Z</time>
      </trkpt>
      <trkpt lat="45.29338" lon="4.52987">
        <ele>824</ele>
        <time>2026-05-11T08:55:07.000Z</time>
      </trkpt>
      <trkpt lat="45.29339" lon="4.52986">
        <ele>824.20001220703</ele>
        <time>2026-05-11T08:55:08.000Z</time>
      </trkpt>
      <trkpt lat="45.2934" lon="4.52985">
        <ele>824.20001220703</ele>
        <time>2026-05-11T08:55:09.000Z</time>
      </trkpt>
      <trkpt lat="45.29341" lon="4.52984">
        <ele>824.40002441406</ele>
        <time>2026-05-11T08:55:10.000Z</time>
      </trkpt>
      <trkpt lat="45.29342" lon="4.52982">
        <ele>824.40002441406</ele>
        <time>2026-05-11T08:55:11.000Z</time>
      </trkpt>
      <trkpt lat="45.29344" lon="4.52981">
        <ele>824.59997558594</ele>
        <time>2026-05-11T08:55:12.000Z</time>
      </trkpt>
      <trkpt lat="45.29345" lon="4.5298">
        <ele>824.59997558594</ele>
        <time>2026-05-11T08:55:13.000Z</time>
      </trkpt>
      <trkpt lat="45.29346" lon="4.52978">
        <ele>824.79998779297</ele>
        <time>2026-05-11T08:55:14.000Z</time>
      </trkpt>
      <trkpt lat="45.29348" lon="4.52977">
        <ele>824.79998779297</ele>
        <time>2026-05-11T08:55:15.000Z</time>
      </trkpt>
      <trkpt lat="45.29349" lon="4.52976">
        <ele>825</ele>
        <time>2026-05-11T08:55:16.000Z</time>
      </trkpt>
      <trkpt lat="45.2935" lon="4.52974">
        <ele>825</ele>
        <time>2026-05-11T08:55:17.000Z</time>
      </trkpt>
      <trkpt lat="45.29351" lon="4.52973">
        <ele>825.20001220703</ele>
        <time>2026-05-11T08:55:18.000Z</time>
      </trkpt>
      <trkpt lat="45.29352" lon="4.52971">
        <ele>825.20001220703</ele>
        <time>2026-05-11T08:55:19.000Z</time>
      </trkpt>
      <trkpt lat="45.29353" lon="4.52969">
        <ele>825.40002441406</ele>
        <time>2026-05-11T08:55:20.000Z</time>
      </trkpt>
      <trkpt lat="45.29355" lon="4.52967">
        <ele>825.59997558594</ele>
        <time>2026-05-11T08:55:21.000Z</time>
      </trkpt>
      <trkpt lat="45.29355" lon="4.52965">
        <ele>825.59997558594</ele>
        <time>2026-05-11T08:55:22.000Z</time>
      </trkpt>
      <trkpt lat="45.29356" lon="4.52963">
        <ele>825.79998779297</ele>
        <time>2026-05-11T08:55:23.000Z</time>
      </trkpt>
      <trkpt lat="45.29357" lon="4.52962">
        <ele>825.79998779297</ele>
        <time>2026-05-11T08:55:24.000Z</time>
      </trkpt>
      <trkpt lat="45.29358" lon="4.5296">
        <ele>826</ele>
        <time>2026-05-11T08:55:25.000Z</time>
      </trkpt>
      <trkpt lat="45.29359" lon="4.52958">
        <ele>826.20001220703</ele>
        <time>2026-05-11T08:55:26.000Z</time>
      </trkpt>
      <trkpt lat="45.2936" lon="4.52956">
        <ele>826.20001220703</ele>
        <time>2026-05-11T08:55:27.000Z</time>
      </trkpt>
      <trkpt lat="45.29361" lon="4.52954">
        <ele>826.20001220703</ele>
        <time>2026-05-11T08:55:28.000Z</time>
      </trkpt>
      <trkpt lat="45.29362" lon="4.52952">
        <ele>826.40002441406</ele>
        <time>2026-05-11T08:55:29.000Z</time>
      </trkpt>
      <trkpt lat="45.29363" lon="4.52949">
        <ele>826.40002441406</ele>
        <time>2026-05-11T08:55:30.000Z</time>
      </trkpt>
      <trkpt lat="45.29364" lon="4.52947">
        <ele>826.59997558594</ele>
        <time>2026-05-11T08:55:31.000Z</time>
      </trkpt>
      <trkpt lat="45.29365" lon="4.52945">
        <ele>826.59997558594</ele>
        <time>2026-05-11T08:55:32.000Z</time>
      </trkpt>
      <trkpt lat="45.29366" lon="4.52943">
        <ele>826.79998779297</ele>
        <time>2026-05-11T08:55:33.000Z</time>
      </trkpt>
      <trkpt lat="45.29367" lon="4.5294">
        <ele>827</ele>
        <time>2026-05-11T08:55:34.000Z</time>
      </trkpt>
      <trkpt lat="45.29368" lon="4.52938">
        <ele>827</ele>
        <time>2026-05-11T08:55:35.000Z</time>
      </trkpt>
      <trkpt lat="45.29369" lon="4.52936">
        <ele>827.20001220703</ele>
        <time>2026-05-11T08:55:36.000Z</time>
      </trkpt>
      <trkpt lat="45.2937" lon="4.52934">
        <ele>827.20001220703</ele>
        <time>2026-05-11T08:55:37.000Z</time>
      </trkpt>
      <trkpt lat="45.29371" lon="4.52931">
        <ele>827.40002441406</ele>
        <time>2026-05-11T08:55:38.000Z</time>
      </trkpt>
      <trkpt lat="45.29372" lon="4.52929">
        <ele>827.59997558594</ele>
        <time>2026-05-11T08:55:39.000Z</time>
      </trkpt>
      <trkpt lat="45.29373" lon="4.52927">
        <ele>827.59997558594</ele>
        <time>2026-05-11T08:55:40.000Z</time>
      </trkpt>
      <trkpt lat="45.29374" lon="4.52925">
        <ele>827.79998779297</ele>
        <time>2026-05-11T08:55:41.000Z</time>
      </trkpt>
      <trkpt lat="45.29374" lon="4.52924">
        <ele>828</ele>
        <time>2026-05-11T08:55:42.000Z</time>
      </trkpt>
      <trkpt lat="45.29375" lon="4.52921">
        <ele>828</ele>
        <time>2026-05-11T08:55:43.000Z</time>
      </trkpt>
      <trkpt lat="45.29376" lon="4.52919">
        <ele>828.20001220703</ele>
        <time>2026-05-11T08:55:44.000Z</time>
      </trkpt>
      <trkpt lat="45.29377" lon="4.52917">
        <ele>828.40002441406</ele>
        <time>2026-05-11T08:55:45.000Z</time>
      </trkpt>
      <trkpt lat="45.29378" lon="4.52915">
        <ele>828.59997558594</ele>
        <time>2026-05-11T08:55:46.000Z</time>
      </trkpt>
      <trkpt lat="45.29378" lon="4.52913">
        <ele>828.59997558594</ele>
        <time>2026-05-11T08:55:47.000Z</time>
      </trkpt>
      <trkpt lat="45.29379" lon="4.52911">
        <ele>828.79998779297</ele>
        <time>2026-05-11T08:55:48.000Z</time>
      </trkpt>
      <trkpt lat="45.2938" lon="4.52909">
        <ele>828.79998779297</ele>
        <time>2026-05-11T08:55:49.000Z</time>
      </trkpt>
      <trkpt lat="45.29381" lon="4.52906">
        <ele>829</ele>
        <time>2026-05-11T08:55:50.000Z</time>
      </trkpt>
      <trkpt lat="45.29382" lon="4.52903">
        <ele>829</ele>
        <time>2026-05-11T08:55:51.000Z</time>
      </trkpt>
      <trkpt lat="45.29383" lon="4.529">
        <ele>829.20001220703</ele>
        <time>2026-05-11T08:55:52.000Z</time>
      </trkpt>
      <trkpt lat="45.29384" lon="4.52898">
        <ele>829.20001220703</ele>
        <time>2026-05-11T08:55:53.000Z</time>
      </trkpt>
      <trkpt lat="45.29384" lon="4.52896">
        <ele>829.20001220703</ele>
        <time>2026-05-11T08:55:54.000Z</time>
      </trkpt>
      <trkpt lat="45.29385" lon="4.52894">
        <ele>829.40002441406</ele>
        <time>2026-05-11T08:55:55.000Z</time>
      </trkpt>
      <trkpt lat="45.29386" lon="4.52891">
        <ele>829.40002441406</ele>
        <time>2026-05-11T08:55:56.000Z</time>
      </trkpt>
      <trkpt lat="45.29386" lon="4.52889">
        <ele>829.40002441406</ele>
        <time>2026-05-11T08:55:57.000Z</time>
      </trkpt>
      <trkpt lat="45.29387" lon="4.52887">
        <ele>829.40002441406</ele>
        <time>2026-05-11T08:55:58.000Z</time>
      </trkpt>
      <trkpt lat="45.29388" lon="4.52885">
        <ele>829.40002441406</ele>
        <time>2026-05-11T08:55:59.000Z</time>
      </trkpt>
      <trkpt lat="45.29389" lon="4.52883">
        <ele>829.59997558594</ele>
        <time>2026-05-11T08:56:00.000Z</time>
      </trkpt>
      <trkpt lat="45.29389" lon="4.5288">
        <ele>829.59997558594</ele>
        <time>2026-05-11T08:56:01.000Z</time>
      </trkpt>
      <trkpt lat="45.2939" lon="4.52878">
        <ele>829.59997558594</ele>
        <time>2026-05-11T08:56:02.000Z</time>
      </trkpt>
      <trkpt lat="45.29391" lon="4.52876">
        <ele>829.79998779297</ele>
        <time>2026-05-11T08:56:03.000Z</time>
      </trkpt>
      <trkpt lat="45.29392" lon="4.52874">
        <ele>829.79998779297</ele>
        <time>2026-05-11T08:56:04.000Z</time>
      </trkpt>
      <trkpt lat="45.29393" lon="4.52872">
        <ele>829.79998779297</ele>
        <time>2026-05-11T08:56:05.000Z</time>
      </trkpt>
      <trkpt lat="45.29394" lon="4.5287">
        <ele>829.79998779297</ele>
        <time>2026-05-11T08:56:06.000Z</time>
      </trkpt>
      <trkpt lat="45.29395" lon="4.52867">
        <ele>830</ele>
        <time>2026-05-11T08:56:07.000Z</time>
      </trkpt>
      <trkpt lat="45.29396" lon="4.52865">
        <ele>830</ele>
        <time>2026-05-11T08:56:08.000Z</time>
      </trkpt>
      <trkpt lat="45.29397" lon="4.52863">
        <ele>830.20001220703</ele>
        <time>2026-05-11T08:56:09.000Z</time>
      </trkpt>
      <trkpt lat="45.29398" lon="4.52861">
        <ele>830.20001220703</ele>
        <time>2026-05-11T08:56:10.000Z</time>
      </trkpt>
      <trkpt lat="45.29399" lon="4.52859">
        <ele>830.40002441406</ele>
        <time>2026-05-11T08:56:11.000Z</time>
      </trkpt>
      <trkpt lat="45.294" lon="4.52857">
        <ele>830.40002441406</ele>
        <time>2026-05-11T08:56:12.000Z</time>
      </trkpt>
      <trkpt lat="45.294" lon="4.52855">
        <ele>830.59997558594</ele>
        <time>2026-05-11T08:56:13.000Z</time>
      </trkpt>
      <trkpt lat="45.29401" lon="4.52854">
        <ele>830.59997558594</ele>
        <time>2026-05-11T08:56:14.000Z</time>
      </trkpt>
      <trkpt lat="45.29402" lon="4.52852">
        <ele>830.79998779297</ele>
        <time>2026-05-11T08:56:15.000Z</time>
      </trkpt>
      <trkpt lat="45.29404" lon="4.5285">
        <ele>830.79998779297</ele>
        <time>2026-05-11T08:56:16.000Z</time>
      </trkpt>
      <trkpt lat="45.29405" lon="4.52848">
        <ele>830.79998779297</ele>
        <time>2026-05-11T08:56:17.000Z</time>
      </trkpt>
      <trkpt lat="45.29406" lon="4.52846">
        <ele>831</ele>
        <time>2026-05-11T08:56:18.000Z</time>
      </trkpt>
      <trkpt lat="45.29407" lon="4.52844">
        <ele>831</ele>
        <time>2026-05-11T08:56:19.000Z</time>
      </trkpt>
      <trkpt lat="45.29408" lon="4.52842">
        <ele>831</ele>
        <time>2026-05-11T08:56:20.000Z</time>
      </trkpt>
      <trkpt lat="45.29409" lon="4.52839">
        <ele>831.20001220703</ele>
        <time>2026-05-11T08:56:21.000Z</time>
      </trkpt>
      <trkpt lat="45.2941" lon="4.52837">
        <ele>831.20001220703</ele>
        <time>2026-05-11T08:56:22.000Z</time>
      </trkpt>
      <trkpt lat="45.29411" lon="4.52835">
        <ele>831.20001220703</ele>
        <time>2026-05-11T08:56:23.000Z</time>
      </trkpt>
      <trkpt lat="45.29412" lon="4.52833">
        <ele>831.40002441406</ele>
        <time>2026-05-11T08:56:24.000Z</time>
      </trkpt>
      <trkpt lat="45.29413" lon="4.52831">
        <ele>831.40002441406</ele>
        <time>2026-05-11T08:56:25.000Z</time>
      </trkpt>
      <trkpt lat="45.29414" lon="4.52829">
        <ele>831.59997558594</ele>
        <time>2026-05-11T08:56:26.000Z</time>
      </trkpt>
      <trkpt lat="45.29415" lon="4.52826">
        <ele>831.59997558594</ele>
        <time>2026-05-11T08:56:27.000Z</time>
      </trkpt>
      <trkpt lat="45.29416" lon="4.52823">
        <ele>831.59997558594</ele>
        <time>2026-05-11T08:56:28.000Z</time>
      </trkpt>
      <trkpt lat="45.29417" lon="4.52821">
        <ele>831.79998779297</ele>
        <time>2026-05-11T08:56:29.000Z</time>
      </trkpt>
      <trkpt lat="45.29418" lon="4.5282">
        <ele>831.79998779297</ele>
        <time>2026-05-11T08:56:30.000Z</time>
      </trkpt>
      <trkpt lat="45.29418" lon="4.52817">
        <ele>832</ele>
        <time>2026-05-11T08:56:31.000Z</time>
      </trkpt>
      <trkpt lat="45.29419" lon="4.52816">
        <ele>832.20001220703</ele>
        <time>2026-05-11T08:56:32.000Z</time>
      </trkpt>
      <trkpt lat="45.2942" lon="4.52814">
        <ele>832.20001220703</ele>
        <time>2026-05-11T08:56:33.000Z</time>
      </trkpt>
      <trkpt lat="45.29421" lon="4.52812">
        <ele>832.40002441406</ele>
        <time>2026-05-11T08:56:34.000Z</time>
      </trkpt>
      <trkpt lat="45.29422" lon="4.5281">
        <ele>832.59997558594</ele>
        <time>2026-05-11T08:56:35.000Z</time>
      </trkpt>
      <trkpt lat="45.29423" lon="4.52808">
        <ele>832.79998779297</ele>
        <time>2026-05-11T08:56:36.000Z</time>
      </trkpt>
      <trkpt lat="45.29424" lon="4.52807">
        <ele>832.79998779297</ele>
        <time>2026-05-11T08:56:37.000Z</time>
      </trkpt>
      <trkpt lat="45.29425" lon="4.52805">
        <ele>833</ele>
        <time>2026-05-11T08:56:38.000Z</time>
      </trkpt>
      <trkpt lat="45.29426" lon="4.52803">
        <ele>833.20001220703</ele>
        <time>2026-05-11T08:56:39.000Z</time>
      </trkpt>
      <trkpt lat="45.29427" lon="4.52801">
        <ele>833.20001220703</ele>
        <time>2026-05-11T08:56:40.000Z</time>
      </trkpt>
      <trkpt lat="45.29428" lon="4.52799">
        <ele>833.40002441406</ele>
        <time>2026-05-11T08:56:41.000Z</time>
      </trkpt>
      <trkpt lat="45.29429" lon="4.52797">
        <ele>833.59997558594</ele>
        <time>2026-05-11T08:56:42.000Z</time>
      </trkpt>
      <trkpt lat="45.2943" lon="4.52795">
        <ele>833.79998779297</ele>
        <time>2026-05-11T08:56:43.000Z</time>
      </trkpt>
      <trkpt lat="45.29431" lon="4.52794">
        <ele>834</ele>
        <time>2026-05-11T08:56:44.000Z</time>
      </trkpt>
      <trkpt lat="45.29432" lon="4.52792">
        <ele>834</ele>
        <time>2026-05-11T08:56:45.000Z</time>
      </trkpt>
      <trkpt lat="45.29433" lon="4.5279">
        <ele>834.20001220703</ele>
        <time>2026-05-11T08:56:46.000Z</time>
      </trkpt>
      <trkpt lat="45.29434" lon="4.52788">
        <ele>834.40002441406</ele>
        <time>2026-05-11T08:56:47.000Z</time>
      </trkpt>
      <trkpt lat="45.29435" lon="4.52787">
        <ele>834.59997558594</ele>
        <time>2026-05-11T08:56:48.000Z</time>
      </trkpt>
      <trkpt lat="45.29436" lon="4.52784">
        <ele>834.79998779297</ele>
        <time>2026-05-11T08:56:49.000Z</time>
      </trkpt>
      <trkpt lat="45.29436" lon="4.52782">
        <ele>835</ele>
        <time>2026-05-11T08:56:50.000Z</time>
      </trkpt>
      <trkpt lat="45.29437" lon="4.5278">
        <ele>835.20001220703</ele>
        <time>2026-05-11T08:56:51.000Z</time>
      </trkpt>
      <trkpt lat="45.29438" lon="4.52779">
        <ele>835.40002441406</ele>
        <time>2026-05-11T08:56:52.000Z</time>
      </trkpt>
      <trkpt lat="45.29439" lon="4.52777">
        <ele>835.59997558594</ele>
        <time>2026-05-11T08:56:53.000Z</time>
      </trkpt>
      <trkpt lat="45.29439" lon="4.52775">
        <ele>835.79998779297</ele>
        <time>2026-05-11T08:56:54.000Z</time>
      </trkpt>
      <trkpt lat="45.2944" lon="4.52773">
        <ele>836</ele>
        <time>2026-05-11T08:56:55.000Z</time>
      </trkpt>
      <trkpt lat="45.29441" lon="4.52771">
        <ele>836.20001220703</ele>
        <time>2026-05-11T08:56:56.000Z</time>
      </trkpt>
      <trkpt lat="45.29442" lon="4.52769">
        <ele>836.40002441406</ele>
        <time>2026-05-11T08:56:57.000Z</time>
      </trkpt>
      <trkpt lat="45.29443" lon="4.52767">
        <ele>836.59997558594</ele>
        <time>2026-05-11T08:56:58.000Z</time>
      </trkpt>
      <trkpt lat="45.29445" lon="4.52765">
        <ele>836.79998779297</ele>
        <time>2026-05-11T08:56:59.000Z</time>
      </trkpt>
      <trkpt lat="45.29446" lon="4.52762">
        <ele>837.20001220703</ele>
        <time>2026-05-11T08:57:00.000Z</time>
      </trkpt>
      <trkpt lat="45.29447" lon="4.52759">
        <ele>837.40002441406</ele>
        <time>2026-05-11T08:57:01.000Z</time>
      </trkpt>
      <trkpt lat="45.29448" lon="4.52758">
        <ele>837.59997558594</ele>
        <time>2026-05-11T08:57:02.000Z</time>
      </trkpt>
      <trkpt lat="45.29449" lon="4.52756">
        <ele>838</ele>
        <time>2026-05-11T08:57:03.000Z</time>
      </trkpt>
      <trkpt lat="45.2945" lon="4.52755">
        <ele>838.20001220703</ele>
        <time>2026-05-11T08:57:04.000Z</time>
      </trkpt>
      <trkpt lat="45.29451" lon="4.52753">
        <ele>838.40002441406</ele>
        <time>2026-05-11T08:57:05.000Z</time>
      </trkpt>
      <trkpt lat="45.29453" lon="4.52752">
        <ele>838.59997558594</ele>
        <time>2026-05-11T08:57:06.000Z</time>
      </trkpt>
      <trkpt lat="45.29454" lon="4.5275">
        <ele>838.79998779297</ele>
        <time>2026-05-11T08:57:07.000Z</time>
      </trkpt>
      <trkpt lat="45.29456" lon="4.52749">
        <ele>839</ele>
        <time>2026-05-11T08:57:08.000Z</time>
      </trkpt>
      <trkpt lat="45.29457" lon="4.52748">
        <ele>839.40002441406</ele>
        <time>2026-05-11T08:57:09.000Z</time>
      </trkpt>
      <trkpt lat="45.29458" lon="4.52746">
        <ele>839.59997558594</ele>
        <time>2026-05-11T08:57:10.000Z</time>
      </trkpt>
      <trkpt lat="45.29459" lon="4.52745">
        <ele>839.79998779297</ele>
        <time>2026-05-11T08:57:11.000Z</time>
      </trkpt>
      <trkpt lat="45.2946" lon="4.52743">
        <ele>840.20001220703</ele>
        <time>2026-05-11T08:57:12.000Z</time>
      </trkpt>
      <trkpt lat="45.29461" lon="4.52741">
        <ele>840.40002441406</ele>
        <time>2026-05-11T08:57:13.000Z</time>
      </trkpt>
      <trkpt lat="45.29462" lon="4.52738">
        <ele>840.59997558594</ele>
        <time>2026-05-11T08:57:14.000Z</time>
      </trkpt>
      <trkpt lat="45.29463" lon="4.52737">
        <ele>840.79998779297</ele>
        <time>2026-05-11T08:57:15.000Z</time>
      </trkpt>
      <trkpt lat="45.29463" lon="4.52735">
        <ele>841.20001220703</ele>
        <time>2026-05-11T08:57:16.000Z</time>
      </trkpt>
      <trkpt lat="45.29463" lon="4.52733">
        <ele>841.40002441406</ele>
        <time>2026-05-11T08:57:17.000Z</time>
      </trkpt>
      <trkpt lat="45.29464" lon="4.5273">
        <ele>841.79998779297</ele>
        <time>2026-05-11T08:57:18.000Z</time>
      </trkpt>
      <trkpt lat="45.29464" lon="4.52728">
        <ele>842</ele>
        <time>2026-05-11T08:57:19.000Z</time>
      </trkpt>
      <trkpt lat="45.29465" lon="4.52726">
        <ele>842.20001220703</ele>
        <time>2026-05-11T08:57:20.000Z</time>
      </trkpt>
      <trkpt lat="45.29466" lon="4.52724">
        <ele>842.40002441406</ele>
        <time>2026-05-11T08:57:21.000Z</time>
      </trkpt>
      <trkpt lat="45.29466" lon="4.52722">
        <ele>842.59997558594</ele>
        <time>2026-05-11T08:57:22.000Z</time>
      </trkpt>
      <trkpt lat="45.29467" lon="4.52719">
        <ele>842.79998779297</ele>
        <time>2026-05-11T08:57:23.000Z</time>
      </trkpt>
      <trkpt lat="45.29468" lon="4.52717">
        <ele>843</ele>
        <time>2026-05-11T08:57:24.000Z</time>
      </trkpt>
      <trkpt lat="45.29469" lon="4.52715">
        <ele>843.20001220703</ele>
        <time>2026-05-11T08:57:25.000Z</time>
      </trkpt>
      <trkpt lat="45.2947" lon="4.52714">
        <ele>843.40002441406</ele>
        <time>2026-05-11T08:57:26.000Z</time>
      </trkpt>
      <trkpt lat="45.29471" lon="4.52712">
        <ele>843.59997558594</ele>
        <time>2026-05-11T08:57:27.000Z</time>
      </trkpt>
      <trkpt lat="45.29472" lon="4.5271">
        <ele>843.59997558594</ele>
        <time>2026-05-11T08:57:28.000Z</time>
      </trkpt>
      <trkpt lat="45.29473" lon="4.52708">
        <ele>843.79998779297</ele>
        <time>2026-05-11T08:57:29.000Z</time>
      </trkpt>
      <trkpt lat="45.29473" lon="4.52706">
        <ele>844</ele>
        <time>2026-05-11T08:57:30.000Z</time>
      </trkpt>
      <trkpt lat="45.29474" lon="4.52703">
        <ele>844</ele>
        <time>2026-05-11T08:57:31.000Z</time>
      </trkpt>
      <trkpt lat="45.29474" lon="4.52701">
        <ele>844.20001220703</ele>
        <time>2026-05-11T08:57:32.000Z</time>
      </trkpt>
      <trkpt lat="45.29475" lon="4.52699">
        <ele>844.40002441406</ele>
        <time>2026-05-11T08:57:33.000Z</time>
      </trkpt>
      <trkpt lat="45.29475" lon="4.52697">
        <ele>844.40002441406</ele>
        <time>2026-05-11T08:57:34.000Z</time>
      </trkpt>
      <trkpt lat="45.29476" lon="4.52694">
        <ele>844.59997558594</ele>
        <time>2026-05-11T08:57:35.000Z</time>
      </trkpt>
      <trkpt lat="45.29476" lon="4.52692">
        <ele>844.79998779297</ele>
        <time>2026-05-11T08:57:36.000Z</time>
      </trkpt>
      <trkpt lat="45.29477" lon="4.5269">
        <ele>845</ele>
        <time>2026-05-11T08:57:37.000Z</time>
      </trkpt>
      <trkpt lat="45.29477" lon="4.52687">
        <ele>845</ele>
        <time>2026-05-11T08:57:38.000Z</time>
      </trkpt>
      <trkpt lat="45.29478" lon="4.52685">
        <ele>845.20001220703</ele>
        <time>2026-05-11T08:57:39.000Z</time>
      </trkpt>
      <trkpt lat="45.29479" lon="4.52683">
        <ele>845.40002441406</ele>
        <time>2026-05-11T08:57:40.000Z</time>
      </trkpt>
      <trkpt lat="45.29479" lon="4.52681">
        <ele>845.59997558594</ele>
        <time>2026-05-11T08:57:41.000Z</time>
      </trkpt>
      <trkpt lat="45.2948" lon="4.52678">
        <ele>845.79998779297</ele>
        <time>2026-05-11T08:57:42.000Z</time>
      </trkpt>
      <trkpt lat="45.29481" lon="4.52676">
        <ele>846</ele>
        <time>2026-05-11T08:57:43.000Z</time>
      </trkpt>
      <trkpt lat="45.29481" lon="4.52674">
        <ele>846.20001220703</ele>
        <time>2026-05-11T08:57:44.000Z</time>
      </trkpt>
      <trkpt lat="45.29482" lon="4.52672">
        <ele>846.40002441406</ele>
        <time>2026-05-11T08:57:45.000Z</time>
      </trkpt>
      <trkpt lat="45.29483" lon="4.5267">
        <ele>846.59997558594</ele>
        <time>2026-05-11T08:57:46.000Z</time>
      </trkpt>
      <trkpt lat="45.29483" lon="4.52668">
        <ele>846.79998779297</ele>
        <time>2026-05-11T08:57:47.000Z</time>
      </trkpt>
      <trkpt lat="45.29484" lon="4.52665">
        <ele>847</ele>
        <time>2026-05-11T08:57:48.000Z</time>
      </trkpt>
      <trkpt lat="45.29484" lon="4.52663">
        <ele>847.20001220703</ele>
        <time>2026-05-11T08:57:49.000Z</time>
      </trkpt>
      <trkpt lat="45.29484" lon="4.52661">
        <ele>847.40002441406</ele>
        <time>2026-05-11T08:57:50.000Z</time>
      </trkpt>
      <trkpt lat="45.29484" lon="4.52659">
        <ele>847.40002441406</ele>
        <time>2026-05-11T08:57:51.000Z</time>
      </trkpt>
      <trkpt lat="45.29484" lon="4.52656">
        <ele>847.59997558594</ele>
        <time>2026-05-11T08:57:52.000Z</time>
      </trkpt>
      <trkpt lat="45.29484" lon="4.52653">
        <ele>847.79998779297</ele>
        <time>2026-05-11T08:57:53.000Z</time>
      </trkpt>
      <trkpt lat="45.29484" lon="4.52651">
        <ele>848</ele>
        <time>2026-05-11T08:57:54.000Z</time>
      </trkpt>
      <trkpt lat="45.29484" lon="4.52648">
        <ele>848.20001220703</ele>
        <time>2026-05-11T08:57:55.000Z</time>
      </trkpt>
      <trkpt lat="45.29484" lon="4.52646">
        <ele>848.40002441406</ele>
        <time>2026-05-11T08:57:56.000Z</time>
      </trkpt>
      <trkpt lat="45.29483" lon="4.52644">
        <ele>848.59997558594</ele>
        <time>2026-05-11T08:57:57.000Z</time>
      </trkpt>
      <trkpt lat="45.29483" lon="4.52642">
        <ele>848.79998779297</ele>
        <time>2026-05-11T08:57:58.000Z</time>
      </trkpt>
      <trkpt lat="45.29483" lon="4.52639">
        <ele>848.79998779297</ele>
        <time>2026-05-11T08:57:59.000Z</time>
      </trkpt>
      <trkpt lat="45.29482" lon="4.52637">
        <ele>849</ele>
        <time>2026-05-11T08:58:00.000Z</time>
      </trkpt>
      <trkpt lat="45.29482" lon="4.52635">
        <ele>849.20001220703</ele>
        <time>2026-05-11T08:58:01.000Z</time>
      </trkpt>
      <trkpt lat="45.29482" lon="4.52632">
        <ele>849.40002441406</ele>
        <time>2026-05-11T08:58:02.000Z</time>
      </trkpt>
      <trkpt lat="45.29481" lon="4.5263">
        <ele>849.59997558594</ele>
        <time>2026-05-11T08:58:03.000Z</time>
      </trkpt>
      <trkpt lat="45.2948" lon="4.52628">
        <ele>849.79998779297</ele>
        <time>2026-05-11T08:58:04.000Z</time>
      </trkpt>
      <trkpt lat="45.2948" lon="4.52626">
        <ele>850</ele>
        <time>2026-05-11T08:58:05.000Z</time>
      </trkpt>
      <trkpt lat="45.29479" lon="4.52624">
        <ele>850.20001220703</ele>
        <time>2026-05-11T08:58:06.000Z</time>
      </trkpt>
      <trkpt lat="45.29479" lon="4.52622">
        <ele>850.20001220703</ele>
        <time>2026-05-11T08:58:07.000Z</time>
      </trkpt>
      <trkpt lat="45.29479" lon="4.5262">
        <ele>850.40002441406</ele>
        <time>2026-05-11T08:58:08.000Z</time>
      </trkpt>
      <trkpt lat="45.29478" lon="4.52617">
        <ele>850.59997558594</ele>
        <time>2026-05-11T08:58:09.000Z</time>
      </trkpt>
      <trkpt lat="45.29478" lon="4.52615">
        <ele>850.59997558594</ele>
        <time>2026-05-11T08:58:10.000Z</time>
      </trkpt>
      <trkpt lat="45.29478" lon="4.52612">
        <ele>850.79998779297</ele>
        <time>2026-05-11T08:58:11.000Z</time>
      </trkpt>
      <trkpt lat="45.29477" lon="4.5261">
        <ele>850.79998779297</ele>
        <time>2026-05-11T08:58:12.000Z</time>
      </trkpt>
      <trkpt lat="45.29477" lon="4.52608">
        <ele>851</ele>
        <time>2026-05-11T08:58:13.000Z</time>
      </trkpt>
      <trkpt lat="45.29477" lon="4.52605">
        <ele>851</ele>
        <time>2026-05-11T08:58:14.000Z</time>
      </trkpt>
      <trkpt lat="45.29477" lon="4.52603">
        <ele>851</ele>
        <time>2026-05-11T08:58:15.000Z</time>
      </trkpt>
      <trkpt lat="45.29477" lon="4.52601">
        <ele>851.20001220703</ele>
        <time>2026-05-11T08:58:16.000Z</time>
      </trkpt>
      <trkpt lat="45.29477" lon="4.52599">
        <ele>851.40002441406</ele>
        <time>2026-05-11T08:58:17.000Z</time>
      </trkpt>
      <trkpt lat="45.29476" lon="4.52597">
        <ele>851.59997558594</ele>
        <time>2026-05-11T08:58:18.000Z</time>
      </trkpt>
      <trkpt lat="45.29476" lon="4.52595">
        <ele>851.79998779297</ele>
        <time>2026-05-11T08:58:19.000Z</time>
      </trkpt>
      <trkpt lat="45.29476" lon="4.52592">
        <ele>852</ele>
        <time>2026-05-11T08:58:20.000Z</time>
      </trkpt>
      <trkpt lat="45.29476" lon="4.5259">
        <ele>852.20001220703</ele>
        <time>2026-05-11T08:58:21.000Z</time>
      </trkpt>
      <trkpt lat="45.29475" lon="4.52587">
        <ele>852.40002441406</ele>
        <time>2026-05-11T08:58:22.000Z</time>
      </trkpt>
      <trkpt lat="45.29475" lon="4.52585">
        <ele>852.59997558594</ele>
        <time>2026-05-11T08:58:23.000Z</time>
      </trkpt>
      <trkpt lat="45.29475" lon="4.52582">
        <ele>852.59997558594</ele>
        <time>2026-05-11T08:58:24.000Z</time>
      </trkpt>
      <trkpt lat="45.29475" lon="4.5258">
        <ele>852.79998779297</ele>
        <time>2026-05-11T08:58:25.000Z</time>
      </trkpt>
      <trkpt lat="45.29475" lon="4.52578">
        <ele>853</ele>
        <time>2026-05-11T08:58:26.000Z</time>
      </trkpt>
      <trkpt lat="45.29475" lon="4.52575">
        <ele>853.40002441406</ele>
        <time>2026-05-11T08:58:27.000Z</time>
      </trkpt>
      <trkpt lat="45.29475" lon="4.52573">
        <ele>853.59997558594</ele>
        <time>2026-05-11T08:58:28.000Z</time>
      </trkpt>
      <trkpt lat="45.29475" lon="4.5257">
        <ele>853.79998779297</ele>
        <time>2026-05-11T08:58:29.000Z</time>
      </trkpt>
      <trkpt lat="45.29474" lon="4.52568">
        <ele>854</ele>
        <time>2026-05-11T08:58:30.000Z</time>
      </trkpt>
      <trkpt lat="45.29474" lon="4.52566">
        <ele>854.20001220703</ele>
        <time>2026-05-11T08:58:31.000Z</time>
      </trkpt>
      <trkpt lat="45.29475" lon="4.52563">
        <ele>854.40002441406</ele>
        <time>2026-05-11T08:58:32.000Z</time>
      </trkpt>
      <trkpt lat="45.29475" lon="4.52561">
        <ele>854.59997558594</ele>
        <time>2026-05-11T08:58:33.000Z</time>
      </trkpt>
      <trkpt lat="45.29475" lon="4.52559">
        <ele>854.79998779297</ele>
        <time>2026-05-11T08:58:34.000Z</time>
      </trkpt>
      <trkpt lat="45.29476" lon="4.52557">
        <ele>855</ele>
        <time>2026-05-11T08:58:35.000Z</time>
      </trkpt>
      <trkpt lat="45.29475" lon="4.52555">
        <ele>855.20001220703</ele>
        <time>2026-05-11T08:58:36.000Z</time>
      </trkpt>
      <trkpt lat="45.29476" lon="4.52553">
        <ele>855.40002441406</ele>
        <time>2026-05-11T08:58:37.000Z</time>
      </trkpt>
      <trkpt lat="45.29476" lon="4.52551">
        <ele>855.59997558594</ele>
        <time>2026-05-11T08:58:38.000Z</time>
      </trkpt>
      <trkpt lat="45.29476" lon="4.52548">
        <ele>855.79998779297</ele>
        <time>2026-05-11T08:58:39.000Z</time>
      </trkpt>
      <trkpt lat="45.29476" lon="4.52546">
        <ele>856</ele>
        <time>2026-05-11T08:58:40.000Z</time>
      </trkpt>
      <trkpt lat="45.29477" lon="4.52543">
        <ele>856.20001220703</ele>
        <time>2026-05-11T08:58:41.000Z</time>
      </trkpt>
      <trkpt lat="45.29477" lon="4.52541">
        <ele>856.40002441406</ele>
        <time>2026-05-11T08:58:42.000Z</time>
      </trkpt>
      <trkpt lat="45.29477" lon="4.52539">
        <ele>856.40002441406</ele>
        <time>2026-05-11T08:58:43.000Z</time>
      </trkpt>
      <trkpt lat="45.29478" lon="4.52537">
        <ele>856.59997558594</ele>
        <time>2026-05-11T08:58:44.000Z</time>
      </trkpt>
      <trkpt lat="45.29478" lon="4.52534">
        <ele>856.79998779297</ele>
        <time>2026-05-11T08:58:45.000Z</time>
      </trkpt>
      <trkpt lat="45.29479" lon="4.52532">
        <ele>857</ele>
        <time>2026-05-11T08:58:46.000Z</time>
      </trkpt>
      <trkpt lat="45.29479" lon="4.5253">
        <ele>857.40002441406</ele>
        <time>2026-05-11T08:58:47.000Z</time>
      </trkpt>
      <trkpt lat="45.2948" lon="4.52528">
        <ele>857.59997558594</ele>
        <time>2026-05-11T08:58:48.000Z</time>
      </trkpt>
      <trkpt lat="45.2948" lon="4.52527">
        <ele>858</ele>
        <time>2026-05-11T08:58:49.000Z</time>
      </trkpt>
      <trkpt lat="45.29481" lon="4.52525">
        <ele>858.40002441406</ele>
        <time>2026-05-11T08:58:50.000Z</time>
      </trkpt>
      <trkpt lat="45.29481" lon="4.52523">
        <ele>858.79998779297</ele>
        <time>2026-05-11T08:58:51.000Z</time>
      </trkpt>
      <trkpt lat="45.29482" lon="4.5252">
        <ele>859.40002441406</ele>
        <time>2026-05-11T08:58:52.000Z</time>
      </trkpt>
      <trkpt lat="45.29483" lon="4.52519">
        <ele>859.59997558594</ele>
        <time>2026-05-11T08:58:53.000Z</time>
      </trkpt>
      <trkpt lat="45.29484" lon="4.52517">
        <ele>860</ele>
        <time>2026-05-11T08:58:54.000Z</time>
      </trkpt>
      <trkpt lat="45.29485" lon="4.52515">
        <ele>860.40002441406</ele>
        <time>2026-05-11T08:58:55.000Z</time>
      </trkpt>
      <trkpt lat="45.29485" lon="4.52513">
        <ele>860.79998779297</ele>
        <time>2026-05-11T08:58:56.000Z</time>
      </trkpt>
      <trkpt lat="45.29486" lon="4.52511">
        <ele>861.20001220703</ele>
        <time>2026-05-11T08:58:57.000Z</time>
      </trkpt>
      <trkpt lat="45.29487" lon="4.52509">
        <ele>861.59997558594</ele>
        <time>2026-05-11T08:58:58.000Z</time>
      </trkpt>
      <trkpt lat="45.29487" lon="4.52507">
        <ele>861.79998779297</ele>
        <time>2026-05-11T08:58:59.000Z</time>
      </trkpt>
      <trkpt lat="45.29488" lon="4.52505">
        <ele>862.20001220703</ele>
        <time>2026-05-11T08:59:00.000Z</time>
      </trkpt>
      <trkpt lat="45.29489" lon="4.52503">
        <ele>862.40002441406</ele>
        <time>2026-05-11T08:59:01.000Z</time>
      </trkpt>
      <trkpt lat="45.29489" lon="4.52501">
        <ele>862.59997558594</ele>
        <time>2026-05-11T08:59:02.000Z</time>
      </trkpt>
      <trkpt lat="45.2949" lon="4.52499">
        <ele>862.79998779297</ele>
        <time>2026-05-11T08:59:03.000Z</time>
      </trkpt>
      <trkpt lat="45.29491" lon="4.52497">
        <ele>863</ele>
        <time>2026-05-11T08:59:04.000Z</time>
      </trkpt>
      <trkpt lat="45.29491" lon="4.52495">
        <ele>863.20001220703</ele>
        <time>2026-05-11T08:59:05.000Z</time>
      </trkpt>
      <trkpt lat="45.29492" lon="4.52493">
        <ele>863.40002441406</ele>
        <time>2026-05-11T08:59:06.000Z</time>
      </trkpt>
      <trkpt lat="45.29492" lon="4.52491">
        <ele>863.79998779297</ele>
        <time>2026-05-11T08:59:07.000Z</time>
      </trkpt>
      <trkpt lat="45.29493" lon="4.52488">
        <ele>864.20001220703</ele>
        <time>2026-05-11T08:59:08.000Z</time>
      </trkpt>
      <trkpt lat="45.29493" lon="4.52487">
        <ele>864.40002441406</ele>
        <time>2026-05-11T08:59:09.000Z</time>
      </trkpt>
      <trkpt lat="45.29494" lon="4.52485">
        <ele>864.59997558594</ele>
        <time>2026-05-11T08:59:10.000Z</time>
      </trkpt>
      <trkpt lat="45.29494" lon="4.52482">
        <ele>865</ele>
        <time>2026-05-11T08:59:11.000Z</time>
      </trkpt>
      <trkpt lat="45.29494" lon="4.5248">
        <ele>865.20001220703</ele>
        <time>2026-05-11T08:59:12.000Z</time>
      </trkpt>
      <trkpt lat="45.29495" lon="4.52477">
        <ele>865.59997558594</ele>
        <time>2026-05-11T08:59:13.000Z</time>
      </trkpt>
      <trkpt lat="45.29495" lon="4.52475">
        <ele>865.79998779297</ele>
        <time>2026-05-11T08:59:14.000Z</time>
      </trkpt>
      <trkpt lat="45.29496" lon="4.52473">
        <ele>866</ele>
        <time>2026-05-11T08:59:15.000Z</time>
      </trkpt>
      <trkpt lat="45.29496" lon="4.52471">
        <ele>866.40002441406</ele>
        <time>2026-05-11T08:59:16.000Z</time>
      </trkpt>
      <trkpt lat="45.29497" lon="4.52468">
        <ele>866.59997558594</ele>
        <time>2026-05-11T08:59:17.000Z</time>
      </trkpt>
      <trkpt lat="45.29497" lon="4.52466">
        <ele>866.79998779297</ele>
        <time>2026-05-11T08:59:18.000Z</time>
      </trkpt>
      <trkpt lat="45.29497" lon="4.52464">
        <ele>867</ele>
        <time>2026-05-11T08:59:19.000Z</time>
      </trkpt>
      <trkpt lat="45.29498" lon="4.52461">
        <ele>867.20001220703</ele>
        <time>2026-05-11T08:59:20.000Z</time>
      </trkpt>
      <trkpt lat="45.29499" lon="4.52459">
        <ele>867.59997558594</ele>
        <time>2026-05-11T08:59:21.000Z</time>
      </trkpt>
      <trkpt lat="45.29499" lon="4.52457">
        <ele>867.79998779297</ele>
        <time>2026-05-11T08:59:22.000Z</time>
      </trkpt>
      <trkpt lat="45.295" lon="4.52455">
        <ele>868</ele>
        <time>2026-05-11T08:59:23.000Z</time>
      </trkpt>
      <trkpt lat="45.295" lon="4.52453">
        <ele>868.40002441406</ele>
        <time>2026-05-11T08:59:24.000Z</time>
      </trkpt>
      <trkpt lat="45.29501" lon="4.52451">
        <ele>868.59997558594</ele>
        <time>2026-05-11T08:59:25.000Z</time>
      </trkpt>
      <trkpt lat="45.29502" lon="4.52449">
        <ele>869</ele>
        <time>2026-05-11T08:59:26.000Z</time>
      </trkpt>
      <trkpt lat="45.29503" lon="4.52448">
        <ele>869.40002441406</ele>
        <time>2026-05-11T08:59:27.000Z</time>
      </trkpt>
      <trkpt lat="45.29504" lon="4.52447">
        <ele>869.59997558594</ele>
        <time>2026-05-11T08:59:28.000Z</time>
      </trkpt>
      <trkpt lat="45.29506" lon="4.52448">
        <ele>869.79998779297</ele>
        <time>2026-05-11T08:59:29.000Z</time>
      </trkpt>
      <trkpt lat="45.29507" lon="4.5245">
        <ele>870</ele>
        <time>2026-05-11T08:59:30.000Z</time>
      </trkpt>
      <trkpt lat="45.29507" lon="4.52451">
        <ele>870.20001220703</ele>
        <time>2026-05-11T08:59:31.000Z</time>
      </trkpt>
      <trkpt lat="45.29508" lon="4.52452">
        <ele>870.40002441406</ele>
        <time>2026-05-11T08:59:32.000Z</time>
      </trkpt>
      <trkpt lat="45.29508" lon="4.52453">
        <ele>870.59997558594</ele>
        <time>2026-05-11T08:59:33.000Z</time>
      </trkpt>
      <trkpt lat="45.29508" lon="4.52453">
        <ele>870.59997558594</ele>
        <time>2026-05-11T08:59:34.000Z</time>
      </trkpt>
      <trkpt lat="45.29507" lon="4.52478">
        <ele>871</ele>
        <time>2026-05-11T09:04:07.000Z</time>
      </trkpt>
      <trkpt lat="45.29507" lon="4.52481">
        <ele>870.79998779297</ele>
        <time>2026-05-11T09:04:08.000Z</time>
      </trkpt>
      <trkpt lat="45.29507" lon="4.52484">
        <ele>870.79998779297</ele>
        <time>2026-05-11T09:04:09.000Z</time>
      </trkpt>
      <trkpt lat="45.29507" lon="4.52485">
        <ele>871</ele>
        <time>2026-05-11T09:04:10.000Z</time>
      </trkpt>
      <trkpt lat="45.29509" lon="4.52487">
        <ele>871</ele>
        <time>2026-05-11T09:04:11.000Z</time>
      </trkpt>
      <trkpt lat="45.2951" lon="4.52488">
        <ele>871</ele>
        <time>2026-05-11T09:04:12.000Z</time>
      </trkpt>
      <trkpt lat="45.29511" lon="4.5249">
        <ele>871.20001220703</ele>
        <time>2026-05-11T09:04:13.000Z</time>
      </trkpt>
      <trkpt lat="45.29513" lon="4.52491">
        <ele>871.20001220703</ele>
        <time>2026-05-11T09:04:14.000Z</time>
      </trkpt>
      <trkpt lat="45.29514" lon="4.52493">
        <ele>871.20001220703</ele>
        <time>2026-05-11T09:04:15.000Z</time>
      </trkpt>
      <trkpt lat="45.29516" lon="4.52493">
        <ele>871.20001220703</ele>
        <time>2026-05-11T09:04:16.000Z</time>
      </trkpt>
      <trkpt lat="45.29517" lon="4.52494">
        <ele>871.40002441406</ele>
        <time>2026-05-11T09:04:17.000Z</time>
      </trkpt>
      <trkpt lat="45.29519" lon="4.52495">
        <ele>871.59997558594</ele>
        <time>2026-05-11T09:04:18.000Z</time>
      </trkpt>
      <trkpt lat="45.29521" lon="4.52495">
        <ele>871.59997558594</ele>
        <time>2026-05-11T09:04:19.000Z</time>
      </trkpt>
      <trkpt lat="45.29523" lon="4.52495">
        <ele>871.79998779297</ele>
        <time>2026-05-11T09:04:20.000Z</time>
      </trkpt>
      <trkpt lat="45.29525" lon="4.52495">
        <ele>871.79998779297</ele>
        <time>2026-05-11T09:04:21.000Z</time>
      </trkpt>
      <trkpt lat="45.29527" lon="4.52494">
        <ele>871.79998779297</ele>
        <time>2026-05-11T09:04:22.000Z</time>
      </trkpt>
      <trkpt lat="45.29528" lon="4.52494">
        <ele>871.79998779297</ele>
        <time>2026-05-11T09:04:23.000Z</time>
      </trkpt>
      <trkpt lat="45.2953" lon="4.52493">
        <ele>871.79998779297</ele>
        <time>2026-05-11T09:04:24.000Z</time>
      </trkpt>
      <trkpt lat="45.29532" lon="4.52492">
        <ele>871.59997558594</ele>
        <time>2026-05-11T09:04:25.000Z</time>
      </trkpt>
      <trkpt lat="45.29533" lon="4.5249">
        <ele>871.59997558594</ele>
        <time>2026-05-11T09:04:26.000Z</time>
      </trkpt>
      <trkpt lat="45.29535" lon="4.52489">
        <ele>871.59997558594</ele>
        <time>2026-05-11T09:04:27.000Z</time>
      </trkpt>
      <trkpt lat="45.29536" lon="4.52488">
        <ele>871.59997558594</ele>
        <time>2026-05-11T09:04:28.000Z</time>
      </trkpt>
      <trkpt lat="45.29538" lon="4.52487">
        <ele>871.59997558594</ele>
        <time>2026-05-11T09:04:29.000Z</time>
      </trkpt>
      <trkpt lat="45.2954" lon="4.52486">
        <ele>871.79998779297</ele>
        <time>2026-05-11T09:04:30.000Z</time>
      </trkpt>
      <trkpt lat="45.29542" lon="4.52485">
        <ele>871.79998779297</ele>
        <time>2026-05-11T09:04:31.000Z</time>
      </trkpt>
      <trkpt lat="45.29544" lon="4.52484">
        <ele>871.79998779297</ele>
        <time>2026-05-11T09:04:32.000Z</time>
      </trkpt>
      <trkpt lat="45.29546" lon="4.52484">
        <ele>871.79998779297</ele>
        <time>2026-05-11T09:04:33.000Z</time>
      </trkpt>
      <trkpt lat="45.29549" lon="4.52484">
        <ele>871.79998779297</ele>
        <time>2026-05-11T09:04:34.000Z</time>
      </trkpt>
      <trkpt lat="45.29552" lon="4.52484">
        <ele>871.79998779297</ele>
        <time>2026-05-11T09:04:35.000Z</time>
      </trkpt>
      <trkpt lat="45.29555" lon="4.52484">
        <ele>871.59997558594</ele>
        <time>2026-05-11T09:04:36.000Z</time>
      </trkpt>
      <trkpt lat="45.29558" lon="4.52485">
        <ele>871.40002441406</ele>
        <time>2026-05-11T09:04:37.000Z</time>
      </trkpt>
      <trkpt lat="45.29561" lon="4.52486">
        <ele>871.40002441406</ele>
        <time>2026-05-11T09:04:38.000Z</time>
      </trkpt>
      <trkpt lat="45.29564" lon="4.52487">
        <ele>871.20001220703</ele>
        <time>2026-05-11T09:04:39.000Z</time>
      </trkpt>
      <trkpt lat="45.29567" lon="4.52488">
        <ele>871.20001220703</ele>
        <time>2026-05-11T09:04:40.000Z</time>
      </trkpt>
      <trkpt lat="45.2957" lon="4.5249">
        <ele>871</ele>
        <time>2026-05-11T09:04:41.000Z</time>
      </trkpt>
      <trkpt lat="45.29573" lon="4.52492">
        <ele>871</ele>
        <time>2026-05-11T09:04:42.000Z</time>
      </trkpt>
      <trkpt lat="45.29577" lon="4.52494">
        <ele>871</ele>
        <time>2026-05-11T09:04:43.000Z</time>
      </trkpt>
      <trkpt lat="45.2958" lon="4.52496">
        <ele>870.79998779297</ele>
        <time>2026-05-11T09:04:44.000Z</time>
      </trkpt>
      <trkpt lat="45.29583" lon="4.52498">
        <ele>870.79998779297</ele>
        <time>2026-05-11T09:04:45.000Z</time>
      </trkpt>
      <trkpt lat="45.29586" lon="4.525">
        <ele>870.59997558594</ele>
        <time>2026-05-11T09:04:46.000Z</time>
      </trkpt>
      <trkpt lat="45.2959" lon="4.52502">
        <ele>870.59997558594</ele>
        <time>2026-05-11T09:04:47.000Z</time>
      </trkpt>
      <trkpt lat="45.29594" lon="4.52504">
        <ele>870.40002441406</ele>
        <time>2026-05-11T09:04:48.000Z</time>
      </trkpt>
      <trkpt lat="45.29598" lon="4.52505">
        <ele>870.40002441406</ele>
        <time>2026-05-11T09:04:49.000Z</time>
      </trkpt>
      <trkpt lat="45.29602" lon="4.52507">
        <ele>870.20001220703</ele>
        <time>2026-05-11T09:04:50.000Z</time>
      </trkpt>
      <trkpt lat="45.29605" lon="4.52509">
        <ele>870</ele>
        <time>2026-05-11T09:04:51.000Z</time>
      </trkpt>
      <trkpt lat="45.29608" lon="4.5251">
        <ele>869.79998779297</ele>
        <time>2026-05-11T09:04:52.000Z</time>
      </trkpt>
      <trkpt lat="45.29611" lon="4.52511">
        <ele>869.59997558594</ele>
        <time>2026-05-11T09:04:53.000Z</time>
      </trkpt>
      <trkpt lat="45.29614" lon="4.52513">
        <ele>869.40002441406</ele>
        <time>2026-05-11T09:04:54.000Z</time>
      </trkpt>
      <trkpt lat="45.29616" lon="4.52514">
        <ele>869.20001220703</ele>
        <time>2026-05-11T09:04:55.000Z</time>
      </trkpt>
      <trkpt lat="45.29618" lon="4.52515">
        <ele>869</ele>
        <time>2026-05-11T09:04:56.000Z</time>
      </trkpt>
      <trkpt lat="45.29621" lon="4.52516">
        <ele>868.79998779297</ele>
        <time>2026-05-11T09:04:57.000Z</time>
      </trkpt>
      <trkpt lat="45.29624" lon="4.52515">
        <ele>868.59997558594</ele>
        <time>2026-05-11T09:04:58.000Z</time>
      </trkpt>
      <trkpt lat="45.29627" lon="4.52512">
        <ele>868.40002441406</ele>
        <time>2026-05-11T09:04:59.000Z</time>
      </trkpt>
      <trkpt lat="45.29629" lon="4.52509">
        <ele>868.20001220703</ele>
        <time>2026-05-11T09:05:00.000Z</time>
      </trkpt>
      <trkpt lat="45.2963" lon="4.52505">
        <ele>868</ele>
        <time>2026-05-11T09:05:01.000Z</time>
      </trkpt>
      <trkpt lat="45.2963" lon="4.52502">
        <ele>868</ele>
        <time>2026-05-11T09:05:02.000Z</time>
      </trkpt>
      <trkpt lat="45.2963" lon="4.52499">
        <ele>868</ele>
        <time>2026-05-11T09:05:03.000Z</time>
      </trkpt>
      <trkpt lat="45.2963" lon="4.52496">
        <ele>868</ele>
        <time>2026-05-11T09:05:04.000Z</time>
      </trkpt>
      <trkpt lat="45.2963" lon="4.52492">
        <ele>868.20001220703</ele>
        <time>2026-05-11T09:05:05.000Z</time>
      </trkpt>
      <trkpt lat="45.2963" lon="4.5249">
        <ele>868.20001220703</ele>
        <time>2026-05-11T09:05:06.000Z</time>
      </trkpt>
      <trkpt lat="45.29631" lon="4.52487">
        <ele>868.20001220703</ele>
        <time>2026-05-11T09:05:07.000Z</time>
      </trkpt>
      <trkpt lat="45.29631" lon="4.52484">
        <ele>868.40002441406</ele>
        <time>2026-05-11T09:05:08.000Z</time>
      </trkpt>
      <trkpt lat="45.29632" lon="4.52481">
        <ele>868.59997558594</ele>
        <time>2026-05-11T09:05:09.000Z</time>
      </trkpt>
      <trkpt lat="45.29633" lon="4.52479">
        <ele>868.59997558594</ele>
        <time>2026-05-11T09:05:10.000Z</time>
      </trkpt>
      <trkpt lat="45.29633" lon="4.52476">
        <ele>868.79998779297</ele>
        <time>2026-05-11T09:05:11.000Z</time>
      </trkpt>
      <trkpt lat="45.29634" lon="4.52473">
        <ele>869</ele>
        <time>2026-05-11T09:05:12.000Z</time>
      </trkpt>
      <trkpt lat="45.29635" lon="4.52471">
        <ele>869.20001220703</ele>
        <time>2026-05-11T09:05:13.000Z</time>
      </trkpt>
      <trkpt lat="45.29636" lon="4.52468">
        <ele>869.40002441406</ele>
        <time>2026-05-11T09:05:14.000Z</time>
      </trkpt>
      <trkpt lat="45.29637" lon="4.52466">
        <ele>869.59997558594</ele>
        <time>2026-05-11T09:05:15.000Z</time>
      </trkpt>
      <trkpt lat="45.29638" lon="4.52463">
        <ele>869.59997558594</ele>
        <time>2026-05-11T09:05:16.000Z</time>
      </trkpt>
      <trkpt lat="45.29639" lon="4.52461">
        <ele>870</ele>
        <time>2026-05-11T09:05:17.000Z</time>
      </trkpt>
      <trkpt lat="45.29641" lon="4.52459">
        <ele>870</ele>
        <time>2026-05-11T09:05:18.000Z</time>
      </trkpt>
      <trkpt lat="45.29642" lon="4.52457">
        <ele>870.20001220703</ele>
        <time>2026-05-11T09:05:19.000Z</time>
      </trkpt>
      <trkpt lat="45.29643" lon="4.52455">
        <ele>870.40002441406</ele>
        <time>2026-05-11T09:05:20.000Z</time>
      </trkpt>
      <trkpt lat="45.29644" lon="4.52453">
        <ele>870.59997558594</ele>
        <time>2026-05-11T09:05:21.000Z</time>
      </trkpt>
      <trkpt lat="45.29646" lon="4.52451">
        <ele>870.79998779297</ele>
        <time>2026-05-11T09:05:22.000Z</time>
      </trkpt>
      <trkpt lat="45.29647" lon="4.52449">
        <ele>871</ele>
        <time>2026-05-11T09:05:23.000Z</time>
      </trkpt>
      <trkpt lat="45.29648" lon="4.52448">
        <ele>871.20001220703</ele>
        <time>2026-05-11T09:05:24.000Z</time>
      </trkpt>
      <trkpt lat="45.29649" lon="4.52446">
        <ele>871.40002441406</ele>
        <time>2026-05-11T09:05:25.000Z</time>
      </trkpt>
      <trkpt lat="45.2965" lon="4.52444">
        <ele>871.59997558594</ele>
        <time>2026-05-11T09:05:26.000Z</time>
      </trkpt>
      <trkpt lat="45.29652" lon="4.52443">
        <ele>871.79998779297</ele>
        <time>2026-05-11T09:05:27.000Z</time>
      </trkpt>
      <trkpt lat="45.29653" lon="4.52441">
        <ele>872</ele>
        <time>2026-05-11T09:05:28.000Z</time>
      </trkpt>
      <trkpt lat="45.29655" lon="4.5244">
        <ele>872.20001220703</ele>
        <time>2026-05-11T09:05:29.000Z</time>
      </trkpt>
      <trkpt lat="45.29656" lon="4.52439">
        <ele>872.40002441406</ele>
        <time>2026-05-11T09:05:30.000Z</time>
      </trkpt>
      <trkpt lat="45.29658" lon="4.52437">
        <ele>872.59997558594</ele>
        <time>2026-05-11T09:05:31.000Z</time>
      </trkpt>
      <trkpt lat="45.2966" lon="4.52436">
        <ele>872.79998779297</ele>
        <time>2026-05-11T09:05:32.000Z</time>
      </trkpt>
      <trkpt lat="45.29661" lon="4.52434">
        <ele>873</ele>
        <time>2026-05-11T09:05:33.000Z</time>
      </trkpt>
      <trkpt lat="45.29662" lon="4.52432">
        <ele>873.20001220703</ele>
        <time>2026-05-11T09:05:34.000Z</time>
      </trkpt>
      <trkpt lat="45.29663" lon="4.52429">
        <ele>873.40002441406</ele>
        <time>2026-05-11T09:05:35.000Z</time>
      </trkpt>
      <trkpt lat="45.29665" lon="4.52428">
        <ele>873.59997558594</ele>
        <time>2026-05-11T09:05:36.000Z</time>
      </trkpt>
      <trkpt lat="45.29666" lon="4.52426">
        <ele>873.79998779297</ele>
        <time>2026-05-11T09:05:37.000Z</time>
      </trkpt>
      <trkpt lat="45.29667" lon="4.52424">
        <ele>874</ele>
        <time>2026-05-11T09:05:38.000Z</time>
      </trkpt>
      <trkpt lat="45.29668" lon="4.52423">
        <ele>874.20001220703</ele>
        <time>2026-05-11T09:05:39.000Z</time>
      </trkpt>
      <trkpt lat="45.2967" lon="4.52421">
        <ele>874.20001220703</ele>
        <time>2026-05-11T09:05:40.000Z</time>
      </trkpt>
      <trkpt lat="45.29671" lon="4.52419">
        <ele>874.40002441406</ele>
        <time>2026-05-11T09:05:41.000Z</time>
      </trkpt>
      <trkpt lat="45.29673" lon="4.52418">
        <ele>874.59997558594</ele>
        <time>2026-05-11T09:05:42.000Z</time>
      </trkpt>
      <trkpt lat="45.29674" lon="4.52416">
        <ele>874.79998779297</ele>
        <time>2026-05-11T09:05:43.000Z</time>
      </trkpt>
      <trkpt lat="45.29675" lon="4.52414">
        <ele>875</ele>
        <time>2026-05-11T09:05:44.000Z</time>
      </trkpt>
      <trkpt lat="45.29676" lon="4.52412">
        <ele>875</ele>
        <time>2026-05-11T09:05:45.000Z</time>
      </trkpt>
      <trkpt lat="45.29678" lon="4.5241">
        <ele>875.20001220703</ele>
        <time>2026-05-11T09:05:46.000Z</time>
      </trkpt>
      <trkpt lat="45.29679" lon="4.52409">
        <ele>875.20001220703</ele>
        <time>2026-05-11T09:05:47.000Z</time>
      </trkpt>
      <trkpt lat="45.2968" lon="4.52407">
        <ele>875.40002441406</ele>
        <time>2026-05-11T09:05:48.000Z</time>
      </trkpt>
      <trkpt lat="45.29682" lon="4.52405">
        <ele>875.59997558594</ele>
        <time>2026-05-11T09:05:49.000Z</time>
      </trkpt>
      <trkpt lat="45.29683" lon="4.52403">
        <ele>875.79998779297</ele>
        <time>2026-05-11T09:05:50.000Z</time>
      </trkpt>
      <trkpt lat="45.29685" lon="4.52402">
        <ele>875.79998779297</ele>
        <time>2026-05-11T09:05:51.000Z</time>
      </trkpt>
      <trkpt lat="45.29686" lon="4.524">
        <ele>876</ele>
        <time>2026-05-11T09:05:52.000Z</time>
      </trkpt>
      <trkpt lat="45.29688" lon="4.52399">
        <ele>876.20001220703</ele>
        <time>2026-05-11T09:05:53.000Z</time>
      </trkpt>
      <trkpt lat="45.29689" lon="4.52398">
        <ele>876.40002441406</ele>
        <time>2026-05-11T09:05:54.000Z</time>
      </trkpt>
      <trkpt lat="45.29691" lon="4.52396">
        <ele>876.40002441406</ele>
        <time>2026-05-11T09:05:55.000Z</time>
      </trkpt>
      <trkpt lat="45.29692" lon="4.52395">
        <ele>876.59997558594</ele>
        <time>2026-05-11T09:05:56.000Z</time>
      </trkpt>
      <trkpt lat="45.29694" lon="4.52394">
        <ele>876.59997558594</ele>
        <time>2026-05-11T09:05:57.000Z</time>
      </trkpt>
      <trkpt lat="45.29695" lon="4.52393">
        <ele>876.79998779297</ele>
        <time>2026-05-11T09:05:58.000Z</time>
      </trkpt>
      <trkpt lat="45.29697" lon="4.52392">
        <ele>876.79998779297</ele>
        <time>2026-05-11T09:05:59.000Z</time>
      </trkpt>
      <trkpt lat="45.29698" lon="4.52392">
        <ele>877</ele>
        <time>2026-05-11T09:06:00.000Z</time>
      </trkpt>
      <trkpt lat="45.297" lon="4.52391">
        <ele>877</ele>
        <time>2026-05-11T09:06:01.000Z</time>
      </trkpt>
      <trkpt lat="45.29701" lon="4.52389">
        <ele>877.20001220703</ele>
        <time>2026-05-11T09:06:02.000Z</time>
      </trkpt>
      <trkpt lat="45.29703" lon="4.52388">
        <ele>877.20001220703</ele>
        <time>2026-05-11T09:06:03.000Z</time>
      </trkpt>
      <trkpt lat="45.29704" lon="4.52386">
        <ele>877.40002441406</ele>
        <time>2026-05-11T09:06:04.000Z</time>
      </trkpt>
      <trkpt lat="45.29705" lon="4.52385">
        <ele>877.59997558594</ele>
        <time>2026-05-11T09:06:05.000Z</time>
      </trkpt>
      <trkpt lat="45.29707" lon="4.52384">
        <ele>877.59997558594</ele>
        <time>2026-05-11T09:06:06.000Z</time>
      </trkpt>
      <trkpt lat="45.29708" lon="4.52383">
        <ele>877.79998779297</ele>
        <time>2026-05-11T09:06:07.000Z</time>
      </trkpt>
      <trkpt lat="45.2971" lon="4.52382">
        <ele>878</ele>
        <time>2026-05-11T09:06:08.000Z</time>
      </trkpt>
      <trkpt lat="45.29711" lon="4.52381">
        <ele>878</ele>
        <time>2026-05-11T09:06:09.000Z</time>
      </trkpt>
      <trkpt lat="45.29712" lon="4.5238">
        <ele>878.20001220703</ele>
        <time>2026-05-11T09:06:10.000Z</time>
      </trkpt>
      <trkpt lat="45.29714" lon="4.52379">
        <ele>878.20001220703</ele>
        <time>2026-05-11T09:06:11.000Z</time>
      </trkpt>
      <trkpt lat="45.29715" lon="4.52378">
        <ele>878.40002441406</ele>
        <time>2026-05-11T09:06:12.000Z</time>
      </trkpt>
      <trkpt lat="45.29716" lon="4.52377">
        <ele>878.59997558594</ele>
        <time>2026-05-11T09:06:13.000Z</time>
      </trkpt>
      <trkpt lat="45.29717" lon="4.52375">
        <ele>878.59997558594</ele>
        <time>2026-05-11T09:06:14.000Z</time>
      </trkpt>
      <trkpt lat="45.29719" lon="4.52374">
        <ele>878.79998779297</ele>
        <time>2026-05-11T09:06:15.000Z</time>
      </trkpt>
      <trkpt lat="45.2972" lon="4.52372">
        <ele>879</ele>
        <time>2026-05-11T09:06:16.000Z</time>
      </trkpt>
      <trkpt lat="45.29721" lon="4.5237">
        <ele>879</ele>
        <time>2026-05-11T09:06:17.000Z</time>
      </trkpt>
      <trkpt lat="45.29723" lon="4.52369">
        <ele>879.20001220703</ele>
        <time>2026-05-11T09:06:18.000Z</time>
      </trkpt>
      <trkpt lat="45.29724" lon="4.52367">
        <ele>879.20001220703</ele>
        <time>2026-05-11T09:06:19.000Z</time>
      </trkpt>
      <trkpt lat="45.29726" lon="4.52365">
        <ele>879.40002441406</ele>
        <time>2026-05-11T09:06:20.000Z</time>
      </trkpt>
      <trkpt lat="45.29727" lon="4.52364">
        <ele>879.40002441406</ele>
        <time>2026-05-11T09:06:21.000Z</time>
      </trkpt>
      <trkpt lat="45.29728" lon="4.52362">
        <ele>879.59997558594</ele>
        <time>2026-05-11T09:06:22.000Z</time>
      </trkpt>
      <trkpt lat="45.2973" lon="4.5236">
        <ele>879.59997558594</ele>
        <time>2026-05-11T09:06:23.000Z</time>
      </trkpt>
      <trkpt lat="45.29731" lon="4.52359">
        <ele>879.79998779297</ele>
        <time>2026-05-11T09:06:24.000Z</time>
      </trkpt>
      <trkpt lat="45.29732" lon="4.52357">
        <ele>880</ele>
        <time>2026-05-11T09:06:25.000Z</time>
      </trkpt>
      <trkpt lat="45.29733" lon="4.52356">
        <ele>880</ele>
        <time>2026-05-11T09:06:26.000Z</time>
      </trkpt>
      <trkpt lat="45.29735" lon="4.52354">
        <ele>880.20001220703</ele>
        <time>2026-05-11T09:06:27.000Z</time>
      </trkpt>
      <trkpt lat="45.29736" lon="4.52352">
        <ele>880.20001220703</ele>
        <time>2026-05-11T09:06:28.000Z</time>
      </trkpt>
      <trkpt lat="45.29737" lon="4.5235">
        <ele>880.40002441406</ele>
        <time>2026-05-11T09:06:29.000Z</time>
      </trkpt>
      <trkpt lat="45.29738" lon="4.52348">
        <ele>880.59997558594</ele>
        <time>2026-05-11T09:06:30.000Z</time>
      </trkpt>
      <trkpt lat="45.29739" lon="4.52346">
        <ele>880.59997558594</ele>
        <time>2026-05-11T09:06:31.000Z</time>
      </trkpt>
      <trkpt lat="45.29741" lon="4.52343">
        <ele>880.79998779297</ele>
        <time>2026-05-11T09:06:32.000Z</time>
      </trkpt>
      <trkpt lat="45.29741" lon="4.52341">
        <ele>881</ele>
        <time>2026-05-11T09:06:33.000Z</time>
      </trkpt>
      <trkpt lat="45.29742" lon="4.52339">
        <ele>881</ele>
        <time>2026-05-11T09:06:34.000Z</time>
      </trkpt>
      <trkpt lat="45.29743" lon="4.52337">
        <ele>881.20001220703</ele>
        <time>2026-05-11T09:06:35.000Z</time>
      </trkpt>
      <trkpt lat="45.29743" lon="4.52335">
        <ele>881.20001220703</ele>
        <time>2026-05-11T09:06:36.000Z</time>
      </trkpt>
      <trkpt lat="45.29744" lon="4.52333">
        <ele>881.40002441406</ele>
        <time>2026-05-11T09:06:37.000Z</time>
      </trkpt>
      <trkpt lat="45.29745" lon="4.52331">
        <ele>881.40002441406</ele>
        <time>2026-05-11T09:06:38.000Z</time>
      </trkpt>
      <trkpt lat="45.29747" lon="4.52329">
        <ele>881.59997558594</ele>
        <time>2026-05-11T09:06:39.000Z</time>
      </trkpt>
      <trkpt lat="45.29748" lon="4.52328">
        <ele>881.59997558594</ele>
        <time>2026-05-11T09:06:40.000Z</time>
      </trkpt>
      <trkpt lat="45.29749" lon="4.52326">
        <ele>881.79998779297</ele>
        <time>2026-05-11T09:06:41.000Z</time>
      </trkpt>
      <trkpt lat="45.2975" lon="4.52324">
        <ele>882</ele>
        <time>2026-05-11T09:06:42.000Z</time>
      </trkpt>
      <trkpt lat="45.29751" lon="4.52323">
        <ele>882</ele>
        <time>2026-05-11T09:06:43.000Z</time>
      </trkpt>
      <trkpt lat="45.29752" lon="4.52321">
        <ele>882.20001220703</ele>
        <time>2026-05-11T09:06:44.000Z</time>
      </trkpt>
      <trkpt lat="45.29753" lon="4.52319">
        <ele>882.20001220703</ele>
        <time>2026-05-11T09:06:45.000Z</time>
      </trkpt>
      <trkpt lat="45.29754" lon="4.52317">
        <ele>882.40002441406</ele>
        <time>2026-05-11T09:06:46.000Z</time>
      </trkpt>
      <trkpt lat="45.29755" lon="4.52316">
        <ele>882.59997558594</ele>
        <time>2026-05-11T09:06:47.000Z</time>
      </trkpt>
      <trkpt lat="45.29757" lon="4.52314">
        <ele>882.59997558594</ele>
        <time>2026-05-11T09:06:48.000Z</time>
      </trkpt>
      <trkpt lat="45.29758" lon="4.52312">
        <ele>882.79998779297</ele>
        <time>2026-05-11T09:06:49.000Z</time>
      </trkpt>
      <trkpt lat="45.29758" lon="4.5231">
        <ele>882.79998779297</ele>
        <time>2026-05-11T09:06:50.000Z</time>
      </trkpt>
      <trkpt lat="45.2976" lon="4.52309">
        <ele>882.79998779297</ele>
        <time>2026-05-11T09:06:51.000Z</time>
      </trkpt>
      <trkpt lat="45.29761" lon="4.52308">
        <ele>883</ele>
        <time>2026-05-11T09:06:52.000Z</time>
      </trkpt>
      <trkpt lat="45.29762" lon="4.52306">
        <ele>883.20001220703</ele>
        <time>2026-05-11T09:06:53.000Z</time>
      </trkpt>
      <trkpt lat="45.29763" lon="4.52304">
        <ele>883.20001220703</ele>
        <time>2026-05-11T09:06:54.000Z</time>
      </trkpt>
      <trkpt lat="45.29765" lon="4.52303">
        <ele>883.40002441406</ele>
        <time>2026-05-11T09:06:55.000Z</time>
      </trkpt>
      <trkpt lat="45.29766" lon="4.52301">
        <ele>883.40002441406</ele>
        <time>2026-05-11T09:06:56.000Z</time>
      </trkpt>
      <trkpt lat="45.29767" lon="4.523">
        <ele>883.59997558594</ele>
        <time>2026-05-11T09:06:57.000Z</time>
      </trkpt>
      <trkpt lat="45.29768" lon="4.52299">
        <ele>883.59997558594</ele>
        <time>2026-05-11T09:06:58.000Z</time>
      </trkpt>
      <trkpt lat="45.29769" lon="4.52297">
        <ele>883.59997558594</ele>
        <time>2026-05-11T09:06:59.000Z</time>
      </trkpt>
      <trkpt lat="45.2977" lon="4.52296">
        <ele>883.79998779297</ele>
        <time>2026-05-11T09:07:00.000Z</time>
      </trkpt>
      <trkpt lat="45.29771" lon="4.52294">
        <ele>883.79998779297</ele>
        <time>2026-05-11T09:07:01.000Z</time>
      </trkpt>
      <trkpt lat="45.29772" lon="4.52292">
        <ele>884</ele>
        <time>2026-05-11T09:07:02.000Z</time>
      </trkpt>
      <trkpt lat="45.29773" lon="4.52289">
        <ele>884</ele>
        <time>2026-05-11T09:07:03.000Z</time>
      </trkpt>
      <trkpt lat="45.29774" lon="4.52287">
        <ele>884.20001220703</ele>
        <time>2026-05-11T09:07:04.000Z</time>
      </trkpt>
      <trkpt lat="45.29774" lon="4.52286">
        <ele>884.20001220703</ele>
        <time>2026-05-11T09:07:05.000Z</time>
      </trkpt>
      <trkpt lat="45.29775" lon="4.52284">
        <ele>884.40002441406</ele>
        <time>2026-05-11T09:07:06.000Z</time>
      </trkpt>
      <trkpt lat="45.29775" lon="4.52282">
        <ele>884.59997558594</ele>
        <time>2026-05-11T09:07:07.000Z</time>
      </trkpt>
      <trkpt lat="45.29776" lon="4.52281">
        <ele>884.59997558594</ele>
        <time>2026-05-11T09:07:08.000Z</time>
      </trkpt>
      <trkpt lat="45.29777" lon="4.52279">
        <ele>884.79998779297</ele>
        <time>2026-05-11T09:07:09.000Z</time>
      </trkpt>
      <trkpt lat="45.29779" lon="4.52277">
        <ele>884.79998779297</ele>
        <time>2026-05-11T09:07:10.000Z</time>
      </trkpt>
      <trkpt lat="45.29779" lon="4.52275">
        <ele>885</ele>
        <time>2026-05-11T09:07:11.000Z</time>
      </trkpt>
      <trkpt lat="45.2978" lon="4.52273">
        <ele>885</ele>
        <time>2026-05-11T09:07:12.000Z</time>
      </trkpt>
      <trkpt lat="45.29781" lon="4.52271">
        <ele>885.20001220703</ele>
        <time>2026-05-11T09:07:13.000Z</time>
      </trkpt>
      <trkpt lat="45.29782" lon="4.52269">
        <ele>885.20001220703</ele>
        <time>2026-05-11T09:07:14.000Z</time>
      </trkpt>
      <trkpt lat="45.29783" lon="4.52267">
        <ele>885.20001220703</ele>
        <time>2026-05-11T09:07:15.000Z</time>
      </trkpt>
      <trkpt lat="45.29783" lon="4.52265">
        <ele>885.40002441406</ele>
        <time>2026-05-11T09:07:16.000Z</time>
      </trkpt>
      <trkpt lat="45.29784" lon="4.52263">
        <ele>885.40002441406</ele>
        <time>2026-05-11T09:07:17.000Z</time>
      </trkpt>
      <trkpt lat="45.29785" lon="4.5226">
        <ele>885.59997558594</ele>
        <time>2026-05-11T09:07:18.000Z</time>
      </trkpt>
      <trkpt lat="45.29787" lon="4.52258">
        <ele>885.79998779297</ele>
        <time>2026-05-11T09:07:19.000Z</time>
      </trkpt>
      <trkpt lat="45.29788" lon="4.52256">
        <ele>885.79998779297</ele>
        <time>2026-05-11T09:07:20.000Z</time>
      </trkpt>
      <trkpt lat="45.29789" lon="4.52254">
        <ele>886</ele>
        <time>2026-05-11T09:07:21.000Z</time>
      </trkpt>
      <trkpt lat="45.29789" lon="4.52252">
        <ele>886</ele>
        <time>2026-05-11T09:07:22.000Z</time>
      </trkpt>
      <trkpt lat="45.2979" lon="4.5225">
        <ele>886.20001220703</ele>
        <time>2026-05-11T09:07:23.000Z</time>
      </trkpt>
      <trkpt lat="45.29791" lon="4.52248">
        <ele>886.20001220703</ele>
        <time>2026-05-11T09:07:24.000Z</time>
      </trkpt>
      <trkpt lat="45.29792" lon="4.52246">
        <ele>886.40002441406</ele>
        <time>2026-05-11T09:07:25.000Z</time>
      </trkpt>
      <trkpt lat="45.29793" lon="4.52244">
        <ele>886.40002441406</ele>
        <time>2026-05-11T09:07:26.000Z</time>
      </trkpt>
      <trkpt lat="45.29794" lon="4.52242">
        <ele>886.59997558594</ele>
        <time>2026-05-11T09:07:27.000Z</time>
      </trkpt>
      <trkpt lat="45.29795" lon="4.52241">
        <ele>886.59997558594</ele>
        <time>2026-05-11T09:07:28.000Z</time>
      </trkpt>
      <trkpt lat="45.29797" lon="4.5224">
        <ele>886.79998779297</ele>
        <time>2026-05-11T09:07:29.000Z</time>
      </trkpt>
      <trkpt lat="45.29798" lon="4.52238">
        <ele>887</ele>
        <time>2026-05-11T09:07:30.000Z</time>
      </trkpt>
      <trkpt lat="45.29799" lon="4.52237">
        <ele>887</ele>
        <time>2026-05-11T09:07:31.000Z</time>
      </trkpt>
      <trkpt lat="45.29801" lon="4.52235">
        <ele>887.20001220703</ele>
        <time>2026-05-11T09:07:32.000Z</time>
      </trkpt>
      <trkpt lat="45.29803" lon="4.52234">
        <ele>887.20001220703</ele>
        <time>2026-05-11T09:07:33.000Z</time>
      </trkpt>
      <trkpt lat="45.29804" lon="4.52233">
        <ele>887.40002441406</ele>
        <time>2026-05-11T09:07:34.000Z</time>
      </trkpt>
      <trkpt lat="45.29805" lon="4.52232">
        <ele>887.40002441406</ele>
        <time>2026-05-11T09:07:35.000Z</time>
      </trkpt>
      <trkpt lat="45.29807" lon="4.52231">
        <ele>887.59997558594</ele>
        <time>2026-05-11T09:07:36.000Z</time>
      </trkpt>
      <trkpt lat="45.29808" lon="4.52229">
        <ele>887.59997558594</ele>
        <time>2026-05-11T09:07:37.000Z</time>
      </trkpt>
      <trkpt lat="45.29809" lon="4.52229">
        <ele>887.59997558594</ele>
        <time>2026-05-11T09:07:38.000Z</time>
      </trkpt>
      <trkpt lat="45.2981" lon="4.52228">
        <ele>887.79998779297</ele>
        <time>2026-05-11T09:07:39.000Z</time>
      </trkpt>
      <trkpt lat="45.29812" lon="4.52227">
        <ele>887.79998779297</ele>
        <time>2026-05-11T09:07:40.000Z</time>
      </trkpt>
      <trkpt lat="45.29813" lon="4.52227">
        <ele>887.59997558594</ele>
        <time>2026-05-11T09:07:41.000Z</time>
      </trkpt>
      <trkpt lat="45.29814" lon="4.52226">
        <ele>887.59997558594</ele>
        <time>2026-05-11T09:07:42.000Z</time>
      </trkpt>
      <trkpt lat="45.29816" lon="4.52225">
        <ele>887.40002441406</ele>
        <time>2026-05-11T09:07:43.000Z</time>
      </trkpt>
      <trkpt lat="45.29817" lon="4.52224">
        <ele>887.40002441406</ele>
        <time>2026-05-11T09:07:44.000Z</time>
      </trkpt>
      <trkpt lat="45.29818" lon="4.52223">
        <ele>887.40002441406</ele>
        <time>2026-05-11T09:07:45.000Z</time>
      </trkpt>
      <trkpt lat="45.2982" lon="4.52223">
        <ele>887.59997558594</ele>
        <time>2026-05-11T09:07:46.000Z</time>
      </trkpt>
      <trkpt lat="45.29821" lon="4.52222">
        <ele>887.79998779297</ele>
        <time>2026-05-11T09:07:47.000Z</time>
      </trkpt>
      <trkpt lat="45.29823" lon="4.52221">
        <ele>888</ele>
        <time>2026-05-11T09:07:48.000Z</time>
      </trkpt>
      <trkpt lat="45.29824" lon="4.5222">
        <ele>888.20001220703</ele>
        <time>2026-05-11T09:07:49.000Z</time>
      </trkpt>
      <trkpt lat="45.29826" lon="4.5222">
        <ele>888.20001220703</ele>
        <time>2026-05-11T09:07:50.000Z</time>
      </trkpt>
      <trkpt lat="45.29828" lon="4.52219">
        <ele>888.40002441406</ele>
        <time>2026-05-11T09:07:51.000Z</time>
      </trkpt>
      <trkpt lat="45.29829" lon="4.52219">
        <ele>888.40002441406</ele>
        <time>2026-05-11T09:07:52.000Z</time>
      </trkpt>
      <trkpt lat="45.29831" lon="4.52218">
        <ele>888.59997558594</ele>
        <time>2026-05-11T09:07:53.000Z</time>
      </trkpt>
      <trkpt lat="45.29833" lon="4.52218">
        <ele>888.79998779297</ele>
        <time>2026-05-11T09:07:54.000Z</time>
      </trkpt>
      <trkpt lat="45.29834" lon="4.52217">
        <ele>889</ele>
        <time>2026-05-11T09:07:55.000Z</time>
      </trkpt>
      <trkpt lat="45.29836" lon="4.52217">
        <ele>889</ele>
        <time>2026-05-11T09:07:56.000Z</time>
      </trkpt>
      <trkpt lat="45.29837" lon="4.52216">
        <ele>889.20001220703</ele>
        <time>2026-05-11T09:07:57.000Z</time>
      </trkpt>
      <trkpt lat="45.29839" lon="4.52216">
        <ele>889.40002441406</ele>
        <time>2026-05-11T09:07:58.000Z</time>
      </trkpt>
      <trkpt lat="45.2984" lon="4.52215">
        <ele>889.40002441406</ele>
        <time>2026-05-11T09:07:59.000Z</time>
      </trkpt>
      <trkpt lat="45.29842" lon="4.52215">
        <ele>889.59997558594</ele>
        <time>2026-05-11T09:08:00.000Z</time>
      </trkpt>
      <trkpt lat="45.29844" lon="4.52214">
        <ele>889.59997558594</ele>
        <time>2026-05-11T09:08:01.000Z</time>
      </trkpt>
      <trkpt lat="45.29845" lon="4.52214">
        <ele>889.79998779297</ele>
        <time>2026-05-11T09:08:02.000Z</time>
      </trkpt>
      <trkpt lat="45.29847" lon="4.52213">
        <ele>889.79998779297</ele>
        <time>2026-05-11T09:08:03.000Z</time>
      </trkpt>
      <trkpt lat="45.29848" lon="4.52212">
        <ele>890</ele>
        <time>2026-05-11T09:08:04.000Z</time>
      </trkpt>
      <trkpt lat="45.2985" lon="4.5221">
        <ele>890</ele>
        <time>2026-05-11T09:08:05.000Z</time>
      </trkpt>
      <trkpt lat="45.29852" lon="4.52209">
        <ele>890</ele>
        <time>2026-05-11T09:08:06.000Z</time>
      </trkpt>
      <trkpt lat="45.29853" lon="4.52208">
        <ele>890.20001220703</ele>
        <time>2026-05-11T09:08:07.000Z</time>
      </trkpt>
      <trkpt lat="45.29855" lon="4.52207">
        <ele>890.20001220703</ele>
        <time>2026-05-11T09:08:08.000Z</time>
      </trkpt>
      <trkpt lat="45.29857" lon="4.52206">
        <ele>890.20001220703</ele>
        <time>2026-05-11T09:08:09.000Z</time>
      </trkpt>
      <trkpt lat="45.29858" lon="4.52204">
        <ele>890.40002441406</ele>
        <time>2026-05-11T09:08:10.000Z</time>
      </trkpt>
      <trkpt lat="45.2986" lon="4.52203">
        <ele>890.59997558594</ele>
        <time>2026-05-11T09:08:11.000Z</time>
      </trkpt>
      <trkpt lat="45.29861" lon="4.52202">
        <ele>890.59997558594</ele>
        <time>2026-05-11T09:08:12.000Z</time>
      </trkpt>
      <trkpt lat="45.29863" lon="4.522">
        <ele>890.79998779297</ele>
        <time>2026-05-11T09:08:13.000Z</time>
      </trkpt>
      <trkpt lat="45.29864" lon="4.52199">
        <ele>891</ele>
        <time>2026-05-11T09:08:14.000Z</time>
      </trkpt>
      <trkpt lat="45.29866" lon="4.52198">
        <ele>891.20001220703</ele>
        <time>2026-05-11T09:08:15.000Z</time>
      </trkpt>
      <trkpt lat="45.29867" lon="4.52196">
        <ele>891.20001220703</ele>
        <time>2026-05-11T09:08:16.000Z</time>
      </trkpt>
      <trkpt lat="45.29868" lon="4.52194">
        <ele>891.40002441406</ele>
        <time>2026-05-11T09:08:17.000Z</time>
      </trkpt>
      <trkpt lat="45.2987" lon="4.52193">
        <ele>891.59997558594</ele>
        <time>2026-05-11T09:08:18.000Z</time>
      </trkpt>
      <trkpt lat="45.29871" lon="4.52192">
        <ele>891.59997558594</ele>
        <time>2026-05-11T09:08:19.000Z</time>
      </trkpt>
      <trkpt lat="45.29872" lon="4.5219">
        <ele>891.59997558594</ele>
        <time>2026-05-11T09:08:20.000Z</time>
      </trkpt>
      <trkpt lat="45.29873" lon="4.52189">
        <ele>891.79998779297</ele>
        <time>2026-05-11T09:08:21.000Z</time>
      </trkpt>
      <trkpt lat="45.29875" lon="4.52188">
        <ele>892</ele>
        <time>2026-05-11T09:08:22.000Z</time>
      </trkpt>
      <trkpt lat="45.29876" lon="4.52186">
        <ele>892</ele>
        <time>2026-05-11T09:08:23.000Z</time>
      </trkpt>
      <trkpt lat="45.29877" lon="4.52185">
        <ele>892.20001220703</ele>
        <time>2026-05-11T09:08:24.000Z</time>
      </trkpt>
      <trkpt lat="45.29879" lon="4.52183">
        <ele>892.40002441406</ele>
        <time>2026-05-11T09:08:25.000Z</time>
      </trkpt>
      <trkpt lat="45.2988" lon="4.52182">
        <ele>892.40002441406</ele>
        <time>2026-05-11T09:08:26.000Z</time>
      </trkpt>
      <trkpt lat="45.29881" lon="4.52181">
        <ele>892.59997558594</ele>
        <time>2026-05-11T09:08:27.000Z</time>
      </trkpt>
      <trkpt lat="45.29882" lon="4.52179">
        <ele>892.59997558594</ele>
        <time>2026-05-11T09:08:28.000Z</time>
      </trkpt>
      <trkpt lat="45.29883" lon="4.52178">
        <ele>892.79998779297</ele>
        <time>2026-05-11T09:08:29.000Z</time>
      </trkpt>
      <trkpt lat="45.29884" lon="4.52177">
        <ele>892.79998779297</ele>
        <time>2026-05-11T09:08:30.000Z</time>
      </trkpt>
      <trkpt lat="45.29885" lon="4.52176">
        <ele>893</ele>
        <time>2026-05-11T09:08:31.000Z</time>
      </trkpt>
      <trkpt lat="45.29886" lon="4.52174">
        <ele>893.20001220703</ele>
        <time>2026-05-11T09:08:32.000Z</time>
      </trkpt>
      <trkpt lat="45.29888" lon="4.52172">
        <ele>893.20001220703</ele>
        <time>2026-05-11T09:08:33.000Z</time>
      </trkpt>
      <trkpt lat="45.29889" lon="4.52172">
        <ele>893.40002441406</ele>
        <time>2026-05-11T09:08:34.000Z</time>
      </trkpt>
      <trkpt lat="45.2989" lon="4.52172">
        <ele>893.59997558594</ele>
        <time>2026-05-11T09:08:35.000Z</time>
      </trkpt>
      <trkpt lat="45.29892" lon="4.5217">
        <ele>893.59997558594</ele>
        <time>2026-05-11T09:08:36.000Z</time>
      </trkpt>
      <trkpt lat="45.29893" lon="4.52169">
        <ele>893.79998779297</ele>
        <time>2026-05-11T09:08:37.000Z</time>
      </trkpt>
      <trkpt lat="45.29894" lon="4.52168">
        <ele>894</ele>
        <time>2026-05-11T09:08:38.000Z</time>
      </trkpt>
      <trkpt lat="45.29895" lon="4.52167">
        <ele>894.20001220703</ele>
        <time>2026-05-11T09:08:39.000Z</time>
      </trkpt>
      <trkpt lat="45.29896" lon="4.52166">
        <ele>894.20001220703</ele>
        <time>2026-05-11T09:08:40.000Z</time>
      </trkpt>
      <trkpt lat="45.29897" lon="4.52165">
        <ele>894.40002441406</ele>
        <time>2026-05-11T09:08:41.000Z</time>
      </trkpt>
      <trkpt lat="45.29898" lon="4.52164">
        <ele>894.40002441406</ele>
        <time>2026-05-11T09:08:42.000Z</time>
      </trkpt>
      <trkpt lat="45.299" lon="4.52163">
        <ele>894.59997558594</ele>
        <time>2026-05-11T09:08:43.000Z</time>
      </trkpt>
      <trkpt lat="45.29901" lon="4.52161">
        <ele>894.79998779297</ele>
        <time>2026-05-11T09:08:44.000Z</time>
      </trkpt>
      <trkpt lat="45.29902" lon="4.52159">
        <ele>895</ele>
        <time>2026-05-11T09:08:45.000Z</time>
      </trkpt>
      <trkpt lat="45.29903" lon="4.52158">
        <ele>895.20001220703</ele>
        <time>2026-05-11T09:08:46.000Z</time>
      </trkpt>
      <trkpt lat="45.29905" lon="4.52156">
        <ele>895.20001220703</ele>
        <time>2026-05-11T09:08:47.000Z</time>
      </trkpt>
      <trkpt lat="45.29907" lon="4.52155">
        <ele>895.40002441406</ele>
        <time>2026-05-11T09:08:48.000Z</time>
      </trkpt>
      <trkpt lat="45.29909" lon="4.52154">
        <ele>895.40002441406</ele>
        <time>2026-05-11T09:08:49.000Z</time>
      </trkpt>
      <trkpt lat="45.29911" lon="4.52153">
        <ele>895.59997558594</ele>
        <time>2026-05-11T09:08:50.000Z</time>
      </trkpt>
      <trkpt lat="45.29912" lon="4.52151">
        <ele>895.59997558594</ele>
        <time>2026-05-11T09:08:51.000Z</time>
      </trkpt>
      <trkpt lat="45.29914" lon="4.5215">
        <ele>895.79998779297</ele>
        <time>2026-05-11T09:08:52.000Z</time>
      </trkpt>
      <trkpt lat="45.29916" lon="4.52149">
        <ele>896</ele>
        <time>2026-05-11T09:08:53.000Z</time>
      </trkpt>
      <trkpt lat="45.29917" lon="4.52147">
        <ele>896</ele>
        <time>2026-05-11T09:08:54.000Z</time>
      </trkpt>
      <trkpt lat="45.29919" lon="4.52146">
        <ele>896.20001220703</ele>
        <time>2026-05-11T09:08:55.000Z</time>
      </trkpt>
      <trkpt lat="45.2992" lon="4.52145">
        <ele>896.40002441406</ele>
        <time>2026-05-11T09:08:56.000Z</time>
      </trkpt>
      <trkpt lat="45.29922" lon="4.52144">
        <ele>896.40002441406</ele>
        <time>2026-05-11T09:08:57.000Z</time>
      </trkpt>
      <trkpt lat="45.29924" lon="4.52142">
        <ele>896.59997558594</ele>
        <time>2026-05-11T09:08:58.000Z</time>
      </trkpt>
      <trkpt lat="45.29925" lon="4.52141">
        <ele>896.79998779297</ele>
        <time>2026-05-11T09:08:59.000Z</time>
      </trkpt>
      <trkpt lat="45.29927" lon="4.5214">
        <ele>896.79998779297</ele>
        <time>2026-05-11T09:09:00.000Z</time>
      </trkpt>
      <trkpt lat="45.29929" lon="4.52139">
        <ele>897</ele>
        <time>2026-05-11T09:09:01.000Z</time>
      </trkpt>
      <trkpt lat="45.2993" lon="4.52138">
        <ele>897.20001220703</ele>
        <time>2026-05-11T09:09:02.000Z</time>
      </trkpt>
      <trkpt lat="45.29932" lon="4.52138">
        <ele>897.40002441406</ele>
        <time>2026-05-11T09:09:03.000Z</time>
      </trkpt>
      <trkpt lat="45.29933" lon="4.52136">
        <ele>897.40002441406</ele>
        <time>2026-05-11T09:09:04.000Z</time>
      </trkpt>
      <trkpt lat="45.29935" lon="4.52135">
        <ele>897.59997558594</ele>
        <time>2026-05-11T09:09:05.000Z</time>
      </trkpt>
      <trkpt lat="45.29936" lon="4.52133">
        <ele>897.79998779297</ele>
        <time>2026-05-11T09:09:06.000Z</time>
      </trkpt>
      <trkpt lat="45.29937" lon="4.52132">
        <ele>897.79998779297</ele>
        <time>2026-05-11T09:09:07.000Z</time>
      </trkpt>
      <trkpt lat="45.29939" lon="4.5213">
        <ele>898</ele>
        <time>2026-05-11T09:09:08.000Z</time>
      </trkpt>
      <trkpt lat="45.2994" lon="4.52129">
        <ele>898</ele>
        <time>2026-05-11T09:09:09.000Z</time>
      </trkpt>
      <trkpt lat="45.29942" lon="4.52127">
        <ele>898.20001220703</ele>
        <time>2026-05-11T09:09:10.000Z</time>
      </trkpt>
      <trkpt lat="45.29944" lon="4.52126">
        <ele>898.20001220703</ele>
        <time>2026-05-11T09:09:11.000Z</time>
      </trkpt>
      <trkpt lat="45.29946" lon="4.52125">
        <ele>898.20001220703</ele>
        <time>2026-05-11T09:09:12.000Z</time>
      </trkpt>
      <trkpt lat="45.29947" lon="4.52124">
        <ele>898.20001220703</ele>
        <time>2026-05-11T09:09:13.000Z</time>
      </trkpt>
      <trkpt lat="45.29949" lon="4.52122">
        <ele>898.20001220703</ele>
        <time>2026-05-11T09:09:14.000Z</time>
      </trkpt>
      <trkpt lat="45.2995" lon="4.52121">
        <ele>898.40002441406</ele>
        <time>2026-05-11T09:09:15.000Z</time>
      </trkpt>
      <trkpt lat="45.29951" lon="4.52119">
        <ele>898.40002441406</ele>
        <time>2026-05-11T09:09:16.000Z</time>
      </trkpt>
      <trkpt lat="45.29953" lon="4.52117">
        <ele>898.59997558594</ele>
        <time>2026-05-11T09:09:17.000Z</time>
      </trkpt>
      <trkpt lat="45.29954" lon="4.52116">
        <ele>898.59997558594</ele>
        <time>2026-05-11T09:09:18.000Z</time>
      </trkpt>
      <trkpt lat="45.29956" lon="4.52114">
        <ele>898.79998779297</ele>
        <time>2026-05-11T09:09:19.000Z</time>
      </trkpt>
      <trkpt lat="45.29957" lon="4.52112">
        <ele>899</ele>
        <time>2026-05-11T09:09:20.000Z</time>
      </trkpt>
      <trkpt lat="45.29959" lon="4.5211">
        <ele>899</ele>
        <time>2026-05-11T09:09:21.000Z</time>
      </trkpt>
      <trkpt lat="45.29961" lon="4.52109">
        <ele>899</ele>
        <time>2026-05-11T09:09:22.000Z</time>
      </trkpt>
      <trkpt lat="45.29962" lon="4.52107">
        <ele>899.20001220703</ele>
        <time>2026-05-11T09:09:23.000Z</time>
      </trkpt>
      <trkpt lat="45.29964" lon="4.52106">
        <ele>899.20001220703</ele>
        <time>2026-05-11T09:09:24.000Z</time>
      </trkpt>
      <trkpt lat="45.29965" lon="4.52104">
        <ele>899.40002441406</ele>
        <time>2026-05-11T09:09:25.000Z</time>
      </trkpt>
      <trkpt lat="45.29967" lon="4.52103">
        <ele>899.40002441406</ele>
        <time>2026-05-11T09:09:26.000Z</time>
      </trkpt>
      <trkpt lat="45.29968" lon="4.52102">
        <ele>899.59997558594</ele>
        <time>2026-05-11T09:09:27.000Z</time>
      </trkpt>
      <trkpt lat="45.2997" lon="4.52101">
        <ele>899.59997558594</ele>
        <time>2026-05-11T09:09:28.000Z</time>
      </trkpt>
      <trkpt lat="45.29971" lon="4.521">
        <ele>899.40002441406</ele>
        <time>2026-05-11T09:09:29.000Z</time>
      </trkpt>
      <trkpt lat="45.29973" lon="4.52098">
        <ele>899.40002441406</ele>
        <time>2026-05-11T09:09:30.000Z</time>
      </trkpt>
      <trkpt lat="45.29974" lon="4.52097">
        <ele>899.40002441406</ele>
        <time>2026-05-11T09:09:31.000Z</time>
      </trkpt>
      <trkpt lat="45.29976" lon="4.52095">
        <ele>899.40002441406</ele>
        <time>2026-05-11T09:09:32.000Z</time>
      </trkpt>
      <trkpt lat="45.29977" lon="4.52094">
        <ele>899.40002441406</ele>
        <time>2026-05-11T09:09:33.000Z</time>
      </trkpt>
      <trkpt lat="45.29979" lon="4.52092">
        <ele>899.59997558594</ele>
        <time>2026-05-11T09:09:34.000Z</time>
      </trkpt>
      <trkpt lat="45.2998" lon="4.52091">
        <ele>899.79998779297</ele>
        <time>2026-05-11T09:09:35.000Z</time>
      </trkpt>
      <trkpt lat="45.29982" lon="4.5209">
        <ele>900</ele>
        <time>2026-05-11T09:09:36.000Z</time>
      </trkpt>
      <trkpt lat="45.29983" lon="4.52089">
        <ele>900</ele>
        <time>2026-05-11T09:09:37.000Z</time>
      </trkpt>
      <trkpt lat="45.29985" lon="4.52088">
        <ele>900.20001220703</ele>
        <time>2026-05-11T09:09:38.000Z</time>
      </trkpt>
      <trkpt lat="45.29986" lon="4.52087">
        <ele>900.20001220703</ele>
        <time>2026-05-11T09:09:39.000Z</time>
      </trkpt>
      <trkpt lat="45.29988" lon="4.52085">
        <ele>900.20001220703</ele>
        <time>2026-05-11T09:09:40.000Z</time>
      </trkpt>
      <trkpt lat="45.29989" lon="4.52084">
        <ele>900.40002441406</ele>
        <time>2026-05-11T09:09:41.000Z</time>
      </trkpt>
      <trkpt lat="45.2999" lon="4.52083">
        <ele>900.40002441406</ele>
        <time>2026-05-11T09:09:42.000Z</time>
      </trkpt>
      <trkpt lat="45.29992" lon="4.52081">
        <ele>900.59997558594</ele>
        <time>2026-05-11T09:09:43.000Z</time>
      </trkpt>
      <trkpt lat="45.29993" lon="4.5208">
        <ele>900.79998779297</ele>
        <time>2026-05-11T09:09:44.000Z</time>
      </trkpt>
      <trkpt lat="45.29994" lon="4.52079">
        <ele>900.79998779297</ele>
        <time>2026-05-11T09:09:45.000Z</time>
      </trkpt>
      <trkpt lat="45.29995" lon="4.52077">
        <ele>901</ele>
        <time>2026-05-11T09:09:46.000Z</time>
      </trkpt>
      <trkpt lat="45.29997" lon="4.52076">
        <ele>901</ele>
        <time>2026-05-11T09:09:47.000Z</time>
      </trkpt>
      <trkpt lat="45.29998" lon="4.52074">
        <ele>901.20001220703</ele>
        <time>2026-05-11T09:09:48.000Z</time>
      </trkpt>
      <trkpt lat="45.29999" lon="4.52073">
        <ele>901.40002441406</ele>
        <time>2026-05-11T09:09:49.000Z</time>
      </trkpt>
      <trkpt lat="45.3" lon="4.52071">
        <ele>901.59997558594</ele>
        <time>2026-05-11T09:09:50.000Z</time>
      </trkpt>
      <trkpt lat="45.30001" lon="4.52069">
        <ele>901.59997558594</ele>
        <time>2026-05-11T09:09:51.000Z</time>
      </trkpt>
      <trkpt lat="45.30002" lon="4.52068">
        <ele>901.79998779297</ele>
        <time>2026-05-11T09:09:52.000Z</time>
      </trkpt>
      <trkpt lat="45.30003" lon="4.52067">
        <ele>902</ele>
        <time>2026-05-11T09:09:53.000Z</time>
      </trkpt>
      <trkpt lat="45.30004" lon="4.52065">
        <ele>902.20001220703</ele>
        <time>2026-05-11T09:09:54.000Z</time>
      </trkpt>
      <trkpt lat="45.30005" lon="4.52063">
        <ele>902.20001220703</ele>
        <time>2026-05-11T09:09:55.000Z</time>
      </trkpt>
      <trkpt lat="45.30006" lon="4.52062">
        <ele>902.40002441406</ele>
        <time>2026-05-11T09:09:56.000Z</time>
      </trkpt>
      <trkpt lat="45.30007" lon="4.5206">
        <ele>902.40002441406</ele>
        <time>2026-05-11T09:09:57.000Z</time>
      </trkpt>
      <trkpt lat="45.30008" lon="4.52058">
        <ele>902.59997558594</ele>
        <time>2026-05-11T09:09:58.000Z</time>
      </trkpt>
      <trkpt lat="45.30009" lon="4.52057">
        <ele>902.59997558594</ele>
        <time>2026-05-11T09:09:59.000Z</time>
      </trkpt>
      <trkpt lat="45.30011" lon="4.52055">
        <ele>902.79998779297</ele>
        <time>2026-05-11T09:10:00.000Z</time>
      </trkpt>
      <trkpt lat="45.30012" lon="4.52053">
        <ele>903</ele>
        <time>2026-05-11T09:10:01.000Z</time>
      </trkpt>
      <trkpt lat="45.30013" lon="4.52051">
        <ele>903</ele>
        <time>2026-05-11T09:10:02.000Z</time>
      </trkpt>
      <trkpt lat="45.30014" lon="4.52049">
        <ele>903.20001220703</ele>
        <time>2026-05-11T09:10:03.000Z</time>
      </trkpt>
      <trkpt lat="45.30014" lon="4.52047">
        <ele>903.40002441406</ele>
        <time>2026-05-11T09:10:04.000Z</time>
      </trkpt>
      <trkpt lat="45.30015" lon="4.52045">
        <ele>903.40002441406</ele>
        <time>2026-05-11T09:10:05.000Z</time>
      </trkpt>
      <trkpt lat="45.30016" lon="4.52043">
        <ele>903.40002441406</ele>
        <time>2026-05-11T09:10:06.000Z</time>
      </trkpt>
      <trkpt lat="45.30016" lon="4.52041">
        <ele>903.59997558594</ele>
        <time>2026-05-11T09:10:07.000Z</time>
      </trkpt>
      <trkpt lat="45.30017" lon="4.52038">
        <ele>903.59997558594</ele>
        <time>2026-05-11T09:10:08.000Z</time>
      </trkpt>
      <trkpt lat="45.30018" lon="4.52036">
        <ele>903.59997558594</ele>
        <time>2026-05-11T09:10:09.000Z</time>
      </trkpt>
      <trkpt lat="45.30019" lon="4.52034">
        <ele>903.79998779297</ele>
        <time>2026-05-11T09:10:10.000Z</time>
      </trkpt>
      <trkpt lat="45.30019" lon="4.52032">
        <ele>903.79998779297</ele>
        <time>2026-05-11T09:10:11.000Z</time>
      </trkpt>
      <trkpt lat="45.3002" lon="4.5203">
        <ele>903.79998779297</ele>
        <time>2026-05-11T09:10:12.000Z</time>
      </trkpt>
      <trkpt lat="45.30021" lon="4.52028">
        <ele>904</ele>
        <time>2026-05-11T09:10:13.000Z</time>
      </trkpt>
      <trkpt lat="45.30022" lon="4.52026">
        <ele>904.20001220703</ele>
        <time>2026-05-11T09:10:14.000Z</time>
      </trkpt>
      <trkpt lat="45.30023" lon="4.52024">
        <ele>904.20001220703</ele>
        <time>2026-05-11T09:10:15.000Z</time>
      </trkpt>
      <trkpt lat="45.30024" lon="4.52022">
        <ele>904.40002441406</ele>
        <time>2026-05-11T09:10:16.000Z</time>
      </trkpt>
      <trkpt lat="45.30024" lon="4.5202">
        <ele>904.40002441406</ele>
        <time>2026-05-11T09:10:17.000Z</time>
      </trkpt>
      <trkpt lat="45.30025" lon="4.52017">
        <ele>904.59997558594</ele>
        <time>2026-05-11T09:10:18.000Z</time>
      </trkpt>
      <trkpt lat="45.30026" lon="4.52015">
        <ele>904.79998779297</ele>
        <time>2026-05-11T09:10:19.000Z</time>
      </trkpt>
      <trkpt lat="45.30026" lon="4.52013">
        <ele>904.79998779297</ele>
        <time>2026-05-11T09:10:20.000Z</time>
      </trkpt>
      <trkpt lat="45.30027" lon="4.52011">
        <ele>905</ele>
        <time>2026-05-11T09:10:21.000Z</time>
      </trkpt>
      <trkpt lat="45.30028" lon="4.52008">
        <ele>905</ele>
        <time>2026-05-11T09:10:22.000Z</time>
      </trkpt>
      <trkpt lat="45.30029" lon="4.52006">
        <ele>905</ele>
        <time>2026-05-11T09:10:23.000Z</time>
      </trkpt>
      <trkpt lat="45.3003" lon="4.52004">
        <ele>905.20001220703</ele>
        <time>2026-05-11T09:10:24.000Z</time>
      </trkpt>
      <trkpt lat="45.30031" lon="4.52002">
        <ele>905.20001220703</ele>
        <time>2026-05-11T09:10:25.000Z</time>
      </trkpt>
      <trkpt lat="45.30032" lon="4.52">
        <ele>905.40002441406</ele>
        <time>2026-05-11T09:10:26.000Z</time>
      </trkpt>
      <trkpt lat="45.30033" lon="4.51997">
        <ele>905.59997558594</ele>
        <time>2026-05-11T09:10:27.000Z</time>
      </trkpt>
      <trkpt lat="45.30034" lon="4.51995">
        <ele>905.79998779297</ele>
        <time>2026-05-11T09:10:28.000Z</time>
      </trkpt>
      <trkpt lat="45.30035" lon="4.51993">
        <ele>906</ele>
        <time>2026-05-11T09:10:29.000Z</time>
      </trkpt>
      <trkpt lat="45.30036" lon="4.51991">
        <ele>906</ele>
        <time>2026-05-11T09:10:30.000Z</time>
      </trkpt>
      <trkpt lat="45.30038" lon="4.51989">
        <ele>906.20001220703</ele>
        <time>2026-05-11T09:10:31.000Z</time>
      </trkpt>
      <trkpt lat="45.30039" lon="4.51987">
        <ele>906.40002441406</ele>
        <time>2026-05-11T09:10:32.000Z</time>
      </trkpt>
      <trkpt lat="45.3004" lon="4.51985">
        <ele>906.40002441406</ele>
        <time>2026-05-11T09:10:33.000Z</time>
      </trkpt>
      <trkpt lat="45.30042" lon="4.51983">
        <ele>906.59997558594</ele>
        <time>2026-05-11T09:10:34.000Z</time>
      </trkpt>
      <trkpt lat="45.30043" lon="4.5198">
        <ele>906.79998779297</ele>
        <time>2026-05-11T09:10:35.000Z</time>
      </trkpt>
      <trkpt lat="45.30044" lon="4.51978">
        <ele>906.79998779297</ele>
        <time>2026-05-11T09:10:36.000Z</time>
      </trkpt>
      <trkpt lat="45.30045" lon="4.51977">
        <ele>907</ele>
        <time>2026-05-11T09:10:37.000Z</time>
      </trkpt>
      <trkpt lat="45.30047" lon="4.51975">
        <ele>907.20001220703</ele>
        <time>2026-05-11T09:10:38.000Z</time>
      </trkpt>
      <trkpt lat="45.30048" lon="4.51973">
        <ele>907.20001220703</ele>
        <time>2026-05-11T09:10:39.000Z</time>
      </trkpt>
      <trkpt lat="45.30049" lon="4.51971">
        <ele>907.40002441406</ele>
        <time>2026-05-11T09:10:40.000Z</time>
      </trkpt>
      <trkpt lat="45.30051" lon="4.5197">
        <ele>907.59997558594</ele>
        <time>2026-05-11T09:10:41.000Z</time>
      </trkpt>
      <trkpt lat="45.30052" lon="4.51968">
        <ele>907.59997558594</ele>
        <time>2026-05-11T09:10:42.000Z</time>
      </trkpt>
      <trkpt lat="45.30054" lon="4.51966">
        <ele>908</ele>
        <time>2026-05-11T09:10:43.000Z</time>
      </trkpt>
      <trkpt lat="45.30055" lon="4.51964">
        <ele>908</ele>
        <time>2026-05-11T09:10:44.000Z</time>
      </trkpt>
      <trkpt lat="45.30057" lon="4.51961">
        <ele>908.20001220703</ele>
        <time>2026-05-11T09:10:45.000Z</time>
      </trkpt>
      <trkpt lat="45.30058" lon="4.51958">
        <ele>908.40002441406</ele>
        <time>2026-05-11T09:10:46.000Z</time>
      </trkpt>
      <trkpt lat="45.30059" lon="4.51957">
        <ele>908.59997558594</ele>
        <time>2026-05-11T09:10:47.000Z</time>
      </trkpt>
      <trkpt lat="45.3006" lon="4.51954">
        <ele>908.79998779297</ele>
        <time>2026-05-11T09:10:48.000Z</time>
      </trkpt>
      <trkpt lat="45.30061" lon="4.51952">
        <ele>908.79998779297</ele>
        <time>2026-05-11T09:10:49.000Z</time>
      </trkpt>
      <trkpt lat="45.30062" lon="4.51949">
        <ele>909</ele>
        <time>2026-05-11T09:10:50.000Z</time>
      </trkpt>
      <trkpt lat="45.30063" lon="4.51947">
        <ele>909</ele>
        <time>2026-05-11T09:10:51.000Z</time>
      </trkpt>
      <trkpt lat="45.30063" lon="4.51944">
        <ele>909.20001220703</ele>
        <time>2026-05-11T09:10:52.000Z</time>
      </trkpt>
      <trkpt lat="45.30064" lon="4.51941">
        <ele>909.20001220703</ele>
        <time>2026-05-11T09:10:53.000Z</time>
      </trkpt>
      <trkpt lat="45.30065" lon="4.51939">
        <ele>909.40002441406</ele>
        <time>2026-05-11T09:10:54.000Z</time>
      </trkpt>
      <trkpt lat="45.30066" lon="4.51936">
        <ele>909.40002441406</ele>
        <time>2026-05-11T09:10:55.000Z</time>
      </trkpt>
      <trkpt lat="45.30066" lon="4.51934">
        <ele>909.59997558594</ele>
        <time>2026-05-11T09:10:56.000Z</time>
      </trkpt>
      <trkpt lat="45.30067" lon="4.51931">
        <ele>909.59997558594</ele>
        <time>2026-05-11T09:10:57.000Z</time>
      </trkpt>
      <trkpt lat="45.30068" lon="4.51929">
        <ele>909.79998779297</ele>
        <time>2026-05-11T09:10:58.000Z</time>
      </trkpt>
      <trkpt lat="45.30069" lon="4.51926">
        <ele>909.79998779297</ele>
        <time>2026-05-11T09:10:59.000Z</time>
      </trkpt>
      <trkpt lat="45.3007" lon="4.51924">
        <ele>909.79998779297</ele>
        <time>2026-05-11T09:11:00.000Z</time>
      </trkpt>
      <trkpt lat="45.3007" lon="4.51922">
        <ele>910</ele>
        <time>2026-05-11T09:11:01.000Z</time>
      </trkpt>
      <trkpt lat="45.30071" lon="4.51919">
        <ele>910</ele>
        <time>2026-05-11T09:11:02.000Z</time>
      </trkpt>
      <trkpt lat="45.30072" lon="4.51917">
        <ele>910.20001220703</ele>
        <time>2026-05-11T09:11:03.000Z</time>
      </trkpt>
      <trkpt lat="45.30072" lon="4.51914">
        <ele>910.20001220703</ele>
        <time>2026-05-11T09:11:04.000Z</time>
      </trkpt>
      <trkpt lat="45.30073" lon="4.51911">
        <ele>910.40002441406</ele>
        <time>2026-05-11T09:11:05.000Z</time>
      </trkpt>
      <trkpt lat="45.30074" lon="4.51909">
        <ele>910.40002441406</ele>
        <time>2026-05-11T09:11:06.000Z</time>
      </trkpt>
      <trkpt lat="45.30074" lon="4.51907">
        <ele>910.40002441406</ele>
        <time>2026-05-11T09:11:07.000Z</time>
      </trkpt>
      <trkpt lat="45.30074" lon="4.51904">
        <ele>910.40002441406</ele>
        <time>2026-05-11T09:11:08.000Z</time>
      </trkpt>
      <trkpt lat="45.30075" lon="4.51902">
        <ele>910.59997558594</ele>
        <time>2026-05-11T09:11:09.000Z</time>
      </trkpt>
      <trkpt lat="45.30076" lon="4.51899">
        <ele>910.59997558594</ele>
        <time>2026-05-11T09:11:10.000Z</time>
      </trkpt>
      <trkpt lat="45.30076" lon="4.51897">
        <ele>910.79998779297</ele>
        <time>2026-05-11T09:11:11.000Z</time>
      </trkpt>
      <trkpt lat="45.30077" lon="4.51895">
        <ele>910.79998779297</ele>
        <time>2026-05-11T09:11:12.000Z</time>
      </trkpt>
      <trkpt lat="45.30078" lon="4.51893">
        <ele>911</ele>
        <time>2026-05-11T09:11:13.000Z</time>
      </trkpt>
      <trkpt lat="45.30079" lon="4.5189">
        <ele>911.20001220703</ele>
        <time>2026-05-11T09:11:14.000Z</time>
      </trkpt>
      <trkpt lat="45.3008" lon="4.51888">
        <ele>911.20001220703</ele>
        <time>2026-05-11T09:11:15.000Z</time>
      </trkpt>
      <trkpt lat="45.3008" lon="4.51886">
        <ele>911.20001220703</ele>
        <time>2026-05-11T09:11:16.000Z</time>
      </trkpt>
      <trkpt lat="45.30081" lon="4.51883">
        <ele>911.40002441406</ele>
        <time>2026-05-11T09:11:17.000Z</time>
      </trkpt>
      <trkpt lat="45.30082" lon="4.5188">
        <ele>911.40002441406</ele>
        <time>2026-05-11T09:11:18.000Z</time>
      </trkpt>
      <trkpt lat="45.30083" lon="4.51878">
        <ele>911.40002441406</ele>
        <time>2026-05-11T09:11:19.000Z</time>
      </trkpt>
      <trkpt lat="45.30084" lon="4.51876">
        <ele>911.40002441406</ele>
        <time>2026-05-11T09:11:20.000Z</time>
      </trkpt>
      <trkpt lat="45.30085" lon="4.51874">
        <ele>911.40002441406</ele>
        <time>2026-05-11T09:11:21.000Z</time>
      </trkpt>
      <trkpt lat="45.30086" lon="4.51871">
        <ele>911.40002441406</ele>
        <time>2026-05-11T09:11:22.000Z</time>
      </trkpt>
      <trkpt lat="45.30087" lon="4.51869">
        <ele>911.59997558594</ele>
        <time>2026-05-11T09:11:23.000Z</time>
      </trkpt>
      <trkpt lat="45.30088" lon="4.51866">
        <ele>911.59997558594</ele>
        <time>2026-05-11T09:11:24.000Z</time>
      </trkpt>
      <trkpt lat="45.30089" lon="4.51865">
        <ele>911.79998779297</ele>
        <time>2026-05-11T09:11:25.000Z</time>
      </trkpt>
      <trkpt lat="45.3009" lon="4.51863">
        <ele>912</ele>
        <time>2026-05-11T09:11:26.000Z</time>
      </trkpt>
      <trkpt lat="45.30091" lon="4.51861">
        <ele>912</ele>
        <time>2026-05-11T09:11:27.000Z</time>
      </trkpt>
      <trkpt lat="45.30092" lon="4.51859">
        <ele>912.20001220703</ele>
        <time>2026-05-11T09:11:28.000Z</time>
      </trkpt>
      <trkpt lat="45.30093" lon="4.51857">
        <ele>912.40002441406</ele>
        <time>2026-05-11T09:11:29.000Z</time>
      </trkpt>
      <trkpt lat="45.30094" lon="4.51856">
        <ele>912.40002441406</ele>
        <time>2026-05-11T09:11:30.000Z</time>
      </trkpt>
      <trkpt lat="45.30095" lon="4.51854">
        <ele>912.59997558594</ele>
        <time>2026-05-11T09:11:31.000Z</time>
      </trkpt>
      <trkpt lat="45.30096" lon="4.51853">
        <ele>912.79998779297</ele>
        <time>2026-05-11T09:11:32.000Z</time>
      </trkpt>
      <trkpt lat="45.30097" lon="4.51851">
        <ele>913</ele>
        <time>2026-05-11T09:11:33.000Z</time>
      </trkpt>
      <trkpt lat="45.30098" lon="4.5185">
        <ele>913</ele>
        <time>2026-05-11T09:11:34.000Z</time>
      </trkpt>
      <trkpt lat="45.301" lon="4.51848">
        <ele>913.20001220703</ele>
        <time>2026-05-11T09:11:35.000Z</time>
      </trkpt>
      <trkpt lat="45.30101" lon="4.51847">
        <ele>913.40002441406</ele>
        <time>2026-05-11T09:11:36.000Z</time>
      </trkpt>
      <trkpt lat="45.30103" lon="4.51846">
        <ele>913.40002441406</ele>
        <time>2026-05-11T09:11:37.000Z</time>
      </trkpt>
      <trkpt lat="45.30104" lon="4.51845">
        <ele>913.59997558594</ele>
        <time>2026-05-11T09:11:38.000Z</time>
      </trkpt>
      <trkpt lat="45.30105" lon="4.51843">
        <ele>913.59997558594</ele>
        <time>2026-05-11T09:11:39.000Z</time>
      </trkpt>
      <trkpt lat="45.30107" lon="4.51842">
        <ele>913.79998779297</ele>
        <time>2026-05-11T09:11:40.000Z</time>
      </trkpt>
      <trkpt lat="45.30109" lon="4.5184">
        <ele>913.79998779297</ele>
        <time>2026-05-11T09:11:41.000Z</time>
      </trkpt>
      <trkpt lat="45.3011" lon="4.51839">
        <ele>914</ele>
        <time>2026-05-11T09:11:42.000Z</time>
      </trkpt>
      <trkpt lat="45.30112" lon="4.51838">
        <ele>914</ele>
        <time>2026-05-11T09:11:43.000Z</time>
      </trkpt>
      <trkpt lat="45.30114" lon="4.51837">
        <ele>914</ele>
        <time>2026-05-11T09:11:44.000Z</time>
      </trkpt>
      <trkpt lat="45.30115" lon="4.51837">
        <ele>914.20001220703</ele>
        <time>2026-05-11T09:11:45.000Z</time>
      </trkpt>
      <trkpt lat="45.30117" lon="4.51836">
        <ele>914.40002441406</ele>
        <time>2026-05-11T09:11:46.000Z</time>
      </trkpt>
      <trkpt lat="45.30119" lon="4.51835">
        <ele>914.40002441406</ele>
        <time>2026-05-11T09:11:47.000Z</time>
      </trkpt>
      <trkpt lat="45.3012" lon="4.51835">
        <ele>914.59997558594</ele>
        <time>2026-05-11T09:11:48.000Z</time>
      </trkpt>
      <trkpt lat="45.30121" lon="4.51834">
        <ele>914.79998779297</ele>
        <time>2026-05-11T09:11:49.000Z</time>
      </trkpt>
      <trkpt lat="45.30123" lon="4.51833">
        <ele>915</ele>
        <time>2026-05-11T09:11:50.000Z</time>
      </trkpt>
      <trkpt lat="45.30125" lon="4.51832">
        <ele>915.20001220703</ele>
        <time>2026-05-11T09:11:51.000Z</time>
      </trkpt>
      <trkpt lat="45.30126" lon="4.51832">
        <ele>915.40002441406</ele>
        <time>2026-05-11T09:11:52.000Z</time>
      </trkpt>
      <trkpt lat="45.30128" lon="4.51832">
        <ele>915.40002441406</ele>
        <time>2026-05-11T09:11:53.000Z</time>
      </trkpt>
      <trkpt lat="45.3013" lon="4.51831">
        <ele>915.59997558594</ele>
        <time>2026-05-11T09:11:54.000Z</time>
      </trkpt>
      <trkpt lat="45.30131" lon="4.5183">
        <ele>915.79998779297</ele>
        <time>2026-05-11T09:11:55.000Z</time>
      </trkpt>
      <trkpt lat="45.30133" lon="4.51828">
        <ele>916</ele>
        <time>2026-05-11T09:11:56.000Z</time>
      </trkpt>
      <trkpt lat="45.30134" lon="4.51827">
        <ele>916</ele>
        <time>2026-05-11T09:11:57.000Z</time>
      </trkpt>
      <trkpt lat="45.30135" lon="4.51826">
        <ele>916.20001220703</ele>
        <time>2026-05-11T09:11:58.000Z</time>
      </trkpt>
      <trkpt lat="45.30136" lon="4.51824">
        <ele>916.20001220703</ele>
        <time>2026-05-11T09:11:59.000Z</time>
      </trkpt>
      <trkpt lat="45.30137" lon="4.51822">
        <ele>916.40002441406</ele>
        <time>2026-05-11T09:12:00.000Z</time>
      </trkpt>
      <trkpt lat="45.30138" lon="4.5182">
        <ele>916.59997558594</ele>
        <time>2026-05-11T09:12:01.000Z</time>
      </trkpt>
      <trkpt lat="45.30139" lon="4.51819">
        <ele>916.59997558594</ele>
        <time>2026-05-11T09:12:02.000Z</time>
      </trkpt>
      <trkpt lat="45.3014" lon="4.51817">
        <ele>916.79998779297</ele>
        <time>2026-05-11T09:12:03.000Z</time>
      </trkpt>
      <trkpt lat="45.30142" lon="4.51815">
        <ele>916.79998779297</ele>
        <time>2026-05-11T09:12:04.000Z</time>
      </trkpt>
      <trkpt lat="45.30143" lon="4.51813">
        <ele>917</ele>
        <time>2026-05-11T09:12:05.000Z</time>
      </trkpt>
      <trkpt lat="45.30144" lon="4.51811">
        <ele>917.20001220703</ele>
        <time>2026-05-11T09:12:06.000Z</time>
      </trkpt>
      <trkpt lat="45.30146" lon="4.5181">
        <ele>917.40002441406</ele>
        <time>2026-05-11T09:12:07.000Z</time>
      </trkpt>
      <trkpt lat="45.30147" lon="4.51808">
        <ele>917.40002441406</ele>
        <time>2026-05-11T09:12:08.000Z</time>
      </trkpt>
      <trkpt lat="45.30148" lon="4.51806">
        <ele>917.59997558594</ele>
        <time>2026-05-11T09:12:09.000Z</time>
      </trkpt>
      <trkpt lat="45.30149" lon="4.51805">
        <ele>917.79998779297</ele>
        <time>2026-05-11T09:12:10.000Z</time>
      </trkpt>
      <trkpt lat="45.3015" lon="4.51802">
        <ele>918</ele>
        <time>2026-05-11T09:12:11.000Z</time>
      </trkpt>
      <trkpt lat="45.30151" lon="4.51801">
        <ele>918.20001220703</ele>
        <time>2026-05-11T09:12:12.000Z</time>
      </trkpt>
      <trkpt lat="45.30153" lon="4.51799">
        <ele>918.20001220703</ele>
        <time>2026-05-11T09:12:13.000Z</time>
      </trkpt>
      <trkpt lat="45.30154" lon="4.51797">
        <ele>918.40002441406</ele>
        <time>2026-05-11T09:12:14.000Z</time>
      </trkpt>
      <trkpt lat="45.30154" lon="4.51795">
        <ele>918.59997558594</ele>
        <time>2026-05-11T09:12:15.000Z</time>
      </trkpt>
      <trkpt lat="45.30155" lon="4.51793">
        <ele>918.59997558594</ele>
        <time>2026-05-11T09:12:16.000Z</time>
      </trkpt>
      <trkpt lat="45.30157" lon="4.51791">
        <ele>918.79998779297</ele>
        <time>2026-05-11T09:12:17.000Z</time>
      </trkpt>
      <trkpt lat="45.30158" lon="4.51789">
        <ele>919</ele>
        <time>2026-05-11T09:12:18.000Z</time>
      </trkpt>
      <trkpt lat="45.30158" lon="4.51787">
        <ele>919.20001220703</ele>
        <time>2026-05-11T09:12:19.000Z</time>
      </trkpt>
      <trkpt lat="45.30159" lon="4.51785">
        <ele>919.20001220703</ele>
        <time>2026-05-11T09:12:20.000Z</time>
      </trkpt>
      <trkpt lat="45.3016" lon="4.51783">
        <ele>919.40002441406</ele>
        <time>2026-05-11T09:12:21.000Z</time>
      </trkpt>
      <trkpt lat="45.30161" lon="4.5178">
        <ele>919.40002441406</ele>
        <time>2026-05-11T09:12:22.000Z</time>
      </trkpt>
      <trkpt lat="45.30163" lon="4.51778">
        <ele>919.59997558594</ele>
        <time>2026-05-11T09:12:23.000Z</time>
      </trkpt>
      <trkpt lat="45.30164" lon="4.51776">
        <ele>919.59997558594</ele>
        <time>2026-05-11T09:12:24.000Z</time>
      </trkpt>
      <trkpt lat="45.30164" lon="4.51774">
        <ele>919.59997558594</ele>
        <time>2026-05-11T09:12:25.000Z</time>
      </trkpt>
      <trkpt lat="45.30165" lon="4.51772">
        <ele>919.79998779297</ele>
        <time>2026-05-11T09:12:26.000Z</time>
      </trkpt>
      <trkpt lat="45.30166" lon="4.5177">
        <ele>919.79998779297</ele>
        <time>2026-05-11T09:12:27.000Z</time>
      </trkpt>
      <trkpt lat="45.30167" lon="4.51768">
        <ele>920</ele>
        <time>2026-05-11T09:12:28.000Z</time>
      </trkpt>
      <trkpt lat="45.30168" lon="4.51766">
        <ele>920</ele>
        <time>2026-05-11T09:12:29.000Z</time>
      </trkpt>
      <trkpt lat="45.30169" lon="4.51764">
        <ele>920.20001220703</ele>
        <time>2026-05-11T09:12:30.000Z</time>
      </trkpt>
      <trkpt lat="45.3017" lon="4.51762">
        <ele>920.20001220703</ele>
        <time>2026-05-11T09:12:31.000Z</time>
      </trkpt>
      <trkpt lat="45.30171" lon="4.5176">
        <ele>920.40002441406</ele>
        <time>2026-05-11T09:12:32.000Z</time>
      </trkpt>
      <trkpt lat="45.30172" lon="4.51758">
        <ele>920.40002441406</ele>
        <time>2026-05-11T09:12:33.000Z</time>
      </trkpt>
      <trkpt lat="45.30172" lon="4.51756">
        <ele>920.59997558594</ele>
        <time>2026-05-11T09:12:34.000Z</time>
      </trkpt>
      <trkpt lat="45.30173" lon="4.51754">
        <ele>920.79998779297</ele>
        <time>2026-05-11T09:12:35.000Z</time>
      </trkpt>
      <trkpt lat="45.30174" lon="4.51752">
        <ele>920.79998779297</ele>
        <time>2026-05-11T09:12:36.000Z</time>
      </trkpt>
      <trkpt lat="45.30175" lon="4.5175">
        <ele>921</ele>
        <time>2026-05-11T09:12:37.000Z</time>
      </trkpt>
      <trkpt lat="45.30176" lon="4.51748">
        <ele>921</ele>
        <time>2026-05-11T09:12:38.000Z</time>
      </trkpt>
      <trkpt lat="45.30178" lon="4.51746">
        <ele>921.20001220703</ele>
        <time>2026-05-11T09:12:39.000Z</time>
      </trkpt>
      <trkpt lat="45.30179" lon="4.51745">
        <ele>921.40002441406</ele>
        <time>2026-05-11T09:12:40.000Z</time>
      </trkpt>
      <trkpt lat="45.3018" lon="4.51743">
        <ele>921.40002441406</ele>
        <time>2026-05-11T09:12:41.000Z</time>
      </trkpt>
      <trkpt lat="45.30181" lon="4.51741">
        <ele>921.40002441406</ele>
        <time>2026-05-11T09:12:42.000Z</time>
      </trkpt>
      <trkpt lat="45.30182" lon="4.51739">
        <ele>921.59997558594</ele>
        <time>2026-05-11T09:12:43.000Z</time>
      </trkpt>
      <trkpt lat="45.30183" lon="4.51738">
        <ele>921.59997558594</ele>
        <time>2026-05-11T09:12:44.000Z</time>
      </trkpt>
      <trkpt lat="45.30184" lon="4.51736">
        <ele>921.79998779297</ele>
        <time>2026-05-11T09:12:45.000Z</time>
      </trkpt>
      <trkpt lat="45.30185" lon="4.51734">
        <ele>921.79998779297</ele>
        <time>2026-05-11T09:12:46.000Z</time>
      </trkpt>
      <trkpt lat="45.30187" lon="4.51733">
        <ele>922</ele>
        <time>2026-05-11T09:12:47.000Z</time>
      </trkpt>
      <trkpt lat="45.30188" lon="4.51731">
        <ele>922.20001220703</ele>
        <time>2026-05-11T09:12:48.000Z</time>
      </trkpt>
      <trkpt lat="45.30189" lon="4.5173">
        <ele>922.40002441406</ele>
        <time>2026-05-11T09:12:49.000Z</time>
      </trkpt>
      <trkpt lat="45.3019" lon="4.51729">
        <ele>922.59997558594</ele>
        <time>2026-05-11T09:12:50.000Z</time>
      </trkpt>
      <trkpt lat="45.30191" lon="4.51727">
        <ele>922.59997558594</ele>
        <time>2026-05-11T09:12:51.000Z</time>
      </trkpt>
      <trkpt lat="45.30193" lon="4.51726">
        <ele>922.79998779297</ele>
        <time>2026-05-11T09:12:52.000Z</time>
      </trkpt>
      <trkpt lat="45.30194" lon="4.51724">
        <ele>923</ele>
        <time>2026-05-11T09:12:53.000Z</time>
      </trkpt>
      <trkpt lat="45.30196" lon="4.51722">
        <ele>923.20001220703</ele>
        <time>2026-05-11T09:12:54.000Z</time>
      </trkpt>
      <trkpt lat="45.30197" lon="4.5172">
        <ele>923.40002441406</ele>
        <time>2026-05-11T09:12:55.000Z</time>
      </trkpt>
      <trkpt lat="45.30198" lon="4.51718">
        <ele>923.59997558594</ele>
        <time>2026-05-11T09:12:56.000Z</time>
      </trkpt>
      <trkpt lat="45.30199" lon="4.51716">
        <ele>923.59997558594</ele>
        <time>2026-05-11T09:12:57.000Z</time>
      </trkpt>
      <trkpt lat="45.302" lon="4.51715">
        <ele>923.79998779297</ele>
        <time>2026-05-11T09:12:58.000Z</time>
      </trkpt>
      <trkpt lat="45.30202" lon="4.51713">
        <ele>923.79998779297</ele>
        <time>2026-05-11T09:12:59.000Z</time>
      </trkpt>
      <trkpt lat="45.30203" lon="4.51712">
        <ele>924</ele>
        <time>2026-05-11T09:13:00.000Z</time>
      </trkpt>
      <trkpt lat="45.30204" lon="4.5171">
        <ele>924</ele>
        <time>2026-05-11T09:13:01.000Z</time>
      </trkpt>
      <trkpt lat="45.30205" lon="4.51709">
        <ele>924</ele>
        <time>2026-05-11T09:13:02.000Z</time>
      </trkpt>
      <trkpt lat="45.30206" lon="4.51707">
        <ele>924.20001220703</ele>
        <time>2026-05-11T09:13:03.000Z</time>
      </trkpt>
      <trkpt lat="45.30207" lon="4.51706">
        <ele>924.20001220703</ele>
        <time>2026-05-11T09:13:04.000Z</time>
      </trkpt>
      <trkpt lat="45.30208" lon="4.51705">
        <ele>924.20001220703</ele>
        <time>2026-05-11T09:13:05.000Z</time>
      </trkpt>
      <trkpt lat="45.30209" lon="4.51703">
        <ele>924.40002441406</ele>
        <time>2026-05-11T09:13:06.000Z</time>
      </trkpt>
      <trkpt lat="45.30211" lon="4.51701">
        <ele>924.40002441406</ele>
        <time>2026-05-11T09:13:07.000Z</time>
      </trkpt>
      <trkpt lat="45.30212" lon="4.51699">
        <ele>924.59997558594</ele>
        <time>2026-05-11T09:13:08.000Z</time>
      </trkpt>
      <trkpt lat="45.30214" lon="4.51697">
        <ele>924.59997558594</ele>
        <time>2026-05-11T09:13:09.000Z</time>
      </trkpt>
      <trkpt lat="45.30215" lon="4.51695">
        <ele>924.59997558594</ele>
        <time>2026-05-11T09:13:10.000Z</time>
      </trkpt>
      <trkpt lat="45.30216" lon="4.51693">
        <ele>924.79998779297</ele>
        <time>2026-05-11T09:13:11.000Z</time>
      </trkpt>
      <trkpt lat="45.30217" lon="4.51692">
        <ele>924.79998779297</ele>
        <time>2026-05-11T09:13:12.000Z</time>
      </trkpt>
      <trkpt lat="45.30218" lon="4.5169">
        <ele>924.79998779297</ele>
        <time>2026-05-11T09:13:13.000Z</time>
      </trkpt>
      <trkpt lat="45.30219" lon="4.51687">
        <ele>925</ele>
        <time>2026-05-11T09:13:14.000Z</time>
      </trkpt>
      <trkpt lat="45.30219" lon="4.51685">
        <ele>925</ele>
        <time>2026-05-11T09:13:15.000Z</time>
      </trkpt>
      <trkpt lat="45.3022" lon="4.51682">
        <ele>925</ele>
        <time>2026-05-11T09:13:16.000Z</time>
      </trkpt>
      <trkpt lat="45.30221" lon="4.5168">
        <ele>925.20001220703</ele>
        <time>2026-05-11T09:13:17.000Z</time>
      </trkpt>
      <trkpt lat="45.30221" lon="4.51678">
        <ele>925.20001220703</ele>
        <time>2026-05-11T09:13:18.000Z</time>
      </trkpt>
      <trkpt lat="45.30221" lon="4.51677">
        <ele>925.20001220703</ele>
        <time>2026-05-11T09:13:19.000Z</time>
      </trkpt>
      <trkpt lat="45.30222" lon="4.51675">
        <ele>925.40002441406</ele>
        <time>2026-05-11T09:13:20.000Z</time>
      </trkpt>
      <trkpt lat="45.30222" lon="4.51673">
        <ele>925.40002441406</ele>
        <time>2026-05-11T09:13:21.000Z</time>
      </trkpt>
      <trkpt lat="45.30222" lon="4.51671">
        <ele>925.59997558594</ele>
        <time>2026-05-11T09:13:22.000Z</time>
      </trkpt>
      <trkpt lat="45.30223" lon="4.51669">
        <ele>925.79998779297</ele>
        <time>2026-05-11T09:13:23.000Z</time>
      </trkpt>
      <trkpt lat="45.30223" lon="4.51666">
        <ele>926</ele>
        <time>2026-05-11T09:13:24.000Z</time>
      </trkpt>
      <trkpt lat="45.30223" lon="4.51664">
        <ele>926</ele>
        <time>2026-05-11T09:13:25.000Z</time>
      </trkpt>
      <trkpt lat="45.30224" lon="4.51662">
        <ele>926.20001220703</ele>
        <time>2026-05-11T09:13:26.000Z</time>
      </trkpt>
      <trkpt lat="45.30224" lon="4.51659">
        <ele>926.20001220703</ele>
        <time>2026-05-11T09:13:27.000Z</time>
      </trkpt>
      <trkpt lat="45.30224" lon="4.51657">
        <ele>926.40002441406</ele>
        <time>2026-05-11T09:13:28.000Z</time>
      </trkpt>
      <trkpt lat="45.30225" lon="4.51655">
        <ele>926.40002441406</ele>
        <time>2026-05-11T09:13:29.000Z</time>
      </trkpt>
      <trkpt lat="45.30225" lon="4.51653">
        <ele>926.59997558594</ele>
        <time>2026-05-11T09:13:30.000Z</time>
      </trkpt>
      <trkpt lat="45.30226" lon="4.51651">
        <ele>926.79998779297</ele>
        <time>2026-05-11T09:13:31.000Z</time>
      </trkpt>
      <trkpt lat="45.30226" lon="4.51649">
        <ele>926.79998779297</ele>
        <time>2026-05-11T09:13:32.000Z</time>
      </trkpt>
      <trkpt lat="45.30226" lon="4.51647">
        <ele>927</ele>
        <time>2026-05-11T09:13:33.000Z</time>
      </trkpt>
      <trkpt lat="45.30227" lon="4.51645">
        <ele>927</ele>
        <time>2026-05-11T09:13:34.000Z</time>
      </trkpt>
      <trkpt lat="45.30227" lon="4.51642">
        <ele>927.20001220703</ele>
        <time>2026-05-11T09:13:35.000Z</time>
      </trkpt>
      <trkpt lat="45.30227" lon="4.5164">
        <ele>927.40002441406</ele>
        <time>2026-05-11T09:13:36.000Z</time>
      </trkpt>
      <trkpt lat="45.30227" lon="4.51638">
        <ele>927.40002441406</ele>
        <time>2026-05-11T09:13:37.000Z</time>
      </trkpt>
      <trkpt lat="45.30228" lon="4.51636">
        <ele>927.59997558594</ele>
        <time>2026-05-11T09:13:38.000Z</time>
      </trkpt>
      <trkpt lat="45.30228" lon="4.51633">
        <ele>927.59997558594</ele>
        <time>2026-05-11T09:13:39.000Z</time>
      </trkpt>
      <trkpt lat="45.30228" lon="4.5163">
        <ele>927.59997558594</ele>
        <time>2026-05-11T09:13:40.000Z</time>
      </trkpt>
      <trkpt lat="45.30229" lon="4.51628">
        <ele>927.79998779297</ele>
        <time>2026-05-11T09:13:41.000Z</time>
      </trkpt>
      <trkpt lat="45.30229" lon="4.51627">
        <ele>927.79998779297</ele>
        <time>2026-05-11T09:13:42.000Z</time>
      </trkpt>
      <trkpt lat="45.30229" lon="4.51625">
        <ele>927.79998779297</ele>
        <time>2026-05-11T09:13:43.000Z</time>
      </trkpt>
      <trkpt lat="45.30229" lon="4.51622">
        <ele>928</ele>
        <time>2026-05-11T09:13:44.000Z</time>
      </trkpt>
      <trkpt lat="45.30229" lon="4.5162">
        <ele>928</ele>
        <time>2026-05-11T09:13:45.000Z</time>
      </trkpt>
      <trkpt lat="45.30229" lon="4.51618">
        <ele>928.20001220703</ele>
        <time>2026-05-11T09:13:46.000Z</time>
      </trkpt>
      <trkpt lat="45.30229" lon="4.51616">
        <ele>928.40002441406</ele>
        <time>2026-05-11T09:13:47.000Z</time>
      </trkpt>
      <trkpt lat="45.30229" lon="4.51614">
        <ele>928.40002441406</ele>
        <time>2026-05-11T09:13:48.000Z</time>
      </trkpt>
      <trkpt lat="45.3023" lon="4.51611">
        <ele>928.59997558594</ele>
        <time>2026-05-11T09:13:49.000Z</time>
      </trkpt>
      <trkpt lat="45.30231" lon="4.51608">
        <ele>928.79998779297</ele>
        <time>2026-05-11T09:13:50.000Z</time>
      </trkpt>
      <trkpt lat="45.30231" lon="4.51605">
        <ele>928.79998779297</ele>
        <time>2026-05-11T09:13:51.000Z</time>
      </trkpt>
      <trkpt lat="45.30231" lon="4.51602">
        <ele>929</ele>
        <time>2026-05-11T09:13:52.000Z</time>
      </trkpt>
      <trkpt lat="45.30231" lon="4.516">
        <ele>929</ele>
        <time>2026-05-11T09:13:53.000Z</time>
      </trkpt>
      <trkpt lat="45.30231" lon="4.51598">
        <ele>929.20001220703</ele>
        <time>2026-05-11T09:13:54.000Z</time>
      </trkpt>
      <trkpt lat="45.30231" lon="4.51595">
        <ele>929.40002441406</ele>
        <time>2026-05-11T09:13:55.000Z</time>
      </trkpt>
      <trkpt lat="45.30231" lon="4.51592">
        <ele>929.40002441406</ele>
        <time>2026-05-11T09:13:56.000Z</time>
      </trkpt>
      <trkpt lat="45.30232" lon="4.5159">
        <ele>929.59997558594</ele>
        <time>2026-05-11T09:13:57.000Z</time>
      </trkpt>
      <trkpt lat="45.30232" lon="4.51587">
        <ele>929.79998779297</ele>
        <time>2026-05-11T09:13:58.000Z</time>
      </trkpt>
      <trkpt lat="45.30232" lon="4.51584">
        <ele>929.79998779297</ele>
        <time>2026-05-11T09:13:59.000Z</time>
      </trkpt>
      <trkpt lat="45.30233" lon="4.51582">
        <ele>930</ele>
        <time>2026-05-11T09:14:00.000Z</time>
      </trkpt>
      <trkpt lat="45.30233" lon="4.51579">
        <ele>930.20001220703</ele>
        <time>2026-05-11T09:14:01.000Z</time>
      </trkpt>
      <trkpt lat="45.30233" lon="4.51577">
        <ele>930.20001220703</ele>
        <time>2026-05-11T09:14:02.000Z</time>
      </trkpt>
      <trkpt lat="45.30234" lon="4.51574">
        <ele>930.40002441406</ele>
        <time>2026-05-11T09:14:03.000Z</time>
      </trkpt>
      <trkpt lat="45.30234" lon="4.51572">
        <ele>930.59997558594</ele>
        <time>2026-05-11T09:14:04.000Z</time>
      </trkpt>
      <trkpt lat="45.30235" lon="4.5157">
        <ele>930.59997558594</ele>
        <time>2026-05-11T09:14:05.000Z</time>
      </trkpt>
      <trkpt lat="45.30235" lon="4.51567">
        <ele>930.79998779297</ele>
        <time>2026-05-11T09:14:06.000Z</time>
      </trkpt>
      <trkpt lat="45.30236" lon="4.51565">
        <ele>931</ele>
        <time>2026-05-11T09:14:07.000Z</time>
      </trkpt>
      <trkpt lat="45.30237" lon="4.51563">
        <ele>931.20001220703</ele>
        <time>2026-05-11T09:14:08.000Z</time>
      </trkpt>
      <trkpt lat="45.30238" lon="4.51562">
        <ele>931.20001220703</ele>
        <time>2026-05-11T09:14:09.000Z</time>
      </trkpt>
      <trkpt lat="45.30239" lon="4.51561">
        <ele>931.40002441406</ele>
        <time>2026-05-11T09:14:10.000Z</time>
      </trkpt>
      <trkpt lat="45.3024" lon="4.51559">
        <ele>931.40002441406</ele>
        <time>2026-05-11T09:14:11.000Z</time>
      </trkpt>
      <trkpt lat="45.30241" lon="4.51558">
        <ele>931.40002441406</ele>
        <time>2026-05-11T09:14:12.000Z</time>
      </trkpt>
      <trkpt lat="45.30242" lon="4.51558">
        <ele>931.59997558594</ele>
        <time>2026-05-11T09:14:13.000Z</time>
      </trkpt>
      <trkpt lat="45.30244" lon="4.51559">
        <ele>931.59997558594</ele>
        <time>2026-05-11T09:14:14.000Z</time>
      </trkpt>
      <trkpt lat="45.30245" lon="4.51561">
        <ele>931.59997558594</ele>
        <time>2026-05-11T09:14:15.000Z</time>
      </trkpt>
      <trkpt lat="45.30247" lon="4.51564">
        <ele>931.59997558594</ele>
        <time>2026-05-11T09:14:16.000Z</time>
      </trkpt>
      <trkpt lat="45.30248" lon="4.51568">
        <ele>931.40002441406</ele>
        <time>2026-05-11T09:14:17.000Z</time>
      </trkpt>
      <trkpt lat="45.3025" lon="4.51572">
        <ele>931.40002441406</ele>
        <time>2026-05-11T09:14:18.000Z</time>
      </trkpt>
      <trkpt lat="45.30251" lon="4.51577">
        <ele>931.20001220703</ele>
        <time>2026-05-11T09:14:19.000Z</time>
      </trkpt>
      <trkpt lat="45.30253" lon="4.51582">
        <ele>931.20001220703</ele>
        <time>2026-05-11T09:14:20.000Z</time>
      </trkpt>
      <trkpt lat="45.30254" lon="4.51587">
        <ele>931</ele>
        <time>2026-05-11T09:14:21.000Z</time>
      </trkpt>
      <trkpt lat="45.30256" lon="4.51593">
        <ele>930.79998779297</ele>
        <time>2026-05-11T09:14:22.000Z</time>
      </trkpt>
      <trkpt lat="45.30257" lon="4.51599">
        <ele>930.59997558594</ele>
        <time>2026-05-11T09:14:23.000Z</time>
      </trkpt>
      <trkpt lat="45.30259" lon="4.51604">
        <ele>930.40002441406</ele>
        <time>2026-05-11T09:14:24.000Z</time>
      </trkpt>
      <trkpt lat="45.3026" lon="4.5161">
        <ele>930</ele>
        <time>2026-05-11T09:14:25.000Z</time>
      </trkpt>
      <trkpt lat="45.30262" lon="4.51616">
        <ele>929.79998779297</ele>
        <time>2026-05-11T09:14:26.000Z</time>
      </trkpt>
      <trkpt lat="45.30264" lon="4.51621">
        <ele>929.40002441406</ele>
        <time>2026-05-11T09:14:27.000Z</time>
      </trkpt>
      <trkpt lat="45.30266" lon="4.51627">
        <ele>929.20001220703</ele>
        <time>2026-05-11T09:14:28.000Z</time>
      </trkpt>
      <trkpt lat="45.30267" lon="4.51633">
        <ele>928.79998779297</ele>
        <time>2026-05-11T09:14:29.000Z</time>
      </trkpt>
      <trkpt lat="45.3027" lon="4.51639">
        <ele>928.40002441406</ele>
        <time>2026-05-11T09:14:30.000Z</time>
      </trkpt>
      <trkpt lat="45.30272" lon="4.51645">
        <ele>928.20001220703</ele>
        <time>2026-05-11T09:14:31.000Z</time>
      </trkpt>
      <trkpt lat="45.30274" lon="4.51651">
        <ele>927.79998779297</ele>
        <time>2026-05-11T09:14:32.000Z</time>
      </trkpt>
      <trkpt lat="45.30276" lon="4.51657">
        <ele>927.59997558594</ele>
        <time>2026-05-11T09:14:33.000Z</time>
      </trkpt>
      <trkpt lat="45.30279" lon="4.51663">
        <ele>927.20001220703</ele>
        <time>2026-05-11T09:14:34.000Z</time>
      </trkpt>
      <trkpt lat="45.30283" lon="4.51669">
        <ele>927</ele>
        <time>2026-05-11T09:14:35.000Z</time>
      </trkpt>
      <trkpt lat="45.30287" lon="4.51676">
        <ele>926.59997558594</ele>
        <time>2026-05-11T09:14:36.000Z</time>
      </trkpt>
      <trkpt lat="45.30292" lon="4.51682">
        <ele>926.20001220703</ele>
        <time>2026-05-11T09:14:37.000Z</time>
      </trkpt>
      <trkpt lat="45.30297" lon="4.51688">
        <ele>925.79998779297</ele>
        <time>2026-05-11T09:14:38.000Z</time>
      </trkpt>
      <trkpt lat="45.30303" lon="4.51693">
        <ele>925.59997558594</ele>
        <time>2026-05-11T09:14:39.000Z</time>
      </trkpt>
      <trkpt lat="45.30308" lon="4.51697">
        <ele>925.20001220703</ele>
        <time>2026-05-11T09:14:40.000Z</time>
      </trkpt>
      <trkpt lat="45.30313" lon="4.51701">
        <ele>924.79998779297</ele>
        <time>2026-05-11T09:14:41.000Z</time>
      </trkpt>
      <trkpt lat="45.30319" lon="4.51705">
        <ele>924.59997558594</ele>
        <time>2026-05-11T09:14:42.000Z</time>
      </trkpt>
      <trkpt lat="45.30324" lon="4.5171">
        <ele>924.40002441406</ele>
        <time>2026-05-11T09:14:43.000Z</time>
      </trkpt>
      <trkpt lat="45.30329" lon="4.51714">
        <ele>924.20001220703</ele>
        <time>2026-05-11T09:14:44.000Z</time>
      </trkpt>
      <trkpt lat="45.30334" lon="4.51719">
        <ele>924</ele>
        <time>2026-05-11T09:14:45.000Z</time>
      </trkpt>
      <trkpt lat="45.30338" lon="4.51724">
        <ele>923.79998779297</ele>
        <time>2026-05-11T09:14:46.000Z</time>
      </trkpt>
      <trkpt lat="45.30342" lon="4.5173">
        <ele>923.59997558594</ele>
        <time>2026-05-11T09:14:47.000Z</time>
      </trkpt>
      <trkpt lat="45.30346" lon="4.51736">
        <ele>923.40002441406</ele>
        <time>2026-05-11T09:14:48.000Z</time>
      </trkpt>
      <trkpt lat="45.30349" lon="4.51742">
        <ele>923.40002441406</ele>
        <time>2026-05-11T09:14:49.000Z</time>
      </trkpt>
      <trkpt lat="45.30352" lon="4.51749">
        <ele>923.20001220703</ele>
        <time>2026-05-11T09:14:50.000Z</time>
      </trkpt>
      <trkpt lat="45.30355" lon="4.51754">
        <ele>923.20001220703</ele>
        <time>2026-05-11T09:14:51.000Z</time>
      </trkpt>
      <trkpt lat="45.30357" lon="4.51761">
        <ele>923</ele>
        <time>2026-05-11T09:14:52.000Z</time>
      </trkpt>
      <trkpt lat="45.30359" lon="4.51767">
        <ele>923</ele>
        <time>2026-05-11T09:14:53.000Z</time>
      </trkpt>
      <trkpt lat="45.30361" lon="4.51773">
        <ele>923</ele>
        <time>2026-05-11T09:14:54.000Z</time>
      </trkpt>
      <trkpt lat="45.30363" lon="4.51779">
        <ele>923</ele>
        <time>2026-05-11T09:14:55.000Z</time>
      </trkpt>
      <trkpt lat="45.30363" lon="4.51785">
        <ele>923</ele>
        <time>2026-05-11T09:14:56.000Z</time>
      </trkpt>
      <trkpt lat="45.30363" lon="4.51791">
        <ele>923</ele>
        <time>2026-05-11T09:14:57.000Z</time>
      </trkpt>
      <trkpt lat="45.30364" lon="4.51796">
        <ele>923</ele>
        <time>2026-05-11T09:14:58.000Z</time>
      </trkpt>
      <trkpt lat="45.30365" lon="4.51801">
        <ele>923</ele>
        <time>2026-05-11T09:14:59.000Z</time>
      </trkpt>
      <trkpt lat="45.30365" lon="4.51805">
        <ele>923</ele>
        <time>2026-05-11T09:15:00.000Z</time>
      </trkpt>
      <trkpt lat="45.30366" lon="4.5181">
        <ele>923.20001220703</ele>
        <time>2026-05-11T09:15:01.000Z</time>
      </trkpt>
      <trkpt lat="45.30367" lon="4.51814">
        <ele>923.20001220703</ele>
        <time>2026-05-11T09:15:02.000Z</time>
      </trkpt>
      <trkpt lat="45.30368" lon="4.51818">
        <ele>923.20001220703</ele>
        <time>2026-05-11T09:15:03.000Z</time>
      </trkpt>
      <trkpt lat="45.3037" lon="4.51821">
        <ele>923.20001220703</ele>
        <time>2026-05-11T09:15:04.000Z</time>
      </trkpt>
      <trkpt lat="45.30371" lon="4.51825">
        <ele>923.20001220703</ele>
        <time>2026-05-11T09:15:05.000Z</time>
      </trkpt>
      <trkpt lat="45.30373" lon="4.51828">
        <ele>923.20001220703</ele>
        <time>2026-05-11T09:15:06.000Z</time>
      </trkpt>
      <trkpt lat="45.30374" lon="4.51832">
        <ele>923</ele>
        <time>2026-05-11T09:15:07.000Z</time>
      </trkpt>
      <trkpt lat="45.30375" lon="4.51835">
        <ele>923</ele>
        <time>2026-05-11T09:15:08.000Z</time>
      </trkpt>
      <trkpt lat="45.30376" lon="4.51838">
        <ele>923</ele>
        <time>2026-05-11T09:15:09.000Z</time>
      </trkpt>
      <trkpt lat="45.30377" lon="4.51841">
        <ele>923</ele>
        <time>2026-05-11T09:15:10.000Z</time>
      </trkpt>
      <trkpt lat="45.30378" lon="4.51845">
        <ele>923</ele>
        <time>2026-05-11T09:15:11.000Z</time>
      </trkpt>
      <trkpt lat="45.3038" lon="4.51848">
        <ele>923</ele>
        <time>2026-05-11T09:15:12.000Z</time>
      </trkpt>
      <trkpt lat="45.3038" lon="4.51852">
        <ele>923</ele>
        <time>2026-05-11T09:15:13.000Z</time>
      </trkpt>
      <trkpt lat="45.30382" lon="4.51855">
        <ele>923</ele>
        <time>2026-05-11T09:15:14.000Z</time>
      </trkpt>
      <trkpt lat="45.30383" lon="4.51858">
        <ele>923.20001220703</ele>
        <time>2026-05-11T09:15:15.000Z</time>
      </trkpt>
      <trkpt lat="45.30384" lon="4.51861">
        <ele>923.20001220703</ele>
        <time>2026-05-11T09:15:16.000Z</time>
      </trkpt>
      <trkpt lat="45.30384" lon="4.51865">
        <ele>923.40002441406</ele>
        <time>2026-05-11T09:15:17.000Z</time>
      </trkpt>
      <trkpt lat="45.30385" lon="4.51868">
        <ele>923.59997558594</ele>
        <time>2026-05-11T09:15:18.000Z</time>
      </trkpt>
      <trkpt lat="45.30386" lon="4.51871">
        <ele>923.79998779297</ele>
        <time>2026-05-11T09:15:19.000Z</time>
      </trkpt>
      <trkpt lat="45.30387" lon="4.51874">
        <ele>923.79998779297</ele>
        <time>2026-05-11T09:15:20.000Z</time>
      </trkpt>
      <trkpt lat="45.30387" lon="4.51877">
        <ele>924</ele>
        <time>2026-05-11T09:15:21.000Z</time>
      </trkpt>
      <trkpt lat="45.30389" lon="4.5188">
        <ele>924.20001220703</ele>
        <time>2026-05-11T09:15:22.000Z</time>
      </trkpt>
      <trkpt lat="45.3039" lon="4.51882">
        <ele>924.40002441406</ele>
        <time>2026-05-11T09:15:23.000Z</time>
      </trkpt>
      <trkpt lat="45.30391" lon="4.51885">
        <ele>924.59997558594</ele>
        <time>2026-05-11T09:15:24.000Z</time>
      </trkpt>
      <trkpt lat="45.30393" lon="4.51888">
        <ele>924.79998779297</ele>
        <time>2026-05-11T09:15:25.000Z</time>
      </trkpt>
      <trkpt lat="45.30394" lon="4.5189">
        <ele>924.79998779297</ele>
        <time>2026-05-11T09:15:26.000Z</time>
      </trkpt>
      <trkpt lat="45.30396" lon="4.51893">
        <ele>925</ele>
        <time>2026-05-11T09:15:27.000Z</time>
      </trkpt>
      <trkpt lat="45.30397" lon="4.51896">
        <ele>925</ele>
        <time>2026-05-11T09:15:28.000Z</time>
      </trkpt>
      <trkpt lat="45.30399" lon="4.51898">
        <ele>925.20001220703</ele>
        <time>2026-05-11T09:15:29.000Z</time>
      </trkpt>
      <trkpt lat="45.30401" lon="4.519">
        <ele>925.20001220703</ele>
        <time>2026-05-11T09:15:30.000Z</time>
      </trkpt>
      <trkpt lat="45.30403" lon="4.51903">
        <ele>925.20001220703</ele>
        <time>2026-05-11T09:15:31.000Z</time>
      </trkpt>
      <trkpt lat="45.30406" lon="4.51905">
        <ele>925.40002441406</ele>
        <time>2026-05-11T09:15:32.000Z</time>
      </trkpt>
      <trkpt lat="45.30408" lon="4.51906">
        <ele>925.40002441406</ele>
        <time>2026-05-11T09:15:33.000Z</time>
      </trkpt>
      <trkpt lat="45.3041" lon="4.51908">
        <ele>925.59997558594</ele>
        <time>2026-05-11T09:15:34.000Z</time>
      </trkpt>
      <trkpt lat="45.30412" lon="4.51909">
        <ele>925.59997558594</ele>
        <time>2026-05-11T09:15:35.000Z</time>
      </trkpt>
      <trkpt lat="45.30414" lon="4.5191">
        <ele>925.79998779297</ele>
        <time>2026-05-11T09:15:36.000Z</time>
      </trkpt>
      <trkpt lat="45.30416" lon="4.51911">
        <ele>925.79998779297</ele>
        <time>2026-05-11T09:15:37.000Z</time>
      </trkpt>
      <trkpt lat="45.30418" lon="4.51912">
        <ele>925.79998779297</ele>
        <time>2026-05-11T09:15:38.000Z</time>
      </trkpt>
      <trkpt lat="45.3042" lon="4.51913">
        <ele>925.79998779297</ele>
        <time>2026-05-11T09:15:39.000Z</time>
      </trkpt>
      <trkpt lat="45.30422" lon="4.51914">
        <ele>925.79998779297</ele>
        <time>2026-05-11T09:15:40.000Z</time>
      </trkpt>
      <trkpt lat="45.30424" lon="4.51914">
        <ele>925.79998779297</ele>
        <time>2026-05-11T09:15:41.000Z</time>
      </trkpt>
      <trkpt lat="45.30425" lon="4.51914">
        <ele>926</ele>
        <time>2026-05-11T09:15:42.000Z</time>
      </trkpt>
      <trkpt lat="45.30427" lon="4.51915">
        <ele>926</ele>
        <time>2026-05-11T09:15:43.000Z</time>
      </trkpt>
      <trkpt lat="45.30429" lon="4.51915">
        <ele>926</ele>
        <time>2026-05-11T09:15:44.000Z</time>
      </trkpt>
      <trkpt lat="45.30431" lon="4.51915">
        <ele>926.20001220703</ele>
        <time>2026-05-11T09:15:45.000Z</time>
      </trkpt>
      <trkpt lat="45.30433" lon="4.51915">
        <ele>926.40002441406</ele>
        <time>2026-05-11T09:15:46.000Z</time>
      </trkpt>
      <trkpt lat="45.30434" lon="4.51915">
        <ele>926.59997558594</ele>
        <time>2026-05-11T09:15:47.000Z</time>
      </trkpt>
      <trkpt lat="45.30436" lon="4.51914">
        <ele>926.79998779297</ele>
        <time>2026-05-11T09:15:48.000Z</time>
      </trkpt>
      <trkpt lat="45.30438" lon="4.51914">
        <ele>927</ele>
        <time>2026-05-11T09:15:49.000Z</time>
      </trkpt>
      <trkpt lat="45.3044" lon="4.51914">
        <ele>927.40002441406</ele>
        <time>2026-05-11T09:15:50.000Z</time>
      </trkpt>
      <trkpt lat="45.30441" lon="4.51914">
        <ele>927.59997558594</ele>
        <time>2026-05-11T09:15:51.000Z</time>
      </trkpt>
      <trkpt lat="45.30443" lon="4.51914">
        <ele>927.79998779297</ele>
        <time>2026-05-11T09:15:52.000Z</time>
      </trkpt>
      <trkpt lat="45.30445" lon="4.51914">
        <ele>928</ele>
        <time>2026-05-11T09:15:53.000Z</time>
      </trkpt>
      <trkpt lat="45.30447" lon="4.51914">
        <ele>928.20001220703</ele>
        <time>2026-05-11T09:15:54.000Z</time>
      </trkpt>
      <trkpt lat="45.30448" lon="4.51914">
        <ele>928.20001220703</ele>
        <time>2026-05-11T09:15:55.000Z</time>
      </trkpt>
      <trkpt lat="45.3045" lon="4.51914">
        <ele>928.20001220703</ele>
        <time>2026-05-11T09:15:56.000Z</time>
      </trkpt>
      <trkpt lat="45.30452" lon="4.51914">
        <ele>928.20001220703</ele>
        <time>2026-05-11T09:15:57.000Z</time>
      </trkpt>
      <trkpt lat="45.30453" lon="4.51914">
        <ele>928.20001220703</ele>
        <time>2026-05-11T09:15:58.000Z</time>
      </trkpt>
      <trkpt lat="45.30455" lon="4.51915">
        <ele>928.20001220703</ele>
        <time>2026-05-11T09:15:59.000Z</time>
      </trkpt>
      <trkpt lat="45.30457" lon="4.51916">
        <ele>928.20001220703</ele>
        <time>2026-05-11T09:16:00.000Z</time>
      </trkpt>
      <trkpt lat="45.30458" lon="4.51917">
        <ele>928</ele>
        <time>2026-05-11T09:16:01.000Z</time>
      </trkpt>
      <trkpt lat="45.3046" lon="4.51918">
        <ele>928</ele>
        <time>2026-05-11T09:16:02.000Z</time>
      </trkpt>
      <trkpt lat="45.30461" lon="4.51919">
        <ele>928</ele>
        <time>2026-05-11T09:16:03.000Z</time>
      </trkpt>
      <trkpt lat="45.30462" lon="4.51919">
        <ele>928</ele>
        <time>2026-05-11T09:16:04.000Z</time>
      </trkpt>
      <trkpt lat="45.30464" lon="4.5192">
        <ele>927.79998779297</ele>
        <time>2026-05-11T09:16:05.000Z</time>
      </trkpt>
      <trkpt lat="45.30465" lon="4.5192">
        <ele>927.79998779297</ele>
        <time>2026-05-11T09:16:06.000Z</time>
      </trkpt>
      <trkpt lat="45.30467" lon="4.51921">
        <ele>927.79998779297</ele>
        <time>2026-05-11T09:16:07.000Z</time>
      </trkpt>
      <trkpt lat="45.30468" lon="4.51921">
        <ele>927.79998779297</ele>
        <time>2026-05-11T09:16:08.000Z</time>
      </trkpt>
      <trkpt lat="45.30471" lon="4.51922">
        <ele>927.59997558594</ele>
        <time>2026-05-11T09:16:09.000Z</time>
      </trkpt>
      <trkpt lat="45.30474" lon="4.51923">
        <ele>927.59997558594</ele>
        <time>2026-05-11T09:16:10.000Z</time>
      </trkpt>
      <trkpt lat="45.30478" lon="4.51924">
        <ele>927.40002441406</ele>
        <time>2026-05-11T09:16:11.000Z</time>
      </trkpt>
      <trkpt lat="45.30482" lon="4.51925">
        <ele>927.20001220703</ele>
        <time>2026-05-11T09:16:12.000Z</time>
      </trkpt>
      <trkpt lat="45.30488" lon="4.51927">
        <ele>926.79998779297</ele>
        <time>2026-05-11T09:16:13.000Z</time>
      </trkpt>
      <trkpt lat="45.30494" lon="4.51929">
        <ele>926.59997558594</ele>
        <time>2026-05-11T09:16:14.000Z</time>
      </trkpt>
      <trkpt lat="45.305" lon="4.51932">
        <ele>926.20001220703</ele>
        <time>2026-05-11T09:16:15.000Z</time>
      </trkpt>
      <trkpt lat="45.30507" lon="4.51935">
        <ele>925.79998779297</ele>
        <time>2026-05-11T09:16:16.000Z</time>
      </trkpt>
      <trkpt lat="45.30515" lon="4.51939">
        <ele>925.20001220703</ele>
        <time>2026-05-11T09:16:17.000Z</time>
      </trkpt>
      <trkpt lat="45.30522" lon="4.51944">
        <ele>924.79998779297</ele>
        <time>2026-05-11T09:16:18.000Z</time>
      </trkpt>
      <trkpt lat="45.30528" lon="4.51949">
        <ele>924.40002441406</ele>
        <time>2026-05-11T09:16:19.000Z</time>
      </trkpt>
      <trkpt lat="45.30534" lon="4.51955">
        <ele>924</ele>
        <time>2026-05-11T09:16:20.000Z</time>
      </trkpt>
      <trkpt lat="45.30539" lon="4.51961">
        <ele>923.79998779297</ele>
        <time>2026-05-11T09:16:21.000Z</time>
      </trkpt>
      <trkpt lat="45.30543" lon="4.51966">
        <ele>923.59997558594</ele>
        <time>2026-05-11T09:16:22.000Z</time>
      </trkpt>
      <trkpt lat="45.30547" lon="4.51972">
        <ele>923.59997558594</ele>
        <time>2026-05-11T09:16:23.000Z</time>
      </trkpt>
      <trkpt lat="45.30549" lon="4.51977">
        <ele>923.59997558594</ele>
        <time>2026-05-11T09:16:24.000Z</time>
      </trkpt>
      <trkpt lat="45.30552" lon="4.51981">
        <ele>923.79998779297</ele>
        <time>2026-05-11T09:16:25.000Z</time>
      </trkpt>
      <trkpt lat="45.30554" lon="4.51984">
        <ele>924</ele>
        <time>2026-05-11T09:16:26.000Z</time>
      </trkpt>
      <trkpt lat="45.30556" lon="4.51988">
        <ele>924.20001220703</ele>
        <time>2026-05-11T09:16:27.000Z</time>
      </trkpt>
      <trkpt lat="45.30557" lon="4.5199">
        <ele>924.40002441406</ele>
        <time>2026-05-11T09:16:28.000Z</time>
      </trkpt>
      <trkpt lat="45.30559" lon="4.51992">
        <ele>924.79998779297</ele>
        <time>2026-05-11T09:16:29.000Z</time>
      </trkpt>
      <trkpt lat="45.3056" lon="4.51994">
        <ele>925</ele>
        <time>2026-05-11T09:16:30.000Z</time>
      </trkpt>
      <trkpt lat="45.30561" lon="4.51996">
        <ele>925.20001220703</ele>
        <time>2026-05-11T09:16:31.000Z</time>
      </trkpt>
      <trkpt lat="45.30563" lon="4.51998">
        <ele>925.59997558594</ele>
        <time>2026-05-11T09:16:32.000Z</time>
      </trkpt>
      <trkpt lat="45.30565" lon="4.52">
        <ele>925.79998779297</ele>
        <time>2026-05-11T09:16:33.000Z</time>
      </trkpt>
      <trkpt lat="45.30566" lon="4.52001">
        <ele>926</ele>
        <time>2026-05-11T09:16:34.000Z</time>
      </trkpt>
      <trkpt lat="45.30568" lon="4.52004">
        <ele>926.20001220703</ele>
        <time>2026-05-11T09:16:35.000Z</time>
      </trkpt>
      <trkpt lat="45.30569" lon="4.52006">
        <ele>926.40002441406</ele>
        <time>2026-05-11T09:16:36.000Z</time>
      </trkpt>
      <trkpt lat="45.3057" lon="4.52008">
        <ele>926.59997558594</ele>
        <time>2026-05-11T09:16:37.000Z</time>
      </trkpt>
      <trkpt lat="45.30572" lon="4.5201">
        <ele>926.79998779297</ele>
        <time>2026-05-11T09:16:38.000Z</time>
      </trkpt>
      <trkpt lat="45.30573" lon="4.52012">
        <ele>927</ele>
        <time>2026-05-11T09:16:39.000Z</time>
      </trkpt>
      <trkpt lat="45.30574" lon="4.52014">
        <ele>927</ele>
        <time>2026-05-11T09:16:40.000Z</time>
      </trkpt>
      <trkpt lat="45.30575" lon="4.52016">
        <ele>927.20001220703</ele>
        <time>2026-05-11T09:16:41.000Z</time>
      </trkpt>
      <trkpt lat="45.30577" lon="4.52018">
        <ele>927.40002441406</ele>
        <time>2026-05-11T09:16:42.000Z</time>
      </trkpt>
      <trkpt lat="45.30578" lon="4.5202">
        <ele>927.59997558594</ele>
        <time>2026-05-11T09:16:43.000Z</time>
      </trkpt>
      <trkpt lat="45.30579" lon="4.52022">
        <ele>927.79998779297</ele>
        <time>2026-05-11T09:16:44.000Z</time>
      </trkpt>
      <trkpt lat="45.30581" lon="4.52024">
        <ele>927.79998779297</ele>
        <time>2026-05-11T09:16:45.000Z</time>
      </trkpt>
      <trkpt lat="45.30582" lon="4.52026">
        <ele>928</ele>
        <time>2026-05-11T09:16:46.000Z</time>
      </trkpt>
      <trkpt lat="45.30583" lon="4.52028">
        <ele>928.20001220703</ele>
        <time>2026-05-11T09:16:47.000Z</time>
      </trkpt>
      <trkpt lat="45.30584" lon="4.52029">
        <ele>928.40002441406</ele>
        <time>2026-05-11T09:16:48.000Z</time>
      </trkpt>
      <trkpt lat="45.30586" lon="4.52031">
        <ele>928.59997558594</ele>
        <time>2026-05-11T09:16:49.000Z</time>
      </trkpt>
      <trkpt lat="45.30587" lon="4.52033">
        <ele>928.79998779297</ele>
        <time>2026-05-11T09:16:50.000Z</time>
      </trkpt>
      <trkpt lat="45.30588" lon="4.52035">
        <ele>929</ele>
        <time>2026-05-11T09:16:51.000Z</time>
      </trkpt>
      <trkpt lat="45.30589" lon="4.52036">
        <ele>929.20001220703</ele>
        <time>2026-05-11T09:16:52.000Z</time>
      </trkpt>
      <trkpt lat="45.30591" lon="4.52038">
        <ele>929.40002441406</ele>
        <time>2026-05-11T09:16:53.000Z</time>
      </trkpt>
      <trkpt lat="45.30592" lon="4.52039">
        <ele>929.59997558594</ele>
        <time>2026-05-11T09:16:54.000Z</time>
      </trkpt>
      <trkpt lat="45.30593" lon="4.52041">
        <ele>929.79998779297</ele>
        <time>2026-05-11T09:16:55.000Z</time>
      </trkpt>
      <trkpt lat="45.30594" lon="4.52044">
        <ele>930</ele>
        <time>2026-05-11T09:16:56.000Z</time>
      </trkpt>
      <trkpt lat="45.30595" lon="4.52046">
        <ele>930</ele>
        <time>2026-05-11T09:16:57.000Z</time>
      </trkpt>
      <trkpt lat="45.30596" lon="4.52048">
        <ele>930.20001220703</ele>
        <time>2026-05-11T09:16:58.000Z</time>
      </trkpt>
      <trkpt lat="45.30597" lon="4.52051">
        <ele>930.40002441406</ele>
        <time>2026-05-11T09:16:59.000Z</time>
      </trkpt>
      <trkpt lat="45.30598" lon="4.52053">
        <ele>930.59997558594</ele>
        <time>2026-05-11T09:17:00.000Z</time>
      </trkpt>
      <trkpt lat="45.30599" lon="4.52055">
        <ele>930.59997558594</ele>
        <time>2026-05-11T09:17:01.000Z</time>
      </trkpt>
      <trkpt lat="45.306" lon="4.52056">
        <ele>930.79998779297</ele>
        <time>2026-05-11T09:17:02.000Z</time>
      </trkpt>
      <trkpt lat="45.30602" lon="4.52058">
        <ele>931</ele>
        <time>2026-05-11T09:17:03.000Z</time>
      </trkpt>
      <trkpt lat="45.30603" lon="4.52059">
        <ele>931.20001220703</ele>
        <time>2026-05-11T09:17:04.000Z</time>
      </trkpt>
      <trkpt lat="45.30604" lon="4.52061">
        <ele>931.40002441406</ele>
        <time>2026-05-11T09:17:05.000Z</time>
      </trkpt>
      <trkpt lat="45.30606" lon="4.52063">
        <ele>931.40002441406</ele>
        <time>2026-05-11T09:17:06.000Z</time>
      </trkpt>
      <trkpt lat="45.30606" lon="4.52064">
        <ele>931.59997558594</ele>
        <time>2026-05-11T09:17:07.000Z</time>
      </trkpt>
      <trkpt lat="45.30608" lon="4.52066">
        <ele>931.79998779297</ele>
        <time>2026-05-11T09:17:08.000Z</time>
      </trkpt>
      <trkpt lat="45.30609" lon="4.52068">
        <ele>932</ele>
        <time>2026-05-11T09:17:09.000Z</time>
      </trkpt>
      <trkpt lat="45.3061" lon="4.5207">
        <ele>932.20001220703</ele>
        <time>2026-05-11T09:17:10.000Z</time>
      </trkpt>
      <trkpt lat="45.30611" lon="4.52073">
        <ele>932.40002441406</ele>
        <time>2026-05-11T09:17:11.000Z</time>
      </trkpt>
      <trkpt lat="45.30612" lon="4.52075">
        <ele>932.40002441406</ele>
        <time>2026-05-11T09:17:12.000Z</time>
      </trkpt>
      <trkpt lat="45.30613" lon="4.52077">
        <ele>932.59997558594</ele>
        <time>2026-05-11T09:17:13.000Z</time>
      </trkpt>
      <trkpt lat="45.30615" lon="4.52078">
        <ele>932.79998779297</ele>
        <time>2026-05-11T09:17:14.000Z</time>
      </trkpt>
      <trkpt lat="45.30616" lon="4.52081">
        <ele>933</ele>
        <time>2026-05-11T09:17:15.000Z</time>
      </trkpt>
      <trkpt lat="45.30617" lon="4.52083">
        <ele>933.20001220703</ele>
        <time>2026-05-11T09:17:16.000Z</time>
      </trkpt>
      <trkpt lat="45.30618" lon="4.52085">
        <ele>933.40002441406</ele>
        <time>2026-05-11T09:17:17.000Z</time>
      </trkpt>
      <trkpt lat="45.30619" lon="4.52087">
        <ele>933.59997558594</ele>
        <time>2026-05-11T09:17:18.000Z</time>
      </trkpt>
      <trkpt lat="45.3062" lon="4.52089">
        <ele>933.79998779297</ele>
        <time>2026-05-11T09:17:19.000Z</time>
      </trkpt>
      <trkpt lat="45.30621" lon="4.52091">
        <ele>934</ele>
        <time>2026-05-11T09:17:20.000Z</time>
      </trkpt>
      <trkpt lat="45.30623" lon="4.52094">
        <ele>934</ele>
        <time>2026-05-11T09:17:21.000Z</time>
      </trkpt>
      <trkpt lat="45.30624" lon="4.52095">
        <ele>934.20001220703</ele>
        <time>2026-05-11T09:17:22.000Z</time>
      </trkpt>
      <trkpt lat="45.30625" lon="4.52097">
        <ele>934.40002441406</ele>
        <time>2026-05-11T09:17:23.000Z</time>
      </trkpt>
      <trkpt lat="45.30626" lon="4.521">
        <ele>934.59997558594</ele>
        <time>2026-05-11T09:17:24.000Z</time>
      </trkpt>
      <trkpt lat="45.30627" lon="4.52102">
        <ele>934.59997558594</ele>
        <time>2026-05-11T09:17:25.000Z</time>
      </trkpt>
      <trkpt lat="45.30628" lon="4.52104">
        <ele>934.79998779297</ele>
        <time>2026-05-11T09:17:26.000Z</time>
      </trkpt>
      <trkpt lat="45.3063" lon="4.52105">
        <ele>934.79998779297</ele>
        <time>2026-05-11T09:17:27.000Z</time>
      </trkpt>
      <trkpt lat="45.30631" lon="4.52107">
        <ele>935</ele>
        <time>2026-05-11T09:17:28.000Z</time>
      </trkpt>
      <trkpt lat="45.30632" lon="4.52109">
        <ele>935.20001220703</ele>
        <time>2026-05-11T09:17:29.000Z</time>
      </trkpt>
      <trkpt lat="45.30633" lon="4.52111">
        <ele>935.40002441406</ele>
        <time>2026-05-11T09:17:30.000Z</time>
      </trkpt>
      <trkpt lat="45.30633" lon="4.52113">
        <ele>935.40002441406</ele>
        <time>2026-05-11T09:17:31.000Z</time>
      </trkpt>
      <trkpt lat="45.30634" lon="4.52115">
        <ele>935.59997558594</ele>
        <time>2026-05-11T09:17:32.000Z</time>
      </trkpt>
      <trkpt lat="45.30635" lon="4.52117">
        <ele>935.79998779297</ele>
        <time>2026-05-11T09:17:33.000Z</time>
      </trkpt>
      <trkpt lat="45.30636" lon="4.52118">
        <ele>936</ele>
        <time>2026-05-11T09:17:34.000Z</time>
      </trkpt>
      <trkpt lat="45.30637" lon="4.52119">
        <ele>936.20001220703</ele>
        <time>2026-05-11T09:17:35.000Z</time>
      </trkpt>
      <trkpt lat="45.30638" lon="4.52121">
        <ele>936.40002441406</ele>
        <time>2026-05-11T09:17:36.000Z</time>
      </trkpt>
      <trkpt lat="45.30639" lon="4.52123">
        <ele>936.59997558594</ele>
        <time>2026-05-11T09:17:37.000Z</time>
      </trkpt>
      <trkpt lat="45.30639" lon="4.52125">
        <ele>936.79998779297</ele>
        <time>2026-05-11T09:17:38.000Z</time>
      </trkpt>
      <trkpt lat="45.3064" lon="4.52127">
        <ele>937</ele>
        <time>2026-05-11T09:17:39.000Z</time>
      </trkpt>
      <trkpt lat="45.30641" lon="4.52129">
        <ele>937.20001220703</ele>
        <time>2026-05-11T09:17:40.000Z</time>
      </trkpt>
      <trkpt lat="45.30642" lon="4.5213">
        <ele>937.40002441406</ele>
        <time>2026-05-11T09:17:41.000Z</time>
      </trkpt>
      <trkpt lat="45.30643" lon="4.52132">
        <ele>937.59997558594</ele>
        <time>2026-05-11T09:17:42.000Z</time>
      </trkpt>
      <trkpt lat="45.30644" lon="4.52135">
        <ele>937.79998779297</ele>
        <time>2026-05-11T09:17:43.000Z</time>
      </trkpt>
      <trkpt lat="45.30645" lon="4.52137">
        <ele>938</ele>
        <time>2026-05-11T09:17:44.000Z</time>
      </trkpt>
      <trkpt lat="45.30645" lon="4.52139">
        <ele>938.20001220703</ele>
        <time>2026-05-11T09:17:45.000Z</time>
      </trkpt>
      <trkpt lat="45.30646" lon="4.52142">
        <ele>938.40002441406</ele>
        <time>2026-05-11T09:17:46.000Z</time>
      </trkpt>
      <trkpt lat="45.30647" lon="4.52143">
        <ele>938.59997558594</ele>
        <time>2026-05-11T09:17:47.000Z</time>
      </trkpt>
      <trkpt lat="45.30648" lon="4.52145">
        <ele>939</ele>
        <time>2026-05-11T09:17:48.000Z</time>
      </trkpt>
      <trkpt lat="45.30649" lon="4.52147">
        <ele>939.20001220703</ele>
        <time>2026-05-11T09:17:49.000Z</time>
      </trkpt>
      <trkpt lat="45.3065" lon="4.52149">
        <ele>939.40002441406</ele>
        <time>2026-05-11T09:17:50.000Z</time>
      </trkpt>
      <trkpt lat="45.30651" lon="4.52151">
        <ele>939.59997558594</ele>
        <time>2026-05-11T09:17:51.000Z</time>
      </trkpt>
      <trkpt lat="45.30652" lon="4.52153">
        <ele>939.79998779297</ele>
        <time>2026-05-11T09:17:52.000Z</time>
      </trkpt>
      <trkpt lat="45.30653" lon="4.52155">
        <ele>940</ele>
        <time>2026-05-11T09:17:53.000Z</time>
      </trkpt>
      <trkpt lat="45.30654" lon="4.52157">
        <ele>940.20001220703</ele>
        <time>2026-05-11T09:17:54.000Z</time>
      </trkpt>
      <trkpt lat="45.30655" lon="4.52159">
        <ele>940.40002441406</ele>
        <time>2026-05-11T09:17:55.000Z</time>
      </trkpt>
      <trkpt lat="45.30656" lon="4.52161">
        <ele>940.40002441406</ele>
        <time>2026-05-11T09:17:56.000Z</time>
      </trkpt>
      <trkpt lat="45.30657" lon="4.52163">
        <ele>940.59997558594</ele>
        <time>2026-05-11T09:17:57.000Z</time>
      </trkpt>
      <trkpt lat="45.30658" lon="4.52165">
        <ele>940.59997558594</ele>
        <time>2026-05-11T09:17:58.000Z</time>
      </trkpt>
      <trkpt lat="45.3066" lon="4.52166">
        <ele>940.79998779297</ele>
        <time>2026-05-11T09:17:59.000Z</time>
      </trkpt>
      <trkpt lat="45.30661" lon="4.52168">
        <ele>940.79998779297</ele>
        <time>2026-05-11T09:18:00.000Z</time>
      </trkpt>
      <trkpt lat="45.30662" lon="4.52169">
        <ele>941</ele>
        <time>2026-05-11T09:18:01.000Z</time>
      </trkpt>
      <trkpt lat="45.30664" lon="4.52171">
        <ele>941.20001220703</ele>
        <time>2026-05-11T09:18:02.000Z</time>
      </trkpt>
      <trkpt lat="45.30665" lon="4.52173">
        <ele>941.20001220703</ele>
        <time>2026-05-11T09:18:03.000Z</time>
      </trkpt>
      <trkpt lat="45.30667" lon="4.52174">
        <ele>941.40002441406</ele>
        <time>2026-05-11T09:18:04.000Z</time>
      </trkpt>
      <trkpt lat="45.30669" lon="4.52175">
        <ele>941.59997558594</ele>
        <time>2026-05-11T09:18:05.000Z</time>
      </trkpt>
      <trkpt lat="45.3067" lon="4.52177">
        <ele>941.79998779297</ele>
        <time>2026-05-11T09:18:06.000Z</time>
      </trkpt>
      <trkpt lat="45.30672" lon="4.52178">
        <ele>942</ele>
        <time>2026-05-11T09:18:07.000Z</time>
      </trkpt>
      <trkpt lat="45.30673" lon="4.52179">
        <ele>942.20001220703</ele>
        <time>2026-05-11T09:18:08.000Z</time>
      </trkpt>
      <trkpt lat="45.30675" lon="4.5218">
        <ele>942.40002441406</ele>
        <time>2026-05-11T09:18:09.000Z</time>
      </trkpt>
      <trkpt lat="45.30677" lon="4.52181">
        <ele>942.59997558594</ele>
        <time>2026-05-11T09:18:10.000Z</time>
      </trkpt>
      <trkpt lat="45.30679" lon="4.52181">
        <ele>942.79998779297</ele>
        <time>2026-05-11T09:18:11.000Z</time>
      </trkpt>
      <trkpt lat="45.30681" lon="4.52181">
        <ele>943</ele>
        <time>2026-05-11T09:18:12.000Z</time>
      </trkpt>
      <trkpt lat="45.30684" lon="4.52182">
        <ele>943.20001220703</ele>
        <time>2026-05-11T09:18:13.000Z</time>
      </trkpt>
      <trkpt lat="45.30686" lon="4.52182">
        <ele>943.40002441406</ele>
        <time>2026-05-11T09:18:14.000Z</time>
      </trkpt>
      <trkpt lat="45.30688" lon="4.52183">
        <ele>943.59997558594</ele>
        <time>2026-05-11T09:18:15.000Z</time>
      </trkpt>
      <trkpt lat="45.3069" lon="4.52183">
        <ele>943.59997558594</ele>
        <time>2026-05-11T09:18:16.000Z</time>
      </trkpt>
      <trkpt lat="45.30692" lon="4.52182">
        <ele>943.79998779297</ele>
        <time>2026-05-11T09:18:17.000Z</time>
      </trkpt>
      <trkpt lat="45.30694" lon="4.52182">
        <ele>944</ele>
        <time>2026-05-11T09:18:18.000Z</time>
      </trkpt>
      <trkpt lat="45.30696" lon="4.52182">
        <ele>944</ele>
        <time>2026-05-11T09:18:19.000Z</time>
      </trkpt>
      <trkpt lat="45.30698" lon="4.52181">
        <ele>944.20001220703</ele>
        <time>2026-05-11T09:18:20.000Z</time>
      </trkpt>
      <trkpt lat="45.307" lon="4.5218">
        <ele>944.40002441406</ele>
        <time>2026-05-11T09:18:21.000Z</time>
      </trkpt>
      <trkpt lat="45.30702" lon="4.5218">
        <ele>944.40002441406</ele>
        <time>2026-05-11T09:18:22.000Z</time>
      </trkpt>
      <trkpt lat="45.30704" lon="4.52179">
        <ele>944.59997558594</ele>
        <time>2026-05-11T09:18:23.000Z</time>
      </trkpt>
      <trkpt lat="45.30706" lon="4.52178">
        <ele>944.79998779297</ele>
        <time>2026-05-11T09:18:24.000Z</time>
      </trkpt>
      <trkpt lat="45.30708" lon="4.52177">
        <ele>944.79998779297</ele>
        <time>2026-05-11T09:18:25.000Z</time>
      </trkpt>
      <trkpt lat="45.3071" lon="4.52177">
        <ele>945</ele>
        <time>2026-05-11T09:18:26.000Z</time>
      </trkpt>
      <trkpt lat="45.30712" lon="4.52176">
        <ele>945.20001220703</ele>
        <time>2026-05-11T09:18:27.000Z</time>
      </trkpt>
      <trkpt lat="45.30713" lon="4.52174">
        <ele>945.40002441406</ele>
        <time>2026-05-11T09:18:28.000Z</time>
      </trkpt>
      <trkpt lat="45.30715" lon="4.52174">
        <ele>945.59997558594</ele>
        <time>2026-05-11T09:18:29.000Z</time>
      </trkpt>
      <trkpt lat="45.30717" lon="4.52172">
        <ele>946</ele>
        <time>2026-05-11T09:18:30.000Z</time>
      </trkpt>
      <trkpt lat="45.30719" lon="4.52171">
        <ele>946.20001220703</ele>
        <time>2026-05-11T09:18:31.000Z</time>
      </trkpt>
      <trkpt lat="45.3072" lon="4.5217">
        <ele>946.40002441406</ele>
        <time>2026-05-11T09:18:32.000Z</time>
      </trkpt>
      <trkpt lat="45.30722" lon="4.52169">
        <ele>946.59997558594</ele>
        <time>2026-05-11T09:18:33.000Z</time>
      </trkpt>
      <trkpt lat="45.30723" lon="4.52168">
        <ele>946.79998779297</ele>
        <time>2026-05-11T09:18:34.000Z</time>
      </trkpt>
      <trkpt lat="45.30725" lon="4.52167">
        <ele>947</ele>
        <time>2026-05-11T09:18:35.000Z</time>
      </trkpt>
      <trkpt lat="45.30727" lon="4.52166">
        <ele>947.20001220703</ele>
        <time>2026-05-11T09:18:36.000Z</time>
      </trkpt>
      <trkpt lat="45.30728" lon="4.52165">
        <ele>947.40002441406</ele>
        <time>2026-05-11T09:18:37.000Z</time>
      </trkpt>
      <trkpt lat="45.3073" lon="4.52163">
        <ele>947.40002441406</ele>
        <time>2026-05-11T09:18:38.000Z</time>
      </trkpt>
      <trkpt lat="45.30732" lon="4.52161">
        <ele>947.59997558594</ele>
        <time>2026-05-11T09:18:39.000Z</time>
      </trkpt>
      <trkpt lat="45.30734" lon="4.52159">
        <ele>947.79998779297</ele>
        <time>2026-05-11T09:18:40.000Z</time>
      </trkpt>
      <trkpt lat="45.30736" lon="4.52158">
        <ele>948</ele>
        <time>2026-05-11T09:18:41.000Z</time>
      </trkpt>
      <trkpt lat="45.30738" lon="4.52157">
        <ele>948</ele>
        <time>2026-05-11T09:18:42.000Z</time>
      </trkpt>
      <trkpt lat="45.3074" lon="4.52156">
        <ele>948.20001220703</ele>
        <time>2026-05-11T09:18:43.000Z</time>
      </trkpt>
      <trkpt lat="45.30741" lon="4.52155">
        <ele>948.40002441406</ele>
        <time>2026-05-11T09:18:44.000Z</time>
      </trkpt>
      <trkpt lat="45.30743" lon="4.52154">
        <ele>948.40002441406</ele>
        <time>2026-05-11T09:18:45.000Z</time>
      </trkpt>
      <trkpt lat="45.30745" lon="4.52153">
        <ele>948.59997558594</ele>
        <time>2026-05-11T09:18:46.000Z</time>
      </trkpt>
      <trkpt lat="45.30747" lon="4.52151">
        <ele>948.59997558594</ele>
        <time>2026-05-11T09:18:47.000Z</time>
      </trkpt>
      <trkpt lat="45.30748" lon="4.5215">
        <ele>948.59997558594</ele>
        <time>2026-05-11T09:18:48.000Z</time>
      </trkpt>
      <trkpt lat="45.30749" lon="4.52148">
        <ele>948.79998779297</ele>
        <time>2026-05-11T09:18:49.000Z</time>
      </trkpt>
      <trkpt lat="45.3075" lon="4.52147">
        <ele>948.79998779297</ele>
        <time>2026-05-11T09:18:50.000Z</time>
      </trkpt>
      <trkpt lat="45.30751" lon="4.52145">
        <ele>948.79998779297</ele>
        <time>2026-05-11T09:18:51.000Z</time>
      </trkpt>
      <trkpt lat="45.30752" lon="4.52143">
        <ele>948.79998779297</ele>
        <time>2026-05-11T09:18:52.000Z</time>
      </trkpt>
      <trkpt lat="45.30753" lon="4.5214">
        <ele>949</ele>
        <time>2026-05-11T09:18:53.000Z</time>
      </trkpt>
      <trkpt lat="45.30753" lon="4.52137">
        <ele>949</ele>
        <time>2026-05-11T09:18:54.000Z</time>
      </trkpt>
      <trkpt lat="45.30753" lon="4.52134">
        <ele>949</ele>
        <time>2026-05-11T09:18:55.000Z</time>
      </trkpt>
      <trkpt lat="45.30752" lon="4.52132">
        <ele>949</ele>
        <time>2026-05-11T09:18:56.000Z</time>
      </trkpt>
      <trkpt lat="45.30751" lon="4.52129">
        <ele>949</ele>
        <time>2026-05-11T09:18:57.000Z</time>
      </trkpt>
      <trkpt lat="45.3075" lon="4.52127">
        <ele>949</ele>
        <time>2026-05-11T09:18:58.000Z</time>
      </trkpt>
      <trkpt lat="45.3075" lon="4.52125">
        <ele>949</ele>
        <time>2026-05-11T09:18:59.000Z</time>
      </trkpt>
      <trkpt lat="45.30749" lon="4.52122">
        <ele>948.79998779297</ele>
        <time>2026-05-11T09:19:00.000Z</time>
      </trkpt>
      <trkpt lat="45.30749" lon="4.52119">
        <ele>948.79998779297</ele>
        <time>2026-05-11T09:19:01.000Z</time>
      </trkpt>
      <trkpt lat="45.30749" lon="4.52115">
        <ele>948.79998779297</ele>
        <time>2026-05-11T09:19:02.000Z</time>
      </trkpt>
      <trkpt lat="45.30749" lon="4.52112">
        <ele>948.79998779297</ele>
        <time>2026-05-11T09:19:03.000Z</time>
      </trkpt>
      <trkpt lat="45.30749" lon="4.5211">
        <ele>949</ele>
        <time>2026-05-11T09:19:04.000Z</time>
      </trkpt>
      <trkpt lat="45.30749" lon="4.52107">
        <ele>949</ele>
        <time>2026-05-11T09:19:05.000Z</time>
      </trkpt>
      <trkpt lat="45.30749" lon="4.52104">
        <ele>949.20001220703</ele>
        <time>2026-05-11T09:19:06.000Z</time>
      </trkpt>
      <trkpt lat="45.3075" lon="4.52101">
        <ele>949.40002441406</ele>
        <time>2026-05-11T09:19:07.000Z</time>
      </trkpt>
      <trkpt lat="45.3075" lon="4.52098">
        <ele>949.59997558594</ele>
        <time>2026-05-11T09:19:08.000Z</time>
      </trkpt>
      <trkpt lat="45.30751" lon="4.52095">
        <ele>949.79998779297</ele>
        <time>2026-05-11T09:19:09.000Z</time>
      </trkpt>
      <trkpt lat="45.30752" lon="4.52093">
        <ele>950</ele>
        <time>2026-05-11T09:19:10.000Z</time>
      </trkpt>
      <trkpt lat="45.30753" lon="4.52091">
        <ele>950.20001220703</ele>
        <time>2026-05-11T09:19:11.000Z</time>
      </trkpt>
      <trkpt lat="45.30755" lon="4.52089">
        <ele>950.40002441406</ele>
        <time>2026-05-11T09:19:12.000Z</time>
      </trkpt>
      <trkpt lat="45.30756" lon="4.52086">
        <ele>950.59997558594</ele>
        <time>2026-05-11T09:19:13.000Z</time>
      </trkpt>
      <trkpt lat="45.30757" lon="4.52084">
        <ele>950.79998779297</ele>
        <time>2026-05-11T09:19:14.000Z</time>
      </trkpt>
      <trkpt lat="45.30759" lon="4.52082">
        <ele>951</ele>
        <time>2026-05-11T09:19:15.000Z</time>
      </trkpt>
      <trkpt lat="45.3076" lon="4.5208">
        <ele>951.20001220703</ele>
        <time>2026-05-11T09:19:16.000Z</time>
      </trkpt>
      <trkpt lat="45.30761" lon="4.52078">
        <ele>951.40002441406</ele>
        <time>2026-05-11T09:19:17.000Z</time>
      </trkpt>
      <trkpt lat="45.30762" lon="4.52077">
        <ele>951.59997558594</ele>
        <time>2026-05-11T09:19:18.000Z</time>
      </trkpt>
      <trkpt lat="45.30764" lon="4.52076">
        <ele>951.79998779297</ele>
        <time>2026-05-11T09:19:19.000Z</time>
      </trkpt>
      <trkpt lat="45.30766" lon="4.52074">
        <ele>952</ele>
        <time>2026-05-11T09:19:20.000Z</time>
      </trkpt>
      <trkpt lat="45.30767" lon="4.52073">
        <ele>952.20001220703</ele>
        <time>2026-05-11T09:19:21.000Z</time>
      </trkpt>
      <trkpt lat="45.30769" lon="4.52071">
        <ele>952.40002441406</ele>
        <time>2026-05-11T09:19:22.000Z</time>
      </trkpt>
      <trkpt lat="45.3077" lon="4.5207">
        <ele>952.59997558594</ele>
        <time>2026-05-11T09:19:23.000Z</time>
      </trkpt>
      <trkpt lat="45.30772" lon="4.52069">
        <ele>952.79998779297</ele>
        <time>2026-05-11T09:19:24.000Z</time>
      </trkpt>
      <trkpt lat="45.30773" lon="4.52068">
        <ele>953</ele>
        <time>2026-05-11T09:19:25.000Z</time>
      </trkpt>
      <trkpt lat="45.30775" lon="4.52067">
        <ele>953.20001220703</ele>
        <time>2026-05-11T09:19:26.000Z</time>
      </trkpt>
      <trkpt lat="45.30777" lon="4.52067">
        <ele>953.40002441406</ele>
        <time>2026-05-11T09:19:27.000Z</time>
      </trkpt>
      <trkpt lat="45.30779" lon="4.52067">
        <ele>953.59997558594</ele>
        <time>2026-05-11T09:19:28.000Z</time>
      </trkpt>
      <trkpt lat="45.30781" lon="4.52067">
        <ele>953.79998779297</ele>
        <time>2026-05-11T09:19:29.000Z</time>
      </trkpt>
      <trkpt lat="45.30783" lon="4.52066">
        <ele>954</ele>
        <time>2026-05-11T09:19:30.000Z</time>
      </trkpt>
      <trkpt lat="45.30784" lon="4.52065">
        <ele>954.20001220703</ele>
        <time>2026-05-11T09:19:31.000Z</time>
      </trkpt>
      <trkpt lat="45.30786" lon="4.52065">
        <ele>954.40002441406</ele>
        <time>2026-05-11T09:19:32.000Z</time>
      </trkpt>
      <trkpt lat="45.30787" lon="4.52065">
        <ele>954.59997558594</ele>
        <time>2026-05-11T09:19:33.000Z</time>
      </trkpt>
      <trkpt lat="45.30789" lon="4.52065">
        <ele>954.59997558594</ele>
        <time>2026-05-11T09:19:34.000Z</time>
      </trkpt>
      <trkpt lat="45.30791" lon="4.52064">
        <ele>954.79998779297</ele>
        <time>2026-05-11T09:19:35.000Z</time>
      </trkpt>
      <trkpt lat="45.30793" lon="4.52064">
        <ele>955</ele>
        <time>2026-05-11T09:19:36.000Z</time>
      </trkpt>
      <trkpt lat="45.30795" lon="4.52063">
        <ele>955.20001220703</ele>
        <time>2026-05-11T09:19:37.000Z</time>
      </trkpt>
      <trkpt lat="45.30796" lon="4.52063">
        <ele>955.40002441406</ele>
        <time>2026-05-11T09:19:38.000Z</time>
      </trkpt>
      <trkpt lat="45.30798" lon="4.52063">
        <ele>955.59997558594</ele>
        <time>2026-05-11T09:19:39.000Z</time>
      </trkpt>
      <trkpt lat="45.308" lon="4.52063">
        <ele>955.79998779297</ele>
        <time>2026-05-11T09:19:40.000Z</time>
      </trkpt>
      <trkpt lat="45.30802" lon="4.52063">
        <ele>956</ele>
        <time>2026-05-11T09:19:41.000Z</time>
      </trkpt>
      <trkpt lat="45.30803" lon="4.52063">
        <ele>956</ele>
        <time>2026-05-11T09:19:42.000Z</time>
      </trkpt>
      <trkpt lat="45.30805" lon="4.52062">
        <ele>956.20001220703</ele>
        <time>2026-05-11T09:19:43.000Z</time>
      </trkpt>
      <trkpt lat="45.30806" lon="4.52061">
        <ele>956.40002441406</ele>
        <time>2026-05-11T09:19:44.000Z</time>
      </trkpt>
      <trkpt lat="45.30807" lon="4.5206">
        <ele>956.59997558594</ele>
        <time>2026-05-11T09:19:45.000Z</time>
      </trkpt>
      <trkpt lat="45.30809" lon="4.5206">
        <ele>956.79998779297</ele>
        <time>2026-05-11T09:19:46.000Z</time>
      </trkpt>
      <trkpt lat="45.3081" lon="4.52059">
        <ele>957</ele>
        <time>2026-05-11T09:19:47.000Z</time>
      </trkpt>
      <trkpt lat="45.30812" lon="4.52058">
        <ele>957.40002441406</ele>
        <time>2026-05-11T09:19:48.000Z</time>
      </trkpt>
      <trkpt lat="45.30813" lon="4.52057">
        <ele>957.59997558594</ele>
        <time>2026-05-11T09:19:49.000Z</time>
      </trkpt>
      <trkpt lat="45.30815" lon="4.52056">
        <ele>957.79998779297</ele>
        <time>2026-05-11T09:19:50.000Z</time>
      </trkpt>
      <trkpt lat="45.30816" lon="4.52056">
        <ele>958</ele>
        <time>2026-05-11T09:19:51.000Z</time>
      </trkpt>
      <trkpt lat="45.30818" lon="4.52056">
        <ele>958.20001220703</ele>
        <time>2026-05-11T09:19:52.000Z</time>
      </trkpt>
      <trkpt lat="45.3082" lon="4.52056">
        <ele>958.40002441406</ele>
        <time>2026-05-11T09:19:53.000Z</time>
      </trkpt>
      <trkpt lat="45.30821" lon="4.52055">
        <ele>958.59997558594</ele>
        <time>2026-05-11T09:19:54.000Z</time>
      </trkpt>
      <trkpt lat="45.30823" lon="4.52056">
        <ele>958.79998779297</ele>
        <time>2026-05-11T09:19:55.000Z</time>
      </trkpt>
      <trkpt lat="45.30825" lon="4.52056">
        <ele>959</ele>
        <time>2026-05-11T09:19:56.000Z</time>
      </trkpt>
      <trkpt lat="45.30827" lon="4.52055">
        <ele>959.20001220703</ele>
        <time>2026-05-11T09:19:57.000Z</time>
      </trkpt>
      <trkpt lat="45.30829" lon="4.52055">
        <ele>959.40002441406</ele>
        <time>2026-05-11T09:19:58.000Z</time>
      </trkpt>
      <trkpt lat="45.3083" lon="4.52055">
        <ele>959.59997558594</ele>
        <time>2026-05-11T09:19:59.000Z</time>
      </trkpt>
      <trkpt lat="45.30832" lon="4.52054">
        <ele>959.79998779297</ele>
        <time>2026-05-11T09:20:00.000Z</time>
      </trkpt>
      <trkpt lat="45.30834" lon="4.52054">
        <ele>960</ele>
        <time>2026-05-11T09:20:01.000Z</time>
      </trkpt>
      <trkpt lat="45.30836" lon="4.52053">
        <ele>960.40002441406</ele>
        <time>2026-05-11T09:20:02.000Z</time>
      </trkpt>
      <trkpt lat="45.30837" lon="4.52052">
        <ele>960.59997558594</ele>
        <time>2026-05-11T09:20:03.000Z</time>
      </trkpt>
      <trkpt lat="45.30839" lon="4.52051">
        <ele>960.79998779297</ele>
        <time>2026-05-11T09:20:04.000Z</time>
      </trkpt>
      <trkpt lat="45.3084" lon="4.5205">
        <ele>961.20001220703</ele>
        <time>2026-05-11T09:20:05.000Z</time>
      </trkpt>
      <trkpt lat="45.30842" lon="4.52049">
        <ele>961.40002441406</ele>
        <time>2026-05-11T09:20:06.000Z</time>
      </trkpt>
      <trkpt lat="45.30843" lon="4.52048">
        <ele>961.59997558594</ele>
        <time>2026-05-11T09:20:07.000Z</time>
      </trkpt>
      <trkpt lat="45.30845" lon="4.52047">
        <ele>961.79998779297</ele>
        <time>2026-05-11T09:20:08.000Z</time>
      </trkpt>
      <trkpt lat="45.30847" lon="4.52046">
        <ele>962</ele>
        <time>2026-05-11T09:20:09.000Z</time>
      </trkpt>
      <trkpt lat="45.30848" lon="4.52045">
        <ele>962.20001220703</ele>
        <time>2026-05-11T09:20:10.000Z</time>
      </trkpt>
      <trkpt lat="45.3085" lon="4.52044">
        <ele>962.40002441406</ele>
        <time>2026-05-11T09:20:11.000Z</time>
      </trkpt>
      <trkpt lat="45.30852" lon="4.52043">
        <ele>962.59997558594</ele>
        <time>2026-05-11T09:20:12.000Z</time>
      </trkpt>
      <trkpt lat="45.30854" lon="4.52042">
        <ele>962.79998779297</ele>
        <time>2026-05-11T09:20:13.000Z</time>
      </trkpt>
      <trkpt lat="45.30856" lon="4.52041">
        <ele>963</ele>
        <time>2026-05-11T09:20:14.000Z</time>
      </trkpt>
      <trkpt lat="45.30857" lon="4.52039">
        <ele>963.20001220703</ele>
        <time>2026-05-11T09:20:15.000Z</time>
      </trkpt>
      <trkpt lat="45.30858" lon="4.52038">
        <ele>963.40002441406</ele>
        <time>2026-05-11T09:20:16.000Z</time>
      </trkpt>
      <trkpt lat="45.3086" lon="4.52036">
        <ele>963.59997558594</ele>
        <time>2026-05-11T09:20:17.000Z</time>
      </trkpt>
      <trkpt lat="45.30861" lon="4.52035">
        <ele>963.79998779297</ele>
        <time>2026-05-11T09:20:18.000Z</time>
      </trkpt>
      <trkpt lat="45.30863" lon="4.52034">
        <ele>963.79998779297</ele>
        <time>2026-05-11T09:20:19.000Z</time>
      </trkpt>
      <trkpt lat="45.30865" lon="4.52033">
        <ele>964</ele>
        <time>2026-05-11T09:20:20.000Z</time>
      </trkpt>
      <trkpt lat="45.30867" lon="4.52031">
        <ele>964.20001220703</ele>
        <time>2026-05-11T09:20:21.000Z</time>
      </trkpt>
      <trkpt lat="45.30869" lon="4.52029">
        <ele>964.20001220703</ele>
        <time>2026-05-11T09:20:22.000Z</time>
      </trkpt>
      <trkpt lat="45.30871" lon="4.52028">
        <ele>964.40002441406</ele>
        <time>2026-05-11T09:20:23.000Z</time>
      </trkpt>
      <trkpt lat="45.30873" lon="4.52027">
        <ele>964.59997558594</ele>
        <time>2026-05-11T09:20:24.000Z</time>
      </trkpt>
      <trkpt lat="45.30875" lon="4.52025">
        <ele>964.59997558594</ele>
        <time>2026-05-11T09:20:25.000Z</time>
      </trkpt>
      <trkpt lat="45.30877" lon="4.52024">
        <ele>964.59997558594</ele>
        <time>2026-05-11T09:20:26.000Z</time>
      </trkpt>
      <trkpt lat="45.3088" lon="4.52023">
        <ele>964.79998779297</ele>
        <time>2026-05-11T09:20:27.000Z</time>
      </trkpt>
      <trkpt lat="45.30882" lon="4.52021">
        <ele>964.79998779297</ele>
        <time>2026-05-11T09:20:28.000Z</time>
      </trkpt>
      <trkpt lat="45.30884" lon="4.5202">
        <ele>964.79998779297</ele>
        <time>2026-05-11T09:20:29.000Z</time>
      </trkpt>
      <trkpt lat="45.30886" lon="4.5202">
        <ele>964.59997558594</ele>
        <time>2026-05-11T09:20:30.000Z</time>
      </trkpt>
      <trkpt lat="45.30888" lon="4.52018">
        <ele>964.59997558594</ele>
        <time>2026-05-11T09:20:31.000Z</time>
      </trkpt>
      <trkpt lat="45.30889" lon="4.52018">
        <ele>964.59997558594</ele>
        <time>2026-05-11T09:20:32.000Z</time>
      </trkpt>
      <trkpt lat="45.30891" lon="4.52016">
        <ele>964.59997558594</ele>
        <time>2026-05-11T09:20:33.000Z</time>
      </trkpt>
      <trkpt lat="45.30893" lon="4.52015">
        <ele>964.59997558594</ele>
        <time>2026-05-11T09:20:34.000Z</time>
      </trkpt>
      <trkpt lat="45.30895" lon="4.52014">
        <ele>964.59997558594</ele>
        <time>2026-05-11T09:20:35.000Z</time>
      </trkpt>
      <trkpt lat="45.30896" lon="4.52014">
        <ele>964.59997558594</ele>
        <time>2026-05-11T09:20:36.000Z</time>
      </trkpt>
      <trkpt lat="45.30899" lon="4.52012">
        <ele>964.40002441406</ele>
        <time>2026-05-11T09:20:37.000Z</time>
      </trkpt>
      <trkpt lat="45.30901" lon="4.52011">
        <ele>964.40002441406</ele>
        <time>2026-05-11T09:20:38.000Z</time>
      </trkpt>
      <trkpt lat="45.30903" lon="4.5201">
        <ele>964.40002441406</ele>
        <time>2026-05-11T09:20:39.000Z</time>
      </trkpt>
      <trkpt lat="45.30905" lon="4.52009">
        <ele>964.20001220703</ele>
        <time>2026-05-11T09:20:40.000Z</time>
      </trkpt>
      <trkpt lat="45.30908" lon="4.52008">
        <ele>964.20001220703</ele>
        <time>2026-05-11T09:20:41.000Z</time>
      </trkpt>
      <trkpt lat="45.3091" lon="4.52006">
        <ele>964.20001220703</ele>
        <time>2026-05-11T09:20:42.000Z</time>
      </trkpt>
      <trkpt lat="45.30913" lon="4.52005">
        <ele>964.20001220703</ele>
        <time>2026-05-11T09:20:43.000Z</time>
      </trkpt>
      <trkpt lat="45.30915" lon="4.52003">
        <ele>964</ele>
        <time>2026-05-11T09:20:44.000Z</time>
      </trkpt>
      <trkpt lat="45.30918" lon="4.52002">
        <ele>964</ele>
        <time>2026-05-11T09:20:45.000Z</time>
      </trkpt>
      <trkpt lat="45.30921" lon="4.52">
        <ele>964</ele>
        <time>2026-05-11T09:20:46.000Z</time>
      </trkpt>
      <trkpt lat="45.30924" lon="4.51998">
        <ele>963.79998779297</ele>
        <time>2026-05-11T09:20:47.000Z</time>
      </trkpt>
      <trkpt lat="45.30926" lon="4.51997">
        <ele>963.79998779297</ele>
        <time>2026-05-11T09:20:48.000Z</time>
      </trkpt>
      <trkpt lat="45.30929" lon="4.51995">
        <ele>963.59997558594</ele>
        <time>2026-05-11T09:20:49.000Z</time>
      </trkpt>
      <trkpt lat="45.30931" lon="4.51994">
        <ele>963.59997558594</ele>
        <time>2026-05-11T09:20:50.000Z</time>
      </trkpt>
      <trkpt lat="45.30934" lon="4.51993">
        <ele>963.59997558594</ele>
        <time>2026-05-11T09:20:51.000Z</time>
      </trkpt>
      <trkpt lat="45.30936" lon="4.51991">
        <ele>963.59997558594</ele>
        <time>2026-05-11T09:20:52.000Z</time>
      </trkpt>
      <trkpt lat="45.30938" lon="4.5199">
        <ele>963.40002441406</ele>
        <time>2026-05-11T09:20:53.000Z</time>
      </trkpt>
      <trkpt lat="45.3094" lon="4.51989">
        <ele>963.40002441406</ele>
        <time>2026-05-11T09:20:54.000Z</time>
      </trkpt>
      <trkpt lat="45.30942" lon="4.51988">
        <ele>963.40002441406</ele>
        <time>2026-05-11T09:20:55.000Z</time>
      </trkpt>
      <trkpt lat="45.30944" lon="4.51987">
        <ele>963.40002441406</ele>
        <time>2026-05-11T09:20:56.000Z</time>
      </trkpt>
      <trkpt lat="45.30946" lon="4.51986">
        <ele>963.40002441406</ele>
        <time>2026-05-11T09:20:57.000Z</time>
      </trkpt>
      <trkpt lat="45.30948" lon="4.51984">
        <ele>963.40002441406</ele>
        <time>2026-05-11T09:20:58.000Z</time>
      </trkpt>
      <trkpt lat="45.3095" lon="4.51982">
        <ele>963.40002441406</ele>
        <time>2026-05-11T09:20:59.000Z</time>
      </trkpt>
      <trkpt lat="45.30951" lon="4.51981">
        <ele>963.40002441406</ele>
        <time>2026-05-11T09:21:00.000Z</time>
      </trkpt>
      <trkpt lat="45.30953" lon="4.5198">
        <ele>963.40002441406</ele>
        <time>2026-05-11T09:21:01.000Z</time>
      </trkpt>
      <trkpt lat="45.30954" lon="4.51978">
        <ele>963.40002441406</ele>
        <time>2026-05-11T09:21:02.000Z</time>
      </trkpt>
      <trkpt lat="45.30956" lon="4.51977">
        <ele>963.59997558594</ele>
        <time>2026-05-11T09:21:03.000Z</time>
      </trkpt>
      <trkpt lat="45.30958" lon="4.51975">
        <ele>963.59997558594</ele>
        <time>2026-05-11T09:21:04.000Z</time>
      </trkpt>
      <trkpt lat="45.30959" lon="4.51974">
        <ele>963.59997558594</ele>
        <time>2026-05-11T09:21:05.000Z</time>
      </trkpt>
      <trkpt lat="45.3096" lon="4.51972">
        <ele>963.59997558594</ele>
        <time>2026-05-11T09:21:06.000Z</time>
      </trkpt>
      <trkpt lat="45.30962" lon="4.5197">
        <ele>963.79998779297</ele>
        <time>2026-05-11T09:21:07.000Z</time>
      </trkpt>
      <trkpt lat="45.30964" lon="4.51968">
        <ele>963.79998779297</ele>
        <time>2026-05-11T09:21:08.000Z</time>
      </trkpt>
      <trkpt lat="45.30966" lon="4.51967">
        <ele>964</ele>
        <time>2026-05-11T09:21:09.000Z</time>
      </trkpt>
      <trkpt lat="45.30967" lon="4.51965">
        <ele>964</ele>
        <time>2026-05-11T09:21:10.000Z</time>
      </trkpt>
      <trkpt lat="45.3097" lon="4.51964">
        <ele>964.20001220703</ele>
        <time>2026-05-11T09:21:11.000Z</time>
      </trkpt>
      <trkpt lat="45.30971" lon="4.51963">
        <ele>964.20001220703</ele>
        <time>2026-05-11T09:21:12.000Z</time>
      </trkpt>
      <trkpt lat="45.30973" lon="4.51961">
        <ele>964.40002441406</ele>
        <time>2026-05-11T09:21:13.000Z</time>
      </trkpt>
      <trkpt lat="45.30975" lon="4.5196">
        <ele>964.59997558594</ele>
        <time>2026-05-11T09:21:14.000Z</time>
      </trkpt>
      <trkpt lat="45.30976" lon="4.51958">
        <ele>964.59997558594</ele>
        <time>2026-05-11T09:21:15.000Z</time>
      </trkpt>
      <trkpt lat="45.30978" lon="4.51957">
        <ele>964.79998779297</ele>
        <time>2026-05-11T09:21:16.000Z</time>
      </trkpt>
      <trkpt lat="45.30979" lon="4.51956">
        <ele>965</ele>
        <time>2026-05-11T09:21:17.000Z</time>
      </trkpt>
      <trkpt lat="45.30981" lon="4.51954">
        <ele>965</ele>
        <time>2026-05-11T09:21:18.000Z</time>
      </trkpt>
      <trkpt lat="45.30982" lon="4.51953">
        <ele>965.20001220703</ele>
        <time>2026-05-11T09:21:19.000Z</time>
      </trkpt>
      <trkpt lat="45.30984" lon="4.51951">
        <ele>965.40002441406</ele>
        <time>2026-05-11T09:21:20.000Z</time>
      </trkpt>
      <trkpt lat="45.30985" lon="4.51949">
        <ele>965.40002441406</ele>
        <time>2026-05-11T09:21:21.000Z</time>
      </trkpt>
      <trkpt lat="45.30987" lon="4.51948">
        <ele>965.59997558594</ele>
        <time>2026-05-11T09:21:22.000Z</time>
      </trkpt>
      <trkpt lat="45.30989" lon="4.51947">
        <ele>965.79998779297</ele>
        <time>2026-05-11T09:21:23.000Z</time>
      </trkpt>
      <trkpt lat="45.3099" lon="4.51946">
        <ele>965.79998779297</ele>
        <time>2026-05-11T09:21:24.000Z</time>
      </trkpt>
      <trkpt lat="45.30992" lon="4.51944">
        <ele>966</ele>
        <time>2026-05-11T09:21:25.000Z</time>
      </trkpt>
      <trkpt lat="45.30995" lon="4.51943">
        <ele>966</ele>
        <time>2026-05-11T09:21:26.000Z</time>
      </trkpt>
      <trkpt lat="45.30996" lon="4.51941">
        <ele>966.20001220703</ele>
        <time>2026-05-11T09:21:27.000Z</time>
      </trkpt>
      <trkpt lat="45.30998" lon="4.51939">
        <ele>966.20001220703</ele>
        <time>2026-05-11T09:21:28.000Z</time>
      </trkpt>
      <trkpt lat="45.31001" lon="4.51936">
        <ele>966.20001220703</ele>
        <time>2026-05-11T09:21:29.000Z</time>
      </trkpt>
      <trkpt lat="45.31002" lon="4.51934">
        <ele>966.20001220703</ele>
        <time>2026-05-11T09:21:30.000Z</time>
      </trkpt>
      <trkpt lat="45.31005" lon="4.51932">
        <ele>966.40002441406</ele>
        <time>2026-05-11T09:21:31.000Z</time>
      </trkpt>
      <trkpt lat="45.31007" lon="4.5193">
        <ele>966.40002441406</ele>
        <time>2026-05-11T09:21:32.000Z</time>
      </trkpt>
      <trkpt lat="45.31008" lon="4.51928">
        <ele>966.40002441406</ele>
        <time>2026-05-11T09:21:33.000Z</time>
      </trkpt>
      <trkpt lat="45.3101" lon="4.51925">
        <ele>966.59997558594</ele>
        <time>2026-05-11T09:21:34.000Z</time>
      </trkpt>
      <trkpt lat="45.31011" lon="4.51923">
        <ele>966.59997558594</ele>
        <time>2026-05-11T09:21:35.000Z</time>
      </trkpt>
      <trkpt lat="45.31012" lon="4.51921">
        <ele>966.59997558594</ele>
        <time>2026-05-11T09:21:36.000Z</time>
      </trkpt>
      <trkpt lat="45.31014" lon="4.51919">
        <ele>966.59997558594</ele>
        <time>2026-05-11T09:21:37.000Z</time>
      </trkpt>
      <trkpt lat="45.31015" lon="4.51917">
        <ele>966.79998779297</ele>
        <time>2026-05-11T09:21:38.000Z</time>
      </trkpt>
      <trkpt lat="45.31016" lon="4.51915">
        <ele>966.79998779297</ele>
        <time>2026-05-11T09:21:39.000Z</time>
      </trkpt>
      <trkpt lat="45.31017" lon="4.51913">
        <ele>966.79998779297</ele>
        <time>2026-05-11T09:21:40.000Z</time>
      </trkpt>
      <trkpt lat="45.31019" lon="4.5191">
        <ele>966.79998779297</ele>
        <time>2026-05-11T09:21:41.000Z</time>
      </trkpt>
      <trkpt lat="45.3102" lon="4.51908">
        <ele>967</ele>
        <time>2026-05-11T09:21:42.000Z</time>
      </trkpt>
      <trkpt lat="45.31021" lon="4.51906">
        <ele>967</ele>
        <time>2026-05-11T09:21:43.000Z</time>
      </trkpt>
      <trkpt lat="45.31023" lon="4.51903">
        <ele>967.20001220703</ele>
        <time>2026-05-11T09:21:44.000Z</time>
      </trkpt>
      <trkpt lat="45.31024" lon="4.51901">
        <ele>967.20001220703</ele>
        <time>2026-05-11T09:21:45.000Z</time>
      </trkpt>
      <trkpt lat="45.31026" lon="4.51899">
        <ele>967.40002441406</ele>
        <time>2026-05-11T09:21:46.000Z</time>
      </trkpt>
      <trkpt lat="45.31027" lon="4.51896">
        <ele>967.40002441406</ele>
        <time>2026-05-11T09:21:47.000Z</time>
      </trkpt>
      <trkpt lat="45.31028" lon="4.51894">
        <ele>967.59997558594</ele>
        <time>2026-05-11T09:21:48.000Z</time>
      </trkpt>
      <trkpt lat="45.3103" lon="4.51891">
        <ele>967.59997558594</ele>
        <time>2026-05-11T09:21:49.000Z</time>
      </trkpt>
      <trkpt lat="45.31031" lon="4.51889">
        <ele>967.79998779297</ele>
        <time>2026-05-11T09:21:50.000Z</time>
      </trkpt>
      <trkpt lat="45.31032" lon="4.51886">
        <ele>968</ele>
        <time>2026-05-11T09:21:51.000Z</time>
      </trkpt>
      <trkpt lat="45.31033" lon="4.51884">
        <ele>968</ele>
        <time>2026-05-11T09:21:52.000Z</time>
      </trkpt>
      <trkpt lat="45.31034" lon="4.51882">
        <ele>968.20001220703</ele>
        <time>2026-05-11T09:21:53.000Z</time>
      </trkpt>
      <trkpt lat="45.31035" lon="4.5188">
        <ele>968.40002441406</ele>
        <time>2026-05-11T09:21:54.000Z</time>
      </trkpt>
      <trkpt lat="45.31037" lon="4.51878">
        <ele>968.40002441406</ele>
        <time>2026-05-11T09:21:55.000Z</time>
      </trkpt>
      <trkpt lat="45.31038" lon="4.51876">
        <ele>968.59997558594</ele>
        <time>2026-05-11T09:21:56.000Z</time>
      </trkpt>
      <trkpt lat="45.31039" lon="4.51875">
        <ele>968.79998779297</ele>
        <time>2026-05-11T09:21:57.000Z</time>
      </trkpt>
      <trkpt lat="45.3104" lon="4.51873">
        <ele>968.79998779297</ele>
        <time>2026-05-11T09:21:58.000Z</time>
      </trkpt>
      <trkpt lat="45.31041" lon="4.51872">
        <ele>969</ele>
        <time>2026-05-11T09:21:59.000Z</time>
      </trkpt>
      <trkpt lat="45.31042" lon="4.5187">
        <ele>969</ele>
        <time>2026-05-11T09:22:00.000Z</time>
      </trkpt>
      <trkpt lat="45.31042" lon="4.51868">
        <ele>969.20001220703</ele>
        <time>2026-05-11T09:22:01.000Z</time>
      </trkpt>
      <trkpt lat="45.31044" lon="4.51866">
        <ele>969.20001220703</ele>
        <time>2026-05-11T09:22:02.000Z</time>
      </trkpt>
      <trkpt lat="45.31045" lon="4.51864">
        <ele>969.40002441406</ele>
        <time>2026-05-11T09:22:03.000Z</time>
      </trkpt>
      <trkpt lat="45.31046" lon="4.51862">
        <ele>969.40002441406</ele>
        <time>2026-05-11T09:22:04.000Z</time>
      </trkpt>
      <trkpt lat="45.31047" lon="4.51861">
        <ele>969.40002441406</ele>
        <time>2026-05-11T09:22:05.000Z</time>
      </trkpt>
      <trkpt lat="45.31048" lon="4.51859">
        <ele>969.59997558594</ele>
        <time>2026-05-11T09:22:06.000Z</time>
      </trkpt>
      <trkpt lat="45.3105" lon="4.51857">
        <ele>969.59997558594</ele>
        <time>2026-05-11T09:22:07.000Z</time>
      </trkpt>
      <trkpt lat="45.31051" lon="4.51855">
        <ele>969.79998779297</ele>
        <time>2026-05-11T09:22:08.000Z</time>
      </trkpt>
      <trkpt lat="45.31052" lon="4.51852">
        <ele>969.79998779297</ele>
        <time>2026-05-11T09:22:09.000Z</time>
      </trkpt>
      <trkpt lat="45.31053" lon="4.5185">
        <ele>969.79998779297</ele>
        <time>2026-05-11T09:22:10.000Z</time>
      </trkpt>
      <trkpt lat="45.31054" lon="4.51847">
        <ele>969.79998779297</ele>
        <time>2026-05-11T09:22:11.000Z</time>
      </trkpt>
      <trkpt lat="45.31055" lon="4.51845">
        <ele>970</ele>
        <time>2026-05-11T09:22:12.000Z</time>
      </trkpt>
      <trkpt lat="45.31056" lon="4.51842">
        <ele>970</ele>
        <time>2026-05-11T09:22:13.000Z</time>
      </trkpt>
      <trkpt lat="45.31057" lon="4.51839">
        <ele>970.20001220703</ele>
        <time>2026-05-11T09:22:14.000Z</time>
      </trkpt>
      <trkpt lat="45.31058" lon="4.51836">
        <ele>970.20001220703</ele>
        <time>2026-05-11T09:22:15.000Z</time>
      </trkpt>
      <trkpt lat="45.31059" lon="4.51834">
        <ele>970.40002441406</ele>
        <time>2026-05-11T09:22:16.000Z</time>
      </trkpt>
      <trkpt lat="45.3106" lon="4.51832">
        <ele>970.59997558594</ele>
        <time>2026-05-11T09:22:17.000Z</time>
      </trkpt>
      <trkpt lat="45.31061" lon="4.51829">
        <ele>970.59997558594</ele>
        <time>2026-05-11T09:22:18.000Z</time>
      </trkpt>
      <trkpt lat="45.31062" lon="4.51827">
        <ele>970.79998779297</ele>
        <time>2026-05-11T09:22:19.000Z</time>
      </trkpt>
      <trkpt lat="45.31062" lon="4.51824">
        <ele>971</ele>
        <time>2026-05-11T09:22:20.000Z</time>
      </trkpt>
      <trkpt lat="45.31063" lon="4.51821">
        <ele>971.20001220703</ele>
        <time>2026-05-11T09:22:21.000Z</time>
      </trkpt>
      <trkpt lat="45.31063" lon="4.51817">
        <ele>971.20001220703</ele>
        <time>2026-05-11T09:22:22.000Z</time>
      </trkpt>
      <trkpt lat="45.31063" lon="4.51814">
        <ele>971.40002441406</ele>
        <time>2026-05-11T09:22:23.000Z</time>
      </trkpt>
      <trkpt lat="45.31063" lon="4.51811">
        <ele>971.40002441406</ele>
        <time>2026-05-11T09:22:24.000Z</time>
      </trkpt>
      <trkpt lat="45.31064" lon="4.51809">
        <ele>971.40002441406</ele>
        <time>2026-05-11T09:22:25.000Z</time>
      </trkpt>
      <trkpt lat="45.31065" lon="4.51806">
        <ele>971.40002441406</ele>
        <time>2026-05-11T09:22:26.000Z</time>
      </trkpt>
      <trkpt lat="45.31066" lon="4.51803">
        <ele>971.59997558594</ele>
        <time>2026-05-11T09:22:27.000Z</time>
      </trkpt>
      <trkpt lat="45.31067" lon="4.518">
        <ele>971.59997558594</ele>
        <time>2026-05-11T09:22:28.000Z</time>
      </trkpt>
      <trkpt lat="45.31068" lon="4.51797">
        <ele>971.59997558594</ele>
        <time>2026-05-11T09:22:29.000Z</time>
      </trkpt>
      <trkpt lat="45.31068" lon="4.51794">
        <ele>971.59997558594</ele>
        <time>2026-05-11T09:22:30.000Z</time>
      </trkpt>
      <trkpt lat="45.31069" lon="4.51791">
        <ele>971.59997558594</ele>
        <time>2026-05-11T09:22:31.000Z</time>
      </trkpt>
      <trkpt lat="45.31069" lon="4.51788">
        <ele>971.59997558594</ele>
        <time>2026-05-11T09:22:32.000Z</time>
      </trkpt>
      <trkpt lat="45.3107" lon="4.51786">
        <ele>971.59997558594</ele>
        <time>2026-05-11T09:22:33.000Z</time>
      </trkpt>
      <trkpt lat="45.3107" lon="4.51783">
        <ele>971.79998779297</ele>
        <time>2026-05-11T09:22:34.000Z</time>
      </trkpt>
      <trkpt lat="45.3107" lon="4.51781">
        <ele>971.79998779297</ele>
        <time>2026-05-11T09:22:35.000Z</time>
      </trkpt>
      <trkpt lat="45.31071" lon="4.51778">
        <ele>971.79998779297</ele>
        <time>2026-05-11T09:22:36.000Z</time>
      </trkpt>
      <trkpt lat="45.31072" lon="4.51775">
        <ele>971.79998779297</ele>
        <time>2026-05-11T09:22:37.000Z</time>
      </trkpt>
      <trkpt lat="45.31072" lon="4.51772">
        <ele>971.79998779297</ele>
        <time>2026-05-11T09:22:38.000Z</time>
      </trkpt>
      <trkpt lat="45.31073" lon="4.5177">
        <ele>971.79998779297</ele>
        <time>2026-05-11T09:22:39.000Z</time>
      </trkpt>
      <trkpt lat="45.31073" lon="4.51767">
        <ele>971.59997558594</ele>
        <time>2026-05-11T09:22:40.000Z</time>
      </trkpt>
      <trkpt lat="45.31074" lon="4.51765">
        <ele>971.59997558594</ele>
        <time>2026-05-11T09:22:41.000Z</time>
      </trkpt>
      <trkpt lat="45.31075" lon="4.51762">
        <ele>971.59997558594</ele>
        <time>2026-05-11T09:22:42.000Z</time>
      </trkpt>
      <trkpt lat="45.31075" lon="4.5176">
        <ele>971.59997558594</ele>
        <time>2026-05-11T09:22:43.000Z</time>
      </trkpt>
      <trkpt lat="45.31075" lon="4.51758">
        <ele>971.59997558594</ele>
        <time>2026-05-11T09:22:44.000Z</time>
      </trkpt>
      <trkpt lat="45.31075" lon="4.51756">
        <ele>971.59997558594</ele>
        <time>2026-05-11T09:22:45.000Z</time>
      </trkpt>
      <trkpt lat="45.31076" lon="4.51754">
        <ele>971.40002441406</ele>
        <time>2026-05-11T09:22:46.000Z</time>
      </trkpt>
      <trkpt lat="45.31076" lon="4.51752">
        <ele>971.40002441406</ele>
        <time>2026-05-11T09:22:47.000Z</time>
      </trkpt>
      <trkpt lat="45.31076" lon="4.51751">
        <ele>971.40002441406</ele>
        <time>2026-05-11T09:22:48.000Z</time>
      </trkpt>
      <trkpt lat="45.31077" lon="4.51749">
        <ele>971.40002441406</ele>
        <time>2026-05-11T09:22:49.000Z</time>
      </trkpt>
      <trkpt lat="45.31076" lon="4.51747">
        <ele>971.40002441406</ele>
        <time>2026-05-11T09:22:50.000Z</time>
      </trkpt>
      <trkpt lat="45.31076" lon="4.51744">
        <ele>971.40002441406</ele>
        <time>2026-05-11T09:22:51.000Z</time>
      </trkpt>
      <trkpt lat="45.31076" lon="4.51742">
        <ele>971.40002441406</ele>
        <time>2026-05-11T09:22:52.000Z</time>
      </trkpt>
      <trkpt lat="45.31077" lon="4.51741">
        <ele>971.40002441406</ele>
        <time>2026-05-11T09:22:53.000Z</time>
      </trkpt>
      <trkpt lat="45.31077" lon="4.51739">
        <ele>971.40002441406</ele>
        <time>2026-05-11T09:22:54.000Z</time>
      </trkpt>
      <trkpt lat="45.31078" lon="4.51738">
        <ele>971.40002441406</ele>
        <time>2026-05-11T09:22:55.000Z</time>
      </trkpt>
      <trkpt lat="45.31079" lon="4.51737">
        <ele>971.40002441406</ele>
        <time>2026-05-11T09:22:56.000Z</time>
      </trkpt>
      <trkpt lat="45.3108" lon="4.51736">
        <ele>971.20001220703</ele>
        <time>2026-05-11T09:22:57.000Z</time>
      </trkpt>
      <trkpt lat="45.31081" lon="4.51734">
        <ele>971.20001220703</ele>
        <time>2026-05-11T09:22:58.000Z</time>
      </trkpt>
      <trkpt lat="45.31082" lon="4.51732">
        <ele>971</ele>
        <time>2026-05-11T09:22:59.000Z</time>
      </trkpt>
      <trkpt lat="45.31082" lon="4.51729">
        <ele>970.79998779297</ele>
        <time>2026-05-11T09:23:00.000Z</time>
      </trkpt>
      <trkpt lat="45.31083" lon="4.51726">
        <ele>970.40002441406</ele>
        <time>2026-05-11T09:23:01.000Z</time>
      </trkpt>
      <trkpt lat="45.31084" lon="4.51724">
        <ele>970.20001220703</ele>
        <time>2026-05-11T09:23:02.000Z</time>
      </trkpt>
      <trkpt lat="45.31085" lon="4.51721">
        <ele>970.20001220703</ele>
        <time>2026-05-11T09:23:03.000Z</time>
      </trkpt>
      <trkpt lat="45.31086" lon="4.51718">
        <ele>970</ele>
        <time>2026-05-11T09:23:04.000Z</time>
      </trkpt>
      <trkpt lat="45.31088" lon="4.51714">
        <ele>970</ele>
        <time>2026-05-11T09:23:05.000Z</time>
      </trkpt>
      <trkpt lat="45.31089" lon="4.5171">
        <ele>969.79998779297</ele>
        <time>2026-05-11T09:23:06.000Z</time>
      </trkpt>
      <trkpt lat="45.31091" lon="4.51707">
        <ele>969.79998779297</ele>
        <time>2026-05-11T09:23:07.000Z</time>
      </trkpt>
      <trkpt lat="45.31093" lon="4.51702">
        <ele>969.40002441406</ele>
        <time>2026-05-11T09:23:08.000Z</time>
      </trkpt>
      <trkpt lat="45.31095" lon="4.51698">
        <ele>969.20001220703</ele>
        <time>2026-05-11T09:23:09.000Z</time>
      </trkpt>
      <trkpt lat="45.31097" lon="4.51694">
        <ele>969</ele>
        <time>2026-05-11T09:23:10.000Z</time>
      </trkpt>
      <trkpt lat="45.31099" lon="4.51689">
        <ele>968.59997558594</ele>
        <time>2026-05-11T09:23:11.000Z</time>
      </trkpt>
      <trkpt lat="45.31101" lon="4.51685">
        <ele>968.40002441406</ele>
        <time>2026-05-11T09:23:12.000Z</time>
      </trkpt>
      <trkpt lat="45.31103" lon="4.5168">
        <ele>968.20001220703</ele>
        <time>2026-05-11T09:23:13.000Z</time>
      </trkpt>
      <trkpt lat="45.31105" lon="4.51675">
        <ele>967.59997558594</ele>
        <time>2026-05-11T09:23:14.000Z</time>
      </trkpt>
      <trkpt lat="45.31107" lon="4.5167">
        <ele>967.40002441406</ele>
        <time>2026-05-11T09:23:15.000Z</time>
      </trkpt>
      <trkpt lat="45.3111" lon="4.51666">
        <ele>967</ele>
        <time>2026-05-11T09:23:16.000Z</time>
      </trkpt>
      <trkpt lat="45.31112" lon="4.51661">
        <ele>966.59997558594</ele>
        <time>2026-05-11T09:23:17.000Z</time>
      </trkpt>
      <trkpt lat="45.31114" lon="4.51657">
        <ele>966.40002441406</ele>
        <time>2026-05-11T09:23:18.000Z</time>
      </trkpt>
      <trkpt lat="45.31116" lon="4.51654">
        <ele>966</ele>
        <time>2026-05-11T09:23:19.000Z</time>
      </trkpt>
      <trkpt lat="45.31119" lon="4.51649">
        <ele>965.59997558594</ele>
        <time>2026-05-11T09:23:20.000Z</time>
      </trkpt>
      <trkpt lat="45.31121" lon="4.51645">
        <ele>965.20001220703</ele>
        <time>2026-05-11T09:23:21.000Z</time>
      </trkpt>
      <trkpt lat="45.31123" lon="4.5164">
        <ele>964.79998779297</ele>
        <time>2026-05-11T09:23:22.000Z</time>
      </trkpt>
      <trkpt lat="45.31126" lon="4.51636">
        <ele>964.59997558594</ele>
        <time>2026-05-11T09:23:23.000Z</time>
      </trkpt>
      <trkpt lat="45.31128" lon="4.51632">
        <ele>964.20001220703</ele>
        <time>2026-05-11T09:23:24.000Z</time>
      </trkpt>
      <trkpt lat="45.31131" lon="4.51628">
        <ele>963.79998779297</ele>
        <time>2026-05-11T09:23:25.000Z</time>
      </trkpt>
      <trkpt lat="45.31133" lon="4.51624">
        <ele>963.20001220703</ele>
        <time>2026-05-11T09:23:26.000Z</time>
      </trkpt>
      <trkpt lat="45.31135" lon="4.5162">
        <ele>963</ele>
        <time>2026-05-11T09:23:27.000Z</time>
      </trkpt>
      <trkpt lat="45.31137" lon="4.51616">
        <ele>962.59997558594</ele>
        <time>2026-05-11T09:23:28.000Z</time>
      </trkpt>
      <trkpt lat="45.31138" lon="4.51612">
        <ele>962.20001220703</ele>
        <time>2026-05-11T09:23:29.000Z</time>
      </trkpt>
      <trkpt lat="45.31139" lon="4.51608">
        <ele>961.79998779297</ele>
        <time>2026-05-11T09:23:30.000Z</time>
      </trkpt>
      <trkpt lat="45.31141" lon="4.51604">
        <ele>961.40002441406</ele>
        <time>2026-05-11T09:23:31.000Z</time>
      </trkpt>
      <trkpt lat="45.31143" lon="4.516">
        <ele>961</ele>
        <time>2026-05-11T09:23:32.000Z</time>
      </trkpt>
      <trkpt lat="45.31145" lon="4.51596">
        <ele>960.79998779297</ele>
        <time>2026-05-11T09:23:33.000Z</time>
      </trkpt>
      <trkpt lat="45.31146" lon="4.51591">
        <ele>960.59997558594</ele>
        <time>2026-05-11T09:23:34.000Z</time>
      </trkpt>
      <trkpt lat="45.31148" lon="4.51587">
        <ele>960.20001220703</ele>
        <time>2026-05-11T09:23:35.000Z</time>
      </trkpt>
      <trkpt lat="45.3115" lon="4.51584">
        <ele>960</ele>
        <time>2026-05-11T09:23:36.000Z</time>
      </trkpt>
      <trkpt lat="45.31153" lon="4.51581">
        <ele>959.79998779297</ele>
        <time>2026-05-11T09:23:37.000Z</time>
      </trkpt>
      <trkpt lat="45.31155" lon="4.51577">
        <ele>959.40002441406</ele>
        <time>2026-05-11T09:23:38.000Z</time>
      </trkpt>
      <trkpt lat="45.31157" lon="4.51573">
        <ele>959</ele>
        <time>2026-05-11T09:23:39.000Z</time>
      </trkpt>
      <trkpt lat="45.31159" lon="4.5157">
        <ele>958.79998779297</ele>
        <time>2026-05-11T09:23:40.000Z</time>
      </trkpt>
      <trkpt lat="45.31161" lon="4.51566">
        <ele>958.40002441406</ele>
        <time>2026-05-11T09:23:41.000Z</time>
      </trkpt>
      <trkpt lat="45.31163" lon="4.51563">
        <ele>958</ele>
        <time>2026-05-11T09:23:42.000Z</time>
      </trkpt>
      <trkpt lat="45.31166" lon="4.51559">
        <ele>957.59997558594</ele>
        <time>2026-05-11T09:23:43.000Z</time>
      </trkpt>
      <trkpt lat="45.31167" lon="4.51555">
        <ele>957.20001220703</ele>
        <time>2026-05-11T09:23:44.000Z</time>
      </trkpt>
      <trkpt lat="45.3117" lon="4.5155">
        <ele>957</ele>
        <time>2026-05-11T09:23:45.000Z</time>
      </trkpt>
      <trkpt lat="45.31172" lon="4.51547">
        <ele>956.59997558594</ele>
        <time>2026-05-11T09:23:46.000Z</time>
      </trkpt>
      <trkpt lat="45.31173" lon="4.51543">
        <ele>956.20001220703</ele>
        <time>2026-05-11T09:23:47.000Z</time>
      </trkpt>
      <trkpt lat="45.31174" lon="4.51538">
        <ele>956</ele>
        <time>2026-05-11T09:23:48.000Z</time>
      </trkpt>
      <trkpt lat="45.31176" lon="4.51533">
        <ele>955.59997558594</ele>
        <time>2026-05-11T09:23:49.000Z</time>
      </trkpt>
      <trkpt lat="45.31178" lon="4.51529">
        <ele>955.20001220703</ele>
        <time>2026-05-11T09:23:50.000Z</time>
      </trkpt>
      <trkpt lat="45.3118" lon="4.51526">
        <ele>954.79998779297</ele>
        <time>2026-05-11T09:23:51.000Z</time>
      </trkpt>
      <trkpt lat="45.31182" lon="4.51524">
        <ele>954.59997558594</ele>
        <time>2026-05-11T09:23:52.000Z</time>
      </trkpt>
      <trkpt lat="45.31184" lon="4.5152">
        <ele>954.20001220703</ele>
        <time>2026-05-11T09:23:53.000Z</time>
      </trkpt>
      <trkpt lat="45.31186" lon="4.51515">
        <ele>953.79998779297</ele>
        <time>2026-05-11T09:23:54.000Z</time>
      </trkpt>
      <trkpt lat="45.31188" lon="4.5151">
        <ele>953.40002441406</ele>
        <time>2026-05-11T09:23:55.000Z</time>
      </trkpt>
      <trkpt lat="45.3119" lon="4.51506">
        <ele>953</ele>
        <time>2026-05-11T09:23:56.000Z</time>
      </trkpt>
      <trkpt lat="45.31192" lon="4.51501">
        <ele>952.59997558594</ele>
        <time>2026-05-11T09:23:57.000Z</time>
      </trkpt>
      <trkpt lat="45.31194" lon="4.51496">
        <ele>952.20001220703</ele>
        <time>2026-05-11T09:23:58.000Z</time>
      </trkpt>
      <trkpt lat="45.31196" lon="4.5149">
        <ele>952</ele>
        <time>2026-05-11T09:23:59.000Z</time>
      </trkpt>
      <trkpt lat="45.31198" lon="4.51485">
        <ele>951.59997558594</ele>
        <time>2026-05-11T09:24:00.000Z</time>
      </trkpt>
      <trkpt lat="45.31201" lon="4.51479">
        <ele>951</ele>
        <time>2026-05-11T09:24:01.000Z</time>
      </trkpt>
      <trkpt lat="45.31204" lon="4.51474">
        <ele>950.59997558594</ele>
        <time>2026-05-11T09:24:02.000Z</time>
      </trkpt>
      <trkpt lat="45.31206" lon="4.51468">
        <ele>950.20001220703</ele>
        <time>2026-05-11T09:24:03.000Z</time>
      </trkpt>
      <trkpt lat="45.3121" lon="4.51461">
        <ele>950</ele>
        <time>2026-05-11T09:24:04.000Z</time>
      </trkpt>
      <trkpt lat="45.31213" lon="4.51454">
        <ele>949.59997558594</ele>
        <time>2026-05-11T09:24:05.000Z</time>
      </trkpt>
      <trkpt lat="45.31215" lon="4.51447">
        <ele>949.20001220703</ele>
        <time>2026-05-11T09:24:06.000Z</time>
      </trkpt>
      <trkpt lat="45.31218" lon="4.5144">
        <ele>948.59997558594</ele>
        <time>2026-05-11T09:24:07.000Z</time>
      </trkpt>
      <trkpt lat="45.31221" lon="4.51431">
        <ele>948.40002441406</ele>
        <time>2026-05-11T09:24:08.000Z</time>
      </trkpt>
      <trkpt lat="45.31223" lon="4.51423">
        <ele>948</ele>
        <time>2026-05-11T09:24:09.000Z</time>
      </trkpt>
      <trkpt lat="45.31225" lon="4.51415">
        <ele>947.59997558594</ele>
        <time>2026-05-11T09:24:10.000Z</time>
      </trkpt>
      <trkpt lat="45.31226" lon="4.51407">
        <ele>947.40002441406</ele>
        <time>2026-05-11T09:24:11.000Z</time>
      </trkpt>
      <trkpt lat="45.31228" lon="4.51398">
        <ele>947</ele>
        <time>2026-05-11T09:24:12.000Z</time>
      </trkpt>
      <trkpt lat="45.31229" lon="4.51391">
        <ele>946.79998779297</ele>
        <time>2026-05-11T09:24:13.000Z</time>
      </trkpt>
      <trkpt lat="45.3123" lon="4.51383">
        <ele>946.40002441406</ele>
        <time>2026-05-11T09:24:14.000Z</time>
      </trkpt>
      <trkpt lat="45.31233" lon="4.51376">
        <ele>946.40002441406</ele>
        <time>2026-05-11T09:24:15.000Z</time>
      </trkpt>
      <trkpt lat="45.31235" lon="4.5137">
        <ele>946.20001220703</ele>
        <time>2026-05-11T09:24:16.000Z</time>
      </trkpt>
      <trkpt lat="45.31236" lon="4.51365">
        <ele>946</ele>
        <time>2026-05-11T09:24:17.000Z</time>
      </trkpt>
      <trkpt lat="45.31236" lon="4.51359">
        <ele>946</ele>
        <time>2026-05-11T09:24:18.000Z</time>
      </trkpt>
      <trkpt lat="45.31238" lon="4.51354">
        <ele>946</ele>
        <time>2026-05-11T09:24:19.000Z</time>
      </trkpt>
      <trkpt lat="45.31239" lon="4.5135">
        <ele>945.79998779297</ele>
        <time>2026-05-11T09:24:20.000Z</time>
      </trkpt>
      <trkpt lat="45.3124" lon="4.51346">
        <ele>945.79998779297</ele>
        <time>2026-05-11T09:24:21.000Z</time>
      </trkpt>
      <trkpt lat="45.31241" lon="4.51341">
        <ele>945.79998779297</ele>
        <time>2026-05-11T09:24:22.000Z</time>
      </trkpt>
      <trkpt lat="45.31242" lon="4.51337">
        <ele>945.59997558594</ele>
        <time>2026-05-11T09:24:23.000Z</time>
      </trkpt>
      <trkpt lat="45.31243" lon="4.51333">
        <ele>945.59997558594</ele>
        <time>2026-05-11T09:24:24.000Z</time>
      </trkpt>
      <trkpt lat="45.31243" lon="4.5133">
        <ele>945.40002441406</ele>
        <time>2026-05-11T09:24:25.000Z</time>
      </trkpt>
      <trkpt lat="45.31244" lon="4.51326">
        <ele>945.40002441406</ele>
        <time>2026-05-11T09:24:26.000Z</time>
      </trkpt>
      <trkpt lat="45.31244" lon="4.51323">
        <ele>945.40002441406</ele>
        <time>2026-05-11T09:24:27.000Z</time>
      </trkpt>
      <trkpt lat="45.31245" lon="4.51319">
        <ele>945.20001220703</ele>
        <time>2026-05-11T09:24:28.000Z</time>
      </trkpt>
      <trkpt lat="45.31245" lon="4.51316">
        <ele>945.20001220703</ele>
        <time>2026-05-11T09:24:29.000Z</time>
      </trkpt>
      <trkpt lat="45.31246" lon="4.51312">
        <ele>945.20001220703</ele>
        <time>2026-05-11T09:24:30.000Z</time>
      </trkpt>
      <trkpt lat="45.31247" lon="4.51308">
        <ele>945</ele>
        <time>2026-05-11T09:24:31.000Z</time>
      </trkpt>
      <trkpt lat="45.31248" lon="4.51304">
        <ele>945</ele>
        <time>2026-05-11T09:24:32.000Z</time>
      </trkpt>
      <trkpt lat="45.31249" lon="4.51299">
        <ele>945</ele>
        <time>2026-05-11T09:24:33.000Z</time>
      </trkpt>
      <trkpt lat="45.3125" lon="4.51294">
        <ele>945</ele>
        <time>2026-05-11T09:24:34.000Z</time>
      </trkpt>
      <trkpt lat="45.31251" lon="4.5129">
        <ele>944.79998779297</ele>
        <time>2026-05-11T09:24:35.000Z</time>
      </trkpt>
      <trkpt lat="45.31252" lon="4.51286">
        <ele>944.79998779297</ele>
        <time>2026-05-11T09:24:36.000Z</time>
      </trkpt>
      <trkpt lat="45.31252" lon="4.51283">
        <ele>945</ele>
        <time>2026-05-11T09:24:37.000Z</time>
      </trkpt>
      <trkpt lat="45.31252" lon="4.5128">
        <ele>945</ele>
        <time>2026-05-11T09:24:38.000Z</time>
      </trkpt>
      <trkpt lat="45.31253" lon="4.51277">
        <ele>945</ele>
        <time>2026-05-11T09:24:39.000Z</time>
      </trkpt>
      <trkpt lat="45.31254" lon="4.51273">
        <ele>945</ele>
        <time>2026-05-11T09:24:40.000Z</time>
      </trkpt>
      <trkpt lat="45.31254" lon="4.51268">
        <ele>945</ele>
        <time>2026-05-11T09:24:41.000Z</time>
      </trkpt>
      <trkpt lat="45.31255" lon="4.51264">
        <ele>945</ele>
        <time>2026-05-11T09:24:42.000Z</time>
      </trkpt>
      <trkpt lat="45.31255" lon="4.51259">
        <ele>945</ele>
        <time>2026-05-11T09:24:43.000Z</time>
      </trkpt>
      <trkpt lat="45.31256" lon="4.51255">
        <ele>945</ele>
        <time>2026-05-11T09:24:44.000Z</time>
      </trkpt>
      <trkpt lat="45.31256" lon="4.51251">
        <ele>945.20001220703</ele>
        <time>2026-05-11T09:24:45.000Z</time>
      </trkpt>
      <trkpt lat="45.31255" lon="4.51247">
        <ele>945.20001220703</ele>
        <time>2026-05-11T09:24:46.000Z</time>
      </trkpt>
      <trkpt lat="45.31255" lon="4.51244">
        <ele>945.20001220703</ele>
        <time>2026-05-11T09:24:47.000Z</time>
      </trkpt>
      <trkpt lat="45.31255" lon="4.5124">
        <ele>945.20001220703</ele>
        <time>2026-05-11T09:24:48.000Z</time>
      </trkpt>
      <trkpt lat="45.31256" lon="4.51237">
        <ele>945.20001220703</ele>
        <time>2026-05-11T09:24:49.000Z</time>
      </trkpt>
      <trkpt lat="45.31256" lon="4.51233">
        <ele>945.40002441406</ele>
        <time>2026-05-11T09:24:50.000Z</time>
      </trkpt>
      <trkpt lat="45.31256" lon="4.51229">
        <ele>945.40002441406</ele>
        <time>2026-05-11T09:24:51.000Z</time>
      </trkpt>
      <trkpt lat="45.31256" lon="4.51224">
        <ele>945.40002441406</ele>
        <time>2026-05-11T09:24:52.000Z</time>
      </trkpt>
      <trkpt lat="45.31256" lon="4.5122">
        <ele>945.40002441406</ele>
        <time>2026-05-11T09:24:53.000Z</time>
      </trkpt>
      <trkpt lat="45.31256" lon="4.51215">
        <ele>945.40002441406</ele>
        <time>2026-05-11T09:24:54.000Z</time>
      </trkpt>
      <trkpt lat="45.31256" lon="4.5121">
        <ele>945.59997558594</ele>
        <time>2026-05-11T09:24:55.000Z</time>
      </trkpt>
      <trkpt lat="45.31257" lon="4.51205">
        <ele>945.59997558594</ele>
        <time>2026-05-11T09:24:56.000Z</time>
      </trkpt>
      <trkpt lat="45.31257" lon="4.51199">
        <ele>945.59997558594</ele>
        <time>2026-05-11T09:24:57.000Z</time>
      </trkpt>
      <trkpt lat="45.31258" lon="4.51194">
        <ele>945.79998779297</ele>
        <time>2026-05-11T09:24:58.000Z</time>
      </trkpt>
      <trkpt lat="45.31258" lon="4.51189">
        <ele>945.79998779297</ele>
        <time>2026-05-11T09:24:59.000Z</time>
      </trkpt>
      <trkpt lat="45.31259" lon="4.51184">
        <ele>945.79998779297</ele>
        <time>2026-05-11T09:25:00.000Z</time>
      </trkpt>
      <trkpt lat="45.3126" lon="4.51178">
        <ele>945.79998779297</ele>
        <time>2026-05-11T09:25:01.000Z</time>
      </trkpt>
      <trkpt lat="45.3126" lon="4.51173">
        <ele>945.79998779297</ele>
        <time>2026-05-11T09:25:02.000Z</time>
      </trkpt>
      <trkpt lat="45.31261" lon="4.51168">
        <ele>945.59997558594</ele>
        <time>2026-05-11T09:25:03.000Z</time>
      </trkpt>
      <trkpt lat="45.31262" lon="4.51163">
        <ele>945.59997558594</ele>
        <time>2026-05-11T09:25:04.000Z</time>
      </trkpt>
      <trkpt lat="45.31262" lon="4.51158">
        <ele>945.59997558594</ele>
        <time>2026-05-11T09:25:05.000Z</time>
      </trkpt>
      <trkpt lat="45.31263" lon="4.51153">
        <ele>945.40002441406</ele>
        <time>2026-05-11T09:25:06.000Z</time>
      </trkpt>
      <trkpt lat="45.31263" lon="4.51148">
        <ele>945.40002441406</ele>
        <time>2026-05-11T09:25:07.000Z</time>
      </trkpt>
      <trkpt lat="45.31264" lon="4.51143">
        <ele>945.40002441406</ele>
        <time>2026-05-11T09:25:08.000Z</time>
      </trkpt>
      <trkpt lat="45.31265" lon="4.51139">
        <ele>945.40002441406</ele>
        <time>2026-05-11T09:25:09.000Z</time>
      </trkpt>
      <trkpt lat="45.31266" lon="4.51135">
        <ele>945.20001220703</ele>
        <time>2026-05-11T09:25:10.000Z</time>
      </trkpt>
      <trkpt lat="45.31267" lon="4.51131">
        <ele>945.20001220703</ele>
        <time>2026-05-11T09:25:11.000Z</time>
      </trkpt>
      <trkpt lat="45.31267" lon="4.51127">
        <ele>945.20001220703</ele>
        <time>2026-05-11T09:25:12.000Z</time>
      </trkpt>
      <trkpt lat="45.31268" lon="4.51123">
        <ele>945.20001220703</ele>
        <time>2026-05-11T09:25:13.000Z</time>
      </trkpt>
      <trkpt lat="45.31269" lon="4.5112">
        <ele>945.20001220703</ele>
        <time>2026-05-11T09:25:14.000Z</time>
      </trkpt>
      <trkpt lat="45.3127" lon="4.51116">
        <ele>945.20001220703</ele>
        <time>2026-05-11T09:25:15.000Z</time>
      </trkpt>
      <trkpt lat="45.31271" lon="4.51113">
        <ele>945.20001220703</ele>
        <time>2026-05-11T09:25:16.000Z</time>
      </trkpt>
      <trkpt lat="45.31272" lon="4.51108">
        <ele>945</ele>
        <time>2026-05-11T09:25:17.000Z</time>
      </trkpt>
      <trkpt lat="45.31273" lon="4.51104">
        <ele>945</ele>
        <time>2026-05-11T09:25:18.000Z</time>
      </trkpt>
      <trkpt lat="45.31274" lon="4.511">
        <ele>945</ele>
        <time>2026-05-11T09:25:19.000Z</time>
      </trkpt>
      <trkpt lat="45.31275" lon="4.51096">
        <ele>945</ele>
        <time>2026-05-11T09:25:20.000Z</time>
      </trkpt>
      <trkpt lat="45.31276" lon="4.51092">
        <ele>945</ele>
        <time>2026-05-11T09:25:21.000Z</time>
      </trkpt>
      <trkpt lat="45.31277" lon="4.51089">
        <ele>945</ele>
        <time>2026-05-11T09:25:22.000Z</time>
      </trkpt>
      <trkpt lat="45.31278" lon="4.51085">
        <ele>945.20001220703</ele>
        <time>2026-05-11T09:25:23.000Z</time>
      </trkpt>
      <trkpt lat="45.31279" lon="4.51082">
        <ele>945.20001220703</ele>
        <time>2026-05-11T09:25:24.000Z</time>
      </trkpt>
      <trkpt lat="45.3128" lon="4.51078">
        <ele>945.20001220703</ele>
        <time>2026-05-11T09:25:25.000Z</time>
      </trkpt>
      <trkpt lat="45.31281" lon="4.51075">
        <ele>945.40002441406</ele>
        <time>2026-05-11T09:25:26.000Z</time>
      </trkpt>
      <trkpt lat="45.31281" lon="4.5107">
        <ele>945.40002441406</ele>
        <time>2026-05-11T09:25:27.000Z</time>
      </trkpt>
      <trkpt lat="45.31282" lon="4.51067">
        <ele>945.59997558594</ele>
        <time>2026-05-11T09:25:28.000Z</time>
      </trkpt>
      <trkpt lat="45.31283" lon="4.51064">
        <ele>945.79998779297</ele>
        <time>2026-05-11T09:25:29.000Z</time>
      </trkpt>
      <trkpt lat="45.31283" lon="4.5106">
        <ele>945.79998779297</ele>
        <time>2026-05-11T09:25:30.000Z</time>
      </trkpt>
      <trkpt lat="45.31284" lon="4.51057">
        <ele>946</ele>
        <time>2026-05-11T09:25:31.000Z</time>
      </trkpt>
      <trkpt lat="45.31284" lon="4.51053">
        <ele>946</ele>
        <time>2026-05-11T09:25:32.000Z</time>
      </trkpt>
      <trkpt lat="45.31285" lon="4.5105">
        <ele>946.20001220703</ele>
        <time>2026-05-11T09:25:33.000Z</time>
      </trkpt>
      <trkpt lat="45.31286" lon="4.51046">
        <ele>946.40002441406</ele>
        <time>2026-05-11T09:25:34.000Z</time>
      </trkpt>
      <trkpt lat="45.31287" lon="4.51043">
        <ele>946.40002441406</ele>
        <time>2026-05-11T09:25:35.000Z</time>
      </trkpt>
      <trkpt lat="45.31287" lon="4.5104">
        <ele>946.59997558594</ele>
        <time>2026-05-11T09:25:36.000Z</time>
      </trkpt>
      <trkpt lat="45.31287" lon="4.51037">
        <ele>946.59997558594</ele>
        <time>2026-05-11T09:25:37.000Z</time>
      </trkpt>
      <trkpt lat="45.31288" lon="4.51035">
        <ele>946.79998779297</ele>
        <time>2026-05-11T09:25:38.000Z</time>
      </trkpt>
      <trkpt lat="45.31289" lon="4.51032">
        <ele>946.79998779297</ele>
        <time>2026-05-11T09:25:39.000Z</time>
      </trkpt>
      <trkpt lat="45.31289" lon="4.51029">
        <ele>947</ele>
        <time>2026-05-11T09:25:40.000Z</time>
      </trkpt>
      <trkpt lat="45.31291" lon="4.51025">
        <ele>947</ele>
        <time>2026-05-11T09:25:41.000Z</time>
      </trkpt>
      <trkpt lat="45.31292" lon="4.51022">
        <ele>947.20001220703</ele>
        <time>2026-05-11T09:25:42.000Z</time>
      </trkpt>
      <trkpt lat="45.31294" lon="4.51018">
        <ele>947.20001220703</ele>
        <time>2026-05-11T09:25:43.000Z</time>
      </trkpt>
      <trkpt lat="45.31296" lon="4.51014">
        <ele>947.40002441406</ele>
        <time>2026-05-11T09:25:44.000Z</time>
      </trkpt>
      <trkpt lat="45.31297" lon="4.5101">
        <ele>947.40002441406</ele>
        <time>2026-05-11T09:25:45.000Z</time>
      </trkpt>
      <trkpt lat="45.31299" lon="4.51006">
        <ele>947.40002441406</ele>
        <time>2026-05-11T09:25:46.000Z</time>
      </trkpt>
      <trkpt lat="45.313" lon="4.51003">
        <ele>947.59997558594</ele>
        <time>2026-05-11T09:25:47.000Z</time>
      </trkpt>
      <trkpt lat="45.31302" lon="4.51001">
        <ele>947.59997558594</ele>
        <time>2026-05-11T09:25:48.000Z</time>
      </trkpt>
      <trkpt lat="45.31304" lon="4.50998">
        <ele>947.59997558594</ele>
        <time>2026-05-11T09:25:49.000Z</time>
      </trkpt>
      <trkpt lat="45.31306" lon="4.50994">
        <ele>947.79998779297</ele>
        <time>2026-05-11T09:25:50.000Z</time>
      </trkpt>
      <trkpt lat="45.31308" lon="4.50992">
        <ele>947.79998779297</ele>
        <time>2026-05-11T09:25:51.000Z</time>
      </trkpt>
      <trkpt lat="45.3131" lon="4.50989">
        <ele>948</ele>
        <time>2026-05-11T09:25:52.000Z</time>
      </trkpt>
      <trkpt lat="45.31312" lon="4.50986">
        <ele>948</ele>
        <time>2026-05-11T09:25:53.000Z</time>
      </trkpt>
      <trkpt lat="45.31313" lon="4.50982">
        <ele>948.20001220703</ele>
        <time>2026-05-11T09:25:54.000Z</time>
      </trkpt>
      <trkpt lat="45.31315" lon="4.50979">
        <ele>948.20001220703</ele>
        <time>2026-05-11T09:25:55.000Z</time>
      </trkpt>
      <trkpt lat="45.31317" lon="4.50975">
        <ele>948.20001220703</ele>
        <time>2026-05-11T09:25:56.000Z</time>
      </trkpt>
      <trkpt lat="45.31318" lon="4.50972">
        <ele>948.20001220703</ele>
        <time>2026-05-11T09:25:57.000Z</time>
      </trkpt>
      <trkpt lat="45.3132" lon="4.50967">
        <ele>948.40002441406</ele>
        <time>2026-05-11T09:25:58.000Z</time>
      </trkpt>
      <trkpt lat="45.31322" lon="4.50964">
        <ele>948.40002441406</ele>
        <time>2026-05-11T09:25:59.000Z</time>
      </trkpt>
      <trkpt lat="45.31323" lon="4.50961">
        <ele>948.40002441406</ele>
        <time>2026-05-11T09:26:00.000Z</time>
      </trkpt>
      <trkpt lat="45.31325" lon="4.50958">
        <ele>948.40002441406</ele>
        <time>2026-05-11T09:26:01.000Z</time>
      </trkpt>
      <trkpt lat="45.31327" lon="4.50954">
        <ele>948.59997558594</ele>
        <time>2026-05-11T09:26:02.000Z</time>
      </trkpt>
      <trkpt lat="45.31329" lon="4.50951">
        <ele>948.59997558594</ele>
        <time>2026-05-11T09:26:03.000Z</time>
      </trkpt>
      <trkpt lat="45.31331" lon="4.50947">
        <ele>948.79998779297</ele>
        <time>2026-05-11T09:26:04.000Z</time>
      </trkpt>
      <trkpt lat="45.31333" lon="4.50943">
        <ele>948.79998779297</ele>
        <time>2026-05-11T09:26:05.000Z</time>
      </trkpt>
      <trkpt lat="45.31335" lon="4.5094">
        <ele>949</ele>
        <time>2026-05-11T09:26:06.000Z</time>
      </trkpt>
      <trkpt lat="45.31336" lon="4.50936">
        <ele>949</ele>
        <time>2026-05-11T09:26:07.000Z</time>
      </trkpt>
      <trkpt lat="45.31338" lon="4.50932">
        <ele>949.20001220703</ele>
        <time>2026-05-11T09:26:08.000Z</time>
      </trkpt>
      <trkpt lat="45.31339" lon="4.5093">
        <ele>949.20001220703</ele>
        <time>2026-05-11T09:26:09.000Z</time>
      </trkpt>
      <trkpt lat="45.31341" lon="4.50926">
        <ele>949.20001220703</ele>
        <time>2026-05-11T09:26:10.000Z</time>
      </trkpt>
      <trkpt lat="45.31343" lon="4.50923">
        <ele>949.40002441406</ele>
        <time>2026-05-11T09:26:11.000Z</time>
      </trkpt>
      <trkpt lat="45.31344" lon="4.5092">
        <ele>949.40002441406</ele>
        <time>2026-05-11T09:26:12.000Z</time>
      </trkpt>
      <trkpt lat="45.31346" lon="4.50917">
        <ele>949.59997558594</ele>
        <time>2026-05-11T09:26:13.000Z</time>
      </trkpt>
      <trkpt lat="45.31347" lon="4.50913">
        <ele>949.59997558594</ele>
        <time>2026-05-11T09:26:14.000Z</time>
      </trkpt>
      <trkpt lat="45.31349" lon="4.50911">
        <ele>949.79998779297</ele>
        <time>2026-05-11T09:26:15.000Z</time>
      </trkpt>
      <trkpt lat="45.3135" lon="4.50908">
        <ele>950</ele>
        <time>2026-05-11T09:26:16.000Z</time>
      </trkpt>
      <trkpt lat="45.31352" lon="4.50906">
        <ele>950</ele>
        <time>2026-05-11T09:26:17.000Z</time>
      </trkpt>
      <trkpt lat="45.31353" lon="4.50903">
        <ele>950</ele>
        <time>2026-05-11T09:26:18.000Z</time>
      </trkpt>
      <trkpt lat="45.31355" lon="4.509">
        <ele>950.20001220703</ele>
        <time>2026-05-11T09:26:19.000Z</time>
      </trkpt>
      <trkpt lat="45.31356" lon="4.50897">
        <ele>950.20001220703</ele>
        <time>2026-05-11T09:26:20.000Z</time>
      </trkpt>
      <trkpt lat="45.31357" lon="4.50894">
        <ele>950.20001220703</ele>
        <time>2026-05-11T09:26:21.000Z</time>
      </trkpt>
      <trkpt lat="45.31358" lon="4.50892">
        <ele>950.20001220703</ele>
        <time>2026-05-11T09:26:22.000Z</time>
      </trkpt>
      <trkpt lat="45.31359" lon="4.50889">
        <ele>950.40002441406</ele>
        <time>2026-05-11T09:26:23.000Z</time>
      </trkpt>
      <trkpt lat="45.31361" lon="4.50886">
        <ele>950.40002441406</ele>
        <time>2026-05-11T09:26:24.000Z</time>
      </trkpt>
      <trkpt lat="45.31362" lon="4.50883">
        <ele>950.40002441406</ele>
        <time>2026-05-11T09:26:25.000Z</time>
      </trkpt>
      <trkpt lat="45.31363" lon="4.50879">
        <ele>950.40002441406</ele>
        <time>2026-05-11T09:26:26.000Z</time>
      </trkpt>
      <trkpt lat="45.31364" lon="4.50876">
        <ele>950.40002441406</ele>
        <time>2026-05-11T09:26:27.000Z</time>
      </trkpt>
      <trkpt lat="45.31366" lon="4.50872">
        <ele>950.40002441406</ele>
        <time>2026-05-11T09:26:28.000Z</time>
      </trkpt>
      <trkpt lat="45.31368" lon="4.50869">
        <ele>950.59997558594</ele>
        <time>2026-05-11T09:26:29.000Z</time>
      </trkpt>
      <trkpt lat="45.31369" lon="4.50866">
        <ele>950.59997558594</ele>
        <time>2026-05-11T09:26:30.000Z</time>
      </trkpt>
      <trkpt lat="45.3137" lon="4.50863">
        <ele>950.59997558594</ele>
        <time>2026-05-11T09:26:31.000Z</time>
      </trkpt>
      <trkpt lat="45.31371" lon="4.5086">
        <ele>950.59997558594</ele>
        <time>2026-05-11T09:26:32.000Z</time>
      </trkpt>
      <trkpt lat="45.31372" lon="4.50856">
        <ele>950.79998779297</ele>
        <time>2026-05-11T09:26:33.000Z</time>
      </trkpt>
      <trkpt lat="45.31374" lon="4.50852">
        <ele>950.79998779297</ele>
        <time>2026-05-11T09:26:34.000Z</time>
      </trkpt>
      <trkpt lat="45.31375" lon="4.5085">
        <ele>950.79998779297</ele>
        <time>2026-05-11T09:26:35.000Z</time>
      </trkpt>
      <trkpt lat="45.31376" lon="4.50846">
        <ele>951</ele>
        <time>2026-05-11T09:26:36.000Z</time>
      </trkpt>
      <trkpt lat="45.31378" lon="4.50843">
        <ele>951</ele>
        <time>2026-05-11T09:26:37.000Z</time>
      </trkpt>
      <trkpt lat="45.31379" lon="4.5084">
        <ele>951</ele>
        <time>2026-05-11T09:26:38.000Z</time>
      </trkpt>
      <trkpt lat="45.31381" lon="4.50838">
        <ele>951.20001220703</ele>
        <time>2026-05-11T09:26:39.000Z</time>
      </trkpt>
      <trkpt lat="45.31382" lon="4.50834">
        <ele>951.20001220703</ele>
        <time>2026-05-11T09:26:40.000Z</time>
      </trkpt>
      <trkpt lat="45.31383" lon="4.50831">
        <ele>951.20001220703</ele>
        <time>2026-05-11T09:26:41.000Z</time>
      </trkpt>
      <trkpt lat="45.31385" lon="4.50828">
        <ele>951.40002441406</ele>
        <time>2026-05-11T09:26:42.000Z</time>
      </trkpt>
      <trkpt lat="45.31386" lon="4.50824">
        <ele>951.40002441406</ele>
        <time>2026-05-11T09:26:43.000Z</time>
      </trkpt>
      <trkpt lat="45.31387" lon="4.50821">
        <ele>951.40002441406</ele>
        <time>2026-05-11T09:26:44.000Z</time>
      </trkpt>
      <trkpt lat="45.31389" lon="4.50819">
        <ele>951.40002441406</ele>
        <time>2026-05-11T09:26:45.000Z</time>
      </trkpt>
      <trkpt lat="45.3139" lon="4.50816">
        <ele>951.40002441406</ele>
        <time>2026-05-11T09:26:46.000Z</time>
      </trkpt>
      <trkpt lat="45.31391" lon="4.50813">
        <ele>951.40002441406</ele>
        <time>2026-05-11T09:26:47.000Z</time>
      </trkpt>
      <trkpt lat="45.31393" lon="4.50809">
        <ele>951.40002441406</ele>
        <time>2026-05-11T09:26:48.000Z</time>
      </trkpt>
      <trkpt lat="45.31394" lon="4.50806">
        <ele>951.40002441406</ele>
        <time>2026-05-11T09:26:49.000Z</time>
      </trkpt>
      <trkpt lat="45.31395" lon="4.50802">
        <ele>951.40002441406</ele>
        <time>2026-05-11T09:26:50.000Z</time>
      </trkpt>
      <trkpt lat="45.31397" lon="4.50799">
        <ele>951.40002441406</ele>
        <time>2026-05-11T09:26:51.000Z</time>
      </trkpt>
      <trkpt lat="45.31398" lon="4.50796">
        <ele>951.40002441406</ele>
        <time>2026-05-11T09:26:52.000Z</time>
      </trkpt>
      <trkpt lat="45.314" lon="4.50794">
        <ele>951.40002441406</ele>
        <time>2026-05-11T09:26:53.000Z</time>
      </trkpt>
      <trkpt lat="45.31401" lon="4.50791">
        <ele>951.40002441406</ele>
        <time>2026-05-11T09:26:54.000Z</time>
      </trkpt>
      <trkpt lat="45.31403" lon="4.50788">
        <ele>951.40002441406</ele>
        <time>2026-05-11T09:26:55.000Z</time>
      </trkpt>
      <trkpt lat="45.31405" lon="4.50785">
        <ele>951.20001220703</ele>
        <time>2026-05-11T09:26:56.000Z</time>
      </trkpt>
      <trkpt lat="45.31407" lon="4.50782">
        <ele>951.20001220703</ele>
        <time>2026-05-11T09:26:57.000Z</time>
      </trkpt>
      <trkpt lat="45.31408" lon="4.50779">
        <ele>951.20001220703</ele>
        <time>2026-05-11T09:26:58.000Z</time>
      </trkpt>
      <trkpt lat="45.31409" lon="4.50776">
        <ele>951</ele>
        <time>2026-05-11T09:26:59.000Z</time>
      </trkpt>
      <trkpt lat="45.31411" lon="4.50774">
        <ele>951.20001220703</ele>
        <time>2026-05-11T09:27:00.000Z</time>
      </trkpt>
      <trkpt lat="45.31412" lon="4.50771">
        <ele>951.20001220703</ele>
        <time>2026-05-11T09:27:01.000Z</time>
      </trkpt>
      <trkpt lat="45.31414" lon="4.50768">
        <ele>951.40002441406</ele>
        <time>2026-05-11T09:27:02.000Z</time>
      </trkpt>
      <trkpt lat="45.31416" lon="4.50764">
        <ele>951.40002441406</ele>
        <time>2026-05-11T09:27:03.000Z</time>
      </trkpt>
      <trkpt lat="45.31417" lon="4.50761">
        <ele>951.59997558594</ele>
        <time>2026-05-11T09:27:04.000Z</time>
      </trkpt>
      <trkpt lat="45.31419" lon="4.50758">
        <ele>951.59997558594</ele>
        <time>2026-05-11T09:27:05.000Z</time>
      </trkpt>
      <trkpt lat="45.3142" lon="4.50756">
        <ele>951.79998779297</ele>
        <time>2026-05-11T09:27:06.000Z</time>
      </trkpt>
      <trkpt lat="45.31422" lon="4.50752">
        <ele>951.79998779297</ele>
        <time>2026-05-11T09:27:07.000Z</time>
      </trkpt>
      <trkpt lat="45.31423" lon="4.50749">
        <ele>952</ele>
        <time>2026-05-11T09:27:08.000Z</time>
      </trkpt>
      <trkpt lat="45.31425" lon="4.50746">
        <ele>952</ele>
        <time>2026-05-11T09:27:09.000Z</time>
      </trkpt>
      <trkpt lat="45.31426" lon="4.50743">
        <ele>952</ele>
        <time>2026-05-11T09:27:10.000Z</time>
      </trkpt>
      <trkpt lat="45.31428" lon="4.5074">
        <ele>952</ele>
        <time>2026-05-11T09:27:11.000Z</time>
      </trkpt>
      <trkpt lat="45.31429" lon="4.50736">
        <ele>952</ele>
        <time>2026-05-11T09:27:12.000Z</time>
      </trkpt>
      <trkpt lat="45.3143" lon="4.50733">
        <ele>952</ele>
        <time>2026-05-11T09:27:13.000Z</time>
      </trkpt>
      <trkpt lat="45.31432" lon="4.5073">
        <ele>952.20001220703</ele>
        <time>2026-05-11T09:27:14.000Z</time>
      </trkpt>
      <trkpt lat="45.31433" lon="4.50727">
        <ele>952.20001220703</ele>
        <time>2026-05-11T09:27:15.000Z</time>
      </trkpt>
      <trkpt lat="45.31434" lon="4.50723">
        <ele>952.40002441406</ele>
        <time>2026-05-11T09:27:16.000Z</time>
      </trkpt>
      <trkpt lat="45.31435" lon="4.5072">
        <ele>952.59997558594</ele>
        <time>2026-05-11T09:27:17.000Z</time>
      </trkpt>
      <trkpt lat="45.31437" lon="4.50717">
        <ele>952.59997558594</ele>
        <time>2026-05-11T09:27:18.000Z</time>
      </trkpt>
      <trkpt lat="45.31438" lon="4.50715">
        <ele>952.79998779297</ele>
        <time>2026-05-11T09:27:19.000Z</time>
      </trkpt>
      <trkpt lat="45.31439" lon="4.50712">
        <ele>953</ele>
        <time>2026-05-11T09:27:20.000Z</time>
      </trkpt>
      <trkpt lat="45.3144" lon="4.50708">
        <ele>953.20001220703</ele>
        <time>2026-05-11T09:27:21.000Z</time>
      </trkpt>
      <trkpt lat="45.31441" lon="4.50705">
        <ele>953.40002441406</ele>
        <time>2026-05-11T09:27:22.000Z</time>
      </trkpt>
      <trkpt lat="45.31442" lon="4.50702">
        <ele>953.40002441406</ele>
        <time>2026-05-11T09:27:23.000Z</time>
      </trkpt>
      <trkpt lat="45.31444" lon="4.50699">
        <ele>953.40002441406</ele>
        <time>2026-05-11T09:27:24.000Z</time>
      </trkpt>
      <trkpt lat="45.31445" lon="4.50695">
        <ele>953.59997558594</ele>
        <time>2026-05-11T09:27:25.000Z</time>
      </trkpt>
      <trkpt lat="45.31446" lon="4.50692">
        <ele>953.59997558594</ele>
        <time>2026-05-11T09:27:26.000Z</time>
      </trkpt>
      <trkpt lat="45.31447" lon="4.50689">
        <ele>953.59997558594</ele>
        <time>2026-05-11T09:27:27.000Z</time>
      </trkpt>
      <trkpt lat="45.31449" lon="4.50685">
        <ele>953.59997558594</ele>
        <time>2026-05-11T09:27:28.000Z</time>
      </trkpt>
      <trkpt lat="45.3145" lon="4.50682">
        <ele>953.79998779297</ele>
        <time>2026-05-11T09:27:29.000Z</time>
      </trkpt>
      <trkpt lat="45.31451" lon="4.50679">
        <ele>953.79998779297</ele>
        <time>2026-05-11T09:27:30.000Z</time>
      </trkpt>
      <trkpt lat="45.31453" lon="4.50675">
        <ele>954</ele>
        <time>2026-05-11T09:27:31.000Z</time>
      </trkpt>
      <trkpt lat="45.31454" lon="4.50672">
        <ele>954</ele>
        <time>2026-05-11T09:27:32.000Z</time>
      </trkpt>
      <trkpt lat="45.31456" lon="4.50668">
        <ele>954</ele>
        <time>2026-05-11T09:27:33.000Z</time>
      </trkpt>
      <trkpt lat="45.31457" lon="4.50665">
        <ele>954.20001220703</ele>
        <time>2026-05-11T09:27:34.000Z</time>
      </trkpt>
      <trkpt lat="45.31458" lon="4.50661">
        <ele>954.20001220703</ele>
        <time>2026-05-11T09:27:35.000Z</time>
      </trkpt>
      <trkpt lat="45.3146" lon="4.50658">
        <ele>954.40002441406</ele>
        <time>2026-05-11T09:27:36.000Z</time>
      </trkpt>
      <trkpt lat="45.31461" lon="4.50654">
        <ele>954.40002441406</ele>
        <time>2026-05-11T09:27:37.000Z</time>
      </trkpt>
      <trkpt lat="45.31462" lon="4.5065">
        <ele>954.40002441406</ele>
        <time>2026-05-11T09:27:38.000Z</time>
      </trkpt>
      <trkpt lat="45.31463" lon="4.50645">
        <ele>954.40002441406</ele>
        <time>2026-05-11T09:27:39.000Z</time>
      </trkpt>
      <trkpt lat="45.31464" lon="4.50642">
        <ele>954.40002441406</ele>
        <time>2026-05-11T09:27:40.000Z</time>
      </trkpt>
      <trkpt lat="45.31465" lon="4.50638">
        <ele>954.40002441406</ele>
        <time>2026-05-11T09:27:41.000Z</time>
      </trkpt>
      <trkpt lat="45.31465" lon="4.50634">
        <ele>954.40002441406</ele>
        <time>2026-05-11T09:27:42.000Z</time>
      </trkpt>
      <trkpt lat="45.31466" lon="4.50631">
        <ele>954.40002441406</ele>
        <time>2026-05-11T09:27:43.000Z</time>
      </trkpt>
      <trkpt lat="45.31467" lon="4.50628">
        <ele>954.59997558594</ele>
        <time>2026-05-11T09:27:44.000Z</time>
      </trkpt>
      <trkpt lat="45.31468" lon="4.50624">
        <ele>954.59997558594</ele>
        <time>2026-05-11T09:27:45.000Z</time>
      </trkpt>
      <trkpt lat="45.31469" lon="4.50621">
        <ele>954.59997558594</ele>
        <time>2026-05-11T09:27:46.000Z</time>
      </trkpt>
      <trkpt lat="45.3147" lon="4.50617">
        <ele>954.59997558594</ele>
        <time>2026-05-11T09:27:47.000Z</time>
      </trkpt>
      <trkpt lat="45.3147" lon="4.50613">
        <ele>954.59997558594</ele>
        <time>2026-05-11T09:27:48.000Z</time>
      </trkpt>
      <trkpt lat="45.31471" lon="4.5061">
        <ele>954.59997558594</ele>
        <time>2026-05-11T09:27:49.000Z</time>
      </trkpt>
      <trkpt lat="45.31472" lon="4.50605">
        <ele>954.59997558594</ele>
        <time>2026-05-11T09:27:50.000Z</time>
      </trkpt>
      <trkpt lat="45.31473" lon="4.50602">
        <ele>954.59997558594</ele>
        <time>2026-05-11T09:27:51.000Z</time>
      </trkpt>
      <trkpt lat="45.31474" lon="4.50598">
        <ele>954.59997558594</ele>
        <time>2026-05-11T09:27:52.000Z</time>
      </trkpt>
      <trkpt lat="45.31474" lon="4.50594">
        <ele>954.79998779297</ele>
        <time>2026-05-11T09:27:53.000Z</time>
      </trkpt>
      <trkpt lat="45.31475" lon="4.5059">
        <ele>954.79998779297</ele>
        <time>2026-05-11T09:27:54.000Z</time>
      </trkpt>
      <trkpt lat="45.31475" lon="4.50587">
        <ele>954.79998779297</ele>
        <time>2026-05-11T09:27:55.000Z</time>
      </trkpt>
      <trkpt lat="45.31475" lon="4.50584">
        <ele>954.79998779297</ele>
        <time>2026-05-11T09:27:56.000Z</time>
      </trkpt>
      <trkpt lat="45.31476" lon="4.50581">
        <ele>955</ele>
        <time>2026-05-11T09:27:57.000Z</time>
      </trkpt>
      <trkpt lat="45.31476" lon="4.50578">
        <ele>955</ele>
        <time>2026-05-11T09:27:58.000Z</time>
      </trkpt>
      <trkpt lat="45.31476" lon="4.50573">
        <ele>955</ele>
        <time>2026-05-11T09:27:59.000Z</time>
      </trkpt>
      <trkpt lat="45.31476" lon="4.5057">
        <ele>955.20001220703</ele>
        <time>2026-05-11T09:28:00.000Z</time>
      </trkpt>
      <trkpt lat="45.31476" lon="4.50566">
        <ele>955.20001220703</ele>
        <time>2026-05-11T09:28:01.000Z</time>
      </trkpt>
      <trkpt lat="45.31476" lon="4.50562">
        <ele>955.20001220703</ele>
        <time>2026-05-11T09:28:02.000Z</time>
      </trkpt>
      <trkpt lat="45.31476" lon="4.50559">
        <ele>955.40002441406</ele>
        <time>2026-05-11T09:28:03.000Z</time>
      </trkpt>
      <trkpt lat="45.31476" lon="4.50556">
        <ele>955.40002441406</ele>
        <time>2026-05-11T09:28:04.000Z</time>
      </trkpt>
      <trkpt lat="45.31476" lon="4.50553">
        <ele>955.59997558594</ele>
        <time>2026-05-11T09:28:05.000Z</time>
      </trkpt>
      <trkpt lat="45.31476" lon="4.5055">
        <ele>955.59997558594</ele>
        <time>2026-05-11T09:28:06.000Z</time>
      </trkpt>
      <trkpt lat="45.31476" lon="4.50546">
        <ele>955.79998779297</ele>
        <time>2026-05-11T09:28:07.000Z</time>
      </trkpt>
      <trkpt lat="45.31476" lon="4.50543">
        <ele>955.79998779297</ele>
        <time>2026-05-11T09:28:08.000Z</time>
      </trkpt>
      <trkpt lat="45.31477" lon="4.50539">
        <ele>955.79998779297</ele>
        <time>2026-05-11T09:28:09.000Z</time>
      </trkpt>
      <trkpt lat="45.31477" lon="4.50535">
        <ele>956</ele>
        <time>2026-05-11T09:28:10.000Z</time>
      </trkpt>
      <trkpt lat="45.31478" lon="4.50531">
        <ele>956</ele>
        <time>2026-05-11T09:28:11.000Z</time>
      </trkpt>
      <trkpt lat="45.31478" lon="4.50528">
        <ele>956</ele>
        <time>2026-05-11T09:28:12.000Z</time>
      </trkpt>
      <trkpt lat="45.31479" lon="4.50524">
        <ele>956.20001220703</ele>
        <time>2026-05-11T09:28:13.000Z</time>
      </trkpt>
      <trkpt lat="45.31479" lon="4.50521">
        <ele>956.20001220703</ele>
        <time>2026-05-11T09:28:14.000Z</time>
      </trkpt>
      <trkpt lat="45.31479" lon="4.50518">
        <ele>956.20001220703</ele>
        <time>2026-05-11T09:28:15.000Z</time>
      </trkpt>
      <trkpt lat="45.3148" lon="4.50514">
        <ele>956.20001220703</ele>
        <time>2026-05-11T09:28:16.000Z</time>
      </trkpt>
      <trkpt lat="45.3148" lon="4.5051">
        <ele>956.20001220703</ele>
        <time>2026-05-11T09:28:17.000Z</time>
      </trkpt>
      <trkpt lat="45.31481" lon="4.50505">
        <ele>956.40002441406</ele>
        <time>2026-05-11T09:28:18.000Z</time>
      </trkpt>
      <trkpt lat="45.31481" lon="4.50502">
        <ele>956.40002441406</ele>
        <time>2026-05-11T09:28:19.000Z</time>
      </trkpt>
      <trkpt lat="45.31482" lon="4.50498">
        <ele>956.40002441406</ele>
        <time>2026-05-11T09:28:20.000Z</time>
      </trkpt>
      <trkpt lat="45.31482" lon="4.50494">
        <ele>956.40002441406</ele>
        <time>2026-05-11T09:28:21.000Z</time>
      </trkpt>
      <trkpt lat="45.31482" lon="4.50491">
        <ele>956.40002441406</ele>
        <time>2026-05-11T09:28:22.000Z</time>
      </trkpt>
      <trkpt lat="45.31483" lon="4.50487">
        <ele>956.40002441406</ele>
        <time>2026-05-11T09:28:23.000Z</time>
      </trkpt>
      <trkpt lat="45.31483" lon="4.50484">
        <ele>956.40002441406</ele>
        <time>2026-05-11T09:28:24.000Z</time>
      </trkpt>
      <trkpt lat="45.31483" lon="4.50481">
        <ele>956.20001220703</ele>
        <time>2026-05-11T09:28:25.000Z</time>
      </trkpt>
      <trkpt lat="45.31484" lon="4.50477">
        <ele>956.20001220703</ele>
        <time>2026-05-11T09:28:26.000Z</time>
      </trkpt>
      <trkpt lat="45.31484" lon="4.50474">
        <ele>956</ele>
        <time>2026-05-11T09:28:27.000Z</time>
      </trkpt>
      <trkpt lat="45.31485" lon="4.50471">
        <ele>956</ele>
        <time>2026-05-11T09:28:28.000Z</time>
      </trkpt>
      <trkpt lat="45.31485" lon="4.50468">
        <ele>955.79998779297</ele>
        <time>2026-05-11T09:28:29.000Z</time>
      </trkpt>
      <trkpt lat="45.31485" lon="4.50466">
        <ele>955.59997558594</ele>
        <time>2026-05-11T09:28:30.000Z</time>
      </trkpt>
      <trkpt lat="45.31485" lon="4.50463">
        <ele>955.40002441406</ele>
        <time>2026-05-11T09:28:31.000Z</time>
      </trkpt>
      <trkpt lat="45.31485" lon="4.5046">
        <ele>955</ele>
        <time>2026-05-11T09:28:32.000Z</time>
      </trkpt>
      <trkpt lat="45.31485" lon="4.50457">
        <ele>954.79998779297</ele>
        <time>2026-05-11T09:28:33.000Z</time>
      </trkpt>
      <trkpt lat="45.31486" lon="4.50454">
        <ele>954.59997558594</ele>
        <time>2026-05-11T09:28:34.000Z</time>
      </trkpt>
      <trkpt lat="45.31486" lon="4.50452">
        <ele>954.20001220703</ele>
        <time>2026-05-11T09:28:35.000Z</time>
      </trkpt>
      <trkpt lat="45.31486" lon="4.50448">
        <ele>954</ele>
        <time>2026-05-11T09:28:36.000Z</time>
      </trkpt>
      <trkpt lat="45.31486" lon="4.50446">
        <ele>953.79998779297</ele>
        <time>2026-05-11T09:28:37.000Z</time>
      </trkpt>
      <trkpt lat="45.31486" lon="4.50442">
        <ele>953.59997558594</ele>
        <time>2026-05-11T09:28:38.000Z</time>
      </trkpt>
      <trkpt lat="45.31486" lon="4.50439">
        <ele>953.20001220703</ele>
        <time>2026-05-11T09:28:39.000Z</time>
      </trkpt>
      <trkpt lat="45.31486" lon="4.50436">
        <ele>953</ele>
        <time>2026-05-11T09:28:40.000Z</time>
      </trkpt>
      <trkpt lat="45.31486" lon="4.50434">
        <ele>952.79998779297</ele>
        <time>2026-05-11T09:28:41.000Z</time>
      </trkpt>
      <trkpt lat="45.31484" lon="4.50433">
        <ele>952.59997558594</ele>
        <time>2026-05-11T09:28:42.000Z</time>
      </trkpt>
      <trkpt lat="45.31483" lon="4.50433">
        <ele>952.40002441406</ele>
        <time>2026-05-11T09:28:43.000Z</time>
      </trkpt>
      <trkpt lat="45.31481" lon="4.50432">
        <ele>952.20001220703</ele>
        <time>2026-05-11T09:28:44.000Z</time>
      </trkpt>
      <trkpt lat="45.3148" lon="4.50432">
        <ele>952.20001220703</ele>
        <time>2026-05-11T09:28:45.000Z</time>
      </trkpt>
      <trkpt lat="45.31479" lon="4.50433">
        <ele>952</ele>
        <time>2026-05-11T09:28:46.000Z</time>
      </trkpt>
      <trkpt lat="45.31478" lon="4.50433">
        <ele>952</ele>
        <time>2026-05-11T09:28:47.000Z</time>
      </trkpt>
      <trkpt lat="45.31477" lon="4.50433">
        <ele>951.79998779297</ele>
        <time>2026-05-11T09:28:48.000Z</time>
      </trkpt>
      <trkpt lat="45.31476" lon="4.50432">
        <ele>951.79998779297</ele>
        <time>2026-05-11T09:28:49.000Z</time>
      </trkpt>
      <trkpt lat="45.31475" lon="4.50431">
        <ele>951.79998779297</ele>
        <time>2026-05-11T09:28:50.000Z</time>
      </trkpt>
      <trkpt lat="45.31475" lon="4.50431">
        <ele>951.79998779297</ele>
        <time>2026-05-11T09:28:51.000Z</time>
      </trkpt>
      <trkpt lat="45.31474" lon="4.50431">
        <ele>951.59997558594</ele>
        <time>2026-05-11T09:28:52.000Z</time>
      </trkpt>
      <trkpt lat="45.31474" lon="4.50431">
        <ele>951.59997558594</ele>
        <time>2026-05-11T09:28:53.000Z</time>
      </trkpt>
      <trkpt lat="45.31492" lon="4.50422">
        <ele>950.79998779297</ele>
        <time>2026-05-11T09:37:51.000Z</time>
      </trkpt>
      <trkpt lat="45.31493" lon="4.50421">
        <ele>950.59997558594</ele>
        <time>2026-05-11T09:37:52.000Z</time>
      </trkpt>
      <trkpt lat="45.31494" lon="4.50419">
        <ele>950.59997558594</ele>
        <time>2026-05-11T09:37:53.000Z</time>
      </trkpt>
      <trkpt lat="45.31495" lon="4.50416">
        <ele>950.40002441406</ele>
        <time>2026-05-11T09:37:54.000Z</time>
      </trkpt>
      <trkpt lat="45.31496" lon="4.50414">
        <ele>950.40002441406</ele>
        <time>2026-05-11T09:37:55.000Z</time>
      </trkpt>
      <trkpt lat="45.31497" lon="4.50412">
        <ele>950.20001220703</ele>
        <time>2026-05-11T09:37:56.000Z</time>
      </trkpt>
      <trkpt lat="45.31498" lon="4.5041">
        <ele>950.20001220703</ele>
        <time>2026-05-11T09:37:57.000Z</time>
      </trkpt>
      <trkpt lat="45.31499" lon="4.50407">
        <ele>950</ele>
        <time>2026-05-11T09:37:58.000Z</time>
      </trkpt>
      <trkpt lat="45.31501" lon="4.50406">
        <ele>950</ele>
        <time>2026-05-11T09:37:59.000Z</time>
      </trkpt>
      <trkpt lat="45.31502" lon="4.50404">
        <ele>949.79998779297</ele>
        <time>2026-05-11T09:38:00.000Z</time>
      </trkpt>
      <trkpt lat="45.31503" lon="4.50402">
        <ele>949.79998779297</ele>
        <time>2026-05-11T09:38:01.000Z</time>
      </trkpt>
      <trkpt lat="45.31505" lon="4.504">
        <ele>949.79998779297</ele>
        <time>2026-05-11T09:38:02.000Z</time>
      </trkpt>
      <trkpt lat="45.31506" lon="4.50399">
        <ele>950</ele>
        <time>2026-05-11T09:38:03.000Z</time>
      </trkpt>
      <trkpt lat="45.31507" lon="4.50397">
        <ele>950</ele>
        <time>2026-05-11T09:38:04.000Z</time>
      </trkpt>
      <trkpt lat="45.31508" lon="4.50396">
        <ele>950</ele>
        <time>2026-05-11T09:38:05.000Z</time>
      </trkpt>
      <trkpt lat="45.31509" lon="4.50396">
        <ele>950.20001220703</ele>
        <time>2026-05-11T09:38:06.000Z</time>
      </trkpt>
      <trkpt lat="45.3151" lon="4.50395">
        <ele>950.40002441406</ele>
        <time>2026-05-11T09:38:07.000Z</time>
      </trkpt>
      <trkpt lat="45.31511" lon="4.50393">
        <ele>950.40002441406</ele>
        <time>2026-05-11T09:38:08.000Z</time>
      </trkpt>
      <trkpt lat="45.31513" lon="4.50393">
        <ele>950.59997558594</ele>
        <time>2026-05-11T09:38:09.000Z</time>
      </trkpt>
      <trkpt lat="45.31514" lon="4.50392">
        <ele>950.79998779297</ele>
        <time>2026-05-11T09:38:10.000Z</time>
      </trkpt>
      <trkpt lat="45.31515" lon="4.50392">
        <ele>951</ele>
        <time>2026-05-11T09:38:11.000Z</time>
      </trkpt>
      <trkpt lat="45.31516" lon="4.50391">
        <ele>951.20001220703</ele>
        <time>2026-05-11T09:38:12.000Z</time>
      </trkpt>
      <trkpt lat="45.31517" lon="4.5039">
        <ele>951.40002441406</ele>
        <time>2026-05-11T09:38:13.000Z</time>
      </trkpt>
      <trkpt lat="45.31518" lon="4.5039">
        <ele>951.59997558594</ele>
        <time>2026-05-11T09:38:14.000Z</time>
      </trkpt>
      <trkpt lat="45.31519" lon="4.50389">
        <ele>951.79998779297</ele>
        <time>2026-05-11T09:38:15.000Z</time>
      </trkpt>
      <trkpt lat="45.3152" lon="4.50389">
        <ele>951.79998779297</ele>
        <time>2026-05-11T09:38:16.000Z</time>
      </trkpt>
      <trkpt lat="45.3152" lon="4.50388">
        <ele>952.20001220703</ele>
        <time>2026-05-11T09:38:17.000Z</time>
      </trkpt>
      <trkpt lat="45.31521" lon="4.50387">
        <ele>952.20001220703</ele>
        <time>2026-05-11T09:38:18.000Z</time>
      </trkpt>
      <trkpt lat="45.31523" lon="4.50386">
        <ele>952.40002441406</ele>
        <time>2026-05-11T09:38:19.000Z</time>
      </trkpt>
      <trkpt lat="45.31525" lon="4.50385">
        <ele>952.59997558594</ele>
        <time>2026-05-11T09:38:20.000Z</time>
      </trkpt>
      <trkpt lat="45.31526" lon="4.50384">
        <ele>953</ele>
        <time>2026-05-11T09:38:21.000Z</time>
      </trkpt>
      <trkpt lat="45.31528" lon="4.50383">
        <ele>953.20001220703</ele>
        <time>2026-05-11T09:38:22.000Z</time>
      </trkpt>
      <trkpt lat="45.31528" lon="4.50382">
        <ele>953.40002441406</ele>
        <time>2026-05-11T09:38:23.000Z</time>
      </trkpt>
      <trkpt lat="45.3153" lon="4.50382">
        <ele>953.59997558594</ele>
        <time>2026-05-11T09:38:24.000Z</time>
      </trkpt>
      <trkpt lat="45.31531" lon="4.50381">
        <ele>954</ele>
        <time>2026-05-11T09:38:25.000Z</time>
      </trkpt>
      <trkpt lat="45.31533" lon="4.5038">
        <ele>954.20001220703</ele>
        <time>2026-05-11T09:38:26.000Z</time>
      </trkpt>
      <trkpt lat="45.31534" lon="4.50379">
        <ele>954.40002441406</ele>
        <time>2026-05-11T09:38:27.000Z</time>
      </trkpt>
      <trkpt lat="45.31535" lon="4.50378">
        <ele>954.79998779297</ele>
        <time>2026-05-11T09:38:28.000Z</time>
      </trkpt>
      <trkpt lat="45.31537" lon="4.50378">
        <ele>955</ele>
        <time>2026-05-11T09:38:29.000Z</time>
      </trkpt>
      <trkpt lat="45.31538" lon="4.50378">
        <ele>955.20001220703</ele>
        <time>2026-05-11T09:38:30.000Z</time>
      </trkpt>
      <trkpt lat="45.31539" lon="4.50378">
        <ele>955.59997558594</ele>
        <time>2026-05-11T09:38:31.000Z</time>
      </trkpt>
      <trkpt lat="45.3154" lon="4.50378">
        <ele>955.79998779297</ele>
        <time>2026-05-11T09:38:32.000Z</time>
      </trkpt>
      <trkpt lat="45.31541" lon="4.50378">
        <ele>956</ele>
        <time>2026-05-11T09:38:33.000Z</time>
      </trkpt>
      <trkpt lat="45.31542" lon="4.50377">
        <ele>956.20001220703</ele>
        <time>2026-05-11T09:38:34.000Z</time>
      </trkpt>
      <trkpt lat="45.31543" lon="4.50377">
        <ele>956.40002441406</ele>
        <time>2026-05-11T09:38:35.000Z</time>
      </trkpt>
      <trkpt lat="45.31543" lon="4.50376">
        <ele>956.59997558594</ele>
        <time>2026-05-11T09:38:36.000Z</time>
      </trkpt>
      <trkpt lat="45.31544" lon="4.50377">
        <ele>956.79998779297</ele>
        <time>2026-05-11T09:38:37.000Z</time>
      </trkpt>
      <trkpt lat="45.31545" lon="4.50376">
        <ele>957</ele>
        <time>2026-05-11T09:38:38.000Z</time>
      </trkpt>
      <trkpt lat="45.31546" lon="4.50376">
        <ele>957.20001220703</ele>
        <time>2026-05-11T09:38:39.000Z</time>
      </trkpt>
      <trkpt lat="45.31547" lon="4.50376">
        <ele>957.40002441406</ele>
        <time>2026-05-11T09:38:40.000Z</time>
      </trkpt>
      <trkpt lat="45.31548" lon="4.50375">
        <ele>957.59997558594</ele>
        <time>2026-05-11T09:38:41.000Z</time>
      </trkpt>
      <trkpt lat="45.3155" lon="4.50375">
        <ele>957.79998779297</ele>
        <time>2026-05-11T09:38:42.000Z</time>
      </trkpt>
      <trkpt lat="45.31551" lon="4.50374">
        <ele>958</ele>
        <time>2026-05-11T09:38:43.000Z</time>
      </trkpt>
      <trkpt lat="45.31552" lon="4.50374">
        <ele>958.20001220703</ele>
        <time>2026-05-11T09:38:44.000Z</time>
      </trkpt>
      <trkpt lat="45.31553" lon="4.50373">
        <ele>958.40002441406</ele>
        <time>2026-05-11T09:38:45.000Z</time>
      </trkpt>
      <trkpt lat="45.31553" lon="4.50372">
        <ele>958.79998779297</ele>
        <time>2026-05-11T09:38:46.000Z</time>
      </trkpt>
      <trkpt lat="45.31554" lon="4.50371">
        <ele>959</ele>
        <time>2026-05-11T09:38:47.000Z</time>
      </trkpt>
      <trkpt lat="45.31555" lon="4.50372">
        <ele>959.20001220703</ele>
        <time>2026-05-11T09:38:48.000Z</time>
      </trkpt>
      <trkpt lat="45.31555" lon="4.50372">
        <ele>959.40002441406</ele>
        <time>2026-05-11T09:38:49.000Z</time>
      </trkpt>
      <trkpt lat="45.31585" lon="4.50358">
        <ele>965.40002441406</ele>
        <time>2026-05-11T09:40:01.000Z</time>
      </trkpt>
      <trkpt lat="45.31586" lon="4.50357">
        <ele>965.40002441406</ele>
        <time>2026-05-11T09:40:02.000Z</time>
      </trkpt>
      <trkpt lat="45.31587" lon="4.50356">
        <ele>965.59997558594</ele>
        <time>2026-05-11T09:40:03.000Z</time>
      </trkpt>
      <trkpt lat="45.31589" lon="4.50355">
        <ele>965.59997558594</ele>
        <time>2026-05-11T09:40:04.000Z</time>
      </trkpt>
      <trkpt lat="45.31589" lon="4.50354">
        <ele>965.79998779297</ele>
        <time>2026-05-11T09:40:05.000Z</time>
      </trkpt>
      <trkpt lat="45.31591" lon="4.50352">
        <ele>966</ele>
        <time>2026-05-11T09:40:06.000Z</time>
      </trkpt>
      <trkpt lat="45.31592" lon="4.50351">
        <ele>966.20001220703</ele>
        <time>2026-05-11T09:40:07.000Z</time>
      </trkpt>
      <trkpt lat="45.31593" lon="4.5035">
        <ele>966.40002441406</ele>
        <time>2026-05-11T09:40:08.000Z</time>
      </trkpt>
      <trkpt lat="45.31594" lon="4.50348">
        <ele>966.59997558594</ele>
        <time>2026-05-11T09:40:09.000Z</time>
      </trkpt>
      <trkpt lat="45.31595" lon="4.50347">
        <ele>966.79998779297</ele>
        <time>2026-05-11T09:40:10.000Z</time>
      </trkpt>
      <trkpt lat="45.31596" lon="4.50345">
        <ele>966.79998779297</ele>
        <time>2026-05-11T09:40:11.000Z</time>
      </trkpt>
      <trkpt lat="45.31597" lon="4.50342">
        <ele>967</ele>
        <time>2026-05-11T09:40:12.000Z</time>
      </trkpt>
      <trkpt lat="45.31598" lon="4.5034">
        <ele>967</ele>
        <time>2026-05-11T09:40:13.000Z</time>
      </trkpt>
      <trkpt lat="45.31599" lon="4.50338">
        <ele>967</ele>
        <time>2026-05-11T09:40:14.000Z</time>
      </trkpt>
      <trkpt lat="45.31601" lon="4.50336">
        <ele>967</ele>
        <time>2026-05-11T09:40:15.000Z</time>
      </trkpt>
      <trkpt lat="45.31603" lon="4.50335">
        <ele>967.20001220703</ele>
        <time>2026-05-11T09:40:16.000Z</time>
      </trkpt>
      <trkpt lat="45.31604" lon="4.50333">
        <ele>967.20001220703</ele>
        <time>2026-05-11T09:40:17.000Z</time>
      </trkpt>
      <trkpt lat="45.31606" lon="4.50332">
        <ele>967.20001220703</ele>
        <time>2026-05-11T09:40:18.000Z</time>
      </trkpt>
      <trkpt lat="45.31608" lon="4.50332">
        <ele>967.40002441406</ele>
        <time>2026-05-11T09:40:19.000Z</time>
      </trkpt>
      <trkpt lat="45.31609" lon="4.50331">
        <ele>967.40002441406</ele>
        <time>2026-05-11T09:40:20.000Z</time>
      </trkpt>
      <trkpt lat="45.3161" lon="4.50331">
        <ele>967.59997558594</ele>
        <time>2026-05-11T09:40:21.000Z</time>
      </trkpt>
      <trkpt lat="45.31612" lon="4.50331">
        <ele>967.59997558594</ele>
        <time>2026-05-11T09:40:22.000Z</time>
      </trkpt>
      <trkpt lat="45.31614" lon="4.5033">
        <ele>967.79998779297</ele>
        <time>2026-05-11T09:40:23.000Z</time>
      </trkpt>
      <trkpt lat="45.31616" lon="4.50331">
        <ele>968</ele>
        <time>2026-05-11T09:40:24.000Z</time>
      </trkpt>
      <trkpt lat="45.31617" lon="4.50331">
        <ele>968.20001220703</ele>
        <time>2026-05-11T09:40:25.000Z</time>
      </trkpt>
      <trkpt lat="45.31619" lon="4.50331">
        <ele>968.40002441406</ele>
        <time>2026-05-11T09:40:26.000Z</time>
      </trkpt>
      <trkpt lat="45.31621" lon="4.50332">
        <ele>968.79998779297</ele>
        <time>2026-05-11T09:40:27.000Z</time>
      </trkpt>
      <trkpt lat="45.31622" lon="4.50332">
        <ele>969</ele>
        <time>2026-05-11T09:40:28.000Z</time>
      </trkpt>
      <trkpt lat="45.31624" lon="4.50332">
        <ele>969.40002441406</ele>
        <time>2026-05-11T09:40:29.000Z</time>
      </trkpt>
      <trkpt lat="45.31625" lon="4.50332">
        <ele>969.79998779297</ele>
        <time>2026-05-11T09:40:30.000Z</time>
      </trkpt>
      <trkpt lat="45.31627" lon="4.50333">
        <ele>970</ele>
        <time>2026-05-11T09:40:31.000Z</time>
      </trkpt>
      <trkpt lat="45.31628" lon="4.50333">
        <ele>970.40002441406</ele>
        <time>2026-05-11T09:40:32.000Z</time>
      </trkpt>
      <trkpt lat="45.3163" lon="4.50333">
        <ele>970.59997558594</ele>
        <time>2026-05-11T09:40:33.000Z</time>
      </trkpt>
      <trkpt lat="45.31631" lon="4.50333">
        <ele>970.79998779297</ele>
        <time>2026-05-11T09:40:34.000Z</time>
      </trkpt>
      <trkpt lat="45.31633" lon="4.50334">
        <ele>971</ele>
        <time>2026-05-11T09:40:35.000Z</time>
      </trkpt>
      <trkpt lat="45.31635" lon="4.50334">
        <ele>971.20001220703</ele>
        <time>2026-05-11T09:40:36.000Z</time>
      </trkpt>
      <trkpt lat="45.31636" lon="4.50334">
        <ele>971.40002441406</ele>
        <time>2026-05-11T09:40:37.000Z</time>
      </trkpt>
      <trkpt lat="45.31637" lon="4.50334">
        <ele>971.59997558594</ele>
        <time>2026-05-11T09:40:38.000Z</time>
      </trkpt>
      <trkpt lat="45.31639" lon="4.50333">
        <ele>971.79998779297</ele>
        <time>2026-05-11T09:40:39.000Z</time>
      </trkpt>
      <trkpt lat="45.3164" lon="4.50333">
        <ele>972</ele>
        <time>2026-05-11T09:40:40.000Z</time>
      </trkpt>
      <trkpt lat="45.31642" lon="4.50333">
        <ele>972.40002441406</ele>
        <time>2026-05-11T09:40:41.000Z</time>
      </trkpt>
      <trkpt lat="45.31643" lon="4.50333">
        <ele>972.59997558594</ele>
        <time>2026-05-11T09:40:42.000Z</time>
      </trkpt>
      <trkpt lat="45.31644" lon="4.50333">
        <ele>972.79998779297</ele>
        <time>2026-05-11T09:40:43.000Z</time>
      </trkpt>
      <trkpt lat="45.31645" lon="4.50332">
        <ele>973.20001220703</ele>
        <time>2026-05-11T09:40:44.000Z</time>
      </trkpt>
      <trkpt lat="45.31647" lon="4.50332">
        <ele>973.59997558594</ele>
        <time>2026-05-11T09:40:45.000Z</time>
      </trkpt>
      <trkpt lat="45.31648" lon="4.50332">
        <ele>973.79998779297</ele>
        <time>2026-05-11T09:40:46.000Z</time>
      </trkpt>
      <trkpt lat="45.31649" lon="4.50332">
        <ele>974.20001220703</ele>
        <time>2026-05-11T09:40:47.000Z</time>
      </trkpt>
      <trkpt lat="45.3165" lon="4.50332">
        <ele>974.59997558594</ele>
        <time>2026-05-11T09:40:48.000Z</time>
      </trkpt>
      <trkpt lat="45.31651" lon="4.50332">
        <ele>974.79998779297</ele>
        <time>2026-05-11T09:40:49.000Z</time>
      </trkpt>
      <trkpt lat="45.31652" lon="4.50332">
        <ele>975.20001220703</ele>
        <time>2026-05-11T09:40:50.000Z</time>
      </trkpt>
      <trkpt lat="45.31653" lon="4.50333">
        <ele>975.40002441406</ele>
        <time>2026-05-11T09:40:51.000Z</time>
      </trkpt>
      <trkpt lat="45.31654" lon="4.50333">
        <ele>975.59997558594</ele>
        <time>2026-05-11T09:40:52.000Z</time>
      </trkpt>
      <trkpt lat="45.31656" lon="4.50334">
        <ele>976</ele>
        <time>2026-05-11T09:40:53.000Z</time>
      </trkpt>
      <trkpt lat="45.31657" lon="4.50334">
        <ele>976.40002441406</ele>
        <time>2026-05-11T09:40:54.000Z</time>
      </trkpt>
      <trkpt lat="45.31658" lon="4.50334">
        <ele>976.59997558594</ele>
        <time>2026-05-11T09:40:55.000Z</time>
      </trkpt>
      <trkpt lat="45.31659" lon="4.50334">
        <ele>976.79998779297</ele>
        <time>2026-05-11T09:40:56.000Z</time>
      </trkpt>
      <trkpt lat="45.3166" lon="4.50334">
        <ele>977</ele>
        <time>2026-05-11T09:40:57.000Z</time>
      </trkpt>
      <trkpt lat="45.31661" lon="4.50334">
        <ele>977.20001220703</ele>
        <time>2026-05-11T09:40:58.000Z</time>
      </trkpt>
      <trkpt lat="45.31662" lon="4.50335">
        <ele>977.40002441406</ele>
        <time>2026-05-11T09:40:59.000Z</time>
      </trkpt>
      <trkpt lat="45.31663" lon="4.50335">
        <ele>977.40002441406</ele>
        <time>2026-05-11T09:41:00.000Z</time>
      </trkpt>
      <trkpt lat="45.31664" lon="4.50336">
        <ele>977.59997558594</ele>
        <time>2026-05-11T09:41:01.000Z</time>
      </trkpt>
      <trkpt lat="45.31665" lon="4.50337">
        <ele>977.59997558594</ele>
        <time>2026-05-11T09:41:02.000Z</time>
      </trkpt>
      <trkpt lat="45.31666" lon="4.50338">
        <ele>977.79998779297</ele>
        <time>2026-05-11T09:41:03.000Z</time>
      </trkpt>
      <trkpt lat="45.31667" lon="4.50338">
        <ele>978</ele>
        <time>2026-05-11T09:41:04.000Z</time>
      </trkpt>
      <trkpt lat="45.31668" lon="4.50339">
        <ele>978.40002441406</ele>
        <time>2026-05-11T09:41:05.000Z</time>
      </trkpt>
      <trkpt lat="45.31668" lon="4.5034">
        <ele>978.59997558594</ele>
        <time>2026-05-11T09:41:06.000Z</time>
      </trkpt>
      <trkpt lat="45.31669" lon="4.50341">
        <ele>979</ele>
        <time>2026-05-11T09:41:07.000Z</time>
      </trkpt>
      <trkpt lat="45.31671" lon="4.50342">
        <ele>979.40002441406</ele>
        <time>2026-05-11T09:41:08.000Z</time>
      </trkpt>
      <trkpt lat="45.31672" lon="4.50344">
        <ele>979.59997558594</ele>
        <time>2026-05-11T09:41:09.000Z</time>
      </trkpt>
      <trkpt lat="45.31672" lon="4.50345">
        <ele>980</ele>
        <time>2026-05-11T09:41:10.000Z</time>
      </trkpt>
      <trkpt lat="45.31673" lon="4.50346">
        <ele>980.20001220703</ele>
        <time>2026-05-11T09:41:11.000Z</time>
      </trkpt>
      <trkpt lat="45.31674" lon="4.50346">
        <ele>980.59997558594</ele>
        <time>2026-05-11T09:41:12.000Z</time>
      </trkpt>
      <trkpt lat="45.31674" lon="4.50346">
        <ele>980.79998779297</ele>
        <time>2026-05-11T09:41:13.000Z</time>
      </trkpt>
      <trkpt lat="45.31675" lon="4.50347">
        <ele>981</ele>
        <time>2026-05-11T09:41:14.000Z</time>
      </trkpt>
      <trkpt lat="45.31675" lon="4.50348">
        <ele>981.40002441406</ele>
        <time>2026-05-11T09:41:15.000Z</time>
      </trkpt>
      <trkpt lat="45.31676" lon="4.5035">
        <ele>981.59997558594</ele>
        <time>2026-05-11T09:41:16.000Z</time>
      </trkpt>
      <trkpt lat="45.31676" lon="4.50351">
        <ele>982</ele>
        <time>2026-05-11T09:41:17.000Z</time>
      </trkpt>
      <trkpt lat="45.31677" lon="4.50352">
        <ele>982.20001220703</ele>
        <time>2026-05-11T09:41:18.000Z</time>
      </trkpt>
      <trkpt lat="45.31677" lon="4.50354">
        <ele>982.40002441406</ele>
        <time>2026-05-11T09:41:19.000Z</time>
      </trkpt>
      <trkpt lat="45.31677" lon="4.50355">
        <ele>982.59997558594</ele>
        <time>2026-05-11T09:41:20.000Z</time>
      </trkpt>
      <trkpt lat="45.31678" lon="4.50356">
        <ele>983</ele>
        <time>2026-05-11T09:41:21.000Z</time>
      </trkpt>
      <trkpt lat="45.31678" lon="4.50358">
        <ele>983.20001220703</ele>
        <time>2026-05-11T09:41:22.000Z</time>
      </trkpt>
      <trkpt lat="45.31679" lon="4.5036">
        <ele>983.40002441406</ele>
        <time>2026-05-11T09:41:23.000Z</time>
      </trkpt>
      <trkpt lat="45.31679" lon="4.50362">
        <ele>983.59997558594</ele>
        <time>2026-05-11T09:41:24.000Z</time>
      </trkpt>
      <trkpt lat="45.3168" lon="4.50364">
        <ele>984</ele>
        <time>2026-05-11T09:41:25.000Z</time>
      </trkpt>
      <trkpt lat="45.31681" lon="4.50366">
        <ele>984.20001220703</ele>
        <time>2026-05-11T09:41:26.000Z</time>
      </trkpt>
      <trkpt lat="45.31682" lon="4.50367">
        <ele>984.40002441406</ele>
        <time>2026-05-11T09:41:27.000Z</time>
      </trkpt>
      <trkpt lat="45.31682" lon="4.50367">
        <ele>984.79998779297</ele>
        <time>2026-05-11T09:41:28.000Z</time>
      </trkpt>
      <trkpt lat="45.31682" lon="4.50368">
        <ele>985</ele>
        <time>2026-05-11T09:41:29.000Z</time>
      </trkpt>
      <trkpt lat="45.31682" lon="4.50369">
        <ele>985.20001220703</ele>
        <time>2026-05-11T09:41:30.000Z</time>
      </trkpt>
      <trkpt lat="45.31682" lon="4.5037">
        <ele>985.40002441406</ele>
        <time>2026-05-11T09:41:31.000Z</time>
      </trkpt>
      <trkpt lat="45.31682" lon="4.50371">
        <ele>985.59997558594</ele>
        <time>2026-05-11T09:41:32.000Z</time>
      </trkpt>
      <trkpt lat="45.31682" lon="4.50372">
        <ele>986</ele>
        <time>2026-05-11T09:41:33.000Z</time>
      </trkpt>
      <trkpt lat="45.31683" lon="4.50374">
        <ele>986.20001220703</ele>
        <time>2026-05-11T09:41:34.000Z</time>
      </trkpt>
      <trkpt lat="45.31683" lon="4.50375">
        <ele>986.40002441406</ele>
        <time>2026-05-11T09:41:35.000Z</time>
      </trkpt>
      <trkpt lat="45.31684" lon="4.50377">
        <ele>986.79998779297</ele>
        <time>2026-05-11T09:41:36.000Z</time>
      </trkpt>
      <trkpt lat="45.31684" lon="4.50378">
        <ele>987</ele>
        <time>2026-05-11T09:41:37.000Z</time>
      </trkpt>
      <trkpt lat="45.31684" lon="4.5038">
        <ele>987.20001220703</ele>
        <time>2026-05-11T09:41:38.000Z</time>
      </trkpt>
      <trkpt lat="45.31684" lon="4.50382">
        <ele>987.59997558594</ele>
        <time>2026-05-11T09:41:39.000Z</time>
      </trkpt>
      <trkpt lat="45.31684" lon="4.50383">
        <ele>987.79998779297</ele>
        <time>2026-05-11T09:41:40.000Z</time>
      </trkpt>
      <trkpt lat="45.31684" lon="4.50384">
        <ele>988</ele>
        <time>2026-05-11T09:41:41.000Z</time>
      </trkpt>
      <trkpt lat="45.31684" lon="4.50385">
        <ele>988</ele>
        <time>2026-05-11T09:41:42.000Z</time>
      </trkpt>
      <trkpt lat="45.31685" lon="4.50387">
        <ele>988.20001220703</ele>
        <time>2026-05-11T09:41:43.000Z</time>
      </trkpt>
      <trkpt lat="45.31685" lon="4.50389">
        <ele>988.40002441406</ele>
        <time>2026-05-11T09:41:44.000Z</time>
      </trkpt>
      <trkpt lat="45.31685" lon="4.5039">
        <ele>988.59997558594</ele>
        <time>2026-05-11T09:41:45.000Z</time>
      </trkpt>
      <trkpt lat="45.31685" lon="4.50392">
        <ele>988.79998779297</ele>
        <time>2026-05-11T09:41:46.000Z</time>
      </trkpt>
      <trkpt lat="45.31686" lon="4.50393">
        <ele>988.79998779297</ele>
        <time>2026-05-11T09:41:47.000Z</time>
      </trkpt>
      <trkpt lat="45.31686" lon="4.50395">
        <ele>989</ele>
        <time>2026-05-11T09:41:48.000Z</time>
      </trkpt>
      <trkpt lat="45.31686" lon="4.50396">
        <ele>989.20001220703</ele>
        <time>2026-05-11T09:41:49.000Z</time>
      </trkpt>
      <trkpt lat="45.31686" lon="4.50398">
        <ele>989.40002441406</ele>
        <time>2026-05-11T09:41:50.000Z</time>
      </trkpt>
      <trkpt lat="45.31686" lon="4.50399">
        <ele>989.59997558594</ele>
        <time>2026-05-11T09:41:51.000Z</time>
      </trkpt>
      <trkpt lat="45.31685" lon="4.50401">
        <ele>990</ele>
        <time>2026-05-11T09:41:52.000Z</time>
      </trkpt>
      <trkpt lat="45.31686" lon="4.50402">
        <ele>990.20001220703</ele>
        <time>2026-05-11T09:41:53.000Z</time>
      </trkpt>
      <trkpt lat="45.31685" lon="4.50404">
        <ele>990.40002441406</ele>
        <time>2026-05-11T09:41:54.000Z</time>
      </trkpt>
      <trkpt lat="45.31685" lon="4.50406">
        <ele>990.59997558594</ele>
        <time>2026-05-11T09:41:55.000Z</time>
      </trkpt>
      <trkpt lat="45.31685" lon="4.50408">
        <ele>990.79998779297</ele>
        <time>2026-05-11T09:41:56.000Z</time>
      </trkpt>
      <trkpt lat="45.31685" lon="4.50409">
        <ele>991</ele>
        <time>2026-05-11T09:41:57.000Z</time>
      </trkpt>
      <trkpt lat="45.31685" lon="4.5041">
        <ele>991.20001220703</ele>
        <time>2026-05-11T09:41:58.000Z</time>
      </trkpt>
      <trkpt lat="45.31685" lon="4.50413">
        <ele>991.40002441406</ele>
        <time>2026-05-11T09:41:59.000Z</time>
      </trkpt>
      <trkpt lat="45.31685" lon="4.50414">
        <ele>991.59997558594</ele>
        <time>2026-05-11T09:42:00.000Z</time>
      </trkpt>
      <trkpt lat="45.31684" lon="4.50415">
        <ele>991.79998779297</ele>
        <time>2026-05-11T09:42:01.000Z</time>
      </trkpt>
      <trkpt lat="45.31684" lon="4.50417">
        <ele>992</ele>
        <time>2026-05-11T09:42:02.000Z</time>
      </trkpt>
      <trkpt lat="45.31684" lon="4.50417">
        <ele>992.20001220703</ele>
        <time>2026-05-11T09:42:03.000Z</time>
      </trkpt>
      <trkpt lat="45.31684" lon="4.50418">
        <ele>992.40002441406</ele>
        <time>2026-05-11T09:42:04.000Z</time>
      </trkpt>
      <trkpt lat="45.31683" lon="4.5042">
        <ele>992.59997558594</ele>
        <time>2026-05-11T09:42:05.000Z</time>
      </trkpt>
      <trkpt lat="45.31683" lon="4.50421">
        <ele>992.79998779297</ele>
        <time>2026-05-11T09:42:06.000Z</time>
      </trkpt>
      <trkpt lat="45.31683" lon="4.50423">
        <ele>993</ele>
        <time>2026-05-11T09:42:07.000Z</time>
      </trkpt>
      <trkpt lat="45.31683" lon="4.50425">
        <ele>993.40002441406</ele>
        <time>2026-05-11T09:42:08.000Z</time>
      </trkpt>
      <trkpt lat="45.31684" lon="4.50426">
        <ele>993.59997558594</ele>
        <time>2026-05-11T09:42:09.000Z</time>
      </trkpt>
      <trkpt lat="45.31684" lon="4.50427">
        <ele>993.79998779297</ele>
        <time>2026-05-11T09:42:10.000Z</time>
      </trkpt>
      <trkpt lat="45.31683" lon="4.50429">
        <ele>993.79998779297</ele>
        <time>2026-05-11T09:42:11.000Z</time>
      </trkpt>
      <trkpt lat="45.31683" lon="4.5043">
        <ele>994</ele>
        <time>2026-05-11T09:42:12.000Z</time>
      </trkpt>
      <trkpt lat="45.31683" lon="4.5043">
        <ele>994.20001220703</ele>
        <time>2026-05-11T09:42:13.000Z</time>
      </trkpt>
      <trkpt lat="45.31683" lon="4.50432">
        <ele>994.40002441406</ele>
        <time>2026-05-11T09:42:14.000Z</time>
      </trkpt>
      <trkpt lat="45.31683" lon="4.50433">
        <ele>994.59997558594</ele>
        <time>2026-05-11T09:42:15.000Z</time>
      </trkpt>
      <trkpt lat="45.31684" lon="4.50435">
        <ele>994.79998779297</ele>
        <time>2026-05-11T09:42:16.000Z</time>
      </trkpt>
      <trkpt lat="45.31684" lon="4.50437">
        <ele>995</ele>
        <time>2026-05-11T09:42:17.000Z</time>
      </trkpt>
      <trkpt lat="45.31684" lon="4.50439">
        <ele>995.20001220703</ele>
        <time>2026-05-11T09:42:18.000Z</time>
      </trkpt>
      <trkpt lat="45.31684" lon="4.5044">
        <ele>995.40002441406</ele>
        <time>2026-05-11T09:42:19.000Z</time>
      </trkpt>
      <trkpt lat="45.31684" lon="4.50442">
        <ele>995.59997558594</ele>
        <time>2026-05-11T09:42:20.000Z</time>
      </trkpt>
      <trkpt lat="45.31684" lon="4.50443">
        <ele>995.79998779297</ele>
        <time>2026-05-11T09:42:21.000Z</time>
      </trkpt>
      <trkpt lat="45.31684" lon="4.50443">
        <ele>996</ele>
        <time>2026-05-11T09:42:22.000Z</time>
      </trkpt>
      <trkpt lat="45.31685" lon="4.50445">
        <ele>996.20001220703</ele>
        <time>2026-05-11T09:42:23.000Z</time>
      </trkpt>
      <trkpt lat="45.31685" lon="4.50447">
        <ele>996.40002441406</ele>
        <time>2026-05-11T09:42:24.000Z</time>
      </trkpt>
      <trkpt lat="45.31685" lon="4.50449">
        <ele>996.59997558594</ele>
        <time>2026-05-11T09:42:25.000Z</time>
      </trkpt>
      <trkpt lat="45.31685" lon="4.50451">
        <ele>996.79998779297</ele>
        <time>2026-05-11T09:42:26.000Z</time>
      </trkpt>
      <trkpt lat="45.31686" lon="4.50452">
        <ele>997</ele>
        <time>2026-05-11T09:42:27.000Z</time>
      </trkpt>
      <trkpt lat="45.31686" lon="4.50453">
        <ele>997.20001220703</ele>
        <time>2026-05-11T09:42:28.000Z</time>
      </trkpt>
      <trkpt lat="45.31686" lon="4.50454">
        <ele>997.40002441406</ele>
        <time>2026-05-11T09:42:29.000Z</time>
      </trkpt>
      <trkpt lat="45.31685" lon="4.50456">
        <ele>997.59997558594</ele>
        <time>2026-05-11T09:42:30.000Z</time>
      </trkpt>
      <trkpt lat="45.31685" lon="4.50457">
        <ele>997.79998779297</ele>
        <time>2026-05-11T09:42:31.000Z</time>
      </trkpt>
      <trkpt lat="45.31685" lon="4.50459">
        <ele>997.79998779297</ele>
        <time>2026-05-11T09:42:32.000Z</time>
      </trkpt>
      <trkpt lat="45.31685" lon="4.5046">
        <ele>998</ele>
        <time>2026-05-11T09:42:33.000Z</time>
      </trkpt>
      <trkpt lat="45.31685" lon="4.50462">
        <ele>998.20001220703</ele>
        <time>2026-05-11T09:42:34.000Z</time>
      </trkpt>
      <trkpt lat="45.31685" lon="4.50463">
        <ele>998.40002441406</ele>
        <time>2026-05-11T09:42:35.000Z</time>
      </trkpt>
      <trkpt lat="45.31685" lon="4.50465">
        <ele>998.59997558594</ele>
        <time>2026-05-11T09:42:36.000Z</time>
      </trkpt>
      <trkpt lat="45.31685" lon="4.50466">
        <ele>998.79998779297</ele>
        <time>2026-05-11T09:42:37.000Z</time>
      </trkpt>
      <trkpt lat="45.31685" lon="4.50467">
        <ele>998.79998779297</ele>
        <time>2026-05-11T09:42:38.000Z</time>
      </trkpt>
      <trkpt lat="45.31686" lon="4.50469">
        <ele>999</ele>
        <time>2026-05-11T09:42:39.000Z</time>
      </trkpt>
      <trkpt lat="45.31686" lon="4.5047">
        <ele>999.20001220703</ele>
        <time>2026-05-11T09:42:40.000Z</time>
      </trkpt>
      <trkpt lat="45.31686" lon="4.50471">
        <ele>999.40002441406</ele>
        <time>2026-05-11T09:42:41.000Z</time>
      </trkpt>
      <trkpt lat="45.31687" lon="4.50473">
        <ele>999.79998779297</ele>
        <time>2026-05-11T09:42:42.000Z</time>
      </trkpt>
      <trkpt lat="45.31687" lon="4.50475">
        <ele>1000</ele>
        <time>2026-05-11T09:42:43.000Z</time>
      </trkpt>
      <trkpt lat="45.31687" lon="4.50477">
        <ele>1000.200012207</ele>
        <time>2026-05-11T09:42:44.000Z</time>
      </trkpt>
      <trkpt lat="45.31688" lon="4.50479">
        <ele>1000.4000244141</ele>
        <time>2026-05-11T09:42:45.000Z</time>
      </trkpt>
      <trkpt lat="45.31689" lon="4.5048">
        <ele>1000.5999755859</ele>
        <time>2026-05-11T09:42:46.000Z</time>
      </trkpt>
      <trkpt lat="45.31689" lon="4.50482">
        <ele>1000.799987793</ele>
        <time>2026-05-11T09:42:47.000Z</time>
      </trkpt>
      <trkpt lat="45.31689" lon="4.50483">
        <ele>1001.200012207</ele>
        <time>2026-05-11T09:42:48.000Z</time>
      </trkpt>
      <trkpt lat="45.3169" lon="4.50485">
        <ele>1001.4000244141</ele>
        <time>2026-05-11T09:42:49.000Z</time>
      </trkpt>
      <trkpt lat="45.3169" lon="4.50487">
        <ele>1001.5999755859</ele>
        <time>2026-05-11T09:42:50.000Z</time>
      </trkpt>
      <trkpt lat="45.31691" lon="4.50488">
        <ele>1001.799987793</ele>
        <time>2026-05-11T09:42:51.000Z</time>
      </trkpt>
      <trkpt lat="45.31691" lon="4.5049">
        <ele>1002</ele>
        <time>2026-05-11T09:42:52.000Z</time>
      </trkpt>
      <trkpt lat="45.31692" lon="4.50491">
        <ele>1002</ele>
        <time>2026-05-11T09:42:53.000Z</time>
      </trkpt>
      <trkpt lat="45.31692" lon="4.50493">
        <ele>1002.4000244141</ele>
        <time>2026-05-11T09:42:54.000Z</time>
      </trkpt>
      <trkpt lat="45.31693" lon="4.50494">
        <ele>1002.4000244141</ele>
        <time>2026-05-11T09:42:55.000Z</time>
      </trkpt>
      <trkpt lat="45.31693" lon="4.50496">
        <ele>1002.5999755859</ele>
        <time>2026-05-11T09:42:56.000Z</time>
      </trkpt>
      <trkpt lat="45.31694" lon="4.50498">
        <ele>1002.799987793</ele>
        <time>2026-05-11T09:42:57.000Z</time>
      </trkpt>
      <trkpt lat="45.31695" lon="4.50499">
        <ele>1003</ele>
        <time>2026-05-11T09:42:58.000Z</time>
      </trkpt>
      <trkpt lat="45.31695" lon="4.505">
        <ele>1003</ele>
        <time>2026-05-11T09:42:59.000Z</time>
      </trkpt>
      <trkpt lat="45.31695" lon="4.50501">
        <ele>1003.200012207</ele>
        <time>2026-05-11T09:43:00.000Z</time>
      </trkpt>
      <trkpt lat="45.31696" lon="4.50503">
        <ele>1003.4000244141</ele>
        <time>2026-05-11T09:43:01.000Z</time>
      </trkpt>
      <trkpt lat="45.31697" lon="4.50505">
        <ele>1003.5999755859</ele>
        <time>2026-05-11T09:43:02.000Z</time>
      </trkpt>
      <trkpt lat="45.31697" lon="4.50506">
        <ele>1003.5999755859</ele>
        <time>2026-05-11T09:43:03.000Z</time>
      </trkpt>
      <trkpt lat="45.31697" lon="4.50507">
        <ele>1003.799987793</ele>
        <time>2026-05-11T09:43:04.000Z</time>
      </trkpt>
      <trkpt lat="45.31698" lon="4.50508">
        <ele>1004</ele>
        <time>2026-05-11T09:43:05.000Z</time>
      </trkpt>
      <trkpt lat="45.31698" lon="4.5051">
        <ele>1004.200012207</ele>
        <time>2026-05-11T09:43:06.000Z</time>
      </trkpt>
      <trkpt lat="45.31699" lon="4.50512">
        <ele>1004.200012207</ele>
        <time>2026-05-11T09:43:07.000Z</time>
      </trkpt>
      <trkpt lat="45.317" lon="4.50514">
        <ele>1004.4000244141</ele>
        <time>2026-05-11T09:43:08.000Z</time>
      </trkpt>
      <trkpt lat="45.317" lon="4.50515">
        <ele>1004.799987793</ele>
        <time>2026-05-11T09:43:09.000Z</time>
      </trkpt>
      <trkpt lat="45.317" lon="4.50516">
        <ele>1005</ele>
        <time>2026-05-11T09:43:10.000Z</time>
      </trkpt>
      <trkpt lat="45.31701" lon="4.50518">
        <ele>1005.200012207</ele>
        <time>2026-05-11T09:43:11.000Z</time>
      </trkpt>
      <trkpt lat="45.31702" lon="4.50519">
        <ele>1005.4000244141</ele>
        <time>2026-05-11T09:43:12.000Z</time>
      </trkpt>
      <trkpt lat="45.31702" lon="4.5052">
        <ele>1005.5999755859</ele>
        <time>2026-05-11T09:43:13.000Z</time>
      </trkpt>
      <trkpt lat="45.31703" lon="4.50521">
        <ele>1005.799987793</ele>
        <time>2026-05-11T09:43:14.000Z</time>
      </trkpt>
      <trkpt lat="45.31704" lon="4.50522">
        <ele>1006</ele>
        <time>2026-05-11T09:43:15.000Z</time>
      </trkpt>
      <trkpt lat="45.31705" lon="4.50523">
        <ele>1006.200012207</ele>
        <time>2026-05-11T09:43:16.000Z</time>
      </trkpt>
      <trkpt lat="45.31706" lon="4.50524">
        <ele>1006.4000244141</ele>
        <time>2026-05-11T09:43:17.000Z</time>
      </trkpt>
      <trkpt lat="45.31707" lon="4.50525">
        <ele>1006.5999755859</ele>
        <time>2026-05-11T09:43:18.000Z</time>
      </trkpt>
      <trkpt lat="45.31708" lon="4.50526">
        <ele>1007</ele>
        <time>2026-05-11T09:43:19.000Z</time>
      </trkpt>
      <trkpt lat="45.31709" lon="4.50527">
        <ele>1007.200012207</ele>
        <time>2026-05-11T09:43:20.000Z</time>
      </trkpt>
      <trkpt lat="45.31709" lon="4.50527">
        <ele>1007.4000244141</ele>
        <time>2026-05-11T09:43:21.000Z</time>
      </trkpt>
      <trkpt lat="45.3171" lon="4.50528">
        <ele>1007.4000244141</ele>
        <time>2026-05-11T09:43:22.000Z</time>
      </trkpt>
      <trkpt lat="45.3171" lon="4.50528">
        <ele>1007.5999755859</ele>
        <time>2026-05-11T09:43:23.000Z</time>
      </trkpt>
      <trkpt lat="45.31711" lon="4.50528">
        <ele>1007.799987793</ele>
        <time>2026-05-11T09:43:24.000Z</time>
      </trkpt>
      <trkpt lat="45.31712" lon="4.50529">
        <ele>1008</ele>
        <time>2026-05-11T09:43:25.000Z</time>
      </trkpt>
      <trkpt lat="45.31713" lon="4.5053">
        <ele>1008.200012207</ele>
        <time>2026-05-11T09:43:26.000Z</time>
      </trkpt>
      <trkpt lat="45.31714" lon="4.50531">
        <ele>1008.4000244141</ele>
        <time>2026-05-11T09:43:27.000Z</time>
      </trkpt>
      <trkpt lat="45.31715" lon="4.50532">
        <ele>1008.5999755859</ele>
        <time>2026-05-11T09:43:28.000Z</time>
      </trkpt>
      <trkpt lat="45.31716" lon="4.50533">
        <ele>1008.799987793</ele>
        <time>2026-05-11T09:43:29.000Z</time>
      </trkpt>
      <trkpt lat="45.31717" lon="4.50534">
        <ele>1009</ele>
        <time>2026-05-11T09:43:30.000Z</time>
      </trkpt>
      <trkpt lat="45.31718" lon="4.50535">
        <ele>1009</ele>
        <time>2026-05-11T09:43:31.000Z</time>
      </trkpt>
      <trkpt lat="45.3172" lon="4.50536">
        <ele>1009.4000244141</ele>
        <time>2026-05-11T09:43:32.000Z</time>
      </trkpt>
      <trkpt lat="45.31721" lon="4.50537">
        <ele>1009.5999755859</ele>
        <time>2026-05-11T09:43:33.000Z</time>
      </trkpt>
      <trkpt lat="45.31722" lon="4.50538">
        <ele>1009.799987793</ele>
        <time>2026-05-11T09:43:34.000Z</time>
      </trkpt>
      <trkpt lat="45.31723" lon="4.50538">
        <ele>1010</ele>
        <time>2026-05-11T09:43:35.000Z</time>
      </trkpt>
      <trkpt lat="45.31724" lon="4.50539">
        <ele>1010.200012207</ele>
        <time>2026-05-11T09:43:36.000Z</time>
      </trkpt>
      <trkpt lat="45.31725" lon="4.50539">
        <ele>1010.4000244141</ele>
        <time>2026-05-11T09:43:37.000Z</time>
      </trkpt>
      <trkpt lat="45.31726" lon="4.5054">
        <ele>1010.799987793</ele>
        <time>2026-05-11T09:43:38.000Z</time>
      </trkpt>
      <trkpt lat="45.31727" lon="4.5054">
        <ele>1011</ele>
        <time>2026-05-11T09:43:39.000Z</time>
      </trkpt>
      <trkpt lat="45.31727" lon="4.5054">
        <ele>1011.200012207</ele>
        <time>2026-05-11T09:43:40.000Z</time>
      </trkpt>
      <trkpt lat="45.31728" lon="4.50541">
        <ele>1011.4000244141</ele>
        <time>2026-05-11T09:43:41.000Z</time>
      </trkpt>
      <trkpt lat="45.3173" lon="4.50542">
        <ele>1011.5999755859</ele>
        <time>2026-05-11T09:43:42.000Z</time>
      </trkpt>
      <trkpt lat="45.3173" lon="4.50543">
        <ele>1011.799987793</ele>
        <time>2026-05-11T09:43:43.000Z</time>
      </trkpt>
      <trkpt lat="45.31731" lon="4.50543">
        <ele>1012</ele>
        <time>2026-05-11T09:43:44.000Z</time>
      </trkpt>
      <trkpt lat="45.31732" lon="4.50544">
        <ele>1012.200012207</ele>
        <time>2026-05-11T09:43:45.000Z</time>
      </trkpt>
      <trkpt lat="45.31733" lon="4.50544">
        <ele>1012.4000244141</ele>
        <time>2026-05-11T09:43:46.000Z</time>
      </trkpt>
      <trkpt lat="45.31734" lon="4.50545">
        <ele>1012.5999755859</ele>
        <time>2026-05-11T09:43:47.000Z</time>
      </trkpt>
      <trkpt lat="45.31735" lon="4.50545">
        <ele>1012.5999755859</ele>
        <time>2026-05-11T09:43:48.000Z</time>
      </trkpt>
      <trkpt lat="45.31736" lon="4.50545">
        <ele>1012.5999755859</ele>
        <time>2026-05-11T09:43:49.000Z</time>
      </trkpt>
      <trkpt lat="45.31737" lon="4.50547">
        <ele>1012.5999755859</ele>
        <time>2026-05-11T09:43:50.000Z</time>
      </trkpt>
      <trkpt lat="45.31738" lon="4.50547">
        <ele>1012.5999755859</ele>
        <time>2026-05-11T09:43:51.000Z</time>
      </trkpt>
      <trkpt lat="45.31739" lon="4.50547">
        <ele>1012.799987793</ele>
        <time>2026-05-11T09:43:52.000Z</time>
      </trkpt>
      <trkpt lat="45.3174" lon="4.50547">
        <ele>1013</ele>
        <time>2026-05-11T09:43:53.000Z</time>
      </trkpt>
      <trkpt lat="45.31742" lon="4.50548">
        <ele>1013.200012207</ele>
        <time>2026-05-11T09:43:54.000Z</time>
      </trkpt>
      <trkpt lat="45.31743" lon="4.50548">
        <ele>1013.5999755859</ele>
        <time>2026-05-11T09:43:55.000Z</time>
      </trkpt>
      <trkpt lat="45.31744" lon="4.50548">
        <ele>1014</ele>
        <time>2026-05-11T09:43:56.000Z</time>
      </trkpt>
      <trkpt lat="45.31745" lon="4.50549">
        <ele>1014.4000244141</ele>
        <time>2026-05-11T09:43:57.000Z</time>
      </trkpt>
      <trkpt lat="45.31746" lon="4.50549">
        <ele>1014.799987793</ele>
        <time>2026-05-11T09:43:58.000Z</time>
      </trkpt>
      <trkpt lat="45.31748" lon="4.5055">
        <ele>1015</ele>
        <time>2026-05-11T09:43:59.000Z</time>
      </trkpt>
      <trkpt lat="45.31749" lon="4.50551">
        <ele>1015.200012207</ele>
        <time>2026-05-11T09:44:00.000Z</time>
      </trkpt>
      <trkpt lat="45.3175" lon="4.50551">
        <ele>1015.4000244141</ele>
        <time>2026-05-11T09:44:01.000Z</time>
      </trkpt>
      <trkpt lat="45.31751" lon="4.50551">
        <ele>1015.4000244141</ele>
        <time>2026-05-11T09:44:02.000Z</time>
      </trkpt>
      <trkpt lat="45.31752" lon="4.50551">
        <ele>1015.4000244141</ele>
        <time>2026-05-11T09:44:03.000Z</time>
      </trkpt>
      <trkpt lat="45.31753" lon="4.50551">
        <ele>1015.4000244141</ele>
        <time>2026-05-11T09:44:04.000Z</time>
      </trkpt>
      <trkpt lat="45.31754" lon="4.50551">
        <ele>1015.4000244141</ele>
        <time>2026-05-11T09:44:05.000Z</time>
      </trkpt>
      <trkpt lat="45.31755" lon="4.50552">
        <ele>1015.5999755859</ele>
        <time>2026-05-11T09:44:06.000Z</time>
      </trkpt>
      <trkpt lat="45.31756" lon="4.50551">
        <ele>1015.5999755859</ele>
        <time>2026-05-11T09:44:07.000Z</time>
      </trkpt>
      <trkpt lat="45.31757" lon="4.50551">
        <ele>1015.799987793</ele>
        <time>2026-05-11T09:44:08.000Z</time>
      </trkpt>
      <trkpt lat="45.31759" lon="4.50551">
        <ele>1016</ele>
        <time>2026-05-11T09:44:09.000Z</time>
      </trkpt>
      <trkpt lat="45.31761" lon="4.50552">
        <ele>1016.200012207</ele>
        <time>2026-05-11T09:44:10.000Z</time>
      </trkpt>
      <trkpt lat="45.31762" lon="4.50552">
        <ele>1016.200012207</ele>
        <time>2026-05-11T09:44:11.000Z</time>
      </trkpt>
      <trkpt lat="45.31763" lon="4.50552">
        <ele>1016.4000244141</ele>
        <time>2026-05-11T09:44:12.000Z</time>
      </trkpt>
      <trkpt lat="45.31764" lon="4.50553">
        <ele>1016.799987793</ele>
        <time>2026-05-11T09:44:13.000Z</time>
      </trkpt>
      <trkpt lat="45.31765" lon="4.50553">
        <ele>1017</ele>
        <time>2026-05-11T09:44:14.000Z</time>
      </trkpt>
      <trkpt lat="45.31766" lon="4.50553">
        <ele>1017.200012207</ele>
        <time>2026-05-11T09:44:15.000Z</time>
      </trkpt>
      <trkpt lat="45.31767" lon="4.50553">
        <ele>1017.4000244141</ele>
        <time>2026-05-11T09:44:16.000Z</time>
      </trkpt>
      <trkpt lat="45.31768" lon="4.50554">
        <ele>1017.5999755859</ele>
        <time>2026-05-11T09:44:17.000Z</time>
      </trkpt>
      <trkpt lat="45.3177" lon="4.50554">
        <ele>1017.5999755859</ele>
        <time>2026-05-11T09:44:18.000Z</time>
      </trkpt>
      <trkpt lat="45.31771" lon="4.50555">
        <ele>1017.799987793</ele>
        <time>2026-05-11T09:44:19.000Z</time>
      </trkpt>
      <trkpt lat="45.31772" lon="4.50555">
        <ele>1018</ele>
        <time>2026-05-11T09:44:20.000Z</time>
      </trkpt>
      <trkpt lat="45.31773" lon="4.50555">
        <ele>1018</ele>
        <time>2026-05-11T09:44:21.000Z</time>
      </trkpt>
      <trkpt lat="45.31775" lon="4.50556">
        <ele>1018.200012207</ele>
        <time>2026-05-11T09:44:22.000Z</time>
      </trkpt>
      <trkpt lat="45.31776" lon="4.50556">
        <ele>1018.200012207</ele>
        <time>2026-05-11T09:44:23.000Z</time>
      </trkpt>
      <trkpt lat="45.31777" lon="4.50556">
        <ele>1018.200012207</ele>
        <time>2026-05-11T09:44:24.000Z</time>
      </trkpt>
      <trkpt lat="45.31779" lon="4.50557">
        <ele>1018.200012207</ele>
        <time>2026-05-11T09:44:25.000Z</time>
      </trkpt>
      <trkpt lat="45.3178" lon="4.50557">
        <ele>1018.4000244141</ele>
        <time>2026-05-11T09:44:26.000Z</time>
      </trkpt>
      <trkpt lat="45.31781" lon="4.50557">
        <ele>1018.5999755859</ele>
        <time>2026-05-11T09:44:27.000Z</time>
      </trkpt>
      <trkpt lat="45.31782" lon="4.50558">
        <ele>1018.5999755859</ele>
        <time>2026-05-11T09:44:28.000Z</time>
      </trkpt>
      <trkpt lat="45.31783" lon="4.50558">
        <ele>1018.799987793</ele>
        <time>2026-05-11T09:44:29.000Z</time>
      </trkpt>
      <trkpt lat="45.31784" lon="4.50559">
        <ele>1019</ele>
        <time>2026-05-11T09:44:30.000Z</time>
      </trkpt>
      <trkpt lat="45.31785" lon="4.50559">
        <ele>1019.200012207</ele>
        <time>2026-05-11T09:44:31.000Z</time>
      </trkpt>
      <trkpt lat="45.31786" lon="4.5056">
        <ele>1019.4000244141</ele>
        <time>2026-05-11T09:44:32.000Z</time>
      </trkpt>
      <trkpt lat="45.31787" lon="4.5056">
        <ele>1019.5999755859</ele>
        <time>2026-05-11T09:44:33.000Z</time>
      </trkpt>
      <trkpt lat="45.31788" lon="4.50561">
        <ele>1019.799987793</ele>
        <time>2026-05-11T09:44:34.000Z</time>
      </trkpt>
      <trkpt lat="45.3179" lon="4.50561">
        <ele>1020</ele>
        <time>2026-05-11T09:44:35.000Z</time>
      </trkpt>
      <trkpt lat="45.31791" lon="4.50561">
        <ele>1020.4000244141</ele>
        <time>2026-05-11T09:44:36.000Z</time>
      </trkpt>
      <trkpt lat="45.31792" lon="4.50561">
        <ele>1020.5999755859</ele>
        <time>2026-05-11T09:44:37.000Z</time>
      </trkpt>
      <trkpt lat="45.31793" lon="4.50562">
        <ele>1020.799987793</ele>
        <time>2026-05-11T09:44:38.000Z</time>
      </trkpt>
      <trkpt lat="45.31794" lon="4.50562">
        <ele>1020.799987793</ele>
        <time>2026-05-11T09:44:39.000Z</time>
      </trkpt>
      <trkpt lat="45.31795" lon="4.50563">
        <ele>1021</ele>
        <time>2026-05-11T09:44:40.000Z</time>
      </trkpt>
      <trkpt lat="45.31796" lon="4.50564">
        <ele>1021</ele>
        <time>2026-05-11T09:44:41.000Z</time>
      </trkpt>
      <trkpt lat="45.31797" lon="4.50564">
        <ele>1021</ele>
        <time>2026-05-11T09:44:42.000Z</time>
      </trkpt>
      <trkpt lat="45.31799" lon="4.50565">
        <ele>1021</ele>
        <time>2026-05-11T09:44:43.000Z</time>
      </trkpt>
      <trkpt lat="45.318" lon="4.50565">
        <ele>1021.200012207</ele>
        <time>2026-05-11T09:44:44.000Z</time>
      </trkpt>
      <trkpt lat="45.31801" lon="4.50565">
        <ele>1021.4000244141</ele>
        <time>2026-05-11T09:44:45.000Z</time>
      </trkpt>
      <trkpt lat="45.31802" lon="4.50565">
        <ele>1021.799987793</ele>
        <time>2026-05-11T09:44:46.000Z</time>
      </trkpt>
      <trkpt lat="45.31803" lon="4.50564">
        <ele>1022</ele>
        <time>2026-05-11T09:44:47.000Z</time>
      </trkpt>
      <trkpt lat="45.31804" lon="4.50564">
        <ele>1022.4000244141</ele>
        <time>2026-05-11T09:44:48.000Z</time>
      </trkpt>
      <trkpt lat="45.31805" lon="4.50565">
        <ele>1022.5999755859</ele>
        <time>2026-05-11T09:44:49.000Z</time>
      </trkpt>
      <trkpt lat="45.31806" lon="4.50566">
        <ele>1023</ele>
        <time>2026-05-11T09:44:50.000Z</time>
      </trkpt>
      <trkpt lat="45.31808" lon="4.50566">
        <ele>1023.200012207</ele>
        <time>2026-05-11T09:44:51.000Z</time>
      </trkpt>
      <trkpt lat="45.31809" lon="4.50567">
        <ele>1023.5999755859</ele>
        <time>2026-05-11T09:44:52.000Z</time>
      </trkpt>
      <trkpt lat="45.3181" lon="4.50567">
        <ele>1023.799987793</ele>
        <time>2026-05-11T09:44:53.000Z</time>
      </trkpt>
      <trkpt lat="45.31811" lon="4.50567">
        <ele>1024</ele>
        <time>2026-05-11T09:44:54.000Z</time>
      </trkpt>
      <trkpt lat="45.31812" lon="4.50567">
        <ele>1024.1999511719</ele>
        <time>2026-05-11T09:44:55.000Z</time>
      </trkpt>
      <trkpt lat="45.31812" lon="4.50568">
        <ele>1024.4000244141</ele>
        <time>2026-05-11T09:44:56.000Z</time>
      </trkpt>
      <trkpt lat="45.31813" lon="4.50569">
        <ele>1024.5999755859</ele>
        <time>2026-05-11T09:44:57.000Z</time>
      </trkpt>
      <trkpt lat="45.31814" lon="4.50568">
        <ele>1024.8000488281</ele>
        <time>2026-05-11T09:44:58.000Z</time>
      </trkpt>
      <trkpt lat="45.31815" lon="4.50568">
        <ele>1025</ele>
        <time>2026-05-11T09:44:59.000Z</time>
      </trkpt>
      <trkpt lat="45.31816" lon="4.50569">
        <ele>1025.1999511719</ele>
        <time>2026-05-11T09:45:00.000Z</time>
      </trkpt>
      <trkpt lat="45.31817" lon="4.5057">
        <ele>1025.5999755859</ele>
        <time>2026-05-11T09:45:01.000Z</time>
      </trkpt>
      <trkpt lat="45.31818" lon="4.50571">
        <ele>1026</ele>
        <time>2026-05-11T09:45:02.000Z</time>
      </trkpt>
      <trkpt lat="45.31819" lon="4.50572">
        <ele>1026.4000244141</ele>
        <time>2026-05-11T09:45:03.000Z</time>
      </trkpt>
      <trkpt lat="45.31821" lon="4.50574">
        <ele>1026.8000488281</ele>
        <time>2026-05-11T09:45:04.000Z</time>
      </trkpt>
      <trkpt lat="45.31822" lon="4.50576">
        <ele>1027</ele>
        <time>2026-05-11T09:45:05.000Z</time>
      </trkpt>
      <trkpt lat="45.31823" lon="4.50577">
        <ele>1027.4000244141</ele>
        <time>2026-05-11T09:45:06.000Z</time>
      </trkpt>
      <trkpt lat="45.31824" lon="4.5058">
        <ele>1027.5999755859</ele>
        <time>2026-05-11T09:45:07.000Z</time>
      </trkpt>
      <trkpt lat="45.31825" lon="4.50581">
        <ele>1028</ele>
        <time>2026-05-11T09:45:08.000Z</time>
      </trkpt>
      <trkpt lat="45.31825" lon="4.50583">
        <ele>1028.1999511719</ele>
        <time>2026-05-11T09:45:09.000Z</time>
      </trkpt>
      <trkpt lat="45.31826" lon="4.50584">
        <ele>1028.4000244141</ele>
        <time>2026-05-11T09:45:10.000Z</time>
      </trkpt>
      <trkpt lat="45.31826" lon="4.50586">
        <ele>1028.8000488281</ele>
        <time>2026-05-11T09:45:11.000Z</time>
      </trkpt>
      <trkpt lat="45.31826" lon="4.50587">
        <ele>1029.1999511719</ele>
        <time>2026-05-11T09:45:12.000Z</time>
      </trkpt>
      <trkpt lat="45.31827" lon="4.50589">
        <ele>1029.4000244141</ele>
        <time>2026-05-11T09:45:13.000Z</time>
      </trkpt>
      <trkpt lat="45.31827" lon="4.50592">
        <ele>1029.8000488281</ele>
        <time>2026-05-11T09:45:14.000Z</time>
      </trkpt>
      <trkpt lat="45.31828" lon="4.50594">
        <ele>1030</ele>
        <time>2026-05-11T09:45:15.000Z</time>
      </trkpt>
      <trkpt lat="45.31829" lon="4.50595">
        <ele>1030.1999511719</ele>
        <time>2026-05-11T09:45:16.000Z</time>
      </trkpt>
      <trkpt lat="45.3183" lon="4.50597">
        <ele>1030.4000244141</ele>
        <time>2026-05-11T09:45:17.000Z</time>
      </trkpt>
      <trkpt lat="45.31832" lon="4.50598">
        <ele>1030.5999755859</ele>
        <time>2026-05-11T09:45:18.000Z</time>
      </trkpt>
      <trkpt lat="45.31833" lon="4.50598">
        <ele>1030.5999755859</ele>
        <time>2026-05-11T09:45:19.000Z</time>
      </trkpt>
      <trkpt lat="45.31835" lon="4.50598">
        <ele>1030.5999755859</ele>
        <time>2026-05-11T09:45:20.000Z</time>
      </trkpt>
      <trkpt lat="45.31836" lon="4.50597">
        <ele>1030.8000488281</ele>
        <time>2026-05-11T09:45:21.000Z</time>
      </trkpt>
      <trkpt lat="45.31838" lon="4.50595">
        <ele>1030.8000488281</ele>
        <time>2026-05-11T09:45:22.000Z</time>
      </trkpt>
      <trkpt lat="45.31838" lon="4.50594">
        <ele>1031</ele>
        <time>2026-05-11T09:45:23.000Z</time>
      </trkpt>
      <trkpt lat="45.31839" lon="4.50592">
        <ele>1031.1999511719</ele>
        <time>2026-05-11T09:45:24.000Z</time>
      </trkpt>
      <trkpt lat="45.31839" lon="4.50592">
        <ele>1031.4000244141</ele>
        <time>2026-05-11T09:45:25.000Z</time>
      </trkpt>
      <trkpt lat="45.31839" lon="4.50592">
        <ele>1031.8000488281</ele>
        <time>2026-05-11T09:45:26.000Z</time>
      </trkpt>
      <trkpt lat="45.31843" lon="4.50567">
        <ele>1032</ele>
        <time>2026-05-11T09:46:52.000Z</time>
      </trkpt>
      <trkpt lat="45.31843" lon="4.50565">
        <ele>1032</ele>
        <time>2026-05-11T09:46:53.000Z</time>
      </trkpt>
      <trkpt lat="45.31844" lon="4.50564">
        <ele>1032</ele>
        <time>2026-05-11T09:46:54.000Z</time>
      </trkpt>
      <trkpt lat="45.31845" lon="4.50561">
        <ele>1032</ele>
        <time>2026-05-11T09:46:55.000Z</time>
      </trkpt>
      <trkpt lat="45.31846" lon="4.50559">
        <ele>1032</ele>
        <time>2026-05-11T09:46:56.000Z</time>
      </trkpt>
      <trkpt lat="45.31847" lon="4.50557">
        <ele>1032</ele>
        <time>2026-05-11T09:46:57.000Z</time>
      </trkpt>
      <trkpt lat="45.31848" lon="4.50555">
        <ele>1032.1999511719</ele>
        <time>2026-05-11T09:46:58.000Z</time>
      </trkpt>
      <trkpt lat="45.31849" lon="4.50554">
        <ele>1032.4000244141</ele>
        <time>2026-05-11T09:46:59.000Z</time>
      </trkpt>
      <trkpt lat="45.3185" lon="4.50552">
        <ele>1032.8000488281</ele>
        <time>2026-05-11T09:47:00.000Z</time>
      </trkpt>
      <trkpt lat="45.31852" lon="4.5055">
        <ele>1033.1999511719</ele>
        <time>2026-05-11T09:47:01.000Z</time>
      </trkpt>
      <trkpt lat="45.31853" lon="4.50548">
        <ele>1033.5999755859</ele>
        <time>2026-05-11T09:47:02.000Z</time>
      </trkpt>
      <trkpt lat="45.31855" lon="4.50547">
        <ele>1034</ele>
        <time>2026-05-11T09:47:03.000Z</time>
      </trkpt>
      <trkpt lat="45.31856" lon="4.50546">
        <ele>1034.1999511719</ele>
        <time>2026-05-11T09:47:04.000Z</time>
      </trkpt>
      <trkpt lat="45.31858" lon="4.50544">
        <ele>1034.5999755859</ele>
        <time>2026-05-11T09:47:05.000Z</time>
      </trkpt>
      <trkpt lat="45.3186" lon="4.50543">
        <ele>1035</ele>
        <time>2026-05-11T09:47:06.000Z</time>
      </trkpt>
      <trkpt lat="45.31861" lon="4.50543">
        <ele>1035.1999511719</ele>
        <time>2026-05-11T09:47:07.000Z</time>
      </trkpt>
      <trkpt lat="45.31863" lon="4.50542">
        <ele>1035.4000244141</ele>
        <time>2026-05-11T09:47:08.000Z</time>
      </trkpt>
      <trkpt lat="45.31865" lon="4.50541">
        <ele>1035.5999755859</ele>
        <time>2026-05-11T09:47:09.000Z</time>
      </trkpt>
      <trkpt lat="45.31867" lon="4.50541">
        <ele>1035.8000488281</ele>
        <time>2026-05-11T09:47:10.000Z</time>
      </trkpt>
      <trkpt lat="45.31869" lon="4.50541">
        <ele>1035.8000488281</ele>
        <time>2026-05-11T09:47:11.000Z</time>
      </trkpt>
      <trkpt lat="45.31871" lon="4.50541">
        <ele>1036</ele>
        <time>2026-05-11T09:47:12.000Z</time>
      </trkpt>
      <trkpt lat="45.31873" lon="4.5054">
        <ele>1036</ele>
        <time>2026-05-11T09:47:13.000Z</time>
      </trkpt>
      <trkpt lat="45.31875" lon="4.5054">
        <ele>1036</ele>
        <time>2026-05-11T09:47:14.000Z</time>
      </trkpt>
      <trkpt lat="45.31876" lon="4.5054">
        <ele>1036</ele>
        <time>2026-05-11T09:47:15.000Z</time>
      </trkpt>
      <trkpt lat="45.31878" lon="4.50539">
        <ele>1035.8000488281</ele>
        <time>2026-05-11T09:47:16.000Z</time>
      </trkpt>
      <trkpt lat="45.3188" lon="4.50539">
        <ele>1035.8000488281</ele>
        <time>2026-05-11T09:47:17.000Z</time>
      </trkpt>
      <trkpt lat="45.31882" lon="4.50539">
        <ele>1035.8000488281</ele>
        <time>2026-05-11T09:47:18.000Z</time>
      </trkpt>
      <trkpt lat="45.31884" lon="4.50539">
        <ele>1035.5999755859</ele>
        <time>2026-05-11T09:47:19.000Z</time>
      </trkpt>
      <trkpt lat="45.31885" lon="4.50538">
        <ele>1035.5999755859</ele>
        <time>2026-05-11T09:47:20.000Z</time>
      </trkpt>
      <trkpt lat="45.31887" lon="4.50538">
        <ele>1035.5999755859</ele>
        <time>2026-05-11T09:47:21.000Z</time>
      </trkpt>
      <trkpt lat="45.31889" lon="4.50538">
        <ele>1035.5999755859</ele>
        <time>2026-05-11T09:47:22.000Z</time>
      </trkpt>
      <trkpt lat="45.31891" lon="4.50537">
        <ele>1035.8000488281</ele>
        <time>2026-05-11T09:47:23.000Z</time>
      </trkpt>
      <trkpt lat="45.31892" lon="4.50537">
        <ele>1035.8000488281</ele>
        <time>2026-05-11T09:47:24.000Z</time>
      </trkpt>
      <trkpt lat="45.31894" lon="4.50537">
        <ele>1035.8000488281</ele>
        <time>2026-05-11T09:47:25.000Z</time>
      </trkpt>
      <trkpt lat="45.31896" lon="4.50537">
        <ele>1036</ele>
        <time>2026-05-11T09:47:26.000Z</time>
      </trkpt>
      <trkpt lat="45.31898" lon="4.50537">
        <ele>1036</ele>
        <time>2026-05-11T09:47:27.000Z</time>
      </trkpt>
      <trkpt lat="45.319" lon="4.50537">
        <ele>1036</ele>
        <time>2026-05-11T09:47:28.000Z</time>
      </trkpt>
      <trkpt lat="45.31902" lon="4.50537">
        <ele>1036.1999511719</ele>
        <time>2026-05-11T09:47:29.000Z</time>
      </trkpt>
      <trkpt lat="45.31905" lon="4.50538">
        <ele>1036.1999511719</ele>
        <time>2026-05-11T09:47:30.000Z</time>
      </trkpt>
      <trkpt lat="45.31907" lon="4.50538">
        <ele>1036.1999511719</ele>
        <time>2026-05-11T09:47:31.000Z</time>
      </trkpt>
      <trkpt lat="45.31909" lon="4.50538">
        <ele>1036.1999511719</ele>
        <time>2026-05-11T09:47:32.000Z</time>
      </trkpt>
      <trkpt lat="45.31911" lon="4.50538">
        <ele>1036.1999511719</ele>
        <time>2026-05-11T09:47:33.000Z</time>
      </trkpt>
      <trkpt lat="45.31913" lon="4.50539">
        <ele>1036.1999511719</ele>
        <time>2026-05-11T09:47:34.000Z</time>
      </trkpt>
      <trkpt lat="45.31915" lon="4.50539">
        <ele>1036.4000244141</ele>
        <time>2026-05-11T09:47:35.000Z</time>
      </trkpt>
      <trkpt lat="45.31917" lon="4.50539">
        <ele>1036.4000244141</ele>
        <time>2026-05-11T09:47:36.000Z</time>
      </trkpt>
      <trkpt lat="45.31919" lon="4.50539">
        <ele>1036.4000244141</ele>
        <time>2026-05-11T09:47:37.000Z</time>
      </trkpt>
      <trkpt lat="45.31921" lon="4.50539">
        <ele>1036.4000244141</ele>
        <time>2026-05-11T09:47:38.000Z</time>
      </trkpt>
      <trkpt lat="45.31923" lon="4.5054">
        <ele>1036.5999755859</ele>
        <time>2026-05-11T09:47:39.000Z</time>
      </trkpt>
      <trkpt lat="45.31925" lon="4.5054">
        <ele>1036.5999755859</ele>
        <time>2026-05-11T09:47:40.000Z</time>
      </trkpt>
      <trkpt lat="45.31927" lon="4.5054">
        <ele>1036.8000488281</ele>
        <time>2026-05-11T09:47:41.000Z</time>
      </trkpt>
      <trkpt lat="45.31929" lon="4.5054">
        <ele>1036.8000488281</ele>
        <time>2026-05-11T09:47:42.000Z</time>
      </trkpt>
      <trkpt lat="45.31931" lon="4.5054">
        <ele>1037</ele>
        <time>2026-05-11T09:47:43.000Z</time>
      </trkpt>
      <trkpt lat="45.31933" lon="4.50541">
        <ele>1037</ele>
        <time>2026-05-11T09:47:44.000Z</time>
      </trkpt>
      <trkpt lat="45.31935" lon="4.50541">
        <ele>1037</ele>
        <time>2026-05-11T09:47:45.000Z</time>
      </trkpt>
      <trkpt lat="45.31938" lon="4.50541">
        <ele>1037.1999511719</ele>
        <time>2026-05-11T09:47:46.000Z</time>
      </trkpt>
      <trkpt lat="45.3194" lon="4.50541">
        <ele>1037.1999511719</ele>
        <time>2026-05-11T09:47:47.000Z</time>
      </trkpt>
      <trkpt lat="45.31942" lon="4.50542">
        <ele>1037.4000244141</ele>
        <time>2026-05-11T09:47:48.000Z</time>
      </trkpt>
      <trkpt lat="45.31944" lon="4.50542">
        <ele>1037.5999755859</ele>
        <time>2026-05-11T09:47:49.000Z</time>
      </trkpt>
      <trkpt lat="45.31946" lon="4.50542">
        <ele>1037.5999755859</ele>
        <time>2026-05-11T09:47:50.000Z</time>
      </trkpt>
      <trkpt lat="45.31948" lon="4.50542">
        <ele>1037.8000488281</ele>
        <time>2026-05-11T09:47:51.000Z</time>
      </trkpt>
      <trkpt lat="45.3195" lon="4.50542">
        <ele>1037.8000488281</ele>
        <time>2026-05-11T09:47:52.000Z</time>
      </trkpt>
      <trkpt lat="45.31952" lon="4.50542">
        <ele>1038</ele>
        <time>2026-05-11T09:47:53.000Z</time>
      </trkpt>
      <trkpt lat="45.31954" lon="4.50543">
        <ele>1038</ele>
        <time>2026-05-11T09:47:54.000Z</time>
      </trkpt>
      <trkpt lat="45.31956" lon="4.50543">
        <ele>1038</ele>
        <time>2026-05-11T09:47:55.000Z</time>
      </trkpt>
      <trkpt lat="45.31957" lon="4.50543">
        <ele>1038</ele>
        <time>2026-05-11T09:47:56.000Z</time>
      </trkpt>
      <trkpt lat="45.31959" lon="4.50543">
        <ele>1038.1999511719</ele>
        <time>2026-05-11T09:47:57.000Z</time>
      </trkpt>
      <trkpt lat="45.31961" lon="4.50542">
        <ele>1038.1999511719</ele>
        <time>2026-05-11T09:47:58.000Z</time>
      </trkpt>
      <trkpt lat="45.31963" lon="4.50542">
        <ele>1038.1999511719</ele>
        <time>2026-05-11T09:47:59.000Z</time>
      </trkpt>
      <trkpt lat="45.31965" lon="4.50541">
        <ele>1038.1999511719</ele>
        <time>2026-05-11T09:48:00.000Z</time>
      </trkpt>
      <trkpt lat="45.31966" lon="4.50541">
        <ele>1038.4000244141</ele>
        <time>2026-05-11T09:48:01.000Z</time>
      </trkpt>
      <trkpt lat="45.31968" lon="4.5054">
        <ele>1038.4000244141</ele>
        <time>2026-05-11T09:48:02.000Z</time>
      </trkpt>
      <trkpt lat="45.3197" lon="4.5054">
        <ele>1038.5999755859</ele>
        <time>2026-05-11T09:48:03.000Z</time>
      </trkpt>
      <trkpt lat="45.31972" lon="4.5054">
        <ele>1038.5999755859</ele>
        <time>2026-05-11T09:48:04.000Z</time>
      </trkpt>
      <trkpt lat="45.31974" lon="4.5054">
        <ele>1038.8000488281</ele>
        <time>2026-05-11T09:48:05.000Z</time>
      </trkpt>
      <trkpt lat="45.31976" lon="4.5054">
        <ele>1039</ele>
        <time>2026-05-11T09:48:06.000Z</time>
      </trkpt>
      <trkpt lat="45.31979" lon="4.5054">
        <ele>1039.1999511719</ele>
        <time>2026-05-11T09:48:07.000Z</time>
      </trkpt>
      <trkpt lat="45.31981" lon="4.50539">
        <ele>1039.4000244141</ele>
        <time>2026-05-11T09:48:08.000Z</time>
      </trkpt>
      <trkpt lat="45.31983" lon="4.50539">
        <ele>1039.5999755859</ele>
        <time>2026-05-11T09:48:09.000Z</time>
      </trkpt>
      <trkpt lat="45.31985" lon="4.50539">
        <ele>1039.8000488281</ele>
        <time>2026-05-11T09:48:10.000Z</time>
      </trkpt>
      <trkpt lat="45.31986" lon="4.50538">
        <ele>1040</ele>
        <time>2026-05-11T09:48:11.000Z</time>
      </trkpt>
      <trkpt lat="45.31988" lon="4.50537">
        <ele>1040.4000244141</ele>
        <time>2026-05-11T09:48:12.000Z</time>
      </trkpt>
      <trkpt lat="45.3199" lon="4.50537">
        <ele>1040.5999755859</ele>
        <time>2026-05-11T09:48:13.000Z</time>
      </trkpt>
      <trkpt lat="45.31992" lon="4.50536">
        <ele>1040.8000488281</ele>
        <time>2026-05-11T09:48:14.000Z</time>
      </trkpt>
      <trkpt lat="45.31994" lon="4.50536">
        <ele>1041</ele>
        <time>2026-05-11T09:48:15.000Z</time>
      </trkpt>
      <trkpt lat="45.31996" lon="4.50536">
        <ele>1041.4000244141</ele>
        <time>2026-05-11T09:48:16.000Z</time>
      </trkpt>
      <trkpt lat="45.31998" lon="4.50536">
        <ele>1041.5999755859</ele>
        <time>2026-05-11T09:48:17.000Z</time>
      </trkpt>
      <trkpt lat="45.31999" lon="4.50535">
        <ele>1041.8000488281</ele>
        <time>2026-05-11T09:48:18.000Z</time>
      </trkpt>
      <trkpt lat="45.32001" lon="4.50535">
        <ele>1042</ele>
        <time>2026-05-11T09:48:19.000Z</time>
      </trkpt>
      <trkpt lat="45.32003" lon="4.50535">
        <ele>1042.1999511719</ele>
        <time>2026-05-11T09:48:20.000Z</time>
      </trkpt>
      <trkpt lat="45.32005" lon="4.50534">
        <ele>1042.4000244141</ele>
        <time>2026-05-11T09:48:21.000Z</time>
      </trkpt>
      <trkpt lat="45.32007" lon="4.50534">
        <ele>1042.5999755859</ele>
        <time>2026-05-11T09:48:22.000Z</time>
      </trkpt>
      <trkpt lat="45.32009" lon="4.50533">
        <ele>1042.8000488281</ele>
        <time>2026-05-11T09:48:23.000Z</time>
      </trkpt>
      <trkpt lat="45.32011" lon="4.50533">
        <ele>1043</ele>
        <time>2026-05-11T09:48:24.000Z</time>
      </trkpt>
      <trkpt lat="45.32013" lon="4.50533">
        <ele>1043.1999511719</ele>
        <time>2026-05-11T09:48:25.000Z</time>
      </trkpt>
      <trkpt lat="45.32015" lon="4.50532">
        <ele>1043.1999511719</ele>
        <time>2026-05-11T09:48:26.000Z</time>
      </trkpt>
      <trkpt lat="45.32017" lon="4.50531">
        <ele>1043.4000244141</ele>
        <time>2026-05-11T09:48:27.000Z</time>
      </trkpt>
      <trkpt lat="45.32019" lon="4.50531">
        <ele>1043.5999755859</ele>
        <time>2026-05-11T09:48:28.000Z</time>
      </trkpt>
      <trkpt lat="45.3202" lon="4.5053">
        <ele>1043.5999755859</ele>
        <time>2026-05-11T09:48:29.000Z</time>
      </trkpt>
      <trkpt lat="45.32022" lon="4.50529">
        <ele>1043.8000488281</ele>
        <time>2026-05-11T09:48:30.000Z</time>
      </trkpt>
      <trkpt lat="45.32024" lon="4.50528">
        <ele>1044</ele>
        <time>2026-05-11T09:48:31.000Z</time>
      </trkpt>
      <trkpt lat="45.32026" lon="4.50528">
        <ele>1044.1999511719</ele>
        <time>2026-05-11T09:48:32.000Z</time>
      </trkpt>
      <trkpt lat="45.32028" lon="4.50527">
        <ele>1044.4000244141</ele>
        <time>2026-05-11T09:48:33.000Z</time>
      </trkpt>
      <trkpt lat="45.3203" lon="4.50526">
        <ele>1044.5999755859</ele>
        <time>2026-05-11T09:48:34.000Z</time>
      </trkpt>
      <trkpt lat="45.32032" lon="4.50525">
        <ele>1044.8000488281</ele>
        <time>2026-05-11T09:48:35.000Z</time>
      </trkpt>
      <trkpt lat="45.32033" lon="4.50525">
        <ele>1045</ele>
        <time>2026-05-11T09:48:36.000Z</time>
      </trkpt>
      <trkpt lat="45.32035" lon="4.50524">
        <ele>1045</ele>
        <time>2026-05-11T09:48:37.000Z</time>
      </trkpt>
      <trkpt lat="45.32037" lon="4.50523">
        <ele>1045.1999511719</ele>
        <time>2026-05-11T09:48:38.000Z</time>
      </trkpt>
      <trkpt lat="45.32039" lon="4.50522">
        <ele>1045.4000244141</ele>
        <time>2026-05-11T09:48:39.000Z</time>
      </trkpt>
      <trkpt lat="45.3204" lon="4.50521">
        <ele>1045.5999755859</ele>
        <time>2026-05-11T09:48:40.000Z</time>
      </trkpt>
      <trkpt lat="45.32042" lon="4.5052">
        <ele>1045.5999755859</ele>
        <time>2026-05-11T09:48:41.000Z</time>
      </trkpt>
      <trkpt lat="45.32044" lon="4.50519">
        <ele>1045.8000488281</ele>
        <time>2026-05-11T09:48:42.000Z</time>
      </trkpt>
      <trkpt lat="45.32046" lon="4.50518">
        <ele>1045.8000488281</ele>
        <time>2026-05-11T09:48:43.000Z</time>
      </trkpt>
      <trkpt lat="45.32047" lon="4.50516">
        <ele>1046</ele>
        <time>2026-05-11T09:48:44.000Z</time>
      </trkpt>
      <trkpt lat="45.32049" lon="4.50515">
        <ele>1046</ele>
        <time>2026-05-11T09:48:45.000Z</time>
      </trkpt>
      <trkpt lat="45.3205" lon="4.50514">
        <ele>1046.1999511719</ele>
        <time>2026-05-11T09:48:46.000Z</time>
      </trkpt>
      <trkpt lat="45.32052" lon="4.50512">
        <ele>1046.1999511719</ele>
        <time>2026-05-11T09:48:47.000Z</time>
      </trkpt>
      <trkpt lat="45.32054" lon="4.5051">
        <ele>1046.1999511719</ele>
        <time>2026-05-11T09:48:48.000Z</time>
      </trkpt>
      <trkpt lat="45.32055" lon="4.50509">
        <ele>1046.1999511719</ele>
        <time>2026-05-11T09:48:49.000Z</time>
      </trkpt>
      <trkpt lat="45.32057" lon="4.50507">
        <ele>1046.1999511719</ele>
        <time>2026-05-11T09:48:50.000Z</time>
      </trkpt>
      <trkpt lat="45.32058" lon="4.50506">
        <ele>1046.1999511719</ele>
        <time>2026-05-11T09:48:51.000Z</time>
      </trkpt>
      <trkpt lat="45.3206" lon="4.50504">
        <ele>1046.4000244141</ele>
        <time>2026-05-11T09:48:52.000Z</time>
      </trkpt>
      <trkpt lat="45.32061" lon="4.50502">
        <ele>1046.5999755859</ele>
        <time>2026-05-11T09:48:53.000Z</time>
      </trkpt>
      <trkpt lat="45.32063" lon="4.505">
        <ele>1046.5999755859</ele>
        <time>2026-05-11T09:48:54.000Z</time>
      </trkpt>
      <trkpt lat="45.32065" lon="4.50498">
        <ele>1046.5999755859</ele>
        <time>2026-05-11T09:48:55.000Z</time>
      </trkpt>
      <trkpt lat="45.32066" lon="4.50497">
        <ele>1046.5999755859</ele>
        <time>2026-05-11T09:48:56.000Z</time>
      </trkpt>
      <trkpt lat="45.32067" lon="4.50495">
        <ele>1046.5999755859</ele>
        <time>2026-05-11T09:48:57.000Z</time>
      </trkpt>
      <trkpt lat="45.32069" lon="4.50493">
        <ele>1046.5999755859</ele>
        <time>2026-05-11T09:48:58.000Z</time>
      </trkpt>
      <trkpt lat="45.3207" lon="4.50491">
        <ele>1046.8000488281</ele>
        <time>2026-05-11T09:48:59.000Z</time>
      </trkpt>
      <trkpt lat="45.32071" lon="4.50489">
        <ele>1046.8000488281</ele>
        <time>2026-05-11T09:49:00.000Z</time>
      </trkpt>
      <trkpt lat="45.32073" lon="4.50487">
        <ele>1047</ele>
        <time>2026-05-11T09:49:01.000Z</time>
      </trkpt>
      <trkpt lat="45.32074" lon="4.50485">
        <ele>1047.1999511719</ele>
        <time>2026-05-11T09:49:02.000Z</time>
      </trkpt>
      <trkpt lat="45.32075" lon="4.50483">
        <ele>1047.1999511719</ele>
        <time>2026-05-11T09:49:03.000Z</time>
      </trkpt>
      <trkpt lat="45.32076" lon="4.5048">
        <ele>1047.4000244141</ele>
        <time>2026-05-11T09:49:04.000Z</time>
      </trkpt>
      <trkpt lat="45.32078" lon="4.50478">
        <ele>1047.5999755859</ele>
        <time>2026-05-11T09:49:05.000Z</time>
      </trkpt>
      <trkpt lat="45.32079" lon="4.50476">
        <ele>1047.8000488281</ele>
        <time>2026-05-11T09:49:06.000Z</time>
      </trkpt>
      <trkpt lat="45.3208" lon="4.50473">
        <ele>1047.8000488281</ele>
        <time>2026-05-11T09:49:07.000Z</time>
      </trkpt>
      <trkpt lat="45.32081" lon="4.50471">
        <ele>1048</ele>
        <time>2026-05-11T09:49:08.000Z</time>
      </trkpt>
      <trkpt lat="45.32082" lon="4.50468">
        <ele>1048</ele>
        <time>2026-05-11T09:49:09.000Z</time>
      </trkpt>
      <trkpt lat="45.32083" lon="4.50466">
        <ele>1048</ele>
        <time>2026-05-11T09:49:10.000Z</time>
      </trkpt>
      <trkpt lat="45.32084" lon="4.50464">
        <ele>1048</ele>
        <time>2026-05-11T09:49:11.000Z</time>
      </trkpt>
      <trkpt lat="45.32085" lon="4.50462">
        <ele>1048</ele>
        <time>2026-05-11T09:49:12.000Z</time>
      </trkpt>
      <trkpt lat="45.32086" lon="4.5046">
        <ele>1048</ele>
        <time>2026-05-11T09:49:13.000Z</time>
      </trkpt>
      <trkpt lat="45.32087" lon="4.50457">
        <ele>1048.1999511719</ele>
        <time>2026-05-11T09:49:14.000Z</time>
      </trkpt>
      <trkpt lat="45.32088" lon="4.50455">
        <ele>1048.1999511719</ele>
        <time>2026-05-11T09:49:15.000Z</time>
      </trkpt>
      <trkpt lat="45.32089" lon="4.50452">
        <ele>1048.4000244141</ele>
        <time>2026-05-11T09:49:16.000Z</time>
      </trkpt>
      <trkpt lat="45.3209" lon="4.5045">
        <ele>1048.5999755859</ele>
        <time>2026-05-11T09:49:17.000Z</time>
      </trkpt>
      <trkpt lat="45.32091" lon="4.50448">
        <ele>1049</ele>
        <time>2026-05-11T09:49:18.000Z</time>
      </trkpt>
      <trkpt lat="45.32091" lon="4.50445">
        <ele>1049.4000244141</ele>
        <time>2026-05-11T09:49:19.000Z</time>
      </trkpt>
      <trkpt lat="45.32092" lon="4.50443">
        <ele>1049.5999755859</ele>
        <time>2026-05-11T09:49:20.000Z</time>
      </trkpt>
      <trkpt lat="45.32093" lon="4.5044">
        <ele>1050</ele>
        <time>2026-05-11T09:49:21.000Z</time>
      </trkpt>
      <trkpt lat="45.32093" lon="4.50438">
        <ele>1050.1999511719</ele>
        <time>2026-05-11T09:49:22.000Z</time>
      </trkpt>
      <trkpt lat="45.32094" lon="4.50435">
        <ele>1050.1999511719</ele>
        <time>2026-05-11T09:49:23.000Z</time>
      </trkpt>
      <trkpt lat="45.32095" lon="4.50432">
        <ele>1050.4000244141</ele>
        <time>2026-05-11T09:49:24.000Z</time>
      </trkpt>
      <trkpt lat="45.32095" lon="4.50429">
        <ele>1050.4000244141</ele>
        <time>2026-05-11T09:49:25.000Z</time>
      </trkpt>
      <trkpt lat="45.32096" lon="4.50427">
        <ele>1050.4000244141</ele>
        <time>2026-05-11T09:49:26.000Z</time>
      </trkpt>
      <trkpt lat="45.32097" lon="4.50424">
        <ele>1050.4000244141</ele>
        <time>2026-05-11T09:49:27.000Z</time>
      </trkpt>
      <trkpt lat="45.32097" lon="4.50422">
        <ele>1050.4000244141</ele>
        <time>2026-05-11T09:49:28.000Z</time>
      </trkpt>
      <trkpt lat="45.32098" lon="4.5042">
        <ele>1050.5999755859</ele>
        <time>2026-05-11T09:49:29.000Z</time>
      </trkpt>
      <trkpt lat="45.32098" lon="4.50417">
        <ele>1050.5999755859</ele>
        <time>2026-05-11T09:49:30.000Z</time>
      </trkpt>
      <trkpt lat="45.32099" lon="4.50414">
        <ele>1050.5999755859</ele>
        <time>2026-05-11T09:49:31.000Z</time>
      </trkpt>
      <trkpt lat="45.321" lon="4.50412">
        <ele>1050.8000488281</ele>
        <time>2026-05-11T09:49:32.000Z</time>
      </trkpt>
      <trkpt lat="45.321" lon="4.50409">
        <ele>1050.8000488281</ele>
        <time>2026-05-11T09:49:33.000Z</time>
      </trkpt>
      <trkpt lat="45.32101" lon="4.50407">
        <ele>1051</ele>
        <time>2026-05-11T09:49:34.000Z</time>
      </trkpt>
      <trkpt lat="45.32101" lon="4.50404">
        <ele>1051</ele>
        <time>2026-05-11T09:49:35.000Z</time>
      </trkpt>
      <trkpt lat="45.32101" lon="4.50401">
        <ele>1051.1999511719</ele>
        <time>2026-05-11T09:49:36.000Z</time>
      </trkpt>
      <trkpt lat="45.32101" lon="4.50399">
        <ele>1051.1999511719</ele>
        <time>2026-05-11T09:49:37.000Z</time>
      </trkpt>
      <trkpt lat="45.32101" lon="4.50396">
        <ele>1051.1999511719</ele>
        <time>2026-05-11T09:49:38.000Z</time>
      </trkpt>
      <trkpt lat="45.32102" lon="4.50393">
        <ele>1051.1999511719</ele>
        <time>2026-05-11T09:49:39.000Z</time>
      </trkpt>
      <trkpt lat="45.32102" lon="4.50391">
        <ele>1051.1999511719</ele>
        <time>2026-05-11T09:49:40.000Z</time>
      </trkpt>
      <trkpt lat="45.32102" lon="4.50388">
        <ele>1051.1999511719</ele>
        <time>2026-05-11T09:49:41.000Z</time>
      </trkpt>
      <trkpt lat="45.32102" lon="4.50385">
        <ele>1051.4000244141</ele>
        <time>2026-05-11T09:49:42.000Z</time>
      </trkpt>
      <trkpt lat="45.32102" lon="4.50383">
        <ele>1051.5999755859</ele>
        <time>2026-05-11T09:49:43.000Z</time>
      </trkpt>
      <trkpt lat="45.32102" lon="4.5038">
        <ele>1051.5999755859</ele>
        <time>2026-05-11T09:49:44.000Z</time>
      </trkpt>
      <trkpt lat="45.32103" lon="4.50377">
        <ele>1051.8000488281</ele>
        <time>2026-05-11T09:49:45.000Z</time>
      </trkpt>
      <trkpt lat="45.32103" lon="4.50374">
        <ele>1051.8000488281</ele>
        <time>2026-05-11T09:49:46.000Z</time>
      </trkpt>
      <trkpt lat="45.32103" lon="4.50371">
        <ele>1051.8000488281</ele>
        <time>2026-05-11T09:49:47.000Z</time>
      </trkpt>
      <trkpt lat="45.32103" lon="4.50369">
        <ele>1052</ele>
        <time>2026-05-11T09:49:48.000Z</time>
      </trkpt>
      <trkpt lat="45.32102" lon="4.50366">
        <ele>1052</ele>
        <time>2026-05-11T09:49:49.000Z</time>
      </trkpt>
      <trkpt lat="45.32102" lon="4.50364">
        <ele>1052</ele>
        <time>2026-05-11T09:49:50.000Z</time>
      </trkpt>
      <trkpt lat="45.32102" lon="4.50361">
        <ele>1052.1999511719</ele>
        <time>2026-05-11T09:49:51.000Z</time>
      </trkpt>
      <trkpt lat="45.32102" lon="4.50359">
        <ele>1052.1999511719</ele>
        <time>2026-05-11T09:49:52.000Z</time>
      </trkpt>
      <trkpt lat="45.32102" lon="4.50356">
        <ele>1052.4000244141</ele>
        <time>2026-05-11T09:49:53.000Z</time>
      </trkpt>
      <trkpt lat="45.32102" lon="4.50353">
        <ele>1052.4000244141</ele>
        <time>2026-05-11T09:49:54.000Z</time>
      </trkpt>
      <trkpt lat="45.32102" lon="4.50351">
        <ele>1052.5999755859</ele>
        <time>2026-05-11T09:49:55.000Z</time>
      </trkpt>
      <trkpt lat="45.32102" lon="4.50348">
        <ele>1052.5999755859</ele>
        <time>2026-05-11T09:49:56.000Z</time>
      </trkpt>
      <trkpt lat="45.32102" lon="4.50346">
        <ele>1052.5999755859</ele>
        <time>2026-05-11T09:49:57.000Z</time>
      </trkpt>
      <trkpt lat="45.32102" lon="4.50343">
        <ele>1052.8000488281</ele>
        <time>2026-05-11T09:49:58.000Z</time>
      </trkpt>
      <trkpt lat="45.32102" lon="4.50341">
        <ele>1052.8000488281</ele>
        <time>2026-05-11T09:49:59.000Z</time>
      </trkpt>
      <trkpt lat="45.32101" lon="4.50338">
        <ele>1053</ele>
        <time>2026-05-11T09:50:00.000Z</time>
      </trkpt>
      <trkpt lat="45.32102" lon="4.50335">
        <ele>1053</ele>
        <time>2026-05-11T09:50:01.000Z</time>
      </trkpt>
      <trkpt lat="45.32101" lon="4.50332">
        <ele>1053.1999511719</ele>
        <time>2026-05-11T09:50:02.000Z</time>
      </trkpt>
      <trkpt lat="45.32101" lon="4.5033">
        <ele>1053.4000244141</ele>
        <time>2026-05-11T09:50:03.000Z</time>
      </trkpt>
      <trkpt lat="45.32101" lon="4.50327">
        <ele>1053.5999755859</ele>
        <time>2026-05-11T09:50:04.000Z</time>
      </trkpt>
      <trkpt lat="45.32101" lon="4.50325">
        <ele>1053.8000488281</ele>
        <time>2026-05-11T09:50:05.000Z</time>
      </trkpt>
      <trkpt lat="45.32101" lon="4.50322">
        <ele>1054</ele>
        <time>2026-05-11T09:50:06.000Z</time>
      </trkpt>
      <trkpt lat="45.32101" lon="4.50319">
        <ele>1054.1999511719</ele>
        <time>2026-05-11T09:50:07.000Z</time>
      </trkpt>
      <trkpt lat="45.32101" lon="4.50316">
        <ele>1054.5999755859</ele>
        <time>2026-05-11T09:50:08.000Z</time>
      </trkpt>
      <trkpt lat="45.321" lon="4.50313">
        <ele>1054.8000488281</ele>
        <time>2026-05-11T09:50:09.000Z</time>
      </trkpt>
      <trkpt lat="45.321" lon="4.5031">
        <ele>1054.8000488281</ele>
        <time>2026-05-11T09:50:10.000Z</time>
      </trkpt>
      <trkpt lat="45.321" lon="4.50307">
        <ele>1055</ele>
        <time>2026-05-11T09:50:11.000Z</time>
      </trkpt>
      <trkpt lat="45.32099" lon="4.50304">
        <ele>1055</ele>
        <time>2026-05-11T09:50:12.000Z</time>
      </trkpt>
      <trkpt lat="45.32099" lon="4.50302">
        <ele>1055.1999511719</ele>
        <time>2026-05-11T09:50:13.000Z</time>
      </trkpt>
      <trkpt lat="45.32099" lon="4.50299">
        <ele>1055.1999511719</ele>
        <time>2026-05-11T09:50:14.000Z</time>
      </trkpt>
      <trkpt lat="45.32099" lon="4.50296">
        <ele>1055.1999511719</ele>
        <time>2026-05-11T09:50:15.000Z</time>
      </trkpt>
      <trkpt lat="45.32099" lon="4.50293">
        <ele>1055.4000244141</ele>
        <time>2026-05-11T09:50:16.000Z</time>
      </trkpt>
      <trkpt lat="45.32099" lon="4.5029">
        <ele>1055.4000244141</ele>
        <time>2026-05-11T09:50:17.000Z</time>
      </trkpt>
      <trkpt lat="45.32098" lon="4.50287">
        <ele>1055.4000244141</ele>
        <time>2026-05-11T09:50:18.000Z</time>
      </trkpt>
      <trkpt lat="45.32098" lon="4.50284">
        <ele>1055.5999755859</ele>
        <time>2026-05-11T09:50:19.000Z</time>
      </trkpt>
      <trkpt lat="45.32098" lon="4.5028">
        <ele>1055.5999755859</ele>
        <time>2026-05-11T09:50:20.000Z</time>
      </trkpt>
      <trkpt lat="45.32097" lon="4.50278">
        <ele>1055.5999755859</ele>
        <time>2026-05-11T09:50:21.000Z</time>
      </trkpt>
      <trkpt lat="45.32098" lon="4.50275">
        <ele>1055.5999755859</ele>
        <time>2026-05-11T09:50:22.000Z</time>
      </trkpt>
      <trkpt lat="45.32098" lon="4.50272">
        <ele>1055.5999755859</ele>
        <time>2026-05-11T09:50:23.000Z</time>
      </trkpt>
      <trkpt lat="45.32097" lon="4.50269">
        <ele>1055.5999755859</ele>
        <time>2026-05-11T09:50:24.000Z</time>
      </trkpt>
      <trkpt lat="45.32097" lon="4.50266">
        <ele>1055.8000488281</ele>
        <time>2026-05-11T09:50:25.000Z</time>
      </trkpt>
      <trkpt lat="45.32097" lon="4.50263">
        <ele>1055.8000488281</ele>
        <time>2026-05-11T09:50:26.000Z</time>
      </trkpt>
      <trkpt lat="45.32097" lon="4.5026">
        <ele>1056</ele>
        <time>2026-05-11T09:50:27.000Z</time>
      </trkpt>
      <trkpt lat="45.32096" lon="4.50257">
        <ele>1056</ele>
        <time>2026-05-11T09:50:28.000Z</time>
      </trkpt>
      <trkpt lat="45.32096" lon="4.50254">
        <ele>1056</ele>
        <time>2026-05-11T09:50:29.000Z</time>
      </trkpt>
      <trkpt lat="45.32096" lon="4.50251">
        <ele>1056.1999511719</ele>
        <time>2026-05-11T09:50:30.000Z</time>
      </trkpt>
      <trkpt lat="45.32096" lon="4.50248">
        <ele>1056.1999511719</ele>
        <time>2026-05-11T09:50:31.000Z</time>
      </trkpt>
      <trkpt lat="45.32096" lon="4.50245">
        <ele>1056.4000244141</ele>
        <time>2026-05-11T09:50:32.000Z</time>
      </trkpt>
      <trkpt lat="45.32096" lon="4.50241">
        <ele>1056.4000244141</ele>
        <time>2026-05-11T09:50:33.000Z</time>
      </trkpt>
      <trkpt lat="45.32095" lon="4.50238">
        <ele>1056.5999755859</ele>
        <time>2026-05-11T09:50:34.000Z</time>
      </trkpt>
      <trkpt lat="45.32096" lon="4.50235">
        <ele>1056.5999755859</ele>
        <time>2026-05-11T09:50:35.000Z</time>
      </trkpt>
      <trkpt lat="45.32095" lon="4.50232">
        <ele>1056.8000488281</ele>
        <time>2026-05-11T09:50:36.000Z</time>
      </trkpt>
      <trkpt lat="45.32095" lon="4.50228">
        <ele>1057</ele>
        <time>2026-05-11T09:50:37.000Z</time>
      </trkpt>
      <trkpt lat="45.32095" lon="4.50225">
        <ele>1057</ele>
        <time>2026-05-11T09:50:38.000Z</time>
      </trkpt>
      <trkpt lat="45.32095" lon="4.50222">
        <ele>1057.1999511719</ele>
        <time>2026-05-11T09:50:39.000Z</time>
      </trkpt>
      <trkpt lat="45.32095" lon="4.50219">
        <ele>1057.4000244141</ele>
        <time>2026-05-11T09:50:40.000Z</time>
      </trkpt>
      <trkpt lat="45.32095" lon="4.50216">
        <ele>1057.4000244141</ele>
        <time>2026-05-11T09:50:41.000Z</time>
      </trkpt>
      <trkpt lat="45.32094" lon="4.50212">
        <ele>1057.5999755859</ele>
        <time>2026-05-11T09:50:42.000Z</time>
      </trkpt>
      <trkpt lat="45.32094" lon="4.50209">
        <ele>1057.5999755859</ele>
        <time>2026-05-11T09:50:43.000Z</time>
      </trkpt>
      <trkpt lat="45.32094" lon="4.50206">
        <ele>1057.5999755859</ele>
        <time>2026-05-11T09:50:44.000Z</time>
      </trkpt>
      <trkpt lat="45.32094" lon="4.50203">
        <ele>1057.5999755859</ele>
        <time>2026-05-11T09:50:45.000Z</time>
      </trkpt>
      <trkpt lat="45.32094" lon="4.502">
        <ele>1057.8000488281</ele>
        <time>2026-05-11T09:50:46.000Z</time>
      </trkpt>
      <trkpt lat="45.32094" lon="4.50198">
        <ele>1057.8000488281</ele>
        <time>2026-05-11T09:50:47.000Z</time>
      </trkpt>
      <trkpt lat="45.32094" lon="4.50195">
        <ele>1057.8000488281</ele>
        <time>2026-05-11T09:50:48.000Z</time>
      </trkpt>
      <trkpt lat="45.32094" lon="4.50192">
        <ele>1057.8000488281</ele>
        <time>2026-05-11T09:50:49.000Z</time>
      </trkpt>
      <trkpt lat="45.32094" lon="4.50189">
        <ele>1057.8000488281</ele>
        <time>2026-05-11T09:50:50.000Z</time>
      </trkpt>
      <trkpt lat="45.32094" lon="4.50186">
        <ele>1057.8000488281</ele>
        <time>2026-05-11T09:50:51.000Z</time>
      </trkpt>
      <trkpt lat="45.32094" lon="4.50183">
        <ele>1057.8000488281</ele>
        <time>2026-05-11T09:50:52.000Z</time>
      </trkpt>
      <trkpt lat="45.32094" lon="4.5018">
        <ele>1057.8000488281</ele>
        <time>2026-05-11T09:50:53.000Z</time>
      </trkpt>
      <trkpt lat="45.32094" lon="4.50177">
        <ele>1057.5999755859</ele>
        <time>2026-05-11T09:50:54.000Z</time>
      </trkpt>
      <trkpt lat="45.32094" lon="4.50174">
        <ele>1057.5999755859</ele>
        <time>2026-05-11T09:50:55.000Z</time>
      </trkpt>
      <trkpt lat="45.32094" lon="4.50171">
        <ele>1057.4000244141</ele>
        <time>2026-05-11T09:50:56.000Z</time>
      </trkpt>
      <trkpt lat="45.32094" lon="4.50168">
        <ele>1057.4000244141</ele>
        <time>2026-05-11T09:50:57.000Z</time>
      </trkpt>
      <trkpt lat="45.32094" lon="4.50164">
        <ele>1057.1999511719</ele>
        <time>2026-05-11T09:50:58.000Z</time>
      </trkpt>
      <trkpt lat="45.32093" lon="4.50161">
        <ele>1057.1999511719</ele>
        <time>2026-05-11T09:50:59.000Z</time>
      </trkpt>
      <trkpt lat="45.32093" lon="4.50158">
        <ele>1057.1999511719</ele>
        <time>2026-05-11T09:51:00.000Z</time>
      </trkpt>
      <trkpt lat="45.32093" lon="4.50155">
        <ele>1057.1999511719</ele>
        <time>2026-05-11T09:51:01.000Z</time>
      </trkpt>
      <trkpt lat="45.32093" lon="4.50152">
        <ele>1057.1999511719</ele>
        <time>2026-05-11T09:51:02.000Z</time>
      </trkpt>
      <trkpt lat="45.32093" lon="4.50148">
        <ele>1057.1999511719</ele>
        <time>2026-05-11T09:51:03.000Z</time>
      </trkpt>
      <trkpt lat="45.32093" lon="4.50145">
        <ele>1057.4000244141</ele>
        <time>2026-05-11T09:51:04.000Z</time>
      </trkpt>
      <trkpt lat="45.32093" lon="4.50142">
        <ele>1057.4000244141</ele>
        <time>2026-05-11T09:51:05.000Z</time>
      </trkpt>
      <trkpt lat="45.32092" lon="4.50139">
        <ele>1057.5999755859</ele>
        <time>2026-05-11T09:51:06.000Z</time>
      </trkpt>
      <trkpt lat="45.32092" lon="4.50136">
        <ele>1057.8000488281</ele>
        <time>2026-05-11T09:51:07.000Z</time>
      </trkpt>
      <trkpt lat="45.32092" lon="4.50133">
        <ele>1057.8000488281</ele>
        <time>2026-05-11T09:51:08.000Z</time>
      </trkpt>
      <trkpt lat="45.32092" lon="4.50129">
        <ele>1058</ele>
        <time>2026-05-11T09:51:09.000Z</time>
      </trkpt>
      <trkpt lat="45.32091" lon="4.50126">
        <ele>1058</ele>
        <time>2026-05-11T09:51:10.000Z</time>
      </trkpt>
      <trkpt lat="45.32091" lon="4.50124">
        <ele>1058.1999511719</ele>
        <time>2026-05-11T09:51:11.000Z</time>
      </trkpt>
      <trkpt lat="45.32091" lon="4.5012">
        <ele>1058.4000244141</ele>
        <time>2026-05-11T09:51:12.000Z</time>
      </trkpt>
      <trkpt lat="45.3209" lon="4.50117">
        <ele>1058.5999755859</ele>
        <time>2026-05-11T09:51:13.000Z</time>
      </trkpt>
      <trkpt lat="45.3209" lon="4.50114">
        <ele>1058.8000488281</ele>
        <time>2026-05-11T09:51:14.000Z</time>
      </trkpt>
      <trkpt lat="45.3209" lon="4.50111">
        <ele>1059</ele>
        <time>2026-05-11T09:51:15.000Z</time>
      </trkpt>
      <trkpt lat="45.3209" lon="4.50108">
        <ele>1059</ele>
        <time>2026-05-11T09:51:16.000Z</time>
      </trkpt>
      <trkpt lat="45.32089" lon="4.50105">
        <ele>1059.1999511719</ele>
        <time>2026-05-11T09:51:17.000Z</time>
      </trkpt>
      <trkpt lat="45.32089" lon="4.50102">
        <ele>1059.1999511719</ele>
        <time>2026-05-11T09:51:18.000Z</time>
      </trkpt>
      <trkpt lat="45.32089" lon="4.50099">
        <ele>1059.4000244141</ele>
        <time>2026-05-11T09:51:19.000Z</time>
      </trkpt>
      <trkpt lat="45.32088" lon="4.50096">
        <ele>1059.4000244141</ele>
        <time>2026-05-11T09:51:20.000Z</time>
      </trkpt>
      <trkpt lat="45.32088" lon="4.50093">
        <ele>1059.5999755859</ele>
        <time>2026-05-11T09:51:21.000Z</time>
      </trkpt>
      <trkpt lat="45.32087" lon="4.5009">
        <ele>1059.5999755859</ele>
        <time>2026-05-11T09:51:22.000Z</time>
      </trkpt>
      <trkpt lat="45.32087" lon="4.50087">
        <ele>1059.5999755859</ele>
        <time>2026-05-11T09:51:23.000Z</time>
      </trkpt>
      <trkpt lat="45.32087" lon="4.50084">
        <ele>1059.8000488281</ele>
        <time>2026-05-11T09:51:24.000Z</time>
      </trkpt>
      <trkpt lat="45.32086" lon="4.5008">
        <ele>1059.8000488281</ele>
        <time>2026-05-11T09:51:25.000Z</time>
      </trkpt>
      <trkpt lat="45.32086" lon="4.50077">
        <ele>1059.8000488281</ele>
        <time>2026-05-11T09:51:26.000Z</time>
      </trkpt>
      <trkpt lat="45.32085" lon="4.50074">
        <ele>1060</ele>
        <time>2026-05-11T09:51:27.000Z</time>
      </trkpt>
      <trkpt lat="45.32085" lon="4.50071">
        <ele>1060</ele>
        <time>2026-05-11T09:51:28.000Z</time>
      </trkpt>
      <trkpt lat="45.32085" lon="4.50068">
        <ele>1060</ele>
        <time>2026-05-11T09:51:29.000Z</time>
      </trkpt>
      <trkpt lat="45.32084" lon="4.50065">
        <ele>1060</ele>
        <time>2026-05-11T09:51:30.000Z</time>
      </trkpt>
      <trkpt lat="45.32084" lon="4.50061">
        <ele>1060</ele>
        <time>2026-05-11T09:51:31.000Z</time>
      </trkpt>
      <trkpt lat="45.32084" lon="4.50058">
        <ele>1060</ele>
        <time>2026-05-11T09:51:32.000Z</time>
      </trkpt>
      <trkpt lat="45.32083" lon="4.50055">
        <ele>1060</ele>
        <time>2026-05-11T09:51:33.000Z</time>
      </trkpt>
      <trkpt lat="45.32083" lon="4.50053">
        <ele>1060.1999511719</ele>
        <time>2026-05-11T09:51:34.000Z</time>
      </trkpt>
      <trkpt lat="45.32082" lon="4.5005">
        <ele>1060.1999511719</ele>
        <time>2026-05-11T09:51:35.000Z</time>
      </trkpt>
      <trkpt lat="45.32081" lon="4.50047">
        <ele>1060.4000244141</ele>
        <time>2026-05-11T09:51:36.000Z</time>
      </trkpt>
      <trkpt lat="45.3208" lon="4.50044">
        <ele>1060.5999755859</ele>
        <time>2026-05-11T09:51:37.000Z</time>
      </trkpt>
      <trkpt lat="45.32079" lon="4.50042">
        <ele>1060.5999755859</ele>
        <time>2026-05-11T09:51:38.000Z</time>
      </trkpt>
      <trkpt lat="45.32079" lon="4.50039">
        <ele>1060.8000488281</ele>
        <time>2026-05-11T09:51:39.000Z</time>
      </trkpt>
      <trkpt lat="45.32078" lon="4.50036">
        <ele>1060.8000488281</ele>
        <time>2026-05-11T09:51:40.000Z</time>
      </trkpt>
      <trkpt lat="45.32077" lon="4.50033">
        <ele>1060.8000488281</ele>
        <time>2026-05-11T09:51:41.000Z</time>
      </trkpt>
      <trkpt lat="45.32076" lon="4.50031">
        <ele>1061</ele>
        <time>2026-05-11T09:51:42.000Z</time>
      </trkpt>
      <trkpt lat="45.32076" lon="4.50028">
        <ele>1061.1999511719</ele>
        <time>2026-05-11T09:51:43.000Z</time>
      </trkpt>
      <trkpt lat="45.32076" lon="4.50026">
        <ele>1061.1999511719</ele>
        <time>2026-05-11T09:51:44.000Z</time>
      </trkpt>
      <trkpt lat="45.32075" lon="4.50023">
        <ele>1061.4000244141</ele>
        <time>2026-05-11T09:51:45.000Z</time>
      </trkpt>
      <trkpt lat="45.32075" lon="4.50021">
        <ele>1061.5999755859</ele>
        <time>2026-05-11T09:51:46.000Z</time>
      </trkpt>
      <trkpt lat="45.32074" lon="4.50018">
        <ele>1061.5999755859</ele>
        <time>2026-05-11T09:51:47.000Z</time>
      </trkpt>
      <trkpt lat="45.32074" lon="4.50015">
        <ele>1061.5999755859</ele>
        <time>2026-05-11T09:51:48.000Z</time>
      </trkpt>
      <trkpt lat="45.32073" lon="4.50012">
        <ele>1061.5999755859</ele>
        <time>2026-05-11T09:51:49.000Z</time>
      </trkpt>
      <trkpt lat="45.32072" lon="4.5001">
        <ele>1061.5999755859</ele>
        <time>2026-05-11T09:51:50.000Z</time>
      </trkpt>
      <trkpt lat="45.32071" lon="4.50007">
        <ele>1061.5999755859</ele>
        <time>2026-05-11T09:51:51.000Z</time>
      </trkpt>
      <trkpt lat="45.32071" lon="4.50005">
        <ele>1061.8000488281</ele>
        <time>2026-05-11T09:51:52.000Z</time>
      </trkpt>
      <trkpt lat="45.3207" lon="4.50002">
        <ele>1061.8000488281</ele>
        <time>2026-05-11T09:51:53.000Z</time>
      </trkpt>
      <trkpt lat="45.32069" lon="4.49999">
        <ele>1062</ele>
        <time>2026-05-11T09:51:54.000Z</time>
      </trkpt>
      <trkpt lat="45.32069" lon="4.49996">
        <ele>1062</ele>
        <time>2026-05-11T09:51:55.000Z</time>
      </trkpt>
      <trkpt lat="45.32068" lon="4.49994">
        <ele>1062</ele>
        <time>2026-05-11T09:51:56.000Z</time>
      </trkpt>
      <trkpt lat="45.32067" lon="4.49991">
        <ele>1062.1999511719</ele>
        <time>2026-05-11T09:51:57.000Z</time>
      </trkpt>
      <trkpt lat="45.32067" lon="4.49988">
        <ele>1062.1999511719</ele>
        <time>2026-05-11T09:51:58.000Z</time>
      </trkpt>
      <trkpt lat="45.32066" lon="4.49986">
        <ele>1062.1999511719</ele>
        <time>2026-05-11T09:51:59.000Z</time>
      </trkpt>
      <trkpt lat="45.32065" lon="4.49983">
        <ele>1062.1999511719</ele>
        <time>2026-05-11T09:52:00.000Z</time>
      </trkpt>
      <trkpt lat="45.32065" lon="4.49981">
        <ele>1062.1999511719</ele>
        <time>2026-05-11T09:52:01.000Z</time>
      </trkpt>
      <trkpt lat="45.32064" lon="4.49978">
        <ele>1062.1999511719</ele>
        <time>2026-05-11T09:52:02.000Z</time>
      </trkpt>
      <trkpt lat="45.32063" lon="4.49975">
        <ele>1062.1999511719</ele>
        <time>2026-05-11T09:52:03.000Z</time>
      </trkpt>
      <trkpt lat="45.32063" lon="4.49973">
        <ele>1062.4000244141</ele>
        <time>2026-05-11T09:52:04.000Z</time>
      </trkpt>
      <trkpt lat="45.32062" lon="4.4997">
        <ele>1062.4000244141</ele>
        <time>2026-05-11T09:52:05.000Z</time>
      </trkpt>
      <trkpt lat="45.32061" lon="4.49968">
        <ele>1062.5999755859</ele>
        <time>2026-05-11T09:52:06.000Z</time>
      </trkpt>
      <trkpt lat="45.32061" lon="4.49966">
        <ele>1062.8000488281</ele>
        <time>2026-05-11T09:52:07.000Z</time>
      </trkpt>
      <trkpt lat="45.3206" lon="4.49964">
        <ele>1062.8000488281</ele>
        <time>2026-05-11T09:52:08.000Z</time>
      </trkpt>
      <trkpt lat="45.32059" lon="4.49961">
        <ele>1062.8000488281</ele>
        <time>2026-05-11T09:52:09.000Z</time>
      </trkpt>
      <trkpt lat="45.32058" lon="4.49958">
        <ele>1063</ele>
        <time>2026-05-11T09:52:10.000Z</time>
      </trkpt>
      <trkpt lat="45.32057" lon="4.49956">
        <ele>1063.1999511719</ele>
        <time>2026-05-11T09:52:11.000Z</time>
      </trkpt>
      <trkpt lat="45.32056" lon="4.49953">
        <ele>1063.1999511719</ele>
        <time>2026-05-11T09:52:12.000Z</time>
      </trkpt>
      <trkpt lat="45.32056" lon="4.49951">
        <ele>1063.4000244141</ele>
        <time>2026-05-11T09:52:13.000Z</time>
      </trkpt>
      <trkpt lat="45.32055" lon="4.49948">
        <ele>1063.5999755859</ele>
        <time>2026-05-11T09:52:14.000Z</time>
      </trkpt>
      <trkpt lat="45.32054" lon="4.49945">
        <ele>1063.5999755859</ele>
        <time>2026-05-11T09:52:15.000Z</time>
      </trkpt>
      <trkpt lat="45.32053" lon="4.49942">
        <ele>1063.8000488281</ele>
        <time>2026-05-11T09:52:16.000Z</time>
      </trkpt>
      <trkpt lat="45.32053" lon="4.4994">
        <ele>1064</ele>
        <time>2026-05-11T09:52:17.000Z</time>
      </trkpt>
      <trkpt lat="45.32052" lon="4.49937">
        <ele>1064.1999511719</ele>
        <time>2026-05-11T09:52:18.000Z</time>
      </trkpt>
      <trkpt lat="45.32051" lon="4.49935">
        <ele>1064.1999511719</ele>
        <time>2026-05-11T09:52:19.000Z</time>
      </trkpt>
      <trkpt lat="45.3205" lon="4.49931">
        <ele>1064.4000244141</ele>
        <time>2026-05-11T09:52:20.000Z</time>
      </trkpt>
      <trkpt lat="45.32049" lon="4.49928">
        <ele>1064.4000244141</ele>
        <time>2026-05-11T09:52:21.000Z</time>
      </trkpt>
      <trkpt lat="45.32049" lon="4.49925">
        <ele>1064.5999755859</ele>
        <time>2026-05-11T09:52:22.000Z</time>
      </trkpt>
      <trkpt lat="45.32048" lon="4.49923">
        <ele>1064.5999755859</ele>
        <time>2026-05-11T09:52:23.000Z</time>
      </trkpt>
      <trkpt lat="45.32047" lon="4.4992">
        <ele>1064.5999755859</ele>
        <time>2026-05-11T09:52:24.000Z</time>
      </trkpt>
      <trkpt lat="45.32046" lon="4.49917">
        <ele>1064.8000488281</ele>
        <time>2026-05-11T09:52:25.000Z</time>
      </trkpt>
      <trkpt lat="45.32045" lon="4.49915">
        <ele>1064.8000488281</ele>
        <time>2026-05-11T09:52:26.000Z</time>
      </trkpt>
      <trkpt lat="45.32045" lon="4.49912">
        <ele>1065</ele>
        <time>2026-05-11T09:52:27.000Z</time>
      </trkpt>
      <trkpt lat="45.32045" lon="4.49908">
        <ele>1065</ele>
        <time>2026-05-11T09:52:28.000Z</time>
      </trkpt>
      <trkpt lat="45.32044" lon="4.49905">
        <ele>1065.1999511719</ele>
        <time>2026-05-11T09:52:29.000Z</time>
      </trkpt>
      <trkpt lat="45.32044" lon="4.49902">
        <ele>1065.1999511719</ele>
        <time>2026-05-11T09:52:30.000Z</time>
      </trkpt>
      <trkpt lat="45.32043" lon="4.49898">
        <ele>1065.1999511719</ele>
        <time>2026-05-11T09:52:31.000Z</time>
      </trkpt>
      <trkpt lat="45.32043" lon="4.49895">
        <ele>1065.4000244141</ele>
        <time>2026-05-11T09:52:32.000Z</time>
      </trkpt>
      <trkpt lat="45.32043" lon="4.49891">
        <ele>1065.5999755859</ele>
        <time>2026-05-11T09:52:33.000Z</time>
      </trkpt>
      <trkpt lat="45.32043" lon="4.49887">
        <ele>1065.5999755859</ele>
        <time>2026-05-11T09:52:34.000Z</time>
      </trkpt>
      <trkpt lat="45.32042" lon="4.49883">
        <ele>1065.8000488281</ele>
        <time>2026-05-11T09:52:35.000Z</time>
      </trkpt>
      <trkpt lat="45.32042" lon="4.4988">
        <ele>1066</ele>
        <time>2026-05-11T09:52:36.000Z</time>
      </trkpt>
      <trkpt lat="45.32042" lon="4.49877">
        <ele>1066.1999511719</ele>
        <time>2026-05-11T09:52:37.000Z</time>
      </trkpt>
      <trkpt lat="45.32042" lon="4.49873">
        <ele>1066.4000244141</ele>
        <time>2026-05-11T09:52:38.000Z</time>
      </trkpt>
      <trkpt lat="45.32042" lon="4.49869">
        <ele>1066.8000488281</ele>
        <time>2026-05-11T09:52:39.000Z</time>
      </trkpt>
      <trkpt lat="45.32042" lon="4.49866">
        <ele>1067</ele>
        <time>2026-05-11T09:52:40.000Z</time>
      </trkpt>
      <trkpt lat="45.32042" lon="4.49863">
        <ele>1067.1999511719</ele>
        <time>2026-05-11T09:52:41.000Z</time>
      </trkpt>
      <trkpt lat="45.32042" lon="4.49859">
        <ele>1067.4000244141</ele>
        <time>2026-05-11T09:52:42.000Z</time>
      </trkpt>
      <trkpt lat="45.32043" lon="4.49856">
        <ele>1067.5999755859</ele>
        <time>2026-05-11T09:52:43.000Z</time>
      </trkpt>
      <trkpt lat="45.32043" lon="4.49852">
        <ele>1067.8000488281</ele>
        <time>2026-05-11T09:52:44.000Z</time>
      </trkpt>
      <trkpt lat="45.32043" lon="4.49848">
        <ele>1068</ele>
        <time>2026-05-11T09:52:45.000Z</time>
      </trkpt>
      <trkpt lat="45.32043" lon="4.49845">
        <ele>1068.1999511719</ele>
        <time>2026-05-11T09:52:46.000Z</time>
      </trkpt>
      <trkpt lat="45.32043" lon="4.49842">
        <ele>1068.4000244141</ele>
        <time>2026-05-11T09:52:47.000Z</time>
      </trkpt>
      <trkpt lat="45.32043" lon="4.49838">
        <ele>1068.8000488281</ele>
        <time>2026-05-11T09:52:48.000Z</time>
      </trkpt>
      <trkpt lat="45.32043" lon="4.49835">
        <ele>1069</ele>
        <time>2026-05-11T09:52:49.000Z</time>
      </trkpt>
      <trkpt lat="45.32043" lon="4.49832">
        <ele>1069.1999511719</ele>
        <time>2026-05-11T09:52:50.000Z</time>
      </trkpt>
      <trkpt lat="45.32043" lon="4.49828">
        <ele>1069.4000244141</ele>
        <time>2026-05-11T09:52:51.000Z</time>
      </trkpt>
      <trkpt lat="45.32043" lon="4.49825">
        <ele>1069.5999755859</ele>
        <time>2026-05-11T09:52:52.000Z</time>
      </trkpt>
      <trkpt lat="45.32043" lon="4.49821">
        <ele>1070</ele>
        <time>2026-05-11T09:52:53.000Z</time>
      </trkpt>
      <trkpt lat="45.32044" lon="4.49818">
        <ele>1070.1999511719</ele>
        <time>2026-05-11T09:52:54.000Z</time>
      </trkpt>
      <trkpt lat="45.32044" lon="4.49814">
        <ele>1070.4000244141</ele>
        <time>2026-05-11T09:52:55.000Z</time>
      </trkpt>
      <trkpt lat="45.32044" lon="4.49811">
        <ele>1070.5999755859</ele>
        <time>2026-05-11T09:52:56.000Z</time>
      </trkpt>
      <trkpt lat="45.32044" lon="4.49808">
        <ele>1070.5999755859</ele>
        <time>2026-05-11T09:52:57.000Z</time>
      </trkpt>
      <trkpt lat="45.32044" lon="4.49805">
        <ele>1070.8000488281</ele>
        <time>2026-05-11T09:52:58.000Z</time>
      </trkpt>
      <trkpt lat="45.32044" lon="4.49801">
        <ele>1071</ele>
        <time>2026-05-11T09:52:59.000Z</time>
      </trkpt>
      <trkpt lat="45.32045" lon="4.49798">
        <ele>1071.1999511719</ele>
        <time>2026-05-11T09:53:00.000Z</time>
      </trkpt>
      <trkpt lat="45.32045" lon="4.49794">
        <ele>1071.4000244141</ele>
        <time>2026-05-11T09:53:01.000Z</time>
      </trkpt>
      <trkpt lat="45.32045" lon="4.49791">
        <ele>1071.5999755859</ele>
        <time>2026-05-11T09:53:02.000Z</time>
      </trkpt>
      <trkpt lat="45.32046" lon="4.49788">
        <ele>1071.8000488281</ele>
        <time>2026-05-11T09:53:03.000Z</time>
      </trkpt>
      <trkpt lat="45.32047" lon="4.49785">
        <ele>1071.8000488281</ele>
        <time>2026-05-11T09:53:04.000Z</time>
      </trkpt>
      <trkpt lat="45.32047" lon="4.49781">
        <ele>1072</ele>
        <time>2026-05-11T09:53:05.000Z</time>
      </trkpt>
      <trkpt lat="45.32048" lon="4.49778">
        <ele>1072.1999511719</ele>
        <time>2026-05-11T09:53:06.000Z</time>
      </trkpt>
      <trkpt lat="45.32048" lon="4.49775">
        <ele>1072.4000244141</ele>
        <time>2026-05-11T09:53:07.000Z</time>
      </trkpt>
      <trkpt lat="45.32049" lon="4.49771">
        <ele>1072.4000244141</ele>
        <time>2026-05-11T09:53:08.000Z</time>
      </trkpt>
      <trkpt lat="45.32049" lon="4.49768">
        <ele>1072.5999755859</ele>
        <time>2026-05-11T09:53:09.000Z</time>
      </trkpt>
      <trkpt lat="45.3205" lon="4.49765">
        <ele>1072.8000488281</ele>
        <time>2026-05-11T09:53:10.000Z</time>
      </trkpt>
      <trkpt lat="45.32051" lon="4.49761">
        <ele>1073</ele>
        <time>2026-05-11T09:53:11.000Z</time>
      </trkpt>
      <trkpt lat="45.32052" lon="4.49758">
        <ele>1073.1999511719</ele>
        <time>2026-05-11T09:53:12.000Z</time>
      </trkpt>
      <trkpt lat="45.32052" lon="4.49754">
        <ele>1073.4000244141</ele>
        <time>2026-05-11T09:53:13.000Z</time>
      </trkpt>
      <trkpt lat="45.32053" lon="4.49751">
        <ele>1073.5999755859</ele>
        <time>2026-05-11T09:53:14.000Z</time>
      </trkpt>
      <trkpt lat="45.32054" lon="4.49748">
        <ele>1073.8000488281</ele>
        <time>2026-05-11T09:53:15.000Z</time>
      </trkpt>
      <trkpt lat="45.32055" lon="4.49744">
        <ele>1074</ele>
        <time>2026-05-11T09:53:16.000Z</time>
      </trkpt>
      <trkpt lat="45.32056" lon="4.49741">
        <ele>1074.1999511719</ele>
        <time>2026-05-11T09:53:17.000Z</time>
      </trkpt>
      <trkpt lat="45.32057" lon="4.49738">
        <ele>1074.4000244141</ele>
        <time>2026-05-11T09:53:18.000Z</time>
      </trkpt>
      <trkpt lat="45.32057" lon="4.49734">
        <ele>1074.5999755859</ele>
        <time>2026-05-11T09:53:19.000Z</time>
      </trkpt>
      <trkpt lat="45.32058" lon="4.49731">
        <ele>1074.8000488281</ele>
        <time>2026-05-11T09:53:20.000Z</time>
      </trkpt>
      <trkpt lat="45.32059" lon="4.49727">
        <ele>1074.8000488281</ele>
        <time>2026-05-11T09:53:21.000Z</time>
      </trkpt>
      <trkpt lat="45.3206" lon="4.49724">
        <ele>1075</ele>
        <time>2026-05-11T09:53:22.000Z</time>
      </trkpt>
      <trkpt lat="45.32061" lon="4.4972">
        <ele>1075.1999511719</ele>
        <time>2026-05-11T09:53:23.000Z</time>
      </trkpt>
      <trkpt lat="45.32061" lon="4.49717">
        <ele>1075.1999511719</ele>
        <time>2026-05-11T09:53:24.000Z</time>
      </trkpt>
      <trkpt lat="45.32062" lon="4.49713">
        <ele>1075.4000244141</ele>
        <time>2026-05-11T09:53:25.000Z</time>
      </trkpt>
      <trkpt lat="45.32063" lon="4.4971">
        <ele>1075.5999755859</ele>
        <time>2026-05-11T09:53:26.000Z</time>
      </trkpt>
      <trkpt lat="45.32064" lon="4.49706">
        <ele>1075.8000488281</ele>
        <time>2026-05-11T09:53:27.000Z</time>
      </trkpt>
      <trkpt lat="45.32065" lon="4.49703">
        <ele>1075.8000488281</ele>
        <time>2026-05-11T09:53:28.000Z</time>
      </trkpt>
      <trkpt lat="45.32066" lon="4.497">
        <ele>1076</ele>
        <time>2026-05-11T09:53:29.000Z</time>
      </trkpt>
      <trkpt lat="45.32067" lon="4.49697">
        <ele>1076.1999511719</ele>
        <time>2026-05-11T09:53:30.000Z</time>
      </trkpt>
      <trkpt lat="45.32068" lon="4.49694">
        <ele>1076.4000244141</ele>
        <time>2026-05-11T09:53:31.000Z</time>
      </trkpt>
      <trkpt lat="45.32069" lon="4.4969">
        <ele>1076.5999755859</ele>
        <time>2026-05-11T09:53:32.000Z</time>
      </trkpt>
      <trkpt lat="45.3207" lon="4.49687">
        <ele>1076.8000488281</ele>
        <time>2026-05-11T09:53:33.000Z</time>
      </trkpt>
      <trkpt lat="45.32071" lon="4.49684">
        <ele>1076.8000488281</ele>
        <time>2026-05-11T09:53:34.000Z</time>
      </trkpt>
      <trkpt lat="45.32072" lon="4.4968">
        <ele>1077</ele>
        <time>2026-05-11T09:53:35.000Z</time>
      </trkpt>
      <trkpt lat="45.32073" lon="4.49677">
        <ele>1077.1999511719</ele>
        <time>2026-05-11T09:53:36.000Z</time>
      </trkpt>
      <trkpt lat="45.32074" lon="4.49673">
        <ele>1077.4000244141</ele>
        <time>2026-05-11T09:53:37.000Z</time>
      </trkpt>
      <trkpt lat="45.32075" lon="4.4967">
        <ele>1077.5999755859</ele>
        <time>2026-05-11T09:53:38.000Z</time>
      </trkpt>
      <trkpt lat="45.32076" lon="4.49667">
        <ele>1077.5999755859</ele>
        <time>2026-05-11T09:53:39.000Z</time>
      </trkpt>
      <trkpt lat="45.32077" lon="4.49663">
        <ele>1077.8000488281</ele>
        <time>2026-05-11T09:53:40.000Z</time>
      </trkpt>
      <trkpt lat="45.32078" lon="4.4966">
        <ele>1077.8000488281</ele>
        <time>2026-05-11T09:53:41.000Z</time>
      </trkpt>
      <trkpt lat="45.32079" lon="4.49657">
        <ele>1078</ele>
        <time>2026-05-11T09:53:42.000Z</time>
      </trkpt>
      <trkpt lat="45.3208" lon="4.49654">
        <ele>1078.1999511719</ele>
        <time>2026-05-11T09:53:43.000Z</time>
      </trkpt>
      <trkpt lat="45.32081" lon="4.4965">
        <ele>1078.4000244141</ele>
        <time>2026-05-11T09:53:44.000Z</time>
      </trkpt>
      <trkpt lat="45.32082" lon="4.49647">
        <ele>1078.5999755859</ele>
        <time>2026-05-11T09:53:45.000Z</time>
      </trkpt>
      <trkpt lat="45.32083" lon="4.49644">
        <ele>1078.5999755859</ele>
        <time>2026-05-11T09:53:46.000Z</time>
      </trkpt>
      <trkpt lat="45.32084" lon="4.49641">
        <ele>1078.8000488281</ele>
        <time>2026-05-11T09:53:47.000Z</time>
      </trkpt>
      <trkpt lat="45.32085" lon="4.49638">
        <ele>1079</ele>
        <time>2026-05-11T09:53:48.000Z</time>
      </trkpt>
      <trkpt lat="45.32086" lon="4.49635">
        <ele>1079</ele>
        <time>2026-05-11T09:53:49.000Z</time>
      </trkpt>
      <trkpt lat="45.32087" lon="4.49631">
        <ele>1079.1999511719</ele>
        <time>2026-05-11T09:53:50.000Z</time>
      </trkpt>
      <trkpt lat="45.32088" lon="4.49628">
        <ele>1079.4000244141</ele>
        <time>2026-05-11T09:53:51.000Z</time>
      </trkpt>
      <trkpt lat="45.32089" lon="4.49625">
        <ele>1079.4000244141</ele>
        <time>2026-05-11T09:53:52.000Z</time>
      </trkpt>
      <trkpt lat="45.3209" lon="4.49622">
        <ele>1079.5999755859</ele>
        <time>2026-05-11T09:53:53.000Z</time>
      </trkpt>
      <trkpt lat="45.32091" lon="4.49619">
        <ele>1079.5999755859</ele>
        <time>2026-05-11T09:53:54.000Z</time>
      </trkpt>
      <trkpt lat="45.32092" lon="4.49615">
        <ele>1079.8000488281</ele>
        <time>2026-05-11T09:53:55.000Z</time>
      </trkpt>
      <trkpt lat="45.32093" lon="4.49612">
        <ele>1080</ele>
        <time>2026-05-11T09:53:56.000Z</time>
      </trkpt>
      <trkpt lat="45.32094" lon="4.49609">
        <ele>1080.1999511719</ele>
        <time>2026-05-11T09:53:57.000Z</time>
      </trkpt>
      <trkpt lat="45.32095" lon="4.49605">
        <ele>1080.4000244141</ele>
        <time>2026-05-11T09:53:58.000Z</time>
      </trkpt>
      <trkpt lat="45.32096" lon="4.49601">
        <ele>1080.5999755859</ele>
        <time>2026-05-11T09:53:59.000Z</time>
      </trkpt>
      <trkpt lat="45.32097" lon="4.49598">
        <ele>1080.8000488281</ele>
        <time>2026-05-11T09:54:00.000Z</time>
      </trkpt>
      <trkpt lat="45.32098" lon="4.49594">
        <ele>1081</ele>
        <time>2026-05-11T09:54:01.000Z</time>
      </trkpt>
      <trkpt lat="45.32099" lon="4.49591">
        <ele>1081.1999511719</ele>
        <time>2026-05-11T09:54:02.000Z</time>
      </trkpt>
      <trkpt lat="45.321" lon="4.49588">
        <ele>1081.4000244141</ele>
        <time>2026-05-11T09:54:03.000Z</time>
      </trkpt>
      <trkpt lat="45.32101" lon="4.49585">
        <ele>1081.4000244141</ele>
        <time>2026-05-11T09:54:04.000Z</time>
      </trkpt>
      <trkpt lat="45.32102" lon="4.49582">
        <ele>1081.5999755859</ele>
        <time>2026-05-11T09:54:05.000Z</time>
      </trkpt>
      <trkpt lat="45.32103" lon="4.49578">
        <ele>1081.8000488281</ele>
        <time>2026-05-11T09:54:06.000Z</time>
      </trkpt>
      <trkpt lat="45.32104" lon="4.49575">
        <ele>1081.8000488281</ele>
        <time>2026-05-11T09:54:07.000Z</time>
      </trkpt>
      <trkpt lat="45.32105" lon="4.49571">
        <ele>1082</ele>
        <time>2026-05-11T09:54:08.000Z</time>
      </trkpt>
      <trkpt lat="45.32106" lon="4.49568">
        <ele>1082.1999511719</ele>
        <time>2026-05-11T09:54:09.000Z</time>
      </trkpt>
      <trkpt lat="45.32107" lon="4.49565">
        <ele>1082.1999511719</ele>
        <time>2026-05-11T09:54:10.000Z</time>
      </trkpt>
      <trkpt lat="45.32108" lon="4.49562">
        <ele>1082.4000244141</ele>
        <time>2026-05-11T09:54:11.000Z</time>
      </trkpt>
      <trkpt lat="45.3211" lon="4.49559">
        <ele>1082.5999755859</ele>
        <time>2026-05-11T09:54:12.000Z</time>
      </trkpt>
      <trkpt lat="45.32111" lon="4.49556">
        <ele>1082.8000488281</ele>
        <time>2026-05-11T09:54:13.000Z</time>
      </trkpt>
      <trkpt lat="45.32113" lon="4.49553">
        <ele>1083</ele>
        <time>2026-05-11T09:54:14.000Z</time>
      </trkpt>
      <trkpt lat="45.32114" lon="4.49549">
        <ele>1083.1999511719</ele>
        <time>2026-05-11T09:54:15.000Z</time>
      </trkpt>
      <trkpt lat="45.32115" lon="4.49546">
        <ele>1083.1999511719</ele>
        <time>2026-05-11T09:54:16.000Z</time>
      </trkpt>
      <trkpt lat="45.32116" lon="4.49543">
        <ele>1083.4000244141</ele>
        <time>2026-05-11T09:54:17.000Z</time>
      </trkpt>
      <trkpt lat="45.32117" lon="4.4954">
        <ele>1083.5999755859</ele>
        <time>2026-05-11T09:54:18.000Z</time>
      </trkpt>
      <trkpt lat="45.32119" lon="4.49536">
        <ele>1083.8000488281</ele>
        <time>2026-05-11T09:54:19.000Z</time>
      </trkpt>
      <trkpt lat="45.3212" lon="4.49533">
        <ele>1084</ele>
        <time>2026-05-11T09:54:20.000Z</time>
      </trkpt>
      <trkpt lat="45.32121" lon="4.4953">
        <ele>1084.1999511719</ele>
        <time>2026-05-11T09:54:21.000Z</time>
      </trkpt>
      <trkpt lat="45.32122" lon="4.49526">
        <ele>1084.1999511719</ele>
        <time>2026-05-11T09:54:22.000Z</time>
      </trkpt>
      <trkpt lat="45.32123" lon="4.49523">
        <ele>1084.4000244141</ele>
        <time>2026-05-11T09:54:23.000Z</time>
      </trkpt>
      <trkpt lat="45.32124" lon="4.4952">
        <ele>1084.5999755859</ele>
        <time>2026-05-11T09:54:24.000Z</time>
      </trkpt>
      <trkpt lat="45.32125" lon="4.49516">
        <ele>1084.5999755859</ele>
        <time>2026-05-11T09:54:25.000Z</time>
      </trkpt>
      <trkpt lat="45.32126" lon="4.49513">
        <ele>1084.5999755859</ele>
        <time>2026-05-11T09:54:26.000Z</time>
      </trkpt>
      <trkpt lat="45.32127" lon="4.4951">
        <ele>1084.5999755859</ele>
        <time>2026-05-11T09:54:27.000Z</time>
      </trkpt>
      <trkpt lat="45.32128" lon="4.49506">
        <ele>1084.8000488281</ele>
        <time>2026-05-11T09:54:28.000Z</time>
      </trkpt>
      <trkpt lat="45.32129" lon="4.49503">
        <ele>1084.8000488281</ele>
        <time>2026-05-11T09:54:29.000Z</time>
      </trkpt>
      <trkpt lat="45.32131" lon="4.495">
        <ele>1084.8000488281</ele>
        <time>2026-05-11T09:54:30.000Z</time>
      </trkpt>
      <trkpt lat="45.32132" lon="4.49496">
        <ele>1085</ele>
        <time>2026-05-11T09:54:31.000Z</time>
      </trkpt>
      <trkpt lat="45.32132" lon="4.49493">
        <ele>1085</ele>
        <time>2026-05-11T09:54:32.000Z</time>
      </trkpt>
      <trkpt lat="45.32133" lon="4.49489">
        <ele>1085.1999511719</ele>
        <time>2026-05-11T09:54:33.000Z</time>
      </trkpt>
      <trkpt lat="45.32134" lon="4.49486">
        <ele>1085.1999511719</ele>
        <time>2026-05-11T09:54:34.000Z</time>
      </trkpt>
      <trkpt lat="45.32135" lon="4.49483">
        <ele>1085.1999511719</ele>
        <time>2026-05-11T09:54:35.000Z</time>
      </trkpt>
      <trkpt lat="45.32136" lon="4.49479">
        <ele>1085.1999511719</ele>
        <time>2026-05-11T09:54:36.000Z</time>
      </trkpt>
      <trkpt lat="45.32137" lon="4.49476">
        <ele>1085.1999511719</ele>
        <time>2026-05-11T09:54:37.000Z</time>
      </trkpt>
      <trkpt lat="45.32138" lon="4.49472">
        <ele>1085.1999511719</ele>
        <time>2026-05-11T09:54:38.000Z</time>
      </trkpt>
      <trkpt lat="45.32139" lon="4.49469">
        <ele>1085.1999511719</ele>
        <time>2026-05-11T09:54:39.000Z</time>
      </trkpt>
      <trkpt lat="45.3214" lon="4.49466">
        <ele>1085.1999511719</ele>
        <time>2026-05-11T09:54:40.000Z</time>
      </trkpt>
      <trkpt lat="45.32142" lon="4.49463">
        <ele>1085.1999511719</ele>
        <time>2026-05-11T09:54:41.000Z</time>
      </trkpt>
      <trkpt lat="45.32143" lon="4.4946">
        <ele>1085.4000244141</ele>
        <time>2026-05-11T09:54:42.000Z</time>
      </trkpt>
      <trkpt lat="45.32144" lon="4.49457">
        <ele>1085.5999755859</ele>
        <time>2026-05-11T09:54:43.000Z</time>
      </trkpt>
      <trkpt lat="45.32146" lon="4.49454">
        <ele>1085.5999755859</ele>
        <time>2026-05-11T09:54:44.000Z</time>
      </trkpt>
      <trkpt lat="45.32147" lon="4.49451">
        <ele>1085.8000488281</ele>
        <time>2026-05-11T09:54:45.000Z</time>
      </trkpt>
      <trkpt lat="45.32148" lon="4.49448">
        <ele>1086</ele>
        <time>2026-05-11T09:54:46.000Z</time>
      </trkpt>
      <trkpt lat="45.32149" lon="4.49444">
        <ele>1086</ele>
        <time>2026-05-11T09:54:47.000Z</time>
      </trkpt>
      <trkpt lat="45.32151" lon="4.49441">
        <ele>1086.1999511719</ele>
        <time>2026-05-11T09:54:48.000Z</time>
      </trkpt>
      <trkpt lat="45.32152" lon="4.49437">
        <ele>1086.4000244141</ele>
        <time>2026-05-11T09:54:49.000Z</time>
      </trkpt>
      <trkpt lat="45.32153" lon="4.49433">
        <ele>1086.5999755859</ele>
        <time>2026-05-11T09:54:50.000Z</time>
      </trkpt>
      <trkpt lat="45.32154" lon="4.4943">
        <ele>1086.5999755859</ele>
        <time>2026-05-11T09:54:51.000Z</time>
      </trkpt>
      <trkpt lat="45.32156" lon="4.49427">
        <ele>1086.8000488281</ele>
        <time>2026-05-11T09:54:52.000Z</time>
      </trkpt>
      <trkpt lat="45.32158" lon="4.49424">
        <ele>1086.8000488281</ele>
        <time>2026-05-11T09:54:53.000Z</time>
      </trkpt>
      <trkpt lat="45.32159" lon="4.4942">
        <ele>1087</ele>
        <time>2026-05-11T09:54:54.000Z</time>
      </trkpt>
      <trkpt lat="45.3216" lon="4.49418">
        <ele>1087.1999511719</ele>
        <time>2026-05-11T09:54:55.000Z</time>
      </trkpt>
      <trkpt lat="45.32162" lon="4.49415">
        <ele>1087.4000244141</ele>
        <time>2026-05-11T09:54:56.000Z</time>
      </trkpt>
      <trkpt lat="45.32163" lon="4.49412">
        <ele>1087.5999755859</ele>
        <time>2026-05-11T09:54:57.000Z</time>
      </trkpt>
      <trkpt lat="45.32164" lon="4.49409">
        <ele>1087.5999755859</ele>
        <time>2026-05-11T09:54:58.000Z</time>
      </trkpt>
      <trkpt lat="45.32165" lon="4.49406">
        <ele>1087.5999755859</ele>
        <time>2026-05-11T09:54:59.000Z</time>
      </trkpt>
      <trkpt lat="45.32167" lon="4.49404">
        <ele>1087.5999755859</ele>
        <time>2026-05-11T09:55:00.000Z</time>
      </trkpt>
      <trkpt lat="45.32168" lon="4.494">
        <ele>1087.8000488281</ele>
        <time>2026-05-11T09:55:01.000Z</time>
      </trkpt>
      <trkpt lat="45.32169" lon="4.49397">
        <ele>1087.8000488281</ele>
        <time>2026-05-11T09:55:02.000Z</time>
      </trkpt>
      <trkpt lat="45.3217" lon="4.49394">
        <ele>1088</ele>
        <time>2026-05-11T09:55:03.000Z</time>
      </trkpt>
      <trkpt lat="45.32172" lon="4.49391">
        <ele>1088.1999511719</ele>
        <time>2026-05-11T09:55:04.000Z</time>
      </trkpt>
      <trkpt lat="45.32173" lon="4.49389">
        <ele>1088.5999755859</ele>
        <time>2026-05-11T09:55:05.000Z</time>
      </trkpt>
      <trkpt lat="45.32175" lon="4.49386">
        <ele>1088.8000488281</ele>
        <time>2026-05-11T09:55:06.000Z</time>
      </trkpt>
      <trkpt lat="45.32176" lon="4.49383">
        <ele>1089</ele>
        <time>2026-05-11T09:55:07.000Z</time>
      </trkpt>
      <trkpt lat="45.32178" lon="4.4938">
        <ele>1089.1999511719</ele>
        <time>2026-05-11T09:55:08.000Z</time>
      </trkpt>
      <trkpt lat="45.3218" lon="4.49378">
        <ele>1089.4000244141</ele>
        <time>2026-05-11T09:55:09.000Z</time>
      </trkpt>
      <trkpt lat="45.32182" lon="4.49375">
        <ele>1089.5999755859</ele>
        <time>2026-05-11T09:55:10.000Z</time>
      </trkpt>
      <trkpt lat="45.32183" lon="4.49371">
        <ele>1089.5999755859</ele>
        <time>2026-05-11T09:55:11.000Z</time>
      </trkpt>
      <trkpt lat="45.32185" lon="4.49368">
        <ele>1089.8000488281</ele>
        <time>2026-05-11T09:55:12.000Z</time>
      </trkpt>
      <trkpt lat="45.32186" lon="4.49365">
        <ele>1090</ele>
        <time>2026-05-11T09:55:13.000Z</time>
      </trkpt>
      <trkpt lat="45.32188" lon="4.49363">
        <ele>1090.1999511719</ele>
        <time>2026-05-11T09:55:14.000Z</time>
      </trkpt>
      <trkpt lat="45.3219" lon="4.4936">
        <ele>1090.4000244141</ele>
        <time>2026-05-11T09:55:15.000Z</time>
      </trkpt>
      <trkpt lat="45.32191" lon="4.49357">
        <ele>1090.5999755859</ele>
        <time>2026-05-11T09:55:16.000Z</time>
      </trkpt>
      <trkpt lat="45.32192" lon="4.49354">
        <ele>1090.5999755859</ele>
        <time>2026-05-11T09:55:17.000Z</time>
      </trkpt>
      <trkpt lat="45.32193" lon="4.49351">
        <ele>1090.8000488281</ele>
        <time>2026-05-11T09:55:18.000Z</time>
      </trkpt>
      <trkpt lat="45.32195" lon="4.49348">
        <ele>1091</ele>
        <time>2026-05-11T09:55:19.000Z</time>
      </trkpt>
      <trkpt lat="45.32196" lon="4.49345">
        <ele>1091.1999511719</ele>
        <time>2026-05-11T09:55:20.000Z</time>
      </trkpt>
      <trkpt lat="45.32198" lon="4.49342">
        <ele>1091.4000244141</ele>
        <time>2026-05-11T09:55:21.000Z</time>
      </trkpt>
      <trkpt lat="45.32199" lon="4.49339">
        <ele>1091.5999755859</ele>
        <time>2026-05-11T09:55:22.000Z</time>
      </trkpt>
      <trkpt lat="45.32201" lon="4.49336">
        <ele>1091.8000488281</ele>
        <time>2026-05-11T09:55:23.000Z</time>
      </trkpt>
      <trkpt lat="45.32202" lon="4.49333">
        <ele>1092</ele>
        <time>2026-05-11T09:55:24.000Z</time>
      </trkpt>
      <trkpt lat="45.32204" lon="4.49331">
        <ele>1092.1999511719</ele>
        <time>2026-05-11T09:55:25.000Z</time>
      </trkpt>
      <trkpt lat="45.32205" lon="4.49328">
        <ele>1092.1999511719</ele>
        <time>2026-05-11T09:55:26.000Z</time>
      </trkpt>
      <trkpt lat="45.32207" lon="4.49325">
        <ele>1092.4000244141</ele>
        <time>2026-05-11T09:55:27.000Z</time>
      </trkpt>
      <trkpt lat="45.32209" lon="4.49322">
        <ele>1092.5999755859</ele>
        <time>2026-05-11T09:55:28.000Z</time>
      </trkpt>
      <trkpt lat="45.3221" lon="4.49319">
        <ele>1092.5999755859</ele>
        <time>2026-05-11T09:55:29.000Z</time>
      </trkpt>
      <trkpt lat="45.32212" lon="4.49316">
        <ele>1092.8000488281</ele>
        <time>2026-05-11T09:55:30.000Z</time>
      </trkpt>
      <trkpt lat="45.32213" lon="4.49314">
        <ele>1093</ele>
        <time>2026-05-11T09:55:31.000Z</time>
      </trkpt>
      <trkpt lat="45.32215" lon="4.49311">
        <ele>1093.1999511719</ele>
        <time>2026-05-11T09:55:32.000Z</time>
      </trkpt>
      <trkpt lat="45.32217" lon="4.49308">
        <ele>1093.1999511719</ele>
        <time>2026-05-11T09:55:33.000Z</time>
      </trkpt>
      <trkpt lat="45.32218" lon="4.49305">
        <ele>1093.4000244141</ele>
        <time>2026-05-11T09:55:34.000Z</time>
      </trkpt>
      <trkpt lat="45.3222" lon="4.49303">
        <ele>1093.5999755859</ele>
        <time>2026-05-11T09:55:35.000Z</time>
      </trkpt>
      <trkpt lat="45.32222" lon="4.493">
        <ele>1093.8000488281</ele>
        <time>2026-05-11T09:55:36.000Z</time>
      </trkpt>
      <trkpt lat="45.32223" lon="4.49297">
        <ele>1093.8000488281</ele>
        <time>2026-05-11T09:55:37.000Z</time>
      </trkpt>
      <trkpt lat="45.32225" lon="4.49295">
        <ele>1094</ele>
        <time>2026-05-11T09:55:38.000Z</time>
      </trkpt>
      <trkpt lat="45.32227" lon="4.49293">
        <ele>1094</ele>
        <time>2026-05-11T09:55:39.000Z</time>
      </trkpt>
      <trkpt lat="45.32229" lon="4.4929">
        <ele>1094</ele>
        <time>2026-05-11T09:55:40.000Z</time>
      </trkpt>
      <trkpt lat="45.32231" lon="4.49287">
        <ele>1094.1999511719</ele>
        <time>2026-05-11T09:55:41.000Z</time>
      </trkpt>
      <trkpt lat="45.32233" lon="4.49284">
        <ele>1094.1999511719</ele>
        <time>2026-05-11T09:55:42.000Z</time>
      </trkpt>
      <trkpt lat="45.32234" lon="4.49281">
        <ele>1094.1999511719</ele>
        <time>2026-05-11T09:55:43.000Z</time>
      </trkpt>
      <trkpt lat="45.32236" lon="4.49278">
        <ele>1094.4000244141</ele>
        <time>2026-05-11T09:55:44.000Z</time>
      </trkpt>
      <trkpt lat="45.32238" lon="4.49276">
        <ele>1094.4000244141</ele>
        <time>2026-05-11T09:55:45.000Z</time>
      </trkpt>
      <trkpt lat="45.3224" lon="4.49274">
        <ele>1094.5999755859</ele>
        <time>2026-05-11T09:55:46.000Z</time>
      </trkpt>
      <trkpt lat="45.32242" lon="4.49271">
        <ele>1094.5999755859</ele>
        <time>2026-05-11T09:55:47.000Z</time>
      </trkpt>
      <trkpt lat="45.32243" lon="4.4927">
        <ele>1094.8000488281</ele>
        <time>2026-05-11T09:55:48.000Z</time>
      </trkpt>
      <trkpt lat="45.32245" lon="4.49269">
        <ele>1095</ele>
        <time>2026-05-11T09:55:49.000Z</time>
      </trkpt>
      <trkpt lat="45.32246" lon="4.49267">
        <ele>1095</ele>
        <time>2026-05-11T09:55:50.000Z</time>
      </trkpt>
      <trkpt lat="45.32248" lon="4.49265">
        <ele>1095</ele>
        <time>2026-05-11T09:55:51.000Z</time>
      </trkpt>
      <trkpt lat="45.3225" lon="4.49263">
        <ele>1095.1999511719</ele>
        <time>2026-05-11T09:55:52.000Z</time>
      </trkpt>
      <trkpt lat="45.32252" lon="4.4926">
        <ele>1095.4000244141</ele>
        <time>2026-05-11T09:55:53.000Z</time>
      </trkpt>
      <trkpt lat="45.32253" lon="4.49258">
        <ele>1095.4000244141</ele>
        <time>2026-05-11T09:55:54.000Z</time>
      </trkpt>
      <trkpt lat="45.32255" lon="4.49255">
        <ele>1095.5999755859</ele>
        <time>2026-05-11T09:55:55.000Z</time>
      </trkpt>
      <trkpt lat="45.32257" lon="4.49253">
        <ele>1095.8000488281</ele>
        <time>2026-05-11T09:55:56.000Z</time>
      </trkpt>
      <trkpt lat="45.32258" lon="4.49251">
        <ele>1096</ele>
        <time>2026-05-11T09:55:57.000Z</time>
      </trkpt>
      <trkpt lat="45.3226" lon="4.49249">
        <ele>1096</ele>
        <time>2026-05-11T09:55:58.000Z</time>
      </trkpt>
      <trkpt lat="45.32262" lon="4.49246">
        <ele>1096.1999511719</ele>
        <time>2026-05-11T09:55:59.000Z</time>
      </trkpt>
      <trkpt lat="45.32263" lon="4.49244">
        <ele>1096.1999511719</ele>
        <time>2026-05-11T09:56:00.000Z</time>
      </trkpt>
      <trkpt lat="45.32265" lon="4.49242">
        <ele>1096.1999511719</ele>
        <time>2026-05-11T09:56:01.000Z</time>
      </trkpt>
      <trkpt lat="45.32267" lon="4.4924">
        <ele>1096.4000244141</ele>
        <time>2026-05-11T09:56:02.000Z</time>
      </trkpt>
      <trkpt lat="45.32269" lon="4.49238">
        <ele>1096.4000244141</ele>
        <time>2026-05-11T09:56:03.000Z</time>
      </trkpt>
      <trkpt lat="45.32271" lon="4.49235">
        <ele>1096.5999755859</ele>
        <time>2026-05-11T09:56:04.000Z</time>
      </trkpt>
      <trkpt lat="45.32273" lon="4.49233">
        <ele>1096.8000488281</ele>
        <time>2026-05-11T09:56:05.000Z</time>
      </trkpt>
      <trkpt lat="45.32275" lon="4.49231">
        <ele>1096.8000488281</ele>
        <time>2026-05-11T09:56:06.000Z</time>
      </trkpt>
      <trkpt lat="45.32277" lon="4.49229">
        <ele>1097</ele>
        <time>2026-05-11T09:56:07.000Z</time>
      </trkpt>
      <trkpt lat="45.32279" lon="4.49227">
        <ele>1097</ele>
        <time>2026-05-11T09:56:08.000Z</time>
      </trkpt>
      <trkpt lat="45.32281" lon="4.49225">
        <ele>1097.1999511719</ele>
        <time>2026-05-11T09:56:09.000Z</time>
      </trkpt>
      <trkpt lat="45.32283" lon="4.49223">
        <ele>1097.1999511719</ele>
        <time>2026-05-11T09:56:10.000Z</time>
      </trkpt>
      <trkpt lat="45.32285" lon="4.49221">
        <ele>1097.4000244141</ele>
        <time>2026-05-11T09:56:11.000Z</time>
      </trkpt>
      <trkpt lat="45.32287" lon="4.49219">
        <ele>1097.4000244141</ele>
        <time>2026-05-11T09:56:12.000Z</time>
      </trkpt>
      <trkpt lat="45.32288" lon="4.49217">
        <ele>1097.5999755859</ele>
        <time>2026-05-11T09:56:13.000Z</time>
      </trkpt>
      <trkpt lat="45.32289" lon="4.49213">
        <ele>1097.5999755859</ele>
        <time>2026-05-11T09:56:14.000Z</time>
      </trkpt>
      <trkpt lat="45.3229" lon="4.49209">
        <ele>1097.5999755859</ele>
        <time>2026-05-11T09:56:15.000Z</time>
      </trkpt>
      <trkpt lat="45.32291" lon="4.49206">
        <ele>1097.8000488281</ele>
        <time>2026-05-11T09:56:16.000Z</time>
      </trkpt>
      <trkpt lat="45.32291" lon="4.49202">
        <ele>1097.8000488281</ele>
        <time>2026-05-11T09:56:17.000Z</time>
      </trkpt>
      <trkpt lat="45.32291" lon="4.49199">
        <ele>1097.8000488281</ele>
        <time>2026-05-11T09:56:18.000Z</time>
      </trkpt>
      <trkpt lat="45.32292" lon="4.49197">
        <ele>1098</ele>
        <time>2026-05-11T09:56:19.000Z</time>
      </trkpt>
      <trkpt lat="45.32293" lon="4.49195">
        <ele>1098</ele>
        <time>2026-05-11T09:56:20.000Z</time>
      </trkpt>
      <trkpt lat="45.32293" lon="4.49193">
        <ele>1098</ele>
        <time>2026-05-11T09:56:21.000Z</time>
      </trkpt>
      <trkpt lat="45.32294" lon="4.4919">
        <ele>1098.1999511719</ele>
        <time>2026-05-11T09:56:22.000Z</time>
      </trkpt>
      <trkpt lat="45.32294" lon="4.49188">
        <ele>1098.1999511719</ele>
        <time>2026-05-11T09:56:23.000Z</time>
      </trkpt>
      <trkpt lat="45.32294" lon="4.49186">
        <ele>1098.1999511719</ele>
        <time>2026-05-11T09:56:24.000Z</time>
      </trkpt>
      <trkpt lat="45.32294" lon="4.49184">
        <ele>1098.4000244141</ele>
        <time>2026-05-11T09:56:25.000Z</time>
      </trkpt>
      <trkpt lat="45.32295" lon="4.49182">
        <ele>1098.4000244141</ele>
        <time>2026-05-11T09:56:26.000Z</time>
      </trkpt>
      <trkpt lat="45.32296" lon="4.4918">
        <ele>1098.4000244141</ele>
        <time>2026-05-11T09:56:27.000Z</time>
      </trkpt>
      <trkpt lat="45.32296" lon="4.49178">
        <ele>1098.4000244141</ele>
        <time>2026-05-11T09:56:28.000Z</time>
      </trkpt>
      <trkpt lat="45.32297" lon="4.49177">
        <ele>1098.1999511719</ele>
        <time>2026-05-11T09:56:29.000Z</time>
      </trkpt>
      <trkpt lat="45.32296" lon="4.49175">
        <ele>1098.1999511719</ele>
        <time>2026-05-11T09:56:30.000Z</time>
      </trkpt>
      <trkpt lat="45.32296" lon="4.49173">
        <ele>1098.1999511719</ele>
        <time>2026-05-11T09:56:31.000Z</time>
      </trkpt>
      <trkpt lat="45.32295" lon="4.49171">
        <ele>1098.1999511719</ele>
        <time>2026-05-11T09:56:32.000Z</time>
      </trkpt>
      <trkpt lat="45.32293" lon="4.49169">
        <ele>1098</ele>
        <time>2026-05-11T09:56:33.000Z</time>
      </trkpt>
      <trkpt lat="45.32292" lon="4.49171">
        <ele>1098</ele>
        <time>2026-05-11T09:56:34.000Z</time>
      </trkpt>
      <trkpt lat="45.3229" lon="4.49173">
        <ele>1098</ele>
        <time>2026-05-11T09:56:35.000Z</time>
      </trkpt>
      <trkpt lat="45.3229" lon="4.49176">
        <ele>1098</ele>
        <time>2026-05-11T09:56:36.000Z</time>
      </trkpt>
      <trkpt lat="45.3229" lon="4.49179">
        <ele>1097.8000488281</ele>
        <time>2026-05-11T09:56:37.000Z</time>
      </trkpt>
      <trkpt lat="45.32289" lon="4.49182">
        <ele>1097.8000488281</ele>
        <time>2026-05-11T09:56:38.000Z</time>
      </trkpt>
      <trkpt lat="45.32289" lon="4.49184">
        <ele>1097.8000488281</ele>
        <time>2026-05-11T09:56:39.000Z</time>
      </trkpt>
      <trkpt lat="45.3229" lon="4.49187">
        <ele>1097.8000488281</ele>
        <time>2026-05-11T09:56:40.000Z</time>
      </trkpt>
      <trkpt lat="45.3229" lon="4.49189">
        <ele>1098</ele>
        <time>2026-05-11T09:56:41.000Z</time>
      </trkpt>
      <trkpt lat="45.3229" lon="4.49191">
        <ele>1098</ele>
        <time>2026-05-11T09:56:42.000Z</time>
      </trkpt>
      <trkpt lat="45.3229" lon="4.49194">
        <ele>1098</ele>
        <time>2026-05-11T09:56:43.000Z</time>
      </trkpt>
      <trkpt lat="45.32291" lon="4.49197">
        <ele>1098.1999511719</ele>
        <time>2026-05-11T09:56:44.000Z</time>
      </trkpt>
      <trkpt lat="45.32292" lon="4.492">
        <ele>1098.1999511719</ele>
        <time>2026-05-11T09:56:45.000Z</time>
      </trkpt>
      <trkpt lat="45.32295" lon="4.49202">
        <ele>1098.1999511719</ele>
        <time>2026-05-11T09:56:46.000Z</time>
      </trkpt>
      <trkpt lat="45.32297" lon="4.49203">
        <ele>1098.1999511719</ele>
        <time>2026-05-11T09:56:47.000Z</time>
      </trkpt>
      <trkpt lat="45.32299" lon="4.49202">
        <ele>1098.1999511719</ele>
        <time>2026-05-11T09:56:48.000Z</time>
      </trkpt>
      <trkpt lat="45.32302" lon="4.49201">
        <ele>1098.1999511719</ele>
        <time>2026-05-11T09:56:49.000Z</time>
      </trkpt>
      <trkpt lat="45.32304" lon="4.49199">
        <ele>1098.1999511719</ele>
        <time>2026-05-11T09:56:50.000Z</time>
      </trkpt>
      <trkpt lat="45.32306" lon="4.49197">
        <ele>1098.1999511719</ele>
        <time>2026-05-11T09:56:51.000Z</time>
      </trkpt>
      <trkpt lat="45.32309" lon="4.49195">
        <ele>1098.1999511719</ele>
        <time>2026-05-11T09:56:52.000Z</time>
      </trkpt>
      <trkpt lat="45.32311" lon="4.49193">
        <ele>1098.4000244141</ele>
        <time>2026-05-11T09:56:53.000Z</time>
      </trkpt>
      <trkpt lat="45.32313" lon="4.4919">
        <ele>1098.4000244141</ele>
        <time>2026-05-11T09:56:54.000Z</time>
      </trkpt>
      <trkpt lat="45.32315" lon="4.49187">
        <ele>1098.5999755859</ele>
        <time>2026-05-11T09:56:55.000Z</time>
      </trkpt>
      <trkpt lat="45.32316" lon="4.49184">
        <ele>1098.5999755859</ele>
        <time>2026-05-11T09:56:56.000Z</time>
      </trkpt>
      <trkpt lat="45.32318" lon="4.49182">
        <ele>1098.8000488281</ele>
        <time>2026-05-11T09:56:57.000Z</time>
      </trkpt>
      <trkpt lat="45.32319" lon="4.4918">
        <ele>1099</ele>
        <time>2026-05-11T09:56:58.000Z</time>
      </trkpt>
      <trkpt lat="45.32321" lon="4.49178">
        <ele>1099</ele>
        <time>2026-05-11T09:56:59.000Z</time>
      </trkpt>
      <trkpt lat="45.32322" lon="4.49176">
        <ele>1099.1999511719</ele>
        <time>2026-05-11T09:57:00.000Z</time>
      </trkpt>
      <trkpt lat="45.32324" lon="4.49174">
        <ele>1099.4000244141</ele>
        <time>2026-05-11T09:57:01.000Z</time>
      </trkpt>
      <trkpt lat="45.32326" lon="4.49171">
        <ele>1099.5999755859</ele>
        <time>2026-05-11T09:57:02.000Z</time>
      </trkpt>
      <trkpt lat="45.32327" lon="4.49169">
        <ele>1099.5999755859</ele>
        <time>2026-05-11T09:57:03.000Z</time>
      </trkpt>
      <trkpt lat="45.32329" lon="4.49167">
        <ele>1099.8000488281</ele>
        <time>2026-05-11T09:57:04.000Z</time>
      </trkpt>
      <trkpt lat="45.32331" lon="4.49165">
        <ele>1099.8000488281</ele>
        <time>2026-05-11T09:57:05.000Z</time>
      </trkpt>
      <trkpt lat="45.32333" lon="4.49163">
        <ele>1100</ele>
        <time>2026-05-11T09:57:06.000Z</time>
      </trkpt>
      <trkpt lat="45.32334" lon="4.49161">
        <ele>1100.1999511719</ele>
        <time>2026-05-11T09:57:07.000Z</time>
      </trkpt>
      <trkpt lat="45.32336" lon="4.49159">
        <ele>1100.1999511719</ele>
        <time>2026-05-11T09:57:08.000Z</time>
      </trkpt>
      <trkpt lat="45.32337" lon="4.49157">
        <ele>1100.1999511719</ele>
        <time>2026-05-11T09:57:09.000Z</time>
      </trkpt>
      <trkpt lat="45.32339" lon="4.49155">
        <ele>1100.4000244141</ele>
        <time>2026-05-11T09:57:10.000Z</time>
      </trkpt>
      <trkpt lat="45.32341" lon="4.49153">
        <ele>1100.4000244141</ele>
        <time>2026-05-11T09:57:11.000Z</time>
      </trkpt>
      <trkpt lat="45.32342" lon="4.49151">
        <ele>1100.5999755859</ele>
        <time>2026-05-11T09:57:12.000Z</time>
      </trkpt>
      <trkpt lat="45.32344" lon="4.49149">
        <ele>1100.5999755859</ele>
        <time>2026-05-11T09:57:13.000Z</time>
      </trkpt>
      <trkpt lat="45.32346" lon="4.49147">
        <ele>1100.8000488281</ele>
        <time>2026-05-11T09:57:14.000Z</time>
      </trkpt>
      <trkpt lat="45.32348" lon="4.49145">
        <ele>1100.8000488281</ele>
        <time>2026-05-11T09:57:15.000Z</time>
      </trkpt>
      <trkpt lat="45.32349" lon="4.49143">
        <ele>1101</ele>
        <time>2026-05-11T09:57:16.000Z</time>
      </trkpt>
      <trkpt lat="45.32351" lon="4.49141">
        <ele>1101</ele>
        <time>2026-05-11T09:57:17.000Z</time>
      </trkpt>
      <trkpt lat="45.32353" lon="4.49138">
        <ele>1101.1999511719</ele>
        <time>2026-05-11T09:57:18.000Z</time>
      </trkpt>
      <trkpt lat="45.32355" lon="4.49136">
        <ele>1101.1999511719</ele>
        <time>2026-05-11T09:57:19.000Z</time>
      </trkpt>
      <trkpt lat="45.32357" lon="4.49134">
        <ele>1101.4000244141</ele>
        <time>2026-05-11T09:57:20.000Z</time>
      </trkpt>
      <trkpt lat="45.32358" lon="4.49131">
        <ele>1101.4000244141</ele>
        <time>2026-05-11T09:57:21.000Z</time>
      </trkpt>
      <trkpt lat="45.3236" lon="4.49129">
        <ele>1101.5999755859</ele>
        <time>2026-05-11T09:57:22.000Z</time>
      </trkpt>
      <trkpt lat="45.32362" lon="4.49127">
        <ele>1101.5999755859</ele>
        <time>2026-05-11T09:57:23.000Z</time>
      </trkpt>
      <trkpt lat="45.32363" lon="4.49126">
        <ele>1101.8000488281</ele>
        <time>2026-05-11T09:57:24.000Z</time>
      </trkpt>
      <trkpt lat="45.32365" lon="4.49124">
        <ele>1102</ele>
        <time>2026-05-11T09:57:25.000Z</time>
      </trkpt>
      <trkpt lat="45.32367" lon="4.49123">
        <ele>1102</ele>
        <time>2026-05-11T09:57:26.000Z</time>
      </trkpt>
      <trkpt lat="45.32368" lon="4.49121">
        <ele>1102.1999511719</ele>
        <time>2026-05-11T09:57:27.000Z</time>
      </trkpt>
      <trkpt lat="45.3237" lon="4.49119">
        <ele>1102.1999511719</ele>
        <time>2026-05-11T09:57:28.000Z</time>
      </trkpt>
      <trkpt lat="45.32371" lon="4.49117">
        <ele>1102.4000244141</ele>
        <time>2026-05-11T09:57:29.000Z</time>
      </trkpt>
      <trkpt lat="45.32373" lon="4.49115">
        <ele>1102.4000244141</ele>
        <time>2026-05-11T09:57:30.000Z</time>
      </trkpt>
      <trkpt lat="45.32375" lon="4.49113">
        <ele>1102.5999755859</ele>
        <time>2026-05-11T09:57:31.000Z</time>
      </trkpt>
      <trkpt lat="45.32377" lon="4.49111">
        <ele>1102.8000488281</ele>
        <time>2026-05-11T09:57:32.000Z</time>
      </trkpt>
      <trkpt lat="45.32378" lon="4.49109">
        <ele>1102.8000488281</ele>
        <time>2026-05-11T09:57:33.000Z</time>
      </trkpt>
      <trkpt lat="45.3238" lon="4.49107">
        <ele>1103</ele>
        <time>2026-05-11T09:57:34.000Z</time>
      </trkpt>
      <trkpt lat="45.32382" lon="4.49105">
        <ele>1103</ele>
        <time>2026-05-11T09:57:35.000Z</time>
      </trkpt>
      <trkpt lat="45.32383" lon="4.49103">
        <ele>1103.1999511719</ele>
        <time>2026-05-11T09:57:36.000Z</time>
      </trkpt>
      <trkpt lat="45.32384" lon="4.49101">
        <ele>1103.1999511719</ele>
        <time>2026-05-11T09:57:37.000Z</time>
      </trkpt>
      <trkpt lat="45.32386" lon="4.491">
        <ele>1103.4000244141</ele>
        <time>2026-05-11T09:57:38.000Z</time>
      </trkpt>
      <trkpt lat="45.32388" lon="4.49098">
        <ele>1103.5999755859</ele>
        <time>2026-05-11T09:57:39.000Z</time>
      </trkpt>
      <trkpt lat="45.32389" lon="4.49095">
        <ele>1103.5999755859</ele>
        <time>2026-05-11T09:57:40.000Z</time>
      </trkpt>
      <trkpt lat="45.32391" lon="4.49093">
        <ele>1103.8000488281</ele>
        <time>2026-05-11T09:57:41.000Z</time>
      </trkpt>
      <trkpt lat="45.32393" lon="4.49092">
        <ele>1103.8000488281</ele>
        <time>2026-05-11T09:57:42.000Z</time>
      </trkpt>
      <trkpt lat="45.32394" lon="4.4909">
        <ele>1104</ele>
        <time>2026-05-11T09:57:43.000Z</time>
      </trkpt>
      <trkpt lat="45.32396" lon="4.49088">
        <ele>1104</ele>
        <time>2026-05-11T09:57:44.000Z</time>
      </trkpt>
      <trkpt lat="45.32397" lon="4.49086">
        <ele>1104.1999511719</ele>
        <time>2026-05-11T09:57:45.000Z</time>
      </trkpt>
      <trkpt lat="45.32399" lon="4.49085">
        <ele>1104.1999511719</ele>
        <time>2026-05-11T09:57:46.000Z</time>
      </trkpt>
      <trkpt lat="45.32401" lon="4.49083">
        <ele>1104.4000244141</ele>
        <time>2026-05-11T09:57:47.000Z</time>
      </trkpt>
      <trkpt lat="45.32402" lon="4.49081">
        <ele>1104.4000244141</ele>
        <time>2026-05-11T09:57:48.000Z</time>
      </trkpt>
      <trkpt lat="45.32404" lon="4.49078">
        <ele>1104.5999755859</ele>
        <time>2026-05-11T09:57:49.000Z</time>
      </trkpt>
      <trkpt lat="45.32406" lon="4.49076">
        <ele>1104.5999755859</ele>
        <time>2026-05-11T09:57:50.000Z</time>
      </trkpt>
      <trkpt lat="45.32407" lon="4.49074">
        <ele>1104.5999755859</ele>
        <time>2026-05-11T09:57:51.000Z</time>
      </trkpt>
      <trkpt lat="45.32409" lon="4.49071">
        <ele>1104.8000488281</ele>
        <time>2026-05-11T09:57:52.000Z</time>
      </trkpt>
      <trkpt lat="45.32411" lon="4.49069">
        <ele>1104.8000488281</ele>
        <time>2026-05-11T09:57:53.000Z</time>
      </trkpt>
      <trkpt lat="45.32412" lon="4.49067">
        <ele>1105</ele>
        <time>2026-05-11T09:57:54.000Z</time>
      </trkpt>
      <trkpt lat="45.32414" lon="4.49065">
        <ele>1105.1999511719</ele>
        <time>2026-05-11T09:57:55.000Z</time>
      </trkpt>
      <trkpt lat="45.32416" lon="4.49063">
        <ele>1105.1999511719</ele>
        <time>2026-05-11T09:57:56.000Z</time>
      </trkpt>
      <trkpt lat="45.32418" lon="4.49061">
        <ele>1105.4000244141</ele>
        <time>2026-05-11T09:57:57.000Z</time>
      </trkpt>
      <trkpt lat="45.3242" lon="4.49058">
        <ele>1105.4000244141</ele>
        <time>2026-05-11T09:57:58.000Z</time>
      </trkpt>
      <trkpt lat="45.32421" lon="4.49055">
        <ele>1105.5999755859</ele>
        <time>2026-05-11T09:57:59.000Z</time>
      </trkpt>
      <trkpt lat="45.32423" lon="4.49052">
        <ele>1105.5999755859</ele>
        <time>2026-05-11T09:58:00.000Z</time>
      </trkpt>
      <trkpt lat="45.32425" lon="4.4905">
        <ele>1105.8000488281</ele>
        <time>2026-05-11T09:58:01.000Z</time>
      </trkpt>
      <trkpt lat="45.32426" lon="4.49047">
        <ele>1105.8000488281</ele>
        <time>2026-05-11T09:58:02.000Z</time>
      </trkpt>
      <trkpt lat="45.32428" lon="4.49044">
        <ele>1106</ele>
        <time>2026-05-11T09:58:03.000Z</time>
      </trkpt>
      <trkpt lat="45.3243" lon="4.49041">
        <ele>1106.1999511719</ele>
        <time>2026-05-11T09:58:04.000Z</time>
      </trkpt>
      <trkpt lat="45.32431" lon="4.49039">
        <ele>1106.1999511719</ele>
        <time>2026-05-11T09:58:05.000Z</time>
      </trkpt>
      <trkpt lat="45.32432" lon="4.49036">
        <ele>1106.4000244141</ele>
        <time>2026-05-11T09:58:06.000Z</time>
      </trkpt>
      <trkpt lat="45.32434" lon="4.49033">
        <ele>1106.4000244141</ele>
        <time>2026-05-11T09:58:07.000Z</time>
      </trkpt>
      <trkpt lat="45.32435" lon="4.4903">
        <ele>1106.5999755859</ele>
        <time>2026-05-11T09:58:08.000Z</time>
      </trkpt>
      <trkpt lat="45.32436" lon="4.49027">
        <ele>1106.5999755859</ele>
        <time>2026-05-11T09:58:09.000Z</time>
      </trkpt>
      <trkpt lat="45.32437" lon="4.49024">
        <ele>1106.5999755859</ele>
        <time>2026-05-11T09:58:10.000Z</time>
      </trkpt>
      <trkpt lat="45.32438" lon="4.49021">
        <ele>1106.8000488281</ele>
        <time>2026-05-11T09:58:11.000Z</time>
      </trkpt>
      <trkpt lat="45.32439" lon="4.49017">
        <ele>1106.8000488281</ele>
        <time>2026-05-11T09:58:12.000Z</time>
      </trkpt>
      <trkpt lat="45.3244" lon="4.49013">
        <ele>1107</ele>
        <time>2026-05-11T09:58:13.000Z</time>
      </trkpt>
      <trkpt lat="45.32442" lon="4.4901">
        <ele>1107</ele>
        <time>2026-05-11T09:58:14.000Z</time>
      </trkpt>
      <trkpt lat="45.32443" lon="4.49006">
        <ele>1107.1999511719</ele>
        <time>2026-05-11T09:58:15.000Z</time>
      </trkpt>
      <trkpt lat="45.32444" lon="4.49002">
        <ele>1107.1999511719</ele>
        <time>2026-05-11T09:58:16.000Z</time>
      </trkpt>
      <trkpt lat="45.32445" lon="4.48998">
        <ele>1107.4000244141</ele>
        <time>2026-05-11T09:58:17.000Z</time>
      </trkpt>
      <trkpt lat="45.32445" lon="4.48995">
        <ele>1107.4000244141</ele>
        <time>2026-05-11T09:58:18.000Z</time>
      </trkpt>
      <trkpt lat="45.32446" lon="4.48991">
        <ele>1107.5999755859</ele>
        <time>2026-05-11T09:58:19.000Z</time>
      </trkpt>
      <trkpt lat="45.32447" lon="4.48988">
        <ele>1107.8000488281</ele>
        <time>2026-05-11T09:58:20.000Z</time>
      </trkpt>
      <trkpt lat="45.32448" lon="4.48984">
        <ele>1107.8000488281</ele>
        <time>2026-05-11T09:58:21.000Z</time>
      </trkpt>
      <trkpt lat="45.32448" lon="4.4898">
        <ele>1108</ele>
        <time>2026-05-11T09:58:22.000Z</time>
      </trkpt>
      <trkpt lat="45.32448" lon="4.48976">
        <ele>1108.1999511719</ele>
        <time>2026-05-11T09:58:23.000Z</time>
      </trkpt>
      <trkpt lat="45.32448" lon="4.48972">
        <ele>1108.1999511719</ele>
        <time>2026-05-11T09:58:24.000Z</time>
      </trkpt>
      <trkpt lat="45.32449" lon="4.48969">
        <ele>1108.4000244141</ele>
        <time>2026-05-11T09:58:25.000Z</time>
      </trkpt>
      <trkpt lat="45.32448" lon="4.48965">
        <ele>1108.4000244141</ele>
        <time>2026-05-11T09:58:26.000Z</time>
      </trkpt>
      <trkpt lat="45.32448" lon="4.48961">
        <ele>1108.5999755859</ele>
        <time>2026-05-11T09:58:27.000Z</time>
      </trkpt>
      <trkpt lat="45.32448" lon="4.48958">
        <ele>1108.5999755859</ele>
        <time>2026-05-11T09:58:28.000Z</time>
      </trkpt>
      <trkpt lat="45.32448" lon="4.48954">
        <ele>1108.8000488281</ele>
        <time>2026-05-11T09:58:29.000Z</time>
      </trkpt>
      <trkpt lat="45.32448" lon="4.4895">
        <ele>1108.8000488281</ele>
        <time>2026-05-11T09:58:30.000Z</time>
      </trkpt>
      <trkpt lat="45.32447" lon="4.48946">
        <ele>1109</ele>
        <time>2026-05-11T09:58:31.000Z</time>
      </trkpt>
      <trkpt lat="45.32447" lon="4.48943">
        <ele>1109</ele>
        <time>2026-05-11T09:58:32.000Z</time>
      </trkpt>
      <trkpt lat="45.32447" lon="4.4894">
        <ele>1109.1999511719</ele>
        <time>2026-05-11T09:58:33.000Z</time>
      </trkpt>
      <trkpt lat="45.32447" lon="4.48937">
        <ele>1109.1999511719</ele>
        <time>2026-05-11T09:58:34.000Z</time>
      </trkpt>
      <trkpt lat="45.32447" lon="4.48933">
        <ele>1109.4000244141</ele>
        <time>2026-05-11T09:58:35.000Z</time>
      </trkpt>
      <trkpt lat="45.32447" lon="4.48929">
        <ele>1109.5999755859</ele>
        <time>2026-05-11T09:58:36.000Z</time>
      </trkpt>
      <trkpt lat="45.32446" lon="4.48925">
        <ele>1109.5999755859</ele>
        <time>2026-05-11T09:58:37.000Z</time>
      </trkpt>
      <trkpt lat="45.32446" lon="4.48921">
        <ele>1109.8000488281</ele>
        <time>2026-05-11T09:58:38.000Z</time>
      </trkpt>
      <trkpt lat="45.32446" lon="4.48917">
        <ele>1109.8000488281</ele>
        <time>2026-05-11T09:58:39.000Z</time>
      </trkpt>
      <trkpt lat="45.32445" lon="4.48912">
        <ele>1109.8000488281</ele>
        <time>2026-05-11T09:58:40.000Z</time>
      </trkpt>
      <trkpt lat="45.32445" lon="4.48908">
        <ele>1110</ele>
        <time>2026-05-11T09:58:41.000Z</time>
      </trkpt>
      <trkpt lat="45.32445" lon="4.48905">
        <ele>1110</ele>
        <time>2026-05-11T09:58:42.000Z</time>
      </trkpt>
      <trkpt lat="45.32444" lon="4.48901">
        <ele>1110.1999511719</ele>
        <time>2026-05-11T09:58:43.000Z</time>
      </trkpt>
      <trkpt lat="45.32444" lon="4.48897">
        <ele>1110.1999511719</ele>
        <time>2026-05-11T09:58:44.000Z</time>
      </trkpt>
      <trkpt lat="45.32444" lon="4.48893">
        <ele>1110.1999511719</ele>
        <time>2026-05-11T09:58:45.000Z</time>
      </trkpt>
      <trkpt lat="45.32444" lon="4.48889">
        <ele>1110.4000244141</ele>
        <time>2026-05-11T09:58:46.000Z</time>
      </trkpt>
      <trkpt lat="45.32444" lon="4.48886">
        <ele>1110.4000244141</ele>
        <time>2026-05-11T09:58:47.000Z</time>
      </trkpt>
      <trkpt lat="45.32443" lon="4.48882">
        <ele>1110.5999755859</ele>
        <time>2026-05-11T09:58:48.000Z</time>
      </trkpt>
      <trkpt lat="45.32443" lon="4.48878">
        <ele>1110.5999755859</ele>
        <time>2026-05-11T09:58:49.000Z</time>
      </trkpt>
      <trkpt lat="45.32443" lon="4.48874">
        <ele>1110.8000488281</ele>
        <time>2026-05-11T09:58:50.000Z</time>
      </trkpt>
      <trkpt lat="45.32443" lon="4.4887">
        <ele>1110.8000488281</ele>
        <time>2026-05-11T09:58:51.000Z</time>
      </trkpt>
      <trkpt lat="45.32442" lon="4.48866">
        <ele>1111</ele>
        <time>2026-05-11T09:58:52.000Z</time>
      </trkpt>
      <trkpt lat="45.32442" lon="4.48862">
        <ele>1111</ele>
        <time>2026-05-11T09:58:53.000Z</time>
      </trkpt>
      <trkpt lat="45.32442" lon="4.48858">
        <ele>1111.1999511719</ele>
        <time>2026-05-11T09:58:54.000Z</time>
      </trkpt>
      <trkpt lat="45.32442" lon="4.48855">
        <ele>1111.1999511719</ele>
        <time>2026-05-11T09:58:55.000Z</time>
      </trkpt>
      <trkpt lat="45.32441" lon="4.48851">
        <ele>1111.4000244141</ele>
        <time>2026-05-11T09:58:56.000Z</time>
      </trkpt>
      <trkpt lat="45.32441" lon="4.48847">
        <ele>1111.4000244141</ele>
        <time>2026-05-11T09:58:57.000Z</time>
      </trkpt>
      <trkpt lat="45.32441" lon="4.48843">
        <ele>1111.5999755859</ele>
        <time>2026-05-11T09:58:58.000Z</time>
      </trkpt>
      <trkpt lat="45.32441" lon="4.48839">
        <ele>1111.5999755859</ele>
        <time>2026-05-11T09:58:59.000Z</time>
      </trkpt>
      <trkpt lat="45.3244" lon="4.48835">
        <ele>1111.8000488281</ele>
        <time>2026-05-11T09:59:00.000Z</time>
      </trkpt>
      <trkpt lat="45.3244" lon="4.48831">
        <ele>1112</ele>
        <time>2026-05-11T09:59:01.000Z</time>
      </trkpt>
      <trkpt lat="45.3244" lon="4.48827">
        <ele>1112</ele>
        <time>2026-05-11T09:59:02.000Z</time>
      </trkpt>
      <trkpt lat="45.3244" lon="4.48823">
        <ele>1112.1999511719</ele>
        <time>2026-05-11T09:59:03.000Z</time>
      </trkpt>
      <trkpt lat="45.3244" lon="4.48819">
        <ele>1112.1999511719</ele>
        <time>2026-05-11T09:59:04.000Z</time>
      </trkpt>
      <trkpt lat="45.3244" lon="4.48815">
        <ele>1112.4000244141</ele>
        <time>2026-05-11T09:59:05.000Z</time>
      </trkpt>
      <trkpt lat="45.3244" lon="4.48811">
        <ele>1112.4000244141</ele>
        <time>2026-05-11T09:59:06.000Z</time>
      </trkpt>
      <trkpt lat="45.3244" lon="4.48807">
        <ele>1112.4000244141</ele>
        <time>2026-05-11T09:59:07.000Z</time>
      </trkpt>
      <trkpt lat="45.3244" lon="4.48803">
        <ele>1112.5999755859</ele>
        <time>2026-05-11T09:59:08.000Z</time>
      </trkpt>
      <trkpt lat="45.32439" lon="4.48799">
        <ele>1112.5999755859</ele>
        <time>2026-05-11T09:59:09.000Z</time>
      </trkpt>
      <trkpt lat="45.3244" lon="4.48796">
        <ele>1112.8000488281</ele>
        <time>2026-05-11T09:59:10.000Z</time>
      </trkpt>
      <trkpt lat="45.3244" lon="4.48792">
        <ele>1112.8000488281</ele>
        <time>2026-05-11T09:59:11.000Z</time>
      </trkpt>
      <trkpt lat="45.3244" lon="4.48788">
        <ele>1112.8000488281</ele>
        <time>2026-05-11T09:59:12.000Z</time>
      </trkpt>
      <trkpt lat="45.3244" lon="4.48785">
        <ele>1112.8000488281</ele>
        <time>2026-05-11T09:59:13.000Z</time>
      </trkpt>
      <trkpt lat="45.3244" lon="4.4878">
        <ele>1112.8000488281</ele>
        <time>2026-05-11T09:59:14.000Z</time>
      </trkpt>
      <trkpt lat="45.3244" lon="4.48776">
        <ele>1112.8000488281</ele>
        <time>2026-05-11T09:59:15.000Z</time>
      </trkpt>
      <trkpt lat="45.3244" lon="4.48772">
        <ele>1112.8000488281</ele>
        <time>2026-05-11T09:59:16.000Z</time>
      </trkpt>
      <trkpt lat="45.32441" lon="4.48768">
        <ele>1112.8000488281</ele>
        <time>2026-05-11T09:59:17.000Z</time>
      </trkpt>
      <trkpt lat="45.32441" lon="4.48763">
        <ele>1112.8000488281</ele>
        <time>2026-05-11T09:59:18.000Z</time>
      </trkpt>
      <trkpt lat="45.32441" lon="4.4876">
        <ele>1112.8000488281</ele>
        <time>2026-05-11T09:59:19.000Z</time>
      </trkpt>
      <trkpt lat="45.32442" lon="4.48756">
        <ele>1113</ele>
        <time>2026-05-11T09:59:20.000Z</time>
      </trkpt>
      <trkpt lat="45.32442" lon="4.48751">
        <ele>1113</ele>
        <time>2026-05-11T09:59:21.000Z</time>
      </trkpt>
      <trkpt lat="45.32442" lon="4.48748">
        <ele>1113</ele>
        <time>2026-05-11T09:59:22.000Z</time>
      </trkpt>
      <trkpt lat="45.32443" lon="4.48744">
        <ele>1113.1999511719</ele>
        <time>2026-05-11T09:59:23.000Z</time>
      </trkpt>
      <trkpt lat="45.32444" lon="4.48741">
        <ele>1113.1999511719</ele>
        <time>2026-05-11T09:59:24.000Z</time>
      </trkpt>
      <trkpt lat="45.32444" lon="4.48737">
        <ele>1113.4000244141</ele>
        <time>2026-05-11T09:59:25.000Z</time>
      </trkpt>
      <trkpt lat="45.32445" lon="4.48733">
        <ele>1113.4000244141</ele>
        <time>2026-05-11T09:59:26.000Z</time>
      </trkpt>
      <trkpt lat="45.32446" lon="4.48729">
        <ele>1113.4000244141</ele>
        <time>2026-05-11T09:59:27.000Z</time>
      </trkpt>
      <trkpt lat="45.32446" lon="4.48725">
        <ele>1113.5999755859</ele>
        <time>2026-05-11T09:59:28.000Z</time>
      </trkpt>
      <trkpt lat="45.32447" lon="4.4872">
        <ele>1113.8000488281</ele>
        <time>2026-05-11T09:59:29.000Z</time>
      </trkpt>
      <trkpt lat="45.32448" lon="4.48716">
        <ele>1114</ele>
        <time>2026-05-11T09:59:30.000Z</time>
      </trkpt>
      <trkpt lat="45.32449" lon="4.48713">
        <ele>1114.1999511719</ele>
        <time>2026-05-11T09:59:31.000Z</time>
      </trkpt>
      <trkpt lat="45.32449" lon="4.48709">
        <ele>1114.4000244141</ele>
        <time>2026-05-11T09:59:32.000Z</time>
      </trkpt>
      <trkpt lat="45.3245" lon="4.48704">
        <ele>1114.5999755859</ele>
        <time>2026-05-11T09:59:33.000Z</time>
      </trkpt>
      <trkpt lat="45.32451" lon="4.48701">
        <ele>1114.8000488281</ele>
        <time>2026-05-11T09:59:34.000Z</time>
      </trkpt>
      <trkpt lat="45.32451" lon="4.48697">
        <ele>1115</ele>
        <time>2026-05-11T09:59:35.000Z</time>
      </trkpt>
      <trkpt lat="45.32451" lon="4.48694">
        <ele>1115.1999511719</ele>
        <time>2026-05-11T09:59:36.000Z</time>
      </trkpt>
      <trkpt lat="45.32452" lon="4.4869">
        <ele>1115.4000244141</ele>
        <time>2026-05-11T09:59:37.000Z</time>
      </trkpt>
      <trkpt lat="45.32452" lon="4.48687">
        <ele>1115.5999755859</ele>
        <time>2026-05-11T09:59:38.000Z</time>
      </trkpt>
      <trkpt lat="45.32453" lon="4.48683">
        <ele>1115.8000488281</ele>
        <time>2026-05-11T09:59:39.000Z</time>
      </trkpt>
      <trkpt lat="45.32453" lon="4.48679">
        <ele>1116</ele>
        <time>2026-05-11T09:59:40.000Z</time>
      </trkpt>
      <trkpt lat="45.32454" lon="4.48675">
        <ele>1116.1999511719</ele>
        <time>2026-05-11T09:59:41.000Z</time>
      </trkpt>
      <trkpt lat="45.32454" lon="4.4867">
        <ele>1116.4000244141</ele>
        <time>2026-05-11T09:59:42.000Z</time>
      </trkpt>
      <trkpt lat="45.32454" lon="4.48666">
        <ele>1116.4000244141</ele>
        <time>2026-05-11T09:59:43.000Z</time>
      </trkpt>
      <trkpt lat="45.32455" lon="4.48662">
        <ele>1116.5999755859</ele>
        <time>2026-05-11T09:59:44.000Z</time>
      </trkpt>
      <trkpt lat="45.32455" lon="4.48658">
        <ele>1116.8000488281</ele>
        <time>2026-05-11T09:59:45.000Z</time>
      </trkpt>
      <trkpt lat="45.32455" lon="4.48653">
        <ele>1116.8000488281</ele>
        <time>2026-05-11T09:59:46.000Z</time>
      </trkpt>
      <trkpt lat="45.32455" lon="4.48649">
        <ele>1117</ele>
        <time>2026-05-11T09:59:47.000Z</time>
      </trkpt>
      <trkpt lat="45.32455" lon="4.48645">
        <ele>1117.1999511719</ele>
        <time>2026-05-11T09:59:48.000Z</time>
      </trkpt>
      <trkpt lat="45.32455" lon="4.4864">
        <ele>1117.1999511719</ele>
        <time>2026-05-11T09:59:49.000Z</time>
      </trkpt>
      <trkpt lat="45.32455" lon="4.48636">
        <ele>1117.4000244141</ele>
        <time>2026-05-11T09:59:50.000Z</time>
      </trkpt>
      <trkpt lat="45.32455" lon="4.48632">
        <ele>1117.5999755859</ele>
        <time>2026-05-11T09:59:51.000Z</time>
      </trkpt>
      <trkpt lat="45.32456" lon="4.48627">
        <ele>1117.5999755859</ele>
        <time>2026-05-11T09:59:52.000Z</time>
      </trkpt>
      <trkpt lat="45.32456" lon="4.48623">
        <ele>1117.8000488281</ele>
        <time>2026-05-11T09:59:53.000Z</time>
      </trkpt>
      <trkpt lat="45.32456" lon="4.4862">
        <ele>1118</ele>
        <time>2026-05-11T09:59:54.000Z</time>
      </trkpt>
      <trkpt lat="45.32456" lon="4.48616">
        <ele>1118.1999511719</ele>
        <time>2026-05-11T09:59:55.000Z</time>
      </trkpt>
      <trkpt lat="45.32456" lon="4.48613">
        <ele>1118.1999511719</ele>
        <time>2026-05-11T09:59:56.000Z</time>
      </trkpt>
      <trkpt lat="45.32456" lon="4.48609">
        <ele>1118.4000244141</ele>
        <time>2026-05-11T09:59:57.000Z</time>
      </trkpt>
      <trkpt lat="45.32457" lon="4.48605">
        <ele>1118.5999755859</ele>
        <time>2026-05-11T09:59:58.000Z</time>
      </trkpt>
      <trkpt lat="45.32458" lon="4.48601">
        <ele>1118.8000488281</ele>
        <time>2026-05-11T09:59:59.000Z</time>
      </trkpt>
      <trkpt lat="45.32458" lon="4.48597">
        <ele>1118.8000488281</ele>
        <time>2026-05-11T10:00:00.000Z</time>
      </trkpt>
      <trkpt lat="45.32459" lon="4.48594">
        <ele>1119</ele>
        <time>2026-05-11T10:00:01.000Z</time>
      </trkpt>
      <trkpt lat="45.3246" lon="4.48589">
        <ele>1119</ele>
        <time>2026-05-11T10:00:02.000Z</time>
      </trkpt>
      <trkpt lat="45.3246" lon="4.48585">
        <ele>1119.1999511719</ele>
        <time>2026-05-11T10:00:03.000Z</time>
      </trkpt>
      <trkpt lat="45.32461" lon="4.48581">
        <ele>1119.4000244141</ele>
        <time>2026-05-11T10:00:04.000Z</time>
      </trkpt>
      <trkpt lat="45.32462" lon="4.48577">
        <ele>1119.5999755859</ele>
        <time>2026-05-11T10:00:05.000Z</time>
      </trkpt>
      <trkpt lat="45.32463" lon="4.48573">
        <ele>1119.8000488281</ele>
        <time>2026-05-11T10:00:06.000Z</time>
      </trkpt>
      <trkpt lat="45.32464" lon="4.48569">
        <ele>1120</ele>
        <time>2026-05-11T10:00:07.000Z</time>
      </trkpt>
      <trkpt lat="45.32465" lon="4.48566">
        <ele>1120.1999511719</ele>
        <time>2026-05-11T10:00:08.000Z</time>
      </trkpt>
      <trkpt lat="45.32466" lon="4.48562">
        <ele>1120.1999511719</ele>
        <time>2026-05-11T10:00:09.000Z</time>
      </trkpt>
      <trkpt lat="45.32467" lon="4.48558">
        <ele>1120.4000244141</ele>
        <time>2026-05-11T10:00:10.000Z</time>
      </trkpt>
      <trkpt lat="45.32468" lon="4.48554">
        <ele>1120.5999755859</ele>
        <time>2026-05-11T10:00:11.000Z</time>
      </trkpt>
      <trkpt lat="45.32469" lon="4.48551">
        <ele>1120.8000488281</ele>
        <time>2026-05-11T10:00:12.000Z</time>
      </trkpt>
      <trkpt lat="45.3247" lon="4.48548">
        <ele>1121</ele>
        <time>2026-05-11T10:00:13.000Z</time>
      </trkpt>
      <trkpt lat="45.32471" lon="4.48544">
        <ele>1121</ele>
        <time>2026-05-11T10:00:14.000Z</time>
      </trkpt>
      <trkpt lat="45.32473" lon="4.48541">
        <ele>1121.1999511719</ele>
        <time>2026-05-11T10:00:15.000Z</time>
      </trkpt>
      <trkpt lat="45.32474" lon="4.48537">
        <ele>1121.4000244141</ele>
        <time>2026-05-11T10:00:16.000Z</time>
      </trkpt>
      <trkpt lat="45.32475" lon="4.48533">
        <ele>1121.5999755859</ele>
        <time>2026-05-11T10:00:17.000Z</time>
      </trkpt>
      <trkpt lat="45.32476" lon="4.4853">
        <ele>1121.5999755859</ele>
        <time>2026-05-11T10:00:18.000Z</time>
      </trkpt>
      <trkpt lat="45.32478" lon="4.48527">
        <ele>1121.8000488281</ele>
        <time>2026-05-11T10:00:19.000Z</time>
      </trkpt>
      <trkpt lat="45.32479" lon="4.48523">
        <ele>1122</ele>
        <time>2026-05-11T10:00:20.000Z</time>
      </trkpt>
      <trkpt lat="45.3248" lon="4.4852">
        <ele>1122</ele>
        <time>2026-05-11T10:00:21.000Z</time>
      </trkpt>
      <trkpt lat="45.32481" lon="4.48516">
        <ele>1122.1999511719</ele>
        <time>2026-05-11T10:00:22.000Z</time>
      </trkpt>
      <trkpt lat="45.32483" lon="4.48513">
        <ele>1122.4000244141</ele>
        <time>2026-05-11T10:00:23.000Z</time>
      </trkpt>
      <trkpt lat="45.32484" lon="4.48509">
        <ele>1122.5999755859</ele>
        <time>2026-05-11T10:00:24.000Z</time>
      </trkpt>
      <trkpt lat="45.32486" lon="4.48505">
        <ele>1122.8000488281</ele>
        <time>2026-05-11T10:00:25.000Z</time>
      </trkpt>
      <trkpt lat="45.32487" lon="4.48502">
        <ele>1123</ele>
        <time>2026-05-11T10:00:26.000Z</time>
      </trkpt>
      <trkpt lat="45.32488" lon="4.48498">
        <ele>1123</ele>
        <time>2026-05-11T10:00:27.000Z</time>
      </trkpt>
      <trkpt lat="45.32489" lon="4.48495">
        <ele>1123.1999511719</ele>
        <time>2026-05-11T10:00:28.000Z</time>
      </trkpt>
      <trkpt lat="45.32491" lon="4.48493">
        <ele>1123.4000244141</ele>
        <time>2026-05-11T10:00:29.000Z</time>
      </trkpt>
      <trkpt lat="45.32493" lon="4.48489">
        <ele>1123.4000244141</ele>
        <time>2026-05-11T10:00:30.000Z</time>
      </trkpt>
      <trkpt lat="45.32494" lon="4.48486">
        <ele>1123.5999755859</ele>
        <time>2026-05-11T10:00:31.000Z</time>
      </trkpt>
      <trkpt lat="45.32496" lon="4.48482">
        <ele>1123.5999755859</ele>
        <time>2026-05-11T10:00:32.000Z</time>
      </trkpt>
      <trkpt lat="45.32498" lon="4.48479">
        <ele>1123.8000488281</ele>
        <time>2026-05-11T10:00:33.000Z</time>
      </trkpt>
      <trkpt lat="45.32499" lon="4.48476">
        <ele>1124</ele>
        <time>2026-05-11T10:00:34.000Z</time>
      </trkpt>
      <trkpt lat="45.32501" lon="4.48473">
        <ele>1124</ele>
        <time>2026-05-11T10:00:35.000Z</time>
      </trkpt>
      <trkpt lat="45.32503" lon="4.4847">
        <ele>1124.1999511719</ele>
        <time>2026-05-11T10:00:36.000Z</time>
      </trkpt>
      <trkpt lat="45.32505" lon="4.48467">
        <ele>1124.4000244141</ele>
        <time>2026-05-11T10:00:37.000Z</time>
      </trkpt>
      <trkpt lat="45.32507" lon="4.48464">
        <ele>1124.5999755859</ele>
        <time>2026-05-11T10:00:38.000Z</time>
      </trkpt>
      <trkpt lat="45.32509" lon="4.48462">
        <ele>1124.5999755859</ele>
        <time>2026-05-11T10:00:39.000Z</time>
      </trkpt>
      <trkpt lat="45.32511" lon="4.4846">
        <ele>1124.8000488281</ele>
        <time>2026-05-11T10:00:40.000Z</time>
      </trkpt>
      <trkpt lat="45.32512" lon="4.48457">
        <ele>1125</ele>
        <time>2026-05-11T10:00:41.000Z</time>
      </trkpt>
      <trkpt lat="45.32514" lon="4.48455">
        <ele>1125</ele>
        <time>2026-05-11T10:00:42.000Z</time>
      </trkpt>
      <trkpt lat="45.32516" lon="4.48452">
        <ele>1125.1999511719</ele>
        <time>2026-05-11T10:00:43.000Z</time>
      </trkpt>
      <trkpt lat="45.32518" lon="4.4845">
        <ele>1125.1999511719</ele>
        <time>2026-05-11T10:00:44.000Z</time>
      </trkpt>
      <trkpt lat="45.3252" lon="4.48447">
        <ele>1125.4000244141</ele>
        <time>2026-05-11T10:00:45.000Z</time>
      </trkpt>
      <trkpt lat="45.32522" lon="4.48444">
        <ele>1125.5999755859</ele>
        <time>2026-05-11T10:00:46.000Z</time>
      </trkpt>
      <trkpt lat="45.32525" lon="4.48442">
        <ele>1125.8000488281</ele>
        <time>2026-05-11T10:00:47.000Z</time>
      </trkpt>
      <trkpt lat="45.32527" lon="4.48439">
        <ele>1125.8000488281</ele>
        <time>2026-05-11T10:00:48.000Z</time>
      </trkpt>
      <trkpt lat="45.32529" lon="4.48437">
        <ele>1126</ele>
        <time>2026-05-11T10:00:49.000Z</time>
      </trkpt>
      <trkpt lat="45.32532" lon="4.48435">
        <ele>1126.1999511719</ele>
        <time>2026-05-11T10:00:50.000Z</time>
      </trkpt>
      <trkpt lat="45.32534" lon="4.48433">
        <ele>1126.1999511719</ele>
        <time>2026-05-11T10:00:51.000Z</time>
      </trkpt>
      <trkpt lat="45.32536" lon="4.48431">
        <ele>1126.4000244141</ele>
        <time>2026-05-11T10:00:52.000Z</time>
      </trkpt>
      <trkpt lat="45.32538" lon="4.48429">
        <ele>1126.5999755859</ele>
        <time>2026-05-11T10:00:53.000Z</time>
      </trkpt>
      <trkpt lat="45.32541" lon="4.48427">
        <ele>1126.5999755859</ele>
        <time>2026-05-11T10:00:54.000Z</time>
      </trkpt>
      <trkpt lat="45.32543" lon="4.48426">
        <ele>1126.8000488281</ele>
        <time>2026-05-11T10:00:55.000Z</time>
      </trkpt>
      <trkpt lat="45.32545" lon="4.48424">
        <ele>1127</ele>
        <time>2026-05-11T10:00:56.000Z</time>
      </trkpt>
      <trkpt lat="45.32548" lon="4.48422">
        <ele>1127</ele>
        <time>2026-05-11T10:00:57.000Z</time>
      </trkpt>
      <trkpt lat="45.3255" lon="4.48421">
        <ele>1127.1999511719</ele>
        <time>2026-05-11T10:00:58.000Z</time>
      </trkpt>
      <trkpt lat="45.32552" lon="4.48419">
        <ele>1127.4000244141</ele>
        <time>2026-05-11T10:00:59.000Z</time>
      </trkpt>
      <trkpt lat="45.32554" lon="4.48417">
        <ele>1127.5999755859</ele>
        <time>2026-05-11T10:01:00.000Z</time>
      </trkpt>
      <trkpt lat="45.32557" lon="4.48416">
        <ele>1127.8000488281</ele>
        <time>2026-05-11T10:01:01.000Z</time>
      </trkpt>
      <trkpt lat="45.32559" lon="4.48414">
        <ele>1127.8000488281</ele>
        <time>2026-05-11T10:01:02.000Z</time>
      </trkpt>
      <trkpt lat="45.32562" lon="4.48411">
        <ele>1128</ele>
        <time>2026-05-11T10:01:03.000Z</time>
      </trkpt>
      <trkpt lat="45.32564" lon="4.48409">
        <ele>1128</ele>
        <time>2026-05-11T10:01:04.000Z</time>
      </trkpt>
      <trkpt lat="45.32566" lon="4.48407">
        <ele>1128.1999511719</ele>
        <time>2026-05-11T10:01:05.000Z</time>
      </trkpt>
      <trkpt lat="45.32568" lon="4.48404">
        <ele>1128.4000244141</ele>
        <time>2026-05-11T10:01:06.000Z</time>
      </trkpt>
      <trkpt lat="45.3257" lon="4.48402">
        <ele>1128.5999755859</ele>
        <time>2026-05-11T10:01:07.000Z</time>
      </trkpt>
      <trkpt lat="45.32572" lon="4.484">
        <ele>1128.5999755859</ele>
        <time>2026-05-11T10:01:08.000Z</time>
      </trkpt>
      <trkpt lat="45.32574" lon="4.48397">
        <ele>1128.8000488281</ele>
        <time>2026-05-11T10:01:09.000Z</time>
      </trkpt>
      <trkpt lat="45.32577" lon="4.48394">
        <ele>1129</ele>
        <time>2026-05-11T10:01:10.000Z</time>
      </trkpt>
      <trkpt lat="45.32579" lon="4.48392">
        <ele>1129</ele>
        <time>2026-05-11T10:01:11.000Z</time>
      </trkpt>
      <trkpt lat="45.32581" lon="4.48389">
        <ele>1129.1999511719</ele>
        <time>2026-05-11T10:01:12.000Z</time>
      </trkpt>
      <trkpt lat="45.32583" lon="4.48386">
        <ele>1129.1999511719</ele>
        <time>2026-05-11T10:01:13.000Z</time>
      </trkpt>
      <trkpt lat="45.32585" lon="4.48383">
        <ele>1129.4000244141</ele>
        <time>2026-05-11T10:01:14.000Z</time>
      </trkpt>
      <trkpt lat="45.32587" lon="4.4838">
        <ele>1129.4000244141</ele>
        <time>2026-05-11T10:01:15.000Z</time>
      </trkpt>
      <trkpt lat="45.3259" lon="4.48378">
        <ele>1129.4000244141</ele>
        <time>2026-05-11T10:01:16.000Z</time>
      </trkpt>
      <trkpt lat="45.32591" lon="4.48375">
        <ele>1129.5999755859</ele>
        <time>2026-05-11T10:01:17.000Z</time>
      </trkpt>
      <trkpt lat="45.32593" lon="4.48372">
        <ele>1129.8000488281</ele>
        <time>2026-05-11T10:01:18.000Z</time>
      </trkpt>
      <trkpt lat="45.32595" lon="4.4837">
        <ele>1129.8000488281</ele>
        <time>2026-05-11T10:01:19.000Z</time>
      </trkpt>
      <trkpt lat="45.32597" lon="4.48367">
        <ele>1130</ele>
        <time>2026-05-11T10:01:20.000Z</time>
      </trkpt>
      <trkpt lat="45.32599" lon="4.48365">
        <ele>1130.1999511719</ele>
        <time>2026-05-11T10:01:21.000Z</time>
      </trkpt>
      <trkpt lat="45.326" lon="4.48362">
        <ele>1130.4000244141</ele>
        <time>2026-05-11T10:01:22.000Z</time>
      </trkpt>
      <trkpt lat="45.32602" lon="4.4836">
        <ele>1130.5999755859</ele>
        <time>2026-05-11T10:01:23.000Z</time>
      </trkpt>
      <trkpt lat="45.32604" lon="4.48358">
        <ele>1130.8000488281</ele>
        <time>2026-05-11T10:01:24.000Z</time>
      </trkpt>
      <trkpt lat="45.32606" lon="4.48356">
        <ele>1131</ele>
        <time>2026-05-11T10:01:25.000Z</time>
      </trkpt>
      <trkpt lat="45.32608" lon="4.48353">
        <ele>1131</ele>
        <time>2026-05-11T10:01:26.000Z</time>
      </trkpt>
      <trkpt lat="45.32609" lon="4.4835">
        <ele>1131.1999511719</ele>
        <time>2026-05-11T10:01:27.000Z</time>
      </trkpt>
      <trkpt lat="45.32611" lon="4.48348">
        <ele>1131.4000244141</ele>
        <time>2026-05-11T10:01:28.000Z</time>
      </trkpt>
      <trkpt lat="45.32613" lon="4.48345">
        <ele>1131.4000244141</ele>
        <time>2026-05-11T10:01:29.000Z</time>
      </trkpt>
      <trkpt lat="45.32615" lon="4.48342">
        <ele>1131.5999755859</ele>
        <time>2026-05-11T10:01:30.000Z</time>
      </trkpt>
      <trkpt lat="45.32616" lon="4.4834">
        <ele>1131.8000488281</ele>
        <time>2026-05-11T10:01:31.000Z</time>
      </trkpt>
      <trkpt lat="45.32618" lon="4.48338">
        <ele>1131.8000488281</ele>
        <time>2026-05-11T10:01:32.000Z</time>
      </trkpt>
      <trkpt lat="45.32619" lon="4.48335">
        <ele>1132</ele>
        <time>2026-05-11T10:01:33.000Z</time>
      </trkpt>
      <trkpt lat="45.32621" lon="4.48332">
        <ele>1132</ele>
        <time>2026-05-11T10:01:34.000Z</time>
      </trkpt>
      <trkpt lat="45.32623" lon="4.48329">
        <ele>1132.1999511719</ele>
        <time>2026-05-11T10:01:35.000Z</time>
      </trkpt>
      <trkpt lat="45.32625" lon="4.48326">
        <ele>1132.1999511719</ele>
        <time>2026-05-11T10:01:36.000Z</time>
      </trkpt>
      <trkpt lat="45.32627" lon="4.48323">
        <ele>1132.4000244141</ele>
        <time>2026-05-11T10:01:37.000Z</time>
      </trkpt>
      <trkpt lat="45.32628" lon="4.4832">
        <ele>1132.4000244141</ele>
        <time>2026-05-11T10:01:38.000Z</time>
      </trkpt>
      <trkpt lat="45.3263" lon="4.48317">
        <ele>1132.5999755859</ele>
        <time>2026-05-11T10:01:39.000Z</time>
      </trkpt>
      <trkpt lat="45.32632" lon="4.48315">
        <ele>1132.8000488281</ele>
        <time>2026-05-11T10:01:40.000Z</time>
      </trkpt>
      <trkpt lat="45.32633" lon="4.48314">
        <ele>1132.8000488281</ele>
        <time>2026-05-11T10:01:41.000Z</time>
      </trkpt>
      <trkpt lat="45.32634" lon="4.48312">
        <ele>1133</ele>
        <time>2026-05-11T10:01:42.000Z</time>
      </trkpt>
      <trkpt lat="45.32635" lon="4.48309">
        <ele>1133</ele>
        <time>2026-05-11T10:01:43.000Z</time>
      </trkpt>
      <trkpt lat="45.32636" lon="4.48306">
        <ele>1133.1999511719</ele>
        <time>2026-05-11T10:01:44.000Z</time>
      </trkpt>
      <trkpt lat="45.32638" lon="4.48303">
        <ele>1133.1999511719</ele>
        <time>2026-05-11T10:01:45.000Z</time>
      </trkpt>
      <trkpt lat="45.3264" lon="4.48299">
        <ele>1133.4000244141</ele>
        <time>2026-05-11T10:01:46.000Z</time>
      </trkpt>
      <trkpt lat="45.32641" lon="4.48295">
        <ele>1133.4000244141</ele>
        <time>2026-05-11T10:01:47.000Z</time>
      </trkpt>
      <trkpt lat="45.32643" lon="4.48291">
        <ele>1133.5999755859</ele>
        <time>2026-05-11T10:01:48.000Z</time>
      </trkpt>
      <trkpt lat="45.32645" lon="4.48288">
        <ele>1133.5999755859</ele>
        <time>2026-05-11T10:01:49.000Z</time>
      </trkpt>
      <trkpt lat="45.32646" lon="4.48285">
        <ele>1133.8000488281</ele>
        <time>2026-05-11T10:01:50.000Z</time>
      </trkpt>
      <trkpt lat="45.32647" lon="4.48282">
        <ele>1134</ele>
        <time>2026-05-11T10:01:51.000Z</time>
      </trkpt>
      <trkpt lat="45.32648" lon="4.48278">
        <ele>1134</ele>
        <time>2026-05-11T10:01:52.000Z</time>
      </trkpt>
      <trkpt lat="45.32649" lon="4.48274">
        <ele>1134.1999511719</ele>
        <time>2026-05-11T10:01:53.000Z</time>
      </trkpt>
      <trkpt lat="45.3265" lon="4.48271">
        <ele>1134.4000244141</ele>
        <time>2026-05-11T10:01:54.000Z</time>
      </trkpt>
      <trkpt lat="45.32651" lon="4.48268">
        <ele>1134.4000244141</ele>
        <time>2026-05-11T10:01:55.000Z</time>
      </trkpt>
      <trkpt lat="45.32652" lon="4.48265">
        <ele>1134.5999755859</ele>
        <time>2026-05-11T10:01:56.000Z</time>
      </trkpt>
      <trkpt lat="45.32653" lon="4.48261">
        <ele>1134.5999755859</ele>
        <time>2026-05-11T10:01:57.000Z</time>
      </trkpt>
      <trkpt lat="45.32654" lon="4.48258">
        <ele>1134.8000488281</ele>
        <time>2026-05-11T10:01:58.000Z</time>
      </trkpt>
      <trkpt lat="45.32654" lon="4.48254">
        <ele>1135</ele>
        <time>2026-05-11T10:01:59.000Z</time>
      </trkpt>
      <trkpt lat="45.32655" lon="4.48251">
        <ele>1135</ele>
        <time>2026-05-11T10:02:00.000Z</time>
      </trkpt>
      <trkpt lat="45.32655" lon="4.48248">
        <ele>1135</ele>
        <time>2026-05-11T10:02:01.000Z</time>
      </trkpt>
      <trkpt lat="45.32655" lon="4.48245">
        <ele>1135.1999511719</ele>
        <time>2026-05-11T10:02:02.000Z</time>
      </trkpt>
      <trkpt lat="45.32656" lon="4.48242">
        <ele>1135.1999511719</ele>
        <time>2026-05-11T10:02:03.000Z</time>
      </trkpt>
      <trkpt lat="45.32656" lon="4.4824">
        <ele>1135.4000244141</ele>
        <time>2026-05-11T10:02:04.000Z</time>
      </trkpt>
      <trkpt lat="45.32656" lon="4.48237">
        <ele>1135.4000244141</ele>
        <time>2026-05-11T10:02:05.000Z</time>
      </trkpt>
      <trkpt lat="45.32655" lon="4.48234">
        <ele>1135.4000244141</ele>
        <time>2026-05-11T10:02:06.000Z</time>
      </trkpt>
      <trkpt lat="45.32655" lon="4.48231">
        <ele>1135.5999755859</ele>
        <time>2026-05-11T10:02:07.000Z</time>
      </trkpt>
      <trkpt lat="45.32656" lon="4.48227">
        <ele>1135.5999755859</ele>
        <time>2026-05-11T10:02:08.000Z</time>
      </trkpt>
      <trkpt lat="45.32657" lon="4.48224">
        <ele>1135.5999755859</ele>
        <time>2026-05-11T10:02:09.000Z</time>
      </trkpt>
      <trkpt lat="45.32657" lon="4.4822">
        <ele>1135.8000488281</ele>
        <time>2026-05-11T10:02:10.000Z</time>
      </trkpt>
      <trkpt lat="45.32658" lon="4.48216">
        <ele>1135.8000488281</ele>
        <time>2026-05-11T10:02:11.000Z</time>
      </trkpt>
      <trkpt lat="45.32658" lon="4.48213">
        <ele>1135.8000488281</ele>
        <time>2026-05-11T10:02:12.000Z</time>
      </trkpt>
      <trkpt lat="45.32659" lon="4.48211">
        <ele>1136</ele>
        <time>2026-05-11T10:02:13.000Z</time>
      </trkpt>
      <trkpt lat="45.3266" lon="4.48209">
        <ele>1136</ele>
        <time>2026-05-11T10:02:14.000Z</time>
      </trkpt>
      <trkpt lat="45.32661" lon="4.48207">
        <ele>1136.1999511719</ele>
        <time>2026-05-11T10:02:15.000Z</time>
      </trkpt>
      <trkpt lat="45.32662" lon="4.48204">
        <ele>1136.1999511719</ele>
        <time>2026-05-11T10:02:16.000Z</time>
      </trkpt>
      <trkpt lat="45.32662" lon="4.48201">
        <ele>1136.4000244141</ele>
        <time>2026-05-11T10:02:17.000Z</time>
      </trkpt>
      <trkpt lat="45.32663" lon="4.48199">
        <ele>1136.4000244141</ele>
        <time>2026-05-11T10:02:18.000Z</time>
      </trkpt>
      <trkpt lat="45.32663" lon="4.48196">
        <ele>1136.5999755859</ele>
        <time>2026-05-11T10:02:19.000Z</time>
      </trkpt>
      <trkpt lat="45.32663" lon="4.48193">
        <ele>1136.5999755859</ele>
        <time>2026-05-11T10:02:20.000Z</time>
      </trkpt>
      <trkpt lat="45.32664" lon="4.4819">
        <ele>1136.8000488281</ele>
        <time>2026-05-11T10:02:21.000Z</time>
      </trkpt>
      <trkpt lat="45.32665" lon="4.48188">
        <ele>1137</ele>
        <time>2026-05-11T10:02:22.000Z</time>
      </trkpt>
      <trkpt lat="45.32665" lon="4.48185">
        <ele>1137</ele>
        <time>2026-05-11T10:02:23.000Z</time>
      </trkpt>
      <trkpt lat="45.32665" lon="4.48182">
        <ele>1137.1999511719</ele>
        <time>2026-05-11T10:02:24.000Z</time>
      </trkpt>
      <trkpt lat="45.32666" lon="4.48178">
        <ele>1137.1999511719</ele>
        <time>2026-05-11T10:02:25.000Z</time>
      </trkpt>
      <trkpt lat="45.32666" lon="4.48175">
        <ele>1137.1999511719</ele>
        <time>2026-05-11T10:02:26.000Z</time>
      </trkpt>
      <trkpt lat="45.32667" lon="4.48172">
        <ele>1137.4000244141</ele>
        <time>2026-05-11T10:02:27.000Z</time>
      </trkpt>
      <trkpt lat="45.32668" lon="4.48169">
        <ele>1137.4000244141</ele>
        <time>2026-05-11T10:02:28.000Z</time>
      </trkpt>
      <trkpt lat="45.32669" lon="4.48165">
        <ele>1137.4000244141</ele>
        <time>2026-05-11T10:02:29.000Z</time>
      </trkpt>
      <trkpt lat="45.3267" lon="4.48162">
        <ele>1137.5999755859</ele>
        <time>2026-05-11T10:02:30.000Z</time>
      </trkpt>
      <trkpt lat="45.32672" lon="4.4816">
        <ele>1137.8000488281</ele>
        <time>2026-05-11T10:02:31.000Z</time>
      </trkpt>
      <trkpt lat="45.32674" lon="4.48159">
        <ele>1137.8000488281</ele>
        <time>2026-05-11T10:02:32.000Z</time>
      </trkpt>
      <trkpt lat="45.32677" lon="4.48159">
        <ele>1138</ele>
        <time>2026-05-11T10:02:33.000Z</time>
      </trkpt>
      <trkpt lat="45.32679" lon="4.48159">
        <ele>1138.1999511719</ele>
        <time>2026-05-11T10:02:34.000Z</time>
      </trkpt>
      <trkpt lat="45.3268" lon="4.48157">
        <ele>1138.1999511719</ele>
        <time>2026-05-11T10:02:35.000Z</time>
      </trkpt>
      <trkpt lat="45.32681" lon="4.48156">
        <ele>1138.4000244141</ele>
        <time>2026-05-11T10:02:36.000Z</time>
      </trkpt>
      <trkpt lat="45.32682" lon="4.48154">
        <ele>1138.4000244141</ele>
        <time>2026-05-11T10:02:37.000Z</time>
      </trkpt>
      <trkpt lat="45.32683" lon="4.48153">
        <ele>1138.5999755859</ele>
        <time>2026-05-11T10:02:38.000Z</time>
      </trkpt>
      <trkpt lat="45.32683" lon="4.4815">
        <ele>1138.5999755859</ele>
        <time>2026-05-11T10:02:39.000Z</time>
      </trkpt>
      <trkpt lat="45.32682" lon="4.48149">
        <ele>1138.8000488281</ele>
        <time>2026-05-11T10:02:40.000Z</time>
      </trkpt>
      <trkpt lat="45.32681" lon="4.48147">
        <ele>1138.8000488281</ele>
        <time>2026-05-11T10:02:41.000Z</time>
      </trkpt>
      <trkpt lat="45.32681" lon="4.48147">
        <ele>1138.8000488281</ele>
        <time>2026-05-11T10:02:42.000Z</time>
      </trkpt>
      <trkpt lat="45.32681" lon="4.48146">
        <ele>1138.8000488281</ele>
        <time>2026-05-11T10:02:43.000Z</time>
      </trkpt>
      <trkpt lat="45.3268" lon="4.48143">
        <ele>1138.8000488281</ele>
        <time>2026-05-11T10:02:44.000Z</time>
      </trkpt>
      <trkpt lat="45.32679" lon="4.48141">
        <ele>1138.8000488281</ele>
        <time>2026-05-11T10:02:45.000Z</time>
      </trkpt>
      <trkpt lat="45.32676" lon="4.48138">
        <ele>1138.8000488281</ele>
        <time>2026-05-11T10:02:46.000Z</time>
      </trkpt>
      <trkpt lat="45.32673" lon="4.48135">
        <ele>1138.8000488281</ele>
        <time>2026-05-11T10:02:47.000Z</time>
      </trkpt>
      <trkpt lat="45.32671" lon="4.48132">
        <ele>1138.5999755859</ele>
        <time>2026-05-11T10:02:48.000Z</time>
      </trkpt>
      <trkpt lat="45.32669" lon="4.48131">
        <ele>1138.8000488281</ele>
        <time>2026-05-11T10:02:49.000Z</time>
      </trkpt>
      <trkpt lat="45.32667" lon="4.48129">
        <ele>1138.8000488281</ele>
        <time>2026-05-11T10:02:50.000Z</time>
      </trkpt>
      <trkpt lat="45.32665" lon="4.48129">
        <ele>1138.5999755859</ele>
        <time>2026-05-11T10:02:51.000Z</time>
      </trkpt>
      <trkpt lat="45.32663" lon="4.48128">
        <ele>1138.5999755859</ele>
        <time>2026-05-11T10:02:52.000Z</time>
      </trkpt>
      <trkpt lat="45.32661" lon="4.48128">
        <ele>1138.5999755859</ele>
        <time>2026-05-11T10:02:53.000Z</time>
      </trkpt>
      <trkpt lat="45.32659" lon="4.48128">
        <ele>1138.5999755859</ele>
        <time>2026-05-11T10:02:54.000Z</time>
      </trkpt>
      <trkpt lat="45.32657" lon="4.48128">
        <ele>1138.5999755859</ele>
        <time>2026-05-11T10:02:55.000Z</time>
      </trkpt>
      <trkpt lat="45.32655" lon="4.48129">
        <ele>1138.4000244141</ele>
        <time>2026-05-11T10:02:56.000Z</time>
      </trkpt>
      <trkpt lat="45.32653" lon="4.48129">
        <ele>1138.4000244141</ele>
        <time>2026-05-11T10:02:57.000Z</time>
      </trkpt>
      <trkpt lat="45.32652" lon="4.48129">
        <ele>1138.4000244141</ele>
        <time>2026-05-11T10:02:58.000Z</time>
      </trkpt>
      <trkpt lat="45.3265" lon="4.48129">
        <ele>1138.1999511719</ele>
        <time>2026-05-11T10:02:59.000Z</time>
      </trkpt>
      <trkpt lat="45.32649" lon="4.48129">
        <ele>1138.1999511719</ele>
        <time>2026-05-11T10:03:00.000Z</time>
      </trkpt>
      <trkpt lat="45.32647" lon="4.4813">
        <ele>1138</ele>
        <time>2026-05-11T10:03:01.000Z</time>
      </trkpt>
      <trkpt lat="45.32646" lon="4.4813">
        <ele>1138</ele>
        <time>2026-05-11T10:03:02.000Z</time>
      </trkpt>
      <trkpt lat="45.32644" lon="4.4813">
        <ele>1137.8000488281</ele>
        <time>2026-05-11T10:03:03.000Z</time>
      </trkpt>
      <trkpt lat="45.32642" lon="4.48131">
        <ele>1137.8000488281</ele>
        <time>2026-05-11T10:03:04.000Z</time>
      </trkpt>
      <trkpt lat="45.3264" lon="4.48132">
        <ele>1137.5999755859</ele>
        <time>2026-05-11T10:03:05.000Z</time>
      </trkpt>
      <trkpt lat="45.32638" lon="4.48132">
        <ele>1137.5999755859</ele>
        <time>2026-05-11T10:03:06.000Z</time>
      </trkpt>
      <trkpt lat="45.32637" lon="4.48132">
        <ele>1137.4000244141</ele>
        <time>2026-05-11T10:03:07.000Z</time>
      </trkpt>
      <trkpt lat="45.32635" lon="4.48132">
        <ele>1137.4000244141</ele>
        <time>2026-05-11T10:03:08.000Z</time>
      </trkpt>
      <trkpt lat="45.32634" lon="4.48132">
        <ele>1137.1999511719</ele>
        <time>2026-05-11T10:03:09.000Z</time>
      </trkpt>
      <trkpt lat="45.32632" lon="4.48132">
        <ele>1137</ele>
        <time>2026-05-11T10:03:10.000Z</time>
      </trkpt>
      <trkpt lat="45.32631" lon="4.48133">
        <ele>1137</ele>
        <time>2026-05-11T10:03:11.000Z</time>
      </trkpt>
      <trkpt lat="45.32629" lon="4.48133">
        <ele>1136.8000488281</ele>
        <time>2026-05-11T10:03:12.000Z</time>
      </trkpt>
      <trkpt lat="45.32628" lon="4.48133">
        <ele>1136.8000488281</ele>
        <time>2026-05-11T10:03:13.000Z</time>
      </trkpt>
      <trkpt lat="45.32627" lon="4.48134">
        <ele>1136.5999755859</ele>
        <time>2026-05-11T10:03:14.000Z</time>
      </trkpt>
      <trkpt lat="45.32625" lon="4.48134">
        <ele>1136.5999755859</ele>
        <time>2026-05-11T10:03:15.000Z</time>
      </trkpt>
      <trkpt lat="45.32624" lon="4.48133">
        <ele>1136.4000244141</ele>
        <time>2026-05-11T10:03:16.000Z</time>
      </trkpt>
      <trkpt lat="45.32623" lon="4.48133">
        <ele>1136.4000244141</ele>
        <time>2026-05-11T10:03:17.000Z</time>
      </trkpt>
      <trkpt lat="45.32621" lon="4.48134">
        <ele>1136.4000244141</ele>
        <time>2026-05-11T10:03:18.000Z</time>
      </trkpt>
      <trkpt lat="45.3262" lon="4.48137">
        <ele>1136.1999511719</ele>
        <time>2026-05-11T10:03:19.000Z</time>
      </trkpt>
      <trkpt lat="45.3262" lon="4.4814">
        <ele>1136</ele>
        <time>2026-05-11T10:03:20.000Z</time>
      </trkpt>
      <trkpt lat="45.3262" lon="4.48141">
        <ele>1136</ele>
        <time>2026-05-11T10:03:21.000Z</time>
      </trkpt>
      <trkpt lat="45.32622" lon="4.48143">
        <ele>1136</ele>
        <time>2026-05-11T10:03:22.000Z</time>
      </trkpt>
      <trkpt lat="45.32623" lon="4.48143">
        <ele>1135.8000488281</ele>
        <time>2026-05-11T10:03:23.000Z</time>
      </trkpt>
      <trkpt lat="45.32624" lon="4.48143">
        <ele>1135.8000488281</ele>
        <time>2026-05-11T10:03:24.000Z</time>
      </trkpt>
      <trkpt lat="45.32626" lon="4.48142">
        <ele>1135.8000488281</ele>
        <time>2026-05-11T10:03:25.000Z</time>
      </trkpt>
      <trkpt lat="45.32628" lon="4.48141">
        <ele>1135.8000488281</ele>
        <time>2026-05-11T10:03:26.000Z</time>
      </trkpt>
      <trkpt lat="45.3263" lon="4.48141">
        <ele>1135.8000488281</ele>
        <time>2026-05-11T10:03:27.000Z</time>
      </trkpt>
      <trkpt lat="45.32632" lon="4.48141">
        <ele>1135.8000488281</ele>
        <time>2026-05-11T10:03:28.000Z</time>
      </trkpt>
      <trkpt lat="45.32634" lon="4.48141">
        <ele>1135.8000488281</ele>
        <time>2026-05-11T10:03:29.000Z</time>
      </trkpt>
      <trkpt lat="45.32636" lon="4.48141">
        <ele>1136</ele>
        <time>2026-05-11T10:03:30.000Z</time>
      </trkpt>
      <trkpt lat="45.32638" lon="4.48141">
        <ele>1136</ele>
        <time>2026-05-11T10:03:31.000Z</time>
      </trkpt>
      <trkpt lat="45.32641" lon="4.4814">
        <ele>1136.1999511719</ele>
        <time>2026-05-11T10:03:32.000Z</time>
      </trkpt>
      <trkpt lat="45.32643" lon="4.4814">
        <ele>1136.1999511719</ele>
        <time>2026-05-11T10:03:33.000Z</time>
      </trkpt>
      <trkpt lat="45.32645" lon="4.48139">
        <ele>1136.4000244141</ele>
        <time>2026-05-11T10:03:34.000Z</time>
      </trkpt>
      <trkpt lat="45.32648" lon="4.48139">
        <ele>1136.4000244141</ele>
        <time>2026-05-11T10:03:35.000Z</time>
      </trkpt>
      <trkpt lat="45.32649" lon="4.48139">
        <ele>1136.5999755859</ele>
        <time>2026-05-11T10:03:36.000Z</time>
      </trkpt>
      <trkpt lat="45.32652" lon="4.48139">
        <ele>1136.8000488281</ele>
        <time>2026-05-11T10:03:37.000Z</time>
      </trkpt>
      <trkpt lat="45.32654" lon="4.48139">
        <ele>1137</ele>
        <time>2026-05-11T10:03:38.000Z</time>
      </trkpt>
      <trkpt lat="45.32656" lon="4.48139">
        <ele>1137.1999511719</ele>
        <time>2026-05-11T10:03:39.000Z</time>
      </trkpt>
      <trkpt lat="45.32657" lon="4.4814">
        <ele>1137.1999511719</ele>
        <time>2026-05-11T10:03:40.000Z</time>
      </trkpt>
      <trkpt lat="45.32659" lon="4.48141">
        <ele>1137.4000244141</ele>
        <time>2026-05-11T10:03:41.000Z</time>
      </trkpt>
      <trkpt lat="45.3266" lon="4.48143">
        <ele>1137.5999755859</ele>
        <time>2026-05-11T10:03:42.000Z</time>
      </trkpt>
      <trkpt lat="45.32661" lon="4.48144">
        <ele>1137.5999755859</ele>
        <time>2026-05-11T10:03:43.000Z</time>
      </trkpt>
      <trkpt lat="45.32662" lon="4.48145">
        <ele>1137.8000488281</ele>
        <time>2026-05-11T10:03:44.000Z</time>
      </trkpt>
      <trkpt lat="45.32663" lon="4.48145">
        <ele>1137.8000488281</ele>
        <time>2026-05-11T10:03:45.000Z</time>
      </trkpt>
      <trkpt lat="45.32664" lon="4.48147">
        <ele>1138</ele>
        <time>2026-05-11T10:03:46.000Z</time>
      </trkpt>
      <trkpt lat="45.32665" lon="4.48148">
        <ele>1138</ele>
        <time>2026-05-11T10:03:47.000Z</time>
      </trkpt>
      <trkpt lat="45.32665" lon="4.48149">
        <ele>1138</ele>
        <time>2026-05-11T10:03:48.000Z</time>
      </trkpt>
      <trkpt lat="45.32665" lon="4.4815">
        <ele>1138</ele>
        <time>2026-05-11T10:03:49.000Z</time>
      </trkpt>
      <trkpt lat="45.32664" lon="4.48151">
        <ele>1138</ele>
        <time>2026-05-11T10:03:50.000Z</time>
      </trkpt>
      <trkpt lat="45.32664" lon="4.48151">
        <ele>1138</ele>
        <time>2026-05-11T10:03:51.000Z</time>
      </trkpt>
      <trkpt lat="45.32664" lon="4.48153">
        <ele>1138</ele>
        <time>2026-05-11T10:03:52.000Z</time>
      </trkpt>
      <trkpt lat="45.32664" lon="4.48154">
        <ele>1138</ele>
        <time>2026-05-11T10:03:53.000Z</time>
      </trkpt>
      <trkpt lat="45.32664" lon="4.48156">
        <ele>1138</ele>
        <time>2026-05-11T10:03:54.000Z</time>
      </trkpt>
      <trkpt lat="45.32666" lon="4.48159">
        <ele>1138</ele>
        <time>2026-05-11T10:03:55.000Z</time>
      </trkpt>
      <trkpt lat="45.32669" lon="4.4816">
        <ele>1137.8000488281</ele>
        <time>2026-05-11T10:03:56.000Z</time>
      </trkpt>
      <trkpt lat="45.32671" lon="4.48158">
        <ele>1137.8000488281</ele>
        <time>2026-05-11T10:03:57.000Z</time>
      </trkpt>
      <trkpt lat="45.32673" lon="4.48156">
        <ele>1137.5999755859</ele>
        <time>2026-05-11T10:03:58.000Z</time>
      </trkpt>
      <trkpt lat="45.32674" lon="4.48154">
        <ele>1137.5999755859</ele>
        <time>2026-05-11T10:03:59.000Z</time>
      </trkpt>
      <trkpt lat="45.32675" lon="4.48152">
        <ele>1137.5999755859</ele>
        <time>2026-05-11T10:04:00.000Z</time>
      </trkpt>
      <trkpt lat="45.32676" lon="4.48149">
        <ele>1137.5999755859</ele>
        <time>2026-05-11T10:04:01.000Z</time>
      </trkpt>
      <trkpt lat="45.32678" lon="4.48146">
        <ele>1137.5999755859</ele>
        <time>2026-05-11T10:04:02.000Z</time>
      </trkpt>
      <trkpt lat="45.32679" lon="4.48143">
        <ele>1137.5999755859</ele>
        <time>2026-05-11T10:04:03.000Z</time>
      </trkpt>
      <trkpt lat="45.32681" lon="4.4814">
        <ele>1137.8000488281</ele>
        <time>2026-05-11T10:04:04.000Z</time>
      </trkpt>
      <trkpt lat="45.32683" lon="4.48136">
        <ele>1137.8000488281</ele>
        <time>2026-05-11T10:04:05.000Z</time>
      </trkpt>
      <trkpt lat="45.32685" lon="4.48133">
        <ele>1138</ele>
        <time>2026-05-11T10:04:06.000Z</time>
      </trkpt>
      <trkpt lat="45.32686" lon="4.4813">
        <ele>1138.1999511719</ele>
        <time>2026-05-11T10:04:07.000Z</time>
      </trkpt>
      <trkpt lat="45.32688" lon="4.48127">
        <ele>1138.1999511719</ele>
        <time>2026-05-11T10:04:08.000Z</time>
      </trkpt>
      <trkpt lat="45.3269" lon="4.48123">
        <ele>1138.4000244141</ele>
        <time>2026-05-11T10:04:09.000Z</time>
      </trkpt>
      <trkpt lat="45.32692" lon="4.4812">
        <ele>1138.5999755859</ele>
        <time>2026-05-11T10:04:10.000Z</time>
      </trkpt>
      <trkpt lat="45.32695" lon="4.48117">
        <ele>1138.5999755859</ele>
        <time>2026-05-11T10:04:11.000Z</time>
      </trkpt>
      <trkpt lat="45.32697" lon="4.48114">
        <ele>1138.8000488281</ele>
        <time>2026-05-11T10:04:12.000Z</time>
      </trkpt>
      <trkpt lat="45.32699" lon="4.48111">
        <ele>1139</ele>
        <time>2026-05-11T10:04:13.000Z</time>
      </trkpt>
      <trkpt lat="45.32701" lon="4.48109">
        <ele>1139.1999511719</ele>
        <time>2026-05-11T10:04:14.000Z</time>
      </trkpt>
      <trkpt lat="45.32703" lon="4.48106">
        <ele>1139.4000244141</ele>
        <time>2026-05-11T10:04:15.000Z</time>
      </trkpt>
      <trkpt lat="45.32705" lon="4.48104">
        <ele>1139.5999755859</ele>
        <time>2026-05-11T10:04:16.000Z</time>
      </trkpt>
      <trkpt lat="45.32707" lon="4.48101">
        <ele>1139.8000488281</ele>
        <time>2026-05-11T10:04:17.000Z</time>
      </trkpt>
      <trkpt lat="45.32709" lon="4.48099">
        <ele>1139.8000488281</ele>
        <time>2026-05-11T10:04:18.000Z</time>
      </trkpt>
      <trkpt lat="45.32711" lon="4.48096">
        <ele>1140</ele>
        <time>2026-05-11T10:04:19.000Z</time>
      </trkpt>
      <trkpt lat="45.32713" lon="4.48093">
        <ele>1140.1999511719</ele>
        <time>2026-05-11T10:04:20.000Z</time>
      </trkpt>
      <trkpt lat="45.32715" lon="4.4809">
        <ele>1140.1999511719</ele>
        <time>2026-05-11T10:04:21.000Z</time>
      </trkpt>
      <trkpt lat="45.32717" lon="4.48088">
        <ele>1140.4000244141</ele>
        <time>2026-05-11T10:04:22.000Z</time>
      </trkpt>
      <trkpt lat="45.32719" lon="4.48085">
        <ele>1140.4000244141</ele>
        <time>2026-05-11T10:04:23.000Z</time>
      </trkpt>
      <trkpt lat="45.32721" lon="4.48082">
        <ele>1140.5999755859</ele>
        <time>2026-05-11T10:04:24.000Z</time>
      </trkpt>
      <trkpt lat="45.32723" lon="4.48079">
        <ele>1140.5999755859</ele>
        <time>2026-05-11T10:04:25.000Z</time>
      </trkpt>
      <trkpt lat="45.32725" lon="4.48077">
        <ele>1140.8000488281</ele>
        <time>2026-05-11T10:04:26.000Z</time>
      </trkpt>
      <trkpt lat="45.32727" lon="4.48074">
        <ele>1140.8000488281</ele>
        <time>2026-05-11T10:04:27.000Z</time>
      </trkpt>
      <trkpt lat="45.32729" lon="4.48071">
        <ele>1141</ele>
        <time>2026-05-11T10:04:28.000Z</time>
      </trkpt>
      <trkpt lat="45.32731" lon="4.48069">
        <ele>1141.1999511719</ele>
        <time>2026-05-11T10:04:29.000Z</time>
      </trkpt>
      <trkpt lat="45.32733" lon="4.48066">
        <ele>1141.1999511719</ele>
        <time>2026-05-11T10:04:30.000Z</time>
      </trkpt>
      <trkpt lat="45.32735" lon="4.48064">
        <ele>1141.4000244141</ele>
        <time>2026-05-11T10:04:31.000Z</time>
      </trkpt>
      <trkpt lat="45.32737" lon="4.48061">
        <ele>1141.5999755859</ele>
        <time>2026-05-11T10:04:32.000Z</time>
      </trkpt>
      <trkpt lat="45.32739" lon="4.48058">
        <ele>1141.5999755859</ele>
        <time>2026-05-11T10:04:33.000Z</time>
      </trkpt>
      <trkpt lat="45.32741" lon="4.48056">
        <ele>1141.8000488281</ele>
        <time>2026-05-11T10:04:34.000Z</time>
      </trkpt>
      <trkpt lat="45.32743" lon="4.48054">
        <ele>1142</ele>
        <time>2026-05-11T10:04:35.000Z</time>
      </trkpt>
      <trkpt lat="45.32745" lon="4.48052">
        <ele>1142</ele>
        <time>2026-05-11T10:04:36.000Z</time>
      </trkpt>
      <trkpt lat="45.32747" lon="4.4805">
        <ele>1142.1999511719</ele>
        <time>2026-05-11T10:04:37.000Z</time>
      </trkpt>
      <trkpt lat="45.32749" lon="4.48047">
        <ele>1142.1999511719</ele>
        <time>2026-05-11T10:04:38.000Z</time>
      </trkpt>
      <trkpt lat="45.32751" lon="4.48045">
        <ele>1142.4000244141</ele>
        <time>2026-05-11T10:04:39.000Z</time>
      </trkpt>
      <trkpt lat="45.32753" lon="4.48042">
        <ele>1142.4000244141</ele>
        <time>2026-05-11T10:04:40.000Z</time>
      </trkpt>
      <trkpt lat="45.32755" lon="4.4804">
        <ele>1142.5999755859</ele>
        <time>2026-05-11T10:04:41.000Z</time>
      </trkpt>
      <trkpt lat="45.32757" lon="4.48037">
        <ele>1142.8000488281</ele>
        <time>2026-05-11T10:04:42.000Z</time>
      </trkpt>
      <trkpt lat="45.32759" lon="4.48035">
        <ele>1142.8000488281</ele>
        <time>2026-05-11T10:04:43.000Z</time>
      </trkpt>
      <trkpt lat="45.32761" lon="4.48033">
        <ele>1143</ele>
        <time>2026-05-11T10:04:44.000Z</time>
      </trkpt>
      <trkpt lat="45.32763" lon="4.48031">
        <ele>1143.1999511719</ele>
        <time>2026-05-11T10:04:45.000Z</time>
      </trkpt>
      <trkpt lat="45.32765" lon="4.48028">
        <ele>1143.1999511719</ele>
        <time>2026-05-11T10:04:46.000Z</time>
      </trkpt>
      <trkpt lat="45.32767" lon="4.48026">
        <ele>1143.4000244141</ele>
        <time>2026-05-11T10:04:47.000Z</time>
      </trkpt>
      <trkpt lat="45.32769" lon="4.48024">
        <ele>1143.4000244141</ele>
        <time>2026-05-11T10:04:48.000Z</time>
      </trkpt>
      <trkpt lat="45.32771" lon="4.48021">
        <ele>1143.4000244141</ele>
        <time>2026-05-11T10:04:49.000Z</time>
      </trkpt>
      <trkpt lat="45.32774" lon="4.48019">
        <ele>1143.5999755859</ele>
        <time>2026-05-11T10:04:50.000Z</time>
      </trkpt>
      <trkpt lat="45.32776" lon="4.48017">
        <ele>1143.5999755859</ele>
        <time>2026-05-11T10:04:51.000Z</time>
      </trkpt>
      <trkpt lat="45.32778" lon="4.48015">
        <ele>1143.8000488281</ele>
        <time>2026-05-11T10:04:52.000Z</time>
      </trkpt>
      <trkpt lat="45.3278" lon="4.48012">
        <ele>1143.8000488281</ele>
        <time>2026-05-11T10:04:53.000Z</time>
      </trkpt>
      <trkpt lat="45.32783" lon="4.4801">
        <ele>1144</ele>
        <time>2026-05-11T10:04:54.000Z</time>
      </trkpt>
      <trkpt lat="45.32785" lon="4.48008">
        <ele>1144.1999511719</ele>
        <time>2026-05-11T10:04:55.000Z</time>
      </trkpt>
      <trkpt lat="45.32787" lon="4.48006">
        <ele>1144.4000244141</ele>
        <time>2026-05-11T10:04:56.000Z</time>
      </trkpt>
      <trkpt lat="45.32789" lon="4.48004">
        <ele>1144.4000244141</ele>
        <time>2026-05-11T10:04:57.000Z</time>
      </trkpt>
      <trkpt lat="45.32792" lon="4.48002">
        <ele>1144.5999755859</ele>
        <time>2026-05-11T10:04:58.000Z</time>
      </trkpt>
      <trkpt lat="45.32794" lon="4.48">
        <ele>1144.8000488281</ele>
        <time>2026-05-11T10:04:59.000Z</time>
      </trkpt>
      <trkpt lat="45.32796" lon="4.47998">
        <ele>1145</ele>
        <time>2026-05-11T10:05:00.000Z</time>
      </trkpt>
      <trkpt lat="45.32799" lon="4.47996">
        <ele>1145.1999511719</ele>
        <time>2026-05-11T10:05:01.000Z</time>
      </trkpt>
      <trkpt lat="45.32801" lon="4.47995">
        <ele>1145.1999511719</ele>
        <time>2026-05-11T10:05:02.000Z</time>
      </trkpt>
      <trkpt lat="45.32803" lon="4.47993">
        <ele>1145.4000244141</ele>
        <time>2026-05-11T10:05:03.000Z</time>
      </trkpt>
      <trkpt lat="45.32805" lon="4.47991">
        <ele>1145.5999755859</ele>
        <time>2026-05-11T10:05:04.000Z</time>
      </trkpt>
      <trkpt lat="45.32808" lon="4.47989">
        <ele>1145.5999755859</ele>
        <time>2026-05-11T10:05:05.000Z</time>
      </trkpt>
      <trkpt lat="45.32811" lon="4.47988">
        <ele>1145.8000488281</ele>
        <time>2026-05-11T10:05:06.000Z</time>
      </trkpt>
      <trkpt lat="45.32814" lon="4.47987">
        <ele>1146</ele>
        <time>2026-05-11T10:05:07.000Z</time>
      </trkpt>
      <trkpt lat="45.32816" lon="4.47985">
        <ele>1146</ele>
        <time>2026-05-11T10:05:08.000Z</time>
      </trkpt>
      <trkpt lat="45.32819" lon="4.47984">
        <ele>1146.1999511719</ele>
        <time>2026-05-11T10:05:09.000Z</time>
      </trkpt>
      <trkpt lat="45.32822" lon="4.47982">
        <ele>1146.1999511719</ele>
        <time>2026-05-11T10:05:10.000Z</time>
      </trkpt>
      <trkpt lat="45.32824" lon="4.47981">
        <ele>1146.4000244141</ele>
        <time>2026-05-11T10:05:11.000Z</time>
      </trkpt>
      <trkpt lat="45.32827" lon="4.4798">
        <ele>1146.5999755859</ele>
        <time>2026-05-11T10:05:12.000Z</time>
      </trkpt>
      <trkpt lat="45.32829" lon="4.47979">
        <ele>1146.5999755859</ele>
        <time>2026-05-11T10:05:13.000Z</time>
      </trkpt>
      <trkpt lat="45.32832" lon="4.47978">
        <ele>1146.8000488281</ele>
        <time>2026-05-11T10:05:14.000Z</time>
      </trkpt>
      <trkpt lat="45.32834" lon="4.47976">
        <ele>1146.8000488281</ele>
        <time>2026-05-11T10:05:15.000Z</time>
      </trkpt>
      <trkpt lat="45.32837" lon="4.47974">
        <ele>1147</ele>
        <time>2026-05-11T10:05:16.000Z</time>
      </trkpt>
      <trkpt lat="45.32839" lon="4.47973">
        <ele>1147</ele>
        <time>2026-05-11T10:05:17.000Z</time>
      </trkpt>
      <trkpt lat="45.32841" lon="4.47972">
        <ele>1147.1999511719</ele>
        <time>2026-05-11T10:05:18.000Z</time>
      </trkpt>
      <trkpt lat="45.32844" lon="4.47971">
        <ele>1147.1999511719</ele>
        <time>2026-05-11T10:05:19.000Z</time>
      </trkpt>
      <trkpt lat="45.32846" lon="4.4797">
        <ele>1147.1999511719</ele>
        <time>2026-05-11T10:05:20.000Z</time>
      </trkpt>
      <trkpt lat="45.32848" lon="4.47969">
        <ele>1147.4000244141</ele>
        <time>2026-05-11T10:05:21.000Z</time>
      </trkpt>
      <trkpt lat="45.32851" lon="4.47968">
        <ele>1147.5999755859</ele>
        <time>2026-05-11T10:05:22.000Z</time>
      </trkpt>
      <trkpt lat="45.32853" lon="4.47967">
        <ele>1147.5999755859</ele>
        <time>2026-05-11T10:05:23.000Z</time>
      </trkpt>
      <trkpt lat="45.32856" lon="4.47967">
        <ele>1147.8000488281</ele>
        <time>2026-05-11T10:05:24.000Z</time>
      </trkpt>
      <trkpt lat="45.32859" lon="4.47966">
        <ele>1148</ele>
        <time>2026-05-11T10:05:25.000Z</time>
      </trkpt>
      <trkpt lat="45.32861" lon="4.47965">
        <ele>1148.1999511719</ele>
        <time>2026-05-11T10:05:26.000Z</time>
      </trkpt>
      <trkpt lat="45.32864" lon="4.47964">
        <ele>1148.1999511719</ele>
        <time>2026-05-11T10:05:27.000Z</time>
      </trkpt>
      <trkpt lat="45.32867" lon="4.47963">
        <ele>1148.4000244141</ele>
        <time>2026-05-11T10:05:28.000Z</time>
      </trkpt>
      <trkpt lat="45.32869" lon="4.47962">
        <ele>1148.4000244141</ele>
        <time>2026-05-11T10:05:29.000Z</time>
      </trkpt>
      <trkpt lat="45.32872" lon="4.47961">
        <ele>1148.5999755859</ele>
        <time>2026-05-11T10:05:30.000Z</time>
      </trkpt>
      <trkpt lat="45.32874" lon="4.4796">
        <ele>1148.5999755859</ele>
        <time>2026-05-11T10:05:31.000Z</time>
      </trkpt>
      <trkpt lat="45.32877" lon="4.47959">
        <ele>1148.8000488281</ele>
        <time>2026-05-11T10:05:32.000Z</time>
      </trkpt>
      <trkpt lat="45.3288" lon="4.47958">
        <ele>1149</ele>
        <time>2026-05-11T10:05:33.000Z</time>
      </trkpt>
      <trkpt lat="45.32882" lon="4.47957">
        <ele>1149</ele>
        <time>2026-05-11T10:05:34.000Z</time>
      </trkpt>
      <trkpt lat="45.32885" lon="4.47956">
        <ele>1149.1999511719</ele>
        <time>2026-05-11T10:05:35.000Z</time>
      </trkpt>
      <trkpt lat="45.32888" lon="4.47955">
        <ele>1149.4000244141</ele>
        <time>2026-05-11T10:05:36.000Z</time>
      </trkpt>
      <trkpt lat="45.3289" lon="4.47955">
        <ele>1149.5999755859</ele>
        <time>2026-05-11T10:05:37.000Z</time>
      </trkpt>
      <trkpt lat="45.32892" lon="4.47955">
        <ele>1149.5999755859</ele>
        <time>2026-05-11T10:05:38.000Z</time>
      </trkpt>
      <trkpt lat="45.32895" lon="4.47954">
        <ele>1149.8000488281</ele>
        <time>2026-05-11T10:05:39.000Z</time>
      </trkpt>
      <trkpt lat="45.32897" lon="4.47954">
        <ele>1150</ele>
        <time>2026-05-11T10:05:40.000Z</time>
      </trkpt>
      <trkpt lat="45.329" lon="4.47953">
        <ele>1150.1999511719</ele>
        <time>2026-05-11T10:05:41.000Z</time>
      </trkpt>
      <trkpt lat="45.32903" lon="4.47953">
        <ele>1150.1999511719</ele>
        <time>2026-05-11T10:05:42.000Z</time>
      </trkpt>
      <trkpt lat="45.32906" lon="4.47954">
        <ele>1150.4000244141</ele>
        <time>2026-05-11T10:05:43.000Z</time>
      </trkpt>
      <trkpt lat="45.32909" lon="4.47954">
        <ele>1150.5999755859</ele>
        <time>2026-05-11T10:05:44.000Z</time>
      </trkpt>
      <trkpt lat="45.32912" lon="4.47954">
        <ele>1150.5999755859</ele>
        <time>2026-05-11T10:05:45.000Z</time>
      </trkpt>
      <trkpt lat="45.32914" lon="4.47954">
        <ele>1150.8000488281</ele>
        <time>2026-05-11T10:05:46.000Z</time>
      </trkpt>
      <trkpt lat="45.32917" lon="4.47954">
        <ele>1151</ele>
        <time>2026-05-11T10:05:47.000Z</time>
      </trkpt>
      <trkpt lat="45.3292" lon="4.47954">
        <ele>1151.1999511719</ele>
        <time>2026-05-11T10:05:48.000Z</time>
      </trkpt>
      <trkpt lat="45.32924" lon="4.47954">
        <ele>1151.1999511719</ele>
        <time>2026-05-11T10:05:49.000Z</time>
      </trkpt>
      <trkpt lat="45.32926" lon="4.47954">
        <ele>1151.4000244141</ele>
        <time>2026-05-11T10:05:50.000Z</time>
      </trkpt>
      <trkpt lat="45.3293" lon="4.47954">
        <ele>1151.4000244141</ele>
        <time>2026-05-11T10:05:51.000Z</time>
      </trkpt>
      <trkpt lat="45.32933" lon="4.47954">
        <ele>1151.5999755859</ele>
        <time>2026-05-11T10:05:52.000Z</time>
      </trkpt>
      <trkpt lat="45.32936" lon="4.47955">
        <ele>1151.8000488281</ele>
        <time>2026-05-11T10:05:53.000Z</time>
      </trkpt>
      <trkpt lat="45.32939" lon="4.47955">
        <ele>1152</ele>
        <time>2026-05-11T10:05:54.000Z</time>
      </trkpt>
      <trkpt lat="45.32942" lon="4.47955">
        <ele>1152</ele>
        <time>2026-05-11T10:05:55.000Z</time>
      </trkpt>
      <trkpt lat="45.32945" lon="4.47956">
        <ele>1152.1999511719</ele>
        <time>2026-05-11T10:05:56.000Z</time>
      </trkpt>
      <trkpt lat="45.32948" lon="4.47957">
        <ele>1152.4000244141</ele>
        <time>2026-05-11T10:05:57.000Z</time>
      </trkpt>
      <trkpt lat="45.3295" lon="4.47958">
        <ele>1152.4000244141</ele>
        <time>2026-05-11T10:05:58.000Z</time>
      </trkpt>
      <trkpt lat="45.32953" lon="4.47959">
        <ele>1152.5999755859</ele>
        <time>2026-05-11T10:05:59.000Z</time>
      </trkpt>
      <trkpt lat="45.32955" lon="4.47959">
        <ele>1152.5999755859</ele>
        <time>2026-05-11T10:06:00.000Z</time>
      </trkpt>
      <trkpt lat="45.32958" lon="4.47959">
        <ele>1152.8000488281</ele>
        <time>2026-05-11T10:06:01.000Z</time>
      </trkpt>
      <trkpt lat="45.32961" lon="4.47959">
        <ele>1152.8000488281</ele>
        <time>2026-05-11T10:06:02.000Z</time>
      </trkpt>
      <trkpt lat="45.32964" lon="4.4796">
        <ele>1153</ele>
        <time>2026-05-11T10:06:03.000Z</time>
      </trkpt>
      <trkpt lat="45.32967" lon="4.47961">
        <ele>1153</ele>
        <time>2026-05-11T10:06:04.000Z</time>
      </trkpt>
      <trkpt lat="45.32969" lon="4.47961">
        <ele>1153.1999511719</ele>
        <time>2026-05-11T10:06:05.000Z</time>
      </trkpt>
      <trkpt lat="45.32972" lon="4.47962">
        <ele>1153.1999511719</ele>
        <time>2026-05-11T10:06:06.000Z</time>
      </trkpt>
      <trkpt lat="45.32974" lon="4.47962">
        <ele>1153.4000244141</ele>
        <time>2026-05-11T10:06:07.000Z</time>
      </trkpt>
      <trkpt lat="45.32977" lon="4.47963">
        <ele>1153.4000244141</ele>
        <time>2026-05-11T10:06:08.000Z</time>
      </trkpt>
      <trkpt lat="45.3298" lon="4.47963">
        <ele>1153.4000244141</ele>
        <time>2026-05-11T10:06:09.000Z</time>
      </trkpt>
      <trkpt lat="45.32983" lon="4.47964">
        <ele>1153.5999755859</ele>
        <time>2026-05-11T10:06:10.000Z</time>
      </trkpt>
      <trkpt lat="45.32986" lon="4.47964">
        <ele>1153.5999755859</ele>
        <time>2026-05-11T10:06:11.000Z</time>
      </trkpt>
      <trkpt lat="45.32989" lon="4.47965">
        <ele>1153.8000488281</ele>
        <time>2026-05-11T10:06:12.000Z</time>
      </trkpt>
      <trkpt lat="45.32992" lon="4.47965">
        <ele>1153.8000488281</ele>
        <time>2026-05-11T10:06:13.000Z</time>
      </trkpt>
      <trkpt lat="45.32995" lon="4.47966">
        <ele>1154</ele>
        <time>2026-05-11T10:06:14.000Z</time>
      </trkpt>
      <trkpt lat="45.32998" lon="4.47968">
        <ele>1154</ele>
        <time>2026-05-11T10:06:15.000Z</time>
      </trkpt>
      <trkpt lat="45.33002" lon="4.47969">
        <ele>1154</ele>
        <time>2026-05-11T10:06:16.000Z</time>
      </trkpt>
      <trkpt lat="45.33005" lon="4.4797">
        <ele>1154.1999511719</ele>
        <time>2026-05-11T10:06:17.000Z</time>
      </trkpt>
      <trkpt lat="45.33009" lon="4.4797">
        <ele>1154.1999511719</ele>
        <time>2026-05-11T10:06:18.000Z</time>
      </trkpt>
      <trkpt lat="45.33012" lon="4.47971">
        <ele>1154.1999511719</ele>
        <time>2026-05-11T10:06:19.000Z</time>
      </trkpt>
      <trkpt lat="45.33016" lon="4.47972">
        <ele>1154.4000244141</ele>
        <time>2026-05-11T10:06:20.000Z</time>
      </trkpt>
      <trkpt lat="45.33019" lon="4.47973">
        <ele>1154.4000244141</ele>
        <time>2026-05-11T10:06:21.000Z</time>
      </trkpt>
      <trkpt lat="45.33022" lon="4.47974">
        <ele>1154.5999755859</ele>
        <time>2026-05-11T10:06:22.000Z</time>
      </trkpt>
      <trkpt lat="45.33025" lon="4.47975">
        <ele>1154.5999755859</ele>
        <time>2026-05-11T10:06:23.000Z</time>
      </trkpt>
      <trkpt lat="45.33028" lon="4.47975">
        <ele>1154.8000488281</ele>
        <time>2026-05-11T10:06:24.000Z</time>
      </trkpt>
      <trkpt lat="45.33031" lon="4.47976">
        <ele>1154.8000488281</ele>
        <time>2026-05-11T10:06:25.000Z</time>
      </trkpt>
      <trkpt lat="45.33035" lon="4.47976">
        <ele>1155</ele>
        <time>2026-05-11T10:06:26.000Z</time>
      </trkpt>
      <trkpt lat="45.33038" lon="4.47977">
        <ele>1155.1999511719</ele>
        <time>2026-05-11T10:06:27.000Z</time>
      </trkpt>
      <trkpt lat="45.33041" lon="4.47978">
        <ele>1155.1999511719</ele>
        <time>2026-05-11T10:06:28.000Z</time>
      </trkpt>
      <trkpt lat="45.33044" lon="4.47978">
        <ele>1155.4000244141</ele>
        <time>2026-05-11T10:06:29.000Z</time>
      </trkpt>
      <trkpt lat="45.33047" lon="4.47979">
        <ele>1155.4000244141</ele>
        <time>2026-05-11T10:06:30.000Z</time>
      </trkpt>
      <trkpt lat="45.33049" lon="4.47979">
        <ele>1155.5999755859</ele>
        <time>2026-05-11T10:06:31.000Z</time>
      </trkpt>
      <trkpt lat="45.33052" lon="4.4798">
        <ele>1155.8000488281</ele>
        <time>2026-05-11T10:06:32.000Z</time>
      </trkpt>
      <trkpt lat="45.33055" lon="4.4798">
        <ele>1155.8000488281</ele>
        <time>2026-05-11T10:06:33.000Z</time>
      </trkpt>
      <trkpt lat="45.33058" lon="4.47981">
        <ele>1156</ele>
        <time>2026-05-11T10:06:34.000Z</time>
      </trkpt>
      <trkpt lat="45.3306" lon="4.47981">
        <ele>1156.1999511719</ele>
        <time>2026-05-11T10:06:35.000Z</time>
      </trkpt>
      <trkpt lat="45.33063" lon="4.47982">
        <ele>1156.1999511719</ele>
        <time>2026-05-11T10:06:36.000Z</time>
      </trkpt>
      <trkpt lat="45.33067" lon="4.47982">
        <ele>1156.4000244141</ele>
        <time>2026-05-11T10:06:37.000Z</time>
      </trkpt>
      <trkpt lat="45.3307" lon="4.47983">
        <ele>1156.4000244141</ele>
        <time>2026-05-11T10:06:38.000Z</time>
      </trkpt>
      <trkpt lat="45.33072" lon="4.47983">
        <ele>1156.5999755859</ele>
        <time>2026-05-11T10:06:39.000Z</time>
      </trkpt>
      <trkpt lat="45.33075" lon="4.47983">
        <ele>1156.8000488281</ele>
        <time>2026-05-11T10:06:40.000Z</time>
      </trkpt>
      <trkpt lat="45.33078" lon="4.47985">
        <ele>1156.8000488281</ele>
        <time>2026-05-11T10:06:41.000Z</time>
      </trkpt>
      <trkpt lat="45.33081" lon="4.47985">
        <ele>1157</ele>
        <time>2026-05-11T10:06:42.000Z</time>
      </trkpt>
      <trkpt lat="45.33084" lon="4.47986">
        <ele>1157</ele>
        <time>2026-05-11T10:06:43.000Z</time>
      </trkpt>
      <trkpt lat="45.33087" lon="4.47986">
        <ele>1157.1999511719</ele>
        <time>2026-05-11T10:06:44.000Z</time>
      </trkpt>
      <trkpt lat="45.3309" lon="4.47986">
        <ele>1157.1999511719</ele>
        <time>2026-05-11T10:06:45.000Z</time>
      </trkpt>
      <trkpt lat="45.33093" lon="4.47986">
        <ele>1157.1999511719</ele>
        <time>2026-05-11T10:06:46.000Z</time>
      </trkpt>
      <trkpt lat="45.33096" lon="4.47986">
        <ele>1157.4000244141</ele>
        <time>2026-05-11T10:06:47.000Z</time>
      </trkpt>
      <trkpt lat="45.33099" lon="4.47987">
        <ele>1157.4000244141</ele>
        <time>2026-05-11T10:06:48.000Z</time>
      </trkpt>
      <trkpt lat="45.33102" lon="4.47987">
        <ele>1157.5999755859</ele>
        <time>2026-05-11T10:06:49.000Z</time>
      </trkpt>
      <trkpt lat="45.33105" lon="4.47987">
        <ele>1157.5999755859</ele>
        <time>2026-05-11T10:06:50.000Z</time>
      </trkpt>
      <trkpt lat="45.33108" lon="4.47988">
        <ele>1157.5999755859</ele>
        <time>2026-05-11T10:06:51.000Z</time>
      </trkpt>
      <trkpt lat="45.33111" lon="4.47989">
        <ele>1157.8000488281</ele>
        <time>2026-05-11T10:06:52.000Z</time>
      </trkpt>
      <trkpt lat="45.33114" lon="4.4799">
        <ele>1157.8000488281</ele>
        <time>2026-05-11T10:06:53.000Z</time>
      </trkpt>
      <trkpt lat="45.33117" lon="4.4799">
        <ele>1157.8000488281</ele>
        <time>2026-05-11T10:06:54.000Z</time>
      </trkpt>
      <trkpt lat="45.33119" lon="4.47991">
        <ele>1158</ele>
        <time>2026-05-11T10:06:55.000Z</time>
      </trkpt>
      <trkpt lat="45.33122" lon="4.47991">
        <ele>1158</ele>
        <time>2026-05-11T10:06:56.000Z</time>
      </trkpt>
      <trkpt lat="45.33125" lon="4.47992">
        <ele>1158</ele>
        <time>2026-05-11T10:06:57.000Z</time>
      </trkpt>
      <trkpt lat="45.33128" lon="4.47993">
        <ele>1158.1999511719</ele>
        <time>2026-05-11T10:06:58.000Z</time>
      </trkpt>
      <trkpt lat="45.33131" lon="4.47993">
        <ele>1158.1999511719</ele>
        <time>2026-05-11T10:06:59.000Z</time>
      </trkpt>
      <trkpt lat="45.33134" lon="4.47993">
        <ele>1158.1999511719</ele>
        <time>2026-05-11T10:07:00.000Z</time>
      </trkpt>
      <trkpt lat="45.33137" lon="4.47993">
        <ele>1158.4000244141</ele>
        <time>2026-05-11T10:07:01.000Z</time>
      </trkpt>
      <trkpt lat="45.3314" lon="4.47994">
        <ele>1158.4000244141</ele>
        <time>2026-05-11T10:07:02.000Z</time>
      </trkpt>
      <trkpt lat="45.33143" lon="4.47995">
        <ele>1158.5999755859</ele>
        <time>2026-05-11T10:07:03.000Z</time>
      </trkpt>
      <trkpt lat="45.33147" lon="4.47996">
        <ele>1158.5999755859</ele>
        <time>2026-05-11T10:07:04.000Z</time>
      </trkpt>
      <trkpt lat="45.3315" lon="4.47997">
        <ele>1158.8000488281</ele>
        <time>2026-05-11T10:07:05.000Z</time>
      </trkpt>
      <trkpt lat="45.33153" lon="4.47997">
        <ele>1158.8000488281</ele>
        <time>2026-05-11T10:07:06.000Z</time>
      </trkpt>
      <trkpt lat="45.33157" lon="4.47998">
        <ele>1159</ele>
        <time>2026-05-11T10:07:07.000Z</time>
      </trkpt>
      <trkpt lat="45.3316" lon="4.47998">
        <ele>1159</ele>
        <time>2026-05-11T10:07:08.000Z</time>
      </trkpt>
      <trkpt lat="45.33163" lon="4.47999">
        <ele>1159</ele>
        <time>2026-05-11T10:07:09.000Z</time>
      </trkpt>
      <trkpt lat="45.33166" lon="4.48">
        <ele>1159.1999511719</ele>
        <time>2026-05-11T10:07:10.000Z</time>
      </trkpt>
      <trkpt lat="45.33169" lon="4.48001">
        <ele>1159.1999511719</ele>
        <time>2026-05-11T10:07:11.000Z</time>
      </trkpt>
      <trkpt lat="45.33172" lon="4.48002">
        <ele>1159.4000244141</ele>
        <time>2026-05-11T10:07:12.000Z</time>
      </trkpt>
      <trkpt lat="45.33175" lon="4.48002">
        <ele>1159.4000244141</ele>
        <time>2026-05-11T10:07:13.000Z</time>
      </trkpt>
      <trkpt lat="45.33178" lon="4.48002">
        <ele>1159.5999755859</ele>
        <time>2026-05-11T10:07:14.000Z</time>
      </trkpt>
      <trkpt lat="45.33181" lon="4.48003">
        <ele>1159.5999755859</ele>
        <time>2026-05-11T10:07:15.000Z</time>
      </trkpt>
      <trkpt lat="45.33184" lon="4.48003">
        <ele>1159.8000488281</ele>
        <time>2026-05-11T10:07:16.000Z</time>
      </trkpt>
      <trkpt lat="45.33187" lon="4.48004">
        <ele>1159.8000488281</ele>
        <time>2026-05-11T10:07:17.000Z</time>
      </trkpt>
      <trkpt lat="45.3319" lon="4.48005">
        <ele>1160</ele>
        <time>2026-05-11T10:07:18.000Z</time>
      </trkpt>
      <trkpt lat="45.33194" lon="4.48005">
        <ele>1160</ele>
        <time>2026-05-11T10:07:19.000Z</time>
      </trkpt>
      <trkpt lat="45.33197" lon="4.48006">
        <ele>1160.1999511719</ele>
        <time>2026-05-11T10:07:20.000Z</time>
      </trkpt>
      <trkpt lat="45.332" lon="4.48006">
        <ele>1160.1999511719</ele>
        <time>2026-05-11T10:07:21.000Z</time>
      </trkpt>
      <trkpt lat="45.33203" lon="4.48006">
        <ele>1160.4000244141</ele>
        <time>2026-05-11T10:07:22.000Z</time>
      </trkpt>
      <trkpt lat="45.33206" lon="4.48007">
        <ele>1160.5999755859</ele>
        <time>2026-05-11T10:07:23.000Z</time>
      </trkpt>
      <trkpt lat="45.33208" lon="4.48008">
        <ele>1160.5999755859</ele>
        <time>2026-05-11T10:07:24.000Z</time>
      </trkpt>
      <trkpt lat="45.33211" lon="4.48009">
        <ele>1160.5999755859</ele>
        <time>2026-05-11T10:07:25.000Z</time>
      </trkpt>
      <trkpt lat="45.33214" lon="4.4801">
        <ele>1160.8000488281</ele>
        <time>2026-05-11T10:07:26.000Z</time>
      </trkpt>
      <trkpt lat="45.33218" lon="4.48011">
        <ele>1160.8000488281</ele>
        <time>2026-05-11T10:07:27.000Z</time>
      </trkpt>
      <trkpt lat="45.33221" lon="4.48012">
        <ele>1161</ele>
        <time>2026-05-11T10:07:28.000Z</time>
      </trkpt>
      <trkpt lat="45.33223" lon="4.48012">
        <ele>1161</ele>
        <time>2026-05-11T10:07:29.000Z</time>
      </trkpt>
      <trkpt lat="45.33226" lon="4.48013">
        <ele>1161.1999511719</ele>
        <time>2026-05-11T10:07:30.000Z</time>
      </trkpt>
      <trkpt lat="45.33229" lon="4.48013">
        <ele>1161.1999511719</ele>
        <time>2026-05-11T10:07:31.000Z</time>
      </trkpt>
      <trkpt lat="45.33231" lon="4.48014">
        <ele>1161.1999511719</ele>
        <time>2026-05-11T10:07:32.000Z</time>
      </trkpt>
      <trkpt lat="45.33234" lon="4.48014">
        <ele>1161.4000244141</ele>
        <time>2026-05-11T10:07:33.000Z</time>
      </trkpt>
      <trkpt lat="45.33236" lon="4.48015">
        <ele>1161.4000244141</ele>
        <time>2026-05-11T10:07:34.000Z</time>
      </trkpt>
      <trkpt lat="45.33238" lon="4.48016">
        <ele>1161.5999755859</ele>
        <time>2026-05-11T10:07:35.000Z</time>
      </trkpt>
      <trkpt lat="45.3324" lon="4.48015">
        <ele>1161.5999755859</ele>
        <time>2026-05-11T10:07:36.000Z</time>
      </trkpt>
      <trkpt lat="45.33242" lon="4.48016">
        <ele>1161.8000488281</ele>
        <time>2026-05-11T10:07:37.000Z</time>
      </trkpt>
      <trkpt lat="45.33244" lon="4.48016">
        <ele>1161.8000488281</ele>
        <time>2026-05-11T10:07:38.000Z</time>
      </trkpt>
      <trkpt lat="45.33247" lon="4.48017">
        <ele>1161.8000488281</ele>
        <time>2026-05-11T10:07:39.000Z</time>
      </trkpt>
      <trkpt lat="45.3325" lon="4.48017">
        <ele>1161.8000488281</ele>
        <time>2026-05-11T10:07:40.000Z</time>
      </trkpt>
      <trkpt lat="45.33252" lon="4.48017">
        <ele>1161.8000488281</ele>
        <time>2026-05-11T10:07:41.000Z</time>
      </trkpt>
      <trkpt lat="45.33254" lon="4.48017">
        <ele>1162</ele>
        <time>2026-05-11T10:07:42.000Z</time>
      </trkpt>
      <trkpt lat="45.33255" lon="4.48015">
        <ele>1162</ele>
        <time>2026-05-11T10:07:43.000Z</time>
      </trkpt>
      <trkpt lat="45.33256" lon="4.48014">
        <ele>1162</ele>
        <time>2026-05-11T10:07:44.000Z</time>
      </trkpt>
      <trkpt lat="45.33258" lon="4.48013">
        <ele>1162</ele>
        <time>2026-05-11T10:07:45.000Z</time>
      </trkpt>
      <trkpt lat="45.33259" lon="4.48012">
        <ele>1162</ele>
        <time>2026-05-11T10:07:46.000Z</time>
      </trkpt>
      <trkpt lat="45.3326" lon="4.48011">
        <ele>1162</ele>
        <time>2026-05-11T10:07:47.000Z</time>
      </trkpt>
      <trkpt lat="45.33261" lon="4.4801">
        <ele>1162</ele>
        <time>2026-05-11T10:07:48.000Z</time>
      </trkpt>
      <trkpt lat="45.33262" lon="4.48009">
        <ele>1162.1999511719</ele>
        <time>2026-05-11T10:07:49.000Z</time>
      </trkpt>
      <trkpt lat="45.33263" lon="4.4801">
        <ele>1162.1999511719</ele>
        <time>2026-05-11T10:07:50.000Z</time>
      </trkpt>
      <trkpt lat="45.33265" lon="4.4801">
        <ele>1162.1999511719</ele>
        <time>2026-05-11T10:07:51.000Z</time>
      </trkpt>
      <trkpt lat="45.33266" lon="4.48011">
        <ele>1162</ele>
        <time>2026-05-11T10:07:52.000Z</time>
      </trkpt>
      <trkpt lat="45.33266" lon="4.48012">
        <ele>1162</ele>
        <time>2026-05-11T10:07:53.000Z</time>
      </trkpt>
      <trkpt lat="45.33266" lon="4.48012">
        <ele>1162.1999511719</ele>
        <time>2026-05-11T10:07:54.000Z</time>
      </trkpt>
      <trkpt lat="45.3326" lon="4.48012">
        <ele>1161.5999755859</ele>
        <time>2026-05-11T10:12:42.000Z</time>
      </trkpt>
      <trkpt lat="45.33258" lon="4.48012">
        <ele>1161.5999755859</ele>
        <time>2026-05-11T10:12:43.000Z</time>
      </trkpt>
      <trkpt lat="45.33256" lon="4.48011">
        <ele>1161.5999755859</ele>
        <time>2026-05-11T10:12:44.000Z</time>
      </trkpt>
      <trkpt lat="45.33254" lon="4.48011">
        <ele>1161.5999755859</ele>
        <time>2026-05-11T10:12:45.000Z</time>
      </trkpt>
      <trkpt lat="45.33252" lon="4.48011">
        <ele>1161.8000488281</ele>
        <time>2026-05-11T10:12:46.000Z</time>
      </trkpt>
      <trkpt lat="45.33249" lon="4.4801">
        <ele>1161.8000488281</ele>
        <time>2026-05-11T10:12:47.000Z</time>
      </trkpt>
      <trkpt lat="45.33246" lon="4.48009">
        <ele>1161.8000488281</ele>
        <time>2026-05-11T10:12:48.000Z</time>
      </trkpt>
      <trkpt lat="45.33243" lon="4.48008">
        <ele>1161.8000488281</ele>
        <time>2026-05-11T10:12:49.000Z</time>
      </trkpt>
      <trkpt lat="45.3324" lon="4.48008">
        <ele>1161.8000488281</ele>
        <time>2026-05-11T10:12:50.000Z</time>
      </trkpt>
      <trkpt lat="45.33236" lon="4.48007">
        <ele>1161.8000488281</ele>
        <time>2026-05-11T10:12:51.000Z</time>
      </trkpt>
      <trkpt lat="45.33233" lon="4.48007">
        <ele>1161.8000488281</ele>
        <time>2026-05-11T10:12:52.000Z</time>
      </trkpt>
      <trkpt lat="45.3323" lon="4.48006">
        <ele>1161.8000488281</ele>
        <time>2026-05-11T10:12:53.000Z</time>
      </trkpt>
      <trkpt lat="45.33227" lon="4.48006">
        <ele>1161.8000488281</ele>
        <time>2026-05-11T10:12:54.000Z</time>
      </trkpt>
      <trkpt lat="45.33223" lon="4.48005">
        <ele>1161.8000488281</ele>
        <time>2026-05-11T10:12:55.000Z</time>
      </trkpt>
      <trkpt lat="45.33219" lon="4.48004">
        <ele>1161.8000488281</ele>
        <time>2026-05-11T10:12:56.000Z</time>
      </trkpt>
      <trkpt lat="45.33216" lon="4.48004">
        <ele>1161.5999755859</ele>
        <time>2026-05-11T10:12:57.000Z</time>
      </trkpt>
      <trkpt lat="45.33212" lon="4.48004">
        <ele>1161.5999755859</ele>
        <time>2026-05-11T10:12:58.000Z</time>
      </trkpt>
      <trkpt lat="45.33209" lon="4.48003">
        <ele>1161.5999755859</ele>
        <time>2026-05-11T10:12:59.000Z</time>
      </trkpt>
      <trkpt lat="45.33205" lon="4.48002">
        <ele>1161.4000244141</ele>
        <time>2026-05-11T10:13:00.000Z</time>
      </trkpt>
      <trkpt lat="45.33201" lon="4.48001">
        <ele>1161.4000244141</ele>
        <time>2026-05-11T10:13:01.000Z</time>
      </trkpt>
      <trkpt lat="45.33197" lon="4.48001">
        <ele>1161.4000244141</ele>
        <time>2026-05-11T10:13:02.000Z</time>
      </trkpt>
      <trkpt lat="45.33193" lon="4.48">
        <ele>1161.1999511719</ele>
        <time>2026-05-11T10:13:03.000Z</time>
      </trkpt>
      <trkpt lat="45.33189" lon="4.47999">
        <ele>1161.1999511719</ele>
        <time>2026-05-11T10:13:04.000Z</time>
      </trkpt>
      <trkpt lat="45.33185" lon="4.47998">
        <ele>1161</ele>
        <time>2026-05-11T10:13:05.000Z</time>
      </trkpt>
      <trkpt lat="45.33181" lon="4.47998">
        <ele>1161</ele>
        <time>2026-05-11T10:13:06.000Z</time>
      </trkpt>
      <trkpt lat="45.33176" lon="4.47997">
        <ele>1160.8000488281</ele>
        <time>2026-05-11T10:13:07.000Z</time>
      </trkpt>
      <trkpt lat="45.33171" lon="4.47996">
        <ele>1160.8000488281</ele>
        <time>2026-05-11T10:13:08.000Z</time>
      </trkpt>
      <trkpt lat="45.33167" lon="4.47995">
        <ele>1160.8000488281</ele>
        <time>2026-05-11T10:13:09.000Z</time>
      </trkpt>
      <trkpt lat="45.33162" lon="4.47994">
        <ele>1160.5999755859</ele>
        <time>2026-05-11T10:13:10.000Z</time>
      </trkpt>
      <trkpt lat="45.33157" lon="4.47993">
        <ele>1160.4000244141</ele>
        <time>2026-05-11T10:13:11.000Z</time>
      </trkpt>
      <trkpt lat="45.33153" lon="4.47991">
        <ele>1160.4000244141</ele>
        <time>2026-05-11T10:13:12.000Z</time>
      </trkpt>
      <trkpt lat="45.33148" lon="4.4799">
        <ele>1160.1999511719</ele>
        <time>2026-05-11T10:13:13.000Z</time>
      </trkpt>
      <trkpt lat="45.33143" lon="4.47989">
        <ele>1160.1999511719</ele>
        <time>2026-05-11T10:13:14.000Z</time>
      </trkpt>
      <trkpt lat="45.33138" lon="4.47988">
        <ele>1160</ele>
        <time>2026-05-11T10:13:15.000Z</time>
      </trkpt>
      <trkpt lat="45.33133" lon="4.47987">
        <ele>1160</ele>
        <time>2026-05-11T10:13:16.000Z</time>
      </trkpt>
      <trkpt lat="45.33129" lon="4.47986">
        <ele>1159.8000488281</ele>
        <time>2026-05-11T10:13:17.000Z</time>
      </trkpt>
      <trkpt lat="45.33124" lon="4.47985">
        <ele>1159.5999755859</ele>
        <time>2026-05-11T10:13:18.000Z</time>
      </trkpt>
      <trkpt lat="45.33119" lon="4.47984">
        <ele>1159.5999755859</ele>
        <time>2026-05-11T10:13:19.000Z</time>
      </trkpt>
      <trkpt lat="45.33113" lon="4.47984">
        <ele>1159.4000244141</ele>
        <time>2026-05-11T10:13:20.000Z</time>
      </trkpt>
      <trkpt lat="45.33108" lon="4.47983">
        <ele>1159.1999511719</ele>
        <time>2026-05-11T10:13:21.000Z</time>
      </trkpt>
      <trkpt lat="45.33103" lon="4.47981">
        <ele>1159.1999511719</ele>
        <time>2026-05-11T10:13:22.000Z</time>
      </trkpt>
      <trkpt lat="45.33097" lon="4.4798">
        <ele>1159</ele>
        <time>2026-05-11T10:13:23.000Z</time>
      </trkpt>
      <trkpt lat="45.33092" lon="4.4798">
        <ele>1158.8000488281</ele>
        <time>2026-05-11T10:13:24.000Z</time>
      </trkpt>
      <trkpt lat="45.33087" lon="4.47979">
        <ele>1158.8000488281</ele>
        <time>2026-05-11T10:13:25.000Z</time>
      </trkpt>
      <trkpt lat="45.33082" lon="4.47978">
        <ele>1158.5999755859</ele>
        <time>2026-05-11T10:13:26.000Z</time>
      </trkpt>
      <trkpt lat="45.33076" lon="4.47977">
        <ele>1158.4000244141</ele>
        <time>2026-05-11T10:13:27.000Z</time>
      </trkpt>
      <trkpt lat="45.33071" lon="4.47975">
        <ele>1158.4000244141</ele>
        <time>2026-05-11T10:13:28.000Z</time>
      </trkpt>
      <trkpt lat="45.33065" lon="4.47975">
        <ele>1158.1999511719</ele>
        <time>2026-05-11T10:13:29.000Z</time>
      </trkpt>
      <trkpt lat="45.3306" lon="4.47974">
        <ele>1158</ele>
        <time>2026-05-11T10:13:30.000Z</time>
      </trkpt>
      <trkpt lat="45.33054" lon="4.47973">
        <ele>1157.8000488281</ele>
        <time>2026-05-11T10:13:31.000Z</time>
      </trkpt>
      <trkpt lat="45.33048" lon="4.47971">
        <ele>1157.8000488281</ele>
        <time>2026-05-11T10:13:32.000Z</time>
      </trkpt>
      <trkpt lat="45.33042" lon="4.4797">
        <ele>1157.5999755859</ele>
        <time>2026-05-11T10:13:33.000Z</time>
      </trkpt>
      <trkpt lat="45.33036" lon="4.47969">
        <ele>1157.4000244141</ele>
        <time>2026-05-11T10:13:34.000Z</time>
      </trkpt>
      <trkpt lat="45.33031" lon="4.47968">
        <ele>1157.1999511719</ele>
        <time>2026-05-11T10:13:35.000Z</time>
      </trkpt>
      <trkpt lat="45.33025" lon="4.47966">
        <ele>1157</ele>
        <time>2026-05-11T10:13:36.000Z</time>
      </trkpt>
      <trkpt lat="45.33019" lon="4.47965">
        <ele>1156.8000488281</ele>
        <time>2026-05-11T10:13:37.000Z</time>
      </trkpt>
      <trkpt lat="45.33013" lon="4.47964">
        <ele>1156.5999755859</ele>
        <time>2026-05-11T10:13:38.000Z</time>
      </trkpt>
      <trkpt lat="45.33007" lon="4.47963">
        <ele>1156.5999755859</ele>
        <time>2026-05-11T10:13:39.000Z</time>
      </trkpt>
      <trkpt lat="45.33001" lon="4.47962">
        <ele>1156.4000244141</ele>
        <time>2026-05-11T10:13:40.000Z</time>
      </trkpt>
      <trkpt lat="45.32995" lon="4.47961">
        <ele>1156.1999511719</ele>
        <time>2026-05-11T10:13:41.000Z</time>
      </trkpt>
      <trkpt lat="45.32989" lon="4.4796">
        <ele>1156</ele>
        <time>2026-05-11T10:13:42.000Z</time>
      </trkpt>
      <trkpt lat="45.32984" lon="4.47959">
        <ele>1155.8000488281</ele>
        <time>2026-05-11T10:13:43.000Z</time>
      </trkpt>
      <trkpt lat="45.32978" lon="4.47958">
        <ele>1155.5999755859</ele>
        <time>2026-05-11T10:13:44.000Z</time>
      </trkpt>
      <trkpt lat="45.32973" lon="4.47957">
        <ele>1155.5999755859</ele>
        <time>2026-05-11T10:13:45.000Z</time>
      </trkpt>
      <trkpt lat="45.32967" lon="4.47957">
        <ele>1155.4000244141</ele>
        <time>2026-05-11T10:13:46.000Z</time>
      </trkpt>
      <trkpt lat="45.3296" lon="4.47956">
        <ele>1155.1999511719</ele>
        <time>2026-05-11T10:13:47.000Z</time>
      </trkpt>
      <trkpt lat="45.32954" lon="4.47954">
        <ele>1155</ele>
        <time>2026-05-11T10:13:48.000Z</time>
      </trkpt>
      <trkpt lat="45.32948" lon="4.47954">
        <ele>1154.8000488281</ele>
        <time>2026-05-11T10:13:49.000Z</time>
      </trkpt>
      <trkpt lat="45.32942" lon="4.47953">
        <ele>1154.5999755859</ele>
        <time>2026-05-11T10:13:50.000Z</time>
      </trkpt>
      <trkpt lat="45.32936" lon="4.47952">
        <ele>1154.4000244141</ele>
        <time>2026-05-11T10:13:51.000Z</time>
      </trkpt>
      <trkpt lat="45.3293" lon="4.47951">
        <ele>1154.1999511719</ele>
        <time>2026-05-11T10:13:52.000Z</time>
      </trkpt>
      <trkpt lat="45.32923" lon="4.47951">
        <ele>1154</ele>
        <time>2026-05-11T10:13:53.000Z</time>
      </trkpt>
      <trkpt lat="45.32917" lon="4.47951">
        <ele>1153.8000488281</ele>
        <time>2026-05-11T10:13:54.000Z</time>
      </trkpt>
      <trkpt lat="45.3291" lon="4.4795">
        <ele>1153.5999755859</ele>
        <time>2026-05-11T10:13:55.000Z</time>
      </trkpt>
      <trkpt lat="45.32903" lon="4.47951">
        <ele>1153.1999511719</ele>
        <time>2026-05-11T10:13:56.000Z</time>
      </trkpt>
      <trkpt lat="45.32896" lon="4.47951">
        <ele>1153</ele>
        <time>2026-05-11T10:13:57.000Z</time>
      </trkpt>
      <trkpt lat="45.3289" lon="4.47952">
        <ele>1152.8000488281</ele>
        <time>2026-05-11T10:13:58.000Z</time>
      </trkpt>
      <trkpt lat="45.32882" lon="4.47954">
        <ele>1152.4000244141</ele>
        <time>2026-05-11T10:13:59.000Z</time>
      </trkpt>
      <trkpt lat="45.32875" lon="4.47956">
        <ele>1152.1999511719</ele>
        <time>2026-05-11T10:14:00.000Z</time>
      </trkpt>
      <trkpt lat="45.32867" lon="4.47959">
        <ele>1152</ele>
        <time>2026-05-11T10:14:01.000Z</time>
      </trkpt>
      <trkpt lat="45.3286" lon="4.47961">
        <ele>1151.5999755859</ele>
        <time>2026-05-11T10:14:02.000Z</time>
      </trkpt>
      <trkpt lat="45.32852" lon="4.47963">
        <ele>1151.4000244141</ele>
        <time>2026-05-11T10:14:03.000Z</time>
      </trkpt>
      <trkpt lat="45.32844" lon="4.47967">
        <ele>1151</ele>
        <time>2026-05-11T10:14:04.000Z</time>
      </trkpt>
      <trkpt lat="45.32837" lon="4.4797">
        <ele>1150.5999755859</ele>
        <time>2026-05-11T10:14:05.000Z</time>
      </trkpt>
      <trkpt lat="45.32829" lon="4.47973">
        <ele>1150.1999511719</ele>
        <time>2026-05-11T10:14:06.000Z</time>
      </trkpt>
      <trkpt lat="45.32821" lon="4.47977">
        <ele>1150</ele>
        <time>2026-05-11T10:14:07.000Z</time>
      </trkpt>
      <trkpt lat="45.32813" lon="4.47981">
        <ele>1149.5999755859</ele>
        <time>2026-05-11T10:14:08.000Z</time>
      </trkpt>
      <trkpt lat="45.32805" lon="4.47986">
        <ele>1149.1999511719</ele>
        <time>2026-05-11T10:14:09.000Z</time>
      </trkpt>
      <trkpt lat="45.32797" lon="4.47991">
        <ele>1148.8000488281</ele>
        <time>2026-05-11T10:14:10.000Z</time>
      </trkpt>
      <trkpt lat="45.3279" lon="4.47997">
        <ele>1148.4000244141</ele>
        <time>2026-05-11T10:14:11.000Z</time>
      </trkpt>
      <trkpt lat="45.32782" lon="4.48004">
        <ele>1148</ele>
        <time>2026-05-11T10:14:12.000Z</time>
      </trkpt>
      <trkpt lat="45.32774" lon="4.48011">
        <ele>1147.5999755859</ele>
        <time>2026-05-11T10:14:13.000Z</time>
      </trkpt>
      <trkpt lat="45.32766" lon="4.48018">
        <ele>1147.1999511719</ele>
        <time>2026-05-11T10:14:14.000Z</time>
      </trkpt>
      <trkpt lat="45.32759" lon="4.48026">
        <ele>1146.8000488281</ele>
        <time>2026-05-11T10:14:15.000Z</time>
      </trkpt>
      <trkpt lat="45.32752" lon="4.48033">
        <ele>1146.4000244141</ele>
        <time>2026-05-11T10:14:16.000Z</time>
      </trkpt>
      <trkpt lat="45.32745" lon="4.4804">
        <ele>1146</ele>
        <time>2026-05-11T10:14:17.000Z</time>
      </trkpt>
      <trkpt lat="45.32739" lon="4.48048">
        <ele>1145.5999755859</ele>
        <time>2026-05-11T10:14:18.000Z</time>
      </trkpt>
      <trkpt lat="45.32732" lon="4.48055">
        <ele>1145.1999511719</ele>
        <time>2026-05-11T10:14:19.000Z</time>
      </trkpt>
      <trkpt lat="45.32726" lon="4.48063">
        <ele>1144.8000488281</ele>
        <time>2026-05-11T10:14:20.000Z</time>
      </trkpt>
      <trkpt lat="45.32719" lon="4.48072">
        <ele>1144.1999511719</ele>
        <time>2026-05-11T10:14:21.000Z</time>
      </trkpt>
      <trkpt lat="45.32713" lon="4.4808">
        <ele>1143.8000488281</ele>
        <time>2026-05-11T10:14:22.000Z</time>
      </trkpt>
      <trkpt lat="45.32707" lon="4.48088">
        <ele>1143.1999511719</ele>
        <time>2026-05-11T10:14:23.000Z</time>
      </trkpt>
      <trkpt lat="45.32701" lon="4.48096">
        <ele>1142.8000488281</ele>
        <time>2026-05-11T10:14:24.000Z</time>
      </trkpt>
      <trkpt lat="45.32696" lon="4.48103">
        <ele>1142.5999755859</ele>
        <time>2026-05-11T10:14:25.000Z</time>
      </trkpt>
      <trkpt lat="45.32692" lon="4.48109">
        <ele>1142.1999511719</ele>
        <time>2026-05-11T10:14:26.000Z</time>
      </trkpt>
      <trkpt lat="45.32688" lon="4.48115">
        <ele>1141.8000488281</ele>
        <time>2026-05-11T10:14:27.000Z</time>
      </trkpt>
      <trkpt lat="45.32684" lon="4.4812">
        <ele>1141.5999755859</ele>
        <time>2026-05-11T10:14:28.000Z</time>
      </trkpt>
      <trkpt lat="45.3268" lon="4.48124">
        <ele>1141.1999511719</ele>
        <time>2026-05-11T10:14:29.000Z</time>
      </trkpt>
      <trkpt lat="45.32674" lon="4.48127">
        <ele>1141</ele>
        <time>2026-05-11T10:14:30.000Z</time>
      </trkpt>
      <trkpt lat="45.32669" lon="4.48129">
        <ele>1140.8000488281</ele>
        <time>2026-05-11T10:14:31.000Z</time>
      </trkpt>
      <trkpt lat="45.32664" lon="4.4813">
        <ele>1140.4000244141</ele>
        <time>2026-05-11T10:14:32.000Z</time>
      </trkpt>
      <trkpt lat="45.32659" lon="4.4813">
        <ele>1140.1999511719</ele>
        <time>2026-05-11T10:14:33.000Z</time>
      </trkpt>
      <trkpt lat="45.32655" lon="4.4813">
        <ele>1139.8000488281</ele>
        <time>2026-05-11T10:14:34.000Z</time>
      </trkpt>
      <trkpt lat="45.3265" lon="4.4813">
        <ele>1139.5999755859</ele>
        <time>2026-05-11T10:14:35.000Z</time>
      </trkpt>
      <trkpt lat="45.32645" lon="4.48131">
        <ele>1139.1999511719</ele>
        <time>2026-05-11T10:14:36.000Z</time>
      </trkpt>
      <trkpt lat="45.3264" lon="4.48132">
        <ele>1139</ele>
        <time>2026-05-11T10:14:37.000Z</time>
      </trkpt>
      <trkpt lat="45.32636" lon="4.48134">
        <ele>1138.5999755859</ele>
        <time>2026-05-11T10:14:38.000Z</time>
      </trkpt>
      <trkpt lat="45.32632" lon="4.48136">
        <ele>1138.4000244141</ele>
        <time>2026-05-11T10:14:39.000Z</time>
      </trkpt>
      <trkpt lat="45.32628" lon="4.48139">
        <ele>1138</ele>
        <time>2026-05-11T10:14:40.000Z</time>
      </trkpt>
      <trkpt lat="45.32626" lon="4.48143">
        <ele>1137.5999755859</ele>
        <time>2026-05-11T10:14:41.000Z</time>
      </trkpt>
      <trkpt lat="45.32624" lon="4.48146">
        <ele>1137.4000244141</ele>
        <time>2026-05-11T10:14:42.000Z</time>
      </trkpt>
      <trkpt lat="45.32623" lon="4.4815">
        <ele>1137.1999511719</ele>
        <time>2026-05-11T10:14:43.000Z</time>
      </trkpt>
      <trkpt lat="45.32622" lon="4.48154">
        <ele>1136.8000488281</ele>
        <time>2026-05-11T10:14:44.000Z</time>
      </trkpt>
      <trkpt lat="45.32621" lon="4.48158">
        <ele>1136.8000488281</ele>
        <time>2026-05-11T10:14:45.000Z</time>
      </trkpt>
      <trkpt lat="45.32619" lon="4.4816">
        <ele>1136.4000244141</ele>
        <time>2026-05-11T10:14:46.000Z</time>
      </trkpt>
      <trkpt lat="45.32617" lon="4.48163">
        <ele>1136.4000244141</ele>
        <time>2026-05-11T10:14:47.000Z</time>
      </trkpt>
      <trkpt lat="45.32615" lon="4.48165">
        <ele>1136.1999511719</ele>
        <time>2026-05-11T10:14:48.000Z</time>
      </trkpt>
      <trkpt lat="45.32614" lon="4.48168">
        <ele>1136.1999511719</ele>
        <time>2026-05-11T10:14:49.000Z</time>
      </trkpt>
      <trkpt lat="45.32611" lon="4.4817">
        <ele>1136</ele>
        <time>2026-05-11T10:14:50.000Z</time>
      </trkpt>
      <trkpt lat="45.32609" lon="4.4817">
        <ele>1136</ele>
        <time>2026-05-11T10:14:51.000Z</time>
      </trkpt>
      <trkpt lat="45.32608" lon="4.4817">
        <ele>1135.8000488281</ele>
        <time>2026-05-11T10:14:52.000Z</time>
      </trkpt>
      <trkpt lat="45.32607" lon="4.4817">
        <ele>1135.8000488281</ele>
        <time>2026-05-11T10:14:53.000Z</time>
      </trkpt>
      <trkpt lat="45.32607" lon="4.4817">
        <ele>1135.5999755859</ele>
        <time>2026-05-11T10:14:54.000Z</time>
      </trkpt>
      <trkpt lat="45.32617" lon="4.48158">
        <ele>1135.1999511719</ele>
        <time>2026-05-11T11:35:14.000Z</time>
      </trkpt>
      <trkpt lat="45.32617" lon="4.48156">
        <ele>1135.1999511719</ele>
        <time>2026-05-11T11:35:15.000Z</time>
      </trkpt>
      <trkpt lat="45.32618" lon="4.48155">
        <ele>1135.4000244141</ele>
        <time>2026-05-11T11:35:16.000Z</time>
      </trkpt>
      <trkpt lat="45.32619" lon="4.48152">
        <ele>1135.4000244141</ele>
        <time>2026-05-11T11:35:17.000Z</time>
      </trkpt>
      <trkpt lat="45.3262" lon="4.48149">
        <ele>1135.4000244141</ele>
        <time>2026-05-11T11:35:18.000Z</time>
      </trkpt>
      <trkpt lat="45.32622" lon="4.48147">
        <ele>1135.5999755859</ele>
        <time>2026-05-11T11:35:19.000Z</time>
      </trkpt>
      <trkpt lat="45.32623" lon="4.48145">
        <ele>1135.5999755859</ele>
        <time>2026-05-11T11:35:20.000Z</time>
      </trkpt>
      <trkpt lat="45.32625" lon="4.48145">
        <ele>1135.8000488281</ele>
        <time>2026-05-11T11:35:21.000Z</time>
      </trkpt>
      <trkpt lat="45.32626" lon="4.48144">
        <ele>1135.8000488281</ele>
        <time>2026-05-11T11:35:22.000Z</time>
      </trkpt>
      <trkpt lat="45.32628" lon="4.48143">
        <ele>1136</ele>
        <time>2026-05-11T11:35:23.000Z</time>
      </trkpt>
      <trkpt lat="45.32631" lon="4.48143">
        <ele>1136</ele>
        <time>2026-05-11T11:35:24.000Z</time>
      </trkpt>
      <trkpt lat="45.32633" lon="4.48143">
        <ele>1136</ele>
        <time>2026-05-11T11:35:25.000Z</time>
      </trkpt>
      <trkpt lat="45.32635" lon="4.48143">
        <ele>1136.1999511719</ele>
        <time>2026-05-11T11:35:26.000Z</time>
      </trkpt>
      <trkpt lat="45.32637" lon="4.48143">
        <ele>1136.1999511719</ele>
        <time>2026-05-11T11:35:27.000Z</time>
      </trkpt>
      <trkpt lat="45.3264" lon="4.48142">
        <ele>1136.1999511719</ele>
        <time>2026-05-11T11:35:28.000Z</time>
      </trkpt>
      <trkpt lat="45.32642" lon="4.48142">
        <ele>1136.1999511719</ele>
        <time>2026-05-11T11:35:29.000Z</time>
      </trkpt>
      <trkpt lat="45.32644" lon="4.48141">
        <ele>1136.4000244141</ele>
        <time>2026-05-11T11:35:30.000Z</time>
      </trkpt>
      <trkpt lat="45.32646" lon="4.48141">
        <ele>1136.4000244141</ele>
        <time>2026-05-11T11:35:31.000Z</time>
      </trkpt>
      <trkpt lat="45.32648" lon="4.4814">
        <ele>1136.5999755859</ele>
        <time>2026-05-11T11:35:32.000Z</time>
      </trkpt>
      <trkpt lat="45.3265" lon="4.4814">
        <ele>1136.8000488281</ele>
        <time>2026-05-11T11:35:33.000Z</time>
      </trkpt>
      <trkpt lat="45.32652" lon="4.4814">
        <ele>1136.8000488281</ele>
        <time>2026-05-11T11:35:34.000Z</time>
      </trkpt>
      <trkpt lat="45.32653" lon="4.4814">
        <ele>1137</ele>
        <time>2026-05-11T11:35:35.000Z</time>
      </trkpt>
      <trkpt lat="45.32655" lon="4.48139">
        <ele>1137.1999511719</ele>
        <time>2026-05-11T11:35:36.000Z</time>
      </trkpt>
      <trkpt lat="45.32657" lon="4.48139">
        <ele>1137.4000244141</ele>
        <time>2026-05-11T11:35:37.000Z</time>
      </trkpt>
      <trkpt lat="45.32658" lon="4.4814">
        <ele>1137.5999755859</ele>
        <time>2026-05-11T11:35:38.000Z</time>
      </trkpt>
      <trkpt lat="45.32659" lon="4.48141">
        <ele>1137.5999755859</ele>
        <time>2026-05-11T11:35:39.000Z</time>
      </trkpt>
      <trkpt lat="45.3266" lon="4.48142">
        <ele>1137.8000488281</ele>
        <time>2026-05-11T11:35:40.000Z</time>
      </trkpt>
      <trkpt lat="45.32661" lon="4.48143">
        <ele>1137.8000488281</ele>
        <time>2026-05-11T11:35:41.000Z</time>
      </trkpt>
      <trkpt lat="45.32662" lon="4.48144">
        <ele>1137.8000488281</ele>
        <time>2026-05-11T11:35:42.000Z</time>
      </trkpt>
      <trkpt lat="45.32663" lon="4.48145">
        <ele>1138</ele>
        <time>2026-05-11T11:35:43.000Z</time>
      </trkpt>
      <trkpt lat="45.32664" lon="4.48145">
        <ele>1138</ele>
        <time>2026-05-11T11:35:44.000Z</time>
      </trkpt>
      <trkpt lat="45.32666" lon="4.48147">
        <ele>1138</ele>
        <time>2026-05-11T11:35:45.000Z</time>
      </trkpt>
      <trkpt lat="45.32667" lon="4.48147">
        <ele>1138</ele>
        <time>2026-05-11T11:35:46.000Z</time>
      </trkpt>
      <trkpt lat="45.32669" lon="4.48148">
        <ele>1138.1999511719</ele>
        <time>2026-05-11T11:35:47.000Z</time>
      </trkpt>
      <trkpt lat="45.32671" lon="4.4815">
        <ele>1138.1999511719</ele>
        <time>2026-05-11T11:35:48.000Z</time>
      </trkpt>
      <trkpt lat="45.32673" lon="4.48151">
        <ele>1138.1999511719</ele>
        <time>2026-05-11T11:35:49.000Z</time>
      </trkpt>
      <trkpt lat="45.32676" lon="4.48151">
        <ele>1138.1999511719</ele>
        <time>2026-05-11T11:35:50.000Z</time>
      </trkpt>
      <trkpt lat="45.32678" lon="4.48152">
        <ele>1138.1999511719</ele>
        <time>2026-05-11T11:35:51.000Z</time>
      </trkpt>
      <trkpt lat="45.3268" lon="4.48153">
        <ele>1138.1999511719</ele>
        <time>2026-05-11T11:35:52.000Z</time>
      </trkpt>
      <trkpt lat="45.32682" lon="4.48153">
        <ele>1138.1999511719</ele>
        <time>2026-05-11T11:35:53.000Z</time>
      </trkpt>
      <trkpt lat="45.32683" lon="4.48155">
        <ele>1138.1999511719</ele>
        <time>2026-05-11T11:35:54.000Z</time>
      </trkpt>
      <trkpt lat="45.32684" lon="4.48157">
        <ele>1138.4000244141</ele>
        <time>2026-05-11T11:35:55.000Z</time>
      </trkpt>
      <trkpt lat="45.32685" lon="4.48158">
        <ele>1138.4000244141</ele>
        <time>2026-05-11T11:35:56.000Z</time>
      </trkpt>
      <trkpt lat="45.32687" lon="4.4816">
        <ele>1138.5999755859</ele>
        <time>2026-05-11T11:35:57.000Z</time>
      </trkpt>
      <trkpt lat="45.32688" lon="4.48161">
        <ele>1138.8000488281</ele>
        <time>2026-05-11T11:35:58.000Z</time>
      </trkpt>
      <trkpt lat="45.32689" lon="4.48163">
        <ele>1138.8000488281</ele>
        <time>2026-05-11T11:35:59.000Z</time>
      </trkpt>
      <trkpt lat="45.3269" lon="4.48164">
        <ele>1139</ele>
        <time>2026-05-11T11:36:00.000Z</time>
      </trkpt>
      <trkpt lat="45.32691" lon="4.48165">
        <ele>1139</ele>
        <time>2026-05-11T11:36:01.000Z</time>
      </trkpt>
      <trkpt lat="45.32692" lon="4.48167">
        <ele>1139.1999511719</ele>
        <time>2026-05-11T11:36:02.000Z</time>
      </trkpt>
      <trkpt lat="45.32693" lon="4.48168">
        <ele>1139.1999511719</ele>
        <time>2026-05-11T11:36:03.000Z</time>
      </trkpt>
      <trkpt lat="45.32694" lon="4.4817">
        <ele>1139.1999511719</ele>
        <time>2026-05-11T11:36:04.000Z</time>
      </trkpt>
      <trkpt lat="45.32695" lon="4.48171">
        <ele>1139.1999511719</ele>
        <time>2026-05-11T11:36:05.000Z</time>
      </trkpt>
      <trkpt lat="45.32695" lon="4.48172">
        <ele>1139.1999511719</ele>
        <time>2026-05-11T11:36:06.000Z</time>
      </trkpt>
      <trkpt lat="45.32696" lon="4.48174">
        <ele>1139.4000244141</ele>
        <time>2026-05-11T11:36:07.000Z</time>
      </trkpt>
      <trkpt lat="45.32697" lon="4.48175">
        <ele>1139.4000244141</ele>
        <time>2026-05-11T11:36:08.000Z</time>
      </trkpt>
      <trkpt lat="45.32698" lon="4.48177">
        <ele>1139.5999755859</ele>
        <time>2026-05-11T11:36:09.000Z</time>
      </trkpt>
      <trkpt lat="45.32698" lon="4.48178">
        <ele>1139.5999755859</ele>
        <time>2026-05-11T11:36:10.000Z</time>
      </trkpt>
      <trkpt lat="45.32699" lon="4.4818">
        <ele>1139.8000488281</ele>
        <time>2026-05-11T11:36:11.000Z</time>
      </trkpt>
      <trkpt lat="45.32699" lon="4.48181">
        <ele>1139.8000488281</ele>
        <time>2026-05-11T11:36:12.000Z</time>
      </trkpt>
      <trkpt lat="45.327" lon="4.48182">
        <ele>1140</ele>
        <time>2026-05-11T11:36:13.000Z</time>
      </trkpt>
      <trkpt lat="45.32701" lon="4.48183">
        <ele>1140.1999511719</ele>
        <time>2026-05-11T11:36:14.000Z</time>
      </trkpt>
      <trkpt lat="45.32702" lon="4.48185">
        <ele>1140.4000244141</ele>
        <time>2026-05-11T11:36:15.000Z</time>
      </trkpt>
      <trkpt lat="45.32703" lon="4.48186">
        <ele>1140.5999755859</ele>
        <time>2026-05-11T11:36:16.000Z</time>
      </trkpt>
      <trkpt lat="45.32704" lon="4.48188">
        <ele>1140.8000488281</ele>
        <time>2026-05-11T11:36:17.000Z</time>
      </trkpt>
      <trkpt lat="45.32705" lon="4.48189">
        <ele>1141</ele>
        <time>2026-05-11T11:36:18.000Z</time>
      </trkpt>
      <trkpt lat="45.32706" lon="4.4819">
        <ele>1141.1999511719</ele>
        <time>2026-05-11T11:36:19.000Z</time>
      </trkpt>
      <trkpt lat="45.32706" lon="4.48191">
        <ele>1141.4000244141</ele>
        <time>2026-05-11T11:36:20.000Z</time>
      </trkpt>
      <trkpt lat="45.32707" lon="4.48193">
        <ele>1141.8000488281</ele>
        <time>2026-05-11T11:36:21.000Z</time>
      </trkpt>
      <trkpt lat="45.32708" lon="4.48195">
        <ele>1142</ele>
        <time>2026-05-11T11:36:22.000Z</time>
      </trkpt>
      <trkpt lat="45.32709" lon="4.48196">
        <ele>1142.4000244141</ele>
        <time>2026-05-11T11:36:23.000Z</time>
      </trkpt>
      <trkpt lat="45.3271" lon="4.48198">
        <ele>1142.8000488281</ele>
        <time>2026-05-11T11:36:24.000Z</time>
      </trkpt>
      <trkpt lat="45.32711" lon="4.48199">
        <ele>1143</ele>
        <time>2026-05-11T11:36:25.000Z</time>
      </trkpt>
      <trkpt lat="45.32712" lon="4.482">
        <ele>1143.4000244141</ele>
        <time>2026-05-11T11:36:26.000Z</time>
      </trkpt>
      <trkpt lat="45.32713" lon="4.48202">
        <ele>1143.5999755859</ele>
        <time>2026-05-11T11:36:27.000Z</time>
      </trkpt>
      <trkpt lat="45.32715" lon="4.48203">
        <ele>1144</ele>
        <time>2026-05-11T11:36:28.000Z</time>
      </trkpt>
      <trkpt lat="45.32716" lon="4.48204">
        <ele>1144.1999511719</ele>
        <time>2026-05-11T11:36:29.000Z</time>
      </trkpt>
      <trkpt lat="45.32717" lon="4.48206">
        <ele>1144.5999755859</ele>
        <time>2026-05-11T11:36:30.000Z</time>
      </trkpt>
      <trkpt lat="45.32718" lon="4.48207">
        <ele>1144.8000488281</ele>
        <time>2026-05-11T11:36:31.000Z</time>
      </trkpt>
      <trkpt lat="45.32719" lon="4.48208">
        <ele>1145.1999511719</ele>
        <time>2026-05-11T11:36:32.000Z</time>
      </trkpt>
      <trkpt lat="45.32721" lon="4.48209">
        <ele>1145.4000244141</ele>
        <time>2026-05-11T11:36:33.000Z</time>
      </trkpt>
      <trkpt lat="45.32722" lon="4.48211">
        <ele>1145.5999755859</ele>
        <time>2026-05-11T11:36:34.000Z</time>
      </trkpt>
      <trkpt lat="45.32723" lon="4.48213">
        <ele>1146</ele>
        <time>2026-05-11T11:36:35.000Z</time>
      </trkpt>
      <trkpt lat="45.32723" lon="4.48215">
        <ele>1146.1999511719</ele>
        <time>2026-05-11T11:36:36.000Z</time>
      </trkpt>
      <trkpt lat="45.32724" lon="4.48217">
        <ele>1146.4000244141</ele>
        <time>2026-05-11T11:36:37.000Z</time>
      </trkpt>
      <trkpt lat="45.32726" lon="4.48218">
        <ele>1146.8000488281</ele>
        <time>2026-05-11T11:36:38.000Z</time>
      </trkpt>
      <trkpt lat="45.32727" lon="4.4822">
        <ele>1147</ele>
        <time>2026-05-11T11:36:39.000Z</time>
      </trkpt>
      <trkpt lat="45.32728" lon="4.48221">
        <ele>1147.1999511719</ele>
        <time>2026-05-11T11:36:40.000Z</time>
      </trkpt>
      <trkpt lat="45.32729" lon="4.48223">
        <ele>1147.4000244141</ele>
        <time>2026-05-11T11:36:41.000Z</time>
      </trkpt>
      <trkpt lat="45.3273" lon="4.48224">
        <ele>1147.5999755859</ele>
        <time>2026-05-11T11:36:42.000Z</time>
      </trkpt>
      <trkpt lat="45.32731" lon="4.48226">
        <ele>1148</ele>
        <time>2026-05-11T11:36:43.000Z</time>
      </trkpt>
      <trkpt lat="45.32732" lon="4.48227">
        <ele>1148.1999511719</ele>
        <time>2026-05-11T11:36:44.000Z</time>
      </trkpt>
      <trkpt lat="45.32733" lon="4.48229">
        <ele>1148.4000244141</ele>
        <time>2026-05-11T11:36:45.000Z</time>
      </trkpt>
      <trkpt lat="45.32734" lon="4.4823">
        <ele>1148.5999755859</ele>
        <time>2026-05-11T11:36:46.000Z</time>
      </trkpt>
      <trkpt lat="45.32735" lon="4.48232">
        <ele>1148.8000488281</ele>
        <time>2026-05-11T11:36:47.000Z</time>
      </trkpt>
      <trkpt lat="45.32736" lon="4.48233">
        <ele>1149</ele>
        <time>2026-05-11T11:36:48.000Z</time>
      </trkpt>
      <trkpt lat="45.32737" lon="4.48234">
        <ele>1149.1999511719</ele>
        <time>2026-05-11T11:36:49.000Z</time>
      </trkpt>
      <trkpt lat="45.32738" lon="4.48236">
        <ele>1149.4000244141</ele>
        <time>2026-05-11T11:36:50.000Z</time>
      </trkpt>
      <trkpt lat="45.32739" lon="4.48237">
        <ele>1149.5999755859</ele>
        <time>2026-05-11T11:36:51.000Z</time>
      </trkpt>
      <trkpt lat="45.3274" lon="4.48238">
        <ele>1149.8000488281</ele>
        <time>2026-05-11T11:36:52.000Z</time>
      </trkpt>
      <trkpt lat="45.32741" lon="4.4824">
        <ele>1150.1999511719</ele>
        <time>2026-05-11T11:36:53.000Z</time>
      </trkpt>
      <trkpt lat="45.32742" lon="4.48242">
        <ele>1150.4000244141</ele>
        <time>2026-05-11T11:36:54.000Z</time>
      </trkpt>
      <trkpt lat="45.32743" lon="4.48244">
        <ele>1150.5999755859</ele>
        <time>2026-05-11T11:36:55.000Z</time>
      </trkpt>
      <trkpt lat="45.32744" lon="4.48246">
        <ele>1150.8000488281</ele>
        <time>2026-05-11T11:36:56.000Z</time>
      </trkpt>
      <trkpt lat="45.32745" lon="4.48247">
        <ele>1151</ele>
        <time>2026-05-11T11:36:57.000Z</time>
      </trkpt>
      <trkpt lat="45.32746" lon="4.48249">
        <ele>1151.1999511719</ele>
        <time>2026-05-11T11:36:58.000Z</time>
      </trkpt>
      <trkpt lat="45.32747" lon="4.48251">
        <ele>1151.4000244141</ele>
        <time>2026-05-11T11:36:59.000Z</time>
      </trkpt>
      <trkpt lat="45.32748" lon="4.48253">
        <ele>1151.5999755859</ele>
        <time>2026-05-11T11:37:00.000Z</time>
      </trkpt>
      <trkpt lat="45.32749" lon="4.48255">
        <ele>1151.8000488281</ele>
        <time>2026-05-11T11:37:01.000Z</time>
      </trkpt>
      <trkpt lat="45.32749" lon="4.48256">
        <ele>1152</ele>
        <time>2026-05-11T11:37:02.000Z</time>
      </trkpt>
      <trkpt lat="45.3275" lon="4.48258">
        <ele>1152.1999511719</ele>
        <time>2026-05-11T11:37:03.000Z</time>
      </trkpt>
      <trkpt lat="45.32751" lon="4.4826">
        <ele>1152.4000244141</ele>
        <time>2026-05-11T11:37:04.000Z</time>
      </trkpt>
      <trkpt lat="45.32752" lon="4.48262">
        <ele>1152.5999755859</ele>
        <time>2026-05-11T11:37:05.000Z</time>
      </trkpt>
      <trkpt lat="45.32753" lon="4.48264">
        <ele>1152.8000488281</ele>
        <time>2026-05-11T11:37:06.000Z</time>
      </trkpt>
      <trkpt lat="45.32753" lon="4.48266">
        <ele>1153</ele>
        <time>2026-05-11T11:37:07.000Z</time>
      </trkpt>
      <trkpt lat="45.32754" lon="4.48268">
        <ele>1153.1999511719</ele>
        <time>2026-05-11T11:37:08.000Z</time>
      </trkpt>
      <trkpt lat="45.32755" lon="4.4827">
        <ele>1153.4000244141</ele>
        <time>2026-05-11T11:37:09.000Z</time>
      </trkpt>
      <trkpt lat="45.32756" lon="4.48271">
        <ele>1153.5999755859</ele>
        <time>2026-05-11T11:37:10.000Z</time>
      </trkpt>
      <trkpt lat="45.32756" lon="4.48273">
        <ele>1153.8000488281</ele>
        <time>2026-05-11T11:37:11.000Z</time>
      </trkpt>
      <trkpt lat="45.32757" lon="4.48275">
        <ele>1154</ele>
        <time>2026-05-11T11:37:12.000Z</time>
      </trkpt>
      <trkpt lat="45.32758" lon="4.48278">
        <ele>1154.1999511719</ele>
        <time>2026-05-11T11:37:13.000Z</time>
      </trkpt>
      <trkpt lat="45.32758" lon="4.4828">
        <ele>1154.4000244141</ele>
        <time>2026-05-11T11:37:14.000Z</time>
      </trkpt>
      <trkpt lat="45.32759" lon="4.48282">
        <ele>1154.5999755859</ele>
        <time>2026-05-11T11:37:15.000Z</time>
      </trkpt>
      <trkpt lat="45.32759" lon="4.48284">
        <ele>1154.8000488281</ele>
        <time>2026-05-11T11:37:16.000Z</time>
      </trkpt>
      <trkpt lat="45.32759" lon="4.48286">
        <ele>1155</ele>
        <time>2026-05-11T11:37:17.000Z</time>
      </trkpt>
      <trkpt lat="45.3276" lon="4.48289">
        <ele>1155.1999511719</ele>
        <time>2026-05-11T11:37:18.000Z</time>
      </trkpt>
      <trkpt lat="45.3276" lon="4.48291">
        <ele>1155.1999511719</ele>
        <time>2026-05-11T11:37:19.000Z</time>
      </trkpt>
      <trkpt lat="45.32761" lon="4.48293">
        <ele>1155.4000244141</ele>
        <time>2026-05-11T11:37:20.000Z</time>
      </trkpt>
      <trkpt lat="45.32761" lon="4.48295">
        <ele>1155.4000244141</ele>
        <time>2026-05-11T11:37:21.000Z</time>
      </trkpt>
      <trkpt lat="45.32761" lon="4.48298">
        <ele>1155.5999755859</ele>
        <time>2026-05-11T11:37:22.000Z</time>
      </trkpt>
      <trkpt lat="45.32761" lon="4.483">
        <ele>1155.8000488281</ele>
        <time>2026-05-11T11:37:23.000Z</time>
      </trkpt>
      <trkpt lat="45.32761" lon="4.48302">
        <ele>1156</ele>
        <time>2026-05-11T11:37:24.000Z</time>
      </trkpt>
      <trkpt lat="45.32761" lon="4.48304">
        <ele>1156.1999511719</ele>
        <time>2026-05-11T11:37:25.000Z</time>
      </trkpt>
      <trkpt lat="45.32761" lon="4.48306">
        <ele>1156.4000244141</ele>
        <time>2026-05-11T11:37:26.000Z</time>
      </trkpt>
      <trkpt lat="45.32762" lon="4.48308">
        <ele>1156.4000244141</ele>
        <time>2026-05-11T11:37:27.000Z</time>
      </trkpt>
      <trkpt lat="45.32762" lon="4.4831">
        <ele>1156.5999755859</ele>
        <time>2026-05-11T11:37:28.000Z</time>
      </trkpt>
      <trkpt lat="45.32762" lon="4.48313">
        <ele>1156.8000488281</ele>
        <time>2026-05-11T11:37:29.000Z</time>
      </trkpt>
      <trkpt lat="45.32762" lon="4.48315">
        <ele>1156.8000488281</ele>
        <time>2026-05-11T11:37:30.000Z</time>
      </trkpt>
      <trkpt lat="45.32762" lon="4.48317">
        <ele>1157</ele>
        <time>2026-05-11T11:37:31.000Z</time>
      </trkpt>
      <trkpt lat="45.32762" lon="4.48319">
        <ele>1157.1999511719</ele>
        <time>2026-05-11T11:37:32.000Z</time>
      </trkpt>
      <trkpt lat="45.32762" lon="4.48321">
        <ele>1157.1999511719</ele>
        <time>2026-05-11T11:37:33.000Z</time>
      </trkpt>
      <trkpt lat="45.32762" lon="4.48324">
        <ele>1157.4000244141</ele>
        <time>2026-05-11T11:37:34.000Z</time>
      </trkpt>
      <trkpt lat="45.32762" lon="4.48326">
        <ele>1157.4000244141</ele>
        <time>2026-05-11T11:37:35.000Z</time>
      </trkpt>
      <trkpt lat="45.32763" lon="4.48329">
        <ele>1157.4000244141</ele>
        <time>2026-05-11T11:37:36.000Z</time>
      </trkpt>
      <trkpt lat="45.32763" lon="4.48331">
        <ele>1157.5999755859</ele>
        <time>2026-05-11T11:37:37.000Z</time>
      </trkpt>
      <trkpt lat="45.32763" lon="4.48333">
        <ele>1157.5999755859</ele>
        <time>2026-05-11T11:37:38.000Z</time>
      </trkpt>
      <trkpt lat="45.32763" lon="4.48335">
        <ele>1157.5999755859</ele>
        <time>2026-05-11T11:37:39.000Z</time>
      </trkpt>
      <trkpt lat="45.32764" lon="4.48337">
        <ele>1157.8000488281</ele>
        <time>2026-05-11T11:37:40.000Z</time>
      </trkpt>
      <trkpt lat="45.32764" lon="4.4834">
        <ele>1157.8000488281</ele>
        <time>2026-05-11T11:37:41.000Z</time>
      </trkpt>
      <trkpt lat="45.32764" lon="4.48342">
        <ele>1158</ele>
        <time>2026-05-11T11:37:42.000Z</time>
      </trkpt>
      <trkpt lat="45.32764" lon="4.48344">
        <ele>1158</ele>
        <time>2026-05-11T11:37:43.000Z</time>
      </trkpt>
      <trkpt lat="45.32764" lon="4.48346">
        <ele>1158</ele>
        <time>2026-05-11T11:37:44.000Z</time>
      </trkpt>
      <trkpt lat="45.32764" lon="4.48348">
        <ele>1158.1999511719</ele>
        <time>2026-05-11T11:37:45.000Z</time>
      </trkpt>
      <trkpt lat="45.32765" lon="4.4835">
        <ele>1158.1999511719</ele>
        <time>2026-05-11T11:37:46.000Z</time>
      </trkpt>
      <trkpt lat="45.32765" lon="4.48352">
        <ele>1158.4000244141</ele>
        <time>2026-05-11T11:37:47.000Z</time>
      </trkpt>
      <trkpt lat="45.32765" lon="4.48354">
        <ele>1158.4000244141</ele>
        <time>2026-05-11T11:37:48.000Z</time>
      </trkpt>
      <trkpt lat="45.32766" lon="4.48356">
        <ele>1158.4000244141</ele>
        <time>2026-05-11T11:37:49.000Z</time>
      </trkpt>
      <trkpt lat="45.32766" lon="4.48359">
        <ele>1158.5999755859</ele>
        <time>2026-05-11T11:37:50.000Z</time>
      </trkpt>
      <trkpt lat="45.32766" lon="4.48362">
        <ele>1158.5999755859</ele>
        <time>2026-05-11T11:37:51.000Z</time>
      </trkpt>
      <trkpt lat="45.32767" lon="4.48364">
        <ele>1158.5999755859</ele>
        <time>2026-05-11T11:37:52.000Z</time>
      </trkpt>
      <trkpt lat="45.32767" lon="4.48366">
        <ele>1158.8000488281</ele>
        <time>2026-05-11T11:37:53.000Z</time>
      </trkpt>
      <trkpt lat="45.32768" lon="4.48369">
        <ele>1158.8000488281</ele>
        <time>2026-05-11T11:37:54.000Z</time>
      </trkpt>
      <trkpt lat="45.32768" lon="4.48371">
        <ele>1159</ele>
        <time>2026-05-11T11:37:55.000Z</time>
      </trkpt>
      <trkpt lat="45.32768" lon="4.48373">
        <ele>1159</ele>
        <time>2026-05-11T11:37:56.000Z</time>
      </trkpt>
      <trkpt lat="45.32768" lon="4.48375">
        <ele>1159.1999511719</ele>
        <time>2026-05-11T11:37:57.000Z</time>
      </trkpt>
      <trkpt lat="45.32768" lon="4.48377">
        <ele>1159.1999511719</ele>
        <time>2026-05-11T11:37:58.000Z</time>
      </trkpt>
      <trkpt lat="45.32767" lon="4.48379">
        <ele>1159.1999511719</ele>
        <time>2026-05-11T11:37:59.000Z</time>
      </trkpt>
      <trkpt lat="45.32767" lon="4.48382">
        <ele>1159.4000244141</ele>
        <time>2026-05-11T11:38:00.000Z</time>
      </trkpt>
      <trkpt lat="45.32767" lon="4.48384">
        <ele>1159.4000244141</ele>
        <time>2026-05-11T11:38:01.000Z</time>
      </trkpt>
      <trkpt lat="45.32766" lon="4.48386">
        <ele>1159.4000244141</ele>
        <time>2026-05-11T11:38:02.000Z</time>
      </trkpt>
      <trkpt lat="45.32766" lon="4.48388">
        <ele>1159.4000244141</ele>
        <time>2026-05-11T11:38:03.000Z</time>
      </trkpt>
      <trkpt lat="45.32765" lon="4.4839">
        <ele>1159.5999755859</ele>
        <time>2026-05-11T11:38:04.000Z</time>
      </trkpt>
      <trkpt lat="45.32765" lon="4.48393">
        <ele>1159.5999755859</ele>
        <time>2026-05-11T11:38:05.000Z</time>
      </trkpt>
      <trkpt lat="45.32764" lon="4.48396">
        <ele>1159.8000488281</ele>
        <time>2026-05-11T11:38:06.000Z</time>
      </trkpt>
      <trkpt lat="45.32763" lon="4.48399">
        <ele>1159.8000488281</ele>
        <time>2026-05-11T11:38:07.000Z</time>
      </trkpt>
      <trkpt lat="45.32763" lon="4.48401">
        <ele>1159.8000488281</ele>
        <time>2026-05-11T11:38:08.000Z</time>
      </trkpt>
      <trkpt lat="45.32762" lon="4.48404">
        <ele>1160</ele>
        <time>2026-05-11T11:38:09.000Z</time>
      </trkpt>
      <trkpt lat="45.32762" lon="4.48406">
        <ele>1160</ele>
        <time>2026-05-11T11:38:10.000Z</time>
      </trkpt>
      <trkpt lat="45.32761" lon="4.48409">
        <ele>1160.1999511719</ele>
        <time>2026-05-11T11:38:11.000Z</time>
      </trkpt>
      <trkpt lat="45.32761" lon="4.48412">
        <ele>1160.1999511719</ele>
        <time>2026-05-11T11:38:12.000Z</time>
      </trkpt>
      <trkpt lat="45.32761" lon="4.48414">
        <ele>1160.1999511719</ele>
        <time>2026-05-11T11:38:13.000Z</time>
      </trkpt>
      <trkpt lat="45.3276" lon="4.48416">
        <ele>1160.4000244141</ele>
        <time>2026-05-11T11:38:14.000Z</time>
      </trkpt>
      <trkpt lat="45.3276" lon="4.48418">
        <ele>1160.4000244141</ele>
        <time>2026-05-11T11:38:15.000Z</time>
      </trkpt>
      <trkpt lat="45.3276" lon="4.48421">
        <ele>1160.5999755859</ele>
        <time>2026-05-11T11:38:16.000Z</time>
      </trkpt>
      <trkpt lat="45.3276" lon="4.48423">
        <ele>1160.8000488281</ele>
        <time>2026-05-11T11:38:17.000Z</time>
      </trkpt>
      <trkpt lat="45.3276" lon="4.48426">
        <ele>1160.8000488281</ele>
        <time>2026-05-11T11:38:18.000Z</time>
      </trkpt>
      <trkpt lat="45.32759" lon="4.48428">
        <ele>1161</ele>
        <time>2026-05-11T11:38:19.000Z</time>
      </trkpt>
      <trkpt lat="45.3276" lon="4.48431">
        <ele>1161.1999511719</ele>
        <time>2026-05-11T11:38:20.000Z</time>
      </trkpt>
      <trkpt lat="45.32759" lon="4.48433">
        <ele>1161.1999511719</ele>
        <time>2026-05-11T11:38:21.000Z</time>
      </trkpt>
      <trkpt lat="45.32758" lon="4.48436">
        <ele>1161.4000244141</ele>
        <time>2026-05-11T11:38:22.000Z</time>
      </trkpt>
      <trkpt lat="45.32758" lon="4.4844">
        <ele>1161.5999755859</ele>
        <time>2026-05-11T11:38:23.000Z</time>
      </trkpt>
      <trkpt lat="45.32758" lon="4.48442">
        <ele>1161.8000488281</ele>
        <time>2026-05-11T11:38:24.000Z</time>
      </trkpt>
      <trkpt lat="45.32758" lon="4.48444">
        <ele>1162</ele>
        <time>2026-05-11T11:38:25.000Z</time>
      </trkpt>
      <trkpt lat="45.32758" lon="4.48446">
        <ele>1162.1999511719</ele>
        <time>2026-05-11T11:38:26.000Z</time>
      </trkpt>
      <trkpt lat="45.32758" lon="4.48449">
        <ele>1162.4000244141</ele>
        <time>2026-05-11T11:38:27.000Z</time>
      </trkpt>
      <trkpt lat="45.32758" lon="4.48451">
        <ele>1162.5999755859</ele>
        <time>2026-05-11T11:38:28.000Z</time>
      </trkpt>
      <trkpt lat="45.32759" lon="4.48454">
        <ele>1162.8000488281</ele>
        <time>2026-05-11T11:38:29.000Z</time>
      </trkpt>
      <trkpt lat="45.32758" lon="4.48456">
        <ele>1162.8000488281</ele>
        <time>2026-05-11T11:38:30.000Z</time>
      </trkpt>
      <trkpt lat="45.32758" lon="4.48458">
        <ele>1163</ele>
        <time>2026-05-11T11:38:31.000Z</time>
      </trkpt>
      <trkpt lat="45.32758" lon="4.4846">
        <ele>1163.1999511719</ele>
        <time>2026-05-11T11:38:32.000Z</time>
      </trkpt>
      <trkpt lat="45.32758" lon="4.48463">
        <ele>1163.5999755859</ele>
        <time>2026-05-11T11:38:33.000Z</time>
      </trkpt>
      <trkpt lat="45.32758" lon="4.48466">
        <ele>1163.8000488281</ele>
        <time>2026-05-11T11:38:34.000Z</time>
      </trkpt>
      <trkpt lat="45.32758" lon="4.48468">
        <ele>1164</ele>
        <time>2026-05-11T11:38:35.000Z</time>
      </trkpt>
      <trkpt lat="45.32757" lon="4.4847">
        <ele>1164.1999511719</ele>
        <time>2026-05-11T11:38:36.000Z</time>
      </trkpt>
      <trkpt lat="45.32757" lon="4.48472">
        <ele>1164.4000244141</ele>
        <time>2026-05-11T11:38:37.000Z</time>
      </trkpt>
      <trkpt lat="45.32757" lon="4.48475">
        <ele>1164.5999755859</ele>
        <time>2026-05-11T11:38:38.000Z</time>
      </trkpt>
      <trkpt lat="45.32757" lon="4.48478">
        <ele>1164.8000488281</ele>
        <time>2026-05-11T11:38:39.000Z</time>
      </trkpt>
      <trkpt lat="45.32757" lon="4.4848">
        <ele>1165</ele>
        <time>2026-05-11T11:38:40.000Z</time>
      </trkpt>
      <trkpt lat="45.32757" lon="4.48482">
        <ele>1165.1999511719</ele>
        <time>2026-05-11T11:38:41.000Z</time>
      </trkpt>
      <trkpt lat="45.32757" lon="4.48484">
        <ele>1165.4000244141</ele>
        <time>2026-05-11T11:38:42.000Z</time>
      </trkpt>
      <trkpt lat="45.32757" lon="4.48487">
        <ele>1165.8000488281</ele>
        <time>2026-05-11T11:38:43.000Z</time>
      </trkpt>
      <trkpt lat="45.32756" lon="4.48489">
        <ele>1166</ele>
        <time>2026-05-11T11:38:44.000Z</time>
      </trkpt>
      <trkpt lat="45.32756" lon="4.48491">
        <ele>1166.1999511719</ele>
        <time>2026-05-11T11:38:45.000Z</time>
      </trkpt>
      <trkpt lat="45.32756" lon="4.48493">
        <ele>1166.4000244141</ele>
        <time>2026-05-11T11:38:46.000Z</time>
      </trkpt>
      <trkpt lat="45.32756" lon="4.48495">
        <ele>1166.5999755859</ele>
        <time>2026-05-11T11:38:47.000Z</time>
      </trkpt>
      <trkpt lat="45.32756" lon="4.48498">
        <ele>1166.8000488281</ele>
        <time>2026-05-11T11:38:48.000Z</time>
      </trkpt>
      <trkpt lat="45.32756" lon="4.485">
        <ele>1167</ele>
        <time>2026-05-11T11:38:49.000Z</time>
      </trkpt>
      <trkpt lat="45.32756" lon="4.48502">
        <ele>1167.1999511719</ele>
        <time>2026-05-11T11:38:50.000Z</time>
      </trkpt>
      <trkpt lat="45.32756" lon="4.48504">
        <ele>1167.4000244141</ele>
        <time>2026-05-11T11:38:51.000Z</time>
      </trkpt>
      <trkpt lat="45.32756" lon="4.48506">
        <ele>1167.5999755859</ele>
        <time>2026-05-11T11:38:52.000Z</time>
      </trkpt>
      <trkpt lat="45.32756" lon="4.48508">
        <ele>1167.8000488281</ele>
        <time>2026-05-11T11:38:53.000Z</time>
      </trkpt>
      <trkpt lat="45.32756" lon="4.4851">
        <ele>1168</ele>
        <time>2026-05-11T11:38:54.000Z</time>
      </trkpt>
      <trkpt lat="45.32756" lon="4.48512">
        <ele>1168.1999511719</ele>
        <time>2026-05-11T11:38:55.000Z</time>
      </trkpt>
      <trkpt lat="45.32755" lon="4.48514">
        <ele>1168.1999511719</ele>
        <time>2026-05-11T11:38:56.000Z</time>
      </trkpt>
      <trkpt lat="45.32755" lon="4.48517">
        <ele>1168.4000244141</ele>
        <time>2026-05-11T11:38:57.000Z</time>
      </trkpt>
      <trkpt lat="45.32755" lon="4.48519">
        <ele>1168.4000244141</ele>
        <time>2026-05-11T11:38:58.000Z</time>
      </trkpt>
      <trkpt lat="45.32755" lon="4.48522">
        <ele>1168.4000244141</ele>
        <time>2026-05-11T11:38:59.000Z</time>
      </trkpt>
      <trkpt lat="45.32754" lon="4.48524">
        <ele>1168.5999755859</ele>
        <time>2026-05-11T11:39:00.000Z</time>
      </trkpt>
      <trkpt lat="45.32754" lon="4.48526">
        <ele>1168.8000488281</ele>
        <time>2026-05-11T11:39:01.000Z</time>
      </trkpt>
      <trkpt lat="45.32754" lon="4.48529">
        <ele>1169</ele>
        <time>2026-05-11T11:39:02.000Z</time>
      </trkpt>
      <trkpt lat="45.32754" lon="4.48531">
        <ele>1169.4000244141</ele>
        <time>2026-05-11T11:39:03.000Z</time>
      </trkpt>
      <trkpt lat="45.32754" lon="4.48534">
        <ele>1169.8000488281</ele>
        <time>2026-05-11T11:39:04.000Z</time>
      </trkpt>
      <trkpt lat="45.32754" lon="4.48536">
        <ele>1170</ele>
        <time>2026-05-11T11:39:05.000Z</time>
      </trkpt>
      <trkpt lat="45.32754" lon="4.48538">
        <ele>1170.1999511719</ele>
        <time>2026-05-11T11:39:06.000Z</time>
      </trkpt>
      <trkpt lat="45.32754" lon="4.4854">
        <ele>1170.5999755859</ele>
        <time>2026-05-11T11:39:07.000Z</time>
      </trkpt>
      <trkpt lat="45.32754" lon="4.48542">
        <ele>1170.8000488281</ele>
        <time>2026-05-11T11:39:08.000Z</time>
      </trkpt>
      <trkpt lat="45.32754" lon="4.48545">
        <ele>1171</ele>
        <time>2026-05-11T11:39:09.000Z</time>
      </trkpt>
      <trkpt lat="45.32754" lon="4.48547">
        <ele>1171.4000244141</ele>
        <time>2026-05-11T11:39:10.000Z</time>
      </trkpt>
      <trkpt lat="45.32754" lon="4.48549">
        <ele>1171.5999755859</ele>
        <time>2026-05-11T11:39:11.000Z</time>
      </trkpt>
      <trkpt lat="45.32754" lon="4.48552">
        <ele>1171.5999755859</ele>
        <time>2026-05-11T11:39:12.000Z</time>
      </trkpt>
      <trkpt lat="45.32754" lon="4.48554">
        <ele>1171.8000488281</ele>
        <time>2026-05-11T11:39:13.000Z</time>
      </trkpt>
      <trkpt lat="45.32754" lon="4.48557">
        <ele>1172</ele>
        <time>2026-05-11T11:39:14.000Z</time>
      </trkpt>
      <trkpt lat="45.32755" lon="4.48559">
        <ele>1172</ele>
        <time>2026-05-11T11:39:15.000Z</time>
      </trkpt>
      <trkpt lat="45.32755" lon="4.48561">
        <ele>1172.1999511719</ele>
        <time>2026-05-11T11:39:16.000Z</time>
      </trkpt>
      <trkpt lat="45.32755" lon="4.48564">
        <ele>1172.1999511719</ele>
        <time>2026-05-11T11:39:17.000Z</time>
      </trkpt>
      <trkpt lat="45.32754" lon="4.48566">
        <ele>1172.1999511719</ele>
        <time>2026-05-11T11:39:18.000Z</time>
      </trkpt>
      <trkpt lat="45.32754" lon="4.48568">
        <ele>1172.1999511719</ele>
        <time>2026-05-11T11:39:19.000Z</time>
      </trkpt>
      <trkpt lat="45.32754" lon="4.48571">
        <ele>1172.1999511719</ele>
        <time>2026-05-11T11:39:20.000Z</time>
      </trkpt>
      <trkpt lat="45.32755" lon="4.48573">
        <ele>1172.1999511719</ele>
        <time>2026-05-11T11:39:21.000Z</time>
      </trkpt>
      <trkpt lat="45.32755" lon="4.48575">
        <ele>1172.1999511719</ele>
        <time>2026-05-11T11:39:22.000Z</time>
      </trkpt>
      <trkpt lat="45.32755" lon="4.48578">
        <ele>1172.4000244141</ele>
        <time>2026-05-11T11:39:23.000Z</time>
      </trkpt>
      <trkpt lat="45.32755" lon="4.4858">
        <ele>1172.5999755859</ele>
        <time>2026-05-11T11:39:24.000Z</time>
      </trkpt>
      <trkpt lat="45.32755" lon="4.48582">
        <ele>1172.8000488281</ele>
        <time>2026-05-11T11:39:25.000Z</time>
      </trkpt>
      <trkpt lat="45.32755" lon="4.48584">
        <ele>1173.1999511719</ele>
        <time>2026-05-11T11:39:26.000Z</time>
      </trkpt>
      <trkpt lat="45.32755" lon="4.48586">
        <ele>1173.4000244141</ele>
        <time>2026-05-11T11:39:27.000Z</time>
      </trkpt>
      <trkpt lat="45.32755" lon="4.48588">
        <ele>1173.5999755859</ele>
        <time>2026-05-11T11:39:28.000Z</time>
      </trkpt>
      <trkpt lat="45.32756" lon="4.4859">
        <ele>1173.5999755859</ele>
        <time>2026-05-11T11:39:29.000Z</time>
      </trkpt>
      <trkpt lat="45.32756" lon="4.48592">
        <ele>1173.8000488281</ele>
        <time>2026-05-11T11:39:30.000Z</time>
      </trkpt>
      <trkpt lat="45.32756" lon="4.48594">
        <ele>1173.8000488281</ele>
        <time>2026-05-11T11:39:31.000Z</time>
      </trkpt>
      <trkpt lat="45.32756" lon="4.48596">
        <ele>1173.8000488281</ele>
        <time>2026-05-11T11:39:32.000Z</time>
      </trkpt>
      <trkpt lat="45.32757" lon="4.48599">
        <ele>1173.8000488281</ele>
        <time>2026-05-11T11:39:33.000Z</time>
      </trkpt>
      <trkpt lat="45.32758" lon="4.486">
        <ele>1173.8000488281</ele>
        <time>2026-05-11T11:39:34.000Z</time>
      </trkpt>
      <trkpt lat="45.32758" lon="4.48602">
        <ele>1174</ele>
        <time>2026-05-11T11:39:35.000Z</time>
      </trkpt>
      <trkpt lat="45.32759" lon="4.48604">
        <ele>1174.1999511719</ele>
        <time>2026-05-11T11:39:36.000Z</time>
      </trkpt>
      <trkpt lat="45.32759" lon="4.48606">
        <ele>1174.4000244141</ele>
        <time>2026-05-11T11:39:37.000Z</time>
      </trkpt>
      <trkpt lat="45.3276" lon="4.48608">
        <ele>1174.5999755859</ele>
        <time>2026-05-11T11:39:38.000Z</time>
      </trkpt>
      <trkpt lat="45.32761" lon="4.4861">
        <ele>1174.8000488281</ele>
        <time>2026-05-11T11:39:39.000Z</time>
      </trkpt>
      <trkpt lat="45.32761" lon="4.48612">
        <ele>1175</ele>
        <time>2026-05-11T11:39:40.000Z</time>
      </trkpt>
      <trkpt lat="45.32762" lon="4.48613">
        <ele>1175.4000244141</ele>
        <time>2026-05-11T11:39:41.000Z</time>
      </trkpt>
      <trkpt lat="45.32763" lon="4.48615">
        <ele>1175.5999755859</ele>
        <time>2026-05-11T11:39:42.000Z</time>
      </trkpt>
      <trkpt lat="45.32763" lon="4.48617">
        <ele>1176</ele>
        <time>2026-05-11T11:39:43.000Z</time>
      </trkpt>
      <trkpt lat="45.32764" lon="4.48619">
        <ele>1176.4000244141</ele>
        <time>2026-05-11T11:39:44.000Z</time>
      </trkpt>
      <trkpt lat="45.32765" lon="4.48621">
        <ele>1176.5999755859</ele>
        <time>2026-05-11T11:39:45.000Z</time>
      </trkpt>
      <trkpt lat="45.32765" lon="4.48624">
        <ele>1176.8000488281</ele>
        <time>2026-05-11T11:39:46.000Z</time>
      </trkpt>
      <trkpt lat="45.32766" lon="4.48625">
        <ele>1177</ele>
        <time>2026-05-11T11:39:47.000Z</time>
      </trkpt>
      <trkpt lat="45.32766" lon="4.48628">
        <ele>1177.1999511719</ele>
        <time>2026-05-11T11:39:48.000Z</time>
      </trkpt>
      <trkpt lat="45.32767" lon="4.48629">
        <ele>1177.5999755859</ele>
        <time>2026-05-11T11:39:49.000Z</time>
      </trkpt>
      <trkpt lat="45.32768" lon="4.48631">
        <ele>1177.8000488281</ele>
        <time>2026-05-11T11:39:50.000Z</time>
      </trkpt>
      <trkpt lat="45.32768" lon="4.48633">
        <ele>1178</ele>
        <time>2026-05-11T11:39:51.000Z</time>
      </trkpt>
      <trkpt lat="45.32769" lon="4.48634">
        <ele>1178.4000244141</ele>
        <time>2026-05-11T11:39:52.000Z</time>
      </trkpt>
      <trkpt lat="45.3277" lon="4.48636">
        <ele>1178.5999755859</ele>
        <time>2026-05-11T11:39:53.000Z</time>
      </trkpt>
      <trkpt lat="45.3277" lon="4.48638">
        <ele>1179</ele>
        <time>2026-05-11T11:39:54.000Z</time>
      </trkpt>
      <trkpt lat="45.3277" lon="4.4864">
        <ele>1179.1999511719</ele>
        <time>2026-05-11T11:39:55.000Z</time>
      </trkpt>
      <trkpt lat="45.32771" lon="4.48642">
        <ele>1179.5999755859</ele>
        <time>2026-05-11T11:39:56.000Z</time>
      </trkpt>
      <trkpt lat="45.32771" lon="4.48644">
        <ele>1179.8000488281</ele>
        <time>2026-05-11T11:39:57.000Z</time>
      </trkpt>
      <trkpt lat="45.32772" lon="4.48646">
        <ele>1180</ele>
        <time>2026-05-11T11:39:58.000Z</time>
      </trkpt>
      <trkpt lat="45.32773" lon="4.48648">
        <ele>1180.1999511719</ele>
        <time>2026-05-11T11:39:59.000Z</time>
      </trkpt>
      <trkpt lat="45.32773" lon="4.4865">
        <ele>1180.4000244141</ele>
        <time>2026-05-11T11:40:00.000Z</time>
      </trkpt>
      <trkpt lat="45.32773" lon="4.48652">
        <ele>1180.5999755859</ele>
        <time>2026-05-11T11:40:01.000Z</time>
      </trkpt>
      <trkpt lat="45.32774" lon="4.48654">
        <ele>1180.5999755859</ele>
        <time>2026-05-11T11:40:02.000Z</time>
      </trkpt>
      <trkpt lat="45.32775" lon="4.48656">
        <ele>1180.8000488281</ele>
        <time>2026-05-11T11:40:03.000Z</time>
      </trkpt>
      <trkpt lat="45.32775" lon="4.48657">
        <ele>1181</ele>
        <time>2026-05-11T11:40:04.000Z</time>
      </trkpt>
      <trkpt lat="45.32775" lon="4.48659">
        <ele>1181.1999511719</ele>
        <time>2026-05-11T11:40:05.000Z</time>
      </trkpt>
      <trkpt lat="45.32775" lon="4.48661">
        <ele>1181.5999755859</ele>
        <time>2026-05-11T11:40:06.000Z</time>
      </trkpt>
      <trkpt lat="45.32776" lon="4.48663">
        <ele>1181.8000488281</ele>
        <time>2026-05-11T11:40:07.000Z</time>
      </trkpt>
      <trkpt lat="45.32776" lon="4.48665">
        <ele>1182</ele>
        <time>2026-05-11T11:40:08.000Z</time>
      </trkpt>
      <trkpt lat="45.32777" lon="4.48668">
        <ele>1182</ele>
        <time>2026-05-11T11:40:09.000Z</time>
      </trkpt>
      <trkpt lat="45.32777" lon="4.48671">
        <ele>1182.1999511719</ele>
        <time>2026-05-11T11:40:10.000Z</time>
      </trkpt>
      <trkpt lat="45.32778" lon="4.48673">
        <ele>1182.4000244141</ele>
        <time>2026-05-11T11:40:11.000Z</time>
      </trkpt>
      <trkpt lat="45.32778" lon="4.48675">
        <ele>1182.5999755859</ele>
        <time>2026-05-11T11:40:12.000Z</time>
      </trkpt>
      <trkpt lat="45.32779" lon="4.48677">
        <ele>1182.8000488281</ele>
        <time>2026-05-11T11:40:13.000Z</time>
      </trkpt>
      <trkpt lat="45.3278" lon="4.48679">
        <ele>1183</ele>
        <time>2026-05-11T11:40:14.000Z</time>
      </trkpt>
      <trkpt lat="45.3278" lon="4.48681">
        <ele>1183.1999511719</ele>
        <time>2026-05-11T11:40:15.000Z</time>
      </trkpt>
      <trkpt lat="45.32781" lon="4.48683">
        <ele>1183.4000244141</ele>
        <time>2026-05-11T11:40:16.000Z</time>
      </trkpt>
      <trkpt lat="45.32782" lon="4.48685">
        <ele>1183.5999755859</ele>
        <time>2026-05-11T11:40:17.000Z</time>
      </trkpt>
      <trkpt lat="45.32783" lon="4.48688">
        <ele>1183.8000488281</ele>
        <time>2026-05-11T11:40:18.000Z</time>
      </trkpt>
      <trkpt lat="45.32784" lon="4.4869">
        <ele>1184</ele>
        <time>2026-05-11T11:40:19.000Z</time>
      </trkpt>
      <trkpt lat="45.32785" lon="4.48691">
        <ele>1184.1999511719</ele>
        <time>2026-05-11T11:40:20.000Z</time>
      </trkpt>
      <trkpt lat="45.32786" lon="4.48693">
        <ele>1184.1999511719</ele>
        <time>2026-05-11T11:40:21.000Z</time>
      </trkpt>
      <trkpt lat="45.32787" lon="4.48695">
        <ele>1184.4000244141</ele>
        <time>2026-05-11T11:40:22.000Z</time>
      </trkpt>
      <trkpt lat="45.32787" lon="4.48698">
        <ele>1184.5999755859</ele>
        <time>2026-05-11T11:40:23.000Z</time>
      </trkpt>
      <trkpt lat="45.32788" lon="4.487">
        <ele>1184.8000488281</ele>
        <time>2026-05-11T11:40:24.000Z</time>
      </trkpt>
      <trkpt lat="45.3279" lon="4.48702">
        <ele>1184.8000488281</ele>
        <time>2026-05-11T11:40:25.000Z</time>
      </trkpt>
      <trkpt lat="45.3279" lon="4.48705">
        <ele>1185</ele>
        <time>2026-05-11T11:40:26.000Z</time>
      </trkpt>
      <trkpt lat="45.32791" lon="4.48708">
        <ele>1185.1999511719</ele>
        <time>2026-05-11T11:40:27.000Z</time>
      </trkpt>
      <trkpt lat="45.32792" lon="4.4871">
        <ele>1185.4000244141</ele>
        <time>2026-05-11T11:40:28.000Z</time>
      </trkpt>
      <trkpt lat="45.32793" lon="4.48712">
        <ele>1185.4000244141</ele>
        <time>2026-05-11T11:40:29.000Z</time>
      </trkpt>
      <trkpt lat="45.32793" lon="4.48714">
        <ele>1185.5999755859</ele>
        <time>2026-05-11T11:40:30.000Z</time>
      </trkpt>
      <trkpt lat="45.32794" lon="4.48716">
        <ele>1185.8000488281</ele>
        <time>2026-05-11T11:40:31.000Z</time>
      </trkpt>
      <trkpt lat="45.32794" lon="4.48718">
        <ele>1186</ele>
        <time>2026-05-11T11:40:32.000Z</time>
      </trkpt>
      <trkpt lat="45.32794" lon="4.48721">
        <ele>1186.1999511719</ele>
        <time>2026-05-11T11:40:33.000Z</time>
      </trkpt>
      <trkpt lat="45.32794" lon="4.48723">
        <ele>1186.4000244141</ele>
        <time>2026-05-11T11:40:34.000Z</time>
      </trkpt>
      <trkpt lat="45.32794" lon="4.48726">
        <ele>1186.5999755859</ele>
        <time>2026-05-11T11:40:35.000Z</time>
      </trkpt>
      <trkpt lat="45.32794" lon="4.48728">
        <ele>1186.8000488281</ele>
        <time>2026-05-11T11:40:36.000Z</time>
      </trkpt>
      <trkpt lat="45.32794" lon="4.48731">
        <ele>1187</ele>
        <time>2026-05-11T11:40:37.000Z</time>
      </trkpt>
      <trkpt lat="45.32794" lon="4.48733">
        <ele>1187</ele>
        <time>2026-05-11T11:40:38.000Z</time>
      </trkpt>
      <trkpt lat="45.32795" lon="4.48736">
        <ele>1187.1999511719</ele>
        <time>2026-05-11T11:40:39.000Z</time>
      </trkpt>
      <trkpt lat="45.32795" lon="4.48739">
        <ele>1187.4000244141</ele>
        <time>2026-05-11T11:40:40.000Z</time>
      </trkpt>
      <trkpt lat="45.32795" lon="4.48741">
        <ele>1187.5999755859</ele>
        <time>2026-05-11T11:40:41.000Z</time>
      </trkpt>
      <trkpt lat="45.32796" lon="4.48743">
        <ele>1187.8000488281</ele>
        <time>2026-05-11T11:40:42.000Z</time>
      </trkpt>
      <trkpt lat="45.32797" lon="4.48746">
        <ele>1187.8000488281</ele>
        <time>2026-05-11T11:40:43.000Z</time>
      </trkpt>
      <trkpt lat="45.32797" lon="4.48748">
        <ele>1188</ele>
        <time>2026-05-11T11:40:44.000Z</time>
      </trkpt>
      <trkpt lat="45.32798" lon="4.48751">
        <ele>1188</ele>
        <time>2026-05-11T11:40:45.000Z</time>
      </trkpt>
      <trkpt lat="45.32799" lon="4.48753">
        <ele>1188.1999511719</ele>
        <time>2026-05-11T11:40:46.000Z</time>
      </trkpt>
      <trkpt lat="45.32799" lon="4.48755">
        <ele>1188.1999511719</ele>
        <time>2026-05-11T11:40:47.000Z</time>
      </trkpt>
      <trkpt lat="45.328" lon="4.48758">
        <ele>1188.4000244141</ele>
        <time>2026-05-11T11:40:48.000Z</time>
      </trkpt>
      <trkpt lat="45.328" lon="4.4876">
        <ele>1188.4000244141</ele>
        <time>2026-05-11T11:40:49.000Z</time>
      </trkpt>
      <trkpt lat="45.32801" lon="4.48762">
        <ele>1188.5999755859</ele>
        <time>2026-05-11T11:40:50.000Z</time>
      </trkpt>
      <trkpt lat="45.32801" lon="4.48765">
        <ele>1188.5999755859</ele>
        <time>2026-05-11T11:40:51.000Z</time>
      </trkpt>
      <trkpt lat="45.32802" lon="4.48767">
        <ele>1188.8000488281</ele>
        <time>2026-05-11T11:40:52.000Z</time>
      </trkpt>
      <trkpt lat="45.32802" lon="4.48769">
        <ele>1189</ele>
        <time>2026-05-11T11:40:53.000Z</time>
      </trkpt>
      <trkpt lat="45.32803" lon="4.48771">
        <ele>1189.1999511719</ele>
        <time>2026-05-11T11:40:54.000Z</time>
      </trkpt>
      <trkpt lat="45.32804" lon="4.48772">
        <ele>1189.1999511719</ele>
        <time>2026-05-11T11:40:55.000Z</time>
      </trkpt>
      <trkpt lat="45.32804" lon="4.48774">
        <ele>1189.4000244141</ele>
        <time>2026-05-11T11:40:56.000Z</time>
      </trkpt>
      <trkpt lat="45.32805" lon="4.48776">
        <ele>1189.5999755859</ele>
        <time>2026-05-11T11:40:57.000Z</time>
      </trkpt>
      <trkpt lat="45.32805" lon="4.48779">
        <ele>1189.5999755859</ele>
        <time>2026-05-11T11:40:58.000Z</time>
      </trkpt>
      <trkpt lat="45.32806" lon="4.48781">
        <ele>1189.8000488281</ele>
        <time>2026-05-11T11:40:59.000Z</time>
      </trkpt>
      <trkpt lat="45.32807" lon="4.48783">
        <ele>1189.8000488281</ele>
        <time>2026-05-11T11:41:00.000Z</time>
      </trkpt>
      <trkpt lat="45.32808" lon="4.48786">
        <ele>1190</ele>
        <time>2026-05-11T11:41:01.000Z</time>
      </trkpt>
      <trkpt lat="45.32808" lon="4.48788">
        <ele>1190</ele>
        <time>2026-05-11T11:41:02.000Z</time>
      </trkpt>
      <trkpt lat="45.32809" lon="4.4879">
        <ele>1190.1999511719</ele>
        <time>2026-05-11T11:41:03.000Z</time>
      </trkpt>
      <trkpt lat="45.32809" lon="4.48793">
        <ele>1190.4000244141</ele>
        <time>2026-05-11T11:41:04.000Z</time>
      </trkpt>
      <trkpt lat="45.32809" lon="4.48796">
        <ele>1190.4000244141</ele>
        <time>2026-05-11T11:41:05.000Z</time>
      </trkpt>
      <trkpt lat="45.3281" lon="4.48798">
        <ele>1190.4000244141</ele>
        <time>2026-05-11T11:41:06.000Z</time>
      </trkpt>
      <trkpt lat="45.3281" lon="4.48801">
        <ele>1190.5999755859</ele>
        <time>2026-05-11T11:41:07.000Z</time>
      </trkpt>
      <trkpt lat="45.32811" lon="4.48803">
        <ele>1190.5999755859</ele>
        <time>2026-05-11T11:41:08.000Z</time>
      </trkpt>
      <trkpt lat="45.32812" lon="4.48805">
        <ele>1190.5999755859</ele>
        <time>2026-05-11T11:41:09.000Z</time>
      </trkpt>
      <trkpt lat="45.32812" lon="4.48808">
        <ele>1190.8000488281</ele>
        <time>2026-05-11T11:41:10.000Z</time>
      </trkpt>
      <trkpt lat="45.32813" lon="4.48811">
        <ele>1190.8000488281</ele>
        <time>2026-05-11T11:41:11.000Z</time>
      </trkpt>
      <trkpt lat="45.32814" lon="4.48813">
        <ele>1190.8000488281</ele>
        <time>2026-05-11T11:41:12.000Z</time>
      </trkpt>
      <trkpt lat="45.32815" lon="4.48816">
        <ele>1191</ele>
        <time>2026-05-11T11:41:13.000Z</time>
      </trkpt>
      <trkpt lat="45.32816" lon="4.48818">
        <ele>1191</ele>
        <time>2026-05-11T11:41:14.000Z</time>
      </trkpt>
      <trkpt lat="45.32817" lon="4.48821">
        <ele>1191</ele>
        <time>2026-05-11T11:41:15.000Z</time>
      </trkpt>
      <trkpt lat="45.32818" lon="4.48823">
        <ele>1191.1999511719</ele>
        <time>2026-05-11T11:41:16.000Z</time>
      </trkpt>
      <trkpt lat="45.32819" lon="4.48825">
        <ele>1191.1999511719</ele>
        <time>2026-05-11T11:41:17.000Z</time>
      </trkpt>
      <trkpt lat="45.3282" lon="4.48828">
        <ele>1191.4000244141</ele>
        <time>2026-05-11T11:41:18.000Z</time>
      </trkpt>
      <trkpt lat="45.32821" lon="4.4883">
        <ele>1191.4000244141</ele>
        <time>2026-05-11T11:41:19.000Z</time>
      </trkpt>
      <trkpt lat="45.32822" lon="4.48831">
        <ele>1191.5999755859</ele>
        <time>2026-05-11T11:41:20.000Z</time>
      </trkpt>
      <trkpt lat="45.32823" lon="4.48834">
        <ele>1191.8000488281</ele>
        <time>2026-05-11T11:41:21.000Z</time>
      </trkpt>
      <trkpt lat="45.32824" lon="4.48836">
        <ele>1191.8000488281</ele>
        <time>2026-05-11T11:41:22.000Z</time>
      </trkpt>
      <trkpt lat="45.32826" lon="4.48839">
        <ele>1192</ele>
        <time>2026-05-11T11:41:23.000Z</time>
      </trkpt>
      <trkpt lat="45.32827" lon="4.48841">
        <ele>1192</ele>
        <time>2026-05-11T11:41:24.000Z</time>
      </trkpt>
      <trkpt lat="45.32829" lon="4.48844">
        <ele>1192.1999511719</ele>
        <time>2026-05-11T11:41:25.000Z</time>
      </trkpt>
      <trkpt lat="45.3283" lon="4.48846">
        <ele>1192.1999511719</ele>
        <time>2026-05-11T11:41:26.000Z</time>
      </trkpt>
      <trkpt lat="45.32831" lon="4.48848">
        <ele>1192.4000244141</ele>
        <time>2026-05-11T11:41:27.000Z</time>
      </trkpt>
      <trkpt lat="45.32832" lon="4.48851">
        <ele>1192.4000244141</ele>
        <time>2026-05-11T11:41:28.000Z</time>
      </trkpt>
      <trkpt lat="45.32834" lon="4.48853">
        <ele>1192.4000244141</ele>
        <time>2026-05-11T11:41:29.000Z</time>
      </trkpt>
      <trkpt lat="45.32835" lon="4.48855">
        <ele>1192.5999755859</ele>
        <time>2026-05-11T11:41:30.000Z</time>
      </trkpt>
      <trkpt lat="45.32837" lon="4.48858">
        <ele>1192.5999755859</ele>
        <time>2026-05-11T11:41:31.000Z</time>
      </trkpt>
      <trkpt lat="45.32838" lon="4.4886">
        <ele>1192.5999755859</ele>
        <time>2026-05-11T11:41:32.000Z</time>
      </trkpt>
      <trkpt lat="45.3284" lon="4.48862">
        <ele>1192.5999755859</ele>
        <time>2026-05-11T11:41:33.000Z</time>
      </trkpt>
      <trkpt lat="45.32841" lon="4.48864">
        <ele>1192.8000488281</ele>
        <time>2026-05-11T11:41:34.000Z</time>
      </trkpt>
      <trkpt lat="45.32842" lon="4.48865">
        <ele>1192.8000488281</ele>
        <time>2026-05-11T11:41:35.000Z</time>
      </trkpt>
      <trkpt lat="45.32843" lon="4.48867">
        <ele>1193</ele>
        <time>2026-05-11T11:41:36.000Z</time>
      </trkpt>
      <trkpt lat="45.32845" lon="4.48869">
        <ele>1193</ele>
        <time>2026-05-11T11:41:37.000Z</time>
      </trkpt>
      <trkpt lat="45.32846" lon="4.48871">
        <ele>1193.1999511719</ele>
        <time>2026-05-11T11:41:38.000Z</time>
      </trkpt>
      <trkpt lat="45.32848" lon="4.48873">
        <ele>1193.1999511719</ele>
        <time>2026-05-11T11:41:39.000Z</time>
      </trkpt>
      <trkpt lat="45.32849" lon="4.48875">
        <ele>1193.1999511719</ele>
        <time>2026-05-11T11:41:40.000Z</time>
      </trkpt>
      <trkpt lat="45.32851" lon="4.48876">
        <ele>1193.4000244141</ele>
        <time>2026-05-11T11:41:41.000Z</time>
      </trkpt>
      <trkpt lat="45.32852" lon="4.48878">
        <ele>1193.4000244141</ele>
        <time>2026-05-11T11:41:42.000Z</time>
      </trkpt>
      <trkpt lat="45.32853" lon="4.4888">
        <ele>1193.4000244141</ele>
        <time>2026-05-11T11:41:43.000Z</time>
      </trkpt>
      <trkpt lat="45.32854" lon="4.48882">
        <ele>1193.4000244141</ele>
        <time>2026-05-11T11:41:44.000Z</time>
      </trkpt>
      <trkpt lat="45.32855" lon="4.48884">
        <ele>1193.5999755859</ele>
        <time>2026-05-11T11:41:45.000Z</time>
      </trkpt>
      <trkpt lat="45.32857" lon="4.48886">
        <ele>1193.5999755859</ele>
        <time>2026-05-11T11:41:46.000Z</time>
      </trkpt>
      <trkpt lat="45.32858" lon="4.48888">
        <ele>1193.5999755859</ele>
        <time>2026-05-11T11:41:47.000Z</time>
      </trkpt>
      <trkpt lat="45.3286" lon="4.4889">
        <ele>1193.8000488281</ele>
        <time>2026-05-11T11:41:48.000Z</time>
      </trkpt>
      <trkpt lat="45.32861" lon="4.48892">
        <ele>1193.8000488281</ele>
        <time>2026-05-11T11:41:49.000Z</time>
      </trkpt>
      <trkpt lat="45.32863" lon="4.48894">
        <ele>1193.8000488281</ele>
        <time>2026-05-11T11:41:50.000Z</time>
      </trkpt>
      <trkpt lat="45.32863" lon="4.48896">
        <ele>1194</ele>
        <time>2026-05-11T11:41:51.000Z</time>
      </trkpt>
      <trkpt lat="45.32865" lon="4.48899">
        <ele>1194</ele>
        <time>2026-05-11T11:41:52.000Z</time>
      </trkpt>
      <trkpt lat="45.32866" lon="4.48901">
        <ele>1194.1999511719</ele>
        <time>2026-05-11T11:41:53.000Z</time>
      </trkpt>
      <trkpt lat="45.32867" lon="4.48903">
        <ele>1194.1999511719</ele>
        <time>2026-05-11T11:41:54.000Z</time>
      </trkpt>
      <trkpt lat="45.32867" lon="4.48905">
        <ele>1194.4000244141</ele>
        <time>2026-05-11T11:41:55.000Z</time>
      </trkpt>
      <trkpt lat="45.32869" lon="4.48908">
        <ele>1194.4000244141</ele>
        <time>2026-05-11T11:41:56.000Z</time>
      </trkpt>
      <trkpt lat="45.3287" lon="4.4891">
        <ele>1194.4000244141</ele>
        <time>2026-05-11T11:41:57.000Z</time>
      </trkpt>
      <trkpt lat="45.32871" lon="4.48911">
        <ele>1194.5999755859</ele>
        <time>2026-05-11T11:41:58.000Z</time>
      </trkpt>
      <trkpt lat="45.32872" lon="4.48913">
        <ele>1194.5999755859</ele>
        <time>2026-05-11T11:41:59.000Z</time>
      </trkpt>
      <trkpt lat="45.32873" lon="4.48915">
        <ele>1194.5999755859</ele>
        <time>2026-05-11T11:42:00.000Z</time>
      </trkpt>
      <trkpt lat="45.32874" lon="4.48917">
        <ele>1194.8000488281</ele>
        <time>2026-05-11T11:42:01.000Z</time>
      </trkpt>
      <trkpt lat="45.32875" lon="4.48919">
        <ele>1194.8000488281</ele>
        <time>2026-05-11T11:42:02.000Z</time>
      </trkpt>
      <trkpt lat="45.32876" lon="4.48922">
        <ele>1195</ele>
        <time>2026-05-11T11:42:03.000Z</time>
      </trkpt>
      <trkpt lat="45.32877" lon="4.48924">
        <ele>1195</ele>
        <time>2026-05-11T11:42:04.000Z</time>
      </trkpt>
      <trkpt lat="45.32878" lon="4.48926">
        <ele>1195.1999511719</ele>
        <time>2026-05-11T11:42:05.000Z</time>
      </trkpt>
      <trkpt lat="45.32879" lon="4.48928">
        <ele>1195.1999511719</ele>
        <time>2026-05-11T11:42:06.000Z</time>
      </trkpt>
      <trkpt lat="45.3288" lon="4.4893">
        <ele>1195.4000244141</ele>
        <time>2026-05-11T11:42:07.000Z</time>
      </trkpt>
      <trkpt lat="45.32881" lon="4.48932">
        <ele>1195.4000244141</ele>
        <time>2026-05-11T11:42:08.000Z</time>
      </trkpt>
      <trkpt lat="45.32882" lon="4.48935">
        <ele>1195.5999755859</ele>
        <time>2026-05-11T11:42:09.000Z</time>
      </trkpt>
      <trkpt lat="45.32883" lon="4.48937">
        <ele>1195.5999755859</ele>
        <time>2026-05-11T11:42:10.000Z</time>
      </trkpt>
      <trkpt lat="45.32884" lon="4.4894">
        <ele>1195.8000488281</ele>
        <time>2026-05-11T11:42:11.000Z</time>
      </trkpt>
      <trkpt lat="45.32885" lon="4.48942">
        <ele>1195.8000488281</ele>
        <time>2026-05-11T11:42:12.000Z</time>
      </trkpt>
      <trkpt lat="45.32886" lon="4.48944">
        <ele>1196</ele>
        <time>2026-05-11T11:42:13.000Z</time>
      </trkpt>
      <trkpt lat="45.32887" lon="4.48945">
        <ele>1196.1999511719</ele>
        <time>2026-05-11T11:42:14.000Z</time>
      </trkpt>
      <trkpt lat="45.32888" lon="4.48947">
        <ele>1196.4000244141</ele>
        <time>2026-05-11T11:42:15.000Z</time>
      </trkpt>
      <trkpt lat="45.32889" lon="4.48948">
        <ele>1196.4000244141</ele>
        <time>2026-05-11T11:42:16.000Z</time>
      </trkpt>
      <trkpt lat="45.3289" lon="4.48949">
        <ele>1196.5999755859</ele>
        <time>2026-05-11T11:42:17.000Z</time>
      </trkpt>
      <trkpt lat="45.32891" lon="4.48951">
        <ele>1196.8000488281</ele>
        <time>2026-05-11T11:42:18.000Z</time>
      </trkpt>
      <trkpt lat="45.32893" lon="4.48952">
        <ele>1196.8000488281</ele>
        <time>2026-05-11T11:42:19.000Z</time>
      </trkpt>
      <trkpt lat="45.32894" lon="4.48954">
        <ele>1197</ele>
        <time>2026-05-11T11:42:20.000Z</time>
      </trkpt>
      <trkpt lat="45.32895" lon="4.48956">
        <ele>1197.1999511719</ele>
        <time>2026-05-11T11:42:21.000Z</time>
      </trkpt>
      <trkpt lat="45.32896" lon="4.48958">
        <ele>1197.4000244141</ele>
        <time>2026-05-11T11:42:22.000Z</time>
      </trkpt>
      <trkpt lat="45.32898" lon="4.4896">
        <ele>1197.4000244141</ele>
        <time>2026-05-11T11:42:23.000Z</time>
      </trkpt>
      <trkpt lat="45.32899" lon="4.48962">
        <ele>1197.5999755859</ele>
        <time>2026-05-11T11:42:24.000Z</time>
      </trkpt>
      <trkpt lat="45.32901" lon="4.48964">
        <ele>1197.8000488281</ele>
        <time>2026-05-11T11:42:25.000Z</time>
      </trkpt>
      <trkpt lat="45.32902" lon="4.48966">
        <ele>1197.8000488281</ele>
        <time>2026-05-11T11:42:26.000Z</time>
      </trkpt>
      <trkpt lat="45.32903" lon="4.48967">
        <ele>1198</ele>
        <time>2026-05-11T11:42:27.000Z</time>
      </trkpt>
      <trkpt lat="45.32905" lon="4.48968">
        <ele>1198.1999511719</ele>
        <time>2026-05-11T11:42:28.000Z</time>
      </trkpt>
      <trkpt lat="45.32906" lon="4.4897">
        <ele>1198.1999511719</ele>
        <time>2026-05-11T11:42:29.000Z</time>
      </trkpt>
      <trkpt lat="45.32907" lon="4.48971">
        <ele>1198.4000244141</ele>
        <time>2026-05-11T11:42:30.000Z</time>
      </trkpt>
      <trkpt lat="45.32908" lon="4.48972">
        <ele>1198.5999755859</ele>
        <time>2026-05-11T11:42:31.000Z</time>
      </trkpt>
      <trkpt lat="45.3291" lon="4.48973">
        <ele>1198.8000488281</ele>
        <time>2026-05-11T11:42:32.000Z</time>
      </trkpt>
      <trkpt lat="45.32911" lon="4.48973">
        <ele>1198.8000488281</ele>
        <time>2026-05-11T11:42:33.000Z</time>
      </trkpt>
      <trkpt lat="45.32913" lon="4.48973">
        <ele>1199</ele>
        <time>2026-05-11T11:42:34.000Z</time>
      </trkpt>
      <trkpt lat="45.32914" lon="4.48974">
        <ele>1199</ele>
        <time>2026-05-11T11:42:35.000Z</time>
      </trkpt>
      <trkpt lat="45.32915" lon="4.48974">
        <ele>1199.1999511719</ele>
        <time>2026-05-11T11:42:36.000Z</time>
      </trkpt>
      <trkpt lat="45.32916" lon="4.48974">
        <ele>1199.4000244141</ele>
        <time>2026-05-11T11:42:37.000Z</time>
      </trkpt>
      <trkpt lat="45.32917" lon="4.48974">
        <ele>1199.5999755859</ele>
        <time>2026-05-11T11:42:38.000Z</time>
      </trkpt>
      <trkpt lat="45.32919" lon="4.48974">
        <ele>1199.5999755859</ele>
        <time>2026-05-11T11:42:39.000Z</time>
      </trkpt>
      <trkpt lat="45.32919" lon="4.48974">
        <ele>1199.8000488281</ele>
        <time>2026-05-11T11:42:40.000Z</time>
      </trkpt>
      <trkpt lat="45.32921" lon="4.48974">
        <ele>1200</ele>
        <time>2026-05-11T11:42:41.000Z</time>
      </trkpt>
      <trkpt lat="45.32922" lon="4.48975">
        <ele>1200.1999511719</ele>
        <time>2026-05-11T11:42:42.000Z</time>
      </trkpt>
      <trkpt lat="45.32925" lon="4.48976">
        <ele>1200.4000244141</ele>
        <time>2026-05-11T11:42:43.000Z</time>
      </trkpt>
      <trkpt lat="45.32927" lon="4.48976">
        <ele>1200.5999755859</ele>
        <time>2026-05-11T11:42:44.000Z</time>
      </trkpt>
      <trkpt lat="45.32928" lon="4.48977">
        <ele>1200.8000488281</ele>
        <time>2026-05-11T11:42:45.000Z</time>
      </trkpt>
      <trkpt lat="45.32929" lon="4.48977">
        <ele>1201</ele>
        <time>2026-05-11T11:42:46.000Z</time>
      </trkpt>
      <trkpt lat="45.32932" lon="4.48977">
        <ele>1201.1999511719</ele>
        <time>2026-05-11T11:42:47.000Z</time>
      </trkpt>
      <trkpt lat="45.32933" lon="4.48977">
        <ele>1201.4000244141</ele>
        <time>2026-05-11T11:42:48.000Z</time>
      </trkpt>
      <trkpt lat="45.32935" lon="4.48978">
        <ele>1201.5999755859</ele>
        <time>2026-05-11T11:42:49.000Z</time>
      </trkpt>
      <trkpt lat="45.32937" lon="4.48978">
        <ele>1201.8000488281</ele>
        <time>2026-05-11T11:42:50.000Z</time>
      </trkpt>
      <trkpt lat="45.3294" lon="4.48979">
        <ele>1202</ele>
        <time>2026-05-11T11:42:51.000Z</time>
      </trkpt>
      <trkpt lat="45.32941" lon="4.4898">
        <ele>1202.1999511719</ele>
        <time>2026-05-11T11:42:52.000Z</time>
      </trkpt>
      <trkpt lat="45.32943" lon="4.4898">
        <ele>1202.5999755859</ele>
        <time>2026-05-11T11:42:53.000Z</time>
      </trkpt>
      <trkpt lat="45.32945" lon="4.4898">
        <ele>1202.8000488281</ele>
        <time>2026-05-11T11:42:54.000Z</time>
      </trkpt>
      <trkpt lat="45.32946" lon="4.48981">
        <ele>1203.1999511719</ele>
        <time>2026-05-11T11:42:55.000Z</time>
      </trkpt>
      <trkpt lat="45.32948" lon="4.48982">
        <ele>1203.4000244141</ele>
        <time>2026-05-11T11:42:56.000Z</time>
      </trkpt>
      <trkpt lat="45.3295" lon="4.48982">
        <ele>1203.8000488281</ele>
        <time>2026-05-11T11:42:57.000Z</time>
      </trkpt>
      <trkpt lat="45.32952" lon="4.48982">
        <ele>1204</ele>
        <time>2026-05-11T11:42:58.000Z</time>
      </trkpt>
      <trkpt lat="45.32953" lon="4.48983">
        <ele>1204.1999511719</ele>
        <time>2026-05-11T11:42:59.000Z</time>
      </trkpt>
      <trkpt lat="45.32955" lon="4.48983">
        <ele>1204.5999755859</ele>
        <time>2026-05-11T11:43:00.000Z</time>
      </trkpt>
      <trkpt lat="45.32957" lon="4.48985">
        <ele>1204.8000488281</ele>
        <time>2026-05-11T11:43:01.000Z</time>
      </trkpt>
      <trkpt lat="45.32959" lon="4.48986">
        <ele>1205.1999511719</ele>
        <time>2026-05-11T11:43:02.000Z</time>
      </trkpt>
      <trkpt lat="45.32961" lon="4.48987">
        <ele>1205.4000244141</ele>
        <time>2026-05-11T11:43:03.000Z</time>
      </trkpt>
      <trkpt lat="45.32963" lon="4.48989">
        <ele>1205.8000488281</ele>
        <time>2026-05-11T11:43:04.000Z</time>
      </trkpt>
      <trkpt lat="45.32965" lon="4.4899">
        <ele>1206</ele>
        <time>2026-05-11T11:43:05.000Z</time>
      </trkpt>
      <trkpt lat="45.32966" lon="4.48991">
        <ele>1206.4000244141</ele>
        <time>2026-05-11T11:43:06.000Z</time>
      </trkpt>
      <trkpt lat="45.32968" lon="4.48991">
        <ele>1206.8000488281</ele>
        <time>2026-05-11T11:43:07.000Z</time>
      </trkpt>
      <trkpt lat="45.32969" lon="4.48993">
        <ele>1207</ele>
        <time>2026-05-11T11:43:08.000Z</time>
      </trkpt>
      <trkpt lat="45.32971" lon="4.48993">
        <ele>1207.1999511719</ele>
        <time>2026-05-11T11:43:09.000Z</time>
      </trkpt>
      <trkpt lat="45.32973" lon="4.48994">
        <ele>1207.4000244141</ele>
        <time>2026-05-11T11:43:10.000Z</time>
      </trkpt>
      <trkpt lat="45.32974" lon="4.48994">
        <ele>1207.8000488281</ele>
        <time>2026-05-11T11:43:11.000Z</time>
      </trkpt>
      <trkpt lat="45.32976" lon="4.48995">
        <ele>1208</ele>
        <time>2026-05-11T11:43:12.000Z</time>
      </trkpt>
      <trkpt lat="45.32978" lon="4.48996">
        <ele>1208.1999511719</ele>
        <time>2026-05-11T11:43:13.000Z</time>
      </trkpt>
      <trkpt lat="45.32979" lon="4.48996">
        <ele>1208.4000244141</ele>
        <time>2026-05-11T11:43:14.000Z</time>
      </trkpt>
      <trkpt lat="45.32981" lon="4.48997">
        <ele>1208.8000488281</ele>
        <time>2026-05-11T11:43:15.000Z</time>
      </trkpt>
      <trkpt lat="45.32983" lon="4.48997">
        <ele>1209</ele>
        <time>2026-05-11T11:43:16.000Z</time>
      </trkpt>
      <trkpt lat="45.32985" lon="4.48998">
        <ele>1209.1999511719</ele>
        <time>2026-05-11T11:43:17.000Z</time>
      </trkpt>
      <trkpt lat="45.32987" lon="4.48999">
        <ele>1209.4000244141</ele>
        <time>2026-05-11T11:43:18.000Z</time>
      </trkpt>
      <trkpt lat="45.32988" lon="4.48999">
        <ele>1209.5999755859</ele>
        <time>2026-05-11T11:43:19.000Z</time>
      </trkpt>
      <trkpt lat="45.3299" lon="4.49">
        <ele>1209.8000488281</ele>
        <time>2026-05-11T11:43:20.000Z</time>
      </trkpt>
      <trkpt lat="45.32992" lon="4.49001">
        <ele>1210</ele>
        <time>2026-05-11T11:43:21.000Z</time>
      </trkpt>
      <trkpt lat="45.32994" lon="4.49002">
        <ele>1210.1999511719</ele>
        <time>2026-05-11T11:43:22.000Z</time>
      </trkpt>
      <trkpt lat="45.32995" lon="4.49003">
        <ele>1210.4000244141</ele>
        <time>2026-05-11T11:43:23.000Z</time>
      </trkpt>
      <trkpt lat="45.32997" lon="4.49003">
        <ele>1210.5999755859</ele>
        <time>2026-05-11T11:43:24.000Z</time>
      </trkpt>
      <trkpt lat="45.32999" lon="4.49003">
        <ele>1210.8000488281</ele>
        <time>2026-05-11T11:43:25.000Z</time>
      </trkpt>
      <trkpt lat="45.33001" lon="4.49003">
        <ele>1211</ele>
        <time>2026-05-11T11:43:26.000Z</time>
      </trkpt>
      <trkpt lat="45.33003" lon="4.49003">
        <ele>1211</ele>
        <time>2026-05-11T11:43:27.000Z</time>
      </trkpt>
      <trkpt lat="45.33005" lon="4.49004">
        <ele>1211.1999511719</ele>
        <time>2026-05-11T11:43:28.000Z</time>
      </trkpt>
      <trkpt lat="45.33007" lon="4.49005">
        <ele>1211.4000244141</ele>
        <time>2026-05-11T11:43:29.000Z</time>
      </trkpt>
      <trkpt lat="45.33008" lon="4.49006">
        <ele>1211.5999755859</ele>
        <time>2026-05-11T11:43:30.000Z</time>
      </trkpt>
      <trkpt lat="45.3301" lon="4.49006">
        <ele>1211.8000488281</ele>
        <time>2026-05-11T11:43:31.000Z</time>
      </trkpt>
      <trkpt lat="45.33012" lon="4.49007">
        <ele>1212</ele>
        <time>2026-05-11T11:43:32.000Z</time>
      </trkpt>
      <trkpt lat="45.33013" lon="4.49007">
        <ele>1212.1999511719</ele>
        <time>2026-05-11T11:43:33.000Z</time>
      </trkpt>
      <trkpt lat="45.33015" lon="4.49008">
        <ele>1212.1999511719</ele>
        <time>2026-05-11T11:43:34.000Z</time>
      </trkpt>
      <trkpt lat="45.33017" lon="4.49008">
        <ele>1212.4000244141</ele>
        <time>2026-05-11T11:43:35.000Z</time>
      </trkpt>
      <trkpt lat="45.33018" lon="4.49009">
        <ele>1212.5999755859</ele>
        <time>2026-05-11T11:43:36.000Z</time>
      </trkpt>
      <trkpt lat="45.33019" lon="4.49009">
        <ele>1212.8000488281</ele>
        <time>2026-05-11T11:43:37.000Z</time>
      </trkpt>
      <trkpt lat="45.33021" lon="4.4901">
        <ele>1213</ele>
        <time>2026-05-11T11:43:38.000Z</time>
      </trkpt>
      <trkpt lat="45.33023" lon="4.4901">
        <ele>1213.1999511719</ele>
        <time>2026-05-11T11:43:39.000Z</time>
      </trkpt>
      <trkpt lat="45.33025" lon="4.49011">
        <ele>1213.4000244141</ele>
        <time>2026-05-11T11:43:40.000Z</time>
      </trkpt>
      <trkpt lat="45.33027" lon="4.49012">
        <ele>1213.5999755859</ele>
        <time>2026-05-11T11:43:41.000Z</time>
      </trkpt>
      <trkpt lat="45.33029" lon="4.49012">
        <ele>1213.8000488281</ele>
        <time>2026-05-11T11:43:42.000Z</time>
      </trkpt>
      <trkpt lat="45.33031" lon="4.49013">
        <ele>1214</ele>
        <time>2026-05-11T11:43:43.000Z</time>
      </trkpt>
      <trkpt lat="45.33033" lon="4.49014">
        <ele>1214.1999511719</ele>
        <time>2026-05-11T11:43:44.000Z</time>
      </trkpt>
      <trkpt lat="45.33035" lon="4.49014">
        <ele>1214.4000244141</ele>
        <time>2026-05-11T11:43:45.000Z</time>
      </trkpt>
      <trkpt lat="45.33037" lon="4.49014">
        <ele>1214.5999755859</ele>
        <time>2026-05-11T11:43:46.000Z</time>
      </trkpt>
      <trkpt lat="45.33039" lon="4.49013">
        <ele>1214.5999755859</ele>
        <time>2026-05-11T11:43:47.000Z</time>
      </trkpt>
      <trkpt lat="45.33041" lon="4.49013">
        <ele>1214.8000488281</ele>
        <time>2026-05-11T11:43:48.000Z</time>
      </trkpt>
      <trkpt lat="45.33042" lon="4.49013">
        <ele>1215</ele>
        <time>2026-05-11T11:43:49.000Z</time>
      </trkpt>
      <trkpt lat="45.33044" lon="4.49013">
        <ele>1215</ele>
        <time>2026-05-11T11:43:50.000Z</time>
      </trkpt>
      <trkpt lat="45.33045" lon="4.49013">
        <ele>1215.1999511719</ele>
        <time>2026-05-11T11:43:51.000Z</time>
      </trkpt>
      <trkpt lat="45.33047" lon="4.49013">
        <ele>1215.4000244141</ele>
        <time>2026-05-11T11:43:52.000Z</time>
      </trkpt>
      <trkpt lat="45.33049" lon="4.49013">
        <ele>1215.5999755859</ele>
        <time>2026-05-11T11:43:53.000Z</time>
      </trkpt>
      <trkpt lat="45.3305" lon="4.49012">
        <ele>1215.8000488281</ele>
        <time>2026-05-11T11:43:54.000Z</time>
      </trkpt>
      <trkpt lat="45.33052" lon="4.49011">
        <ele>1216</ele>
        <time>2026-05-11T11:43:55.000Z</time>
      </trkpt>
      <trkpt lat="45.33053" lon="4.4901">
        <ele>1216</ele>
        <time>2026-05-11T11:43:56.000Z</time>
      </trkpt>
      <trkpt lat="45.33054" lon="4.4901">
        <ele>1216.1999511719</ele>
        <time>2026-05-11T11:43:57.000Z</time>
      </trkpt>
      <trkpt lat="45.33055" lon="4.49009">
        <ele>1216.4000244141</ele>
        <time>2026-05-11T11:43:58.000Z</time>
      </trkpt>
      <trkpt lat="45.33057" lon="4.49009">
        <ele>1216.4000244141</ele>
        <time>2026-05-11T11:43:59.000Z</time>
      </trkpt>
      <trkpt lat="45.33059" lon="4.49009">
        <ele>1216.5999755859</ele>
        <time>2026-05-11T11:44:00.000Z</time>
      </trkpt>
      <trkpt lat="45.33061" lon="4.49008">
        <ele>1216.5999755859</ele>
        <time>2026-05-11T11:44:01.000Z</time>
      </trkpt>
      <trkpt lat="45.33063" lon="4.49007">
        <ele>1216.8000488281</ele>
        <time>2026-05-11T11:44:02.000Z</time>
      </trkpt>
      <trkpt lat="45.33065" lon="4.49006">
        <ele>1217</ele>
        <time>2026-05-11T11:44:03.000Z</time>
      </trkpt>
      <trkpt lat="45.33066" lon="4.49005">
        <ele>1217</ele>
        <time>2026-05-11T11:44:04.000Z</time>
      </trkpt>
      <trkpt lat="45.33068" lon="4.49004">
        <ele>1217.1999511719</ele>
        <time>2026-05-11T11:44:05.000Z</time>
      </trkpt>
      <trkpt lat="45.33069" lon="4.49004">
        <ele>1217.4000244141</ele>
        <time>2026-05-11T11:44:06.000Z</time>
      </trkpt>
      <trkpt lat="45.33071" lon="4.49004">
        <ele>1217.5999755859</ele>
        <time>2026-05-11T11:44:07.000Z</time>
      </trkpt>
      <trkpt lat="45.33073" lon="4.49004">
        <ele>1217.8000488281</ele>
        <time>2026-05-11T11:44:08.000Z</time>
      </trkpt>
      <trkpt lat="45.33074" lon="4.49003">
        <ele>1218</ele>
        <time>2026-05-11T11:44:09.000Z</time>
      </trkpt>
      <trkpt lat="45.33076" lon="4.49003">
        <ele>1218.1999511719</ele>
        <time>2026-05-11T11:44:10.000Z</time>
      </trkpt>
      <trkpt lat="45.33077" lon="4.49003">
        <ele>1218.1999511719</ele>
        <time>2026-05-11T11:44:11.000Z</time>
      </trkpt>
      <trkpt lat="45.33079" lon="4.49003">
        <ele>1218.4000244141</ele>
        <time>2026-05-11T11:44:12.000Z</time>
      </trkpt>
      <trkpt lat="45.33082" lon="4.49002">
        <ele>1218.5999755859</ele>
        <time>2026-05-11T11:44:13.000Z</time>
      </trkpt>
      <trkpt lat="45.33084" lon="4.49002">
        <ele>1218.8000488281</ele>
        <time>2026-05-11T11:44:14.000Z</time>
      </trkpt>
      <trkpt lat="45.33086" lon="4.49001">
        <ele>1219</ele>
        <time>2026-05-11T11:44:15.000Z</time>
      </trkpt>
      <trkpt lat="45.33088" lon="4.49">
        <ele>1219.1999511719</ele>
        <time>2026-05-11T11:44:16.000Z</time>
      </trkpt>
      <trkpt lat="45.3309" lon="4.48999">
        <ele>1219.4000244141</ele>
        <time>2026-05-11T11:44:17.000Z</time>
      </trkpt>
      <trkpt lat="45.33092" lon="4.48998">
        <ele>1219.5999755859</ele>
        <time>2026-05-11T11:44:18.000Z</time>
      </trkpt>
      <trkpt lat="45.33093" lon="4.48998">
        <ele>1219.5999755859</ele>
        <time>2026-05-11T11:44:19.000Z</time>
      </trkpt>
      <trkpt lat="45.33095" lon="4.48997">
        <ele>1219.8000488281</ele>
        <time>2026-05-11T11:44:20.000Z</time>
      </trkpt>
      <trkpt lat="45.33097" lon="4.48996">
        <ele>1220</ele>
        <time>2026-05-11T11:44:21.000Z</time>
      </trkpt>
      <trkpt lat="45.33098" lon="4.48996">
        <ele>1220.1999511719</ele>
        <time>2026-05-11T11:44:22.000Z</time>
      </trkpt>
      <trkpt lat="45.331" lon="4.48995">
        <ele>1220.4000244141</ele>
        <time>2026-05-11T11:44:23.000Z</time>
      </trkpt>
      <trkpt lat="45.33102" lon="4.48993">
        <ele>1220.5999755859</ele>
        <time>2026-05-11T11:44:24.000Z</time>
      </trkpt>
      <trkpt lat="45.33104" lon="4.48992">
        <ele>1220.8000488281</ele>
        <time>2026-05-11T11:44:25.000Z</time>
      </trkpt>
      <trkpt lat="45.33106" lon="4.48991">
        <ele>1221</ele>
        <time>2026-05-11T11:44:26.000Z</time>
      </trkpt>
      <trkpt lat="45.33108" lon="4.4899">
        <ele>1221</ele>
        <time>2026-05-11T11:44:27.000Z</time>
      </trkpt>
      <trkpt lat="45.3311" lon="4.48988">
        <ele>1221.1999511719</ele>
        <time>2026-05-11T11:44:28.000Z</time>
      </trkpt>
      <trkpt lat="45.33111" lon="4.48987">
        <ele>1221.4000244141</ele>
        <time>2026-05-11T11:44:29.000Z</time>
      </trkpt>
      <trkpt lat="45.33112" lon="4.48985">
        <ele>1221.5999755859</ele>
        <time>2026-05-11T11:44:30.000Z</time>
      </trkpt>
      <trkpt lat="45.33114" lon="4.48984">
        <ele>1221.8000488281</ele>
        <time>2026-05-11T11:44:31.000Z</time>
      </trkpt>
      <trkpt lat="45.33115" lon="4.48983">
        <ele>1222</ele>
        <time>2026-05-11T11:44:32.000Z</time>
      </trkpt>
      <trkpt lat="45.33116" lon="4.48982">
        <ele>1222</ele>
        <time>2026-05-11T11:44:33.000Z</time>
      </trkpt>
      <trkpt lat="45.33118" lon="4.48981">
        <ele>1222.4000244141</ele>
        <time>2026-05-11T11:44:34.000Z</time>
      </trkpt>
      <trkpt lat="45.33119" lon="4.4898">
        <ele>1222.5999755859</ele>
        <time>2026-05-11T11:44:35.000Z</time>
      </trkpt>
      <trkpt lat="45.3312" lon="4.48979">
        <ele>1222.8000488281</ele>
        <time>2026-05-11T11:44:36.000Z</time>
      </trkpt>
      <trkpt lat="45.33121" lon="4.48978">
        <ele>1223</ele>
        <time>2026-05-11T11:44:37.000Z</time>
      </trkpt>
      <trkpt lat="45.33122" lon="4.48977">
        <ele>1223.1999511719</ele>
        <time>2026-05-11T11:44:38.000Z</time>
      </trkpt>
      <trkpt lat="45.33123" lon="4.48976">
        <ele>1223.4000244141</ele>
        <time>2026-05-11T11:44:39.000Z</time>
      </trkpt>
      <trkpt lat="45.33124" lon="4.48974">
        <ele>1223.5999755859</ele>
        <time>2026-05-11T11:44:40.000Z</time>
      </trkpt>
      <trkpt lat="45.33126" lon="4.48973">
        <ele>1223.8000488281</ele>
        <time>2026-05-11T11:44:41.000Z</time>
      </trkpt>
      <trkpt lat="45.33128" lon="4.48972">
        <ele>1224</ele>
        <time>2026-05-11T11:44:42.000Z</time>
      </trkpt>
      <trkpt lat="45.33129" lon="4.48971">
        <ele>1224.4000244141</ele>
        <time>2026-05-11T11:44:43.000Z</time>
      </trkpt>
      <trkpt lat="45.33131" lon="4.48969">
        <ele>1224.5999755859</ele>
        <time>2026-05-11T11:44:44.000Z</time>
      </trkpt>
      <trkpt lat="45.33133" lon="4.48967">
        <ele>1224.8000488281</ele>
        <time>2026-05-11T11:44:45.000Z</time>
      </trkpt>
      <trkpt lat="45.33134" lon="4.48966">
        <ele>1225.1999511719</ele>
        <time>2026-05-11T11:44:46.000Z</time>
      </trkpt>
      <trkpt lat="45.33136" lon="4.48964">
        <ele>1225.4000244141</ele>
        <time>2026-05-11T11:44:47.000Z</time>
      </trkpt>
      <trkpt lat="45.33137" lon="4.48963">
        <ele>1225.8000488281</ele>
        <time>2026-05-11T11:44:48.000Z</time>
      </trkpt>
      <trkpt lat="45.33138" lon="4.48962">
        <ele>1226</ele>
        <time>2026-05-11T11:44:49.000Z</time>
      </trkpt>
      <trkpt lat="45.33139" lon="4.48961">
        <ele>1226.1999511719</ele>
        <time>2026-05-11T11:44:50.000Z</time>
      </trkpt>
      <trkpt lat="45.3314" lon="4.4896">
        <ele>1226.4000244141</ele>
        <time>2026-05-11T11:44:51.000Z</time>
      </trkpt>
      <trkpt lat="45.33142" lon="4.48959">
        <ele>1226.5999755859</ele>
        <time>2026-05-11T11:44:52.000Z</time>
      </trkpt>
      <trkpt lat="45.33143" lon="4.48958">
        <ele>1226.8000488281</ele>
        <time>2026-05-11T11:44:53.000Z</time>
      </trkpt>
      <trkpt lat="45.33144" lon="4.48957">
        <ele>1227</ele>
        <time>2026-05-11T11:44:54.000Z</time>
      </trkpt>
      <trkpt lat="45.33146" lon="4.48956">
        <ele>1227.1999511719</ele>
        <time>2026-05-11T11:44:55.000Z</time>
      </trkpt>
      <trkpt lat="45.33147" lon="4.48955">
        <ele>1227.4000244141</ele>
        <time>2026-05-11T11:44:56.000Z</time>
      </trkpt>
      <trkpt lat="45.33149" lon="4.48954">
        <ele>1227.5999755859</ele>
        <time>2026-05-11T11:44:57.000Z</time>
      </trkpt>
      <trkpt lat="45.33152" lon="4.48953">
        <ele>1227.8000488281</ele>
        <time>2026-05-11T11:44:58.000Z</time>
      </trkpt>
      <trkpt lat="45.33154" lon="4.48952">
        <ele>1227.8000488281</ele>
        <time>2026-05-11T11:44:59.000Z</time>
      </trkpt>
      <trkpt lat="45.33156" lon="4.48952">
        <ele>1228</ele>
        <time>2026-05-11T11:45:00.000Z</time>
      </trkpt>
      <trkpt lat="45.33157" lon="4.48952">
        <ele>1228.1999511719</ele>
        <time>2026-05-11T11:45:01.000Z</time>
      </trkpt>
      <trkpt lat="45.3316" lon="4.48952">
        <ele>1228.1999511719</ele>
        <time>2026-05-11T11:45:02.000Z</time>
      </trkpt>
      <trkpt lat="45.33161" lon="4.48953">
        <ele>1228.4000244141</ele>
        <time>2026-05-11T11:45:03.000Z</time>
      </trkpt>
      <trkpt lat="45.33163" lon="4.48954">
        <ele>1228.5999755859</ele>
        <time>2026-05-11T11:45:04.000Z</time>
      </trkpt>
      <trkpt lat="45.33164" lon="4.48955">
        <ele>1228.8000488281</ele>
        <time>2026-05-11T11:45:05.000Z</time>
      </trkpt>
      <trkpt lat="45.33166" lon="4.48957">
        <ele>1229</ele>
        <time>2026-05-11T11:45:06.000Z</time>
      </trkpt>
      <trkpt lat="45.33168" lon="4.48958">
        <ele>1229.1999511719</ele>
        <time>2026-05-11T11:45:07.000Z</time>
      </trkpt>
      <trkpt lat="45.3317" lon="4.4896">
        <ele>1229.1999511719</ele>
        <time>2026-05-11T11:45:08.000Z</time>
      </trkpt>
      <trkpt lat="45.33172" lon="4.48961">
        <ele>1229.4000244141</ele>
        <time>2026-05-11T11:45:09.000Z</time>
      </trkpt>
      <trkpt lat="45.33173" lon="4.48963">
        <ele>1229.5999755859</ele>
        <time>2026-05-11T11:45:10.000Z</time>
      </trkpt>
      <trkpt lat="45.33175" lon="4.48964">
        <ele>1229.8000488281</ele>
        <time>2026-05-11T11:45:11.000Z</time>
      </trkpt>
      <trkpt lat="45.33176" lon="4.48966">
        <ele>1230</ele>
        <time>2026-05-11T11:45:12.000Z</time>
      </trkpt>
      <trkpt lat="45.33178" lon="4.48967">
        <ele>1230.1999511719</ele>
        <time>2026-05-11T11:45:13.000Z</time>
      </trkpt>
      <trkpt lat="45.33179" lon="4.48968">
        <ele>1230.4000244141</ele>
        <time>2026-05-11T11:45:14.000Z</time>
      </trkpt>
      <trkpt lat="45.33181" lon="4.48968">
        <ele>1230.5999755859</ele>
        <time>2026-05-11T11:45:15.000Z</time>
      </trkpt>
      <trkpt lat="45.33182" lon="4.48969">
        <ele>1230.8000488281</ele>
        <time>2026-05-11T11:45:16.000Z</time>
      </trkpt>
      <trkpt lat="45.33184" lon="4.4897">
        <ele>1231</ele>
        <time>2026-05-11T11:45:17.000Z</time>
      </trkpt>
      <trkpt lat="45.33186" lon="4.48971">
        <ele>1231.1999511719</ele>
        <time>2026-05-11T11:45:18.000Z</time>
      </trkpt>
      <trkpt lat="45.33188" lon="4.48973">
        <ele>1231.4000244141</ele>
        <time>2026-05-11T11:45:19.000Z</time>
      </trkpt>
      <trkpt lat="45.33189" lon="4.48974">
        <ele>1231.5999755859</ele>
        <time>2026-05-11T11:45:20.000Z</time>
      </trkpt>
      <trkpt lat="45.33191" lon="4.48975">
        <ele>1231.8000488281</ele>
        <time>2026-05-11T11:45:21.000Z</time>
      </trkpt>
      <trkpt lat="45.33193" lon="4.48976">
        <ele>1232</ele>
        <time>2026-05-11T11:45:22.000Z</time>
      </trkpt>
      <trkpt lat="45.33194" lon="4.48976">
        <ele>1232.1999511719</ele>
        <time>2026-05-11T11:45:23.000Z</time>
      </trkpt>
      <trkpt lat="45.33196" lon="4.48978">
        <ele>1232.5999755859</ele>
        <time>2026-05-11T11:45:24.000Z</time>
      </trkpt>
      <trkpt lat="45.33197" lon="4.48978">
        <ele>1232.8000488281</ele>
        <time>2026-05-11T11:45:25.000Z</time>
      </trkpt>
      <trkpt lat="45.33199" lon="4.4898">
        <ele>1233</ele>
        <time>2026-05-11T11:45:26.000Z</time>
      </trkpt>
      <trkpt lat="45.332" lon="4.48981">
        <ele>1233.1999511719</ele>
        <time>2026-05-11T11:45:27.000Z</time>
      </trkpt>
      <trkpt lat="45.33201" lon="4.48982">
        <ele>1233.4000244141</ele>
        <time>2026-05-11T11:45:28.000Z</time>
      </trkpt>
      <trkpt lat="45.33203" lon="4.48983">
        <ele>1233.5999755859</ele>
        <time>2026-05-11T11:45:29.000Z</time>
      </trkpt>
      <trkpt lat="45.33204" lon="4.48984">
        <ele>1233.8000488281</ele>
        <time>2026-05-11T11:45:30.000Z</time>
      </trkpt>
      <trkpt lat="45.33206" lon="4.48985">
        <ele>1234</ele>
        <time>2026-05-11T11:45:31.000Z</time>
      </trkpt>
      <trkpt lat="45.33207" lon="4.48987">
        <ele>1234.1999511719</ele>
        <time>2026-05-11T11:45:32.000Z</time>
      </trkpt>
      <trkpt lat="45.33208" lon="4.48988">
        <ele>1234.4000244141</ele>
        <time>2026-05-11T11:45:33.000Z</time>
      </trkpt>
      <trkpt lat="45.3321" lon="4.48989">
        <ele>1234.5999755859</ele>
        <time>2026-05-11T11:45:34.000Z</time>
      </trkpt>
      <trkpt lat="45.33212" lon="4.4899">
        <ele>1234.5999755859</ele>
        <time>2026-05-11T11:45:35.000Z</time>
      </trkpt>
      <trkpt lat="45.33213" lon="4.48992">
        <ele>1234.8000488281</ele>
        <time>2026-05-11T11:45:36.000Z</time>
      </trkpt>
      <trkpt lat="45.33215" lon="4.48993">
        <ele>1235</ele>
        <time>2026-05-11T11:45:37.000Z</time>
      </trkpt>
      <trkpt lat="45.33216" lon="4.48995">
        <ele>1235.1999511719</ele>
        <time>2026-05-11T11:45:38.000Z</time>
      </trkpt>
      <trkpt lat="45.33218" lon="4.48996">
        <ele>1235.1999511719</ele>
        <time>2026-05-11T11:45:39.000Z</time>
      </trkpt>
      <trkpt lat="45.3322" lon="4.48998">
        <ele>1235.4000244141</ele>
        <time>2026-05-11T11:45:40.000Z</time>
      </trkpt>
      <trkpt lat="45.33222" lon="4.48999">
        <ele>1235.5999755859</ele>
        <time>2026-05-11T11:45:41.000Z</time>
      </trkpt>
      <trkpt lat="45.33224" lon="4.49001">
        <ele>1235.5999755859</ele>
        <time>2026-05-11T11:45:42.000Z</time>
      </trkpt>
      <trkpt lat="45.33226" lon="4.49003">
        <ele>1235.8000488281</ele>
        <time>2026-05-11T11:45:43.000Z</time>
      </trkpt>
      <trkpt lat="45.33228" lon="4.49004">
        <ele>1236</ele>
        <time>2026-05-11T11:45:44.000Z</time>
      </trkpt>
      <trkpt lat="45.3323" lon="4.49006">
        <ele>1236</ele>
        <time>2026-05-11T11:45:45.000Z</time>
      </trkpt>
      <trkpt lat="45.33232" lon="4.49007">
        <ele>1236</ele>
        <time>2026-05-11T11:45:46.000Z</time>
      </trkpt>
      <trkpt lat="45.33234" lon="4.49007">
        <ele>1236.1999511719</ele>
        <time>2026-05-11T11:45:47.000Z</time>
      </trkpt>
      <trkpt lat="45.33236" lon="4.49009">
        <ele>1236.1999511719</ele>
        <time>2026-05-11T11:45:48.000Z</time>
      </trkpt>
      <trkpt lat="45.33237" lon="4.4901">
        <ele>1236.4000244141</ele>
        <time>2026-05-11T11:45:49.000Z</time>
      </trkpt>
      <trkpt lat="45.33239" lon="4.49011">
        <ele>1236.4000244141</ele>
        <time>2026-05-11T11:45:50.000Z</time>
      </trkpt>
      <trkpt lat="45.3324" lon="4.49012">
        <ele>1236.5999755859</ele>
        <time>2026-05-11T11:45:51.000Z</time>
      </trkpt>
      <trkpt lat="45.33241" lon="4.49013">
        <ele>1236.5999755859</ele>
        <time>2026-05-11T11:45:52.000Z</time>
      </trkpt>
      <trkpt lat="45.33243" lon="4.49014">
        <ele>1236.8000488281</ele>
        <time>2026-05-11T11:45:53.000Z</time>
      </trkpt>
      <trkpt lat="45.33244" lon="4.49015">
        <ele>1236.8000488281</ele>
        <time>2026-05-11T11:45:54.000Z</time>
      </trkpt>
      <trkpt lat="45.33246" lon="4.49016">
        <ele>1237</ele>
        <time>2026-05-11T11:45:55.000Z</time>
      </trkpt>
      <trkpt lat="45.33248" lon="4.49017">
        <ele>1237.1999511719</ele>
        <time>2026-05-11T11:45:56.000Z</time>
      </trkpt>
      <trkpt lat="45.3325" lon="4.49018">
        <ele>1237.1999511719</ele>
        <time>2026-05-11T11:45:57.000Z</time>
      </trkpt>
      <trkpt lat="45.33252" lon="4.49019">
        <ele>1237.4000244141</ele>
        <time>2026-05-11T11:45:58.000Z</time>
      </trkpt>
      <trkpt lat="45.33253" lon="4.49019">
        <ele>1237.4000244141</ele>
        <time>2026-05-11T11:45:59.000Z</time>
      </trkpt>
      <trkpt lat="45.33255" lon="4.4902">
        <ele>1237.5999755859</ele>
        <time>2026-05-11T11:46:00.000Z</time>
      </trkpt>
      <trkpt lat="45.33257" lon="4.49021">
        <ele>1237.8000488281</ele>
        <time>2026-05-11T11:46:01.000Z</time>
      </trkpt>
      <trkpt lat="45.33258" lon="4.49021">
        <ele>1237.8000488281</ele>
        <time>2026-05-11T11:46:02.000Z</time>
      </trkpt>
      <trkpt lat="45.3326" lon="4.49022">
        <ele>1238</ele>
        <time>2026-05-11T11:46:03.000Z</time>
      </trkpt>
      <trkpt lat="45.33262" lon="4.49024">
        <ele>1238</ele>
        <time>2026-05-11T11:46:04.000Z</time>
      </trkpt>
      <trkpt lat="45.33264" lon="4.49025">
        <ele>1238.1999511719</ele>
        <time>2026-05-11T11:46:05.000Z</time>
      </trkpt>
      <trkpt lat="45.33265" lon="4.49026">
        <ele>1238.4000244141</ele>
        <time>2026-05-11T11:46:06.000Z</time>
      </trkpt>
      <trkpt lat="45.33267" lon="4.49028">
        <ele>1238.4000244141</ele>
        <time>2026-05-11T11:46:07.000Z</time>
      </trkpt>
      <trkpt lat="45.33268" lon="4.49029">
        <ele>1238.5999755859</ele>
        <time>2026-05-11T11:46:08.000Z</time>
      </trkpt>
      <trkpt lat="45.3327" lon="4.4903">
        <ele>1238.5999755859</ele>
        <time>2026-05-11T11:46:09.000Z</time>
      </trkpt>
      <trkpt lat="45.33271" lon="4.49032">
        <ele>1238.8000488281</ele>
        <time>2026-05-11T11:46:10.000Z</time>
      </trkpt>
      <trkpt lat="45.33272" lon="4.49034">
        <ele>1238.8000488281</ele>
        <time>2026-05-11T11:46:11.000Z</time>
      </trkpt>
      <trkpt lat="45.33274" lon="4.49036">
        <ele>1238.8000488281</ele>
        <time>2026-05-11T11:46:12.000Z</time>
      </trkpt>
      <trkpt lat="45.33275" lon="4.49038">
        <ele>1239</ele>
        <time>2026-05-11T11:46:13.000Z</time>
      </trkpt>
      <trkpt lat="45.33277" lon="4.4904">
        <ele>1239</ele>
        <time>2026-05-11T11:46:14.000Z</time>
      </trkpt>
      <trkpt lat="45.33278" lon="4.49042">
        <ele>1239.1999511719</ele>
        <time>2026-05-11T11:46:15.000Z</time>
      </trkpt>
      <trkpt lat="45.33279" lon="4.49044">
        <ele>1239.1999511719</ele>
        <time>2026-05-11T11:46:16.000Z</time>
      </trkpt>
      <trkpt lat="45.33281" lon="4.49047">
        <ele>1239.4000244141</ele>
        <time>2026-05-11T11:46:17.000Z</time>
      </trkpt>
      <trkpt lat="45.33283" lon="4.4905">
        <ele>1239.4000244141</ele>
        <time>2026-05-11T11:46:18.000Z</time>
      </trkpt>
      <trkpt lat="45.33284" lon="4.49052">
        <ele>1239.4000244141</ele>
        <time>2026-05-11T11:46:19.000Z</time>
      </trkpt>
      <trkpt lat="45.33285" lon="4.49054">
        <ele>1239.5999755859</ele>
        <time>2026-05-11T11:46:20.000Z</time>
      </trkpt>
      <trkpt lat="45.33286" lon="4.49056">
        <ele>1239.5999755859</ele>
        <time>2026-05-11T11:46:21.000Z</time>
      </trkpt>
      <trkpt lat="45.33287" lon="4.49059">
        <ele>1239.8000488281</ele>
        <time>2026-05-11T11:46:22.000Z</time>
      </trkpt>
      <trkpt lat="45.33288" lon="4.49061">
        <ele>1239.8000488281</ele>
        <time>2026-05-11T11:46:23.000Z</time>
      </trkpt>
      <trkpt lat="45.3329" lon="4.49063">
        <ele>1240</ele>
        <time>2026-05-11T11:46:24.000Z</time>
      </trkpt>
      <trkpt lat="45.33291" lon="4.49065">
        <ele>1240</ele>
        <time>2026-05-11T11:46:25.000Z</time>
      </trkpt>
      <trkpt lat="45.33291" lon="4.49067">
        <ele>1240.1999511719</ele>
        <time>2026-05-11T11:46:26.000Z</time>
      </trkpt>
      <trkpt lat="45.33293" lon="4.4907">
        <ele>1240.1999511719</ele>
        <time>2026-05-11T11:46:27.000Z</time>
      </trkpt>
      <trkpt lat="45.33294" lon="4.49072">
        <ele>1240.4000244141</ele>
        <time>2026-05-11T11:46:28.000Z</time>
      </trkpt>
      <trkpt lat="45.33295" lon="4.49074">
        <ele>1240.4000244141</ele>
        <time>2026-05-11T11:46:29.000Z</time>
      </trkpt>
      <trkpt lat="45.33296" lon="4.49076">
        <ele>1240.4000244141</ele>
        <time>2026-05-11T11:46:30.000Z</time>
      </trkpt>
      <trkpt lat="45.33297" lon="4.49078">
        <ele>1240.5999755859</ele>
        <time>2026-05-11T11:46:31.000Z</time>
      </trkpt>
      <trkpt lat="45.33298" lon="4.4908">
        <ele>1240.5999755859</ele>
        <time>2026-05-11T11:46:32.000Z</time>
      </trkpt>
      <trkpt lat="45.33298" lon="4.49082">
        <ele>1240.5999755859</ele>
        <time>2026-05-11T11:46:33.000Z</time>
      </trkpt>
      <trkpt lat="45.33298" lon="4.49085">
        <ele>1240.8000488281</ele>
        <time>2026-05-11T11:46:34.000Z</time>
      </trkpt>
      <trkpt lat="45.33299" lon="4.49088">
        <ele>1240.8000488281</ele>
        <time>2026-05-11T11:46:35.000Z</time>
      </trkpt>
      <trkpt lat="45.333" lon="4.49091">
        <ele>1240.8000488281</ele>
        <time>2026-05-11T11:46:36.000Z</time>
      </trkpt>
      <trkpt lat="45.333" lon="4.49094">
        <ele>1240.8000488281</ele>
        <time>2026-05-11T11:46:37.000Z</time>
      </trkpt>
      <trkpt lat="45.33301" lon="4.49096">
        <ele>1240.8000488281</ele>
        <time>2026-05-11T11:46:38.000Z</time>
      </trkpt>
      <trkpt lat="45.33301" lon="4.49099">
        <ele>1240.8000488281</ele>
        <time>2026-05-11T11:46:39.000Z</time>
      </trkpt>
      <trkpt lat="45.33302" lon="4.49102">
        <ele>1240.8000488281</ele>
        <time>2026-05-11T11:46:40.000Z</time>
      </trkpt>
      <trkpt lat="45.33302" lon="4.49105">
        <ele>1240.8000488281</ele>
        <time>2026-05-11T11:46:41.000Z</time>
      </trkpt>
      <trkpt lat="45.33303" lon="4.49108">
        <ele>1241</ele>
        <time>2026-05-11T11:46:42.000Z</time>
      </trkpt>
      <trkpt lat="45.33303" lon="4.4911">
        <ele>1241</ele>
        <time>2026-05-11T11:46:43.000Z</time>
      </trkpt>
      <trkpt lat="45.33304" lon="4.49113">
        <ele>1241</ele>
        <time>2026-05-11T11:46:44.000Z</time>
      </trkpt>
      <trkpt lat="45.33304" lon="4.49116">
        <ele>1241</ele>
        <time>2026-05-11T11:46:45.000Z</time>
      </trkpt>
      <trkpt lat="45.33305" lon="4.49118">
        <ele>1241</ele>
        <time>2026-05-11T11:46:46.000Z</time>
      </trkpt>
      <trkpt lat="45.33305" lon="4.4912">
        <ele>1241</ele>
        <time>2026-05-11T11:46:47.000Z</time>
      </trkpt>
      <trkpt lat="45.33306" lon="4.49123">
        <ele>1241</ele>
        <time>2026-05-11T11:46:48.000Z</time>
      </trkpt>
      <trkpt lat="45.33306" lon="4.49125">
        <ele>1241</ele>
        <time>2026-05-11T11:46:49.000Z</time>
      </trkpt>
      <trkpt lat="45.33307" lon="4.49127">
        <ele>1241.1999511719</ele>
        <time>2026-05-11T11:46:50.000Z</time>
      </trkpt>
      <trkpt lat="45.33308" lon="4.49129">
        <ele>1241.1999511719</ele>
        <time>2026-05-11T11:46:51.000Z</time>
      </trkpt>
      <trkpt lat="45.33309" lon="4.49132">
        <ele>1241.1999511719</ele>
        <time>2026-05-11T11:46:52.000Z</time>
      </trkpt>
      <trkpt lat="45.3331" lon="4.49135">
        <ele>1241.1999511719</ele>
        <time>2026-05-11T11:46:53.000Z</time>
      </trkpt>
      <trkpt lat="45.3331" lon="4.49138">
        <ele>1241.4000244141</ele>
        <time>2026-05-11T11:46:54.000Z</time>
      </trkpt>
      <trkpt lat="45.33311" lon="4.49141">
        <ele>1241.4000244141</ele>
        <time>2026-05-11T11:46:55.000Z</time>
      </trkpt>
      <trkpt lat="45.33312" lon="4.49143">
        <ele>1241.4000244141</ele>
        <time>2026-05-11T11:46:56.000Z</time>
      </trkpt>
      <trkpt lat="45.33312" lon="4.49146">
        <ele>1241.4000244141</ele>
        <time>2026-05-11T11:46:57.000Z</time>
      </trkpt>
      <trkpt lat="45.33312" lon="4.49148">
        <ele>1241.4000244141</ele>
        <time>2026-05-11T11:46:58.000Z</time>
      </trkpt>
      <trkpt lat="45.33313" lon="4.49151">
        <ele>1241.4000244141</ele>
        <time>2026-05-11T11:46:59.000Z</time>
      </trkpt>
      <trkpt lat="45.33314" lon="4.49153">
        <ele>1241.4000244141</ele>
        <time>2026-05-11T11:47:00.000Z</time>
      </trkpt>
      <trkpt lat="45.33314" lon="4.49156">
        <ele>1241.4000244141</ele>
        <time>2026-05-11T11:47:01.000Z</time>
      </trkpt>
      <trkpt lat="45.33315" lon="4.49159">
        <ele>1241.4000244141</ele>
        <time>2026-05-11T11:47:02.000Z</time>
      </trkpt>
      <trkpt lat="45.33315" lon="4.49162">
        <ele>1241.5999755859</ele>
        <time>2026-05-11T11:47:03.000Z</time>
      </trkpt>
      <trkpt lat="45.33315" lon="4.49165">
        <ele>1241.5999755859</ele>
        <time>2026-05-11T11:47:04.000Z</time>
      </trkpt>
      <trkpt lat="45.33316" lon="4.49168">
        <ele>1241.5999755859</ele>
        <time>2026-05-11T11:47:05.000Z</time>
      </trkpt>
      <trkpt lat="45.33316" lon="4.49171">
        <ele>1241.8000488281</ele>
        <time>2026-05-11T11:47:06.000Z</time>
      </trkpt>
      <trkpt lat="45.33317" lon="4.49173">
        <ele>1241.8000488281</ele>
        <time>2026-05-11T11:47:07.000Z</time>
      </trkpt>
      <trkpt lat="45.33317" lon="4.49176">
        <ele>1241.8000488281</ele>
        <time>2026-05-11T11:47:08.000Z</time>
      </trkpt>
      <trkpt lat="45.33317" lon="4.49179">
        <ele>1242</ele>
        <time>2026-05-11T11:47:09.000Z</time>
      </trkpt>
      <trkpt lat="45.33317" lon="4.49181">
        <ele>1242</ele>
        <time>2026-05-11T11:47:10.000Z</time>
      </trkpt>
      <trkpt lat="45.33318" lon="4.49184">
        <ele>1242.1999511719</ele>
        <time>2026-05-11T11:47:11.000Z</time>
      </trkpt>
      <trkpt lat="45.33318" lon="4.49186">
        <ele>1242.1999511719</ele>
        <time>2026-05-11T11:47:12.000Z</time>
      </trkpt>
      <trkpt lat="45.33319" lon="4.49189">
        <ele>1242.4000244141</ele>
        <time>2026-05-11T11:47:13.000Z</time>
      </trkpt>
      <trkpt lat="45.3332" lon="4.49191">
        <ele>1242.4000244141</ele>
        <time>2026-05-11T11:47:14.000Z</time>
      </trkpt>
      <trkpt lat="45.3332" lon="4.49194">
        <ele>1242.5999755859</ele>
        <time>2026-05-11T11:47:15.000Z</time>
      </trkpt>
      <trkpt lat="45.3332" lon="4.49196">
        <ele>1242.5999755859</ele>
        <time>2026-05-11T11:47:16.000Z</time>
      </trkpt>
      <trkpt lat="45.3332" lon="4.49198">
        <ele>1242.8000488281</ele>
        <time>2026-05-11T11:47:17.000Z</time>
      </trkpt>
      <trkpt lat="45.33321" lon="4.492">
        <ele>1243</ele>
        <time>2026-05-11T11:47:18.000Z</time>
      </trkpt>
      <trkpt lat="45.33321" lon="4.49203">
        <ele>1243</ele>
        <time>2026-05-11T11:47:19.000Z</time>
      </trkpt>
      <trkpt lat="45.33321" lon="4.49205">
        <ele>1243.1999511719</ele>
        <time>2026-05-11T11:47:20.000Z</time>
      </trkpt>
      <trkpt lat="45.33322" lon="4.49208">
        <ele>1243.4000244141</ele>
        <time>2026-05-11T11:47:21.000Z</time>
      </trkpt>
      <trkpt lat="45.33322" lon="4.49211">
        <ele>1243.4000244141</ele>
        <time>2026-05-11T11:47:22.000Z</time>
      </trkpt>
      <trkpt lat="45.33322" lon="4.49213">
        <ele>1243.5999755859</ele>
        <time>2026-05-11T11:47:23.000Z</time>
      </trkpt>
      <trkpt lat="45.33323" lon="4.49216">
        <ele>1243.5999755859</ele>
        <time>2026-05-11T11:47:24.000Z</time>
      </trkpt>
      <trkpt lat="45.33324" lon="4.49218">
        <ele>1243.8000488281</ele>
        <time>2026-05-11T11:47:25.000Z</time>
      </trkpt>
      <trkpt lat="45.33324" lon="4.49221">
        <ele>1243.8000488281</ele>
        <time>2026-05-11T11:47:26.000Z</time>
      </trkpt>
      <trkpt lat="45.33325" lon="4.49223">
        <ele>1244</ele>
        <time>2026-05-11T11:47:27.000Z</time>
      </trkpt>
      <trkpt lat="45.33325" lon="4.49226">
        <ele>1244</ele>
        <time>2026-05-11T11:47:28.000Z</time>
      </trkpt>
      <trkpt lat="45.33326" lon="4.49228">
        <ele>1244.1999511719</ele>
        <time>2026-05-11T11:47:29.000Z</time>
      </trkpt>
      <trkpt lat="45.33327" lon="4.4923">
        <ele>1244.1999511719</ele>
        <time>2026-05-11T11:47:30.000Z</time>
      </trkpt>
      <trkpt lat="45.33327" lon="4.49233">
        <ele>1244.4000244141</ele>
        <time>2026-05-11T11:47:31.000Z</time>
      </trkpt>
      <trkpt lat="45.33328" lon="4.49235">
        <ele>1244.4000244141</ele>
        <time>2026-05-11T11:47:32.000Z</time>
      </trkpt>
      <trkpt lat="45.33328" lon="4.49239">
        <ele>1244.4000244141</ele>
        <time>2026-05-11T11:47:33.000Z</time>
      </trkpt>
      <trkpt lat="45.33329" lon="4.49241">
        <ele>1244.5999755859</ele>
        <time>2026-05-11T11:47:34.000Z</time>
      </trkpt>
      <trkpt lat="45.3333" lon="4.49244">
        <ele>1244.5999755859</ele>
        <time>2026-05-11T11:47:35.000Z</time>
      </trkpt>
      <trkpt lat="45.33331" lon="4.49247">
        <ele>1244.8000488281</ele>
        <time>2026-05-11T11:47:36.000Z</time>
      </trkpt>
      <trkpt lat="45.33332" lon="4.49249">
        <ele>1244.8000488281</ele>
        <time>2026-05-11T11:47:37.000Z</time>
      </trkpt>
      <trkpt lat="45.33333" lon="4.49251">
        <ele>1245</ele>
        <time>2026-05-11T11:47:38.000Z</time>
      </trkpt>
      <trkpt lat="45.33334" lon="4.49254">
        <ele>1245.1999511719</ele>
        <time>2026-05-11T11:47:39.000Z</time>
      </trkpt>
      <trkpt lat="45.33335" lon="4.49256">
        <ele>1245.1999511719</ele>
        <time>2026-05-11T11:47:40.000Z</time>
      </trkpt>
      <trkpt lat="45.33336" lon="4.49259">
        <ele>1245.1999511719</ele>
        <time>2026-05-11T11:47:41.000Z</time>
      </trkpt>
      <trkpt lat="45.33337" lon="4.49261">
        <ele>1245.4000244141</ele>
        <time>2026-05-11T11:47:42.000Z</time>
      </trkpt>
      <trkpt lat="45.33338" lon="4.49263">
        <ele>1245.5999755859</ele>
        <time>2026-05-11T11:47:43.000Z</time>
      </trkpt>
      <trkpt lat="45.33339" lon="4.49265">
        <ele>1245.5999755859</ele>
        <time>2026-05-11T11:47:44.000Z</time>
      </trkpt>
      <trkpt lat="45.3334" lon="4.49267">
        <ele>1245.5999755859</ele>
        <time>2026-05-11T11:47:45.000Z</time>
      </trkpt>
      <trkpt lat="45.33342" lon="4.4927">
        <ele>1245.8000488281</ele>
        <time>2026-05-11T11:47:46.000Z</time>
      </trkpt>
      <trkpt lat="45.33342" lon="4.49272">
        <ele>1246</ele>
        <time>2026-05-11T11:47:47.000Z</time>
      </trkpt>
      <trkpt lat="45.33344" lon="4.49274">
        <ele>1246.1999511719</ele>
        <time>2026-05-11T11:47:48.000Z</time>
      </trkpt>
      <trkpt lat="45.33345" lon="4.49276">
        <ele>1246.1999511719</ele>
        <time>2026-05-11T11:47:49.000Z</time>
      </trkpt>
      <trkpt lat="45.33346" lon="4.49278">
        <ele>1246.4000244141</ele>
        <time>2026-05-11T11:47:50.000Z</time>
      </trkpt>
      <trkpt lat="45.33347" lon="4.4928">
        <ele>1246.5999755859</ele>
        <time>2026-05-11T11:47:51.000Z</time>
      </trkpt>
      <trkpt lat="45.33348" lon="4.49282">
        <ele>1246.8000488281</ele>
        <time>2026-05-11T11:47:52.000Z</time>
      </trkpt>
      <trkpt lat="45.33349" lon="4.49284">
        <ele>1246.8000488281</ele>
        <time>2026-05-11T11:47:53.000Z</time>
      </trkpt>
      <trkpt lat="45.33351" lon="4.49286">
        <ele>1247</ele>
        <time>2026-05-11T11:47:54.000Z</time>
      </trkpt>
      <trkpt lat="45.33353" lon="4.49288">
        <ele>1247.1999511719</ele>
        <time>2026-05-11T11:47:55.000Z</time>
      </trkpt>
      <trkpt lat="45.33354" lon="4.49289">
        <ele>1247.1999511719</ele>
        <time>2026-05-11T11:47:56.000Z</time>
      </trkpt>
      <trkpt lat="45.33356" lon="4.49291">
        <ele>1247.4000244141</ele>
        <time>2026-05-11T11:47:57.000Z</time>
      </trkpt>
      <trkpt lat="45.33357" lon="4.49293">
        <ele>1247.4000244141</ele>
        <time>2026-05-11T11:47:58.000Z</time>
      </trkpt>
      <trkpt lat="45.33359" lon="4.49294">
        <ele>1247.4000244141</ele>
        <time>2026-05-11T11:47:59.000Z</time>
      </trkpt>
      <trkpt lat="45.3336" lon="4.49297">
        <ele>1247.5999755859</ele>
        <time>2026-05-11T11:48:00.000Z</time>
      </trkpt>
      <trkpt lat="45.33362" lon="4.49299">
        <ele>1247.5999755859</ele>
        <time>2026-05-11T11:48:01.000Z</time>
      </trkpt>
      <trkpt lat="45.33364" lon="4.493">
        <ele>1247.8000488281</ele>
        <time>2026-05-11T11:48:02.000Z</time>
      </trkpt>
      <trkpt lat="45.33365" lon="4.49301">
        <ele>1247.8000488281</ele>
        <time>2026-05-11T11:48:03.000Z</time>
      </trkpt>
      <trkpt lat="45.33366" lon="4.49303">
        <ele>1247.8000488281</ele>
        <time>2026-05-11T11:48:04.000Z</time>
      </trkpt>
      <trkpt lat="45.33367" lon="4.49305">
        <ele>1248</ele>
        <time>2026-05-11T11:48:05.000Z</time>
      </trkpt>
      <trkpt lat="45.33369" lon="4.49307">
        <ele>1248</ele>
        <time>2026-05-11T11:48:06.000Z</time>
      </trkpt>
      <trkpt lat="45.33371" lon="4.49309">
        <ele>1248</ele>
        <time>2026-05-11T11:48:07.000Z</time>
      </trkpt>
      <trkpt lat="45.33374" lon="4.49311">
        <ele>1248.1999511719</ele>
        <time>2026-05-11T11:48:08.000Z</time>
      </trkpt>
      <trkpt lat="45.33376" lon="4.49313">
        <ele>1248.1999511719</ele>
        <time>2026-05-11T11:48:09.000Z</time>
      </trkpt>
      <trkpt lat="45.33377" lon="4.49316">
        <ele>1248.1999511719</ele>
        <time>2026-05-11T11:48:10.000Z</time>
      </trkpt>
      <trkpt lat="45.33378" lon="4.49317">
        <ele>1248.1999511719</ele>
        <time>2026-05-11T11:48:11.000Z</time>
      </trkpt>
      <trkpt lat="45.33379" lon="4.49319">
        <ele>1248.4000244141</ele>
        <time>2026-05-11T11:48:12.000Z</time>
      </trkpt>
      <trkpt lat="45.3338" lon="4.49321">
        <ele>1248.4000244141</ele>
        <time>2026-05-11T11:48:13.000Z</time>
      </trkpt>
      <trkpt lat="45.33382" lon="4.49324">
        <ele>1248.4000244141</ele>
        <time>2026-05-11T11:48:14.000Z</time>
      </trkpt>
      <trkpt lat="45.33383" lon="4.49327">
        <ele>1248.5999755859</ele>
        <time>2026-05-11T11:48:15.000Z</time>
      </trkpt>
      <trkpt lat="45.33384" lon="4.4933">
        <ele>1248.5999755859</ele>
        <time>2026-05-11T11:48:16.000Z</time>
      </trkpt>
      <trkpt lat="45.33386" lon="4.49333">
        <ele>1248.5999755859</ele>
        <time>2026-05-11T11:48:17.000Z</time>
      </trkpt>
      <trkpt lat="45.33387" lon="4.49335">
        <ele>1248.8000488281</ele>
        <time>2026-05-11T11:48:18.000Z</time>
      </trkpt>
      <trkpt lat="45.33389" lon="4.49338">
        <ele>1248.8000488281</ele>
        <time>2026-05-11T11:48:19.000Z</time>
      </trkpt>
      <trkpt lat="45.3339" lon="4.49341">
        <ele>1248.8000488281</ele>
        <time>2026-05-11T11:48:20.000Z</time>
      </trkpt>
      <trkpt lat="45.33392" lon="4.49343">
        <ele>1248.8000488281</ele>
        <time>2026-05-11T11:48:21.000Z</time>
      </trkpt>
      <trkpt lat="45.33393" lon="4.49344">
        <ele>1249</ele>
        <time>2026-05-11T11:48:22.000Z</time>
      </trkpt>
      <trkpt lat="45.33394" lon="4.49347">
        <ele>1249</ele>
        <time>2026-05-11T11:48:23.000Z</time>
      </trkpt>
      <trkpt lat="45.33396" lon="4.49349">
        <ele>1249</ele>
        <time>2026-05-11T11:48:24.000Z</time>
      </trkpt>
      <trkpt lat="45.33397" lon="4.49351">
        <ele>1249.1999511719</ele>
        <time>2026-05-11T11:48:25.000Z</time>
      </trkpt>
      <trkpt lat="45.33399" lon="4.49354">
        <ele>1249.1999511719</ele>
        <time>2026-05-11T11:48:26.000Z</time>
      </trkpt>
      <trkpt lat="45.334" lon="4.49357">
        <ele>1249.4000244141</ele>
        <time>2026-05-11T11:48:27.000Z</time>
      </trkpt>
      <trkpt lat="45.33401" lon="4.4936">
        <ele>1249.4000244141</ele>
        <time>2026-05-11T11:48:28.000Z</time>
      </trkpt>
      <trkpt lat="45.33403" lon="4.49362">
        <ele>1249.4000244141</ele>
        <time>2026-05-11T11:48:29.000Z</time>
      </trkpt>
      <trkpt lat="45.33405" lon="4.49364">
        <ele>1249.5999755859</ele>
        <time>2026-05-11T11:48:30.000Z</time>
      </trkpt>
      <trkpt lat="45.33407" lon="4.49367">
        <ele>1249.5999755859</ele>
        <time>2026-05-11T11:48:31.000Z</time>
      </trkpt>
      <trkpt lat="45.33408" lon="4.4937">
        <ele>1249.5999755859</ele>
        <time>2026-05-11T11:48:32.000Z</time>
      </trkpt>
      <trkpt lat="45.3341" lon="4.49372">
        <ele>1249.5999755859</ele>
        <time>2026-05-11T11:48:33.000Z</time>
      </trkpt>
      <trkpt lat="45.33412" lon="4.49375">
        <ele>1249.8000488281</ele>
        <time>2026-05-11T11:48:34.000Z</time>
      </trkpt>
      <trkpt lat="45.33414" lon="4.49377">
        <ele>1249.8000488281</ele>
        <time>2026-05-11T11:48:35.000Z</time>
      </trkpt>
      <trkpt lat="45.33416" lon="4.4938">
        <ele>1249.8000488281</ele>
        <time>2026-05-11T11:48:36.000Z</time>
      </trkpt>
      <trkpt lat="45.33418" lon="4.49382">
        <ele>1250</ele>
        <time>2026-05-11T11:48:37.000Z</time>
      </trkpt>
      <trkpt lat="45.33419" lon="4.49385">
        <ele>1250</ele>
        <time>2026-05-11T11:48:38.000Z</time>
      </trkpt>
      <trkpt lat="45.33421" lon="4.49387">
        <ele>1250</ele>
        <time>2026-05-11T11:48:39.000Z</time>
      </trkpt>
      <trkpt lat="45.33423" lon="4.49389">
        <ele>1250</ele>
        <time>2026-05-11T11:48:40.000Z</time>
      </trkpt>
      <trkpt lat="45.33424" lon="4.49391">
        <ele>1250.1999511719</ele>
        <time>2026-05-11T11:48:41.000Z</time>
      </trkpt>
      <trkpt lat="45.33425" lon="4.49394">
        <ele>1250.1999511719</ele>
        <time>2026-05-11T11:48:42.000Z</time>
      </trkpt>
      <trkpt lat="45.33427" lon="4.49396">
        <ele>1250.1999511719</ele>
        <time>2026-05-11T11:48:43.000Z</time>
      </trkpt>
      <trkpt lat="45.33428" lon="4.49399">
        <ele>1250.1999511719</ele>
        <time>2026-05-11T11:48:44.000Z</time>
      </trkpt>
      <trkpt lat="45.33429" lon="4.49401">
        <ele>1250.1999511719</ele>
        <time>2026-05-11T11:48:45.000Z</time>
      </trkpt>
      <trkpt lat="45.3343" lon="4.49404">
        <ele>1250.1999511719</ele>
        <time>2026-05-11T11:48:46.000Z</time>
      </trkpt>
      <trkpt lat="45.33431" lon="4.49407">
        <ele>1250.1999511719</ele>
        <time>2026-05-11T11:48:47.000Z</time>
      </trkpt>
      <trkpt lat="45.33432" lon="4.4941">
        <ele>1250.1999511719</ele>
        <time>2026-05-11T11:48:48.000Z</time>
      </trkpt>
      <trkpt lat="45.33433" lon="4.49412">
        <ele>1250.4000244141</ele>
        <time>2026-05-11T11:48:49.000Z</time>
      </trkpt>
      <trkpt lat="45.33434" lon="4.49414">
        <ele>1250.4000244141</ele>
        <time>2026-05-11T11:48:50.000Z</time>
      </trkpt>
      <trkpt lat="45.33435" lon="4.49417">
        <ele>1250.4000244141</ele>
        <time>2026-05-11T11:48:51.000Z</time>
      </trkpt>
      <trkpt lat="45.33437" lon="4.4942">
        <ele>1250.4000244141</ele>
        <time>2026-05-11T11:48:52.000Z</time>
      </trkpt>
      <trkpt lat="45.33438" lon="4.49423">
        <ele>1250.4000244141</ele>
        <time>2026-05-11T11:48:53.000Z</time>
      </trkpt>
      <trkpt lat="45.33439" lon="4.49426">
        <ele>1250.4000244141</ele>
        <time>2026-05-11T11:48:54.000Z</time>
      </trkpt>
      <trkpt lat="45.33441" lon="4.49428">
        <ele>1250.4000244141</ele>
        <time>2026-05-11T11:48:55.000Z</time>
      </trkpt>
      <trkpt lat="45.33442" lon="4.49431">
        <ele>1250.5999755859</ele>
        <time>2026-05-11T11:48:56.000Z</time>
      </trkpt>
      <trkpt lat="45.33443" lon="4.49434">
        <ele>1250.5999755859</ele>
        <time>2026-05-11T11:48:57.000Z</time>
      </trkpt>
      <trkpt lat="45.33444" lon="4.49437">
        <ele>1250.5999755859</ele>
        <time>2026-05-11T11:48:58.000Z</time>
      </trkpt>
      <trkpt lat="45.33445" lon="4.49439">
        <ele>1250.8000488281</ele>
        <time>2026-05-11T11:48:59.000Z</time>
      </trkpt>
      <trkpt lat="45.33446" lon="4.49442">
        <ele>1250.8000488281</ele>
        <time>2026-05-11T11:49:00.000Z</time>
      </trkpt>
      <trkpt lat="45.33447" lon="4.49444">
        <ele>1251</ele>
        <time>2026-05-11T11:49:01.000Z</time>
      </trkpt>
      <trkpt lat="45.33448" lon="4.49447">
        <ele>1251</ele>
        <time>2026-05-11T11:49:02.000Z</time>
      </trkpt>
      <trkpt lat="45.33449" lon="4.4945">
        <ele>1251</ele>
        <time>2026-05-11T11:49:03.000Z</time>
      </trkpt>
      <trkpt lat="45.3345" lon="4.49453">
        <ele>1251.1999511719</ele>
        <time>2026-05-11T11:49:04.000Z</time>
      </trkpt>
      <trkpt lat="45.33451" lon="4.49456">
        <ele>1251.1999511719</ele>
        <time>2026-05-11T11:49:05.000Z</time>
      </trkpt>
      <trkpt lat="45.33453" lon="4.49459">
        <ele>1251.1999511719</ele>
        <time>2026-05-11T11:49:06.000Z</time>
      </trkpt>
      <trkpt lat="45.33454" lon="4.49462">
        <ele>1251.4000244141</ele>
        <time>2026-05-11T11:49:07.000Z</time>
      </trkpt>
      <trkpt lat="45.33455" lon="4.49465">
        <ele>1251.4000244141</ele>
        <time>2026-05-11T11:49:08.000Z</time>
      </trkpt>
      <trkpt lat="45.33456" lon="4.49468">
        <ele>1251.5999755859</ele>
        <time>2026-05-11T11:49:09.000Z</time>
      </trkpt>
      <trkpt lat="45.33457" lon="4.4947">
        <ele>1251.5999755859</ele>
        <time>2026-05-11T11:49:10.000Z</time>
      </trkpt>
      <trkpt lat="45.33458" lon="4.49473">
        <ele>1251.8000488281</ele>
        <time>2026-05-11T11:49:11.000Z</time>
      </trkpt>
      <trkpt lat="45.33458" lon="4.49476">
        <ele>1251.8000488281</ele>
        <time>2026-05-11T11:49:12.000Z</time>
      </trkpt>
      <trkpt lat="45.33459" lon="4.49479">
        <ele>1252</ele>
        <time>2026-05-11T11:49:13.000Z</time>
      </trkpt>
      <trkpt lat="45.3346" lon="4.49482">
        <ele>1252.1999511719</ele>
        <time>2026-05-11T11:49:14.000Z</time>
      </trkpt>
      <trkpt lat="45.33461" lon="4.49485">
        <ele>1252.1999511719</ele>
        <time>2026-05-11T11:49:15.000Z</time>
      </trkpt>
      <trkpt lat="45.33462" lon="4.49488">
        <ele>1252.4000244141</ele>
        <time>2026-05-11T11:49:16.000Z</time>
      </trkpt>
      <trkpt lat="45.33463" lon="4.49491">
        <ele>1252.5999755859</ele>
        <time>2026-05-11T11:49:17.000Z</time>
      </trkpt>
      <trkpt lat="45.33464" lon="4.49493">
        <ele>1252.8000488281</ele>
        <time>2026-05-11T11:49:18.000Z</time>
      </trkpt>
      <trkpt lat="45.33464" lon="4.49495">
        <ele>1253</ele>
        <time>2026-05-11T11:49:19.000Z</time>
      </trkpt>
      <trkpt lat="45.33465" lon="4.49498">
        <ele>1253</ele>
        <time>2026-05-11T11:49:20.000Z</time>
      </trkpt>
      <trkpt lat="45.33466" lon="4.495">
        <ele>1253.4000244141</ele>
        <time>2026-05-11T11:49:21.000Z</time>
      </trkpt>
      <trkpt lat="45.33467" lon="4.49502">
        <ele>1253.5999755859</ele>
        <time>2026-05-11T11:49:22.000Z</time>
      </trkpt>
      <trkpt lat="45.33468" lon="4.49505">
        <ele>1253.8000488281</ele>
        <time>2026-05-11T11:49:23.000Z</time>
      </trkpt>
      <trkpt lat="45.33469" lon="4.49507">
        <ele>1254</ele>
        <time>2026-05-11T11:49:24.000Z</time>
      </trkpt>
      <trkpt lat="45.3347" lon="4.49509">
        <ele>1254.1999511719</ele>
        <time>2026-05-11T11:49:25.000Z</time>
      </trkpt>
      <trkpt lat="45.33471" lon="4.49511">
        <ele>1254.4000244141</ele>
        <time>2026-05-11T11:49:26.000Z</time>
      </trkpt>
      <trkpt lat="45.33472" lon="4.49514">
        <ele>1254.4000244141</ele>
        <time>2026-05-11T11:49:27.000Z</time>
      </trkpt>
      <trkpt lat="45.33474" lon="4.49516">
        <ele>1254.4000244141</ele>
        <time>2026-05-11T11:49:28.000Z</time>
      </trkpt>
      <trkpt lat="45.33475" lon="4.49518">
        <ele>1254.5999755859</ele>
        <time>2026-05-11T11:49:29.000Z</time>
      </trkpt>
      <trkpt lat="45.33475" lon="4.4952">
        <ele>1254.5999755859</ele>
        <time>2026-05-11T11:49:30.000Z</time>
      </trkpt>
      <trkpt lat="45.33476" lon="4.49523">
        <ele>1254.5999755859</ele>
        <time>2026-05-11T11:49:31.000Z</time>
      </trkpt>
      <trkpt lat="45.33478" lon="4.49525">
        <ele>1254.5999755859</ele>
        <time>2026-05-11T11:49:32.000Z</time>
      </trkpt>
      <trkpt lat="45.3348" lon="4.49527">
        <ele>1254.5999755859</ele>
        <time>2026-05-11T11:49:33.000Z</time>
      </trkpt>
      <trkpt lat="45.33481" lon="4.4953">
        <ele>1254.5999755859</ele>
        <time>2026-05-11T11:49:34.000Z</time>
      </trkpt>
      <trkpt lat="45.33483" lon="4.49533">
        <ele>1254.5999755859</ele>
        <time>2026-05-11T11:49:35.000Z</time>
      </trkpt>
      <trkpt lat="45.33485" lon="4.49535">
        <ele>1254.5999755859</ele>
        <time>2026-05-11T11:49:36.000Z</time>
      </trkpt>
      <trkpt lat="45.33486" lon="4.49537">
        <ele>1254.5999755859</ele>
        <time>2026-05-11T11:49:37.000Z</time>
      </trkpt>
      <trkpt lat="45.33487" lon="4.4954">
        <ele>1254.5999755859</ele>
        <time>2026-05-11T11:49:38.000Z</time>
      </trkpt>
      <trkpt lat="45.33489" lon="4.49542">
        <ele>1254.5999755859</ele>
        <time>2026-05-11T11:49:39.000Z</time>
      </trkpt>
      <trkpt lat="45.3349" lon="4.49545">
        <ele>1254.5999755859</ele>
        <time>2026-05-11T11:49:40.000Z</time>
      </trkpt>
      <trkpt lat="45.33492" lon="4.49547">
        <ele>1254.5999755859</ele>
        <time>2026-05-11T11:49:41.000Z</time>
      </trkpt>
      <trkpt lat="45.33493" lon="4.49549">
        <ele>1254.5999755859</ele>
        <time>2026-05-11T11:49:42.000Z</time>
      </trkpt>
      <trkpt lat="45.33495" lon="4.49552">
        <ele>1254.4000244141</ele>
        <time>2026-05-11T11:49:43.000Z</time>
      </trkpt>
      <trkpt lat="45.33497" lon="4.49554">
        <ele>1254.4000244141</ele>
        <time>2026-05-11T11:49:44.000Z</time>
      </trkpt>
      <trkpt lat="45.33498" lon="4.49557">
        <ele>1254.4000244141</ele>
        <time>2026-05-11T11:49:45.000Z</time>
      </trkpt>
      <trkpt lat="45.335" lon="4.4956">
        <ele>1254.4000244141</ele>
        <time>2026-05-11T11:49:46.000Z</time>
      </trkpt>
      <trkpt lat="45.33501" lon="4.49562">
        <ele>1254.4000244141</ele>
        <time>2026-05-11T11:49:47.000Z</time>
      </trkpt>
      <trkpt lat="45.33502" lon="4.49565">
        <ele>1254.1999511719</ele>
        <time>2026-05-11T11:49:48.000Z</time>
      </trkpt>
      <trkpt lat="45.33504" lon="4.49567">
        <ele>1254.1999511719</ele>
        <time>2026-05-11T11:49:49.000Z</time>
      </trkpt>
      <trkpt lat="45.33505" lon="4.49569">
        <ele>1254.1999511719</ele>
        <time>2026-05-11T11:49:50.000Z</time>
      </trkpt>
      <trkpt lat="45.33508" lon="4.49571">
        <ele>1254.1999511719</ele>
        <time>2026-05-11T11:49:51.000Z</time>
      </trkpt>
      <trkpt lat="45.33511" lon="4.49573">
        <ele>1254</ele>
        <time>2026-05-11T11:49:52.000Z</time>
      </trkpt>
      <trkpt lat="45.33514" lon="4.49574">
        <ele>1254</ele>
        <time>2026-05-11T11:49:53.000Z</time>
      </trkpt>
      <trkpt lat="45.33517" lon="4.49576">
        <ele>1253.8000488281</ele>
        <time>2026-05-11T11:49:54.000Z</time>
      </trkpt>
      <trkpt lat="45.3352" lon="4.49577">
        <ele>1253.8000488281</ele>
        <time>2026-05-11T11:49:55.000Z</time>
      </trkpt>
      <trkpt lat="45.33523" lon="4.49579">
        <ele>1253.5999755859</ele>
        <time>2026-05-11T11:49:56.000Z</time>
      </trkpt>
      <trkpt lat="45.33527" lon="4.4958">
        <ele>1253.4000244141</ele>
        <time>2026-05-11T11:49:57.000Z</time>
      </trkpt>
      <trkpt lat="45.33531" lon="4.49582">
        <ele>1253.1999511719</ele>
        <time>2026-05-11T11:49:58.000Z</time>
      </trkpt>
      <trkpt lat="45.33534" lon="4.49584">
        <ele>1253</ele>
        <time>2026-05-11T11:49:59.000Z</time>
      </trkpt>
      <trkpt lat="45.33537" lon="4.49586">
        <ele>1252.8000488281</ele>
        <time>2026-05-11T11:50:00.000Z</time>
      </trkpt>
      <trkpt lat="45.33541" lon="4.49588">
        <ele>1252.5999755859</ele>
        <time>2026-05-11T11:50:01.000Z</time>
      </trkpt>
      <trkpt lat="45.33545" lon="4.49591">
        <ele>1252.4000244141</ele>
        <time>2026-05-11T11:50:02.000Z</time>
      </trkpt>
      <trkpt lat="45.33549" lon="4.49594">
        <ele>1252.1999511719</ele>
        <time>2026-05-11T11:50:03.000Z</time>
      </trkpt>
      <trkpt lat="45.33552" lon="4.49597">
        <ele>1252.1999511719</ele>
        <time>2026-05-11T11:50:04.000Z</time>
      </trkpt>
      <trkpt lat="45.33556" lon="4.49599">
        <ele>1252</ele>
        <time>2026-05-11T11:50:05.000Z</time>
      </trkpt>
      <trkpt lat="45.33559" lon="4.49603">
        <ele>1251.8000488281</ele>
        <time>2026-05-11T11:50:06.000Z</time>
      </trkpt>
      <trkpt lat="45.33562" lon="4.49606">
        <ele>1251.8000488281</ele>
        <time>2026-05-11T11:50:07.000Z</time>
      </trkpt>
      <trkpt lat="45.33565" lon="4.49609">
        <ele>1251.8000488281</ele>
        <time>2026-05-11T11:50:08.000Z</time>
      </trkpt>
      <trkpt lat="45.33568" lon="4.49612">
        <ele>1251.5999755859</ele>
        <time>2026-05-11T11:50:09.000Z</time>
      </trkpt>
      <trkpt lat="45.33571" lon="4.49614">
        <ele>1251.5999755859</ele>
        <time>2026-05-11T11:50:10.000Z</time>
      </trkpt>
      <trkpt lat="45.33573" lon="4.49617">
        <ele>1251.8000488281</ele>
        <time>2026-05-11T11:50:11.000Z</time>
      </trkpt>
      <trkpt lat="45.33575" lon="4.4962">
        <ele>1251.8000488281</ele>
        <time>2026-05-11T11:50:12.000Z</time>
      </trkpt>
      <trkpt lat="45.33577" lon="4.49623">
        <ele>1251.8000488281</ele>
        <time>2026-05-11T11:50:13.000Z</time>
      </trkpt>
      <trkpt lat="45.3358" lon="4.49625">
        <ele>1251.8000488281</ele>
        <time>2026-05-11T11:50:14.000Z</time>
      </trkpt>
      <trkpt lat="45.33582" lon="4.49626">
        <ele>1251.8000488281</ele>
        <time>2026-05-11T11:50:15.000Z</time>
      </trkpt>
      <trkpt lat="45.33585" lon="4.49627">
        <ele>1251.8000488281</ele>
        <time>2026-05-11T11:50:16.000Z</time>
      </trkpt>
      <trkpt lat="45.33587" lon="4.49628">
        <ele>1251.8000488281</ele>
        <time>2026-05-11T11:50:17.000Z</time>
      </trkpt>
      <trkpt lat="45.33589" lon="4.49628">
        <ele>1252</ele>
        <time>2026-05-11T11:50:18.000Z</time>
      </trkpt>
      <trkpt lat="45.33591" lon="4.49628">
        <ele>1252</ele>
        <time>2026-05-11T11:50:19.000Z</time>
      </trkpt>
      <trkpt lat="45.33593" lon="4.49629">
        <ele>1252</ele>
        <time>2026-05-11T11:50:20.000Z</time>
      </trkpt>
      <trkpt lat="45.33595" lon="4.49629">
        <ele>1252</ele>
        <time>2026-05-11T11:50:21.000Z</time>
      </trkpt>
      <trkpt lat="45.33598" lon="4.4963">
        <ele>1252</ele>
        <time>2026-05-11T11:50:22.000Z</time>
      </trkpt>
      <trkpt lat="45.33601" lon="4.49632">
        <ele>1252</ele>
        <time>2026-05-11T11:50:23.000Z</time>
      </trkpt>
      <trkpt lat="45.33603" lon="4.49633">
        <ele>1252</ele>
        <time>2026-05-11T11:50:24.000Z</time>
      </trkpt>
      <trkpt lat="45.33606" lon="4.49633">
        <ele>1252</ele>
        <time>2026-05-11T11:50:25.000Z</time>
      </trkpt>
      <trkpt lat="45.33609" lon="4.49634">
        <ele>1252</ele>
        <time>2026-05-11T11:50:26.000Z</time>
      </trkpt>
      <trkpt lat="45.33611" lon="4.49636">
        <ele>1252</ele>
        <time>2026-05-11T11:50:27.000Z</time>
      </trkpt>
      <trkpt lat="45.33613" lon="4.49637">
        <ele>1252</ele>
        <time>2026-05-11T11:50:28.000Z</time>
      </trkpt>
      <trkpt lat="45.33615" lon="4.49637">
        <ele>1252.1999511719</ele>
        <time>2026-05-11T11:50:29.000Z</time>
      </trkpt>
      <trkpt lat="45.33618" lon="4.49638">
        <ele>1252.1999511719</ele>
        <time>2026-05-11T11:50:30.000Z</time>
      </trkpt>
      <trkpt lat="45.3362" lon="4.49638">
        <ele>1252.1999511719</ele>
        <time>2026-05-11T11:50:31.000Z</time>
      </trkpt>
      <trkpt lat="45.33623" lon="4.49639">
        <ele>1252.1999511719</ele>
        <time>2026-05-11T11:50:32.000Z</time>
      </trkpt>
      <trkpt lat="45.33626" lon="4.49638">
        <ele>1252.4000244141</ele>
        <time>2026-05-11T11:50:33.000Z</time>
      </trkpt>
      <trkpt lat="45.33629" lon="4.49639">
        <ele>1252.4000244141</ele>
        <time>2026-05-11T11:50:34.000Z</time>
      </trkpt>
      <trkpt lat="45.33632" lon="4.49639">
        <ele>1252.4000244141</ele>
        <time>2026-05-11T11:50:35.000Z</time>
      </trkpt>
      <trkpt lat="45.33634" lon="4.49639">
        <ele>1252.5999755859</ele>
        <time>2026-05-11T11:50:36.000Z</time>
      </trkpt>
      <trkpt lat="45.33637" lon="4.49639">
        <ele>1252.5999755859</ele>
        <time>2026-05-11T11:50:37.000Z</time>
      </trkpt>
      <trkpt lat="45.3364" lon="4.4964">
        <ele>1252.5999755859</ele>
        <time>2026-05-11T11:50:38.000Z</time>
      </trkpt>
      <trkpt lat="45.33643" lon="4.4964">
        <ele>1252.5999755859</ele>
        <time>2026-05-11T11:50:39.000Z</time>
      </trkpt>
      <trkpt lat="45.33646" lon="4.4964">
        <ele>1252.5999755859</ele>
        <time>2026-05-11T11:50:40.000Z</time>
      </trkpt>
      <trkpt lat="45.33649" lon="4.4964">
        <ele>1252.5999755859</ele>
        <time>2026-05-11T11:50:41.000Z</time>
      </trkpt>
      <trkpt lat="45.33651" lon="4.4964">
        <ele>1252.5999755859</ele>
        <time>2026-05-11T11:50:42.000Z</time>
      </trkpt>
      <trkpt lat="45.33654" lon="4.49639">
        <ele>1252.5999755859</ele>
        <time>2026-05-11T11:50:43.000Z</time>
      </trkpt>
      <trkpt lat="45.33656" lon="4.49638">
        <ele>1252.5999755859</ele>
        <time>2026-05-11T11:50:44.000Z</time>
      </trkpt>
      <trkpt lat="45.33659" lon="4.49638">
        <ele>1252.5999755859</ele>
        <time>2026-05-11T11:50:45.000Z</time>
      </trkpt>
      <trkpt lat="45.33661" lon="4.49638">
        <ele>1252.5999755859</ele>
        <time>2026-05-11T11:50:46.000Z</time>
      </trkpt>
      <trkpt lat="45.33662" lon="4.49639">
        <ele>1252.5999755859</ele>
        <time>2026-05-11T11:50:47.000Z</time>
      </trkpt>
      <trkpt lat="45.33664" lon="4.49639">
        <ele>1252.5999755859</ele>
        <time>2026-05-11T11:50:48.000Z</time>
      </trkpt>
      <trkpt lat="45.33666" lon="4.49639">
        <ele>1252.5999755859</ele>
        <time>2026-05-11T11:50:49.000Z</time>
      </trkpt>
      <trkpt lat="45.33669" lon="4.49639">
        <ele>1252.5999755859</ele>
        <time>2026-05-11T11:50:50.000Z</time>
      </trkpt>
      <trkpt lat="45.33671" lon="4.49639">
        <ele>1252.4000244141</ele>
        <time>2026-05-11T11:50:51.000Z</time>
      </trkpt>
      <trkpt lat="45.33674" lon="4.4964">
        <ele>1252.4000244141</ele>
        <time>2026-05-11T11:50:52.000Z</time>
      </trkpt>
      <trkpt lat="45.33677" lon="4.49641">
        <ele>1252.4000244141</ele>
        <time>2026-05-11T11:50:53.000Z</time>
      </trkpt>
      <trkpt lat="45.33681" lon="4.49642">
        <ele>1252.4000244141</ele>
        <time>2026-05-11T11:50:54.000Z</time>
      </trkpt>
      <trkpt lat="45.33684" lon="4.49642">
        <ele>1252.4000244141</ele>
        <time>2026-05-11T11:50:55.000Z</time>
      </trkpt>
      <trkpt lat="45.33686" lon="4.49644">
        <ele>1252.4000244141</ele>
        <time>2026-05-11T11:50:56.000Z</time>
      </trkpt>
      <trkpt lat="45.33689" lon="4.49645">
        <ele>1252.1999511719</ele>
        <time>2026-05-11T11:50:57.000Z</time>
      </trkpt>
      <trkpt lat="45.33692" lon="4.49647">
        <ele>1252.1999511719</ele>
        <time>2026-05-11T11:50:58.000Z</time>
      </trkpt>
      <trkpt lat="45.33695" lon="4.49649">
        <ele>1252</ele>
        <time>2026-05-11T11:50:59.000Z</time>
      </trkpt>
      <trkpt lat="45.33697" lon="4.4965">
        <ele>1252</ele>
        <time>2026-05-11T11:51:00.000Z</time>
      </trkpt>
      <trkpt lat="45.337" lon="4.49652">
        <ele>1252</ele>
        <time>2026-05-11T11:51:01.000Z</time>
      </trkpt>
      <trkpt lat="45.33703" lon="4.49654">
        <ele>1252</ele>
        <time>2026-05-11T11:51:02.000Z</time>
      </trkpt>
      <trkpt lat="45.33705" lon="4.49657">
        <ele>1252</ele>
        <time>2026-05-11T11:51:03.000Z</time>
      </trkpt>
      <trkpt lat="45.33708" lon="4.49659">
        <ele>1252</ele>
        <time>2026-05-11T11:51:04.000Z</time>
      </trkpt>
      <trkpt lat="45.3371" lon="4.49662">
        <ele>1251.8000488281</ele>
        <time>2026-05-11T11:51:05.000Z</time>
      </trkpt>
      <trkpt lat="45.33713" lon="4.49665">
        <ele>1251.8000488281</ele>
        <time>2026-05-11T11:51:06.000Z</time>
      </trkpt>
      <trkpt lat="45.33715" lon="4.49668">
        <ele>1251.5999755859</ele>
        <time>2026-05-11T11:51:07.000Z</time>
      </trkpt>
      <trkpt lat="45.33718" lon="4.49671">
        <ele>1251.5999755859</ele>
        <time>2026-05-11T11:51:08.000Z</time>
      </trkpt>
      <trkpt lat="45.3372" lon="4.49673">
        <ele>1251.4000244141</ele>
        <time>2026-05-11T11:51:09.000Z</time>
      </trkpt>
      <trkpt lat="45.33723" lon="4.49676">
        <ele>1251.4000244141</ele>
        <time>2026-05-11T11:51:10.000Z</time>
      </trkpt>
      <trkpt lat="45.33725" lon="4.49679">
        <ele>1251.4000244141</ele>
        <time>2026-05-11T11:51:11.000Z</time>
      </trkpt>
      <trkpt lat="45.33728" lon="4.49682">
        <ele>1251.1999511719</ele>
        <time>2026-05-11T11:51:12.000Z</time>
      </trkpt>
      <trkpt lat="45.3373" lon="4.49685">
        <ele>1251.1999511719</ele>
        <time>2026-05-11T11:51:13.000Z</time>
      </trkpt>
      <trkpt lat="45.33733" lon="4.49688">
        <ele>1251.1999511719</ele>
        <time>2026-05-11T11:51:14.000Z</time>
      </trkpt>
      <trkpt lat="45.33735" lon="4.49691">
        <ele>1251</ele>
        <time>2026-05-11T11:51:15.000Z</time>
      </trkpt>
      <trkpt lat="45.33738" lon="4.49695">
        <ele>1251</ele>
        <time>2026-05-11T11:51:16.000Z</time>
      </trkpt>
      <trkpt lat="45.3374" lon="4.497">
        <ele>1250.8000488281</ele>
        <time>2026-05-11T11:51:17.000Z</time>
      </trkpt>
      <trkpt lat="45.33742" lon="4.49704">
        <ele>1250.5999755859</ele>
        <time>2026-05-11T11:51:18.000Z</time>
      </trkpt>
      <trkpt lat="45.33744" lon="4.49709">
        <ele>1250.5999755859</ele>
        <time>2026-05-11T11:51:19.000Z</time>
      </trkpt>
      <trkpt lat="45.33746" lon="4.49714">
        <ele>1250.1999511719</ele>
        <time>2026-05-11T11:51:20.000Z</time>
      </trkpt>
      <trkpt lat="45.33747" lon="4.49718">
        <ele>1250</ele>
        <time>2026-05-11T11:51:21.000Z</time>
      </trkpt>
      <trkpt lat="45.33748" lon="4.49722">
        <ele>1250</ele>
        <time>2026-05-11T11:51:22.000Z</time>
      </trkpt>
      <trkpt lat="45.3375" lon="4.49726">
        <ele>1249.8000488281</ele>
        <time>2026-05-11T11:51:23.000Z</time>
      </trkpt>
      <trkpt lat="45.33751" lon="4.4973">
        <ele>1249.8000488281</ele>
        <time>2026-05-11T11:51:24.000Z</time>
      </trkpt>
      <trkpt lat="45.33752" lon="4.49734">
        <ele>1249.8000488281</ele>
        <time>2026-05-11T11:51:25.000Z</time>
      </trkpt>
      <trkpt lat="45.33752" lon="4.49737">
        <ele>1249.8000488281</ele>
        <time>2026-05-11T11:51:26.000Z</time>
      </trkpt>
      <trkpt lat="45.33754" lon="4.49741">
        <ele>1249.5999755859</ele>
        <time>2026-05-11T11:51:27.000Z</time>
      </trkpt>
      <trkpt lat="45.33754" lon="4.49745">
        <ele>1249.5999755859</ele>
        <time>2026-05-11T11:51:28.000Z</time>
      </trkpt>
      <trkpt lat="45.33755" lon="4.49749">
        <ele>1249.5999755859</ele>
        <time>2026-05-11T11:51:29.000Z</time>
      </trkpt>
      <trkpt lat="45.33755" lon="4.49754">
        <ele>1249.4000244141</ele>
        <time>2026-05-11T11:51:30.000Z</time>
      </trkpt>
      <trkpt lat="45.33756" lon="4.49758">
        <ele>1249.1999511719</ele>
        <time>2026-05-11T11:51:31.000Z</time>
      </trkpt>
      <trkpt lat="45.33756" lon="4.49763">
        <ele>1249.1999511719</ele>
        <time>2026-05-11T11:51:32.000Z</time>
      </trkpt>
      <trkpt lat="45.33757" lon="4.49767">
        <ele>1249</ele>
        <time>2026-05-11T11:51:33.000Z</time>
      </trkpt>
      <trkpt lat="45.33757" lon="4.49771">
        <ele>1248.8000488281</ele>
        <time>2026-05-11T11:51:34.000Z</time>
      </trkpt>
      <trkpt lat="45.33758" lon="4.49775">
        <ele>1248.8000488281</ele>
        <time>2026-05-11T11:51:35.000Z</time>
      </trkpt>
      <trkpt lat="45.33758" lon="4.49779">
        <ele>1248.8000488281</ele>
        <time>2026-05-11T11:51:36.000Z</time>
      </trkpt>
      <trkpt lat="45.33758" lon="4.49783">
        <ele>1248.8000488281</ele>
        <time>2026-05-11T11:51:37.000Z</time>
      </trkpt>
      <trkpt lat="45.33758" lon="4.49788">
        <ele>1249</ele>
        <time>2026-05-11T11:51:38.000Z</time>
      </trkpt>
      <trkpt lat="45.33759" lon="4.49792">
        <ele>1249</ele>
        <time>2026-05-11T11:51:39.000Z</time>
      </trkpt>
      <trkpt lat="45.3376" lon="4.49796">
        <ele>1249</ele>
        <time>2026-05-11T11:51:40.000Z</time>
      </trkpt>
      <trkpt lat="45.33761" lon="4.498">
        <ele>1249</ele>
        <time>2026-05-11T11:51:41.000Z</time>
      </trkpt>
      <trkpt lat="45.33763" lon="4.49805">
        <ele>1248.8000488281</ele>
        <time>2026-05-11T11:51:42.000Z</time>
      </trkpt>
      <trkpt lat="45.33765" lon="4.49809">
        <ele>1248.8000488281</ele>
        <time>2026-05-11T11:51:43.000Z</time>
      </trkpt>
      <trkpt lat="45.33767" lon="4.49814">
        <ele>1248.5999755859</ele>
        <time>2026-05-11T11:51:44.000Z</time>
      </trkpt>
      <trkpt lat="45.33769" lon="4.4982">
        <ele>1248.5999755859</ele>
        <time>2026-05-11T11:51:45.000Z</time>
      </trkpt>
      <trkpt lat="45.33772" lon="4.49825">
        <ele>1248.4000244141</ele>
        <time>2026-05-11T11:51:46.000Z</time>
      </trkpt>
      <trkpt lat="45.33775" lon="4.4983">
        <ele>1248.1999511719</ele>
        <time>2026-05-11T11:51:47.000Z</time>
      </trkpt>
      <trkpt lat="45.33778" lon="4.49835">
        <ele>1247.8000488281</ele>
        <time>2026-05-11T11:51:48.000Z</time>
      </trkpt>
      <trkpt lat="45.33781" lon="4.4984">
        <ele>1247.4000244141</ele>
        <time>2026-05-11T11:51:49.000Z</time>
      </trkpt>
      <trkpt lat="45.33784" lon="4.49844">
        <ele>1247</ele>
        <time>2026-05-11T11:51:50.000Z</time>
      </trkpt>
      <trkpt lat="45.33787" lon="4.49849">
        <ele>1246.5999755859</ele>
        <time>2026-05-11T11:51:51.000Z</time>
      </trkpt>
      <trkpt lat="45.3379" lon="4.49854">
        <ele>1246.1999511719</ele>
        <time>2026-05-11T11:51:52.000Z</time>
      </trkpt>
      <trkpt lat="45.33793" lon="4.49859">
        <ele>1245.5999755859</ele>
        <time>2026-05-11T11:51:53.000Z</time>
      </trkpt>
      <trkpt lat="45.33796" lon="4.49864">
        <ele>1245</ele>
        <time>2026-05-11T11:51:54.000Z</time>
      </trkpt>
      <trkpt lat="45.338" lon="4.49869">
        <ele>1244.5999755859</ele>
        <time>2026-05-11T11:51:55.000Z</time>
      </trkpt>
      <trkpt lat="45.33803" lon="4.49874">
        <ele>1244</ele>
        <time>2026-05-11T11:51:56.000Z</time>
      </trkpt>
      <trkpt lat="45.33806" lon="4.49878">
        <ele>1243.5999755859</ele>
        <time>2026-05-11T11:51:57.000Z</time>
      </trkpt>
      <trkpt lat="45.33809" lon="4.49883">
        <ele>1243</ele>
        <time>2026-05-11T11:51:58.000Z</time>
      </trkpt>
      <trkpt lat="45.33812" lon="4.49888">
        <ele>1242.5999755859</ele>
        <time>2026-05-11T11:51:59.000Z</time>
      </trkpt>
      <trkpt lat="45.33816" lon="4.49893">
        <ele>1242</ele>
        <time>2026-05-11T11:52:00.000Z</time>
      </trkpt>
      <trkpt lat="45.33819" lon="4.499">
        <ele>1241.5999755859</ele>
        <time>2026-05-11T11:52:01.000Z</time>
      </trkpt>
      <trkpt lat="45.33823" lon="4.49907">
        <ele>1241</ele>
        <time>2026-05-11T11:52:02.000Z</time>
      </trkpt>
      <trkpt lat="45.33826" lon="4.49914">
        <ele>1240.5999755859</ele>
        <time>2026-05-11T11:52:03.000Z</time>
      </trkpt>
      <trkpt lat="45.3383" lon="4.49921">
        <ele>1240</ele>
        <time>2026-05-11T11:52:04.000Z</time>
      </trkpt>
      <trkpt lat="45.33834" lon="4.49928">
        <ele>1239.5999755859</ele>
        <time>2026-05-11T11:52:05.000Z</time>
      </trkpt>
      <trkpt lat="45.33838" lon="4.49935">
        <ele>1239</ele>
        <time>2026-05-11T11:52:06.000Z</time>
      </trkpt>
      <trkpt lat="45.33842" lon="4.49943">
        <ele>1238.4000244141</ele>
        <time>2026-05-11T11:52:07.000Z</time>
      </trkpt>
      <trkpt lat="45.33845" lon="4.4995">
        <ele>1237.8000488281</ele>
        <time>2026-05-11T11:52:08.000Z</time>
      </trkpt>
      <trkpt lat="45.33849" lon="4.49958">
        <ele>1237.1999511719</ele>
        <time>2026-05-11T11:52:09.000Z</time>
      </trkpt>
      <trkpt lat="45.33853" lon="4.49966">
        <ele>1236.5999755859</ele>
        <time>2026-05-11T11:52:10.000Z</time>
      </trkpt>
      <trkpt lat="45.33856" lon="4.49975">
        <ele>1235.8000488281</ele>
        <time>2026-05-11T11:52:11.000Z</time>
      </trkpt>
      <trkpt lat="45.33859" lon="4.49984">
        <ele>1235.1999511719</ele>
        <time>2026-05-11T11:52:12.000Z</time>
      </trkpt>
      <trkpt lat="45.33862" lon="4.49993">
        <ele>1234.5999755859</ele>
        <time>2026-05-11T11:52:13.000Z</time>
      </trkpt>
      <trkpt lat="45.33866" lon="4.50002">
        <ele>1234.1999511719</ele>
        <time>2026-05-11T11:52:14.000Z</time>
      </trkpt>
      <trkpt lat="45.3387" lon="4.50011">
        <ele>1233.5999755859</ele>
        <time>2026-05-11T11:52:15.000Z</time>
      </trkpt>
      <trkpt lat="45.33874" lon="4.50018">
        <ele>1233.1999511719</ele>
        <time>2026-05-11T11:52:16.000Z</time>
      </trkpt>
      <trkpt lat="45.3388" lon="4.50025">
        <ele>1232.5999755859</ele>
        <time>2026-05-11T11:52:17.000Z</time>
      </trkpt>
      <trkpt lat="45.33884" lon="4.50032">
        <ele>1232.4000244141</ele>
        <time>2026-05-11T11:52:18.000Z</time>
      </trkpt>
      <trkpt lat="45.33889" lon="4.50038">
        <ele>1232</ele>
        <time>2026-05-11T11:52:19.000Z</time>
      </trkpt>
      <trkpt lat="45.33895" lon="4.50044">
        <ele>1231.5999755859</ele>
        <time>2026-05-11T11:52:20.000Z</time>
      </trkpt>
      <trkpt lat="45.339" lon="4.50051">
        <ele>1231.5999755859</ele>
        <time>2026-05-11T11:52:21.000Z</time>
      </trkpt>
      <trkpt lat="45.33904" lon="4.50056">
        <ele>1231.4000244141</ele>
        <time>2026-05-11T11:52:22.000Z</time>
      </trkpt>
      <trkpt lat="45.33909" lon="4.50063">
        <ele>1231.1999511719</ele>
        <time>2026-05-11T11:52:23.000Z</time>
      </trkpt>
      <trkpt lat="45.33914" lon="4.50068">
        <ele>1231.1999511719</ele>
        <time>2026-05-11T11:52:24.000Z</time>
      </trkpt>
      <trkpt lat="45.33919" lon="4.50073">
        <ele>1231</ele>
        <time>2026-05-11T11:52:25.000Z</time>
      </trkpt>
      <trkpt lat="45.33923" lon="4.50078">
        <ele>1231</ele>
        <time>2026-05-11T11:52:26.000Z</time>
      </trkpt>
      <trkpt lat="45.33928" lon="4.50084">
        <ele>1230.8000488281</ele>
        <time>2026-05-11T11:52:27.000Z</time>
      </trkpt>
      <trkpt lat="45.33932" lon="4.50089">
        <ele>1230.5999755859</ele>
        <time>2026-05-11T11:52:28.000Z</time>
      </trkpt>
      <trkpt lat="45.33936" lon="4.50094">
        <ele>1230.5999755859</ele>
        <time>2026-05-11T11:52:29.000Z</time>
      </trkpt>
      <trkpt lat="45.3394" lon="4.50099">
        <ele>1230.4000244141</ele>
        <time>2026-05-11T11:52:30.000Z</time>
      </trkpt>
      <trkpt lat="45.33943" lon="4.50103">
        <ele>1230.4000244141</ele>
        <time>2026-05-11T11:52:31.000Z</time>
      </trkpt>
      <trkpt lat="45.33947" lon="4.50107">
        <ele>1230.1999511719</ele>
        <time>2026-05-11T11:52:32.000Z</time>
      </trkpt>
      <trkpt lat="45.3395" lon="4.50111">
        <ele>1230.1999511719</ele>
        <time>2026-05-11T11:52:33.000Z</time>
      </trkpt>
      <trkpt lat="45.33953" lon="4.50114">
        <ele>1230</ele>
        <time>2026-05-11T11:52:34.000Z</time>
      </trkpt>
      <trkpt lat="45.33956" lon="4.50117">
        <ele>1230</ele>
        <time>2026-05-11T11:52:35.000Z</time>
      </trkpt>
      <trkpt lat="45.33959" lon="4.5012">
        <ele>1230</ele>
        <time>2026-05-11T11:52:36.000Z</time>
      </trkpt>
      <trkpt lat="45.33961" lon="4.50123">
        <ele>1230</ele>
        <time>2026-05-11T11:52:37.000Z</time>
      </trkpt>
      <trkpt lat="45.33964" lon="4.50126">
        <ele>1230.1999511719</ele>
        <time>2026-05-11T11:52:38.000Z</time>
      </trkpt>
      <trkpt lat="45.33966" lon="4.50129">
        <ele>1230.1999511719</ele>
        <time>2026-05-11T11:52:39.000Z</time>
      </trkpt>
      <trkpt lat="45.33968" lon="4.50132">
        <ele>1230.1999511719</ele>
        <time>2026-05-11T11:52:40.000Z</time>
      </trkpt>
      <trkpt lat="45.3397" lon="4.50136">
        <ele>1230.1999511719</ele>
        <time>2026-05-11T11:52:41.000Z</time>
      </trkpt>
      <trkpt lat="45.33972" lon="4.50139">
        <ele>1230.1999511719</ele>
        <time>2026-05-11T11:52:42.000Z</time>
      </trkpt>
      <trkpt lat="45.33975" lon="4.50142">
        <ele>1230.1999511719</ele>
        <time>2026-05-11T11:52:43.000Z</time>
      </trkpt>
      <trkpt lat="45.33977" lon="4.50146">
        <ele>1230.1999511719</ele>
        <time>2026-05-11T11:52:44.000Z</time>
      </trkpt>
      <trkpt lat="45.3398" lon="4.50149">
        <ele>1230.1999511719</ele>
        <time>2026-05-11T11:52:45.000Z</time>
      </trkpt>
      <trkpt lat="45.33982" lon="4.50152">
        <ele>1230.4000244141</ele>
        <time>2026-05-11T11:52:46.000Z</time>
      </trkpt>
      <trkpt lat="45.33984" lon="4.50156">
        <ele>1230.4000244141</ele>
        <time>2026-05-11T11:52:47.000Z</time>
      </trkpt>
      <trkpt lat="45.33987" lon="4.5016">
        <ele>1230.4000244141</ele>
        <time>2026-05-11T11:52:48.000Z</time>
      </trkpt>
      <trkpt lat="45.33989" lon="4.50163">
        <ele>1230.4000244141</ele>
        <time>2026-05-11T11:52:49.000Z</time>
      </trkpt>
      <trkpt lat="45.33991" lon="4.50166">
        <ele>1230.4000244141</ele>
        <time>2026-05-11T11:52:50.000Z</time>
      </trkpt>
      <trkpt lat="45.33993" lon="4.5017">
        <ele>1230.5999755859</ele>
        <time>2026-05-11T11:52:51.000Z</time>
      </trkpt>
      <trkpt lat="45.33995" lon="4.50174">
        <ele>1230.5999755859</ele>
        <time>2026-05-11T11:52:52.000Z</time>
      </trkpt>
      <trkpt lat="45.33997" lon="4.50178">
        <ele>1230.5999755859</ele>
        <time>2026-05-11T11:52:53.000Z</time>
      </trkpt>
      <trkpt lat="45.33999" lon="4.50181">
        <ele>1230.8000488281</ele>
        <time>2026-05-11T11:52:54.000Z</time>
      </trkpt>
      <trkpt lat="45.34001" lon="4.50185">
        <ele>1230.8000488281</ele>
        <time>2026-05-11T11:52:55.000Z</time>
      </trkpt>
      <trkpt lat="45.34003" lon="4.50189">
        <ele>1230.8000488281</ele>
        <time>2026-05-11T11:52:56.000Z</time>
      </trkpt>
      <trkpt lat="45.34006" lon="4.50193">
        <ele>1230.8000488281</ele>
        <time>2026-05-11T11:52:57.000Z</time>
      </trkpt>
      <trkpt lat="45.34008" lon="4.50197">
        <ele>1230.8000488281</ele>
        <time>2026-05-11T11:52:58.000Z</time>
      </trkpt>
      <trkpt lat="45.3401" lon="4.50201">
        <ele>1230.8000488281</ele>
        <time>2026-05-11T11:52:59.000Z</time>
      </trkpt>
      <trkpt lat="45.34012" lon="4.50205">
        <ele>1230.8000488281</ele>
        <time>2026-05-11T11:53:00.000Z</time>
      </trkpt>
      <trkpt lat="45.34015" lon="4.50208">
        <ele>1230.8000488281</ele>
        <time>2026-05-11T11:53:01.000Z</time>
      </trkpt>
      <trkpt lat="45.34017" lon="4.50211">
        <ele>1230.8000488281</ele>
        <time>2026-05-11T11:53:02.000Z</time>
      </trkpt>
      <trkpt lat="45.34019" lon="4.50215">
        <ele>1230.8000488281</ele>
        <time>2026-05-11T11:53:03.000Z</time>
      </trkpt>
      <trkpt lat="45.34021" lon="4.50219">
        <ele>1231</ele>
        <time>2026-05-11T11:53:04.000Z</time>
      </trkpt>
      <trkpt lat="45.34023" lon="4.50223">
        <ele>1231</ele>
        <time>2026-05-11T11:53:05.000Z</time>
      </trkpt>
      <trkpt lat="45.34024" lon="4.50227">
        <ele>1231</ele>
        <time>2026-05-11T11:53:06.000Z</time>
      </trkpt>
      <trkpt lat="45.34026" lon="4.5023">
        <ele>1231</ele>
        <time>2026-05-11T11:53:07.000Z</time>
      </trkpt>
      <trkpt lat="45.34027" lon="4.50234">
        <ele>1231</ele>
        <time>2026-05-11T11:53:08.000Z</time>
      </trkpt>
      <trkpt lat="45.34028" lon="4.50238">
        <ele>1230.8000488281</ele>
        <time>2026-05-11T11:53:09.000Z</time>
      </trkpt>
      <trkpt lat="45.3403" lon="4.50242">
        <ele>1230.8000488281</ele>
        <time>2026-05-11T11:53:10.000Z</time>
      </trkpt>
      <trkpt lat="45.34031" lon="4.50247">
        <ele>1230.5999755859</ele>
        <time>2026-05-11T11:53:11.000Z</time>
      </trkpt>
      <trkpt lat="45.34032" lon="4.50251">
        <ele>1230.5999755859</ele>
        <time>2026-05-11T11:53:12.000Z</time>
      </trkpt>
      <trkpt lat="45.34032" lon="4.50256">
        <ele>1230.4000244141</ele>
        <time>2026-05-11T11:53:13.000Z</time>
      </trkpt>
      <trkpt lat="45.34033" lon="4.50261">
        <ele>1230</ele>
        <time>2026-05-11T11:53:14.000Z</time>
      </trkpt>
      <trkpt lat="45.34034" lon="4.50265">
        <ele>1230</ele>
        <time>2026-05-11T11:53:15.000Z</time>
      </trkpt>
      <trkpt lat="45.34035" lon="4.50269">
        <ele>1229.8000488281</ele>
        <time>2026-05-11T11:53:16.000Z</time>
      </trkpt>
      <trkpt lat="45.34036" lon="4.50274">
        <ele>1229.5999755859</ele>
        <time>2026-05-11T11:53:17.000Z</time>
      </trkpt>
      <trkpt lat="45.34036" lon="4.50279">
        <ele>1229.5999755859</ele>
        <time>2026-05-11T11:53:18.000Z</time>
      </trkpt>
      <trkpt lat="45.34037" lon="4.50283">
        <ele>1229.4000244141</ele>
        <time>2026-05-11T11:53:19.000Z</time>
      </trkpt>
      <trkpt lat="45.34037" lon="4.50288">
        <ele>1229.4000244141</ele>
        <time>2026-05-11T11:53:20.000Z</time>
      </trkpt>
      <trkpt lat="45.34037" lon="4.50293">
        <ele>1229.1999511719</ele>
        <time>2026-05-11T11:53:21.000Z</time>
      </trkpt>
      <trkpt lat="45.34037" lon="4.50297">
        <ele>1229.1999511719</ele>
        <time>2026-05-11T11:53:22.000Z</time>
      </trkpt>
      <trkpt lat="45.34038" lon="4.50302">
        <ele>1229.1999511719</ele>
        <time>2026-05-11T11:53:23.000Z</time>
      </trkpt>
      <trkpt lat="45.34038" lon="4.50306">
        <ele>1229.1999511719</ele>
        <time>2026-05-11T11:53:24.000Z</time>
      </trkpt>
      <trkpt lat="45.34038" lon="4.50311">
        <ele>1229.1999511719</ele>
        <time>2026-05-11T11:53:25.000Z</time>
      </trkpt>
      <trkpt lat="45.34039" lon="4.50316">
        <ele>1229.4000244141</ele>
        <time>2026-05-11T11:53:26.000Z</time>
      </trkpt>
      <trkpt lat="45.34039" lon="4.5032">
        <ele>1229.5999755859</ele>
        <time>2026-05-11T11:53:27.000Z</time>
      </trkpt>
      <trkpt lat="45.34039" lon="4.50325">
        <ele>1229.5999755859</ele>
        <time>2026-05-11T11:53:28.000Z</time>
      </trkpt>
      <trkpt lat="45.3404" lon="4.50329">
        <ele>1229.5999755859</ele>
        <time>2026-05-11T11:53:29.000Z</time>
      </trkpt>
      <trkpt lat="45.3404" lon="4.50333">
        <ele>1229.5999755859</ele>
        <time>2026-05-11T11:53:30.000Z</time>
      </trkpt>
      <trkpt lat="45.3404" lon="4.50337">
        <ele>1229.5999755859</ele>
        <time>2026-05-11T11:53:31.000Z</time>
      </trkpt>
      <trkpt lat="45.3404" lon="4.50341">
        <ele>1229.8000488281</ele>
        <time>2026-05-11T11:53:32.000Z</time>
      </trkpt>
      <trkpt lat="45.34041" lon="4.50345">
        <ele>1229.8000488281</ele>
        <time>2026-05-11T11:53:33.000Z</time>
      </trkpt>
      <trkpt lat="45.34041" lon="4.50349">
        <ele>1230</ele>
        <time>2026-05-11T11:53:34.000Z</time>
      </trkpt>
      <trkpt lat="45.34041" lon="4.50353">
        <ele>1230.1999511719</ele>
        <time>2026-05-11T11:53:35.000Z</time>
      </trkpt>
      <trkpt lat="45.34042" lon="4.50356">
        <ele>1230.5999755859</ele>
        <time>2026-05-11T11:53:36.000Z</time>
      </trkpt>
      <trkpt lat="45.34042" lon="4.5036">
        <ele>1230.8000488281</ele>
        <time>2026-05-11T11:53:37.000Z</time>
      </trkpt>
      <trkpt lat="45.34042" lon="4.50363">
        <ele>1231.1999511719</ele>
        <time>2026-05-11T11:53:38.000Z</time>
      </trkpt>
      <trkpt lat="45.34042" lon="4.50368">
        <ele>1231.1999511719</ele>
        <time>2026-05-11T11:53:39.000Z</time>
      </trkpt>
      <trkpt lat="45.34042" lon="4.50372">
        <ele>1231.4000244141</ele>
        <time>2026-05-11T11:53:40.000Z</time>
      </trkpt>
      <trkpt lat="45.34042" lon="4.50376">
        <ele>1231.5999755859</ele>
        <time>2026-05-11T11:53:41.000Z</time>
      </trkpt>
      <trkpt lat="45.34042" lon="4.50381">
        <ele>1231.8000488281</ele>
        <time>2026-05-11T11:53:42.000Z</time>
      </trkpt>
      <trkpt lat="45.34041" lon="4.50386">
        <ele>1232</ele>
        <time>2026-05-11T11:53:43.000Z</time>
      </trkpt>
      <trkpt lat="45.3404" lon="4.50391">
        <ele>1232.1999511719</ele>
        <time>2026-05-11T11:53:44.000Z</time>
      </trkpt>
      <trkpt lat="45.34039" lon="4.50395">
        <ele>1232.4000244141</ele>
        <time>2026-05-11T11:53:45.000Z</time>
      </trkpt>
      <trkpt lat="45.34039" lon="4.50399">
        <ele>1232.5999755859</ele>
        <time>2026-05-11T11:53:46.000Z</time>
      </trkpt>
      <trkpt lat="45.34038" lon="4.50404">
        <ele>1232.8000488281</ele>
        <time>2026-05-11T11:53:47.000Z</time>
      </trkpt>
      <trkpt lat="45.34038" lon="4.50408">
        <ele>1233</ele>
        <time>2026-05-11T11:53:48.000Z</time>
      </trkpt>
      <trkpt lat="45.34037" lon="4.50412">
        <ele>1233.1999511719</ele>
        <time>2026-05-11T11:53:49.000Z</time>
      </trkpt>
      <trkpt lat="45.34037" lon="4.50417">
        <ele>1233.4000244141</ele>
        <time>2026-05-11T11:53:50.000Z</time>
      </trkpt>
      <trkpt lat="45.34036" lon="4.5042">
        <ele>1233.5999755859</ele>
        <time>2026-05-11T11:53:51.000Z</time>
      </trkpt>
      <trkpt lat="45.34034" lon="4.50425">
        <ele>1233.8000488281</ele>
        <time>2026-05-11T11:53:52.000Z</time>
      </trkpt>
      <trkpt lat="45.34033" lon="4.50429">
        <ele>1233.8000488281</ele>
        <time>2026-05-11T11:53:53.000Z</time>
      </trkpt>
      <trkpt lat="45.34033" lon="4.50433">
        <ele>1233.8000488281</ele>
        <time>2026-05-11T11:53:54.000Z</time>
      </trkpt>
      <trkpt lat="45.34034" lon="4.50437">
        <ele>1234</ele>
        <time>2026-05-11T11:53:55.000Z</time>
      </trkpt>
      <trkpt lat="45.34034" lon="4.50442">
        <ele>1234</ele>
        <time>2026-05-11T11:53:56.000Z</time>
      </trkpt>
      <trkpt lat="45.34034" lon="4.50445">
        <ele>1234.1999511719</ele>
        <time>2026-05-11T11:53:57.000Z</time>
      </trkpt>
      <trkpt lat="45.34035" lon="4.50449">
        <ele>1234.1999511719</ele>
        <time>2026-05-11T11:53:58.000Z</time>
      </trkpt>
      <trkpt lat="45.34036" lon="4.50454">
        <ele>1234.4000244141</ele>
        <time>2026-05-11T11:53:59.000Z</time>
      </trkpt>
      <trkpt lat="45.34037" lon="4.50458">
        <ele>1234.4000244141</ele>
        <time>2026-05-11T11:54:00.000Z</time>
      </trkpt>
      <trkpt lat="45.34037" lon="4.50461">
        <ele>1234.4000244141</ele>
        <time>2026-05-11T11:54:01.000Z</time>
      </trkpt>
      <trkpt lat="45.34038" lon="4.50465">
        <ele>1234.4000244141</ele>
        <time>2026-05-11T11:54:02.000Z</time>
      </trkpt>
      <trkpt lat="45.34038" lon="4.50469">
        <ele>1234.4000244141</ele>
        <time>2026-05-11T11:54:03.000Z</time>
      </trkpt>
      <trkpt lat="45.34039" lon="4.50473">
        <ele>1234.5999755859</ele>
        <time>2026-05-11T11:54:04.000Z</time>
      </trkpt>
      <trkpt lat="45.3404" lon="4.50477">
        <ele>1234.5999755859</ele>
        <time>2026-05-11T11:54:05.000Z</time>
      </trkpt>
      <trkpt lat="45.34041" lon="4.50482">
        <ele>1234.8000488281</ele>
        <time>2026-05-11T11:54:06.000Z</time>
      </trkpt>
      <trkpt lat="45.34042" lon="4.50487">
        <ele>1234.8000488281</ele>
        <time>2026-05-11T11:54:07.000Z</time>
      </trkpt>
      <trkpt lat="45.34042" lon="4.50491">
        <ele>1234.8000488281</ele>
        <time>2026-05-11T11:54:08.000Z</time>
      </trkpt>
      <trkpt lat="45.34043" lon="4.50495">
        <ele>1235</ele>
        <time>2026-05-11T11:54:09.000Z</time>
      </trkpt>
      <trkpt lat="45.34042" lon="4.50499">
        <ele>1235</ele>
        <time>2026-05-11T11:54:10.000Z</time>
      </trkpt>
      <trkpt lat="45.34041" lon="4.50502">
        <ele>1235.1999511719</ele>
        <time>2026-05-11T11:54:11.000Z</time>
      </trkpt>
      <trkpt lat="45.34041" lon="4.50507">
        <ele>1235.4000244141</ele>
        <time>2026-05-11T11:54:12.000Z</time>
      </trkpt>
      <trkpt lat="45.34041" lon="4.50511">
        <ele>1235.4000244141</ele>
        <time>2026-05-11T11:54:13.000Z</time>
      </trkpt>
      <trkpt lat="45.3404" lon="4.50515">
        <ele>1235.4000244141</ele>
        <time>2026-05-11T11:54:14.000Z</time>
      </trkpt>
      <trkpt lat="45.3404" lon="4.50519">
        <ele>1235.4000244141</ele>
        <time>2026-05-11T11:54:15.000Z</time>
      </trkpt>
      <trkpt lat="45.3404" lon="4.50522">
        <ele>1235.4000244141</ele>
        <time>2026-05-11T11:54:16.000Z</time>
      </trkpt>
      <trkpt lat="45.34039" lon="4.50525">
        <ele>1235.4000244141</ele>
        <time>2026-05-11T11:54:17.000Z</time>
      </trkpt>
      <trkpt lat="45.34037" lon="4.50527">
        <ele>1235.4000244141</ele>
        <time>2026-05-11T11:54:18.000Z</time>
      </trkpt>
      <trkpt lat="45.34035" lon="4.50529">
        <ele>1235.4000244141</ele>
        <time>2026-05-11T11:54:19.000Z</time>
      </trkpt>
      <trkpt lat="45.34033" lon="4.50529">
        <ele>1235.5999755859</ele>
        <time>2026-05-11T11:54:20.000Z</time>
      </trkpt>
      <trkpt lat="45.34031" lon="4.5053">
        <ele>1235.5999755859</ele>
        <time>2026-05-11T11:54:21.000Z</time>
      </trkpt>
      <trkpt lat="45.34029" lon="4.50531">
        <ele>1235.5999755859</ele>
        <time>2026-05-11T11:54:22.000Z</time>
      </trkpt>
      <trkpt lat="45.34026" lon="4.50532">
        <ele>1235.8000488281</ele>
        <time>2026-05-11T11:54:23.000Z</time>
      </trkpt>
      <trkpt lat="45.34023" lon="4.50534">
        <ele>1235.8000488281</ele>
        <time>2026-05-11T11:54:24.000Z</time>
      </trkpt>
      <trkpt lat="45.34021" lon="4.50536">
        <ele>1236</ele>
        <time>2026-05-11T11:54:25.000Z</time>
      </trkpt>
      <trkpt lat="45.34019" lon="4.50538">
        <ele>1236</ele>
        <time>2026-05-11T11:54:26.000Z</time>
      </trkpt>
      <trkpt lat="45.34017" lon="4.50541">
        <ele>1236</ele>
        <time>2026-05-11T11:54:27.000Z</time>
      </trkpt>
      <trkpt lat="45.34015" lon="4.50543">
        <ele>1236</ele>
        <time>2026-05-11T11:54:28.000Z</time>
      </trkpt>
      <trkpt lat="45.34013" lon="4.50546">
        <ele>1236.1999511719</ele>
        <time>2026-05-11T11:54:29.000Z</time>
      </trkpt>
      <trkpt lat="45.34011" lon="4.50549">
        <ele>1236.1999511719</ele>
        <time>2026-05-11T11:54:30.000Z</time>
      </trkpt>
      <trkpt lat="45.34009" lon="4.50552">
        <ele>1236.1999511719</ele>
        <time>2026-05-11T11:54:31.000Z</time>
      </trkpt>
      <trkpt lat="45.34007" lon="4.50555">
        <ele>1236.4000244141</ele>
        <time>2026-05-11T11:54:32.000Z</time>
      </trkpt>
      <trkpt lat="45.34006" lon="4.50559">
        <ele>1236.4000244141</ele>
        <time>2026-05-11T11:54:33.000Z</time>
      </trkpt>
      <trkpt lat="45.34005" lon="4.50563">
        <ele>1236.5999755859</ele>
        <time>2026-05-11T11:54:34.000Z</time>
      </trkpt>
      <trkpt lat="45.34004" lon="4.50567">
        <ele>1236.8000488281</ele>
        <time>2026-05-11T11:54:35.000Z</time>
      </trkpt>
      <trkpt lat="45.34003" lon="4.50571">
        <ele>1236.8000488281</ele>
        <time>2026-05-11T11:54:36.000Z</time>
      </trkpt>
      <trkpt lat="45.34001" lon="4.50574">
        <ele>1237</ele>
        <time>2026-05-11T11:54:37.000Z</time>
      </trkpt>
      <trkpt lat="45.34" lon="4.50577">
        <ele>1237.1999511719</ele>
        <time>2026-05-11T11:54:38.000Z</time>
      </trkpt>
      <trkpt lat="45.33999" lon="4.50581">
        <ele>1237.1999511719</ele>
        <time>2026-05-11T11:54:39.000Z</time>
      </trkpt>
      <trkpt lat="45.33998" lon="4.50585">
        <ele>1237.4000244141</ele>
        <time>2026-05-11T11:54:40.000Z</time>
      </trkpt>
      <trkpt lat="45.33997" lon="4.50589">
        <ele>1237.5999755859</ele>
        <time>2026-05-11T11:54:41.000Z</time>
      </trkpt>
      <trkpt lat="45.33996" lon="4.50593">
        <ele>1237.8000488281</ele>
        <time>2026-05-11T11:54:42.000Z</time>
      </trkpt>
      <trkpt lat="45.33995" lon="4.50596">
        <ele>1237.8000488281</ele>
        <time>2026-05-11T11:54:43.000Z</time>
      </trkpt>
      <trkpt lat="45.33994" lon="4.50599">
        <ele>1238</ele>
        <time>2026-05-11T11:54:44.000Z</time>
      </trkpt>
      <trkpt lat="45.33994" lon="4.50602">
        <ele>1238.1999511719</ele>
        <time>2026-05-11T11:54:45.000Z</time>
      </trkpt>
      <trkpt lat="45.33993" lon="4.50605">
        <ele>1238.5999755859</ele>
        <time>2026-05-11T11:54:46.000Z</time>
      </trkpt>
      <trkpt lat="45.33991" lon="4.50607">
        <ele>1238.8000488281</ele>
        <time>2026-05-11T11:54:47.000Z</time>
      </trkpt>
      <trkpt lat="45.3399" lon="4.50609">
        <ele>1239</ele>
        <time>2026-05-11T11:54:48.000Z</time>
      </trkpt>
      <trkpt lat="45.33989" lon="4.50612">
        <ele>1239.1999511719</ele>
        <time>2026-05-11T11:54:49.000Z</time>
      </trkpt>
      <trkpt lat="45.33988" lon="4.50614">
        <ele>1239.5999755859</ele>
        <time>2026-05-11T11:54:50.000Z</time>
      </trkpt>
      <trkpt lat="45.33987" lon="4.50616">
        <ele>1239.8000488281</ele>
        <time>2026-05-11T11:54:51.000Z</time>
      </trkpt>
      <trkpt lat="45.33986" lon="4.50619">
        <ele>1240</ele>
        <time>2026-05-11T11:54:52.000Z</time>
      </trkpt>
      <trkpt lat="45.33984" lon="4.50622">
        <ele>1240.4000244141</ele>
        <time>2026-05-11T11:54:53.000Z</time>
      </trkpt>
      <trkpt lat="45.33983" lon="4.50625">
        <ele>1240.5999755859</ele>
        <time>2026-05-11T11:54:54.000Z</time>
      </trkpt>
      <trkpt lat="45.33981" lon="4.50628">
        <ele>1240.5999755859</ele>
        <time>2026-05-11T11:54:55.000Z</time>
      </trkpt>
      <trkpt lat="45.3398" lon="4.5063">
        <ele>1240.8000488281</ele>
        <time>2026-05-11T11:54:56.000Z</time>
      </trkpt>
      <trkpt lat="45.33978" lon="4.50633">
        <ele>1241</ele>
        <time>2026-05-11T11:54:57.000Z</time>
      </trkpt>
      <trkpt lat="45.33977" lon="4.50636">
        <ele>1241.1999511719</ele>
        <time>2026-05-11T11:54:58.000Z</time>
      </trkpt>
      <trkpt lat="45.33975" lon="4.5064">
        <ele>1241.4000244141</ele>
        <time>2026-05-11T11:54:59.000Z</time>
      </trkpt>
      <trkpt lat="45.33974" lon="4.50643">
        <ele>1241.4000244141</ele>
        <time>2026-05-11T11:55:00.000Z</time>
      </trkpt>
      <trkpt lat="45.33973" lon="4.50646">
        <ele>1241.4000244141</ele>
        <time>2026-05-11T11:55:01.000Z</time>
      </trkpt>
      <trkpt lat="45.33972" lon="4.50648">
        <ele>1241.5999755859</ele>
        <time>2026-05-11T11:55:02.000Z</time>
      </trkpt>
      <trkpt lat="45.33972" lon="4.50652">
        <ele>1241.5999755859</ele>
        <time>2026-05-11T11:55:03.000Z</time>
      </trkpt>
      <trkpt lat="45.33972" lon="4.50656">
        <ele>1241.5999755859</ele>
        <time>2026-05-11T11:55:04.000Z</time>
      </trkpt>
      <trkpt lat="45.33971" lon="4.50658">
        <ele>1241.8000488281</ele>
        <time>2026-05-11T11:55:05.000Z</time>
      </trkpt>
      <trkpt lat="45.33971" lon="4.50661">
        <ele>1241.8000488281</ele>
        <time>2026-05-11T11:55:06.000Z</time>
      </trkpt>
      <trkpt lat="45.33971" lon="4.50664">
        <ele>1242</ele>
        <time>2026-05-11T11:55:07.000Z</time>
      </trkpt>
      <trkpt lat="45.3397" lon="4.50666">
        <ele>1242</ele>
        <time>2026-05-11T11:55:08.000Z</time>
      </trkpt>
      <trkpt lat="45.33969" lon="4.50669">
        <ele>1242</ele>
        <time>2026-05-11T11:55:09.000Z</time>
      </trkpt>
      <trkpt lat="45.33968" lon="4.5067">
        <ele>1242.1999511719</ele>
        <time>2026-05-11T11:55:10.000Z</time>
      </trkpt>
      <trkpt lat="45.33968" lon="4.50673">
        <ele>1242.4000244141</ele>
        <time>2026-05-11T11:55:11.000Z</time>
      </trkpt>
      <trkpt lat="45.33967" lon="4.50677">
        <ele>1242.5999755859</ele>
        <time>2026-05-11T11:55:12.000Z</time>
      </trkpt>
      <trkpt lat="45.33967" lon="4.5068">
        <ele>1242.8000488281</ele>
        <time>2026-05-11T11:55:13.000Z</time>
      </trkpt>
      <trkpt lat="45.33966" lon="4.50684">
        <ele>1243.1999511719</ele>
        <time>2026-05-11T11:55:14.000Z</time>
      </trkpt>
      <trkpt lat="45.33965" lon="4.50686">
        <ele>1243.5999755859</ele>
        <time>2026-05-11T11:55:15.000Z</time>
      </trkpt>
      <trkpt lat="45.33965" lon="4.50689">
        <ele>1243.8000488281</ele>
        <time>2026-05-11T11:55:16.000Z</time>
      </trkpt>
      <trkpt lat="45.33964" lon="4.50692">
        <ele>1244</ele>
        <time>2026-05-11T11:55:17.000Z</time>
      </trkpt>
      <trkpt lat="45.33964" lon="4.50696">
        <ele>1244.1999511719</ele>
        <time>2026-05-11T11:55:18.000Z</time>
      </trkpt>
      <trkpt lat="45.33964" lon="4.50699">
        <ele>1244.4000244141</ele>
        <time>2026-05-11T11:55:19.000Z</time>
      </trkpt>
      <trkpt lat="45.33964" lon="4.50702">
        <ele>1244.5999755859</ele>
        <time>2026-05-11T11:55:20.000Z</time>
      </trkpt>
      <trkpt lat="45.33964" lon="4.50705">
        <ele>1244.8000488281</ele>
        <time>2026-05-11T11:55:21.000Z</time>
      </trkpt>
      <trkpt lat="45.33964" lon="4.50708">
        <ele>1245</ele>
        <time>2026-05-11T11:55:22.000Z</time>
      </trkpt>
      <trkpt lat="45.33964" lon="4.5071">
        <ele>1245.4000244141</ele>
        <time>2026-05-11T11:55:23.000Z</time>
      </trkpt>
      <trkpt lat="45.33963" lon="4.50713">
        <ele>1245.8000488281</ele>
        <time>2026-05-11T11:55:24.000Z</time>
      </trkpt>
      <trkpt lat="45.33962" lon="4.50717">
        <ele>1246.1999511719</ele>
        <time>2026-05-11T11:55:25.000Z</time>
      </trkpt>
      <trkpt lat="45.33962" lon="4.5072">
        <ele>1246.5999755859</ele>
        <time>2026-05-11T11:55:26.000Z</time>
      </trkpt>
      <trkpt lat="45.33961" lon="4.50723">
        <ele>1247</ele>
        <time>2026-05-11T11:55:27.000Z</time>
      </trkpt>
      <trkpt lat="45.33961" lon="4.50725">
        <ele>1247.1999511719</ele>
        <time>2026-05-11T11:55:28.000Z</time>
      </trkpt>
      <trkpt lat="45.33961" lon="4.50728">
        <ele>1247.4000244141</ele>
        <time>2026-05-11T11:55:29.000Z</time>
      </trkpt>
      <trkpt lat="45.33961" lon="4.50731">
        <ele>1247.8000488281</ele>
        <time>2026-05-11T11:55:30.000Z</time>
      </trkpt>
      <trkpt lat="45.33961" lon="4.50734">
        <ele>1248</ele>
        <time>2026-05-11T11:55:31.000Z</time>
      </trkpt>
      <trkpt lat="45.33961" lon="4.50738">
        <ele>1248.1999511719</ele>
        <time>2026-05-11T11:55:32.000Z</time>
      </trkpt>
      <trkpt lat="45.33962" lon="4.50742">
        <ele>1248.4000244141</ele>
        <time>2026-05-11T11:55:33.000Z</time>
      </trkpt>
      <trkpt lat="45.33963" lon="4.50745">
        <ele>1248.4000244141</ele>
        <time>2026-05-11T11:55:34.000Z</time>
      </trkpt>
      <trkpt lat="45.33963" lon="4.50748">
        <ele>1248.5999755859</ele>
        <time>2026-05-11T11:55:35.000Z</time>
      </trkpt>
      <trkpt lat="45.33963" lon="4.50752">
        <ele>1248.8000488281</ele>
        <time>2026-05-11T11:55:36.000Z</time>
      </trkpt>
      <trkpt lat="45.33962" lon="4.50755">
        <ele>1249</ele>
        <time>2026-05-11T11:55:37.000Z</time>
      </trkpt>
      <trkpt lat="45.33963" lon="4.50758">
        <ele>1249.1999511719</ele>
        <time>2026-05-11T11:55:38.000Z</time>
      </trkpt>
      <trkpt lat="45.33963" lon="4.50761">
        <ele>1249.4000244141</ele>
        <time>2026-05-11T11:55:39.000Z</time>
      </trkpt>
      <trkpt lat="45.33964" lon="4.50765">
        <ele>1249.5999755859</ele>
        <time>2026-05-11T11:55:40.000Z</time>
      </trkpt>
      <trkpt lat="45.33964" lon="4.50768">
        <ele>1249.8000488281</ele>
        <time>2026-05-11T11:55:41.000Z</time>
      </trkpt>
      <trkpt lat="45.33965" lon="4.50772">
        <ele>1250</ele>
        <time>2026-05-11T11:55:42.000Z</time>
      </trkpt>
      <trkpt lat="45.33966" lon="4.50775">
        <ele>1250</ele>
        <time>2026-05-11T11:55:43.000Z</time>
      </trkpt>
      <trkpt lat="45.33966" lon="4.50778">
        <ele>1250.1999511719</ele>
        <time>2026-05-11T11:55:44.000Z</time>
      </trkpt>
      <trkpt lat="45.33967" lon="4.5078">
        <ele>1250.1999511719</ele>
        <time>2026-05-11T11:55:45.000Z</time>
      </trkpt>
      <trkpt lat="45.33968" lon="4.50782">
        <ele>1250.4000244141</ele>
        <time>2026-05-11T11:55:46.000Z</time>
      </trkpt>
      <trkpt lat="45.33968" lon="4.50785">
        <ele>1250.4000244141</ele>
        <time>2026-05-11T11:55:47.000Z</time>
      </trkpt>
      <trkpt lat="45.33969" lon="4.50788">
        <ele>1250.5999755859</ele>
        <time>2026-05-11T11:55:48.000Z</time>
      </trkpt>
      <trkpt lat="45.3397" lon="4.50791">
        <ele>1251</ele>
        <time>2026-05-11T11:55:49.000Z</time>
      </trkpt>
      <trkpt lat="45.3397" lon="4.50793">
        <ele>1251.1999511719</ele>
        <time>2026-05-11T11:55:50.000Z</time>
      </trkpt>
      <trkpt lat="45.33971" lon="4.50796">
        <ele>1251.5999755859</ele>
        <time>2026-05-11T11:55:51.000Z</time>
      </trkpt>
      <trkpt lat="45.33971" lon="4.50799">
        <ele>1251.8000488281</ele>
        <time>2026-05-11T11:55:52.000Z</time>
      </trkpt>
      <trkpt lat="45.33972" lon="4.50802">
        <ele>1252</ele>
        <time>2026-05-11T11:55:53.000Z</time>
      </trkpt>
      <trkpt lat="45.33973" lon="4.50805">
        <ele>1252.1999511719</ele>
        <time>2026-05-11T11:55:54.000Z</time>
      </trkpt>
      <trkpt lat="45.33974" lon="4.50808">
        <ele>1252.4000244141</ele>
        <time>2026-05-11T11:55:55.000Z</time>
      </trkpt>
      <trkpt lat="45.33975" lon="4.50812">
        <ele>1252.5999755859</ele>
        <time>2026-05-11T11:55:56.000Z</time>
      </trkpt>
      <trkpt lat="45.33976" lon="4.50815">
        <ele>1252.8000488281</ele>
        <time>2026-05-11T11:55:57.000Z</time>
      </trkpt>
      <trkpt lat="45.33977" lon="4.50818">
        <ele>1253</ele>
        <time>2026-05-11T11:55:58.000Z</time>
      </trkpt>
      <trkpt lat="45.33978" lon="4.50821">
        <ele>1253.1999511719</ele>
        <time>2026-05-11T11:55:59.000Z</time>
      </trkpt>
      <trkpt lat="45.33979" lon="4.50823">
        <ele>1253.1999511719</ele>
        <time>2026-05-11T11:56:00.000Z</time>
      </trkpt>
      <trkpt lat="45.3398" lon="4.50825">
        <ele>1253.1999511719</ele>
        <time>2026-05-11T11:56:01.000Z</time>
      </trkpt>
      <trkpt lat="45.33981" lon="4.50827">
        <ele>1253.1999511719</ele>
        <time>2026-05-11T11:56:02.000Z</time>
      </trkpt>
      <trkpt lat="45.33982" lon="4.5083">
        <ele>1253.1999511719</ele>
        <time>2026-05-11T11:56:03.000Z</time>
      </trkpt>
      <trkpt lat="45.33983" lon="4.50832">
        <ele>1253.4000244141</ele>
        <time>2026-05-11T11:56:04.000Z</time>
      </trkpt>
      <trkpt lat="45.33984" lon="4.50834">
        <ele>1253.5999755859</ele>
        <time>2026-05-11T11:56:05.000Z</time>
      </trkpt>
      <trkpt lat="45.33986" lon="4.50837">
        <ele>1253.8000488281</ele>
        <time>2026-05-11T11:56:06.000Z</time>
      </trkpt>
      <trkpt lat="45.33986" lon="4.5084">
        <ele>1254</ele>
        <time>2026-05-11T11:56:07.000Z</time>
      </trkpt>
      <trkpt lat="45.33987" lon="4.50843">
        <ele>1254.1999511719</ele>
        <time>2026-05-11T11:56:08.000Z</time>
      </trkpt>
      <trkpt lat="45.33987" lon="4.50846">
        <ele>1254.4000244141</ele>
        <time>2026-05-11T11:56:09.000Z</time>
      </trkpt>
      <trkpt lat="45.33988" lon="4.50849">
        <ele>1254.5999755859</ele>
        <time>2026-05-11T11:56:10.000Z</time>
      </trkpt>
      <trkpt lat="45.33988" lon="4.50851">
        <ele>1254.5999755859</ele>
        <time>2026-05-11T11:56:11.000Z</time>
      </trkpt>
      <trkpt lat="45.33988" lon="4.50854">
        <ele>1254.8000488281</ele>
        <time>2026-05-11T11:56:12.000Z</time>
      </trkpt>
      <trkpt lat="45.33988" lon="4.50857">
        <ele>1255</ele>
        <time>2026-05-11T11:56:13.000Z</time>
      </trkpt>
      <trkpt lat="45.33989" lon="4.5086">
        <ele>1255</ele>
        <time>2026-05-11T11:56:14.000Z</time>
      </trkpt>
      <trkpt lat="45.33989" lon="4.50863">
        <ele>1255</ele>
        <time>2026-05-11T11:56:15.000Z</time>
      </trkpt>
      <trkpt lat="45.33989" lon="4.50865">
        <ele>1255.1999511719</ele>
        <time>2026-05-11T11:56:16.000Z</time>
      </trkpt>
      <trkpt lat="45.3399" lon="4.50868">
        <ele>1255.1999511719</ele>
        <time>2026-05-11T11:56:17.000Z</time>
      </trkpt>
      <trkpt lat="45.3399" lon="4.5087">
        <ele>1255.4000244141</ele>
        <time>2026-05-11T11:56:18.000Z</time>
      </trkpt>
      <trkpt lat="45.3399" lon="4.50873">
        <ele>1255.5999755859</ele>
        <time>2026-05-11T11:56:19.000Z</time>
      </trkpt>
      <trkpt lat="45.3399" lon="4.50876">
        <ele>1256</ele>
        <time>2026-05-11T11:56:20.000Z</time>
      </trkpt>
      <trkpt lat="45.33991" lon="4.50879">
        <ele>1256</ele>
        <time>2026-05-11T11:56:21.000Z</time>
      </trkpt>
      <trkpt lat="45.33991" lon="4.50882">
        <ele>1256.1999511719</ele>
        <time>2026-05-11T11:56:22.000Z</time>
      </trkpt>
      <trkpt lat="45.33991" lon="4.50886">
        <ele>1256.1999511719</ele>
        <time>2026-05-11T11:56:23.000Z</time>
      </trkpt>
      <trkpt lat="45.33991" lon="4.50889">
        <ele>1256.4000244141</ele>
        <time>2026-05-11T11:56:24.000Z</time>
      </trkpt>
      <trkpt lat="45.33991" lon="4.50892">
        <ele>1256.4000244141</ele>
        <time>2026-05-11T11:56:25.000Z</time>
      </trkpt>
      <trkpt lat="45.33991" lon="4.50895">
        <ele>1256.8000488281</ele>
        <time>2026-05-11T11:56:26.000Z</time>
      </trkpt>
      <trkpt lat="45.33992" lon="4.50899">
        <ele>1257</ele>
        <time>2026-05-11T11:56:27.000Z</time>
      </trkpt>
      <trkpt lat="45.33992" lon="4.50902">
        <ele>1257.1999511719</ele>
        <time>2026-05-11T11:56:28.000Z</time>
      </trkpt>
      <trkpt lat="45.33993" lon="4.50905">
        <ele>1257.5999755859</ele>
        <time>2026-05-11T11:56:29.000Z</time>
      </trkpt>
      <trkpt lat="45.33993" lon="4.50908">
        <ele>1257.8000488281</ele>
        <time>2026-05-11T11:56:30.000Z</time>
      </trkpt>
      <trkpt lat="45.33994" lon="4.50911">
        <ele>1258</ele>
        <time>2026-05-11T11:56:31.000Z</time>
      </trkpt>
      <trkpt lat="45.33994" lon="4.50915">
        <ele>1258.1999511719</ele>
        <time>2026-05-11T11:56:32.000Z</time>
      </trkpt>
      <trkpt lat="45.33995" lon="4.50919">
        <ele>1258.4000244141</ele>
        <time>2026-05-11T11:56:33.000Z</time>
      </trkpt>
      <trkpt lat="45.33995" lon="4.50922">
        <ele>1258.5999755859</ele>
        <time>2026-05-11T11:56:34.000Z</time>
      </trkpt>
      <trkpt lat="45.33996" lon="4.50925">
        <ele>1258.8000488281</ele>
        <time>2026-05-11T11:56:35.000Z</time>
      </trkpt>
      <trkpt lat="45.33996" lon="4.50928">
        <ele>1259</ele>
        <time>2026-05-11T11:56:36.000Z</time>
      </trkpt>
      <trkpt lat="45.33997" lon="4.50931">
        <ele>1259.1999511719</ele>
        <time>2026-05-11T11:56:37.000Z</time>
      </trkpt>
      <trkpt lat="45.33997" lon="4.50933">
        <ele>1259.4000244141</ele>
        <time>2026-05-11T11:56:38.000Z</time>
      </trkpt>
      <trkpt lat="45.33998" lon="4.50936">
        <ele>1259.5999755859</ele>
        <time>2026-05-11T11:56:39.000Z</time>
      </trkpt>
      <trkpt lat="45.33999" lon="4.50939">
        <ele>1259.8000488281</ele>
        <time>2026-05-11T11:56:40.000Z</time>
      </trkpt>
      <trkpt lat="45.33999" lon="4.50942">
        <ele>1260</ele>
        <time>2026-05-11T11:56:41.000Z</time>
      </trkpt>
      <trkpt lat="45.34" lon="4.50945">
        <ele>1260</ele>
        <time>2026-05-11T11:56:42.000Z</time>
      </trkpt>
      <trkpt lat="45.34001" lon="4.50948">
        <ele>1260.1999511719</ele>
        <time>2026-05-11T11:56:43.000Z</time>
      </trkpt>
      <trkpt lat="45.34002" lon="4.50951">
        <ele>1260.4000244141</ele>
        <time>2026-05-11T11:56:44.000Z</time>
      </trkpt>
      <trkpt lat="45.34003" lon="4.50954">
        <ele>1260.4000244141</ele>
        <time>2026-05-11T11:56:45.000Z</time>
      </trkpt>
      <trkpt lat="45.34004" lon="4.50957">
        <ele>1260.5999755859</ele>
        <time>2026-05-11T11:56:46.000Z</time>
      </trkpt>
      <trkpt lat="45.34004" lon="4.5096">
        <ele>1260.5999755859</ele>
        <time>2026-05-11T11:56:47.000Z</time>
      </trkpt>
      <trkpt lat="45.34005" lon="4.50962">
        <ele>1260.8000488281</ele>
        <time>2026-05-11T11:56:48.000Z</time>
      </trkpt>
      <trkpt lat="45.34006" lon="4.50965">
        <ele>1261</ele>
        <time>2026-05-11T11:56:49.000Z</time>
      </trkpt>
      <trkpt lat="45.34007" lon="4.50967">
        <ele>1261</ele>
        <time>2026-05-11T11:56:50.000Z</time>
      </trkpt>
      <trkpt lat="45.34007" lon="4.5097">
        <ele>1261.1999511719</ele>
        <time>2026-05-11T11:56:51.000Z</time>
      </trkpt>
      <trkpt lat="45.34007" lon="4.50973">
        <ele>1261.4000244141</ele>
        <time>2026-05-11T11:56:52.000Z</time>
      </trkpt>
      <trkpt lat="45.34008" lon="4.50976">
        <ele>1261.5999755859</ele>
        <time>2026-05-11T11:56:53.000Z</time>
      </trkpt>
      <trkpt lat="45.34008" lon="4.50979">
        <ele>1261.5999755859</ele>
        <time>2026-05-11T11:56:54.000Z</time>
      </trkpt>
      <trkpt lat="45.34009" lon="4.50982">
        <ele>1261.8000488281</ele>
        <time>2026-05-11T11:56:55.000Z</time>
      </trkpt>
      <trkpt lat="45.3401" lon="4.50984">
        <ele>1261.8000488281</ele>
        <time>2026-05-11T11:56:56.000Z</time>
      </trkpt>
      <trkpt lat="45.34009" lon="4.50987">
        <ele>1262</ele>
        <time>2026-05-11T11:56:57.000Z</time>
      </trkpt>
      <trkpt lat="45.34009" lon="4.5099">
        <ele>1262.1999511719</ele>
        <time>2026-05-11T11:56:58.000Z</time>
      </trkpt>
      <trkpt lat="45.34009" lon="4.50993">
        <ele>1262.4000244141</ele>
        <time>2026-05-11T11:56:59.000Z</time>
      </trkpt>
      <trkpt lat="45.3401" lon="4.50997">
        <ele>1262.5999755859</ele>
        <time>2026-05-11T11:57:00.000Z</time>
      </trkpt>
      <trkpt lat="45.34011" lon="4.51">
        <ele>1262.5999755859</ele>
        <time>2026-05-11T11:57:01.000Z</time>
      </trkpt>
      <trkpt lat="45.34011" lon="4.51003">
        <ele>1262.8000488281</ele>
        <time>2026-05-11T11:57:02.000Z</time>
      </trkpt>
      <trkpt lat="45.34012" lon="4.51006">
        <ele>1263</ele>
        <time>2026-05-11T11:57:03.000Z</time>
      </trkpt>
      <trkpt lat="45.34013" lon="4.51008">
        <ele>1263.1999511719</ele>
        <time>2026-05-11T11:57:04.000Z</time>
      </trkpt>
      <trkpt lat="45.34013" lon="4.51011">
        <ele>1263.4000244141</ele>
        <time>2026-05-11T11:57:05.000Z</time>
      </trkpt>
      <trkpt lat="45.34013" lon="4.51014">
        <ele>1263.5999755859</ele>
        <time>2026-05-11T11:57:06.000Z</time>
      </trkpt>
      <trkpt lat="45.34013" lon="4.51017">
        <ele>1263.8000488281</ele>
        <time>2026-05-11T11:57:07.000Z</time>
      </trkpt>
      <trkpt lat="45.34013" lon="4.5102">
        <ele>1264</ele>
        <time>2026-05-11T11:57:08.000Z</time>
      </trkpt>
      <trkpt lat="45.34013" lon="4.51022">
        <ele>1264.1999511719</ele>
        <time>2026-05-11T11:57:09.000Z</time>
      </trkpt>
      <trkpt lat="45.34013" lon="4.51025">
        <ele>1264.4000244141</ele>
        <time>2026-05-11T11:57:10.000Z</time>
      </trkpt>
      <trkpt lat="45.34014" lon="4.51028">
        <ele>1264.5999755859</ele>
        <time>2026-05-11T11:57:11.000Z</time>
      </trkpt>
      <trkpt lat="45.34015" lon="4.51031">
        <ele>1264.5999755859</ele>
        <time>2026-05-11T11:57:12.000Z</time>
      </trkpt>
      <trkpt lat="45.34015" lon="4.51035">
        <ele>1264.5999755859</ele>
        <time>2026-05-11T11:57:13.000Z</time>
      </trkpt>
      <trkpt lat="45.34016" lon="4.51037">
        <ele>1264.8000488281</ele>
        <time>2026-05-11T11:57:14.000Z</time>
      </trkpt>
      <trkpt lat="45.34016" lon="4.5104">
        <ele>1264.8000488281</ele>
        <time>2026-05-11T11:57:15.000Z</time>
      </trkpt>
      <trkpt lat="45.34016" lon="4.51043">
        <ele>1265</ele>
        <time>2026-05-11T11:57:16.000Z</time>
      </trkpt>
      <trkpt lat="45.34016" lon="4.51045">
        <ele>1265.1999511719</ele>
        <time>2026-05-11T11:57:17.000Z</time>
      </trkpt>
      <trkpt lat="45.34018" lon="4.51048">
        <ele>1265.4000244141</ele>
        <time>2026-05-11T11:57:18.000Z</time>
      </trkpt>
      <trkpt lat="45.34019" lon="4.51051">
        <ele>1265.5999755859</ele>
        <time>2026-05-11T11:57:19.000Z</time>
      </trkpt>
      <trkpt lat="45.34019" lon="4.51053">
        <ele>1265.5999755859</ele>
        <time>2026-05-11T11:57:20.000Z</time>
      </trkpt>
      <trkpt lat="45.3402" lon="4.51056">
        <ele>1265.8000488281</ele>
        <time>2026-05-11T11:57:21.000Z</time>
      </trkpt>
      <trkpt lat="45.34021" lon="4.51059">
        <ele>1266</ele>
        <time>2026-05-11T11:57:22.000Z</time>
      </trkpt>
      <trkpt lat="45.34022" lon="4.51062">
        <ele>1266.1999511719</ele>
        <time>2026-05-11T11:57:23.000Z</time>
      </trkpt>
      <trkpt lat="45.34023" lon="4.51064">
        <ele>1266.1999511719</ele>
        <time>2026-05-11T11:57:24.000Z</time>
      </trkpt>
      <trkpt lat="45.34023" lon="4.51066">
        <ele>1266.4000244141</ele>
        <time>2026-05-11T11:57:25.000Z</time>
      </trkpt>
      <trkpt lat="45.34023" lon="4.51069">
        <ele>1266.4000244141</ele>
        <time>2026-05-11T11:57:26.000Z</time>
      </trkpt>
      <trkpt lat="45.34024" lon="4.51072">
        <ele>1266.5999755859</ele>
        <time>2026-05-11T11:57:27.000Z</time>
      </trkpt>
      <trkpt lat="45.34024" lon="4.51075">
        <ele>1266.8000488281</ele>
        <time>2026-05-11T11:57:28.000Z</time>
      </trkpt>
      <trkpt lat="45.34024" lon="4.51079">
        <ele>1267</ele>
        <time>2026-05-11T11:57:29.000Z</time>
      </trkpt>
      <trkpt lat="45.34024" lon="4.51082">
        <ele>1267.1999511719</ele>
        <time>2026-05-11T11:57:30.000Z</time>
      </trkpt>
      <trkpt lat="45.34025" lon="4.51086">
        <ele>1267.4000244141</ele>
        <time>2026-05-11T11:57:31.000Z</time>
      </trkpt>
      <trkpt lat="45.34025" lon="4.51089">
        <ele>1267.5999755859</ele>
        <time>2026-05-11T11:57:32.000Z</time>
      </trkpt>
      <trkpt lat="45.34025" lon="4.51092">
        <ele>1267.8000488281</ele>
        <time>2026-05-11T11:57:33.000Z</time>
      </trkpt>
      <trkpt lat="45.34026" lon="4.51095">
        <ele>1268</ele>
        <time>2026-05-11T11:57:34.000Z</time>
      </trkpt>
      <trkpt lat="45.34026" lon="4.51099">
        <ele>1268.1999511719</ele>
        <time>2026-05-11T11:57:35.000Z</time>
      </trkpt>
      <trkpt lat="45.34027" lon="4.51101">
        <ele>1268.4000244141</ele>
        <time>2026-05-11T11:57:36.000Z</time>
      </trkpt>
      <trkpt lat="45.34027" lon="4.51104">
        <ele>1268.5999755859</ele>
        <time>2026-05-11T11:57:37.000Z</time>
      </trkpt>
      <trkpt lat="45.34028" lon="4.51108">
        <ele>1268.8000488281</ele>
        <time>2026-05-11T11:57:38.000Z</time>
      </trkpt>
      <trkpt lat="45.34029" lon="4.51111">
        <ele>1268.8000488281</ele>
        <time>2026-05-11T11:57:39.000Z</time>
      </trkpt>
      <trkpt lat="45.34029" lon="4.51115">
        <ele>1269</ele>
        <time>2026-05-11T11:57:40.000Z</time>
      </trkpt>
      <trkpt lat="45.34029" lon="4.51119">
        <ele>1269</ele>
        <time>2026-05-11T11:57:41.000Z</time>
      </trkpt>
      <trkpt lat="45.3403" lon="4.51123">
        <ele>1269</ele>
        <time>2026-05-11T11:57:42.000Z</time>
      </trkpt>
      <trkpt lat="45.3403" lon="4.51126">
        <ele>1269</ele>
        <time>2026-05-11T11:57:43.000Z</time>
      </trkpt>
      <trkpt lat="45.3403" lon="4.5113">
        <ele>1269</ele>
        <time>2026-05-11T11:57:44.000Z</time>
      </trkpt>
      <trkpt lat="45.34031" lon="4.51132">
        <ele>1269</ele>
        <time>2026-05-11T11:57:45.000Z</time>
      </trkpt>
      <trkpt lat="45.34031" lon="4.51135">
        <ele>1269</ele>
        <time>2026-05-11T11:57:46.000Z</time>
      </trkpt>
      <trkpt lat="45.34032" lon="4.51138">
        <ele>1269.1999511719</ele>
        <time>2026-05-11T11:57:47.000Z</time>
      </trkpt>
      <trkpt lat="45.34031" lon="4.5114">
        <ele>1269.4000244141</ele>
        <time>2026-05-11T11:57:48.000Z</time>
      </trkpt>
      <trkpt lat="45.34031" lon="4.51144">
        <ele>1269.5999755859</ele>
        <time>2026-05-11T11:57:49.000Z</time>
      </trkpt>
      <trkpt lat="45.34032" lon="4.51147">
        <ele>1269.5999755859</ele>
        <time>2026-05-11T11:57:50.000Z</time>
      </trkpt>
      <trkpt lat="45.34032" lon="4.5115">
        <ele>1269.8000488281</ele>
        <time>2026-05-11T11:57:51.000Z</time>
      </trkpt>
      <trkpt lat="45.34032" lon="4.51154">
        <ele>1269.8000488281</ele>
        <time>2026-05-11T11:57:52.000Z</time>
      </trkpt>
      <trkpt lat="45.34032" lon="4.51159">
        <ele>1270</ele>
        <time>2026-05-11T11:57:53.000Z</time>
      </trkpt>
      <trkpt lat="45.34033" lon="4.51162">
        <ele>1270</ele>
        <time>2026-05-11T11:57:54.000Z</time>
      </trkpt>
      <trkpt lat="45.34033" lon="4.51166">
        <ele>1270</ele>
        <time>2026-05-11T11:57:55.000Z</time>
      </trkpt>
      <trkpt lat="45.34034" lon="4.5117">
        <ele>1270</ele>
        <time>2026-05-11T11:57:56.000Z</time>
      </trkpt>
      <trkpt lat="45.34035" lon="4.51172">
        <ele>1270</ele>
        <time>2026-05-11T11:57:57.000Z</time>
      </trkpt>
      <trkpt lat="45.34036" lon="4.51174">
        <ele>1270</ele>
        <time>2026-05-11T11:57:58.000Z</time>
      </trkpt>
      <trkpt lat="45.34037" lon="4.51175">
        <ele>1270</ele>
        <time>2026-05-11T11:57:59.000Z</time>
      </trkpt>
      <trkpt lat="45.34037" lon="4.51177">
        <ele>1270</ele>
        <time>2026-05-11T11:58:00.000Z</time>
      </trkpt>
      <trkpt lat="45.34038" lon="4.51179">
        <ele>1270</ele>
        <time>2026-05-11T11:58:01.000Z</time>
      </trkpt>
      <trkpt lat="45.34039" lon="4.51181">
        <ele>1270.1999511719</ele>
        <time>2026-05-11T11:58:02.000Z</time>
      </trkpt>
      <trkpt lat="45.3404" lon="4.51184">
        <ele>1270.1999511719</ele>
        <time>2026-05-11T11:58:03.000Z</time>
      </trkpt>
      <trkpt lat="45.34041" lon="4.51187">
        <ele>1270</ele>
        <time>2026-05-11T11:58:04.000Z</time>
      </trkpt>
      <trkpt lat="45.34043" lon="4.5119">
        <ele>1270</ele>
        <time>2026-05-11T11:58:05.000Z</time>
      </trkpt>
      <trkpt lat="45.34043" lon="4.51192">
        <ele>1270</ele>
        <time>2026-05-11T11:58:06.000Z</time>
      </trkpt>
      <trkpt lat="45.34045" lon="4.51195">
        <ele>1270</ele>
        <time>2026-05-11T11:58:07.000Z</time>
      </trkpt>
      <trkpt lat="45.34046" lon="4.51198">
        <ele>1269.8000488281</ele>
        <time>2026-05-11T11:58:08.000Z</time>
      </trkpt>
      <trkpt lat="45.34047" lon="4.51201">
        <ele>1269.8000488281</ele>
        <time>2026-05-11T11:58:09.000Z</time>
      </trkpt>
      <trkpt lat="45.34049" lon="4.51203">
        <ele>1269.5999755859</ele>
        <time>2026-05-11T11:58:10.000Z</time>
      </trkpt>
      <trkpt lat="45.3405" lon="4.51207">
        <ele>1269.5999755859</ele>
        <time>2026-05-11T11:58:11.000Z</time>
      </trkpt>
      <trkpt lat="45.34051" lon="4.5121">
        <ele>1269.4000244141</ele>
        <time>2026-05-11T11:58:12.000Z</time>
      </trkpt>
      <trkpt lat="45.34052" lon="4.51214">
        <ele>1269.1999511719</ele>
        <time>2026-05-11T11:58:13.000Z</time>
      </trkpt>
      <trkpt lat="45.34054" lon="4.51217">
        <ele>1269</ele>
        <time>2026-05-11T11:58:14.000Z</time>
      </trkpt>
      <trkpt lat="45.34054" lon="4.5122">
        <ele>1269</ele>
        <time>2026-05-11T11:58:15.000Z</time>
      </trkpt>
      <trkpt lat="45.34056" lon="4.51223">
        <ele>1268.8000488281</ele>
        <time>2026-05-11T11:58:16.000Z</time>
      </trkpt>
      <trkpt lat="45.34056" lon="4.51227">
        <ele>1268.5999755859</ele>
        <time>2026-05-11T11:58:17.000Z</time>
      </trkpt>
      <trkpt lat="45.34057" lon="4.5123">
        <ele>1268.4000244141</ele>
        <time>2026-05-11T11:58:18.000Z</time>
      </trkpt>
      <trkpt lat="45.34058" lon="4.51233">
        <ele>1268.1999511719</ele>
        <time>2026-05-11T11:58:19.000Z</time>
      </trkpt>
      <trkpt lat="45.34059" lon="4.51237">
        <ele>1268</ele>
        <time>2026-05-11T11:58:20.000Z</time>
      </trkpt>
      <trkpt lat="45.34061" lon="4.51241">
        <ele>1267.8000488281</ele>
        <time>2026-05-11T11:58:21.000Z</time>
      </trkpt>
      <trkpt lat="45.34062" lon="4.51246">
        <ele>1267.5999755859</ele>
        <time>2026-05-11T11:58:22.000Z</time>
      </trkpt>
      <trkpt lat="45.34064" lon="4.5125">
        <ele>1267.4000244141</ele>
        <time>2026-05-11T11:58:23.000Z</time>
      </trkpt>
      <trkpt lat="45.34067" lon="4.51255">
        <ele>1267.1999511719</ele>
        <time>2026-05-11T11:58:24.000Z</time>
      </trkpt>
      <trkpt lat="45.34068" lon="4.51259">
        <ele>1267</ele>
        <time>2026-05-11T11:58:25.000Z</time>
      </trkpt>
      <trkpt lat="45.3407" lon="4.51263">
        <ele>1266.8000488281</ele>
        <time>2026-05-11T11:58:26.000Z</time>
      </trkpt>
      <trkpt lat="45.34071" lon="4.51267">
        <ele>1266.4000244141</ele>
        <time>2026-05-11T11:58:27.000Z</time>
      </trkpt>
      <trkpt lat="45.34074" lon="4.5127">
        <ele>1266.1999511719</ele>
        <time>2026-05-11T11:58:28.000Z</time>
      </trkpt>
      <trkpt lat="45.34076" lon="4.51274">
        <ele>1266</ele>
        <time>2026-05-11T11:58:29.000Z</time>
      </trkpt>
      <trkpt lat="45.34078" lon="4.51278">
        <ele>1265.8000488281</ele>
        <time>2026-05-11T11:58:30.000Z</time>
      </trkpt>
      <trkpt lat="45.3408" lon="4.51283">
        <ele>1265.5999755859</ele>
        <time>2026-05-11T11:58:31.000Z</time>
      </trkpt>
      <trkpt lat="45.34082" lon="4.51287">
        <ele>1265.4000244141</ele>
        <time>2026-05-11T11:58:32.000Z</time>
      </trkpt>
      <trkpt lat="45.34085" lon="4.51292">
        <ele>1265.1999511719</ele>
        <time>2026-05-11T11:58:33.000Z</time>
      </trkpt>
      <trkpt lat="45.34087" lon="4.51297">
        <ele>1265.1999511719</ele>
        <time>2026-05-11T11:58:34.000Z</time>
      </trkpt>
      <trkpt lat="45.3409" lon="4.513">
        <ele>1265</ele>
        <time>2026-05-11T11:58:35.000Z</time>
      </trkpt>
      <trkpt lat="45.34092" lon="4.51304">
        <ele>1264.8000488281</ele>
        <time>2026-05-11T11:58:36.000Z</time>
      </trkpt>
      <trkpt lat="45.34095" lon="4.51308">
        <ele>1264.5999755859</ele>
        <time>2026-05-11T11:58:37.000Z</time>
      </trkpt>
      <trkpt lat="45.34097" lon="4.51311">
        <ele>1264.4000244141</ele>
        <time>2026-05-11T11:58:38.000Z</time>
      </trkpt>
      <trkpt lat="45.341" lon="4.51315">
        <ele>1264.1999511719</ele>
        <time>2026-05-11T11:58:39.000Z</time>
      </trkpt>
      <trkpt lat="45.34102" lon="4.51318">
        <ele>1264</ele>
        <time>2026-05-11T11:58:40.000Z</time>
      </trkpt>
      <trkpt lat="45.34104" lon="4.51322">
        <ele>1263.8000488281</ele>
        <time>2026-05-11T11:58:41.000Z</time>
      </trkpt>
      <trkpt lat="45.34106" lon="4.51327">
        <ele>1263.5999755859</ele>
        <time>2026-05-11T11:58:42.000Z</time>
      </trkpt>
      <trkpt lat="45.34108" lon="4.51332">
        <ele>1263.4000244141</ele>
        <time>2026-05-11T11:58:43.000Z</time>
      </trkpt>
      <trkpt lat="45.34111" lon="4.51337">
        <ele>1263.1999511719</ele>
        <time>2026-05-11T11:58:44.000Z</time>
      </trkpt>
      <trkpt lat="45.34113" lon="4.51343">
        <ele>1262.8000488281</ele>
        <time>2026-05-11T11:58:45.000Z</time>
      </trkpt>
      <trkpt lat="45.34115" lon="4.51348">
        <ele>1262.8000488281</ele>
        <time>2026-05-11T11:58:46.000Z</time>
      </trkpt>
      <trkpt lat="45.34117" lon="4.51353">
        <ele>1262.4000244141</ele>
        <time>2026-05-11T11:58:47.000Z</time>
      </trkpt>
      <trkpt lat="45.34119" lon="4.51358">
        <ele>1262</ele>
        <time>2026-05-11T11:58:48.000Z</time>
      </trkpt>
      <trkpt lat="45.34121" lon="4.51365">
        <ele>1261.8000488281</ele>
        <time>2026-05-11T11:58:49.000Z</time>
      </trkpt>
      <trkpt lat="45.34123" lon="4.51371">
        <ele>1261.4000244141</ele>
        <time>2026-05-11T11:58:50.000Z</time>
      </trkpt>
      <trkpt lat="45.34124" lon="4.51377">
        <ele>1261</ele>
        <time>2026-05-11T11:58:51.000Z</time>
      </trkpt>
      <trkpt lat="45.34127" lon="4.51383">
        <ele>1260.5999755859</ele>
        <time>2026-05-11T11:58:52.000Z</time>
      </trkpt>
      <trkpt lat="45.34129" lon="4.51388">
        <ele>1260.1999511719</ele>
        <time>2026-05-11T11:58:53.000Z</time>
      </trkpt>
      <trkpt lat="45.34132" lon="4.51393">
        <ele>1259.8000488281</ele>
        <time>2026-05-11T11:58:54.000Z</time>
      </trkpt>
      <trkpt lat="45.34136" lon="4.51397">
        <ele>1259.5999755859</ele>
        <time>2026-05-11T11:58:55.000Z</time>
      </trkpt>
      <trkpt lat="45.34139" lon="4.51401">
        <ele>1259.4000244141</ele>
        <time>2026-05-11T11:58:56.000Z</time>
      </trkpt>
      <trkpt lat="45.34142" lon="4.51406">
        <ele>1259.1999511719</ele>
        <time>2026-05-11T11:58:57.000Z</time>
      </trkpt>
      <trkpt lat="45.34144" lon="4.5141">
        <ele>1259.1999511719</ele>
        <time>2026-05-11T11:58:58.000Z</time>
      </trkpt>
      <trkpt lat="45.34146" lon="4.51414">
        <ele>1259</ele>
        <time>2026-05-11T11:58:59.000Z</time>
      </trkpt>
      <trkpt lat="45.34148" lon="4.51418">
        <ele>1258.5999755859</ele>
        <time>2026-05-11T11:59:00.000Z</time>
      </trkpt>
      <trkpt lat="45.3415" lon="4.51421">
        <ele>1258.1999511719</ele>
        <time>2026-05-11T11:59:01.000Z</time>
      </trkpt>
      <trkpt lat="45.34152" lon="4.51424">
        <ele>1258</ele>
        <time>2026-05-11T11:59:02.000Z</time>
      </trkpt>
      <trkpt lat="45.34153" lon="4.51427">
        <ele>1257.5999755859</ele>
        <time>2026-05-11T11:59:03.000Z</time>
      </trkpt>
      <trkpt lat="45.34155" lon="4.51429">
        <ele>1257.4000244141</ele>
        <time>2026-05-11T11:59:04.000Z</time>
      </trkpt>
      <trkpt lat="45.34156" lon="4.51432">
        <ele>1257.4000244141</ele>
        <time>2026-05-11T11:59:05.000Z</time>
      </trkpt>
      <trkpt lat="45.34156" lon="4.51435">
        <ele>1257.5999755859</ele>
        <time>2026-05-11T11:59:06.000Z</time>
      </trkpt>
      <trkpt lat="45.34157" lon="4.51439">
        <ele>1257.8000488281</ele>
        <time>2026-05-11T11:59:07.000Z</time>
      </trkpt>
      <trkpt lat="45.34157" lon="4.51442">
        <ele>1258</ele>
        <time>2026-05-11T11:59:08.000Z</time>
      </trkpt>
      <trkpt lat="45.34157" lon="4.51447">
        <ele>1258.1999511719</ele>
        <time>2026-05-11T11:59:09.000Z</time>
      </trkpt>
      <trkpt lat="45.34158" lon="4.51451">
        <ele>1258.4000244141</ele>
        <time>2026-05-11T11:59:10.000Z</time>
      </trkpt>
      <trkpt lat="45.34159" lon="4.51455">
        <ele>1258.4000244141</ele>
        <time>2026-05-11T11:59:11.000Z</time>
      </trkpt>
      <trkpt lat="45.3416" lon="4.51459">
        <ele>1258.5999755859</ele>
        <time>2026-05-11T11:59:12.000Z</time>
      </trkpt>
      <trkpt lat="45.3416" lon="4.51463">
        <ele>1258.5999755859</ele>
        <time>2026-05-11T11:59:13.000Z</time>
      </trkpt>
      <trkpt lat="45.3416" lon="4.51468">
        <ele>1258.8000488281</ele>
        <time>2026-05-11T11:59:14.000Z</time>
      </trkpt>
      <trkpt lat="45.3416" lon="4.51472">
        <ele>1258.8000488281</ele>
        <time>2026-05-11T11:59:15.000Z</time>
      </trkpt>
      <trkpt lat="45.3416" lon="4.51477">
        <ele>1259</ele>
        <time>2026-05-11T11:59:16.000Z</time>
      </trkpt>
      <trkpt lat="45.3416" lon="4.51482">
        <ele>1259</ele>
        <time>2026-05-11T11:59:17.000Z</time>
      </trkpt>
      <trkpt lat="45.34162" lon="4.51486">
        <ele>1259</ele>
        <time>2026-05-11T11:59:18.000Z</time>
      </trkpt>
      <trkpt lat="45.34163" lon="4.5149">
        <ele>1259.1999511719</ele>
        <time>2026-05-11T11:59:19.000Z</time>
      </trkpt>
      <trkpt lat="45.34164" lon="4.51494">
        <ele>1259.1999511719</ele>
        <time>2026-05-11T11:59:20.000Z</time>
      </trkpt>
      <trkpt lat="45.34166" lon="4.51498">
        <ele>1259.1999511719</ele>
        <time>2026-05-11T11:59:21.000Z</time>
      </trkpt>
      <trkpt lat="45.34167" lon="4.51502">
        <ele>1259.4000244141</ele>
        <time>2026-05-11T11:59:22.000Z</time>
      </trkpt>
      <trkpt lat="45.34168" lon="4.51505">
        <ele>1259.4000244141</ele>
        <time>2026-05-11T11:59:23.000Z</time>
      </trkpt>
      <trkpt lat="45.3417" lon="4.51508">
        <ele>1259.5999755859</ele>
        <time>2026-05-11T11:59:24.000Z</time>
      </trkpt>
      <trkpt lat="45.34172" lon="4.51511">
        <ele>1259.5999755859</ele>
        <time>2026-05-11T11:59:25.000Z</time>
      </trkpt>
      <trkpt lat="45.34173" lon="4.51514">
        <ele>1259.8000488281</ele>
        <time>2026-05-11T11:59:26.000Z</time>
      </trkpt>
      <trkpt lat="45.34175" lon="4.51516">
        <ele>1259.8000488281</ele>
        <time>2026-05-11T11:59:27.000Z</time>
      </trkpt>
      <trkpt lat="45.34176" lon="4.51519">
        <ele>1260</ele>
        <time>2026-05-11T11:59:28.000Z</time>
      </trkpt>
      <trkpt lat="45.34177" lon="4.51523">
        <ele>1260</ele>
        <time>2026-05-11T11:59:29.000Z</time>
      </trkpt>
      <trkpt lat="45.34179" lon="4.51527">
        <ele>1260</ele>
        <time>2026-05-11T11:59:30.000Z</time>
      </trkpt>
      <trkpt lat="45.3418" lon="4.51531">
        <ele>1260.1999511719</ele>
        <time>2026-05-11T11:59:31.000Z</time>
      </trkpt>
      <trkpt lat="45.34181" lon="4.51534">
        <ele>1260.1999511719</ele>
        <time>2026-05-11T11:59:32.000Z</time>
      </trkpt>
      <trkpt lat="45.34183" lon="4.51538">
        <ele>1260.1999511719</ele>
        <time>2026-05-11T11:59:33.000Z</time>
      </trkpt>
      <trkpt lat="45.34185" lon="4.51542">
        <ele>1260.1999511719</ele>
        <time>2026-05-11T11:59:34.000Z</time>
      </trkpt>
      <trkpt lat="45.34186" lon="4.51545">
        <ele>1260.4000244141</ele>
        <time>2026-05-11T11:59:35.000Z</time>
      </trkpt>
      <trkpt lat="45.34187" lon="4.51549">
        <ele>1260.4000244141</ele>
        <time>2026-05-11T11:59:36.000Z</time>
      </trkpt>
      <trkpt lat="45.34189" lon="4.51551">
        <ele>1260.5999755859</ele>
        <time>2026-05-11T11:59:37.000Z</time>
      </trkpt>
      <trkpt lat="45.3419" lon="4.51555">
        <ele>1260.5999755859</ele>
        <time>2026-05-11T11:59:38.000Z</time>
      </trkpt>
      <trkpt lat="45.34191" lon="4.51558">
        <ele>1260.8000488281</ele>
        <time>2026-05-11T11:59:39.000Z</time>
      </trkpt>
      <trkpt lat="45.34192" lon="4.51561">
        <ele>1260.8000488281</ele>
        <time>2026-05-11T11:59:40.000Z</time>
      </trkpt>
      <trkpt lat="45.34194" lon="4.51564">
        <ele>1261</ele>
        <time>2026-05-11T11:59:41.000Z</time>
      </trkpt>
      <trkpt lat="45.34195" lon="4.51568">
        <ele>1261.1999511719</ele>
        <time>2026-05-11T11:59:42.000Z</time>
      </trkpt>
      <trkpt lat="45.34196" lon="4.51571">
        <ele>1261.1999511719</ele>
        <time>2026-05-11T11:59:43.000Z</time>
      </trkpt>
      <trkpt lat="45.34197" lon="4.51575">
        <ele>1261.1999511719</ele>
        <time>2026-05-11T11:59:44.000Z</time>
      </trkpt>
      <trkpt lat="45.34198" lon="4.51579">
        <ele>1261.4000244141</ele>
        <time>2026-05-11T11:59:45.000Z</time>
      </trkpt>
      <trkpt lat="45.342" lon="4.51582">
        <ele>1261.4000244141</ele>
        <time>2026-05-11T11:59:46.000Z</time>
      </trkpt>
      <trkpt lat="45.34201" lon="4.51586">
        <ele>1261.4000244141</ele>
        <time>2026-05-11T11:59:47.000Z</time>
      </trkpt>
      <trkpt lat="45.34202" lon="4.51589">
        <ele>1261.5999755859</ele>
        <time>2026-05-11T11:59:48.000Z</time>
      </trkpt>
      <trkpt lat="45.34203" lon="4.51593">
        <ele>1261.8000488281</ele>
        <time>2026-05-11T11:59:49.000Z</time>
      </trkpt>
      <trkpt lat="45.34204" lon="4.51596">
        <ele>1262</ele>
        <time>2026-05-11T11:59:50.000Z</time>
      </trkpt>
      <trkpt lat="45.34205" lon="4.516">
        <ele>1262</ele>
        <time>2026-05-11T11:59:51.000Z</time>
      </trkpt>
      <trkpt lat="45.34207" lon="4.51603">
        <ele>1262.1999511719</ele>
        <time>2026-05-11T11:59:52.000Z</time>
      </trkpt>
      <trkpt lat="45.34208" lon="4.51607">
        <ele>1262.4000244141</ele>
        <time>2026-05-11T11:59:53.000Z</time>
      </trkpt>
      <trkpt lat="45.34209" lon="4.5161">
        <ele>1262.5999755859</ele>
        <time>2026-05-11T11:59:54.000Z</time>
      </trkpt>
      <trkpt lat="45.3421" lon="4.51614">
        <ele>1262.5999755859</ele>
        <time>2026-05-11T11:59:55.000Z</time>
      </trkpt>
      <trkpt lat="45.34211" lon="4.51618">
        <ele>1263</ele>
        <time>2026-05-11T11:59:56.000Z</time>
      </trkpt>
      <trkpt lat="45.34212" lon="4.51621">
        <ele>1263</ele>
        <time>2026-05-11T11:59:57.000Z</time>
      </trkpt>
      <trkpt lat="45.34213" lon="4.51625">
        <ele>1263.1999511719</ele>
        <time>2026-05-11T11:59:58.000Z</time>
      </trkpt>
      <trkpt lat="45.34214" lon="4.51628">
        <ele>1263.1999511719</ele>
        <time>2026-05-11T11:59:59.000Z</time>
      </trkpt>
      <trkpt lat="45.34215" lon="4.51632">
        <ele>1263.1999511719</ele>
        <time>2026-05-11T12:00:00.000Z</time>
      </trkpt>
      <trkpt lat="45.34216" lon="4.51635">
        <ele>1263.4000244141</ele>
        <time>2026-05-11T12:00:01.000Z</time>
      </trkpt>
      <trkpt lat="45.34217" lon="4.51639">
        <ele>1263.4000244141</ele>
        <time>2026-05-11T12:00:02.000Z</time>
      </trkpt>
      <trkpt lat="45.34218" lon="4.51643">
        <ele>1263.5999755859</ele>
        <time>2026-05-11T12:00:03.000Z</time>
      </trkpt>
      <trkpt lat="45.34219" lon="4.51648">
        <ele>1263.5999755859</ele>
        <time>2026-05-11T12:00:04.000Z</time>
      </trkpt>
      <trkpt lat="45.3422" lon="4.51652">
        <ele>1263.8000488281</ele>
        <time>2026-05-11T12:00:05.000Z</time>
      </trkpt>
      <trkpt lat="45.34221" lon="4.51655">
        <ele>1263.8000488281</ele>
        <time>2026-05-11T12:00:06.000Z</time>
      </trkpt>
      <trkpt lat="45.34222" lon="4.51659">
        <ele>1264</ele>
        <time>2026-05-11T12:00:07.000Z</time>
      </trkpt>
      <trkpt lat="45.34222" lon="4.51662">
        <ele>1264</ele>
        <time>2026-05-11T12:00:08.000Z</time>
      </trkpt>
      <trkpt lat="45.34223" lon="4.51666">
        <ele>1264</ele>
        <time>2026-05-11T12:00:09.000Z</time>
      </trkpt>
      <trkpt lat="45.34224" lon="4.5167">
        <ele>1264</ele>
        <time>2026-05-11T12:00:10.000Z</time>
      </trkpt>
      <trkpt lat="45.34224" lon="4.51674">
        <ele>1264</ele>
        <time>2026-05-11T12:00:11.000Z</time>
      </trkpt>
      <trkpt lat="45.34225" lon="4.51678">
        <ele>1264</ele>
        <time>2026-05-11T12:00:12.000Z</time>
      </trkpt>
      <trkpt lat="45.34226" lon="4.51682">
        <ele>1264</ele>
        <time>2026-05-11T12:00:13.000Z</time>
      </trkpt>
      <trkpt lat="45.34227" lon="4.51687">
        <ele>1263.8000488281</ele>
        <time>2026-05-11T12:00:14.000Z</time>
      </trkpt>
      <trkpt lat="45.34227" lon="4.51691">
        <ele>1263.8000488281</ele>
        <time>2026-05-11T12:00:15.000Z</time>
      </trkpt>
      <trkpt lat="45.34228" lon="4.51695">
        <ele>1263.8000488281</ele>
        <time>2026-05-11T12:00:16.000Z</time>
      </trkpt>
      <trkpt lat="45.34229" lon="4.51699">
        <ele>1264</ele>
        <time>2026-05-11T12:00:17.000Z</time>
      </trkpt>
      <trkpt lat="45.34229" lon="4.51704">
        <ele>1264</ele>
        <time>2026-05-11T12:00:18.000Z</time>
      </trkpt>
      <trkpt lat="45.3423" lon="4.51707">
        <ele>1264</ele>
        <time>2026-05-11T12:00:19.000Z</time>
      </trkpt>
      <trkpt lat="45.3423" lon="4.51711">
        <ele>1264.1999511719</ele>
        <time>2026-05-11T12:00:20.000Z</time>
      </trkpt>
      <trkpt lat="45.34231" lon="4.51714">
        <ele>1264.1999511719</ele>
        <time>2026-05-11T12:00:21.000Z</time>
      </trkpt>
      <trkpt lat="45.34231" lon="4.51717">
        <ele>1264.1999511719</ele>
        <time>2026-05-11T12:00:22.000Z</time>
      </trkpt>
      <trkpt lat="45.34231" lon="4.5172">
        <ele>1264.1999511719</ele>
        <time>2026-05-11T12:00:23.000Z</time>
      </trkpt>
      <trkpt lat="45.34231" lon="4.51722">
        <ele>1264</ele>
        <time>2026-05-11T12:00:24.000Z</time>
      </trkpt>
      <trkpt lat="45.34231" lon="4.51725">
        <ele>1264</ele>
        <time>2026-05-11T12:00:25.000Z</time>
      </trkpt>
      <trkpt lat="45.34231" lon="4.51727">
        <ele>1263.8000488281</ele>
        <time>2026-05-11T12:00:26.000Z</time>
      </trkpt>
      <trkpt lat="45.34231" lon="4.5173">
        <ele>1263.5999755859</ele>
        <time>2026-05-11T12:00:27.000Z</time>
      </trkpt>
      <trkpt lat="45.34231" lon="4.51733">
        <ele>1263.4000244141</ele>
        <time>2026-05-11T12:00:28.000Z</time>
      </trkpt>
      <trkpt lat="45.34232" lon="4.51737">
        <ele>1263.4000244141</ele>
        <time>2026-05-11T12:00:29.000Z</time>
      </trkpt>
      <trkpt lat="45.34232" lon="4.51739">
        <ele>1263.4000244141</ele>
        <time>2026-05-11T12:00:30.000Z</time>
      </trkpt>
      <trkpt lat="45.34233" lon="4.51743">
        <ele>1263.4000244141</ele>
        <time>2026-05-11T12:00:31.000Z</time>
      </trkpt>
      <trkpt lat="45.34233" lon="4.51746">
        <ele>1263.5999755859</ele>
        <time>2026-05-11T12:00:32.000Z</time>
      </trkpt>
      <trkpt lat="45.34234" lon="4.5175">
        <ele>1263.5999755859</ele>
        <time>2026-05-11T12:00:33.000Z</time>
      </trkpt>
      <trkpt lat="45.34234" lon="4.51753">
        <ele>1263.8000488281</ele>
        <time>2026-05-11T12:00:34.000Z</time>
      </trkpt>
      <trkpt lat="45.34235" lon="4.51756">
        <ele>1263.8000488281</ele>
        <time>2026-05-11T12:00:35.000Z</time>
      </trkpt>
      <trkpt lat="45.34235" lon="4.51758">
        <ele>1263.8000488281</ele>
        <time>2026-05-11T12:00:36.000Z</time>
      </trkpt>
      <trkpt lat="45.34236" lon="4.51761">
        <ele>1263.8000488281</ele>
        <time>2026-05-11T12:00:37.000Z</time>
      </trkpt>
      <trkpt lat="45.34236" lon="4.51764">
        <ele>1263.5999755859</ele>
        <time>2026-05-11T12:00:38.000Z</time>
      </trkpt>
      <trkpt lat="45.34236" lon="4.51766">
        <ele>1263.4000244141</ele>
        <time>2026-05-11T12:00:39.000Z</time>
      </trkpt>
      <trkpt lat="45.34236" lon="4.51769">
        <ele>1263.4000244141</ele>
        <time>2026-05-11T12:00:40.000Z</time>
      </trkpt>
      <trkpt lat="45.34236" lon="4.51772">
        <ele>1263.1999511719</ele>
        <time>2026-05-11T12:00:41.000Z</time>
      </trkpt>
      <trkpt lat="45.34237" lon="4.51774">
        <ele>1263</ele>
        <time>2026-05-11T12:00:42.000Z</time>
      </trkpt>
      <trkpt lat="45.34237" lon="4.51776">
        <ele>1262.8000488281</ele>
        <time>2026-05-11T12:00:43.000Z</time>
      </trkpt>
      <trkpt lat="45.34238" lon="4.51777">
        <ele>1262.8000488281</ele>
        <time>2026-05-11T12:00:44.000Z</time>
      </trkpt>
      <trkpt lat="45.3424" lon="4.51778">
        <ele>1262.8000488281</ele>
        <time>2026-05-11T12:00:45.000Z</time>
      </trkpt>
      <trkpt lat="45.34242" lon="4.51777">
        <ele>1262.8000488281</ele>
        <time>2026-05-11T12:00:46.000Z</time>
      </trkpt>
      <trkpt lat="45.34244" lon="4.51777">
        <ele>1262.8000488281</ele>
        <time>2026-05-11T12:00:47.000Z</time>
      </trkpt>
      <trkpt lat="45.34245" lon="4.51776">
        <ele>1262.8000488281</ele>
        <time>2026-05-11T12:00:48.000Z</time>
      </trkpt>
      <trkpt lat="45.34247" lon="4.51775">
        <ele>1262.8000488281</ele>
        <time>2026-05-11T12:00:49.000Z</time>
      </trkpt>
      <trkpt lat="45.34248" lon="4.51774">
        <ele>1262.5999755859</ele>
        <time>2026-05-11T12:00:50.000Z</time>
      </trkpt>
      <trkpt lat="45.34247" lon="4.51774">
        <ele>1262.5999755859</ele>
        <time>2026-05-11T12:00:51.000Z</time>
      </trkpt>
      <trkpt lat="45.34247" lon="4.51774">
        <ele>1262.5999755859</ele>
        <time>2026-05-11T12:00:52.000Z</time>
      </trkpt>
      <trkpt lat="45.34248" lon="4.5177">
        <ele>1261.8000488281</ele>
        <time>2026-05-11T12:02:23.000Z</time>
      </trkpt>
      <trkpt lat="45.3425" lon="4.51769">
        <ele>1261.5999755859</ele>
        <time>2026-05-11T12:02:24.000Z</time>
      </trkpt>
      <trkpt lat="45.34251" lon="4.51769">
        <ele>1261.5999755859</ele>
        <time>2026-05-11T12:02:25.000Z</time>
      </trkpt>
      <trkpt lat="45.34253" lon="4.51767">
        <ele>1261.5999755859</ele>
        <time>2026-05-11T12:02:26.000Z</time>
      </trkpt>
      <trkpt lat="45.34255" lon="4.51765">
        <ele>1261.5999755859</ele>
        <time>2026-05-11T12:02:27.000Z</time>
      </trkpt>
      <trkpt lat="45.34257" lon="4.51763">
        <ele>1261.5999755859</ele>
        <time>2026-05-11T12:02:28.000Z</time>
      </trkpt>
      <trkpt lat="45.34259" lon="4.51761">
        <ele>1261.5999755859</ele>
        <time>2026-05-11T12:02:29.000Z</time>
      </trkpt>
      <trkpt lat="45.34261" lon="4.5176">
        <ele>1261.5999755859</ele>
        <time>2026-05-11T12:02:30.000Z</time>
      </trkpt>
      <trkpt lat="45.34263" lon="4.51759">
        <ele>1261.5999755859</ele>
        <time>2026-05-11T12:02:31.000Z</time>
      </trkpt>
      <trkpt lat="45.34265" lon="4.51757">
        <ele>1261.5999755859</ele>
        <time>2026-05-11T12:02:32.000Z</time>
      </trkpt>
      <trkpt lat="45.34268" lon="4.51754">
        <ele>1261.8000488281</ele>
        <time>2026-05-11T12:02:33.000Z</time>
      </trkpt>
      <trkpt lat="45.3427" lon="4.51753">
        <ele>1261.8000488281</ele>
        <time>2026-05-11T12:02:34.000Z</time>
      </trkpt>
      <trkpt lat="45.34273" lon="4.51752">
        <ele>1261.8000488281</ele>
        <time>2026-05-11T12:02:35.000Z</time>
      </trkpt>
      <trkpt lat="45.34276" lon="4.51751">
        <ele>1261.8000488281</ele>
        <time>2026-05-11T12:02:36.000Z</time>
      </trkpt>
      <trkpt lat="45.34279" lon="4.5175">
        <ele>1261.8000488281</ele>
        <time>2026-05-11T12:02:37.000Z</time>
      </trkpt>
      <trkpt lat="45.34281" lon="4.51751">
        <ele>1261.5999755859</ele>
        <time>2026-05-11T12:02:38.000Z</time>
      </trkpt>
      <trkpt lat="45.34283" lon="4.5175">
        <ele>1261.5999755859</ele>
        <time>2026-05-11T12:02:39.000Z</time>
      </trkpt>
      <trkpt lat="45.34285" lon="4.51749">
        <ele>1261.4000244141</ele>
        <time>2026-05-11T12:02:40.000Z</time>
      </trkpt>
      <trkpt lat="45.34288" lon="4.51748">
        <ele>1261.4000244141</ele>
        <time>2026-05-11T12:02:41.000Z</time>
      </trkpt>
      <trkpt lat="45.3429" lon="4.51747">
        <ele>1261.4000244141</ele>
        <time>2026-05-11T12:02:42.000Z</time>
      </trkpt>
      <trkpt lat="45.34293" lon="4.51746">
        <ele>1261.4000244141</ele>
        <time>2026-05-11T12:02:43.000Z</time>
      </trkpt>
      <trkpt lat="45.34296" lon="4.51745">
        <ele>1261.4000244141</ele>
        <time>2026-05-11T12:02:44.000Z</time>
      </trkpt>
      <trkpt lat="45.34298" lon="4.51743">
        <ele>1261.5999755859</ele>
        <time>2026-05-11T12:02:45.000Z</time>
      </trkpt>
      <trkpt lat="45.34301" lon="4.5174">
        <ele>1261.5999755859</ele>
        <time>2026-05-11T12:02:46.000Z</time>
      </trkpt>
      <trkpt lat="45.34303" lon="4.51736">
        <ele>1261.8000488281</ele>
        <time>2026-05-11T12:02:47.000Z</time>
      </trkpt>
      <trkpt lat="45.34306" lon="4.51732">
        <ele>1262</ele>
        <time>2026-05-11T12:02:48.000Z</time>
      </trkpt>
      <trkpt lat="45.34308" lon="4.51728">
        <ele>1262</ele>
        <time>2026-05-11T12:02:49.000Z</time>
      </trkpt>
      <trkpt lat="45.34311" lon="4.51724">
        <ele>1262</ele>
        <time>2026-05-11T12:02:50.000Z</time>
      </trkpt>
      <trkpt lat="45.34314" lon="4.51721">
        <ele>1262</ele>
        <time>2026-05-11T12:02:51.000Z</time>
      </trkpt>
      <trkpt lat="45.34317" lon="4.51718">
        <ele>1261.8000488281</ele>
        <time>2026-05-11T12:02:52.000Z</time>
      </trkpt>
      <trkpt lat="45.3432" lon="4.51713">
        <ele>1261.5999755859</ele>
        <time>2026-05-11T12:02:53.000Z</time>
      </trkpt>
      <trkpt lat="45.34323" lon="4.5171">
        <ele>1261.4000244141</ele>
        <time>2026-05-11T12:02:54.000Z</time>
      </trkpt>
      <trkpt lat="45.34326" lon="4.51707">
        <ele>1261.1999511719</ele>
        <time>2026-05-11T12:02:55.000Z</time>
      </trkpt>
      <trkpt lat="45.34329" lon="4.51702">
        <ele>1261</ele>
        <time>2026-05-11T12:02:56.000Z</time>
      </trkpt>
      <trkpt lat="45.34333" lon="4.51698">
        <ele>1260.8000488281</ele>
        <time>2026-05-11T12:02:57.000Z</time>
      </trkpt>
      <trkpt lat="45.34336" lon="4.51693">
        <ele>1260.4000244141</ele>
        <time>2026-05-11T12:02:58.000Z</time>
      </trkpt>
      <trkpt lat="45.34339" lon="4.51689">
        <ele>1260.1999511719</ele>
        <time>2026-05-11T12:02:59.000Z</time>
      </trkpt>
      <trkpt lat="45.34342" lon="4.51684">
        <ele>1260</ele>
        <time>2026-05-11T12:03:00.000Z</time>
      </trkpt>
      <trkpt lat="45.34344" lon="4.5168">
        <ele>1259.8000488281</ele>
        <time>2026-05-11T12:03:01.000Z</time>
      </trkpt>
      <trkpt lat="45.34347" lon="4.51677">
        <ele>1259.5999755859</ele>
        <time>2026-05-11T12:03:02.000Z</time>
      </trkpt>
      <trkpt lat="45.34351" lon="4.51675">
        <ele>1259.4000244141</ele>
        <time>2026-05-11T12:03:03.000Z</time>
      </trkpt>
      <trkpt lat="45.34355" lon="4.51675">
        <ele>1259.4000244141</ele>
        <time>2026-05-11T12:03:04.000Z</time>
      </trkpt>
      <trkpt lat="45.34358" lon="4.51677">
        <ele>1259.1999511719</ele>
        <time>2026-05-11T12:03:05.000Z</time>
      </trkpt>
      <trkpt lat="45.3436" lon="4.5168">
        <ele>1259</ele>
        <time>2026-05-11T12:03:06.000Z</time>
      </trkpt>
      <trkpt lat="45.34362" lon="4.51683">
        <ele>1259</ele>
        <time>2026-05-11T12:03:07.000Z</time>
      </trkpt>
      <trkpt lat="45.34364" lon="4.51686">
        <ele>1259</ele>
        <time>2026-05-11T12:03:08.000Z</time>
      </trkpt>
      <trkpt lat="45.34365" lon="4.51689">
        <ele>1259</ele>
        <time>2026-05-11T12:03:09.000Z</time>
      </trkpt>
      <trkpt lat="45.34367" lon="4.51692">
        <ele>1259</ele>
        <time>2026-05-11T12:03:10.000Z</time>
      </trkpt>
      <trkpt lat="45.34369" lon="4.51695">
        <ele>1259.1999511719</ele>
        <time>2026-05-11T12:03:11.000Z</time>
      </trkpt>
      <trkpt lat="45.34371" lon="4.51699">
        <ele>1259.1999511719</ele>
        <time>2026-05-11T12:03:12.000Z</time>
      </trkpt>
      <trkpt lat="45.34373" lon="4.51702">
        <ele>1259.4000244141</ele>
        <time>2026-05-11T12:03:13.000Z</time>
      </trkpt>
      <trkpt lat="45.34376" lon="4.51705">
        <ele>1259.4000244141</ele>
        <time>2026-05-11T12:03:14.000Z</time>
      </trkpt>
      <trkpt lat="45.34378" lon="4.51708">
        <ele>1259.5999755859</ele>
        <time>2026-05-11T12:03:15.000Z</time>
      </trkpt>
      <trkpt lat="45.34381" lon="4.51711">
        <ele>1259.8000488281</ele>
        <time>2026-05-11T12:03:16.000Z</time>
      </trkpt>
      <trkpt lat="45.34384" lon="4.51714">
        <ele>1259.8000488281</ele>
        <time>2026-05-11T12:03:17.000Z</time>
      </trkpt>
      <trkpt lat="45.34386" lon="4.51717">
        <ele>1260</ele>
        <time>2026-05-11T12:03:18.000Z</time>
      </trkpt>
      <trkpt lat="45.34389" lon="4.5172">
        <ele>1260.1999511719</ele>
        <time>2026-05-11T12:03:19.000Z</time>
      </trkpt>
      <trkpt lat="45.34392" lon="4.51723">
        <ele>1260.1999511719</ele>
        <time>2026-05-11T12:03:20.000Z</time>
      </trkpt>
      <trkpt lat="45.34395" lon="4.51725">
        <ele>1260.4000244141</ele>
        <time>2026-05-11T12:03:21.000Z</time>
      </trkpt>
      <trkpt lat="45.34398" lon="4.51728">
        <ele>1260.4000244141</ele>
        <time>2026-05-11T12:03:22.000Z</time>
      </trkpt>
      <trkpt lat="45.344" lon="4.5173">
        <ele>1260.5999755859</ele>
        <time>2026-05-11T12:03:23.000Z</time>
      </trkpt>
      <trkpt lat="45.34403" lon="4.51731">
        <ele>1260.5999755859</ele>
        <time>2026-05-11T12:03:24.000Z</time>
      </trkpt>
      <trkpt lat="45.34406" lon="4.51733">
        <ele>1260.5999755859</ele>
        <time>2026-05-11T12:03:25.000Z</time>
      </trkpt>
      <trkpt lat="45.34409" lon="4.51734">
        <ele>1260.8000488281</ele>
        <time>2026-05-11T12:03:26.000Z</time>
      </trkpt>
      <trkpt lat="45.34412" lon="4.51735">
        <ele>1260.8000488281</ele>
        <time>2026-05-11T12:03:27.000Z</time>
      </trkpt>
      <trkpt lat="45.34415" lon="4.51736">
        <ele>1260.8000488281</ele>
        <time>2026-05-11T12:03:28.000Z</time>
      </trkpt>
      <trkpt lat="45.34418" lon="4.51737">
        <ele>1260.8000488281</ele>
        <time>2026-05-11T12:03:29.000Z</time>
      </trkpt>
      <trkpt lat="45.34421" lon="4.51739">
        <ele>1260.8000488281</ele>
        <time>2026-05-11T12:03:30.000Z</time>
      </trkpt>
      <trkpt lat="45.34425" lon="4.5174">
        <ele>1261</ele>
        <time>2026-05-11T12:03:31.000Z</time>
      </trkpt>
      <trkpt lat="45.34428" lon="4.51741">
        <ele>1261</ele>
        <time>2026-05-11T12:03:32.000Z</time>
      </trkpt>
      <trkpt lat="45.34431" lon="4.51743">
        <ele>1261</ele>
        <time>2026-05-11T12:03:33.000Z</time>
      </trkpt>
      <trkpt lat="45.34434" lon="4.51745">
        <ele>1261</ele>
        <time>2026-05-11T12:03:34.000Z</time>
      </trkpt>
      <trkpt lat="45.34438" lon="4.51747">
        <ele>1261.1999511719</ele>
        <time>2026-05-11T12:03:35.000Z</time>
      </trkpt>
      <trkpt lat="45.34441" lon="4.51749">
        <ele>1261.1999511719</ele>
        <time>2026-05-11T12:03:36.000Z</time>
      </trkpt>
      <trkpt lat="45.34444" lon="4.5175">
        <ele>1261.4000244141</ele>
        <time>2026-05-11T12:03:37.000Z</time>
      </trkpt>
      <trkpt lat="45.34447" lon="4.51753">
        <ele>1261.4000244141</ele>
        <time>2026-05-11T12:03:38.000Z</time>
      </trkpt>
      <trkpt lat="45.3445" lon="4.51754">
        <ele>1261.5999755859</ele>
        <time>2026-05-11T12:03:39.000Z</time>
      </trkpt>
      <trkpt lat="45.34454" lon="4.51757">
        <ele>1261.8000488281</ele>
        <time>2026-05-11T12:03:40.000Z</time>
      </trkpt>
      <trkpt lat="45.34456" lon="4.51758">
        <ele>1261.8000488281</ele>
        <time>2026-05-11T12:03:41.000Z</time>
      </trkpt>
      <trkpt lat="45.3446" lon="4.51761">
        <ele>1262</ele>
        <time>2026-05-11T12:03:42.000Z</time>
      </trkpt>
      <trkpt lat="45.34463" lon="4.51763">
        <ele>1262.1999511719</ele>
        <time>2026-05-11T12:03:43.000Z</time>
      </trkpt>
      <trkpt lat="45.34466" lon="4.51765">
        <ele>1262.1999511719</ele>
        <time>2026-05-11T12:03:44.000Z</time>
      </trkpt>
      <trkpt lat="45.3447" lon="4.51767">
        <ele>1262.4000244141</ele>
        <time>2026-05-11T12:03:45.000Z</time>
      </trkpt>
      <trkpt lat="45.34473" lon="4.5177">
        <ele>1262.5999755859</ele>
        <time>2026-05-11T12:03:46.000Z</time>
      </trkpt>
      <trkpt lat="45.34476" lon="4.51772">
        <ele>1262.5999755859</ele>
        <time>2026-05-11T12:03:47.000Z</time>
      </trkpt>
      <trkpt lat="45.34479" lon="4.51774">
        <ele>1262.8000488281</ele>
        <time>2026-05-11T12:03:48.000Z</time>
      </trkpt>
      <trkpt lat="45.34482" lon="4.51776">
        <ele>1262.8000488281</ele>
        <time>2026-05-11T12:03:49.000Z</time>
      </trkpt>
      <trkpt lat="45.34485" lon="4.51779">
        <ele>1262.8000488281</ele>
        <time>2026-05-11T12:03:50.000Z</time>
      </trkpt>
      <trkpt lat="45.34488" lon="4.51781">
        <ele>1263</ele>
        <time>2026-05-11T12:03:51.000Z</time>
      </trkpt>
      <trkpt lat="45.34491" lon="4.51782">
        <ele>1263</ele>
        <time>2026-05-11T12:03:52.000Z</time>
      </trkpt>
      <trkpt lat="45.34494" lon="4.51784">
        <ele>1263</ele>
        <time>2026-05-11T12:03:53.000Z</time>
      </trkpt>
      <trkpt lat="45.34496" lon="4.51786">
        <ele>1263</ele>
        <time>2026-05-11T12:03:54.000Z</time>
      </trkpt>
      <trkpt lat="45.34499" lon="4.51788">
        <ele>1263</ele>
        <time>2026-05-11T12:03:55.000Z</time>
      </trkpt>
      <trkpt lat="45.34502" lon="4.5179">
        <ele>1263</ele>
        <time>2026-05-11T12:03:56.000Z</time>
      </trkpt>
      <trkpt lat="45.34504" lon="4.51793">
        <ele>1263</ele>
        <time>2026-05-11T12:03:57.000Z</time>
      </trkpt>
      <trkpt lat="45.34507" lon="4.51795">
        <ele>1262.8000488281</ele>
        <time>2026-05-11T12:03:58.000Z</time>
      </trkpt>
      <trkpt lat="45.3451" lon="4.51798">
        <ele>1262.8000488281</ele>
        <time>2026-05-11T12:03:59.000Z</time>
      </trkpt>
      <trkpt lat="45.34513" lon="4.518">
        <ele>1262.8000488281</ele>
        <time>2026-05-11T12:04:00.000Z</time>
      </trkpt>
      <trkpt lat="45.34516" lon="4.51803">
        <ele>1262.5999755859</ele>
        <time>2026-05-11T12:04:01.000Z</time>
      </trkpt>
      <trkpt lat="45.34519" lon="4.51806">
        <ele>1262.5999755859</ele>
        <time>2026-05-11T12:04:02.000Z</time>
      </trkpt>
      <trkpt lat="45.34521" lon="4.51809">
        <ele>1262.4000244141</ele>
        <time>2026-05-11T12:04:03.000Z</time>
      </trkpt>
      <trkpt lat="45.34524" lon="4.51812">
        <ele>1262.4000244141</ele>
        <time>2026-05-11T12:04:04.000Z</time>
      </trkpt>
      <trkpt lat="45.34527" lon="4.51816">
        <ele>1262.4000244141</ele>
        <time>2026-05-11T12:04:05.000Z</time>
      </trkpt>
      <trkpt lat="45.3453" lon="4.51819">
        <ele>1262.4000244141</ele>
        <time>2026-05-11T12:04:06.000Z</time>
      </trkpt>
      <trkpt lat="45.34532" lon="4.51822">
        <ele>1262.1999511719</ele>
        <time>2026-05-11T12:04:07.000Z</time>
      </trkpt>
      <trkpt lat="45.34535" lon="4.51825">
        <ele>1262.1999511719</ele>
        <time>2026-05-11T12:04:08.000Z</time>
      </trkpt>
      <trkpt lat="45.34538" lon="4.51828">
        <ele>1262.1999511719</ele>
        <time>2026-05-11T12:04:09.000Z</time>
      </trkpt>
      <trkpt lat="45.3454" lon="4.51831">
        <ele>1262.1999511719</ele>
        <time>2026-05-11T12:04:10.000Z</time>
      </trkpt>
      <trkpt lat="45.34543" lon="4.51833">
        <ele>1262</ele>
        <time>2026-05-11T12:04:11.000Z</time>
      </trkpt>
      <trkpt lat="45.34546" lon="4.51836">
        <ele>1262</ele>
        <time>2026-05-11T12:04:12.000Z</time>
      </trkpt>
      <trkpt lat="45.34548" lon="4.51839">
        <ele>1262</ele>
        <time>2026-05-11T12:04:13.000Z</time>
      </trkpt>
      <trkpt lat="45.34551" lon="4.51842">
        <ele>1262</ele>
        <time>2026-05-11T12:04:14.000Z</time>
      </trkpt>
      <trkpt lat="45.34553" lon="4.51846">
        <ele>1261.8000488281</ele>
        <time>2026-05-11T12:04:15.000Z</time>
      </trkpt>
      <trkpt lat="45.34556" lon="4.51849">
        <ele>1261.8000488281</ele>
        <time>2026-05-11T12:04:16.000Z</time>
      </trkpt>
      <trkpt lat="45.34559" lon="4.51852">
        <ele>1261.8000488281</ele>
        <time>2026-05-11T12:04:17.000Z</time>
      </trkpt>
      <trkpt lat="45.34561" lon="4.51856">
        <ele>1261.5999755859</ele>
        <time>2026-05-11T12:04:18.000Z</time>
      </trkpt>
      <trkpt lat="45.34563" lon="4.5186">
        <ele>1261.5999755859</ele>
        <time>2026-05-11T12:04:19.000Z</time>
      </trkpt>
      <trkpt lat="45.34566" lon="4.51865">
        <ele>1261.4000244141</ele>
        <time>2026-05-11T12:04:20.000Z</time>
      </trkpt>
      <trkpt lat="45.34569" lon="4.51869">
        <ele>1261.1999511719</ele>
        <time>2026-05-11T12:04:21.000Z</time>
      </trkpt>
      <trkpt lat="45.34571" lon="4.51873">
        <ele>1261</ele>
        <time>2026-05-11T12:04:22.000Z</time>
      </trkpt>
      <trkpt lat="45.34574" lon="4.51878">
        <ele>1260.8000488281</ele>
        <time>2026-05-11T12:04:23.000Z</time>
      </trkpt>
      <trkpt lat="45.34576" lon="4.51883">
        <ele>1260.5999755859</ele>
        <time>2026-05-11T12:04:24.000Z</time>
      </trkpt>
      <trkpt lat="45.34578" lon="4.51888">
        <ele>1260.4000244141</ele>
        <time>2026-05-11T12:04:25.000Z</time>
      </trkpt>
      <trkpt lat="45.3458" lon="4.51893">
        <ele>1260.1999511719</ele>
        <time>2026-05-11T12:04:26.000Z</time>
      </trkpt>
      <trkpt lat="45.34582" lon="4.51898">
        <ele>1260</ele>
        <time>2026-05-11T12:04:27.000Z</time>
      </trkpt>
      <trkpt lat="45.34584" lon="4.51903">
        <ele>1259.5999755859</ele>
        <time>2026-05-11T12:04:28.000Z</time>
      </trkpt>
      <trkpt lat="45.34586" lon="4.51908">
        <ele>1259.4000244141</ele>
        <time>2026-05-11T12:04:29.000Z</time>
      </trkpt>
      <trkpt lat="45.34588" lon="4.51914">
        <ele>1259</ele>
        <time>2026-05-11T12:04:30.000Z</time>
      </trkpt>
      <trkpt lat="45.3459" lon="4.51918">
        <ele>1258.8000488281</ele>
        <time>2026-05-11T12:04:31.000Z</time>
      </trkpt>
      <trkpt lat="45.34591" lon="4.51923">
        <ele>1258.5999755859</ele>
        <time>2026-05-11T12:04:32.000Z</time>
      </trkpt>
      <trkpt lat="45.34593" lon="4.51928">
        <ele>1258.4000244141</ele>
        <time>2026-05-11T12:04:33.000Z</time>
      </trkpt>
      <trkpt lat="45.34595" lon="4.51933">
        <ele>1258.1999511719</ele>
        <time>2026-05-11T12:04:34.000Z</time>
      </trkpt>
      <trkpt lat="45.34597" lon="4.51937">
        <ele>1258</ele>
        <time>2026-05-11T12:04:35.000Z</time>
      </trkpt>
      <trkpt lat="45.34598" lon="4.51942">
        <ele>1257.8000488281</ele>
        <time>2026-05-11T12:04:36.000Z</time>
      </trkpt>
      <trkpt lat="45.346" lon="4.51946">
        <ele>1257.5999755859</ele>
        <time>2026-05-11T12:04:37.000Z</time>
      </trkpt>
      <trkpt lat="45.34601" lon="4.51951">
        <ele>1257.5999755859</ele>
        <time>2026-05-11T12:04:38.000Z</time>
      </trkpt>
      <trkpt lat="45.34602" lon="4.51955">
        <ele>1257.4000244141</ele>
        <time>2026-05-11T12:04:39.000Z</time>
      </trkpt>
      <trkpt lat="45.34603" lon="4.51958">
        <ele>1257.4000244141</ele>
        <time>2026-05-11T12:04:40.000Z</time>
      </trkpt>
      <trkpt lat="45.34604" lon="4.51962">
        <ele>1257.4000244141</ele>
        <time>2026-05-11T12:04:41.000Z</time>
      </trkpt>
      <trkpt lat="45.34606" lon="4.51966">
        <ele>1257.4000244141</ele>
        <time>2026-05-11T12:04:42.000Z</time>
      </trkpt>
      <trkpt lat="45.34607" lon="4.5197">
        <ele>1257.5999755859</ele>
        <time>2026-05-11T12:04:43.000Z</time>
      </trkpt>
      <trkpt lat="45.34608" lon="4.51974">
        <ele>1257.8000488281</ele>
        <time>2026-05-11T12:04:44.000Z</time>
      </trkpt>
      <trkpt lat="45.3461" lon="4.51978">
        <ele>1257.8000488281</ele>
        <time>2026-05-11T12:04:45.000Z</time>
      </trkpt>
      <trkpt lat="45.34613" lon="4.51982">
        <ele>1258</ele>
        <time>2026-05-11T12:04:46.000Z</time>
      </trkpt>
      <trkpt lat="45.34615" lon="4.51987">
        <ele>1258</ele>
        <time>2026-05-11T12:04:47.000Z</time>
      </trkpt>
      <trkpt lat="45.34618" lon="4.51992">
        <ele>1258</ele>
        <time>2026-05-11T12:04:48.000Z</time>
      </trkpt>
      <trkpt lat="45.34622" lon="4.51996">
        <ele>1258</ele>
        <time>2026-05-11T12:04:49.000Z</time>
      </trkpt>
      <trkpt lat="45.34626" lon="4.52">
        <ele>1257.8000488281</ele>
        <time>2026-05-11T12:04:50.000Z</time>
      </trkpt>
      <trkpt lat="45.3463" lon="4.52003">
        <ele>1257.8000488281</ele>
        <time>2026-05-11T12:04:51.000Z</time>
      </trkpt>
      <trkpt lat="45.34634" lon="4.52007">
        <ele>1257.5999755859</ele>
        <time>2026-05-11T12:04:52.000Z</time>
      </trkpt>
      <trkpt lat="45.34638" lon="4.5201">
        <ele>1257.5999755859</ele>
        <time>2026-05-11T12:04:53.000Z</time>
      </trkpt>
      <trkpt lat="45.34641" lon="4.52013">
        <ele>1257.4000244141</ele>
        <time>2026-05-11T12:04:54.000Z</time>
      </trkpt>
      <trkpt lat="45.34645" lon="4.52016">
        <ele>1257.1999511719</ele>
        <time>2026-05-11T12:04:55.000Z</time>
      </trkpt>
      <trkpt lat="45.3465" lon="4.52019">
        <ele>1256.8000488281</ele>
        <time>2026-05-11T12:04:56.000Z</time>
      </trkpt>
      <trkpt lat="45.34655" lon="4.52022">
        <ele>1256.5999755859</ele>
        <time>2026-05-11T12:04:57.000Z</time>
      </trkpt>
      <trkpt lat="45.34659" lon="4.52025">
        <ele>1256.1999511719</ele>
        <time>2026-05-11T12:04:58.000Z</time>
      </trkpt>
      <trkpt lat="45.34664" lon="4.52028">
        <ele>1255.8000488281</ele>
        <time>2026-05-11T12:04:59.000Z</time>
      </trkpt>
      <trkpt lat="45.34669" lon="4.52032">
        <ele>1255.4000244141</ele>
        <time>2026-05-11T12:05:00.000Z</time>
      </trkpt>
      <trkpt lat="45.34673" lon="4.52035">
        <ele>1254.8000488281</ele>
        <time>2026-05-11T12:05:01.000Z</time>
      </trkpt>
      <trkpt lat="45.34678" lon="4.52039">
        <ele>1254.4000244141</ele>
        <time>2026-05-11T12:05:02.000Z</time>
      </trkpt>
      <trkpt lat="45.34683" lon="4.52044">
        <ele>1254</ele>
        <time>2026-05-11T12:05:03.000Z</time>
      </trkpt>
      <trkpt lat="45.34688" lon="4.52048">
        <ele>1253.5999755859</ele>
        <time>2026-05-11T12:05:04.000Z</time>
      </trkpt>
      <trkpt lat="45.34694" lon="4.52052">
        <ele>1253.1999511719</ele>
        <time>2026-05-11T12:05:05.000Z</time>
      </trkpt>
      <trkpt lat="45.34698" lon="4.52056">
        <ele>1252.5999755859</ele>
        <time>2026-05-11T12:05:06.000Z</time>
      </trkpt>
      <trkpt lat="45.34704" lon="4.52061">
        <ele>1252.1999511719</ele>
        <time>2026-05-11T12:05:07.000Z</time>
      </trkpt>
      <trkpt lat="45.3471" lon="4.52065">
        <ele>1251.8000488281</ele>
        <time>2026-05-11T12:05:08.000Z</time>
      </trkpt>
      <trkpt lat="45.34716" lon="4.52069">
        <ele>1251.4000244141</ele>
        <time>2026-05-11T12:05:09.000Z</time>
      </trkpt>
      <trkpt lat="45.34722" lon="4.52074">
        <ele>1251</ele>
        <time>2026-05-11T12:05:10.000Z</time>
      </trkpt>
      <trkpt lat="45.34729" lon="4.52078">
        <ele>1250.5999755859</ele>
        <time>2026-05-11T12:05:11.000Z</time>
      </trkpt>
      <trkpt lat="45.34736" lon="4.52082">
        <ele>1250</ele>
        <time>2026-05-11T12:05:12.000Z</time>
      </trkpt>
      <trkpt lat="45.34743" lon="4.52087">
        <ele>1249.4000244141</ele>
        <time>2026-05-11T12:05:13.000Z</time>
      </trkpt>
      <trkpt lat="45.3475" lon="4.52091">
        <ele>1249</ele>
        <time>2026-05-11T12:05:14.000Z</time>
      </trkpt>
      <trkpt lat="45.34757" lon="4.52096">
        <ele>1248.5999755859</ele>
        <time>2026-05-11T12:05:15.000Z</time>
      </trkpt>
      <trkpt lat="45.34764" lon="4.521">
        <ele>1248.1999511719</ele>
        <time>2026-05-11T12:05:16.000Z</time>
      </trkpt>
      <trkpt lat="45.34771" lon="4.52104">
        <ele>1247.8000488281</ele>
        <time>2026-05-11T12:05:17.000Z</time>
      </trkpt>
      <trkpt lat="45.34777" lon="4.52108">
        <ele>1247.4000244141</ele>
        <time>2026-05-11T12:05:18.000Z</time>
      </trkpt>
      <trkpt lat="45.34783" lon="4.52112">
        <ele>1247.1999511719</ele>
        <time>2026-05-11T12:05:19.000Z</time>
      </trkpt>
      <trkpt lat="45.34788" lon="4.52117">
        <ele>1247</ele>
        <time>2026-05-11T12:05:20.000Z</time>
      </trkpt>
      <trkpt lat="45.34794" lon="4.52122">
        <ele>1246.8000488281</ele>
        <time>2026-05-11T12:05:21.000Z</time>
      </trkpt>
      <trkpt lat="45.348" lon="4.52126">
        <ele>1246.8000488281</ele>
        <time>2026-05-11T12:05:22.000Z</time>
      </trkpt>
      <trkpt lat="45.34806" lon="4.52131">
        <ele>1246.5999755859</ele>
        <time>2026-05-11T12:05:23.000Z</time>
      </trkpt>
      <trkpt lat="45.34812" lon="4.52134">
        <ele>1246.1999511719</ele>
        <time>2026-05-11T12:05:24.000Z</time>
      </trkpt>
      <trkpt lat="45.34819" lon="4.52138">
        <ele>1246</ele>
        <time>2026-05-11T12:05:25.000Z</time>
      </trkpt>
      <trkpt lat="45.34824" lon="4.5214">
        <ele>1245.8000488281</ele>
        <time>2026-05-11T12:05:26.000Z</time>
      </trkpt>
      <trkpt lat="45.34831" lon="4.52142">
        <ele>1245.5999755859</ele>
        <time>2026-05-11T12:05:27.000Z</time>
      </trkpt>
      <trkpt lat="45.34836" lon="4.52143">
        <ele>1245.4000244141</ele>
        <time>2026-05-11T12:05:28.000Z</time>
      </trkpt>
      <trkpt lat="45.34842" lon="4.52144">
        <ele>1245</ele>
        <time>2026-05-11T12:05:29.000Z</time>
      </trkpt>
      <trkpt lat="45.34849" lon="4.52145">
        <ele>1244.5999755859</ele>
        <time>2026-05-11T12:05:30.000Z</time>
      </trkpt>
      <trkpt lat="45.34855" lon="4.52145">
        <ele>1244.1999511719</ele>
        <time>2026-05-11T12:05:31.000Z</time>
      </trkpt>
      <trkpt lat="45.34861" lon="4.52145">
        <ele>1244</ele>
        <time>2026-05-11T12:05:32.000Z</time>
      </trkpt>
      <trkpt lat="45.34867" lon="4.52145">
        <ele>1243.5999755859</ele>
        <time>2026-05-11T12:05:33.000Z</time>
      </trkpt>
      <trkpt lat="45.34873" lon="4.52144">
        <ele>1243.4000244141</ele>
        <time>2026-05-11T12:05:34.000Z</time>
      </trkpt>
      <trkpt lat="45.34879" lon="4.52143">
        <ele>1243.1999511719</ele>
        <time>2026-05-11T12:05:35.000Z</time>
      </trkpt>
      <trkpt lat="45.34884" lon="4.52142">
        <ele>1243</ele>
        <time>2026-05-11T12:05:36.000Z</time>
      </trkpt>
      <trkpt lat="45.34889" lon="4.52141">
        <ele>1242.8000488281</ele>
        <time>2026-05-11T12:05:37.000Z</time>
      </trkpt>
      <trkpt lat="45.34894" lon="4.52141">
        <ele>1242.8000488281</ele>
        <time>2026-05-11T12:05:38.000Z</time>
      </trkpt>
      <trkpt lat="45.34898" lon="4.5214">
        <ele>1242.5999755859</ele>
        <time>2026-05-11T12:05:39.000Z</time>
      </trkpt>
      <trkpt lat="45.34903" lon="4.52139">
        <ele>1242.4000244141</ele>
        <time>2026-05-11T12:05:40.000Z</time>
      </trkpt>
      <trkpt lat="45.34906" lon="4.52137">
        <ele>1242.4000244141</ele>
        <time>2026-05-11T12:05:41.000Z</time>
      </trkpt>
      <trkpt lat="45.3491" lon="4.52137">
        <ele>1242.4000244141</ele>
        <time>2026-05-11T12:05:42.000Z</time>
      </trkpt>
      <trkpt lat="45.34914" lon="4.52136">
        <ele>1242.1999511719</ele>
        <time>2026-05-11T12:05:43.000Z</time>
      </trkpt>
      <trkpt lat="45.34918" lon="4.52136">
        <ele>1242.1999511719</ele>
        <time>2026-05-11T12:05:44.000Z</time>
      </trkpt>
      <trkpt lat="45.34921" lon="4.52135">
        <ele>1242.1999511719</ele>
        <time>2026-05-11T12:05:45.000Z</time>
      </trkpt>
      <trkpt lat="45.34925" lon="4.52134">
        <ele>1242.1999511719</ele>
        <time>2026-05-11T12:05:46.000Z</time>
      </trkpt>
      <trkpt lat="45.34928" lon="4.52133">
        <ele>1242.1999511719</ele>
        <time>2026-05-11T12:05:47.000Z</time>
      </trkpt>
      <trkpt lat="45.34932" lon="4.52131">
        <ele>1242</ele>
        <time>2026-05-11T12:05:48.000Z</time>
      </trkpt>
      <trkpt lat="45.34935" lon="4.52129">
        <ele>1242</ele>
        <time>2026-05-11T12:05:49.000Z</time>
      </trkpt>
      <trkpt lat="45.34939" lon="4.52127">
        <ele>1242.1999511719</ele>
        <time>2026-05-11T12:05:50.000Z</time>
      </trkpt>
      <trkpt lat="45.34943" lon="4.52125">
        <ele>1242</ele>
        <time>2026-05-11T12:05:51.000Z</time>
      </trkpt>
      <trkpt lat="45.34946" lon="4.52122">
        <ele>1242</ele>
        <time>2026-05-11T12:05:52.000Z</time>
      </trkpt>
      <trkpt lat="45.3495" lon="4.5212">
        <ele>1242</ele>
        <time>2026-05-11T12:05:53.000Z</time>
      </trkpt>
      <trkpt lat="45.34954" lon="4.52118">
        <ele>1242</ele>
        <time>2026-05-11T12:05:54.000Z</time>
      </trkpt>
      <trkpt lat="45.34957" lon="4.52116">
        <ele>1242</ele>
        <time>2026-05-11T12:05:55.000Z</time>
      </trkpt>
      <trkpt lat="45.3496" lon="4.52114">
        <ele>1242</ele>
        <time>2026-05-11T12:05:56.000Z</time>
      </trkpt>
      <trkpt lat="45.34963" lon="4.52111">
        <ele>1242</ele>
        <time>2026-05-11T12:05:57.000Z</time>
      </trkpt>
      <trkpt lat="45.34966" lon="4.52109">
        <ele>1242</ele>
        <time>2026-05-11T12:05:58.000Z</time>
      </trkpt>
      <trkpt lat="45.34969" lon="4.52107">
        <ele>1242</ele>
        <time>2026-05-11T12:05:59.000Z</time>
      </trkpt>
      <trkpt lat="45.34972" lon="4.52105">
        <ele>1242</ele>
        <time>2026-05-11T12:06:00.000Z</time>
      </trkpt>
      <trkpt lat="45.34976" lon="4.52103">
        <ele>1242</ele>
        <time>2026-05-11T12:06:01.000Z</time>
      </trkpt>
      <trkpt lat="45.34979" lon="4.52101">
        <ele>1242</ele>
        <time>2026-05-11T12:06:02.000Z</time>
      </trkpt>
      <trkpt lat="45.34982" lon="4.52099">
        <ele>1242</ele>
        <time>2026-05-11T12:06:03.000Z</time>
      </trkpt>
      <trkpt lat="45.34984" lon="4.52097">
        <ele>1242</ele>
        <time>2026-05-11T12:06:04.000Z</time>
      </trkpt>
      <trkpt lat="45.34987" lon="4.52095">
        <ele>1242</ele>
        <time>2026-05-11T12:06:05.000Z</time>
      </trkpt>
      <trkpt lat="45.3499" lon="4.52095">
        <ele>1242</ele>
        <time>2026-05-11T12:06:06.000Z</time>
      </trkpt>
      <trkpt lat="45.34993" lon="4.52094">
        <ele>1242</ele>
        <time>2026-05-11T12:06:07.000Z</time>
      </trkpt>
      <trkpt lat="45.34997" lon="4.52092">
        <ele>1242</ele>
        <time>2026-05-11T12:06:08.000Z</time>
      </trkpt>
      <trkpt lat="45.35" lon="4.5209">
        <ele>1242</ele>
        <time>2026-05-11T12:06:09.000Z</time>
      </trkpt>
      <trkpt lat="45.35004" lon="4.52089">
        <ele>1242</ele>
        <time>2026-05-11T12:06:10.000Z</time>
      </trkpt>
      <trkpt lat="45.35007" lon="4.52089">
        <ele>1242</ele>
        <time>2026-05-11T12:06:11.000Z</time>
      </trkpt>
      <trkpt lat="45.3501" lon="4.52087">
        <ele>1242.1999511719</ele>
        <time>2026-05-11T12:06:12.000Z</time>
      </trkpt>
      <trkpt lat="45.35013" lon="4.52086">
        <ele>1242.1999511719</ele>
        <time>2026-05-11T12:06:13.000Z</time>
      </trkpt>
      <trkpt lat="45.35016" lon="4.52085">
        <ele>1242.1999511719</ele>
        <time>2026-05-11T12:06:14.000Z</time>
      </trkpt>
      <trkpt lat="45.35019" lon="4.52085">
        <ele>1242.1999511719</ele>
        <time>2026-05-11T12:06:15.000Z</time>
      </trkpt>
      <trkpt lat="45.35022" lon="4.52084">
        <ele>1242.4000244141</ele>
        <time>2026-05-11T12:06:16.000Z</time>
      </trkpt>
      <trkpt lat="45.35025" lon="4.52084">
        <ele>1242.4000244141</ele>
        <time>2026-05-11T12:06:17.000Z</time>
      </trkpt>
      <trkpt lat="45.35029" lon="4.52083">
        <ele>1242.4000244141</ele>
        <time>2026-05-11T12:06:18.000Z</time>
      </trkpt>
      <trkpt lat="45.35032" lon="4.52082">
        <ele>1242.4000244141</ele>
        <time>2026-05-11T12:06:19.000Z</time>
      </trkpt>
      <trkpt lat="45.35035" lon="4.52081">
        <ele>1242.5999755859</ele>
        <time>2026-05-11T12:06:20.000Z</time>
      </trkpt>
      <trkpt lat="45.35038" lon="4.52079">
        <ele>1242.5999755859</ele>
        <time>2026-05-11T12:06:21.000Z</time>
      </trkpt>
      <trkpt lat="45.35042" lon="4.52078">
        <ele>1242.8000488281</ele>
        <time>2026-05-11T12:06:22.000Z</time>
      </trkpt>
      <trkpt lat="45.35045" lon="4.52077">
        <ele>1243.1999511719</ele>
        <time>2026-05-11T12:06:23.000Z</time>
      </trkpt>
      <trkpt lat="45.35048" lon="4.52077">
        <ele>1243.4000244141</ele>
        <time>2026-05-11T12:06:24.000Z</time>
      </trkpt>
      <trkpt lat="45.35051" lon="4.52076">
        <ele>1243.5999755859</ele>
        <time>2026-05-11T12:06:25.000Z</time>
      </trkpt>
      <trkpt lat="45.35054" lon="4.52076">
        <ele>1243.5999755859</ele>
        <time>2026-05-11T12:06:26.000Z</time>
      </trkpt>
      <trkpt lat="45.35058" lon="4.52075">
        <ele>1243.5999755859</ele>
        <time>2026-05-11T12:06:27.000Z</time>
      </trkpt>
      <trkpt lat="45.35061" lon="4.52074">
        <ele>1243.5999755859</ele>
        <time>2026-05-11T12:06:28.000Z</time>
      </trkpt>
      <trkpt lat="45.35064" lon="4.52074">
        <ele>1243.5999755859</ele>
        <time>2026-05-11T12:06:29.000Z</time>
      </trkpt>
      <trkpt lat="45.35068" lon="4.52074">
        <ele>1243.5999755859</ele>
        <time>2026-05-11T12:06:30.000Z</time>
      </trkpt>
      <trkpt lat="45.35072" lon="4.52074">
        <ele>1243.5999755859</ele>
        <time>2026-05-11T12:06:31.000Z</time>
      </trkpt>
      <trkpt lat="45.35076" lon="4.52074">
        <ele>1243.8000488281</ele>
        <time>2026-05-11T12:06:32.000Z</time>
      </trkpt>
      <trkpt lat="45.35079" lon="4.52074">
        <ele>1243.8000488281</ele>
        <time>2026-05-11T12:06:33.000Z</time>
      </trkpt>
      <trkpt lat="45.35082" lon="4.52073">
        <ele>1244</ele>
        <time>2026-05-11T12:06:34.000Z</time>
      </trkpt>
      <trkpt lat="45.35085" lon="4.52073">
        <ele>1244</ele>
        <time>2026-05-11T12:06:35.000Z</time>
      </trkpt>
      <trkpt lat="45.35088" lon="4.52073">
        <ele>1244</ele>
        <time>2026-05-11T12:06:36.000Z</time>
      </trkpt>
      <trkpt lat="45.35092" lon="4.52073">
        <ele>1244.1999511719</ele>
        <time>2026-05-11T12:06:37.000Z</time>
      </trkpt>
      <trkpt lat="45.35096" lon="4.52073">
        <ele>1244.1999511719</ele>
        <time>2026-05-11T12:06:38.000Z</time>
      </trkpt>
      <trkpt lat="45.351" lon="4.52073">
        <ele>1244.1999511719</ele>
        <time>2026-05-11T12:06:39.000Z</time>
      </trkpt>
      <trkpt lat="45.35103" lon="4.52073">
        <ele>1244.4000244141</ele>
        <time>2026-05-11T12:06:40.000Z</time>
      </trkpt>
      <trkpt lat="45.35106" lon="4.52073">
        <ele>1244.1999511719</ele>
        <time>2026-05-11T12:06:41.000Z</time>
      </trkpt>
      <trkpt lat="45.35109" lon="4.52073">
        <ele>1244.1999511719</ele>
        <time>2026-05-11T12:06:42.000Z</time>
      </trkpt>
      <trkpt lat="45.35112" lon="4.52073">
        <ele>1244.1999511719</ele>
        <time>2026-05-11T12:06:43.000Z</time>
      </trkpt>
      <trkpt lat="45.35116" lon="4.52074">
        <ele>1244.1999511719</ele>
        <time>2026-05-11T12:06:44.000Z</time>
      </trkpt>
      <trkpt lat="45.3512" lon="4.52075">
        <ele>1244.1999511719</ele>
        <time>2026-05-11T12:06:45.000Z</time>
      </trkpt>
      <trkpt lat="45.35124" lon="4.52076">
        <ele>1244.1999511719</ele>
        <time>2026-05-11T12:06:46.000Z</time>
      </trkpt>
      <trkpt lat="45.35128" lon="4.52078">
        <ele>1244.1999511719</ele>
        <time>2026-05-11T12:06:47.000Z</time>
      </trkpt>
      <trkpt lat="45.35131" lon="4.52079">
        <ele>1244.1999511719</ele>
        <time>2026-05-11T12:06:48.000Z</time>
      </trkpt>
      <trkpt lat="45.35135" lon="4.52079">
        <ele>1244.4000244141</ele>
        <time>2026-05-11T12:06:49.000Z</time>
      </trkpt>
      <trkpt lat="45.35139" lon="4.5208">
        <ele>1244.4000244141</ele>
        <time>2026-05-11T12:06:50.000Z</time>
      </trkpt>
      <trkpt lat="45.35142" lon="4.5208">
        <ele>1244.4000244141</ele>
        <time>2026-05-11T12:06:51.000Z</time>
      </trkpt>
      <trkpt lat="45.35146" lon="4.52081">
        <ele>1244.4000244141</ele>
        <time>2026-05-11T12:06:52.000Z</time>
      </trkpt>
      <trkpt lat="45.35149" lon="4.52081">
        <ele>1244.4000244141</ele>
        <time>2026-05-11T12:06:53.000Z</time>
      </trkpt>
      <trkpt lat="45.35152" lon="4.52082">
        <ele>1244.1999511719</ele>
        <time>2026-05-11T12:06:54.000Z</time>
      </trkpt>
      <trkpt lat="45.35155" lon="4.52082">
        <ele>1244.1999511719</ele>
        <time>2026-05-11T12:06:55.000Z</time>
      </trkpt>
      <trkpt lat="45.35159" lon="4.52083">
        <ele>1244.1999511719</ele>
        <time>2026-05-11T12:06:56.000Z</time>
      </trkpt>
      <trkpt lat="45.35162" lon="4.52083">
        <ele>1244.1999511719</ele>
        <time>2026-05-11T12:06:57.000Z</time>
      </trkpt>
      <trkpt lat="45.35165" lon="4.52084">
        <ele>1244.1999511719</ele>
        <time>2026-05-11T12:06:58.000Z</time>
      </trkpt>
      <trkpt lat="45.35167" lon="4.52085">
        <ele>1244.4000244141</ele>
        <time>2026-05-11T12:06:59.000Z</time>
      </trkpt>
      <trkpt lat="45.3517" lon="4.52086">
        <ele>1244.4000244141</ele>
        <time>2026-05-11T12:07:00.000Z</time>
      </trkpt>
      <trkpt lat="45.35174" lon="4.52087">
        <ele>1244.5999755859</ele>
        <time>2026-05-11T12:07:01.000Z</time>
      </trkpt>
      <trkpt lat="45.35177" lon="4.52088">
        <ele>1244.8000488281</ele>
        <time>2026-05-11T12:07:02.000Z</time>
      </trkpt>
      <trkpt lat="45.35181" lon="4.5209">
        <ele>1245</ele>
        <time>2026-05-11T12:07:03.000Z</time>
      </trkpt>
      <trkpt lat="45.35185" lon="4.52093">
        <ele>1245.1999511719</ele>
        <time>2026-05-11T12:07:04.000Z</time>
      </trkpt>
      <trkpt lat="45.35189" lon="4.52095">
        <ele>1245.4000244141</ele>
        <time>2026-05-11T12:07:05.000Z</time>
      </trkpt>
      <trkpt lat="45.35191" lon="4.52097">
        <ele>1245.5999755859</ele>
        <time>2026-05-11T12:07:06.000Z</time>
      </trkpt>
      <trkpt lat="45.35194" lon="4.52098">
        <ele>1245.8000488281</ele>
        <time>2026-05-11T12:07:07.000Z</time>
      </trkpt>
      <trkpt lat="45.35197" lon="4.52099">
        <ele>1246</ele>
        <time>2026-05-11T12:07:08.000Z</time>
      </trkpt>
      <trkpt lat="45.352" lon="4.521">
        <ele>1246.1999511719</ele>
        <time>2026-05-11T12:07:09.000Z</time>
      </trkpt>
      <trkpt lat="45.35204" lon="4.52102">
        <ele>1246.4000244141</ele>
        <time>2026-05-11T12:07:10.000Z</time>
      </trkpt>
      <trkpt lat="45.35207" lon="4.52105">
        <ele>1246.4000244141</ele>
        <time>2026-05-11T12:07:11.000Z</time>
      </trkpt>
      <trkpt lat="45.3521" lon="4.52107">
        <ele>1246.5999755859</ele>
        <time>2026-05-11T12:07:12.000Z</time>
      </trkpt>
      <trkpt lat="45.35213" lon="4.52108">
        <ele>1246.5999755859</ele>
        <time>2026-05-11T12:07:13.000Z</time>
      </trkpt>
      <trkpt lat="45.35216" lon="4.52109">
        <ele>1246.5999755859</ele>
        <time>2026-05-11T12:07:14.000Z</time>
      </trkpt>
      <trkpt lat="45.35219" lon="4.52111">
        <ele>1246.5999755859</ele>
        <time>2026-05-11T12:07:15.000Z</time>
      </trkpt>
      <trkpt lat="45.35222" lon="4.52114">
        <ele>1246.5999755859</ele>
        <time>2026-05-11T12:07:16.000Z</time>
      </trkpt>
      <trkpt lat="45.35225" lon="4.52116">
        <ele>1246.5999755859</ele>
        <time>2026-05-11T12:07:17.000Z</time>
      </trkpt>
      <trkpt lat="45.35228" lon="4.52118">
        <ele>1246.5999755859</ele>
        <time>2026-05-11T12:07:18.000Z</time>
      </trkpt>
      <trkpt lat="45.35231" lon="4.52119">
        <ele>1246.8000488281</ele>
        <time>2026-05-11T12:07:19.000Z</time>
      </trkpt>
      <trkpt lat="45.35234" lon="4.52121">
        <ele>1246.8000488281</ele>
        <time>2026-05-11T12:07:20.000Z</time>
      </trkpt>
      <trkpt lat="45.35237" lon="4.52123">
        <ele>1247</ele>
        <time>2026-05-11T12:07:21.000Z</time>
      </trkpt>
      <trkpt lat="45.35239" lon="4.52124">
        <ele>1247</ele>
        <time>2026-05-11T12:07:22.000Z</time>
      </trkpt>
      <trkpt lat="45.35242" lon="4.52125">
        <ele>1247.1999511719</ele>
        <time>2026-05-11T12:07:23.000Z</time>
      </trkpt>
      <trkpt lat="45.35246" lon="4.52125">
        <ele>1247</ele>
        <time>2026-05-11T12:07:24.000Z</time>
      </trkpt>
      <trkpt lat="45.35249" lon="4.52125">
        <ele>1247</ele>
        <time>2026-05-11T12:07:25.000Z</time>
      </trkpt>
      <trkpt lat="45.35252" lon="4.52126">
        <ele>1246.8000488281</ele>
        <time>2026-05-11T12:07:26.000Z</time>
      </trkpt>
      <trkpt lat="45.35255" lon="4.52126">
        <ele>1246.8000488281</ele>
        <time>2026-05-11T12:07:27.000Z</time>
      </trkpt>
      <trkpt lat="45.35258" lon="4.52126">
        <ele>1246.4000244141</ele>
        <time>2026-05-11T12:07:28.000Z</time>
      </trkpt>
      <trkpt lat="45.35262" lon="4.52127">
        <ele>1246.1999511719</ele>
        <time>2026-05-11T12:07:29.000Z</time>
      </trkpt>
      <trkpt lat="45.35266" lon="4.52127">
        <ele>1246</ele>
        <time>2026-05-11T12:07:30.000Z</time>
      </trkpt>
      <trkpt lat="45.3527" lon="4.52127">
        <ele>1245.8000488281</ele>
        <time>2026-05-11T12:07:31.000Z</time>
      </trkpt>
      <trkpt lat="45.35275" lon="4.52126">
        <ele>1245.5999755859</ele>
        <time>2026-05-11T12:07:32.000Z</time>
      </trkpt>
      <trkpt lat="45.3528" lon="4.52124">
        <ele>1245.4000244141</ele>
        <time>2026-05-11T12:07:33.000Z</time>
      </trkpt>
      <trkpt lat="45.35284" lon="4.52122">
        <ele>1245</ele>
        <time>2026-05-11T12:07:34.000Z</time>
      </trkpt>
      <trkpt lat="45.35289" lon="4.52119">
        <ele>1244.8000488281</ele>
        <time>2026-05-11T12:07:35.000Z</time>
      </trkpt>
      <trkpt lat="45.35294" lon="4.52116">
        <ele>1244.5999755859</ele>
        <time>2026-05-11T12:07:36.000Z</time>
      </trkpt>
      <trkpt lat="45.35299" lon="4.52113">
        <ele>1244.5999755859</ele>
        <time>2026-05-11T12:07:37.000Z</time>
      </trkpt>
      <trkpt lat="45.35303" lon="4.52109">
        <ele>1244.4000244141</ele>
        <time>2026-05-11T12:07:38.000Z</time>
      </trkpt>
      <trkpt lat="45.35309" lon="4.52106">
        <ele>1244.4000244141</ele>
        <time>2026-05-11T12:07:39.000Z</time>
      </trkpt>
      <trkpt lat="45.35315" lon="4.52102">
        <ele>1244.1999511719</ele>
        <time>2026-05-11T12:07:40.000Z</time>
      </trkpt>
      <trkpt lat="45.35321" lon="4.52097">
        <ele>1244</ele>
        <time>2026-05-11T12:07:41.000Z</time>
      </trkpt>
      <trkpt lat="45.35327" lon="4.52093">
        <ele>1244</ele>
        <time>2026-05-11T12:07:42.000Z</time>
      </trkpt>
      <trkpt lat="45.35333" lon="4.52088">
        <ele>1243.8000488281</ele>
        <time>2026-05-11T12:07:43.000Z</time>
      </trkpt>
      <trkpt lat="45.35339" lon="4.52082">
        <ele>1243.5999755859</ele>
        <time>2026-05-11T12:07:44.000Z</time>
      </trkpt>
      <trkpt lat="45.35344" lon="4.52076">
        <ele>1243.4000244141</ele>
        <time>2026-05-11T12:07:45.000Z</time>
      </trkpt>
      <trkpt lat="45.35348" lon="4.52069">
        <ele>1243.1999511719</ele>
        <time>2026-05-11T12:07:46.000Z</time>
      </trkpt>
      <trkpt lat="45.35353" lon="4.52064">
        <ele>1242.8000488281</ele>
        <time>2026-05-11T12:07:47.000Z</time>
      </trkpt>
      <trkpt lat="45.35357" lon="4.52059">
        <ele>1242.8000488281</ele>
        <time>2026-05-11T12:07:48.000Z</time>
      </trkpt>
      <trkpt lat="45.35361" lon="4.52054">
        <ele>1242.5999755859</ele>
        <time>2026-05-11T12:07:49.000Z</time>
      </trkpt>
      <trkpt lat="45.35365" lon="4.52048">
        <ele>1242.5999755859</ele>
        <time>2026-05-11T12:07:50.000Z</time>
      </trkpt>
      <trkpt lat="45.35369" lon="4.52044">
        <ele>1242.5999755859</ele>
        <time>2026-05-11T12:07:51.000Z</time>
      </trkpt>
      <trkpt lat="45.35374" lon="4.5204">
        <ele>1242.5999755859</ele>
        <time>2026-05-11T12:07:52.000Z</time>
      </trkpt>
      <trkpt lat="45.35378" lon="4.52035">
        <ele>1242.5999755859</ele>
        <time>2026-05-11T12:07:53.000Z</time>
      </trkpt>
      <trkpt lat="45.35381" lon="4.5203">
        <ele>1242.5999755859</ele>
        <time>2026-05-11T12:07:54.000Z</time>
      </trkpt>
      <trkpt lat="45.35385" lon="4.52026">
        <ele>1242.5999755859</ele>
        <time>2026-05-11T12:07:55.000Z</time>
      </trkpt>
      <trkpt lat="45.35388" lon="4.52022">
        <ele>1242.5999755859</ele>
        <time>2026-05-11T12:07:56.000Z</time>
      </trkpt>
      <trkpt lat="45.35392" lon="4.52019">
        <ele>1242.5999755859</ele>
        <time>2026-05-11T12:07:57.000Z</time>
      </trkpt>
      <trkpt lat="45.35395" lon="4.52013">
        <ele>1242.4000244141</ele>
        <time>2026-05-11T12:07:58.000Z</time>
      </trkpt>
      <trkpt lat="45.35399" lon="4.52008">
        <ele>1242.4000244141</ele>
        <time>2026-05-11T12:07:59.000Z</time>
      </trkpt>
      <trkpt lat="45.35403" lon="4.52001">
        <ele>1242.1999511719</ele>
        <time>2026-05-11T12:08:00.000Z</time>
      </trkpt>
      <trkpt lat="45.35407" lon="4.51995">
        <ele>1242</ele>
        <time>2026-05-11T12:08:01.000Z</time>
      </trkpt>
      <trkpt lat="45.35411" lon="4.51988">
        <ele>1241.8000488281</ele>
        <time>2026-05-11T12:08:02.000Z</time>
      </trkpt>
      <trkpt lat="45.35416" lon="4.51981">
        <ele>1241.5999755859</ele>
        <time>2026-05-11T12:08:03.000Z</time>
      </trkpt>
      <trkpt lat="45.3542" lon="4.51975">
        <ele>1241.1999511719</ele>
        <time>2026-05-11T12:08:04.000Z</time>
      </trkpt>
      <trkpt lat="45.35425" lon="4.51968">
        <ele>1240.8000488281</ele>
        <time>2026-05-11T12:08:05.000Z</time>
      </trkpt>
      <trkpt lat="45.35429" lon="4.51963">
        <ele>1240.4000244141</ele>
        <time>2026-05-11T12:08:06.000Z</time>
      </trkpt>
      <trkpt lat="45.35433" lon="4.51957">
        <ele>1240</ele>
        <time>2026-05-11T12:08:07.000Z</time>
      </trkpt>
      <trkpt lat="45.35438" lon="4.51951">
        <ele>1239.5999755859</ele>
        <time>2026-05-11T12:08:08.000Z</time>
      </trkpt>
      <trkpt lat="45.35442" lon="4.51944">
        <ele>1239.1999511719</ele>
        <time>2026-05-11T12:08:09.000Z</time>
      </trkpt>
      <trkpt lat="45.35446" lon="4.51937">
        <ele>1238.8000488281</ele>
        <time>2026-05-11T12:08:10.000Z</time>
      </trkpt>
      <trkpt lat="45.35451" lon="4.5193">
        <ele>1238.4000244141</ele>
        <time>2026-05-11T12:08:11.000Z</time>
      </trkpt>
      <trkpt lat="45.35456" lon="4.51924">
        <ele>1238</ele>
        <time>2026-05-11T12:08:12.000Z</time>
      </trkpt>
      <trkpt lat="45.35461" lon="4.51916">
        <ele>1237.5999755859</ele>
        <time>2026-05-11T12:08:13.000Z</time>
      </trkpt>
      <trkpt lat="45.35466" lon="4.5191">
        <ele>1237.4000244141</ele>
        <time>2026-05-11T12:08:14.000Z</time>
      </trkpt>
      <trkpt lat="45.35471" lon="4.51903">
        <ele>1237</ele>
        <time>2026-05-11T12:08:15.000Z</time>
      </trkpt>
      <trkpt lat="45.35477" lon="4.51896">
        <ele>1236.4000244141</ele>
        <time>2026-05-11T12:08:16.000Z</time>
      </trkpt>
      <trkpt lat="45.35482" lon="4.51889">
        <ele>1236</ele>
        <time>2026-05-11T12:08:17.000Z</time>
      </trkpt>
      <trkpt lat="45.35487" lon="4.51882">
        <ele>1235.5999755859</ele>
        <time>2026-05-11T12:08:18.000Z</time>
      </trkpt>
      <trkpt lat="45.35493" lon="4.51875">
        <ele>1235.4000244141</ele>
        <time>2026-05-11T12:08:19.000Z</time>
      </trkpt>
      <trkpt lat="45.35498" lon="4.51869">
        <ele>1235</ele>
        <time>2026-05-11T12:08:20.000Z</time>
      </trkpt>
      <trkpt lat="45.35503" lon="4.51863">
        <ele>1234.8000488281</ele>
        <time>2026-05-11T12:08:21.000Z</time>
      </trkpt>
      <trkpt lat="45.35508" lon="4.51857">
        <ele>1234.4000244141</ele>
        <time>2026-05-11T12:08:22.000Z</time>
      </trkpt>
      <trkpt lat="45.35513" lon="4.51852">
        <ele>1234.1999511719</ele>
        <time>2026-05-11T12:08:23.000Z</time>
      </trkpt>
      <trkpt lat="45.35518" lon="4.51847">
        <ele>1234</ele>
        <time>2026-05-11T12:08:24.000Z</time>
      </trkpt>
      <trkpt lat="45.35524" lon="4.51842">
        <ele>1233.8000488281</ele>
        <time>2026-05-11T12:08:25.000Z</time>
      </trkpt>
      <trkpt lat="45.35529" lon="4.51838">
        <ele>1233.5999755859</ele>
        <time>2026-05-11T12:08:26.000Z</time>
      </trkpt>
      <trkpt lat="45.35534" lon="4.51834">
        <ele>1233.4000244141</ele>
        <time>2026-05-11T12:08:27.000Z</time>
      </trkpt>
      <trkpt lat="45.35539" lon="4.5183">
        <ele>1233.1999511719</ele>
        <time>2026-05-11T12:08:28.000Z</time>
      </trkpt>
      <trkpt lat="45.35543" lon="4.51826">
        <ele>1233</ele>
        <time>2026-05-11T12:08:29.000Z</time>
      </trkpt>
      <trkpt lat="45.35548" lon="4.51823">
        <ele>1232.8000488281</ele>
        <time>2026-05-11T12:08:30.000Z</time>
      </trkpt>
      <trkpt lat="45.35553" lon="4.51821">
        <ele>1232.5999755859</ele>
        <time>2026-05-11T12:08:31.000Z</time>
      </trkpt>
      <trkpt lat="45.35557" lon="4.51817">
        <ele>1232.4000244141</ele>
        <time>2026-05-11T12:08:32.000Z</time>
      </trkpt>
      <trkpt lat="45.35562" lon="4.51814">
        <ele>1232.4000244141</ele>
        <time>2026-05-11T12:08:33.000Z</time>
      </trkpt>
      <trkpt lat="45.35566" lon="4.51811">
        <ele>1232.1999511719</ele>
        <time>2026-05-11T12:08:34.000Z</time>
      </trkpt>
      <trkpt lat="45.35571" lon="4.51809">
        <ele>1232</ele>
        <time>2026-05-11T12:08:35.000Z</time>
      </trkpt>
      <trkpt lat="45.35574" lon="4.51806">
        <ele>1232</ele>
        <time>2026-05-11T12:08:36.000Z</time>
      </trkpt>
      <trkpt lat="45.35578" lon="4.51803">
        <ele>1232</ele>
        <time>2026-05-11T12:08:37.000Z</time>
      </trkpt>
      <trkpt lat="45.35582" lon="4.51801">
        <ele>1232</ele>
        <time>2026-05-11T12:08:38.000Z</time>
      </trkpt>
      <trkpt lat="45.35586" lon="4.51799">
        <ele>1232</ele>
        <time>2026-05-11T12:08:39.000Z</time>
      </trkpt>
      <trkpt lat="45.3559" lon="4.51797">
        <ele>1232</ele>
        <time>2026-05-11T12:08:40.000Z</time>
      </trkpt>
      <trkpt lat="45.35593" lon="4.51796">
        <ele>1232</ele>
        <time>2026-05-11T12:08:41.000Z</time>
      </trkpt>
      <trkpt lat="45.35597" lon="4.51795">
        <ele>1232</ele>
        <time>2026-05-11T12:08:42.000Z</time>
      </trkpt>
      <trkpt lat="45.356" lon="4.51794">
        <ele>1232</ele>
        <time>2026-05-11T12:08:43.000Z</time>
      </trkpt>
      <trkpt lat="45.35604" lon="4.51792">
        <ele>1232</ele>
        <time>2026-05-11T12:08:44.000Z</time>
      </trkpt>
      <trkpt lat="45.35608" lon="4.51792">
        <ele>1232</ele>
        <time>2026-05-11T12:08:45.000Z</time>
      </trkpt>
      <trkpt lat="45.35611" lon="4.51791">
        <ele>1232</ele>
        <time>2026-05-11T12:08:46.000Z</time>
      </trkpt>
      <trkpt lat="45.35615" lon="4.51789">
        <ele>1231.8000488281</ele>
        <time>2026-05-11T12:08:47.000Z</time>
      </trkpt>
      <trkpt lat="45.35619" lon="4.51788">
        <ele>1231.8000488281</ele>
        <time>2026-05-11T12:08:48.000Z</time>
      </trkpt>
      <trkpt lat="45.35623" lon="4.51788">
        <ele>1231.5999755859</ele>
        <time>2026-05-11T12:08:49.000Z</time>
      </trkpt>
      <trkpt lat="45.35628" lon="4.51788">
        <ele>1231.1999511719</ele>
        <time>2026-05-11T12:08:50.000Z</time>
      </trkpt>
      <trkpt lat="45.35634" lon="4.51788">
        <ele>1231</ele>
        <time>2026-05-11T12:08:51.000Z</time>
      </trkpt>
      <trkpt lat="45.35638" lon="4.51789">
        <ele>1230.5999755859</ele>
        <time>2026-05-11T12:08:52.000Z</time>
      </trkpt>
      <trkpt lat="45.35644" lon="4.51791">
        <ele>1230.1999511719</ele>
        <time>2026-05-11T12:08:53.000Z</time>
      </trkpt>
      <trkpt lat="45.35649" lon="4.51794">
        <ele>1230</ele>
        <time>2026-05-11T12:08:54.000Z</time>
      </trkpt>
      <trkpt lat="45.35655" lon="4.51798">
        <ele>1229.8000488281</ele>
        <time>2026-05-11T12:08:55.000Z</time>
      </trkpt>
      <trkpt lat="45.35662" lon="4.51802">
        <ele>1229.5999755859</ele>
        <time>2026-05-11T12:08:56.000Z</time>
      </trkpt>
      <trkpt lat="45.35668" lon="4.51807">
        <ele>1229.5999755859</ele>
        <time>2026-05-11T12:08:57.000Z</time>
      </trkpt>
      <trkpt lat="45.35674" lon="4.51811">
        <ele>1229.4000244141</ele>
        <time>2026-05-11T12:08:58.000Z</time>
      </trkpt>
      <trkpt lat="45.3568" lon="4.51816">
        <ele>1229.1999511719</ele>
        <time>2026-05-11T12:08:59.000Z</time>
      </trkpt>
      <trkpt lat="45.35686" lon="4.51821">
        <ele>1229</ele>
        <time>2026-05-11T12:09:00.000Z</time>
      </trkpt>
      <trkpt lat="45.35692" lon="4.51827">
        <ele>1228.5999755859</ele>
        <time>2026-05-11T12:09:01.000Z</time>
      </trkpt>
      <trkpt lat="45.35697" lon="4.51834">
        <ele>1228.4000244141</ele>
        <time>2026-05-11T12:09:02.000Z</time>
      </trkpt>
      <trkpt lat="45.35702" lon="4.51841">
        <ele>1228</ele>
        <time>2026-05-11T12:09:03.000Z</time>
      </trkpt>
      <trkpt lat="45.35707" lon="4.51848">
        <ele>1227.8000488281</ele>
        <time>2026-05-11T12:09:04.000Z</time>
      </trkpt>
      <trkpt lat="45.35712" lon="4.51855">
        <ele>1227.5999755859</ele>
        <time>2026-05-11T12:09:05.000Z</time>
      </trkpt>
      <trkpt lat="45.35717" lon="4.51861">
        <ele>1227.1999511719</ele>
        <time>2026-05-11T12:09:06.000Z</time>
      </trkpt>
      <trkpt lat="45.35722" lon="4.51869">
        <ele>1227</ele>
        <time>2026-05-11T12:09:07.000Z</time>
      </trkpt>
      <trkpt lat="45.35727" lon="4.51876">
        <ele>1226.8000488281</ele>
        <time>2026-05-11T12:09:08.000Z</time>
      </trkpt>
      <trkpt lat="45.35732" lon="4.51884">
        <ele>1226.5999755859</ele>
        <time>2026-05-11T12:09:09.000Z</time>
      </trkpt>
      <trkpt lat="45.35737" lon="4.51891">
        <ele>1226.1999511719</ele>
        <time>2026-05-11T12:09:10.000Z</time>
      </trkpt>
      <trkpt lat="45.35742" lon="4.51898">
        <ele>1226</ele>
        <time>2026-05-11T12:09:11.000Z</time>
      </trkpt>
      <trkpt lat="45.35747" lon="4.51906">
        <ele>1225.5999755859</ele>
        <time>2026-05-11T12:09:12.000Z</time>
      </trkpt>
      <trkpt lat="45.35752" lon="4.51913">
        <ele>1225.4000244141</ele>
        <time>2026-05-11T12:09:13.000Z</time>
      </trkpt>
      <trkpt lat="45.35757" lon="4.51921">
        <ele>1225</ele>
        <time>2026-05-11T12:09:14.000Z</time>
      </trkpt>
      <trkpt lat="45.35761" lon="4.51929">
        <ele>1224.8000488281</ele>
        <time>2026-05-11T12:09:15.000Z</time>
      </trkpt>
      <trkpt lat="45.35766" lon="4.51937">
        <ele>1224.4000244141</ele>
        <time>2026-05-11T12:09:16.000Z</time>
      </trkpt>
      <trkpt lat="45.3577" lon="4.51946">
        <ele>1224.1999511719</ele>
        <time>2026-05-11T12:09:17.000Z</time>
      </trkpt>
      <trkpt lat="45.35775" lon="4.51954">
        <ele>1223.8000488281</ele>
        <time>2026-05-11T12:09:18.000Z</time>
      </trkpt>
      <trkpt lat="45.35778" lon="4.51964">
        <ele>1223.5999755859</ele>
        <time>2026-05-11T12:09:19.000Z</time>
      </trkpt>
      <trkpt lat="45.35781" lon="4.51973">
        <ele>1223.4000244141</ele>
        <time>2026-05-11T12:09:20.000Z</time>
      </trkpt>
      <trkpt lat="45.35784" lon="4.51982">
        <ele>1223.1999511719</ele>
        <time>2026-05-11T12:09:21.000Z</time>
      </trkpt>
      <trkpt lat="45.35787" lon="4.5199">
        <ele>1222.8000488281</ele>
        <time>2026-05-11T12:09:22.000Z</time>
      </trkpt>
      <trkpt lat="45.35789" lon="4.51999">
        <ele>1222.5999755859</ele>
        <time>2026-05-11T12:09:23.000Z</time>
      </trkpt>
      <trkpt lat="45.35791" lon="4.52007">
        <ele>1222.4000244141</ele>
        <time>2026-05-11T12:09:24.000Z</time>
      </trkpt>
      <trkpt lat="45.35793" lon="4.52014">
        <ele>1222.1999511719</ele>
        <time>2026-05-11T12:09:25.000Z</time>
      </trkpt>
      <trkpt lat="45.35794" lon="4.52019">
        <ele>1222</ele>
        <time>2026-05-11T12:09:26.000Z</time>
      </trkpt>
      <trkpt lat="45.35796" lon="4.52025">
        <ele>1222</ele>
        <time>2026-05-11T12:09:27.000Z</time>
      </trkpt>
      <trkpt lat="45.35796" lon="4.5203">
        <ele>1222.1999511719</ele>
        <time>2026-05-11T12:09:28.000Z</time>
      </trkpt>
      <trkpt lat="45.35797" lon="4.52036">
        <ele>1222.4000244141</ele>
        <time>2026-05-11T12:09:29.000Z</time>
      </trkpt>
      <trkpt lat="45.35798" lon="4.52042">
        <ele>1222.4000244141</ele>
        <time>2026-05-11T12:09:30.000Z</time>
      </trkpt>
      <trkpt lat="45.35799" lon="4.52047">
        <ele>1222.5999755859</ele>
        <time>2026-05-11T12:09:31.000Z</time>
      </trkpt>
      <trkpt lat="45.35799" lon="4.52051">
        <ele>1222.8000488281</ele>
        <time>2026-05-11T12:09:32.000Z</time>
      </trkpt>
      <trkpt lat="45.358" lon="4.52057">
        <ele>1223</ele>
        <time>2026-05-11T12:09:33.000Z</time>
      </trkpt>
      <trkpt lat="45.35801" lon="4.52062">
        <ele>1223.1999511719</ele>
        <time>2026-05-11T12:09:34.000Z</time>
      </trkpt>
      <trkpt lat="45.35802" lon="4.52067">
        <ele>1223.4000244141</ele>
        <time>2026-05-11T12:09:35.000Z</time>
      </trkpt>
      <trkpt lat="45.35803" lon="4.52071">
        <ele>1223.5999755859</ele>
        <time>2026-05-11T12:09:36.000Z</time>
      </trkpt>
      <trkpt lat="45.35803" lon="4.52076">
        <ele>1223.5999755859</ele>
        <time>2026-05-11T12:09:37.000Z</time>
      </trkpt>
      <trkpt lat="45.35804" lon="4.52081">
        <ele>1223.8000488281</ele>
        <time>2026-05-11T12:09:38.000Z</time>
      </trkpt>
      <trkpt lat="45.35804" lon="4.52086">
        <ele>1224</ele>
        <time>2026-05-11T12:09:39.000Z</time>
      </trkpt>
      <trkpt lat="45.35805" lon="4.5209">
        <ele>1224</ele>
        <time>2026-05-11T12:09:40.000Z</time>
      </trkpt>
      <trkpt lat="45.35805" lon="4.52096">
        <ele>1224.1999511719</ele>
        <time>2026-05-11T12:09:41.000Z</time>
      </trkpt>
      <trkpt lat="45.35806" lon="4.52101">
        <ele>1224.1999511719</ele>
        <time>2026-05-11T12:09:42.000Z</time>
      </trkpt>
      <trkpt lat="45.35807" lon="4.52106">
        <ele>1224.4000244141</ele>
        <time>2026-05-11T12:09:43.000Z</time>
      </trkpt>
      <trkpt lat="45.35807" lon="4.52111">
        <ele>1224.5999755859</ele>
        <time>2026-05-11T12:09:44.000Z</time>
      </trkpt>
      <trkpt lat="45.35808" lon="4.52116">
        <ele>1224.5999755859</ele>
        <time>2026-05-11T12:09:45.000Z</time>
      </trkpt>
      <trkpt lat="45.35809" lon="4.5212">
        <ele>1224.8000488281</ele>
        <time>2026-05-11T12:09:46.000Z</time>
      </trkpt>
      <trkpt lat="45.35809" lon="4.52124">
        <ele>1224.8000488281</ele>
        <time>2026-05-11T12:09:47.000Z</time>
      </trkpt>
      <trkpt lat="45.3581" lon="4.52129">
        <ele>1224.8000488281</ele>
        <time>2026-05-11T12:09:48.000Z</time>
      </trkpt>
      <trkpt lat="45.3581" lon="4.52133">
        <ele>1225</ele>
        <time>2026-05-11T12:09:49.000Z</time>
      </trkpt>
      <trkpt lat="45.35811" lon="4.52137">
        <ele>1225</ele>
        <time>2026-05-11T12:09:50.000Z</time>
      </trkpt>
      <trkpt lat="45.35812" lon="4.52141">
        <ele>1225.1999511719</ele>
        <time>2026-05-11T12:09:51.000Z</time>
      </trkpt>
      <trkpt lat="45.35813" lon="4.52146">
        <ele>1225.1999511719</ele>
        <time>2026-05-11T12:09:52.000Z</time>
      </trkpt>
      <trkpt lat="45.35813" lon="4.52151">
        <ele>1225.1999511719</ele>
        <time>2026-05-11T12:09:53.000Z</time>
      </trkpt>
      <trkpt lat="45.35814" lon="4.52156">
        <ele>1225</ele>
        <time>2026-05-11T12:09:54.000Z</time>
      </trkpt>
      <trkpt lat="45.35814" lon="4.52162">
        <ele>1225</ele>
        <time>2026-05-11T12:09:55.000Z</time>
      </trkpt>
      <trkpt lat="45.35815" lon="4.52167">
        <ele>1225</ele>
        <time>2026-05-11T12:09:56.000Z</time>
      </trkpt>
      <trkpt lat="45.35815" lon="4.52171">
        <ele>1224.8000488281</ele>
        <time>2026-05-11T12:09:57.000Z</time>
      </trkpt>
      <trkpt lat="45.35816" lon="4.52176">
        <ele>1224.8000488281</ele>
        <time>2026-05-11T12:09:58.000Z</time>
      </trkpt>
      <trkpt lat="45.35818" lon="4.52181">
        <ele>1224.5999755859</ele>
        <time>2026-05-11T12:09:59.000Z</time>
      </trkpt>
      <trkpt lat="45.35819" lon="4.52186">
        <ele>1224.1999511719</ele>
        <time>2026-05-11T12:10:00.000Z</time>
      </trkpt>
      <trkpt lat="45.35821" lon="4.52191">
        <ele>1223.8000488281</ele>
        <time>2026-05-11T12:10:01.000Z</time>
      </trkpt>
      <trkpt lat="45.35822" lon="4.52196">
        <ele>1223.4000244141</ele>
        <time>2026-05-11T12:10:02.000Z</time>
      </trkpt>
      <trkpt lat="45.35825" lon="4.52201">
        <ele>1223</ele>
        <time>2026-05-11T12:10:03.000Z</time>
      </trkpt>
      <trkpt lat="45.35827" lon="4.52206">
        <ele>1222.8000488281</ele>
        <time>2026-05-11T12:10:04.000Z</time>
      </trkpt>
      <trkpt lat="45.3583" lon="4.52211">
        <ele>1222.5999755859</ele>
        <time>2026-05-11T12:10:05.000Z</time>
      </trkpt>
      <trkpt lat="45.35833" lon="4.52214">
        <ele>1222.4000244141</ele>
        <time>2026-05-11T12:10:06.000Z</time>
      </trkpt>
      <trkpt lat="45.35835" lon="4.52217">
        <ele>1222.4000244141</ele>
        <time>2026-05-11T12:10:07.000Z</time>
      </trkpt>
      <trkpt lat="45.35837" lon="4.52219">
        <ele>1222.1999511719</ele>
        <time>2026-05-11T12:10:08.000Z</time>
      </trkpt>
      <trkpt lat="45.35839" lon="4.52222">
        <ele>1222.1999511719</ele>
        <time>2026-05-11T12:10:09.000Z</time>
      </trkpt>
      <trkpt lat="45.35842" lon="4.52225">
        <ele>1222.1999511719</ele>
        <time>2026-05-11T12:10:10.000Z</time>
      </trkpt>
      <trkpt lat="45.35844" lon="4.52227">
        <ele>1222.1999511719</ele>
        <time>2026-05-11T12:10:11.000Z</time>
      </trkpt>
      <trkpt lat="45.35847" lon="4.52229">
        <ele>1222.1999511719</ele>
        <time>2026-05-11T12:10:12.000Z</time>
      </trkpt>
      <trkpt lat="45.3585" lon="4.52232">
        <ele>1222</ele>
        <time>2026-05-11T12:10:13.000Z</time>
      </trkpt>
      <trkpt lat="45.35853" lon="4.52235">
        <ele>1222</ele>
        <time>2026-05-11T12:10:14.000Z</time>
      </trkpt>
      <trkpt lat="45.35857" lon="4.52238">
        <ele>1221.8000488281</ele>
        <time>2026-05-11T12:10:15.000Z</time>
      </trkpt>
      <trkpt lat="45.35861" lon="4.52241">
        <ele>1221.5999755859</ele>
        <time>2026-05-11T12:10:16.000Z</time>
      </trkpt>
      <trkpt lat="45.35864" lon="4.52242">
        <ele>1221.4000244141</ele>
        <time>2026-05-11T12:10:17.000Z</time>
      </trkpt>
      <trkpt lat="45.35868" lon="4.52245">
        <ele>1221.4000244141</ele>
        <time>2026-05-11T12:10:18.000Z</time>
      </trkpt>
      <trkpt lat="45.35872" lon="4.52247">
        <ele>1221.4000244141</ele>
        <time>2026-05-11T12:10:19.000Z</time>
      </trkpt>
      <trkpt lat="45.35876" lon="4.52249">
        <ele>1221.1999511719</ele>
        <time>2026-05-11T12:10:20.000Z</time>
      </trkpt>
      <trkpt lat="45.35881" lon="4.52252">
        <ele>1221.1999511719</ele>
        <time>2026-05-11T12:10:21.000Z</time>
      </trkpt>
      <trkpt lat="45.35884" lon="4.52254">
        <ele>1221</ele>
        <time>2026-05-11T12:10:22.000Z</time>
      </trkpt>
      <trkpt lat="45.35888" lon="4.52256">
        <ele>1221</ele>
        <time>2026-05-11T12:10:23.000Z</time>
      </trkpt>
      <trkpt lat="45.35891" lon="4.52258">
        <ele>1221</ele>
        <time>2026-05-11T12:10:24.000Z</time>
      </trkpt>
      <trkpt lat="45.35895" lon="4.5226">
        <ele>1220.8000488281</ele>
        <time>2026-05-11T12:10:25.000Z</time>
      </trkpt>
      <trkpt lat="45.35898" lon="4.52262">
        <ele>1220.8000488281</ele>
        <time>2026-05-11T12:10:26.000Z</time>
      </trkpt>
      <trkpt lat="45.35901" lon="4.52265">
        <ele>1220.8000488281</ele>
        <time>2026-05-11T12:10:27.000Z</time>
      </trkpt>
      <trkpt lat="45.35905" lon="4.52267">
        <ele>1220.8000488281</ele>
        <time>2026-05-11T12:10:28.000Z</time>
      </trkpt>
      <trkpt lat="45.35908" lon="4.52269">
        <ele>1220.8000488281</ele>
        <time>2026-05-11T12:10:29.000Z</time>
      </trkpt>
      <trkpt lat="45.35912" lon="4.5227">
        <ele>1220.8000488281</ele>
        <time>2026-05-11T12:10:30.000Z</time>
      </trkpt>
      <trkpt lat="45.35915" lon="4.52273">
        <ele>1220.5999755859</ele>
        <time>2026-05-11T12:10:31.000Z</time>
      </trkpt>
      <trkpt lat="45.35917" lon="4.52275">
        <ele>1220.5999755859</ele>
        <time>2026-05-11T12:10:32.000Z</time>
      </trkpt>
      <trkpt lat="45.35921" lon="4.52277">
        <ele>1220.5999755859</ele>
        <time>2026-05-11T12:10:33.000Z</time>
      </trkpt>
      <trkpt lat="45.35924" lon="4.52279">
        <ele>1220.4000244141</ele>
        <time>2026-05-11T12:10:34.000Z</time>
      </trkpt>
      <trkpt lat="45.35928" lon="4.52281">
        <ele>1220.4000244141</ele>
        <time>2026-05-11T12:10:35.000Z</time>
      </trkpt>
      <trkpt lat="45.35931" lon="4.52282">
        <ele>1220.4000244141</ele>
        <time>2026-05-11T12:10:36.000Z</time>
      </trkpt>
      <trkpt lat="45.35935" lon="4.52283">
        <ele>1220.4000244141</ele>
        <time>2026-05-11T12:10:37.000Z</time>
      </trkpt>
      <trkpt lat="45.35939" lon="4.52284">
        <ele>1220.4000244141</ele>
        <time>2026-05-11T12:10:38.000Z</time>
      </trkpt>
      <trkpt lat="45.35942" lon="4.52286">
        <ele>1220.1999511719</ele>
        <time>2026-05-11T12:10:39.000Z</time>
      </trkpt>
      <trkpt lat="45.35946" lon="4.52288">
        <ele>1220.1999511719</ele>
        <time>2026-05-11T12:10:40.000Z</time>
      </trkpt>
      <trkpt lat="45.3595" lon="4.52291">
        <ele>1220</ele>
        <time>2026-05-11T12:10:41.000Z</time>
      </trkpt>
      <trkpt lat="45.35954" lon="4.52293">
        <ele>1220</ele>
        <time>2026-05-11T12:10:42.000Z</time>
      </trkpt>
      <trkpt lat="45.35957" lon="4.52294">
        <ele>1219.8000488281</ele>
        <time>2026-05-11T12:10:43.000Z</time>
      </trkpt>
      <trkpt lat="45.35961" lon="4.52296">
        <ele>1219.8000488281</ele>
        <time>2026-05-11T12:10:44.000Z</time>
      </trkpt>
      <trkpt lat="45.35964" lon="4.52298">
        <ele>1219.5999755859</ele>
        <time>2026-05-11T12:10:45.000Z</time>
      </trkpt>
      <trkpt lat="45.35968" lon="4.52299">
        <ele>1219.5999755859</ele>
        <time>2026-05-11T12:10:46.000Z</time>
      </trkpt>
      <trkpt lat="45.35971" lon="4.52301">
        <ele>1219.5999755859</ele>
        <time>2026-05-11T12:10:47.000Z</time>
      </trkpt>
      <trkpt lat="45.35973" lon="4.52302">
        <ele>1219.5999755859</ele>
        <time>2026-05-11T12:10:48.000Z</time>
      </trkpt>
      <trkpt lat="45.35977" lon="4.52304">
        <ele>1219.5999755859</ele>
        <time>2026-05-11T12:10:49.000Z</time>
      </trkpt>
      <trkpt lat="45.3598" lon="4.52305">
        <ele>1219.5999755859</ele>
        <time>2026-05-11T12:10:50.000Z</time>
      </trkpt>
      <trkpt lat="45.35983" lon="4.52306">
        <ele>1219.5999755859</ele>
        <time>2026-05-11T12:10:51.000Z</time>
      </trkpt>
      <trkpt lat="45.35986" lon="4.52308">
        <ele>1219.4000244141</ele>
        <time>2026-05-11T12:10:52.000Z</time>
      </trkpt>
      <trkpt lat="45.35989" lon="4.52309">
        <ele>1219.4000244141</ele>
        <time>2026-05-11T12:10:53.000Z</time>
      </trkpt>
      <trkpt lat="45.35992" lon="4.5231">
        <ele>1219.4000244141</ele>
        <time>2026-05-11T12:10:54.000Z</time>
      </trkpt>
      <trkpt lat="45.35994" lon="4.52311">
        <ele>1219.1999511719</ele>
        <time>2026-05-11T12:10:55.000Z</time>
      </trkpt>
      <trkpt lat="45.35996" lon="4.52313">
        <ele>1219.1999511719</ele>
        <time>2026-05-11T12:10:56.000Z</time>
      </trkpt>
      <trkpt lat="45.35997" lon="4.52316">
        <ele>1219.1999511719</ele>
        <time>2026-05-11T12:10:57.000Z</time>
      </trkpt>
      <trkpt lat="45.35997" lon="4.5232">
        <ele>1219.1999511719</ele>
        <time>2026-05-11T12:10:58.000Z</time>
      </trkpt>
      <trkpt lat="45.35996" lon="4.52323">
        <ele>1219</ele>
        <time>2026-05-11T12:10:59.000Z</time>
      </trkpt>
      <trkpt lat="45.35994" lon="4.52325">
        <ele>1219</ele>
        <time>2026-05-11T12:11:00.000Z</time>
      </trkpt>
      <trkpt lat="45.35992" lon="4.52327">
        <ele>1219</ele>
        <time>2026-05-11T12:11:01.000Z</time>
      </trkpt>
      <trkpt lat="45.3599" lon="4.52329">
        <ele>1218.8000488281</ele>
        <time>2026-05-11T12:11:02.000Z</time>
      </trkpt>
      <trkpt lat="45.35989" lon="4.5233">
        <ele>1219</ele>
        <time>2026-05-11T12:11:03.000Z</time>
      </trkpt>
      <trkpt lat="45.35987" lon="4.52331">
        <ele>1219.1999511719</ele>
        <time>2026-05-11T12:11:04.000Z</time>
      </trkpt>
      <trkpt lat="45.35985" lon="4.52332">
        <ele>1219.4000244141</ele>
        <time>2026-05-11T12:11:05.000Z</time>
      </trkpt>
      <trkpt lat="45.35983" lon="4.52334">
        <ele>1219.5999755859</ele>
        <time>2026-05-11T12:11:06.000Z</time>
      </trkpt>
      <trkpt lat="45.35982" lon="4.52336">
        <ele>1220</ele>
        <time>2026-05-11T12:11:07.000Z</time>
      </trkpt>
      <trkpt lat="45.35981" lon="4.52338">
        <ele>1220.1999511719</ele>
        <time>2026-05-11T12:11:08.000Z</time>
      </trkpt>
      <trkpt lat="45.35979" lon="4.5234">
        <ele>1220.4000244141</ele>
        <time>2026-05-11T12:11:09.000Z</time>
      </trkpt>
      <trkpt lat="45.35978" lon="4.52341">
        <ele>1220.8000488281</ele>
        <time>2026-05-11T12:11:10.000Z</time>
      </trkpt>
      <trkpt lat="45.35977" lon="4.52343">
        <ele>1221</ele>
        <time>2026-05-11T12:11:11.000Z</time>
      </trkpt>
      <trkpt lat="45.35976" lon="4.52345">
        <ele>1221.1999511719</ele>
        <time>2026-05-11T12:11:12.000Z</time>
      </trkpt>
      <trkpt lat="45.35976" lon="4.52346">
        <ele>1221.5999755859</ele>
        <time>2026-05-11T12:11:13.000Z</time>
      </trkpt>
      <trkpt lat="45.35975" lon="4.52347">
        <ele>1221.8000488281</ele>
        <time>2026-05-11T12:11:14.000Z</time>
      </trkpt>
      <trkpt lat="45.35973" lon="4.52348">
        <ele>1222.1999511719</ele>
        <time>2026-05-11T12:11:15.000Z</time>
      </trkpt>
      <trkpt lat="45.35972" lon="4.5235">
        <ele>1222.4000244141</ele>
        <time>2026-05-11T12:11:16.000Z</time>
      </trkpt>
      <trkpt lat="45.3597" lon="4.52352">
        <ele>1222.5999755859</ele>
        <time>2026-05-11T12:11:17.000Z</time>
      </trkpt>
      <trkpt lat="45.35969" lon="4.52353">
        <ele>1222.8000488281</ele>
        <time>2026-05-11T12:11:18.000Z</time>
      </trkpt>
      <trkpt lat="45.35967" lon="4.52355">
        <ele>1223</ele>
        <time>2026-05-11T12:11:19.000Z</time>
      </trkpt>
      <trkpt lat="45.35965" lon="4.52356">
        <ele>1223.1999511719</ele>
        <time>2026-05-11T12:11:20.000Z</time>
      </trkpt>
      <trkpt lat="45.35964" lon="4.52358">
        <ele>1223.4000244141</ele>
        <time>2026-05-11T12:11:21.000Z</time>
      </trkpt>
      <trkpt lat="45.35962" lon="4.52359">
        <ele>1223.8000488281</ele>
        <time>2026-05-11T12:11:22.000Z</time>
      </trkpt>
      <trkpt lat="45.35961" lon="4.5236">
        <ele>1224</ele>
        <time>2026-05-11T12:11:23.000Z</time>
      </trkpt>
      <trkpt lat="45.3596" lon="4.52362">
        <ele>1224.1999511719</ele>
        <time>2026-05-11T12:11:24.000Z</time>
      </trkpt>
      <trkpt lat="45.35958" lon="4.52364">
        <ele>1224.4000244141</ele>
        <time>2026-05-11T12:11:25.000Z</time>
      </trkpt>
      <trkpt lat="45.35957" lon="4.52366">
        <ele>1224.5999755859</ele>
        <time>2026-05-11T12:11:26.000Z</time>
      </trkpt>
      <trkpt lat="45.35956" lon="4.52368">
        <ele>1224.8000488281</ele>
        <time>2026-05-11T12:11:27.000Z</time>
      </trkpt>
      <trkpt lat="45.35954" lon="4.52369">
        <ele>1225</ele>
        <time>2026-05-11T12:11:28.000Z</time>
      </trkpt>
      <trkpt lat="45.35953" lon="4.52371">
        <ele>1225.1999511719</ele>
        <time>2026-05-11T12:11:29.000Z</time>
      </trkpt>
      <trkpt lat="45.35952" lon="4.52373">
        <ele>1225.1999511719</ele>
        <time>2026-05-11T12:11:30.000Z</time>
      </trkpt>
      <trkpt lat="45.3595" lon="4.52374">
        <ele>1225.4000244141</ele>
        <time>2026-05-11T12:11:31.000Z</time>
      </trkpt>
      <trkpt lat="45.35949" lon="4.52376">
        <ele>1225.5999755859</ele>
        <time>2026-05-11T12:11:32.000Z</time>
      </trkpt>
      <trkpt lat="45.35947" lon="4.52378">
        <ele>1225.8000488281</ele>
        <time>2026-05-11T12:11:33.000Z</time>
      </trkpt>
      <trkpt lat="45.35946" lon="4.5238">
        <ele>1226</ele>
        <time>2026-05-11T12:11:34.000Z</time>
      </trkpt>
      <trkpt lat="45.35945" lon="4.52381">
        <ele>1226.1999511719</ele>
        <time>2026-05-11T12:11:35.000Z</time>
      </trkpt>
      <trkpt lat="45.35944" lon="4.52383">
        <ele>1226.4000244141</ele>
        <time>2026-05-11T12:11:36.000Z</time>
      </trkpt>
      <trkpt lat="45.35943" lon="4.52384">
        <ele>1226.8000488281</ele>
        <time>2026-05-11T12:11:37.000Z</time>
      </trkpt>
      <trkpt lat="45.35942" lon="4.52385">
        <ele>1227</ele>
        <time>2026-05-11T12:11:38.000Z</time>
      </trkpt>
      <trkpt lat="45.35941" lon="4.52387">
        <ele>1227.1999511719</ele>
        <time>2026-05-11T12:11:39.000Z</time>
      </trkpt>
      <trkpt lat="45.35941" lon="4.52388">
        <ele>1227.4000244141</ele>
        <time>2026-05-11T12:11:40.000Z</time>
      </trkpt>
      <trkpt lat="45.3594" lon="4.5239">
        <ele>1227.5999755859</ele>
        <time>2026-05-11T12:11:41.000Z</time>
      </trkpt>
      <trkpt lat="45.35939" lon="4.52392">
        <ele>1227.8000488281</ele>
        <time>2026-05-11T12:11:42.000Z</time>
      </trkpt>
      <trkpt lat="45.35938" lon="4.52394">
        <ele>1228</ele>
        <time>2026-05-11T12:11:43.000Z</time>
      </trkpt>
      <trkpt lat="45.35937" lon="4.52396">
        <ele>1228.4000244141</ele>
        <time>2026-05-11T12:11:44.000Z</time>
      </trkpt>
      <trkpt lat="45.35936" lon="4.52398">
        <ele>1228.5999755859</ele>
        <time>2026-05-11T12:11:45.000Z</time>
      </trkpt>
      <trkpt lat="45.35935" lon="4.52399">
        <ele>1228.8000488281</ele>
        <time>2026-05-11T12:11:46.000Z</time>
      </trkpt>
      <trkpt lat="45.35934" lon="4.524">
        <ele>1229</ele>
        <time>2026-05-11T12:11:47.000Z</time>
      </trkpt>
      <trkpt lat="45.35933" lon="4.52402">
        <ele>1229.1999511719</ele>
        <time>2026-05-11T12:11:48.000Z</time>
      </trkpt>
      <trkpt lat="45.35931" lon="4.52403">
        <ele>1229.4000244141</ele>
        <time>2026-05-11T12:11:49.000Z</time>
      </trkpt>
      <trkpt lat="45.3593" lon="4.52404">
        <ele>1229.8000488281</ele>
        <time>2026-05-11T12:11:50.000Z</time>
      </trkpt>
      <trkpt lat="45.35928" lon="4.52405">
        <ele>1230</ele>
        <time>2026-05-11T12:11:51.000Z</time>
      </trkpt>
      <trkpt lat="45.35927" lon="4.52406">
        <ele>1230.1999511719</ele>
        <time>2026-05-11T12:11:52.000Z</time>
      </trkpt>
      <trkpt lat="45.35925" lon="4.52407">
        <ele>1230.4000244141</ele>
        <time>2026-05-11T12:11:53.000Z</time>
      </trkpt>
      <trkpt lat="45.35923" lon="4.52407">
        <ele>1230.5999755859</ele>
        <time>2026-05-11T12:11:54.000Z</time>
      </trkpt>
      <trkpt lat="45.35922" lon="4.52408">
        <ele>1230.8000488281</ele>
        <time>2026-05-11T12:11:55.000Z</time>
      </trkpt>
      <trkpt lat="45.3592" lon="4.52409">
        <ele>1231</ele>
        <time>2026-05-11T12:11:56.000Z</time>
      </trkpt>
      <trkpt lat="45.35919" lon="4.5241">
        <ele>1231.1999511719</ele>
        <time>2026-05-11T12:11:57.000Z</time>
      </trkpt>
      <trkpt lat="45.35917" lon="4.52411">
        <ele>1231.4000244141</ele>
        <time>2026-05-11T12:11:58.000Z</time>
      </trkpt>
      <trkpt lat="45.35915" lon="4.52412">
        <ele>1231.5999755859</ele>
        <time>2026-05-11T12:11:59.000Z</time>
      </trkpt>
      <trkpt lat="45.35914" lon="4.52413">
        <ele>1231.8000488281</ele>
        <time>2026-05-11T12:12:00.000Z</time>
      </trkpt>
      <trkpt lat="45.35912" lon="4.52414">
        <ele>1232</ele>
        <time>2026-05-11T12:12:01.000Z</time>
      </trkpt>
      <trkpt lat="45.35911" lon="4.52414">
        <ele>1232.1999511719</ele>
        <time>2026-05-11T12:12:02.000Z</time>
      </trkpt>
      <trkpt lat="45.35909" lon="4.52415">
        <ele>1232.4000244141</ele>
        <time>2026-05-11T12:12:03.000Z</time>
      </trkpt>
      <trkpt lat="45.35908" lon="4.52416">
        <ele>1232.5999755859</ele>
        <time>2026-05-11T12:12:04.000Z</time>
      </trkpt>
      <trkpt lat="45.35907" lon="4.52416">
        <ele>1232.8000488281</ele>
        <time>2026-05-11T12:12:05.000Z</time>
      </trkpt>
      <trkpt lat="45.35905" lon="4.52416">
        <ele>1233</ele>
        <time>2026-05-11T12:12:06.000Z</time>
      </trkpt>
      <trkpt lat="45.35904" lon="4.52417">
        <ele>1233.1999511719</ele>
        <time>2026-05-11T12:12:07.000Z</time>
      </trkpt>
      <trkpt lat="45.35902" lon="4.52418">
        <ele>1233.1999511719</ele>
        <time>2026-05-11T12:12:08.000Z</time>
      </trkpt>
      <trkpt lat="45.35901" lon="4.52418">
        <ele>1233.4000244141</ele>
        <time>2026-05-11T12:12:09.000Z</time>
      </trkpt>
      <trkpt lat="45.359" lon="4.52419">
        <ele>1233.4000244141</ele>
        <time>2026-05-11T12:12:10.000Z</time>
      </trkpt>
      <trkpt lat="45.35898" lon="4.52419">
        <ele>1233.5999755859</ele>
        <time>2026-05-11T12:12:11.000Z</time>
      </trkpt>
      <trkpt lat="45.35896" lon="4.5242">
        <ele>1233.5999755859</ele>
        <time>2026-05-11T12:12:12.000Z</time>
      </trkpt>
      <trkpt lat="45.35894" lon="4.5242">
        <ele>1233.8000488281</ele>
        <time>2026-05-11T12:12:13.000Z</time>
      </trkpt>
      <trkpt lat="45.35892" lon="4.52421">
        <ele>1234</ele>
        <time>2026-05-11T12:12:14.000Z</time>
      </trkpt>
      <trkpt lat="45.3589" lon="4.52422">
        <ele>1234</ele>
        <time>2026-05-11T12:12:15.000Z</time>
      </trkpt>
      <trkpt lat="45.35888" lon="4.52423">
        <ele>1234.1999511719</ele>
        <time>2026-05-11T12:12:16.000Z</time>
      </trkpt>
      <trkpt lat="45.35887" lon="4.52423">
        <ele>1234.1999511719</ele>
        <time>2026-05-11T12:12:17.000Z</time>
      </trkpt>
      <trkpt lat="45.35885" lon="4.52424">
        <ele>1234.4000244141</ele>
        <time>2026-05-11T12:12:18.000Z</time>
      </trkpt>
      <trkpt lat="45.35884" lon="4.52424">
        <ele>1234.5999755859</ele>
        <time>2026-05-11T12:12:19.000Z</time>
      </trkpt>
      <trkpt lat="45.35883" lon="4.52425">
        <ele>1234.5999755859</ele>
        <time>2026-05-11T12:12:20.000Z</time>
      </trkpt>
      <trkpt lat="45.35881" lon="4.52426">
        <ele>1234.8000488281</ele>
        <time>2026-05-11T12:12:21.000Z</time>
      </trkpt>
      <trkpt lat="45.3588" lon="4.52427">
        <ele>1234.8000488281</ele>
        <time>2026-05-11T12:12:22.000Z</time>
      </trkpt>
      <trkpt lat="45.35879" lon="4.52428">
        <ele>1235</ele>
        <time>2026-05-11T12:12:23.000Z</time>
      </trkpt>
      <trkpt lat="45.35877" lon="4.52429">
        <ele>1235.1999511719</ele>
        <time>2026-05-11T12:12:24.000Z</time>
      </trkpt>
      <trkpt lat="45.35875" lon="4.5243">
        <ele>1235.4000244141</ele>
        <time>2026-05-11T12:12:25.000Z</time>
      </trkpt>
      <trkpt lat="45.35873" lon="4.5243">
        <ele>1235.5999755859</ele>
        <time>2026-05-11T12:12:26.000Z</time>
      </trkpt>
      <trkpt lat="45.35872" lon="4.52431">
        <ele>1235.5999755859</ele>
        <time>2026-05-11T12:12:27.000Z</time>
      </trkpt>
      <trkpt lat="45.3587" lon="4.52431">
        <ele>1235.8000488281</ele>
        <time>2026-05-11T12:12:28.000Z</time>
      </trkpt>
      <trkpt lat="45.35868" lon="4.52432">
        <ele>1236</ele>
        <time>2026-05-11T12:12:29.000Z</time>
      </trkpt>
      <trkpt lat="45.35866" lon="4.52433">
        <ele>1236.1999511719</ele>
        <time>2026-05-11T12:12:30.000Z</time>
      </trkpt>
      <trkpt lat="45.35865" lon="4.52433">
        <ele>1236.1999511719</ele>
        <time>2026-05-11T12:12:31.000Z</time>
      </trkpt>
      <trkpt lat="45.35863" lon="4.52434">
        <ele>1236.4000244141</ele>
        <time>2026-05-11T12:12:32.000Z</time>
      </trkpt>
      <trkpt lat="45.35862" lon="4.52434">
        <ele>1236.5999755859</ele>
        <time>2026-05-11T12:12:33.000Z</time>
      </trkpt>
      <trkpt lat="45.3586" lon="4.52435">
        <ele>1236.8000488281</ele>
        <time>2026-05-11T12:12:34.000Z</time>
      </trkpt>
      <trkpt lat="45.35859" lon="4.52435">
        <ele>1237</ele>
        <time>2026-05-11T12:12:35.000Z</time>
      </trkpt>
      <trkpt lat="45.35857" lon="4.52436">
        <ele>1237.1999511719</ele>
        <time>2026-05-11T12:12:36.000Z</time>
      </trkpt>
      <trkpt lat="45.35855" lon="4.52436">
        <ele>1237.1999511719</ele>
        <time>2026-05-11T12:12:37.000Z</time>
      </trkpt>
      <trkpt lat="45.35853" lon="4.52436">
        <ele>1237.4000244141</ele>
        <time>2026-05-11T12:12:38.000Z</time>
      </trkpt>
      <trkpt lat="45.35852" lon="4.52437">
        <ele>1237.5999755859</ele>
        <time>2026-05-11T12:12:39.000Z</time>
      </trkpt>
      <trkpt lat="45.3585" lon="4.52438">
        <ele>1237.5999755859</ele>
        <time>2026-05-11T12:12:40.000Z</time>
      </trkpt>
      <trkpt lat="45.35848" lon="4.52438">
        <ele>1237.8000488281</ele>
        <time>2026-05-11T12:12:41.000Z</time>
      </trkpt>
      <trkpt lat="45.35846" lon="4.52439">
        <ele>1238</ele>
        <time>2026-05-11T12:12:42.000Z</time>
      </trkpt>
      <trkpt lat="45.35844" lon="4.52439">
        <ele>1238.1999511719</ele>
        <time>2026-05-11T12:12:43.000Z</time>
      </trkpt>
      <trkpt lat="45.35842" lon="4.52439">
        <ele>1238.1999511719</ele>
        <time>2026-05-11T12:12:44.000Z</time>
      </trkpt>
      <trkpt lat="45.3584" lon="4.5244">
        <ele>1238.4000244141</ele>
        <time>2026-05-11T12:12:45.000Z</time>
      </trkpt>
      <trkpt lat="45.35839" lon="4.52441">
        <ele>1238.5999755859</ele>
        <time>2026-05-11T12:12:46.000Z</time>
      </trkpt>
      <trkpt lat="45.35837" lon="4.52441">
        <ele>1238.8000488281</ele>
        <time>2026-05-11T12:12:47.000Z</time>
      </trkpt>
      <trkpt lat="45.35836" lon="4.52442">
        <ele>1238.8000488281</ele>
        <time>2026-05-11T12:12:48.000Z</time>
      </trkpt>
      <trkpt lat="45.35834" lon="4.52442">
        <ele>1239</ele>
        <time>2026-05-11T12:12:49.000Z</time>
      </trkpt>
      <trkpt lat="45.35832" lon="4.52442">
        <ele>1239</ele>
        <time>2026-05-11T12:12:50.000Z</time>
      </trkpt>
      <trkpt lat="45.3583" lon="4.52443">
        <ele>1239.1999511719</ele>
        <time>2026-05-11T12:12:51.000Z</time>
      </trkpt>
      <trkpt lat="45.35829" lon="4.52443">
        <ele>1239.4000244141</ele>
        <time>2026-05-11T12:12:52.000Z</time>
      </trkpt>
      <trkpt lat="45.35827" lon="4.52443">
        <ele>1239.4000244141</ele>
        <time>2026-05-11T12:12:53.000Z</time>
      </trkpt>
      <trkpt lat="45.35825" lon="4.52443">
        <ele>1239.5999755859</ele>
        <time>2026-05-11T12:12:54.000Z</time>
      </trkpt>
      <trkpt lat="45.35823" lon="4.52443">
        <ele>1239.8000488281</ele>
        <time>2026-05-11T12:12:55.000Z</time>
      </trkpt>
      <trkpt lat="45.35822" lon="4.52444">
        <ele>1239.8000488281</ele>
        <time>2026-05-11T12:12:56.000Z</time>
      </trkpt>
      <trkpt lat="45.3582" lon="4.52444">
        <ele>1239.8000488281</ele>
        <time>2026-05-11T12:12:57.000Z</time>
      </trkpt>
      <trkpt lat="45.35819" lon="4.52444">
        <ele>1239.8000488281</ele>
        <time>2026-05-11T12:12:58.000Z</time>
      </trkpt>
      <trkpt lat="45.35816" lon="4.52444">
        <ele>1239.8000488281</ele>
        <time>2026-05-11T12:12:59.000Z</time>
      </trkpt>
      <trkpt lat="45.35814" lon="4.52444">
        <ele>1239.8000488281</ele>
        <time>2026-05-11T12:13:00.000Z</time>
      </trkpt>
      <trkpt lat="45.35812" lon="4.52445">
        <ele>1239.8000488281</ele>
        <time>2026-05-11T12:13:01.000Z</time>
      </trkpt>
      <trkpt lat="45.3581" lon="4.52445">
        <ele>1239.8000488281</ele>
        <time>2026-05-11T12:13:02.000Z</time>
      </trkpt>
      <trkpt lat="45.35809" lon="4.52445">
        <ele>1239.8000488281</ele>
        <time>2026-05-11T12:13:03.000Z</time>
      </trkpt>
      <trkpt lat="45.35806" lon="4.52445">
        <ele>1240</ele>
        <time>2026-05-11T12:13:04.000Z</time>
      </trkpt>
      <trkpt lat="45.35804" lon="4.52447">
        <ele>1240</ele>
        <time>2026-05-11T12:13:05.000Z</time>
      </trkpt>
      <trkpt lat="45.35803" lon="4.52447">
        <ele>1240.1999511719</ele>
        <time>2026-05-11T12:13:06.000Z</time>
      </trkpt>
      <trkpt lat="45.35801" lon="4.52448">
        <ele>1240.4000244141</ele>
        <time>2026-05-11T12:13:07.000Z</time>
      </trkpt>
      <trkpt lat="45.35799" lon="4.52449">
        <ele>1240.4000244141</ele>
        <time>2026-05-11T12:13:08.000Z</time>
      </trkpt>
      <trkpt lat="45.35798" lon="4.5245">
        <ele>1240.5999755859</ele>
        <time>2026-05-11T12:13:09.000Z</time>
      </trkpt>
      <trkpt lat="45.35797" lon="4.52451">
        <ele>1240.8000488281</ele>
        <time>2026-05-11T12:13:10.000Z</time>
      </trkpt>
      <trkpt lat="45.35795" lon="4.52452">
        <ele>1241</ele>
        <time>2026-05-11T12:13:11.000Z</time>
      </trkpt>
      <trkpt lat="45.35794" lon="4.52453">
        <ele>1241.4000244141</ele>
        <time>2026-05-11T12:13:12.000Z</time>
      </trkpt>
      <trkpt lat="45.35792" lon="4.52453">
        <ele>1241.5999755859</ele>
        <time>2026-05-11T12:13:13.000Z</time>
      </trkpt>
      <trkpt lat="45.35791" lon="4.52453">
        <ele>1241.5999755859</ele>
        <time>2026-05-11T12:13:14.000Z</time>
      </trkpt>
      <trkpt lat="45.35789" lon="4.52452">
        <ele>1241.8000488281</ele>
        <time>2026-05-11T12:13:15.000Z</time>
      </trkpt>
      <trkpt lat="45.35788" lon="4.52453">
        <ele>1241.8000488281</ele>
        <time>2026-05-11T12:13:16.000Z</time>
      </trkpt>
      <trkpt lat="45.35787" lon="4.52453">
        <ele>1241.8000488281</ele>
        <time>2026-05-11T12:13:17.000Z</time>
      </trkpt>
      <trkpt lat="45.35785" lon="4.52453">
        <ele>1242</ele>
        <time>2026-05-11T12:13:18.000Z</time>
      </trkpt>
      <trkpt lat="45.35783" lon="4.52453">
        <ele>1242</ele>
        <time>2026-05-11T12:13:19.000Z</time>
      </trkpt>
      <trkpt lat="45.35781" lon="4.52453">
        <ele>1242.1999511719</ele>
        <time>2026-05-11T12:13:20.000Z</time>
      </trkpt>
      <trkpt lat="45.3578" lon="4.52453">
        <ele>1242.1999511719</ele>
        <time>2026-05-11T12:13:21.000Z</time>
      </trkpt>
      <trkpt lat="45.35778" lon="4.52453">
        <ele>1242.1999511719</ele>
        <time>2026-05-11T12:13:22.000Z</time>
      </trkpt>
      <trkpt lat="45.35776" lon="4.52452">
        <ele>1242.1999511719</ele>
        <time>2026-05-11T12:13:23.000Z</time>
      </trkpt>
      <trkpt lat="45.35774" lon="4.52451">
        <ele>1242.4000244141</ele>
        <time>2026-05-11T12:13:24.000Z</time>
      </trkpt>
      <trkpt lat="45.35773" lon="4.52451">
        <ele>1242.4000244141</ele>
        <time>2026-05-11T12:13:25.000Z</time>
      </trkpt>
      <trkpt lat="45.35771" lon="4.5245">
        <ele>1242.4000244141</ele>
        <time>2026-05-11T12:13:26.000Z</time>
      </trkpt>
      <trkpt lat="45.3577" lon="4.52449">
        <ele>1242.4000244141</ele>
        <time>2026-05-11T12:13:27.000Z</time>
      </trkpt>
      <trkpt lat="45.35768" lon="4.52449">
        <ele>1242.4000244141</ele>
        <time>2026-05-11T12:13:28.000Z</time>
      </trkpt>
      <trkpt lat="45.35767" lon="4.52449">
        <ele>1242.4000244141</ele>
        <time>2026-05-11T12:13:29.000Z</time>
      </trkpt>
      <trkpt lat="45.35765" lon="4.52449">
        <ele>1242.5999755859</ele>
        <time>2026-05-11T12:13:30.000Z</time>
      </trkpt>
      <trkpt lat="45.35763" lon="4.52448">
        <ele>1242.5999755859</ele>
        <time>2026-05-11T12:13:31.000Z</time>
      </trkpt>
      <trkpt lat="45.35761" lon="4.52447">
        <ele>1242.5999755859</ele>
        <time>2026-05-11T12:13:32.000Z</time>
      </trkpt>
      <trkpt lat="45.35759" lon="4.52447">
        <ele>1242.8000488281</ele>
        <time>2026-05-11T12:13:33.000Z</time>
      </trkpt>
      <trkpt lat="45.35757" lon="4.52447">
        <ele>1242.8000488281</ele>
        <time>2026-05-11T12:13:34.000Z</time>
      </trkpt>
      <trkpt lat="45.35756" lon="4.52446">
        <ele>1243</ele>
        <time>2026-05-11T12:13:35.000Z</time>
      </trkpt>
      <trkpt lat="45.35754" lon="4.52445">
        <ele>1243</ele>
        <time>2026-05-11T12:13:36.000Z</time>
      </trkpt>
      <trkpt lat="45.35752" lon="4.52444">
        <ele>1243.1999511719</ele>
        <time>2026-05-11T12:13:37.000Z</time>
      </trkpt>
      <trkpt lat="45.35751" lon="4.52444">
        <ele>1243.1999511719</ele>
        <time>2026-05-11T12:13:38.000Z</time>
      </trkpt>
      <trkpt lat="45.35749" lon="4.52443">
        <ele>1243.4000244141</ele>
        <time>2026-05-11T12:13:39.000Z</time>
      </trkpt>
      <trkpt lat="45.35747" lon="4.52443">
        <ele>1243.4000244141</ele>
        <time>2026-05-11T12:13:40.000Z</time>
      </trkpt>
      <trkpt lat="45.35745" lon="4.52443">
        <ele>1243.4000244141</ele>
        <time>2026-05-11T12:13:41.000Z</time>
      </trkpt>
      <trkpt lat="45.35744" lon="4.52442">
        <ele>1243.5999755859</ele>
        <time>2026-05-11T12:13:42.000Z</time>
      </trkpt>
      <trkpt lat="45.35741" lon="4.52441">
        <ele>1243.5999755859</ele>
        <time>2026-05-11T12:13:43.000Z</time>
      </trkpt>
      <trkpt lat="45.3574" lon="4.52441">
        <ele>1243.5999755859</ele>
        <time>2026-05-11T12:13:44.000Z</time>
      </trkpt>
      <trkpt lat="45.35738" lon="4.5244">
        <ele>1243.8000488281</ele>
        <time>2026-05-11T12:13:45.000Z</time>
      </trkpt>
      <trkpt lat="45.35737" lon="4.5244">
        <ele>1243.8000488281</ele>
        <time>2026-05-11T12:13:46.000Z</time>
      </trkpt>
      <trkpt lat="45.35735" lon="4.5244">
        <ele>1243.8000488281</ele>
        <time>2026-05-11T12:13:47.000Z</time>
      </trkpt>
      <trkpt lat="45.35733" lon="4.52439">
        <ele>1243.8000488281</ele>
        <time>2026-05-11T12:13:48.000Z</time>
      </trkpt>
      <trkpt lat="45.35731" lon="4.52438">
        <ele>1244</ele>
        <time>2026-05-11T12:13:49.000Z</time>
      </trkpt>
      <trkpt lat="45.35729" lon="4.52438">
        <ele>1244</ele>
        <time>2026-05-11T12:13:50.000Z</time>
      </trkpt>
      <trkpt lat="45.35728" lon="4.52438">
        <ele>1244.1999511719</ele>
        <time>2026-05-11T12:13:51.000Z</time>
      </trkpt>
      <trkpt lat="45.35726" lon="4.52438">
        <ele>1244.1999511719</ele>
        <time>2026-05-11T12:13:52.000Z</time>
      </trkpt>
      <trkpt lat="45.35725" lon="4.52438">
        <ele>1244.4000244141</ele>
        <time>2026-05-11T12:13:53.000Z</time>
      </trkpt>
      <trkpt lat="45.35723" lon="4.52437">
        <ele>1244.4000244141</ele>
        <time>2026-05-11T12:13:54.000Z</time>
      </trkpt>
      <trkpt lat="45.35722" lon="4.52437">
        <ele>1244.5999755859</ele>
        <time>2026-05-11T12:13:55.000Z</time>
      </trkpt>
      <trkpt lat="45.3572" lon="4.52437">
        <ele>1244.8000488281</ele>
        <time>2026-05-11T12:13:56.000Z</time>
      </trkpt>
      <trkpt lat="45.35718" lon="4.52436">
        <ele>1244.8000488281</ele>
        <time>2026-05-11T12:13:57.000Z</time>
      </trkpt>
      <trkpt lat="45.35716" lon="4.52435">
        <ele>1245</ele>
        <time>2026-05-11T12:13:58.000Z</time>
      </trkpt>
      <trkpt lat="45.35714" lon="4.52435">
        <ele>1245</ele>
        <time>2026-05-11T12:13:59.000Z</time>
      </trkpt>
      <trkpt lat="45.35712" lon="4.52434">
        <ele>1245.1999511719</ele>
        <time>2026-05-11T12:14:00.000Z</time>
      </trkpt>
      <trkpt lat="45.3571" lon="4.52433">
        <ele>1245.1999511719</ele>
        <time>2026-05-11T12:14:01.000Z</time>
      </trkpt>
      <trkpt lat="45.35708" lon="4.52433">
        <ele>1245.4000244141</ele>
        <time>2026-05-11T12:14:02.000Z</time>
      </trkpt>
      <trkpt lat="45.35707" lon="4.52433">
        <ele>1245.4000244141</ele>
        <time>2026-05-11T12:14:03.000Z</time>
      </trkpt>
      <trkpt lat="45.35705" lon="4.52432">
        <ele>1245.5999755859</ele>
        <time>2026-05-11T12:14:04.000Z</time>
      </trkpt>
      <trkpt lat="45.35703" lon="4.52431">
        <ele>1245.5999755859</ele>
        <time>2026-05-11T12:14:05.000Z</time>
      </trkpt>
      <trkpt lat="45.35702" lon="4.5243">
        <ele>1245.5999755859</ele>
        <time>2026-05-11T12:14:06.000Z</time>
      </trkpt>
      <trkpt lat="45.357" lon="4.5243">
        <ele>1245.8000488281</ele>
        <time>2026-05-11T12:14:07.000Z</time>
      </trkpt>
      <trkpt lat="45.35698" lon="4.52429">
        <ele>1245.8000488281</ele>
        <time>2026-05-11T12:14:08.000Z</time>
      </trkpt>
      <trkpt lat="45.35696" lon="4.52429">
        <ele>1246</ele>
        <time>2026-05-11T12:14:09.000Z</time>
      </trkpt>
      <trkpt lat="45.35694" lon="4.52429">
        <ele>1246</ele>
        <time>2026-05-11T12:14:10.000Z</time>
      </trkpt>
      <trkpt lat="45.35692" lon="4.52429">
        <ele>1246.1999511719</ele>
        <time>2026-05-11T12:14:11.000Z</time>
      </trkpt>
      <trkpt lat="45.3569" lon="4.52428">
        <ele>1246.1999511719</ele>
        <time>2026-05-11T12:14:12.000Z</time>
      </trkpt>
      <trkpt lat="45.35688" lon="4.52427">
        <ele>1246.4000244141</ele>
        <time>2026-05-11T12:14:13.000Z</time>
      </trkpt>
      <trkpt lat="45.35686" lon="4.52427">
        <ele>1246.4000244141</ele>
        <time>2026-05-11T12:14:14.000Z</time>
      </trkpt>
      <trkpt lat="45.35685" lon="4.52426">
        <ele>1246.4000244141</ele>
        <time>2026-05-11T12:14:15.000Z</time>
      </trkpt>
      <trkpt lat="45.35683" lon="4.52425">
        <ele>1246.5999755859</ele>
        <time>2026-05-11T12:14:16.000Z</time>
      </trkpt>
      <trkpt lat="45.35681" lon="4.52425">
        <ele>1246.5999755859</ele>
        <time>2026-05-11T12:14:17.000Z</time>
      </trkpt>
      <trkpt lat="45.35679" lon="4.52425">
        <ele>1246.8000488281</ele>
        <time>2026-05-11T12:14:18.000Z</time>
      </trkpt>
      <trkpt lat="45.35678" lon="4.52425">
        <ele>1246.8000488281</ele>
        <time>2026-05-11T12:14:19.000Z</time>
      </trkpt>
      <trkpt lat="45.35676" lon="4.52424">
        <ele>1246.8000488281</ele>
        <time>2026-05-11T12:14:20.000Z</time>
      </trkpt>
      <trkpt lat="45.35674" lon="4.52424">
        <ele>1247</ele>
        <time>2026-05-11T12:14:21.000Z</time>
      </trkpt>
      <trkpt lat="45.35672" lon="4.52424">
        <ele>1247</ele>
        <time>2026-05-11T12:14:22.000Z</time>
      </trkpt>
      <trkpt lat="45.3567" lon="4.52423">
        <ele>1247</ele>
        <time>2026-05-11T12:14:23.000Z</time>
      </trkpt>
      <trkpt lat="45.35668" lon="4.52422">
        <ele>1247</ele>
        <time>2026-05-11T12:14:24.000Z</time>
      </trkpt>
      <trkpt lat="45.35667" lon="4.52421">
        <ele>1247.1999511719</ele>
        <time>2026-05-11T12:14:25.000Z</time>
      </trkpt>
      <trkpt lat="45.35665" lon="4.5242">
        <ele>1247.1999511719</ele>
        <time>2026-05-11T12:14:26.000Z</time>
      </trkpt>
      <trkpt lat="45.35663" lon="4.52419">
        <ele>1247.1999511719</ele>
        <time>2026-05-11T12:14:27.000Z</time>
      </trkpt>
      <trkpt lat="45.35661" lon="4.52418">
        <ele>1247.4000244141</ele>
        <time>2026-05-11T12:14:28.000Z</time>
      </trkpt>
      <trkpt lat="45.35658" lon="4.52418">
        <ele>1247.4000244141</ele>
        <time>2026-05-11T12:14:29.000Z</time>
      </trkpt>
      <trkpt lat="45.35657" lon="4.52418">
        <ele>1247.5999755859</ele>
        <time>2026-05-11T12:14:30.000Z</time>
      </trkpt>
      <trkpt lat="45.35655" lon="4.52417">
        <ele>1247.5999755859</ele>
        <time>2026-05-11T12:14:31.000Z</time>
      </trkpt>
      <trkpt lat="45.35654" lon="4.52417">
        <ele>1247.8000488281</ele>
        <time>2026-05-11T12:14:32.000Z</time>
      </trkpt>
      <trkpt lat="45.35652" lon="4.52417">
        <ele>1248</ele>
        <time>2026-05-11T12:14:33.000Z</time>
      </trkpt>
      <trkpt lat="45.3565" lon="4.52416">
        <ele>1248.1999511719</ele>
        <time>2026-05-11T12:14:34.000Z</time>
      </trkpt>
      <trkpt lat="45.35649" lon="4.52415">
        <ele>1248.4000244141</ele>
        <time>2026-05-11T12:14:35.000Z</time>
      </trkpt>
      <trkpt lat="45.35647" lon="4.52415">
        <ele>1248.5999755859</ele>
        <time>2026-05-11T12:14:36.000Z</time>
      </trkpt>
      <trkpt lat="45.35645" lon="4.52415">
        <ele>1248.8000488281</ele>
        <time>2026-05-11T12:14:37.000Z</time>
      </trkpt>
      <trkpt lat="45.35643" lon="4.52414">
        <ele>1249</ele>
        <time>2026-05-11T12:14:38.000Z</time>
      </trkpt>
      <trkpt lat="45.35641" lon="4.52414">
        <ele>1249.1999511719</ele>
        <time>2026-05-11T12:14:39.000Z</time>
      </trkpt>
      <trkpt lat="45.35639" lon="4.52413">
        <ele>1249.4000244141</ele>
        <time>2026-05-11T12:14:40.000Z</time>
      </trkpt>
      <trkpt lat="45.35638" lon="4.52412">
        <ele>1249.8000488281</ele>
        <time>2026-05-11T12:14:41.000Z</time>
      </trkpt>
      <trkpt lat="45.35636" lon="4.52412">
        <ele>1250</ele>
        <time>2026-05-11T12:14:42.000Z</time>
      </trkpt>
      <trkpt lat="45.35634" lon="4.52411">
        <ele>1250.1999511719</ele>
        <time>2026-05-11T12:14:43.000Z</time>
      </trkpt>
      <trkpt lat="45.35633" lon="4.52411">
        <ele>1250.4000244141</ele>
        <time>2026-05-11T12:14:44.000Z</time>
      </trkpt>
      <trkpt lat="45.35631" lon="4.5241">
        <ele>1250.8000488281</ele>
        <time>2026-05-11T12:14:45.000Z</time>
      </trkpt>
      <trkpt lat="45.35629" lon="4.5241">
        <ele>1251</ele>
        <time>2026-05-11T12:14:46.000Z</time>
      </trkpt>
      <trkpt lat="45.35627" lon="4.5241">
        <ele>1251.1999511719</ele>
        <time>2026-05-11T12:14:47.000Z</time>
      </trkpt>
      <trkpt lat="45.35625" lon="4.5241">
        <ele>1251.4000244141</ele>
        <time>2026-05-11T12:14:48.000Z</time>
      </trkpt>
      <trkpt lat="45.35623" lon="4.5241">
        <ele>1251.5999755859</ele>
        <time>2026-05-11T12:14:49.000Z</time>
      </trkpt>
      <trkpt lat="45.35622" lon="4.5241">
        <ele>1251.8000488281</ele>
        <time>2026-05-11T12:14:50.000Z</time>
      </trkpt>
      <trkpt lat="45.3562" lon="4.52409">
        <ele>1251.8000488281</ele>
        <time>2026-05-11T12:14:51.000Z</time>
      </trkpt>
      <trkpt lat="45.35619" lon="4.52408">
        <ele>1252</ele>
        <time>2026-05-11T12:14:52.000Z</time>
      </trkpt>
      <trkpt lat="45.35617" lon="4.52407">
        <ele>1252.1999511719</ele>
        <time>2026-05-11T12:14:53.000Z</time>
      </trkpt>
      <trkpt lat="45.35615" lon="4.52407">
        <ele>1252.4000244141</ele>
        <time>2026-05-11T12:14:54.000Z</time>
      </trkpt>
      <trkpt lat="45.35613" lon="4.52407">
        <ele>1252.5999755859</ele>
        <time>2026-05-11T12:14:55.000Z</time>
      </trkpt>
      <trkpt lat="45.35611" lon="4.52407">
        <ele>1252.5999755859</ele>
        <time>2026-05-11T12:14:56.000Z</time>
      </trkpt>
      <trkpt lat="45.35609" lon="4.52406">
        <ele>1252.8000488281</ele>
        <time>2026-05-11T12:14:57.000Z</time>
      </trkpt>
      <trkpt lat="45.35607" lon="4.52406">
        <ele>1253</ele>
        <time>2026-05-11T12:14:58.000Z</time>
      </trkpt>
      <trkpt lat="45.35606" lon="4.52404">
        <ele>1253.1999511719</ele>
        <time>2026-05-11T12:14:59.000Z</time>
      </trkpt>
      <trkpt lat="45.35605" lon="4.52404">
        <ele>1253.4000244141</ele>
        <time>2026-05-11T12:15:00.000Z</time>
      </trkpt>
      <trkpt lat="45.35603" lon="4.52404">
        <ele>1253.4000244141</ele>
        <time>2026-05-11T12:15:01.000Z</time>
      </trkpt>
      <trkpt lat="45.35601" lon="4.52403">
        <ele>1253.5999755859</ele>
        <time>2026-05-11T12:15:02.000Z</time>
      </trkpt>
      <trkpt lat="45.35599" lon="4.52402">
        <ele>1253.8000488281</ele>
        <time>2026-05-11T12:15:03.000Z</time>
      </trkpt>
      <trkpt lat="45.35597" lon="4.52402">
        <ele>1254</ele>
        <time>2026-05-11T12:15:04.000Z</time>
      </trkpt>
      <trkpt lat="45.35595" lon="4.52402">
        <ele>1254.1999511719</ele>
        <time>2026-05-11T12:15:05.000Z</time>
      </trkpt>
      <trkpt lat="45.35594" lon="4.52401">
        <ele>1254.4000244141</ele>
        <time>2026-05-11T12:15:06.000Z</time>
      </trkpt>
      <trkpt lat="45.35593" lon="4.52401">
        <ele>1254.5999755859</ele>
        <time>2026-05-11T12:15:07.000Z</time>
      </trkpt>
      <trkpt lat="45.35591" lon="4.52401">
        <ele>1254.5999755859</ele>
        <time>2026-05-11T12:15:08.000Z</time>
      </trkpt>
      <trkpt lat="45.35589" lon="4.52402">
        <ele>1254.8000488281</ele>
        <time>2026-05-11T12:15:09.000Z</time>
      </trkpt>
      <trkpt lat="45.35587" lon="4.52402">
        <ele>1255</ele>
        <time>2026-05-11T12:15:10.000Z</time>
      </trkpt>
      <trkpt lat="45.35586" lon="4.52401">
        <ele>1255.1999511719</ele>
        <time>2026-05-11T12:15:11.000Z</time>
      </trkpt>
      <trkpt lat="45.35584" lon="4.524">
        <ele>1255.4000244141</ele>
        <time>2026-05-11T12:15:12.000Z</time>
      </trkpt>
      <trkpt lat="45.35583" lon="4.524">
        <ele>1255.8000488281</ele>
        <time>2026-05-11T12:15:13.000Z</time>
      </trkpt>
      <trkpt lat="45.35581" lon="4.52399">
        <ele>1256</ele>
        <time>2026-05-11T12:15:14.000Z</time>
      </trkpt>
      <trkpt lat="45.35579" lon="4.52399">
        <ele>1256.1999511719</ele>
        <time>2026-05-11T12:15:15.000Z</time>
      </trkpt>
      <trkpt lat="45.35577" lon="4.52399">
        <ele>1256.4000244141</ele>
        <time>2026-05-11T12:15:16.000Z</time>
      </trkpt>
      <trkpt lat="45.35575" lon="4.52398">
        <ele>1256.8000488281</ele>
        <time>2026-05-11T12:15:17.000Z</time>
      </trkpt>
      <trkpt lat="45.35574" lon="4.52398">
        <ele>1257</ele>
        <time>2026-05-11T12:15:18.000Z</time>
      </trkpt>
      <trkpt lat="45.35572" lon="4.52397">
        <ele>1257.1999511719</ele>
        <time>2026-05-11T12:15:19.000Z</time>
      </trkpt>
      <trkpt lat="45.35571" lon="4.52397">
        <ele>1257.4000244141</ele>
        <time>2026-05-11T12:15:20.000Z</time>
      </trkpt>
      <trkpt lat="45.35569" lon="4.52397">
        <ele>1257.5999755859</ele>
        <time>2026-05-11T12:15:21.000Z</time>
      </trkpt>
      <trkpt lat="45.35567" lon="4.52397">
        <ele>1258</ele>
        <time>2026-05-11T12:15:22.000Z</time>
      </trkpt>
      <trkpt lat="45.35566" lon="4.52396">
        <ele>1258.1999511719</ele>
        <time>2026-05-11T12:15:23.000Z</time>
      </trkpt>
      <trkpt lat="45.35564" lon="4.52395">
        <ele>1258.5999755859</ele>
        <time>2026-05-11T12:15:24.000Z</time>
      </trkpt>
      <trkpt lat="45.35562" lon="4.52395">
        <ele>1258.8000488281</ele>
        <time>2026-05-11T12:15:25.000Z</time>
      </trkpt>
      <trkpt lat="45.35561" lon="4.52395">
        <ele>1259</ele>
        <time>2026-05-11T12:15:26.000Z</time>
      </trkpt>
      <trkpt lat="45.35559" lon="4.52396">
        <ele>1259.1999511719</ele>
        <time>2026-05-11T12:15:27.000Z</time>
      </trkpt>
      <trkpt lat="45.35557" lon="4.52396">
        <ele>1259.4000244141</ele>
        <time>2026-05-11T12:15:28.000Z</time>
      </trkpt>
      <trkpt lat="45.35555" lon="4.52396">
        <ele>1259.5999755859</ele>
        <time>2026-05-11T12:15:29.000Z</time>
      </trkpt>
      <trkpt lat="45.35553" lon="4.52396">
        <ele>1259.8000488281</ele>
        <time>2026-05-11T12:15:30.000Z</time>
      </trkpt>
      <trkpt lat="45.35551" lon="4.52395">
        <ele>1260</ele>
        <time>2026-05-11T12:15:31.000Z</time>
      </trkpt>
      <trkpt lat="45.3555" lon="4.52394">
        <ele>1260.1999511719</ele>
        <time>2026-05-11T12:15:32.000Z</time>
      </trkpt>
      <trkpt lat="45.35548" lon="4.52394">
        <ele>1260.4000244141</ele>
        <time>2026-05-11T12:15:33.000Z</time>
      </trkpt>
      <trkpt lat="45.35546" lon="4.52393">
        <ele>1260.5999755859</ele>
        <time>2026-05-11T12:15:34.000Z</time>
      </trkpt>
      <trkpt lat="45.35544" lon="4.52393">
        <ele>1260.8000488281</ele>
        <time>2026-05-11T12:15:35.000Z</time>
      </trkpt>
      <trkpt lat="45.35542" lon="4.52392">
        <ele>1261</ele>
        <time>2026-05-11T12:15:36.000Z</time>
      </trkpt>
      <trkpt lat="45.35541" lon="4.52391">
        <ele>1261.1999511719</ele>
        <time>2026-05-11T12:15:37.000Z</time>
      </trkpt>
      <trkpt lat="45.35539" lon="4.52391">
        <ele>1261.4000244141</ele>
        <time>2026-05-11T12:15:38.000Z</time>
      </trkpt>
      <trkpt lat="45.35538" lon="4.5239">
        <ele>1261.5999755859</ele>
        <time>2026-05-11T12:15:39.000Z</time>
      </trkpt>
      <trkpt lat="45.35536" lon="4.52389">
        <ele>1261.8000488281</ele>
        <time>2026-05-11T12:15:40.000Z</time>
      </trkpt>
      <trkpt lat="45.35535" lon="4.52389">
        <ele>1262</ele>
        <time>2026-05-11T12:15:41.000Z</time>
      </trkpt>
      <trkpt lat="45.35533" lon="4.52388">
        <ele>1262.1999511719</ele>
        <time>2026-05-11T12:15:42.000Z</time>
      </trkpt>
      <trkpt lat="45.35531" lon="4.52388">
        <ele>1262.4000244141</ele>
        <time>2026-05-11T12:15:43.000Z</time>
      </trkpt>
      <trkpt lat="45.35529" lon="4.52387">
        <ele>1262.5999755859</ele>
        <time>2026-05-11T12:15:44.000Z</time>
      </trkpt>
      <trkpt lat="45.35528" lon="4.52386">
        <ele>1262.8000488281</ele>
        <time>2026-05-11T12:15:45.000Z</time>
      </trkpt>
      <trkpt lat="45.35526" lon="4.52385">
        <ele>1263.1999511719</ele>
        <time>2026-05-11T12:15:46.000Z</time>
      </trkpt>
      <trkpt lat="45.35525" lon="4.52385">
        <ele>1263.4000244141</ele>
        <time>2026-05-11T12:15:47.000Z</time>
      </trkpt>
      <trkpt lat="45.35523" lon="4.52383">
        <ele>1263.5999755859</ele>
        <time>2026-05-11T12:15:48.000Z</time>
      </trkpt>
      <trkpt lat="45.35521" lon="4.52383">
        <ele>1263.8000488281</ele>
        <time>2026-05-11T12:15:49.000Z</time>
      </trkpt>
      <trkpt lat="45.3552" lon="4.52382">
        <ele>1264</ele>
        <time>2026-05-11T12:15:50.000Z</time>
      </trkpt>
      <trkpt lat="45.35518" lon="4.52382">
        <ele>1264.1999511719</ele>
        <time>2026-05-11T12:15:51.000Z</time>
      </trkpt>
      <trkpt lat="45.35517" lon="4.52382">
        <ele>1264.4000244141</ele>
        <time>2026-05-11T12:15:52.000Z</time>
      </trkpt>
      <trkpt lat="45.35515" lon="4.52381">
        <ele>1264.5999755859</ele>
        <time>2026-05-11T12:15:53.000Z</time>
      </trkpt>
      <trkpt lat="45.35513" lon="4.52381">
        <ele>1264.8000488281</ele>
        <time>2026-05-11T12:15:54.000Z</time>
      </trkpt>
      <trkpt lat="45.35512" lon="4.5238">
        <ele>1265</ele>
        <time>2026-05-11T12:15:55.000Z</time>
      </trkpt>
      <trkpt lat="45.3551" lon="4.52379">
        <ele>1265</ele>
        <time>2026-05-11T12:15:56.000Z</time>
      </trkpt>
      <trkpt lat="45.35508" lon="4.52379">
        <ele>1265.1999511719</ele>
        <time>2026-05-11T12:15:57.000Z</time>
      </trkpt>
      <trkpt lat="45.35506" lon="4.52379">
        <ele>1265.1999511719</ele>
        <time>2026-05-11T12:15:58.000Z</time>
      </trkpt>
      <trkpt lat="45.35505" lon="4.52379">
        <ele>1265.4000244141</ele>
        <time>2026-05-11T12:15:59.000Z</time>
      </trkpt>
      <trkpt lat="45.35504" lon="4.52378">
        <ele>1265.4000244141</ele>
        <time>2026-05-11T12:16:00.000Z</time>
      </trkpt>
      <trkpt lat="45.35502" lon="4.52378">
        <ele>1265.5999755859</ele>
        <time>2026-05-11T12:16:01.000Z</time>
      </trkpt>
      <trkpt lat="45.355" lon="4.52378">
        <ele>1265.5999755859</ele>
        <time>2026-05-11T12:16:02.000Z</time>
      </trkpt>
      <trkpt lat="45.35499" lon="4.52378">
        <ele>1265.8000488281</ele>
        <time>2026-05-11T12:16:03.000Z</time>
      </trkpt>
      <trkpt lat="45.35498" lon="4.52378">
        <ele>1265.8000488281</ele>
        <time>2026-05-11T12:16:04.000Z</time>
      </trkpt>
      <trkpt lat="45.35496" lon="4.52378">
        <ele>1266</ele>
        <time>2026-05-11T12:16:05.000Z</time>
      </trkpt>
      <trkpt lat="45.35495" lon="4.52378">
        <ele>1266.1999511719</ele>
        <time>2026-05-11T12:16:06.000Z</time>
      </trkpt>
      <trkpt lat="45.35493" lon="4.52378">
        <ele>1266.1999511719</ele>
        <time>2026-05-11T12:16:07.000Z</time>
      </trkpt>
      <trkpt lat="45.35491" lon="4.52377">
        <ele>1266.4000244141</ele>
        <time>2026-05-11T12:16:08.000Z</time>
      </trkpt>
      <trkpt lat="45.35489" lon="4.52377">
        <ele>1266.5999755859</ele>
        <time>2026-05-11T12:16:09.000Z</time>
      </trkpt>
      <trkpt lat="45.35487" lon="4.52377">
        <ele>1266.8000488281</ele>
        <time>2026-05-11T12:16:10.000Z</time>
      </trkpt>
      <trkpt lat="45.35485" lon="4.52376">
        <ele>1267</ele>
        <time>2026-05-11T12:16:11.000Z</time>
      </trkpt>
      <trkpt lat="45.35484" lon="4.52376">
        <ele>1267</ele>
        <time>2026-05-11T12:16:12.000Z</time>
      </trkpt>
      <trkpt lat="45.35482" lon="4.52375">
        <ele>1267.1999511719</ele>
        <time>2026-05-11T12:16:13.000Z</time>
      </trkpt>
      <trkpt lat="45.35481" lon="4.52375">
        <ele>1267.4000244141</ele>
        <time>2026-05-11T12:16:14.000Z</time>
      </trkpt>
      <trkpt lat="45.35478" lon="4.52374">
        <ele>1267.5999755859</ele>
        <time>2026-05-11T12:16:15.000Z</time>
      </trkpt>
      <trkpt lat="45.35476" lon="4.52374">
        <ele>1267.5999755859</ele>
        <time>2026-05-11T12:16:16.000Z</time>
      </trkpt>
      <trkpt lat="45.35474" lon="4.52373">
        <ele>1267.8000488281</ele>
        <time>2026-05-11T12:16:17.000Z</time>
      </trkpt>
      <trkpt lat="45.35472" lon="4.52372">
        <ele>1268</ele>
        <time>2026-05-11T12:16:18.000Z</time>
      </trkpt>
      <trkpt lat="45.3547" lon="4.52371">
        <ele>1268.1999511719</ele>
        <time>2026-05-11T12:16:19.000Z</time>
      </trkpt>
      <trkpt lat="45.35468" lon="4.5237">
        <ele>1268.1999511719</ele>
        <time>2026-05-11T12:16:20.000Z</time>
      </trkpt>
      <trkpt lat="45.35466" lon="4.52369">
        <ele>1268.4000244141</ele>
        <time>2026-05-11T12:16:21.000Z</time>
      </trkpt>
      <trkpt lat="45.35464" lon="4.52369">
        <ele>1268.5999755859</ele>
        <time>2026-05-11T12:16:22.000Z</time>
      </trkpt>
      <trkpt lat="45.35462" lon="4.52368">
        <ele>1268.8000488281</ele>
        <time>2026-05-11T12:16:23.000Z</time>
      </trkpt>
      <trkpt lat="45.3546" lon="4.52368">
        <ele>1269</ele>
        <time>2026-05-11T12:16:24.000Z</time>
      </trkpt>
      <trkpt lat="45.35458" lon="4.52367">
        <ele>1269.1999511719</ele>
        <time>2026-05-11T12:16:25.000Z</time>
      </trkpt>
      <trkpt lat="45.35457" lon="4.52367">
        <ele>1269.4000244141</ele>
        <time>2026-05-11T12:16:26.000Z</time>
      </trkpt>
      <trkpt lat="45.35455" lon="4.52366">
        <ele>1269.5999755859</ele>
        <time>2026-05-11T12:16:27.000Z</time>
      </trkpt>
      <trkpt lat="45.35453" lon="4.52367">
        <ele>1269.5999755859</ele>
        <time>2026-05-11T12:16:28.000Z</time>
      </trkpt>
      <trkpt lat="45.35452" lon="4.52366">
        <ele>1269.8000488281</ele>
        <time>2026-05-11T12:16:29.000Z</time>
      </trkpt>
      <trkpt lat="45.35449" lon="4.52366">
        <ele>1269.8000488281</ele>
        <time>2026-05-11T12:16:30.000Z</time>
      </trkpt>
      <trkpt lat="45.35448" lon="4.52366">
        <ele>1270</ele>
        <time>2026-05-11T12:16:31.000Z</time>
      </trkpt>
      <trkpt lat="45.35446" lon="4.52366">
        <ele>1270.1999511719</ele>
        <time>2026-05-11T12:16:32.000Z</time>
      </trkpt>
      <trkpt lat="45.35444" lon="4.52365">
        <ele>1270.1999511719</ele>
        <time>2026-05-11T12:16:33.000Z</time>
      </trkpt>
      <trkpt lat="45.35443" lon="4.52364">
        <ele>1270.4000244141</ele>
        <time>2026-05-11T12:16:34.000Z</time>
      </trkpt>
      <trkpt lat="45.35441" lon="4.52364">
        <ele>1270.4000244141</ele>
        <time>2026-05-11T12:16:35.000Z</time>
      </trkpt>
      <trkpt lat="45.35439" lon="4.52363">
        <ele>1270.5999755859</ele>
        <time>2026-05-11T12:16:36.000Z</time>
      </trkpt>
      <trkpt lat="45.35437" lon="4.52362">
        <ele>1270.5999755859</ele>
        <time>2026-05-11T12:16:37.000Z</time>
      </trkpt>
      <trkpt lat="45.35436" lon="4.52362">
        <ele>1270.8000488281</ele>
        <time>2026-05-11T12:16:38.000Z</time>
      </trkpt>
      <trkpt lat="45.35434" lon="4.52361">
        <ele>1270.8000488281</ele>
        <time>2026-05-11T12:16:39.000Z</time>
      </trkpt>
      <trkpt lat="45.35432" lon="4.52361">
        <ele>1270.8000488281</ele>
        <time>2026-05-11T12:16:40.000Z</time>
      </trkpt>
      <trkpt lat="45.35431" lon="4.5236">
        <ele>1271</ele>
        <time>2026-05-11T12:16:41.000Z</time>
      </trkpt>
      <trkpt lat="45.35429" lon="4.5236">
        <ele>1271</ele>
        <time>2026-05-11T12:16:42.000Z</time>
      </trkpt>
      <trkpt lat="45.35427" lon="4.5236">
        <ele>1271</ele>
        <time>2026-05-11T12:16:43.000Z</time>
      </trkpt>
      <trkpt lat="45.35426" lon="4.52359">
        <ele>1271</ele>
        <time>2026-05-11T12:16:44.000Z</time>
      </trkpt>
      <trkpt lat="45.35424" lon="4.52359">
        <ele>1271</ele>
        <time>2026-05-11T12:16:45.000Z</time>
      </trkpt>
      <trkpt lat="45.35423" lon="4.52359">
        <ele>1271.1999511719</ele>
        <time>2026-05-11T12:16:46.000Z</time>
      </trkpt>
      <trkpt lat="45.35421" lon="4.52358">
        <ele>1271.1999511719</ele>
        <time>2026-05-11T12:16:47.000Z</time>
      </trkpt>
      <trkpt lat="45.35419" lon="4.52357">
        <ele>1271.1999511719</ele>
        <time>2026-05-11T12:16:48.000Z</time>
      </trkpt>
      <trkpt lat="45.35417" lon="4.52357">
        <ele>1271.1999511719</ele>
        <time>2026-05-11T12:16:49.000Z</time>
      </trkpt>
      <trkpt lat="45.35415" lon="4.52357">
        <ele>1271.1999511719</ele>
        <time>2026-05-11T12:16:50.000Z</time>
      </trkpt>
      <trkpt lat="45.35413" lon="4.52357">
        <ele>1271.1999511719</ele>
        <time>2026-05-11T12:16:51.000Z</time>
      </trkpt>
      <trkpt lat="45.35411" lon="4.52357">
        <ele>1271.1999511719</ele>
        <time>2026-05-11T12:16:52.000Z</time>
      </trkpt>
      <trkpt lat="45.35409" lon="4.52358">
        <ele>1271.1999511719</ele>
        <time>2026-05-11T12:16:53.000Z</time>
      </trkpt>
      <trkpt lat="45.35407" lon="4.52358">
        <ele>1271.1999511719</ele>
        <time>2026-05-11T12:16:54.000Z</time>
      </trkpt>
      <trkpt lat="45.35404" lon="4.52359">
        <ele>1271.1999511719</ele>
        <time>2026-05-11T12:16:55.000Z</time>
      </trkpt>
      <trkpt lat="45.35402" lon="4.52359">
        <ele>1271.1999511719</ele>
        <time>2026-05-11T12:16:56.000Z</time>
      </trkpt>
      <trkpt lat="45.354" lon="4.52358">
        <ele>1271.1999511719</ele>
        <time>2026-05-11T12:16:57.000Z</time>
      </trkpt>
      <trkpt lat="45.35399" lon="4.52358">
        <ele>1271.1999511719</ele>
        <time>2026-05-11T12:16:58.000Z</time>
      </trkpt>
      <trkpt lat="45.35397" lon="4.52358">
        <ele>1271.1999511719</ele>
        <time>2026-05-11T12:16:59.000Z</time>
      </trkpt>
      <trkpt lat="45.35395" lon="4.52358">
        <ele>1271.1999511719</ele>
        <time>2026-05-11T12:17:00.000Z</time>
      </trkpt>
      <trkpt lat="45.35393" lon="4.52358">
        <ele>1271.1999511719</ele>
        <time>2026-05-11T12:17:01.000Z</time>
      </trkpt>
      <trkpt lat="45.35391" lon="4.52359">
        <ele>1271.1999511719</ele>
        <time>2026-05-11T12:17:02.000Z</time>
      </trkpt>
      <trkpt lat="45.35389" lon="4.52359">
        <ele>1271.1999511719</ele>
        <time>2026-05-11T12:17:03.000Z</time>
      </trkpt>
      <trkpt lat="45.35387" lon="4.5236">
        <ele>1271.1999511719</ele>
        <time>2026-05-11T12:17:04.000Z</time>
      </trkpt>
      <trkpt lat="45.35385" lon="4.5236">
        <ele>1271.1999511719</ele>
        <time>2026-05-11T12:17:05.000Z</time>
      </trkpt>
      <trkpt lat="45.35383" lon="4.52359">
        <ele>1271</ele>
        <time>2026-05-11T12:17:06.000Z</time>
      </trkpt>
      <trkpt lat="45.3538" lon="4.52359">
        <ele>1271</ele>
        <time>2026-05-11T12:17:07.000Z</time>
      </trkpt>
      <trkpt lat="45.35377" lon="4.52359">
        <ele>1271</ele>
        <time>2026-05-11T12:17:08.000Z</time>
      </trkpt>
      <trkpt lat="45.35375" lon="4.52359">
        <ele>1270.8000488281</ele>
        <time>2026-05-11T12:17:09.000Z</time>
      </trkpt>
      <trkpt lat="45.35372" lon="4.5236">
        <ele>1270.8000488281</ele>
        <time>2026-05-11T12:17:10.000Z</time>
      </trkpt>
      <trkpt lat="45.3537" lon="4.5236">
        <ele>1270.8000488281</ele>
        <time>2026-05-11T12:17:11.000Z</time>
      </trkpt>
      <trkpt lat="45.35367" lon="4.52359">
        <ele>1270.8000488281</ele>
        <time>2026-05-11T12:17:12.000Z</time>
      </trkpt>
      <trkpt lat="45.35365" lon="4.52358">
        <ele>1270.8000488281</ele>
        <time>2026-05-11T12:17:13.000Z</time>
      </trkpt>
      <trkpt lat="45.35362" lon="4.52358">
        <ele>1270.5999755859</ele>
        <time>2026-05-11T12:17:14.000Z</time>
      </trkpt>
      <trkpt lat="45.35359" lon="4.52357">
        <ele>1270.5999755859</ele>
        <time>2026-05-11T12:17:15.000Z</time>
      </trkpt>
      <trkpt lat="45.35356" lon="4.52356">
        <ele>1270.5999755859</ele>
        <time>2026-05-11T12:17:16.000Z</time>
      </trkpt>
      <trkpt lat="45.35353" lon="4.52354">
        <ele>1270.4000244141</ele>
        <time>2026-05-11T12:17:17.000Z</time>
      </trkpt>
      <trkpt lat="45.3535" lon="4.52352">
        <ele>1270.1999511719</ele>
        <time>2026-05-11T12:17:18.000Z</time>
      </trkpt>
      <trkpt lat="45.35346" lon="4.5235">
        <ele>1270</ele>
        <time>2026-05-11T12:17:19.000Z</time>
      </trkpt>
      <trkpt lat="45.35343" lon="4.52348">
        <ele>1269.8000488281</ele>
        <time>2026-05-11T12:17:20.000Z</time>
      </trkpt>
      <trkpt lat="45.35339" lon="4.52346">
        <ele>1269.8000488281</ele>
        <time>2026-05-11T12:17:21.000Z</time>
      </trkpt>
      <trkpt lat="45.35335" lon="4.52345">
        <ele>1269.8000488281</ele>
        <time>2026-05-11T12:17:22.000Z</time>
      </trkpt>
      <trkpt lat="45.35331" lon="4.52345">
        <ele>1269.5999755859</ele>
        <time>2026-05-11T12:17:23.000Z</time>
      </trkpt>
      <trkpt lat="45.35328" lon="4.52343">
        <ele>1269.5999755859</ele>
        <time>2026-05-11T12:17:24.000Z</time>
      </trkpt>
      <trkpt lat="45.35325" lon="4.52342">
        <ele>1269.4000244141</ele>
        <time>2026-05-11T12:17:25.000Z</time>
      </trkpt>
      <trkpt lat="45.35321" lon="4.52342">
        <ele>1269.4000244141</ele>
        <time>2026-05-11T12:17:26.000Z</time>
      </trkpt>
      <trkpt lat="45.35318" lon="4.52341">
        <ele>1269.1999511719</ele>
        <time>2026-05-11T12:17:27.000Z</time>
      </trkpt>
      <trkpt lat="45.35315" lon="4.5234">
        <ele>1269.1999511719</ele>
        <time>2026-05-11T12:17:28.000Z</time>
      </trkpt>
      <trkpt lat="45.35312" lon="4.5234">
        <ele>1269.1999511719</ele>
        <time>2026-05-11T12:17:29.000Z</time>
      </trkpt>
      <trkpt lat="45.3531" lon="4.52339">
        <ele>1269.1999511719</ele>
        <time>2026-05-11T12:17:30.000Z</time>
      </trkpt>
      <trkpt lat="45.35307" lon="4.52338">
        <ele>1269</ele>
        <time>2026-05-11T12:17:31.000Z</time>
      </trkpt>
      <trkpt lat="45.35304" lon="4.52337">
        <ele>1269</ele>
        <time>2026-05-11T12:17:32.000Z</time>
      </trkpt>
      <trkpt lat="45.35301" lon="4.52336">
        <ele>1269</ele>
        <time>2026-05-11T12:17:33.000Z</time>
      </trkpt>
      <trkpt lat="45.35298" lon="4.52335">
        <ele>1269</ele>
        <time>2026-05-11T12:17:34.000Z</time>
      </trkpt>
      <trkpt lat="45.35295" lon="4.52334">
        <ele>1269</ele>
        <time>2026-05-11T12:17:35.000Z</time>
      </trkpt>
      <trkpt lat="45.35292" lon="4.52333">
        <ele>1269</ele>
        <time>2026-05-11T12:17:36.000Z</time>
      </trkpt>
      <trkpt lat="45.3529" lon="4.52332">
        <ele>1269</ele>
        <time>2026-05-11T12:17:37.000Z</time>
      </trkpt>
      <trkpt lat="45.35287" lon="4.52332">
        <ele>1269</ele>
        <time>2026-05-11T12:17:38.000Z</time>
      </trkpt>
      <trkpt lat="45.35284" lon="4.52331">
        <ele>1269</ele>
        <time>2026-05-11T12:17:39.000Z</time>
      </trkpt>
      <trkpt lat="45.35281" lon="4.52331">
        <ele>1269</ele>
        <time>2026-05-11T12:17:40.000Z</time>
      </trkpt>
      <trkpt lat="45.35279" lon="4.5233">
        <ele>1269</ele>
        <time>2026-05-11T12:17:41.000Z</time>
      </trkpt>
      <trkpt lat="45.35275" lon="4.5233">
        <ele>1269</ele>
        <time>2026-05-11T12:17:42.000Z</time>
      </trkpt>
      <trkpt lat="45.35272" lon="4.52328">
        <ele>1269</ele>
        <time>2026-05-11T12:17:43.000Z</time>
      </trkpt>
      <trkpt lat="45.35268" lon="4.52327">
        <ele>1269</ele>
        <time>2026-05-11T12:17:44.000Z</time>
      </trkpt>
      <trkpt lat="45.35265" lon="4.52326">
        <ele>1269</ele>
        <time>2026-05-11T12:17:45.000Z</time>
      </trkpt>
      <trkpt lat="45.35261" lon="4.52325">
        <ele>1269</ele>
        <time>2026-05-11T12:17:46.000Z</time>
      </trkpt>
      <trkpt lat="45.35258" lon="4.52324">
        <ele>1269</ele>
        <time>2026-05-11T12:17:47.000Z</time>
      </trkpt>
      <trkpt lat="45.35254" lon="4.52323">
        <ele>1269</ele>
        <time>2026-05-11T12:17:48.000Z</time>
      </trkpt>
      <trkpt lat="45.35251" lon="4.52322">
        <ele>1269</ele>
        <time>2026-05-11T12:17:49.000Z</time>
      </trkpt>
      <trkpt lat="45.35247" lon="4.52322">
        <ele>1269</ele>
        <time>2026-05-11T12:17:50.000Z</time>
      </trkpt>
      <trkpt lat="45.35244" lon="4.52321">
        <ele>1269</ele>
        <time>2026-05-11T12:17:51.000Z</time>
      </trkpt>
      <trkpt lat="45.35241" lon="4.5232">
        <ele>1268.8000488281</ele>
        <time>2026-05-11T12:17:52.000Z</time>
      </trkpt>
      <trkpt lat="45.35239" lon="4.52319">
        <ele>1268.8000488281</ele>
        <time>2026-05-11T12:17:53.000Z</time>
      </trkpt>
      <trkpt lat="45.35236" lon="4.52319">
        <ele>1268.8000488281</ele>
        <time>2026-05-11T12:17:54.000Z</time>
      </trkpt>
      <trkpt lat="45.35234" lon="4.52318">
        <ele>1268.8000488281</ele>
        <time>2026-05-11T12:17:55.000Z</time>
      </trkpt>
      <trkpt lat="45.35231" lon="4.52318">
        <ele>1268.8000488281</ele>
        <time>2026-05-11T12:17:56.000Z</time>
      </trkpt>
      <trkpt lat="45.35228" lon="4.52318">
        <ele>1269</ele>
        <time>2026-05-11T12:17:57.000Z</time>
      </trkpt>
      <trkpt lat="45.35225" lon="4.52317">
        <ele>1269</ele>
        <time>2026-05-11T12:17:58.000Z</time>
      </trkpt>
      <trkpt lat="45.35221" lon="4.52317">
        <ele>1269</ele>
        <time>2026-05-11T12:17:59.000Z</time>
      </trkpt>
      <trkpt lat="45.35218" lon="4.52316">
        <ele>1269</ele>
        <time>2026-05-11T12:18:00.000Z</time>
      </trkpt>
      <trkpt lat="45.35214" lon="4.52316">
        <ele>1269</ele>
        <time>2026-05-11T12:18:01.000Z</time>
      </trkpt>
      <trkpt lat="45.35211" lon="4.52316">
        <ele>1269</ele>
        <time>2026-05-11T12:18:02.000Z</time>
      </trkpt>
      <trkpt lat="45.35208" lon="4.52315">
        <ele>1268.8000488281</ele>
        <time>2026-05-11T12:18:03.000Z</time>
      </trkpt>
      <trkpt lat="45.35205" lon="4.52314">
        <ele>1268.8000488281</ele>
        <time>2026-05-11T12:18:04.000Z</time>
      </trkpt>
      <trkpt lat="45.35203" lon="4.52314">
        <ele>1268.8000488281</ele>
        <time>2026-05-11T12:18:05.000Z</time>
      </trkpt>
      <trkpt lat="45.352" lon="4.52314">
        <ele>1268.8000488281</ele>
        <time>2026-05-11T12:18:06.000Z</time>
      </trkpt>
      <trkpt lat="45.35197" lon="4.52313">
        <ele>1268.8000488281</ele>
        <time>2026-05-11T12:18:07.000Z</time>
      </trkpt>
      <trkpt lat="45.35194" lon="4.52313">
        <ele>1268.8000488281</ele>
        <time>2026-05-11T12:18:08.000Z</time>
      </trkpt>
      <trkpt lat="45.35191" lon="4.52313">
        <ele>1269</ele>
        <time>2026-05-11T12:18:09.000Z</time>
      </trkpt>
      <trkpt lat="45.35188" lon="4.52313">
        <ele>1269</ele>
        <time>2026-05-11T12:18:10.000Z</time>
      </trkpt>
      <trkpt lat="45.35185" lon="4.52313">
        <ele>1269</ele>
        <time>2026-05-11T12:18:11.000Z</time>
      </trkpt>
      <trkpt lat="45.35182" lon="4.52313">
        <ele>1269</ele>
        <time>2026-05-11T12:18:12.000Z</time>
      </trkpt>
      <trkpt lat="45.35179" lon="4.52313">
        <ele>1269</ele>
        <time>2026-05-11T12:18:13.000Z</time>
      </trkpt>
      <trkpt lat="45.35176" lon="4.52313">
        <ele>1269.1999511719</ele>
        <time>2026-05-11T12:18:14.000Z</time>
      </trkpt>
      <trkpt lat="45.35173" lon="4.52312">
        <ele>1269.1999511719</ele>
        <time>2026-05-11T12:18:15.000Z</time>
      </trkpt>
      <trkpt lat="45.3517" lon="4.52312">
        <ele>1269.1999511719</ele>
        <time>2026-05-11T12:18:16.000Z</time>
      </trkpt>
      <trkpt lat="45.35167" lon="4.52312">
        <ele>1269.4000244141</ele>
        <time>2026-05-11T12:18:17.000Z</time>
      </trkpt>
      <trkpt lat="45.35164" lon="4.52311">
        <ele>1269.4000244141</ele>
        <time>2026-05-11T12:18:18.000Z</time>
      </trkpt>
      <trkpt lat="45.35161" lon="4.52309">
        <ele>1269.4000244141</ele>
        <time>2026-05-11T12:18:19.000Z</time>
      </trkpt>
      <trkpt lat="45.35158" lon="4.52308">
        <ele>1269.4000244141</ele>
        <time>2026-05-11T12:18:20.000Z</time>
      </trkpt>
      <trkpt lat="45.35154" lon="4.52307">
        <ele>1269.4000244141</ele>
        <time>2026-05-11T12:18:21.000Z</time>
      </trkpt>
      <trkpt lat="45.3515" lon="4.52306">
        <ele>1269.1999511719</ele>
        <time>2026-05-11T12:18:22.000Z</time>
      </trkpt>
      <trkpt lat="45.35146" lon="4.52304">
        <ele>1269.1999511719</ele>
        <time>2026-05-11T12:18:23.000Z</time>
      </trkpt>
      <trkpt lat="45.35142" lon="4.52303">
        <ele>1269</ele>
        <time>2026-05-11T12:18:24.000Z</time>
      </trkpt>
      <trkpt lat="45.35138" lon="4.52302">
        <ele>1269</ele>
        <time>2026-05-11T12:18:25.000Z</time>
      </trkpt>
      <trkpt lat="45.35133" lon="4.52301">
        <ele>1268.8000488281</ele>
        <time>2026-05-11T12:18:26.000Z</time>
      </trkpt>
      <trkpt lat="45.35129" lon="4.523">
        <ele>1268.8000488281</ele>
        <time>2026-05-11T12:18:27.000Z</time>
      </trkpt>
      <trkpt lat="45.35125" lon="4.52299">
        <ele>1268.5999755859</ele>
        <time>2026-05-11T12:18:28.000Z</time>
      </trkpt>
      <trkpt lat="45.35121" lon="4.52298">
        <ele>1268.4000244141</ele>
        <time>2026-05-11T12:18:29.000Z</time>
      </trkpt>
      <trkpt lat="45.35117" lon="4.52298">
        <ele>1268.4000244141</ele>
        <time>2026-05-11T12:18:30.000Z</time>
      </trkpt>
      <trkpt lat="45.35114" lon="4.52298">
        <ele>1268.1999511719</ele>
        <time>2026-05-11T12:18:31.000Z</time>
      </trkpt>
      <trkpt lat="45.3511" lon="4.52298">
        <ele>1268</ele>
        <time>2026-05-11T12:18:32.000Z</time>
      </trkpt>
      <trkpt lat="45.35106" lon="4.52297">
        <ele>1268</ele>
        <time>2026-05-11T12:18:33.000Z</time>
      </trkpt>
      <trkpt lat="45.35102" lon="4.52296">
        <ele>1268</ele>
        <time>2026-05-11T12:18:34.000Z</time>
      </trkpt>
      <trkpt lat="45.35098" lon="4.52296">
        <ele>1267.8000488281</ele>
        <time>2026-05-11T12:18:35.000Z</time>
      </trkpt>
      <trkpt lat="45.35095" lon="4.52296">
        <ele>1267.5999755859</ele>
        <time>2026-05-11T12:18:36.000Z</time>
      </trkpt>
      <trkpt lat="45.35091" lon="4.52296">
        <ele>1267.5999755859</ele>
        <time>2026-05-11T12:18:37.000Z</time>
      </trkpt>
      <trkpt lat="45.35088" lon="4.52297">
        <ele>1267.5999755859</ele>
        <time>2026-05-11T12:18:38.000Z</time>
      </trkpt>
      <trkpt lat="45.35085" lon="4.52297">
        <ele>1267.4000244141</ele>
        <time>2026-05-11T12:18:39.000Z</time>
      </trkpt>
      <trkpt lat="45.35082" lon="4.52297">
        <ele>1267.4000244141</ele>
        <time>2026-05-11T12:18:40.000Z</time>
      </trkpt>
      <trkpt lat="45.3508" lon="4.52297">
        <ele>1267.4000244141</ele>
        <time>2026-05-11T12:18:41.000Z</time>
      </trkpt>
      <trkpt lat="45.35077" lon="4.52298">
        <ele>1267.4000244141</ele>
        <time>2026-05-11T12:18:42.000Z</time>
      </trkpt>
      <trkpt lat="45.35074" lon="4.52298">
        <ele>1267.4000244141</ele>
        <time>2026-05-11T12:18:43.000Z</time>
      </trkpt>
      <trkpt lat="45.35071" lon="4.52298">
        <ele>1267.4000244141</ele>
        <time>2026-05-11T12:18:44.000Z</time>
      </trkpt>
      <trkpt lat="45.35069" lon="4.52299">
        <ele>1267.4000244141</ele>
        <time>2026-05-11T12:18:45.000Z</time>
      </trkpt>
      <trkpt lat="45.35066" lon="4.52299">
        <ele>1267.4000244141</ele>
        <time>2026-05-11T12:18:46.000Z</time>
      </trkpt>
      <trkpt lat="45.35063" lon="4.52298">
        <ele>1267.4000244141</ele>
        <time>2026-05-11T12:18:47.000Z</time>
      </trkpt>
      <trkpt lat="45.35059" lon="4.52298">
        <ele>1267.1999511719</ele>
        <time>2026-05-11T12:18:48.000Z</time>
      </trkpt>
      <trkpt lat="45.35055" lon="4.52296">
        <ele>1267.1999511719</ele>
        <time>2026-05-11T12:18:49.000Z</time>
      </trkpt>
      <trkpt lat="45.35051" lon="4.52294">
        <ele>1267</ele>
        <time>2026-05-11T12:18:50.000Z</time>
      </trkpt>
      <trkpt lat="45.35047" lon="4.52292">
        <ele>1267</ele>
        <time>2026-05-11T12:18:51.000Z</time>
      </trkpt>
      <trkpt lat="45.35043" lon="4.52291">
        <ele>1266.8000488281</ele>
        <time>2026-05-11T12:18:52.000Z</time>
      </trkpt>
      <trkpt lat="45.35039" lon="4.52289">
        <ele>1266.5999755859</ele>
        <time>2026-05-11T12:18:53.000Z</time>
      </trkpt>
      <trkpt lat="45.35035" lon="4.52289">
        <ele>1266.4000244141</ele>
        <time>2026-05-11T12:18:54.000Z</time>
      </trkpt>
      <trkpt lat="45.35031" lon="4.5229">
        <ele>1266.1999511719</ele>
        <time>2026-05-11T12:18:55.000Z</time>
      </trkpt>
      <trkpt lat="45.35027" lon="4.5229">
        <ele>1266</ele>
        <time>2026-05-11T12:18:56.000Z</time>
      </trkpt>
      <trkpt lat="45.35023" lon="4.52291">
        <ele>1265.8000488281</ele>
        <time>2026-05-11T12:18:57.000Z</time>
      </trkpt>
      <trkpt lat="45.35019" lon="4.52291">
        <ele>1265.5999755859</ele>
        <time>2026-05-11T12:18:58.000Z</time>
      </trkpt>
      <trkpt lat="45.35015" lon="4.52291">
        <ele>1265.1999511719</ele>
        <time>2026-05-11T12:18:59.000Z</time>
      </trkpt>
      <trkpt lat="45.35011" lon="4.52291">
        <ele>1265</ele>
        <time>2026-05-11T12:19:00.000Z</time>
      </trkpt>
      <trkpt lat="45.35007" lon="4.52292">
        <ele>1264.8000488281</ele>
        <time>2026-05-11T12:19:01.000Z</time>
      </trkpt>
      <trkpt lat="45.35003" lon="4.52292">
        <ele>1264.8000488281</ele>
        <time>2026-05-11T12:19:02.000Z</time>
      </trkpt>
      <trkpt lat="45.34999" lon="4.52293">
        <ele>1264.5999755859</ele>
        <time>2026-05-11T12:19:03.000Z</time>
      </trkpt>
      <trkpt lat="45.34995" lon="4.52295">
        <ele>1264.5999755859</ele>
        <time>2026-05-11T12:19:04.000Z</time>
      </trkpt>
      <trkpt lat="45.34992" lon="4.52296">
        <ele>1264.4000244141</ele>
        <time>2026-05-11T12:19:05.000Z</time>
      </trkpt>
      <trkpt lat="45.34988" lon="4.52298">
        <ele>1264.4000244141</ele>
        <time>2026-05-11T12:19:06.000Z</time>
      </trkpt>
      <trkpt lat="45.34985" lon="4.523">
        <ele>1264.4000244141</ele>
        <time>2026-05-11T12:19:07.000Z</time>
      </trkpt>
      <trkpt lat="45.34982" lon="4.52303">
        <ele>1264.4000244141</ele>
        <time>2026-05-11T12:19:08.000Z</time>
      </trkpt>
      <trkpt lat="45.34979" lon="4.52305">
        <ele>1264.4000244141</ele>
        <time>2026-05-11T12:19:09.000Z</time>
      </trkpt>
      <trkpt lat="45.34976" lon="4.52308">
        <ele>1264.4000244141</ele>
        <time>2026-05-11T12:19:10.000Z</time>
      </trkpt>
      <trkpt lat="45.34973" lon="4.5231">
        <ele>1264.1999511719</ele>
        <time>2026-05-11T12:19:11.000Z</time>
      </trkpt>
      <trkpt lat="45.3497" lon="4.52312">
        <ele>1264.4000244141</ele>
        <time>2026-05-11T12:19:12.000Z</time>
      </trkpt>
      <trkpt lat="45.34967" lon="4.52314">
        <ele>1264.4000244141</ele>
        <time>2026-05-11T12:19:13.000Z</time>
      </trkpt>
      <trkpt lat="45.34964" lon="4.52316">
        <ele>1264.4000244141</ele>
        <time>2026-05-11T12:19:14.000Z</time>
      </trkpt>
      <trkpt lat="45.34962" lon="4.52319">
        <ele>1264.5999755859</ele>
        <time>2026-05-11T12:19:15.000Z</time>
      </trkpt>
      <trkpt lat="45.34959" lon="4.52321">
        <ele>1264.5999755859</ele>
        <time>2026-05-11T12:19:16.000Z</time>
      </trkpt>
      <trkpt lat="45.34956" lon="4.52323">
        <ele>1264.5999755859</ele>
        <time>2026-05-11T12:19:17.000Z</time>
      </trkpt>
      <trkpt lat="45.34953" lon="4.52325">
        <ele>1264.5999755859</ele>
        <time>2026-05-11T12:19:18.000Z</time>
      </trkpt>
      <trkpt lat="45.34951" lon="4.52327">
        <ele>1264.5999755859</ele>
        <time>2026-05-11T12:19:19.000Z</time>
      </trkpt>
      <trkpt lat="45.34948" lon="4.52329">
        <ele>1264.8000488281</ele>
        <time>2026-05-11T12:19:20.000Z</time>
      </trkpt>
      <trkpt lat="45.34945" lon="4.52331">
        <ele>1264.8000488281</ele>
        <time>2026-05-11T12:19:21.000Z</time>
      </trkpt>
      <trkpt lat="45.34943" lon="4.52332">
        <ele>1264.8000488281</ele>
        <time>2026-05-11T12:19:22.000Z</time>
      </trkpt>
      <trkpt lat="45.3494" lon="4.52334">
        <ele>1264.8000488281</ele>
        <time>2026-05-11T12:19:23.000Z</time>
      </trkpt>
      <trkpt lat="45.34936" lon="4.52336">
        <ele>1265</ele>
        <time>2026-05-11T12:19:24.000Z</time>
      </trkpt>
      <trkpt lat="45.34933" lon="4.52338">
        <ele>1265</ele>
        <time>2026-05-11T12:19:25.000Z</time>
      </trkpt>
      <trkpt lat="45.34929" lon="4.5234">
        <ele>1264.8000488281</ele>
        <time>2026-05-11T12:19:26.000Z</time>
      </trkpt>
      <trkpt lat="45.34925" lon="4.52342">
        <ele>1264.8000488281</ele>
        <time>2026-05-11T12:19:27.000Z</time>
      </trkpt>
      <trkpt lat="45.34921" lon="4.52344">
        <ele>1264.8000488281</ele>
        <time>2026-05-11T12:19:28.000Z</time>
      </trkpt>
      <trkpt lat="45.34917" lon="4.52347">
        <ele>1264.5999755859</ele>
        <time>2026-05-11T12:19:29.000Z</time>
      </trkpt>
      <trkpt lat="45.34914" lon="4.52349">
        <ele>1264.5999755859</ele>
        <time>2026-05-11T12:19:30.000Z</time>
      </trkpt>
      <trkpt lat="45.3491" lon="4.52351">
        <ele>1264.5999755859</ele>
        <time>2026-05-11T12:19:31.000Z</time>
      </trkpt>
      <trkpt lat="45.34907" lon="4.52352">
        <ele>1264.5999755859</ele>
        <time>2026-05-11T12:19:32.000Z</time>
      </trkpt>
      <trkpt lat="45.34903" lon="4.52354">
        <ele>1264.4000244141</ele>
        <time>2026-05-11T12:19:33.000Z</time>
      </trkpt>
      <trkpt lat="45.34899" lon="4.52355">
        <ele>1264.4000244141</ele>
        <time>2026-05-11T12:19:34.000Z</time>
      </trkpt>
      <trkpt lat="45.34896" lon="4.52357">
        <ele>1264.4000244141</ele>
        <time>2026-05-11T12:19:35.000Z</time>
      </trkpt>
      <trkpt lat="45.34893" lon="4.52359">
        <ele>1264.4000244141</ele>
        <time>2026-05-11T12:19:36.000Z</time>
      </trkpt>
      <trkpt lat="45.34891" lon="4.5236">
        <ele>1264.4000244141</ele>
        <time>2026-05-11T12:19:37.000Z</time>
      </trkpt>
      <trkpt lat="45.34888" lon="4.52362">
        <ele>1264.4000244141</ele>
        <time>2026-05-11T12:19:38.000Z</time>
      </trkpt>
      <trkpt lat="45.34886" lon="4.52362">
        <ele>1264.4000244141</ele>
        <time>2026-05-11T12:19:39.000Z</time>
      </trkpt>
      <trkpt lat="45.34884" lon="4.52363">
        <ele>1264.4000244141</ele>
        <time>2026-05-11T12:19:40.000Z</time>
      </trkpt>
      <trkpt lat="45.34881" lon="4.52364">
        <ele>1264.4000244141</ele>
        <time>2026-05-11T12:19:41.000Z</time>
      </trkpt>
      <trkpt lat="45.34878" lon="4.52366">
        <ele>1264.4000244141</ele>
        <time>2026-05-11T12:19:42.000Z</time>
      </trkpt>
      <trkpt lat="45.34875" lon="4.52367">
        <ele>1264.4000244141</ele>
        <time>2026-05-11T12:19:43.000Z</time>
      </trkpt>
      <trkpt lat="45.34872" lon="4.52368">
        <ele>1264.4000244141</ele>
        <time>2026-05-11T12:19:44.000Z</time>
      </trkpt>
      <trkpt lat="45.34869" lon="4.5237">
        <ele>1264.4000244141</ele>
        <time>2026-05-11T12:19:45.000Z</time>
      </trkpt>
      <trkpt lat="45.34865" lon="4.52371">
        <ele>1264.5999755859</ele>
        <time>2026-05-11T12:19:46.000Z</time>
      </trkpt>
      <trkpt lat="45.34862" lon="4.52374">
        <ele>1264.5999755859</ele>
        <time>2026-05-11T12:19:47.000Z</time>
      </trkpt>
      <trkpt lat="45.3486" lon="4.52376">
        <ele>1264.8000488281</ele>
        <time>2026-05-11T12:19:48.000Z</time>
      </trkpt>
      <trkpt lat="45.34857" lon="4.52377">
        <ele>1264.8000488281</ele>
        <time>2026-05-11T12:19:49.000Z</time>
      </trkpt>
      <trkpt lat="45.34854" lon="4.52379">
        <ele>1265</ele>
        <time>2026-05-11T12:19:50.000Z</time>
      </trkpt>
      <trkpt lat="45.34851" lon="4.52381">
        <ele>1265.1999511719</ele>
        <time>2026-05-11T12:19:51.000Z</time>
      </trkpt>
      <trkpt lat="45.34848" lon="4.52383">
        <ele>1265.4000244141</ele>
        <time>2026-05-11T12:19:52.000Z</time>
      </trkpt>
      <trkpt lat="45.34846" lon="4.52386">
        <ele>1265.4000244141</ele>
        <time>2026-05-11T12:19:53.000Z</time>
      </trkpt>
      <trkpt lat="45.34843" lon="4.52389">
        <ele>1265.5999755859</ele>
        <time>2026-05-11T12:19:54.000Z</time>
      </trkpt>
      <trkpt lat="45.3484" lon="4.52392">
        <ele>1265.5999755859</ele>
        <time>2026-05-11T12:19:55.000Z</time>
      </trkpt>
      <trkpt lat="45.34838" lon="4.52394">
        <ele>1265.8000488281</ele>
        <time>2026-05-11T12:19:56.000Z</time>
      </trkpt>
      <trkpt lat="45.34836" lon="4.52396">
        <ele>1266</ele>
        <time>2026-05-11T12:19:57.000Z</time>
      </trkpt>
      <trkpt lat="45.34833" lon="4.52398">
        <ele>1266.1999511719</ele>
        <time>2026-05-11T12:19:58.000Z</time>
      </trkpt>
      <trkpt lat="45.34831" lon="4.52401">
        <ele>1266.4000244141</ele>
        <time>2026-05-11T12:19:59.000Z</time>
      </trkpt>
      <trkpt lat="45.34829" lon="4.52404">
        <ele>1266.5999755859</ele>
        <time>2026-05-11T12:20:00.000Z</time>
      </trkpt>
      <trkpt lat="45.34827" lon="4.52407">
        <ele>1266.8000488281</ele>
        <time>2026-05-11T12:20:01.000Z</time>
      </trkpt>
      <trkpt lat="45.34825" lon="4.5241">
        <ele>1267</ele>
        <time>2026-05-11T12:20:02.000Z</time>
      </trkpt>
      <trkpt lat="45.34823" lon="4.52413">
        <ele>1267.1999511719</ele>
        <time>2026-05-11T12:20:03.000Z</time>
      </trkpt>
      <trkpt lat="45.34822" lon="4.52417">
        <ele>1267.4000244141</ele>
        <time>2026-05-11T12:20:04.000Z</time>
      </trkpt>
      <trkpt lat="45.3482" lon="4.5242">
        <ele>1267.5999755859</ele>
        <time>2026-05-11T12:20:05.000Z</time>
      </trkpt>
      <trkpt lat="45.34818" lon="4.52424">
        <ele>1267.8000488281</ele>
        <time>2026-05-11T12:20:06.000Z</time>
      </trkpt>
      <trkpt lat="45.34817" lon="4.52427">
        <ele>1268.1999511719</ele>
        <time>2026-05-11T12:20:07.000Z</time>
      </trkpt>
      <trkpt lat="45.34815" lon="4.52431">
        <ele>1268.4000244141</ele>
        <time>2026-05-11T12:20:08.000Z</time>
      </trkpt>
      <trkpt lat="45.34814" lon="4.52435">
        <ele>1268.5999755859</ele>
        <time>2026-05-11T12:20:09.000Z</time>
      </trkpt>
      <trkpt lat="45.34812" lon="4.52438">
        <ele>1268.8000488281</ele>
        <time>2026-05-11T12:20:10.000Z</time>
      </trkpt>
      <trkpt lat="45.3481" lon="4.52442">
        <ele>1269</ele>
        <time>2026-05-11T12:20:11.000Z</time>
      </trkpt>
      <trkpt lat="45.34809" lon="4.52446">
        <ele>1269.1999511719</ele>
        <time>2026-05-11T12:20:12.000Z</time>
      </trkpt>
      <trkpt lat="45.34808" lon="4.52449">
        <ele>1269.5999755859</ele>
        <time>2026-05-11T12:20:13.000Z</time>
      </trkpt>
      <trkpt lat="45.34807" lon="4.52454">
        <ele>1269.8000488281</ele>
        <time>2026-05-11T12:20:14.000Z</time>
      </trkpt>
      <trkpt lat="45.34806" lon="4.52458">
        <ele>1270</ele>
        <time>2026-05-11T12:20:15.000Z</time>
      </trkpt>
      <trkpt lat="45.34805" lon="4.52462">
        <ele>1270.4000244141</ele>
        <time>2026-05-11T12:20:16.000Z</time>
      </trkpt>
      <trkpt lat="45.34805" lon="4.52467">
        <ele>1270.5999755859</ele>
        <time>2026-05-11T12:20:17.000Z</time>
      </trkpt>
      <trkpt lat="45.34804" lon="4.52471">
        <ele>1270.8000488281</ele>
        <time>2026-05-11T12:20:18.000Z</time>
      </trkpt>
      <trkpt lat="45.34803" lon="4.52475">
        <ele>1271</ele>
        <time>2026-05-11T12:20:19.000Z</time>
      </trkpt>
      <trkpt lat="45.34801" lon="4.52479">
        <ele>1271.1999511719</ele>
        <time>2026-05-11T12:20:20.000Z</time>
      </trkpt>
      <trkpt lat="45.34799" lon="4.52482">
        <ele>1271.4000244141</ele>
        <time>2026-05-11T12:20:21.000Z</time>
      </trkpt>
      <trkpt lat="45.34797" lon="4.52485">
        <ele>1271.5999755859</ele>
        <time>2026-05-11T12:20:22.000Z</time>
      </trkpt>
      <trkpt lat="45.34795" lon="4.52488">
        <ele>1271.8000488281</ele>
        <time>2026-05-11T12:20:23.000Z</time>
      </trkpt>
      <trkpt lat="45.34794" lon="4.52492">
        <ele>1272</ele>
        <time>2026-05-11T12:20:24.000Z</time>
      </trkpt>
      <trkpt lat="45.34791" lon="4.52494">
        <ele>1272.1999511719</ele>
        <time>2026-05-11T12:20:25.000Z</time>
      </trkpt>
      <trkpt lat="45.34789" lon="4.52495">
        <ele>1272.4000244141</ele>
        <time>2026-05-11T12:20:26.000Z</time>
      </trkpt>
      <trkpt lat="45.34786" lon="4.52497">
        <ele>1272.5999755859</ele>
        <time>2026-05-11T12:20:27.000Z</time>
      </trkpt>
      <trkpt lat="45.34784" lon="4.525">
        <ele>1272.8000488281</ele>
        <time>2026-05-11T12:20:28.000Z</time>
      </trkpt>
      <trkpt lat="45.34783" lon="4.52503">
        <ele>1272.8000488281</ele>
        <time>2026-05-11T12:20:29.000Z</time>
      </trkpt>
      <trkpt lat="45.34781" lon="4.52506">
        <ele>1273</ele>
        <time>2026-05-11T12:20:30.000Z</time>
      </trkpt>
      <trkpt lat="45.34779" lon="4.52509">
        <ele>1273.1999511719</ele>
        <time>2026-05-11T12:20:31.000Z</time>
      </trkpt>
      <trkpt lat="45.34778" lon="4.52512">
        <ele>1273.1999511719</ele>
        <time>2026-05-11T12:20:32.000Z</time>
      </trkpt>
      <trkpt lat="45.34776" lon="4.52516">
        <ele>1273.4000244141</ele>
        <time>2026-05-11T12:20:33.000Z</time>
      </trkpt>
      <trkpt lat="45.34775" lon="4.5252">
        <ele>1273.5999755859</ele>
        <time>2026-05-11T12:20:34.000Z</time>
      </trkpt>
      <trkpt lat="45.34774" lon="4.52525">
        <ele>1273.5999755859</ele>
        <time>2026-05-11T12:20:35.000Z</time>
      </trkpt>
      <trkpt lat="45.34773" lon="4.52529">
        <ele>1273.8000488281</ele>
        <time>2026-05-11T12:20:36.000Z</time>
      </trkpt>
      <trkpt lat="45.34772" lon="4.52533">
        <ele>1274</ele>
        <time>2026-05-11T12:20:37.000Z</time>
      </trkpt>
      <trkpt lat="45.34771" lon="4.52536">
        <ele>1274</ele>
        <time>2026-05-11T12:20:38.000Z</time>
      </trkpt>
      <trkpt lat="45.3477" lon="4.5254">
        <ele>1274.1999511719</ele>
        <time>2026-05-11T12:20:39.000Z</time>
      </trkpt>
      <trkpt lat="45.3477" lon="4.52544">
        <ele>1274.4000244141</ele>
        <time>2026-05-11T12:20:40.000Z</time>
      </trkpt>
      <trkpt lat="45.34769" lon="4.52548">
        <ele>1274.5999755859</ele>
        <time>2026-05-11T12:20:41.000Z</time>
      </trkpt>
      <trkpt lat="45.34769" lon="4.52552">
        <ele>1274.8000488281</ele>
        <time>2026-05-11T12:20:42.000Z</time>
      </trkpt>
      <trkpt lat="45.34767" lon="4.52555">
        <ele>1275</ele>
        <time>2026-05-11T12:20:43.000Z</time>
      </trkpt>
      <trkpt lat="45.34766" lon="4.52559">
        <ele>1275</ele>
        <time>2026-05-11T12:20:44.000Z</time>
      </trkpt>
      <trkpt lat="45.34765" lon="4.52563">
        <ele>1275.1999511719</ele>
        <time>2026-05-11T12:20:45.000Z</time>
      </trkpt>
      <trkpt lat="45.34764" lon="4.52566">
        <ele>1275.4000244141</ele>
        <time>2026-05-11T12:20:46.000Z</time>
      </trkpt>
      <trkpt lat="45.34764" lon="4.52569">
        <ele>1275.5999755859</ele>
        <time>2026-05-11T12:20:47.000Z</time>
      </trkpt>
      <trkpt lat="45.34764" lon="4.52573">
        <ele>1275.8000488281</ele>
        <time>2026-05-11T12:20:48.000Z</time>
      </trkpt>
      <trkpt lat="45.34763" lon="4.52576">
        <ele>1275.8000488281</ele>
        <time>2026-05-11T12:20:49.000Z</time>
      </trkpt>
      <trkpt lat="45.34763" lon="4.52579">
        <ele>1276</ele>
        <time>2026-05-11T12:20:50.000Z</time>
      </trkpt>
      <trkpt lat="45.34762" lon="4.52583">
        <ele>1276.1999511719</ele>
        <time>2026-05-11T12:20:51.000Z</time>
      </trkpt>
      <trkpt lat="45.34762" lon="4.52586">
        <ele>1276.4000244141</ele>
        <time>2026-05-11T12:20:52.000Z</time>
      </trkpt>
      <trkpt lat="45.34762" lon="4.5259">
        <ele>1276.4000244141</ele>
        <time>2026-05-11T12:20:53.000Z</time>
      </trkpt>
      <trkpt lat="45.34761" lon="4.52594">
        <ele>1276.5999755859</ele>
        <time>2026-05-11T12:20:54.000Z</time>
      </trkpt>
      <trkpt lat="45.3476" lon="4.52598">
        <ele>1276.5999755859</ele>
        <time>2026-05-11T12:20:55.000Z</time>
      </trkpt>
      <trkpt lat="45.34759" lon="4.52601">
        <ele>1276.8000488281</ele>
        <time>2026-05-11T12:20:56.000Z</time>
      </trkpt>
      <trkpt lat="45.34758" lon="4.52605">
        <ele>1276.8000488281</ele>
        <time>2026-05-11T12:20:57.000Z</time>
      </trkpt>
      <trkpt lat="45.34757" lon="4.52609">
        <ele>1277</ele>
        <time>2026-05-11T12:20:58.000Z</time>
      </trkpt>
      <trkpt lat="45.34756" lon="4.52613">
        <ele>1277</ele>
        <time>2026-05-11T12:20:59.000Z</time>
      </trkpt>
      <trkpt lat="45.34755" lon="4.52616">
        <ele>1277</ele>
        <time>2026-05-11T12:21:00.000Z</time>
      </trkpt>
      <trkpt lat="45.34753" lon="4.52619">
        <ele>1277</ele>
        <time>2026-05-11T12:21:01.000Z</time>
      </trkpt>
      <trkpt lat="45.34752" lon="4.52621">
        <ele>1277.1999511719</ele>
        <time>2026-05-11T12:21:02.000Z</time>
      </trkpt>
      <trkpt lat="45.34751" lon="4.52623">
        <ele>1277.1999511719</ele>
        <time>2026-05-11T12:21:03.000Z</time>
      </trkpt>
      <trkpt lat="45.34749" lon="4.52625">
        <ele>1277.1999511719</ele>
        <time>2026-05-11T12:21:04.000Z</time>
      </trkpt>
      <trkpt lat="45.34748" lon="4.52628">
        <ele>1277.4000244141</ele>
        <time>2026-05-11T12:21:05.000Z</time>
      </trkpt>
      <trkpt lat="45.34746" lon="4.52632">
        <ele>1277.4000244141</ele>
        <time>2026-05-11T12:21:06.000Z</time>
      </trkpt>
      <trkpt lat="45.34745" lon="4.52634">
        <ele>1277.4000244141</ele>
        <time>2026-05-11T12:21:07.000Z</time>
      </trkpt>
      <trkpt lat="45.34743" lon="4.52637">
        <ele>1277.5999755859</ele>
        <time>2026-05-11T12:21:08.000Z</time>
      </trkpt>
      <trkpt lat="45.34741" lon="4.52639">
        <ele>1277.5999755859</ele>
        <time>2026-05-11T12:21:09.000Z</time>
      </trkpt>
      <trkpt lat="45.34739" lon="4.52641">
        <ele>1277.8000488281</ele>
        <time>2026-05-11T12:21:10.000Z</time>
      </trkpt>
      <trkpt lat="45.34737" lon="4.52644">
        <ele>1277.8000488281</ele>
        <time>2026-05-11T12:21:11.000Z</time>
      </trkpt>
      <trkpt lat="45.34737" lon="4.52648">
        <ele>1278</ele>
        <time>2026-05-11T12:21:12.000Z</time>
      </trkpt>
      <trkpt lat="45.34736" lon="4.52652">
        <ele>1278</ele>
        <time>2026-05-11T12:21:13.000Z</time>
      </trkpt>
      <trkpt lat="45.34735" lon="4.52655">
        <ele>1278</ele>
        <time>2026-05-11T12:21:14.000Z</time>
      </trkpt>
      <trkpt lat="45.34734" lon="4.52659">
        <ele>1278.1999511719</ele>
        <time>2026-05-11T12:21:15.000Z</time>
      </trkpt>
      <trkpt lat="45.34733" lon="4.52663">
        <ele>1278.1999511719</ele>
        <time>2026-05-11T12:21:16.000Z</time>
      </trkpt>
      <trkpt lat="45.34731" lon="4.52667">
        <ele>1278.1999511719</ele>
        <time>2026-05-11T12:21:17.000Z</time>
      </trkpt>
      <trkpt lat="45.3473" lon="4.5267">
        <ele>1278.1999511719</ele>
        <time>2026-05-11T12:21:18.000Z</time>
      </trkpt>
      <trkpt lat="45.34727" lon="4.52673">
        <ele>1278.1999511719</ele>
        <time>2026-05-11T12:21:19.000Z</time>
      </trkpt>
      <trkpt lat="45.34725" lon="4.52675">
        <ele>1278.1999511719</ele>
        <time>2026-05-11T12:21:20.000Z</time>
      </trkpt>
      <trkpt lat="45.34724" lon="4.52678">
        <ele>1278.1999511719</ele>
        <time>2026-05-11T12:21:21.000Z</time>
      </trkpt>
      <trkpt lat="45.34721" lon="4.5268">
        <ele>1278.1999511719</ele>
        <time>2026-05-11T12:21:22.000Z</time>
      </trkpt>
      <trkpt lat="45.34719" lon="4.52682">
        <ele>1278.1999511719</ele>
        <time>2026-05-11T12:21:23.000Z</time>
      </trkpt>
      <trkpt lat="45.34717" lon="4.52685">
        <ele>1278.1999511719</ele>
        <time>2026-05-11T12:21:24.000Z</time>
      </trkpt>
      <trkpt lat="45.34714" lon="4.52688">
        <ele>1278.1999511719</ele>
        <time>2026-05-11T12:21:25.000Z</time>
      </trkpt>
      <trkpt lat="45.34711" lon="4.5269">
        <ele>1278.1999511719</ele>
        <time>2026-05-11T12:21:26.000Z</time>
      </trkpt>
      <trkpt lat="45.34709" lon="4.52692">
        <ele>1278.4000244141</ele>
        <time>2026-05-11T12:21:27.000Z</time>
      </trkpt>
      <trkpt lat="45.34707" lon="4.52694">
        <ele>1278.4000244141</ele>
        <time>2026-05-11T12:21:28.000Z</time>
      </trkpt>
      <trkpt lat="45.34705" lon="4.52696">
        <ele>1278.4000244141</ele>
        <time>2026-05-11T12:21:29.000Z</time>
      </trkpt>
      <trkpt lat="45.34703" lon="4.52699">
        <ele>1278.4000244141</ele>
        <time>2026-05-11T12:21:30.000Z</time>
      </trkpt>
      <trkpt lat="45.34701" lon="4.52701">
        <ele>1278.4000244141</ele>
        <time>2026-05-11T12:21:31.000Z</time>
      </trkpt>
      <trkpt lat="45.34699" lon="4.52702">
        <ele>1278.4000244141</ele>
        <time>2026-05-11T12:21:32.000Z</time>
      </trkpt>
      <trkpt lat="45.34697" lon="4.52704">
        <ele>1278.5999755859</ele>
        <time>2026-05-11T12:21:33.000Z</time>
      </trkpt>
      <trkpt lat="45.34696" lon="4.52707">
        <ele>1278.5999755859</ele>
        <time>2026-05-11T12:21:34.000Z</time>
      </trkpt>
      <trkpt lat="45.34694" lon="4.5271">
        <ele>1278.5999755859</ele>
        <time>2026-05-11T12:21:35.000Z</time>
      </trkpt>
      <trkpt lat="45.34692" lon="4.52712">
        <ele>1278.5999755859</ele>
        <time>2026-05-11T12:21:36.000Z</time>
      </trkpt>
      <trkpt lat="45.3469" lon="4.52713">
        <ele>1278.5999755859</ele>
        <time>2026-05-11T12:21:37.000Z</time>
      </trkpt>
      <trkpt lat="45.34689" lon="4.52716">
        <ele>1278.5999755859</ele>
        <time>2026-05-11T12:21:38.000Z</time>
      </trkpt>
      <trkpt lat="45.34688" lon="4.52719">
        <ele>1278.5999755859</ele>
        <time>2026-05-11T12:21:39.000Z</time>
      </trkpt>
      <trkpt lat="45.34686" lon="4.52723">
        <ele>1278.5999755859</ele>
        <time>2026-05-11T12:21:40.000Z</time>
      </trkpt>
      <trkpt lat="45.34684" lon="4.52726">
        <ele>1278.5999755859</ele>
        <time>2026-05-11T12:21:41.000Z</time>
      </trkpt>
      <trkpt lat="45.34682" lon="4.52728">
        <ele>1278.5999755859</ele>
        <time>2026-05-11T12:21:42.000Z</time>
      </trkpt>
      <trkpt lat="45.3468" lon="4.52731">
        <ele>1278.5999755859</ele>
        <time>2026-05-11T12:21:43.000Z</time>
      </trkpt>
      <trkpt lat="45.34678" lon="4.52733">
        <ele>1278.8000488281</ele>
        <time>2026-05-11T12:21:44.000Z</time>
      </trkpt>
      <trkpt lat="45.34676" lon="4.52735">
        <ele>1278.8000488281</ele>
        <time>2026-05-11T12:21:45.000Z</time>
      </trkpt>
      <trkpt lat="45.34673" lon="4.52738">
        <ele>1278.8000488281</ele>
        <time>2026-05-11T12:21:46.000Z</time>
      </trkpt>
      <trkpt lat="45.3467" lon="4.5274">
        <ele>1278.8000488281</ele>
        <time>2026-05-11T12:21:47.000Z</time>
      </trkpt>
      <trkpt lat="45.34668" lon="4.52742">
        <ele>1279</ele>
        <time>2026-05-11T12:21:48.000Z</time>
      </trkpt>
      <trkpt lat="45.34664" lon="4.52744">
        <ele>1279</ele>
        <time>2026-05-11T12:21:49.000Z</time>
      </trkpt>
      <trkpt lat="45.34661" lon="4.52746">
        <ele>1279.1999511719</ele>
        <time>2026-05-11T12:21:50.000Z</time>
      </trkpt>
      <trkpt lat="45.34658" lon="4.52748">
        <ele>1279.1999511719</ele>
        <time>2026-05-11T12:21:51.000Z</time>
      </trkpt>
      <trkpt lat="45.34655" lon="4.52749">
        <ele>1279.1999511719</ele>
        <time>2026-05-11T12:21:52.000Z</time>
      </trkpt>
      <trkpt lat="45.34651" lon="4.5275">
        <ele>1279.4000244141</ele>
        <time>2026-05-11T12:21:53.000Z</time>
      </trkpt>
      <trkpt lat="45.34648" lon="4.5275">
        <ele>1279.4000244141</ele>
        <time>2026-05-11T12:21:54.000Z</time>
      </trkpt>
      <trkpt lat="45.34645" lon="4.5275">
        <ele>1279.4000244141</ele>
        <time>2026-05-11T12:21:55.000Z</time>
      </trkpt>
      <trkpt lat="45.34642" lon="4.5275">
        <ele>1279.5999755859</ele>
        <time>2026-05-11T12:21:56.000Z</time>
      </trkpt>
      <trkpt lat="45.34639" lon="4.5275">
        <ele>1279.8000488281</ele>
        <time>2026-05-11T12:21:57.000Z</time>
      </trkpt>
      <trkpt lat="45.34636" lon="4.5275">
        <ele>1279.8000488281</ele>
        <time>2026-05-11T12:21:58.000Z</time>
      </trkpt>
      <trkpt lat="45.34633" lon="4.52749">
        <ele>1280</ele>
        <time>2026-05-11T12:21:59.000Z</time>
      </trkpt>
      <trkpt lat="45.3463" lon="4.52748">
        <ele>1280.1999511719</ele>
        <time>2026-05-11T12:22:00.000Z</time>
      </trkpt>
      <trkpt lat="45.34627" lon="4.52748">
        <ele>1280.4000244141</ele>
        <time>2026-05-11T12:22:01.000Z</time>
      </trkpt>
      <trkpt lat="45.34625" lon="4.52748">
        <ele>1280.5999755859</ele>
        <time>2026-05-11T12:22:02.000Z</time>
      </trkpt>
      <trkpt lat="45.34622" lon="4.52748">
        <ele>1280.8000488281</ele>
        <time>2026-05-11T12:22:03.000Z</time>
      </trkpt>
      <trkpt lat="45.34619" lon="4.52749">
        <ele>1281.1999511719</ele>
        <time>2026-05-11T12:22:04.000Z</time>
      </trkpt>
      <trkpt lat="45.34616" lon="4.52749">
        <ele>1281.4000244141</ele>
        <time>2026-05-11T12:22:05.000Z</time>
      </trkpt>
      <trkpt lat="45.34613" lon="4.52749">
        <ele>1281.5999755859</ele>
        <time>2026-05-11T12:22:06.000Z</time>
      </trkpt>
      <trkpt lat="45.3461" lon="4.52749">
        <ele>1281.8000488281</ele>
        <time>2026-05-11T12:22:07.000Z</time>
      </trkpt>
      <trkpt lat="45.34607" lon="4.52749">
        <ele>1281.8000488281</ele>
        <time>2026-05-11T12:22:08.000Z</time>
      </trkpt>
      <trkpt lat="45.34605" lon="4.5275">
        <ele>1282</ele>
        <time>2026-05-11T12:22:09.000Z</time>
      </trkpt>
      <trkpt lat="45.34603" lon="4.5275">
        <ele>1282.1999511719</ele>
        <time>2026-05-11T12:22:10.000Z</time>
      </trkpt>
      <trkpt lat="45.346" lon="4.5275">
        <ele>1282.4000244141</ele>
        <time>2026-05-11T12:22:11.000Z</time>
      </trkpt>
      <trkpt lat="45.34596" lon="4.52751">
        <ele>1282.5999755859</ele>
        <time>2026-05-11T12:22:12.000Z</time>
      </trkpt>
      <trkpt lat="45.34593" lon="4.52751">
        <ele>1282.8000488281</ele>
        <time>2026-05-11T12:22:13.000Z</time>
      </trkpt>
      <trkpt lat="45.34591" lon="4.52751">
        <ele>1283</ele>
        <time>2026-05-11T12:22:14.000Z</time>
      </trkpt>
      <trkpt lat="45.34588" lon="4.52752">
        <ele>1283</ele>
        <time>2026-05-11T12:22:15.000Z</time>
      </trkpt>
      <trkpt lat="45.34585" lon="4.52753">
        <ele>1283.1999511719</ele>
        <time>2026-05-11T12:22:16.000Z</time>
      </trkpt>
      <trkpt lat="45.34582" lon="4.52753">
        <ele>1283.1999511719</ele>
        <time>2026-05-11T12:22:17.000Z</time>
      </trkpt>
      <trkpt lat="45.3458" lon="4.52754">
        <ele>1283.4000244141</ele>
        <time>2026-05-11T12:22:18.000Z</time>
      </trkpt>
      <trkpt lat="45.34577" lon="4.52755">
        <ele>1283.5999755859</ele>
        <time>2026-05-11T12:22:19.000Z</time>
      </trkpt>
      <trkpt lat="45.34575" lon="4.52756">
        <ele>1283.8000488281</ele>
        <time>2026-05-11T12:22:20.000Z</time>
      </trkpt>
      <trkpt lat="45.34572" lon="4.52757">
        <ele>1283.8000488281</ele>
        <time>2026-05-11T12:22:21.000Z</time>
      </trkpt>
      <trkpt lat="45.34569" lon="4.52759">
        <ele>1284</ele>
        <time>2026-05-11T12:22:22.000Z</time>
      </trkpt>
      <trkpt lat="45.34566" lon="4.52761">
        <ele>1284</ele>
        <time>2026-05-11T12:22:23.000Z</time>
      </trkpt>
      <trkpt lat="45.34564" lon="4.52762">
        <ele>1284.1999511719</ele>
        <time>2026-05-11T12:22:24.000Z</time>
      </trkpt>
      <trkpt lat="45.34561" lon="4.52764">
        <ele>1284.1999511719</ele>
        <time>2026-05-11T12:22:25.000Z</time>
      </trkpt>
      <trkpt lat="45.34558" lon="4.52765">
        <ele>1284.4000244141</ele>
        <time>2026-05-11T12:22:26.000Z</time>
      </trkpt>
      <trkpt lat="45.34555" lon="4.52767">
        <ele>1284.5999755859</ele>
        <time>2026-05-11T12:22:27.000Z</time>
      </trkpt>
      <trkpt lat="45.34553" lon="4.52769">
        <ele>1284.8000488281</ele>
        <time>2026-05-11T12:22:28.000Z</time>
      </trkpt>
      <trkpt lat="45.34551" lon="4.52771">
        <ele>1284.8000488281</ele>
        <time>2026-05-11T12:22:29.000Z</time>
      </trkpt>
      <trkpt lat="45.34548" lon="4.52774">
        <ele>1285</ele>
        <time>2026-05-11T12:22:30.000Z</time>
      </trkpt>
      <trkpt lat="45.34546" lon="4.52776">
        <ele>1285.1999511719</ele>
        <time>2026-05-11T12:22:31.000Z</time>
      </trkpt>
      <trkpt lat="45.34544" lon="4.52779">
        <ele>1285.4000244141</ele>
        <time>2026-05-11T12:22:32.000Z</time>
      </trkpt>
      <trkpt lat="45.34542" lon="4.52781">
        <ele>1285.4000244141</ele>
        <time>2026-05-11T12:22:33.000Z</time>
      </trkpt>
      <trkpt lat="45.34539" lon="4.52783">
        <ele>1285.5999755859</ele>
        <time>2026-05-11T12:22:34.000Z</time>
      </trkpt>
      <trkpt lat="45.34537" lon="4.52784">
        <ele>1285.8000488281</ele>
        <time>2026-05-11T12:22:35.000Z</time>
      </trkpt>
      <trkpt lat="45.34533" lon="4.52786">
        <ele>1286</ele>
        <time>2026-05-11T12:22:36.000Z</time>
      </trkpt>
      <trkpt lat="45.34531" lon="4.52787">
        <ele>1286</ele>
        <time>2026-05-11T12:22:37.000Z</time>
      </trkpt>
      <trkpt lat="45.34528" lon="4.52788">
        <ele>1286.1999511719</ele>
        <time>2026-05-11T12:22:38.000Z</time>
      </trkpt>
      <trkpt lat="45.34526" lon="4.52789">
        <ele>1286.1999511719</ele>
        <time>2026-05-11T12:22:39.000Z</time>
      </trkpt>
      <trkpt lat="45.34523" lon="4.5279">
        <ele>1286.4000244141</ele>
        <time>2026-05-11T12:22:40.000Z</time>
      </trkpt>
      <trkpt lat="45.3452" lon="4.52791">
        <ele>1286.5999755859</ele>
        <time>2026-05-11T12:22:41.000Z</time>
      </trkpt>
      <trkpt lat="45.34518" lon="4.52791">
        <ele>1286.8000488281</ele>
        <time>2026-05-11T12:22:42.000Z</time>
      </trkpt>
      <trkpt lat="45.34515" lon="4.52791">
        <ele>1286.8000488281</ele>
        <time>2026-05-11T12:22:43.000Z</time>
      </trkpt>
      <trkpt lat="45.34513" lon="4.52792">
        <ele>1287</ele>
        <time>2026-05-11T12:22:44.000Z</time>
      </trkpt>
      <trkpt lat="45.3451" lon="4.52793">
        <ele>1287.1999511719</ele>
        <time>2026-05-11T12:22:45.000Z</time>
      </trkpt>
      <trkpt lat="45.34507" lon="4.52794">
        <ele>1287.4000244141</ele>
        <time>2026-05-11T12:22:46.000Z</time>
      </trkpt>
      <trkpt lat="45.34505" lon="4.52795">
        <ele>1287.5999755859</ele>
        <time>2026-05-11T12:22:47.000Z</time>
      </trkpt>
      <trkpt lat="45.34502" lon="4.52795">
        <ele>1287.8000488281</ele>
        <time>2026-05-11T12:22:48.000Z</time>
      </trkpt>
      <trkpt lat="45.345" lon="4.52795">
        <ele>1288</ele>
        <time>2026-05-11T12:22:49.000Z</time>
      </trkpt>
      <trkpt lat="45.34498" lon="4.52795">
        <ele>1288.1999511719</ele>
        <time>2026-05-11T12:22:50.000Z</time>
      </trkpt>
      <trkpt lat="45.34495" lon="4.52795">
        <ele>1288.4000244141</ele>
        <time>2026-05-11T12:22:51.000Z</time>
      </trkpt>
      <trkpt lat="45.34493" lon="4.52794">
        <ele>1288.5999755859</ele>
        <time>2026-05-11T12:22:52.000Z</time>
      </trkpt>
      <trkpt lat="45.3449" lon="4.52794">
        <ele>1288.8000488281</ele>
        <time>2026-05-11T12:22:53.000Z</time>
      </trkpt>
      <trkpt lat="45.34487" lon="4.52795">
        <ele>1289</ele>
        <time>2026-05-11T12:22:54.000Z</time>
      </trkpt>
      <trkpt lat="45.34485" lon="4.52796">
        <ele>1289.1999511719</ele>
        <time>2026-05-11T12:22:55.000Z</time>
      </trkpt>
      <trkpt lat="45.34482" lon="4.52796">
        <ele>1289.4000244141</ele>
        <time>2026-05-11T12:22:56.000Z</time>
      </trkpt>
      <trkpt lat="45.34479" lon="4.52796">
        <ele>1289.4000244141</ele>
        <time>2026-05-11T12:22:57.000Z</time>
      </trkpt>
      <trkpt lat="45.34477" lon="4.52795">
        <ele>1289.5999755859</ele>
        <time>2026-05-11T12:22:58.000Z</time>
      </trkpt>
      <trkpt lat="45.34474" lon="4.52795">
        <ele>1289.8000488281</ele>
        <time>2026-05-11T12:22:59.000Z</time>
      </trkpt>
      <trkpt lat="45.34472" lon="4.52795">
        <ele>1289.8000488281</ele>
        <time>2026-05-11T12:23:00.000Z</time>
      </trkpt>
      <trkpt lat="45.34469" lon="4.52795">
        <ele>1290</ele>
        <time>2026-05-11T12:23:01.000Z</time>
      </trkpt>
      <trkpt lat="45.34467" lon="4.52795">
        <ele>1290</ele>
        <time>2026-05-11T12:23:02.000Z</time>
      </trkpt>
      <trkpt lat="45.34465" lon="4.52795">
        <ele>1290.1999511719</ele>
        <time>2026-05-11T12:23:03.000Z</time>
      </trkpt>
      <trkpt lat="45.34462" lon="4.52795">
        <ele>1290.4000244141</ele>
        <time>2026-05-11T12:23:04.000Z</time>
      </trkpt>
      <trkpt lat="45.3446" lon="4.52795">
        <ele>1290.4000244141</ele>
        <time>2026-05-11T12:23:05.000Z</time>
      </trkpt>
      <trkpt lat="45.34457" lon="4.52795">
        <ele>1290.4000244141</ele>
        <time>2026-05-11T12:23:06.000Z</time>
      </trkpt>
      <trkpt lat="45.34454" lon="4.52795">
        <ele>1290.4000244141</ele>
        <time>2026-05-11T12:23:07.000Z</time>
      </trkpt>
      <trkpt lat="45.3445" lon="4.52795">
        <ele>1290.4000244141</ele>
        <time>2026-05-11T12:23:08.000Z</time>
      </trkpt>
      <trkpt lat="45.34448" lon="4.52795">
        <ele>1290.4000244141</ele>
        <time>2026-05-11T12:23:09.000Z</time>
      </trkpt>
      <trkpt lat="45.34445" lon="4.52795">
        <ele>1290.4000244141</ele>
        <time>2026-05-11T12:23:10.000Z</time>
      </trkpt>
      <trkpt lat="45.34442" lon="4.52795">
        <ele>1290.4000244141</ele>
        <time>2026-05-11T12:23:11.000Z</time>
      </trkpt>
      <trkpt lat="45.3444" lon="4.52795">
        <ele>1290.4000244141</ele>
        <time>2026-05-11T12:23:12.000Z</time>
      </trkpt>
      <trkpt lat="45.34437" lon="4.52796">
        <ele>1290.4000244141</ele>
        <time>2026-05-11T12:23:13.000Z</time>
      </trkpt>
      <trkpt lat="45.34435" lon="4.52796">
        <ele>1290.4000244141</ele>
        <time>2026-05-11T12:23:14.000Z</time>
      </trkpt>
      <trkpt lat="45.34432" lon="4.52797">
        <ele>1290.1999511719</ele>
        <time>2026-05-11T12:23:15.000Z</time>
      </trkpt>
      <trkpt lat="45.34429" lon="4.52798">
        <ele>1290.1999511719</ele>
        <time>2026-05-11T12:23:16.000Z</time>
      </trkpt>
      <trkpt lat="45.34426" lon="4.52799">
        <ele>1290</ele>
        <time>2026-05-11T12:23:17.000Z</time>
      </trkpt>
      <trkpt lat="45.34424" lon="4.528">
        <ele>1290</ele>
        <time>2026-05-11T12:23:18.000Z</time>
      </trkpt>
      <trkpt lat="45.34421" lon="4.528">
        <ele>1289.8000488281</ele>
        <time>2026-05-11T12:23:19.000Z</time>
      </trkpt>
      <trkpt lat="45.34419" lon="4.52801">
        <ele>1289.8000488281</ele>
        <time>2026-05-11T12:23:20.000Z</time>
      </trkpt>
      <trkpt lat="45.34417" lon="4.52801">
        <ele>1289.8000488281</ele>
        <time>2026-05-11T12:23:21.000Z</time>
      </trkpt>
      <trkpt lat="45.34415" lon="4.52801">
        <ele>1289.8000488281</ele>
        <time>2026-05-11T12:23:22.000Z</time>
      </trkpt>
      <trkpt lat="45.34413" lon="4.52801">
        <ele>1289.5999755859</ele>
        <time>2026-05-11T12:23:23.000Z</time>
      </trkpt>
      <trkpt lat="45.34411" lon="4.52801">
        <ele>1289.5999755859</ele>
        <time>2026-05-11T12:23:24.000Z</time>
      </trkpt>
      <trkpt lat="45.34409" lon="4.528">
        <ele>1289.5999755859</ele>
        <time>2026-05-11T12:23:25.000Z</time>
      </trkpt>
      <trkpt lat="45.34406" lon="4.528">
        <ele>1289.4000244141</ele>
        <time>2026-05-11T12:23:26.000Z</time>
      </trkpt>
      <trkpt lat="45.34404" lon="4.52799">
        <ele>1289.4000244141</ele>
        <time>2026-05-11T12:23:27.000Z</time>
      </trkpt>
      <trkpt lat="45.34401" lon="4.528">
        <ele>1289.4000244141</ele>
        <time>2026-05-11T12:23:28.000Z</time>
      </trkpt>
      <trkpt lat="45.34399" lon="4.528">
        <ele>1289.1999511719</ele>
        <time>2026-05-11T12:23:29.000Z</time>
      </trkpt>
      <trkpt lat="45.34396" lon="4.52799">
        <ele>1289.1999511719</ele>
        <time>2026-05-11T12:23:30.000Z</time>
      </trkpt>
      <trkpt lat="45.34394" lon="4.52799">
        <ele>1289.1999511719</ele>
        <time>2026-05-11T12:23:31.000Z</time>
      </trkpt>
      <trkpt lat="45.34392" lon="4.52799">
        <ele>1289.1999511719</ele>
        <time>2026-05-11T12:23:32.000Z</time>
      </trkpt>
      <trkpt lat="45.3439" lon="4.52798">
        <ele>1289.1999511719</ele>
        <time>2026-05-11T12:23:33.000Z</time>
      </trkpt>
      <trkpt lat="45.34388" lon="4.52797">
        <ele>1289</ele>
        <time>2026-05-11T12:23:34.000Z</time>
      </trkpt>
      <trkpt lat="45.34386" lon="4.52797">
        <ele>1289</ele>
        <time>2026-05-11T12:23:35.000Z</time>
      </trkpt>
      <trkpt lat="45.34384" lon="4.52796">
        <ele>1289</ele>
        <time>2026-05-11T12:23:36.000Z</time>
      </trkpt>
      <trkpt lat="45.34381" lon="4.52795">
        <ele>1288.8000488281</ele>
        <time>2026-05-11T12:23:37.000Z</time>
      </trkpt>
      <trkpt lat="45.34379" lon="4.52795">
        <ele>1288.5999755859</ele>
        <time>2026-05-11T12:23:38.000Z</time>
      </trkpt>
      <trkpt lat="45.34376" lon="4.52794">
        <ele>1288.4000244141</ele>
        <time>2026-05-11T12:23:39.000Z</time>
      </trkpt>
      <trkpt lat="45.34374" lon="4.52793">
        <ele>1288.4000244141</ele>
        <time>2026-05-11T12:23:40.000Z</time>
      </trkpt>
      <trkpt lat="45.34372" lon="4.52792">
        <ele>1288.1999511719</ele>
        <time>2026-05-11T12:23:41.000Z</time>
      </trkpt>
      <trkpt lat="45.34369" lon="4.52792">
        <ele>1288</ele>
        <time>2026-05-11T12:23:42.000Z</time>
      </trkpt>
      <trkpt lat="45.34367" lon="4.52791">
        <ele>1288</ele>
        <time>2026-05-11T12:23:43.000Z</time>
      </trkpt>
      <trkpt lat="45.34364" lon="4.5279">
        <ele>1287.8000488281</ele>
        <time>2026-05-11T12:23:44.000Z</time>
      </trkpt>
      <trkpt lat="45.34362" lon="4.52789">
        <ele>1287.8000488281</ele>
        <time>2026-05-11T12:23:45.000Z</time>
      </trkpt>
      <trkpt lat="45.34359" lon="4.52787">
        <ele>1287.5999755859</ele>
        <time>2026-05-11T12:23:46.000Z</time>
      </trkpt>
      <trkpt lat="45.34357" lon="4.52786">
        <ele>1287.5999755859</ele>
        <time>2026-05-11T12:23:47.000Z</time>
      </trkpt>
      <trkpt lat="45.34355" lon="4.52784">
        <ele>1287.5999755859</ele>
        <time>2026-05-11T12:23:48.000Z</time>
      </trkpt>
      <trkpt lat="45.34354" lon="4.52783">
        <ele>1287.5999755859</ele>
        <time>2026-05-11T12:23:49.000Z</time>
      </trkpt>
      <trkpt lat="45.34352" lon="4.52781">
        <ele>1287.5999755859</ele>
        <time>2026-05-11T12:23:50.000Z</time>
      </trkpt>
      <trkpt lat="45.3435" lon="4.52779">
        <ele>1287.5999755859</ele>
        <time>2026-05-11T12:23:51.000Z</time>
      </trkpt>
      <trkpt lat="45.34349" lon="4.52778">
        <ele>1287.4000244141</ele>
        <time>2026-05-11T12:23:52.000Z</time>
      </trkpt>
      <trkpt lat="45.34347" lon="4.52776">
        <ele>1287.4000244141</ele>
        <time>2026-05-11T12:23:53.000Z</time>
      </trkpt>
      <trkpt lat="45.34346" lon="4.52774">
        <ele>1287.1999511719</ele>
        <time>2026-05-11T12:23:54.000Z</time>
      </trkpt>
      <trkpt lat="45.34344" lon="4.52772">
        <ele>1287.1999511719</ele>
        <time>2026-05-11T12:23:55.000Z</time>
      </trkpt>
      <trkpt lat="45.34342" lon="4.52769">
        <ele>1287.1999511719</ele>
        <time>2026-05-11T12:23:56.000Z</time>
      </trkpt>
      <trkpt lat="45.34339" lon="4.52766">
        <ele>1287.1999511719</ele>
        <time>2026-05-11T12:23:57.000Z</time>
      </trkpt>
      <trkpt lat="45.34337" lon="4.52764">
        <ele>1287.1999511719</ele>
        <time>2026-05-11T12:23:58.000Z</time>
      </trkpt>
      <trkpt lat="45.34334" lon="4.52761">
        <ele>1287.1999511719</ele>
        <time>2026-05-11T12:23:59.000Z</time>
      </trkpt>
      <trkpt lat="45.34331" lon="4.52759">
        <ele>1287</ele>
        <time>2026-05-11T12:24:00.000Z</time>
      </trkpt>
      <trkpt lat="45.34329" lon="4.52757">
        <ele>1287</ele>
        <time>2026-05-11T12:24:01.000Z</time>
      </trkpt>
      <trkpt lat="45.34326" lon="4.52755">
        <ele>1287</ele>
        <time>2026-05-11T12:24:02.000Z</time>
      </trkpt>
      <trkpt lat="45.34324" lon="4.52753">
        <ele>1287</ele>
        <time>2026-05-11T12:24:03.000Z</time>
      </trkpt>
      <trkpt lat="45.34323" lon="4.52752">
        <ele>1287.1999511719</ele>
        <time>2026-05-11T12:24:04.000Z</time>
      </trkpt>
      <trkpt lat="45.3432" lon="4.5275">
        <ele>1287.1999511719</ele>
        <time>2026-05-11T12:24:05.000Z</time>
      </trkpt>
      <trkpt lat="45.34318" lon="4.52748">
        <ele>1287.4000244141</ele>
        <time>2026-05-11T12:24:06.000Z</time>
      </trkpt>
      <trkpt lat="45.34315" lon="4.52746">
        <ele>1287.4000244141</ele>
        <time>2026-05-11T12:24:07.000Z</time>
      </trkpt>
      <trkpt lat="45.34313" lon="4.52743">
        <ele>1287.5999755859</ele>
        <time>2026-05-11T12:24:08.000Z</time>
      </trkpt>
      <trkpt lat="45.3431" lon="4.52741">
        <ele>1287.5999755859</ele>
        <time>2026-05-11T12:24:09.000Z</time>
      </trkpt>
      <trkpt lat="45.34307" lon="4.52738">
        <ele>1287.5999755859</ele>
        <time>2026-05-11T12:24:10.000Z</time>
      </trkpt>
      <trkpt lat="45.34305" lon="4.52736">
        <ele>1287.8000488281</ele>
        <time>2026-05-11T12:24:11.000Z</time>
      </trkpt>
      <trkpt lat="45.34302" lon="4.52735">
        <ele>1287.8000488281</ele>
        <time>2026-05-11T12:24:12.000Z</time>
      </trkpt>
      <trkpt lat="45.34299" lon="4.52734">
        <ele>1287.8000488281</ele>
        <time>2026-05-11T12:24:13.000Z</time>
      </trkpt>
      <trkpt lat="45.34295" lon="4.52733">
        <ele>1287.5999755859</ele>
        <time>2026-05-11T12:24:14.000Z</time>
      </trkpt>
      <trkpt lat="45.34292" lon="4.52733">
        <ele>1287.5999755859</ele>
        <time>2026-05-11T12:24:15.000Z</time>
      </trkpt>
      <trkpt lat="45.34289" lon="4.52732">
        <ele>1287.5999755859</ele>
        <time>2026-05-11T12:24:16.000Z</time>
      </trkpt>
      <trkpt lat="45.34286" lon="4.52731">
        <ele>1287.4000244141</ele>
        <time>2026-05-11T12:24:17.000Z</time>
      </trkpt>
      <trkpt lat="45.34283" lon="4.5273">
        <ele>1287.4000244141</ele>
        <time>2026-05-11T12:24:18.000Z</time>
      </trkpt>
      <trkpt lat="45.3428" lon="4.52729">
        <ele>1287.4000244141</ele>
        <time>2026-05-11T12:24:19.000Z</time>
      </trkpt>
      <trkpt lat="45.34277" lon="4.52729">
        <ele>1287.4000244141</ele>
        <time>2026-05-11T12:24:20.000Z</time>
      </trkpt>
      <trkpt lat="45.34274" lon="4.52729">
        <ele>1287.5999755859</ele>
        <time>2026-05-11T12:24:21.000Z</time>
      </trkpt>
      <trkpt lat="45.34271" lon="4.52729">
        <ele>1287.5999755859</ele>
        <time>2026-05-11T12:24:22.000Z</time>
      </trkpt>
      <trkpt lat="45.34268" lon="4.52729">
        <ele>1287.5999755859</ele>
        <time>2026-05-11T12:24:23.000Z</time>
      </trkpt>
      <trkpt lat="45.34265" lon="4.52728">
        <ele>1287.5999755859</ele>
        <time>2026-05-11T12:24:24.000Z</time>
      </trkpt>
      <trkpt lat="45.34263" lon="4.52728">
        <ele>1287.8000488281</ele>
        <time>2026-05-11T12:24:25.000Z</time>
      </trkpt>
      <trkpt lat="45.3426" lon="4.52728">
        <ele>1287.8000488281</ele>
        <time>2026-05-11T12:24:26.000Z</time>
      </trkpt>
      <trkpt lat="45.34257" lon="4.52727">
        <ele>1287.8000488281</ele>
        <time>2026-05-11T12:24:27.000Z</time>
      </trkpt>
      <trkpt lat="45.34254" lon="4.52727">
        <ele>1287.5999755859</ele>
        <time>2026-05-11T12:24:28.000Z</time>
      </trkpt>
      <trkpt lat="45.3425" lon="4.52728">
        <ele>1287.5999755859</ele>
        <time>2026-05-11T12:24:29.000Z</time>
      </trkpt>
      <trkpt lat="45.34247" lon="4.52728">
        <ele>1287.5999755859</ele>
        <time>2026-05-11T12:24:30.000Z</time>
      </trkpt>
      <trkpt lat="45.34243" lon="4.52727">
        <ele>1287.5999755859</ele>
        <time>2026-05-11T12:24:31.000Z</time>
      </trkpt>
      <trkpt lat="45.34239" lon="4.52726">
        <ele>1287.4000244141</ele>
        <time>2026-05-11T12:24:32.000Z</time>
      </trkpt>
      <trkpt lat="45.34235" lon="4.52725">
        <ele>1287.4000244141</ele>
        <time>2026-05-11T12:24:33.000Z</time>
      </trkpt>
      <trkpt lat="45.34231" lon="4.52723">
        <ele>1287.1999511719</ele>
        <time>2026-05-11T12:24:34.000Z</time>
      </trkpt>
      <trkpt lat="45.34227" lon="4.52721">
        <ele>1287</ele>
        <time>2026-05-11T12:24:35.000Z</time>
      </trkpt>
      <trkpt lat="45.34224" lon="4.52718">
        <ele>1287</ele>
        <time>2026-05-11T12:24:36.000Z</time>
      </trkpt>
      <trkpt lat="45.3422" lon="4.52716">
        <ele>1287</ele>
        <time>2026-05-11T12:24:37.000Z</time>
      </trkpt>
      <trkpt lat="45.34217" lon="4.52714">
        <ele>1286.8000488281</ele>
        <time>2026-05-11T12:24:38.000Z</time>
      </trkpt>
      <trkpt lat="45.34214" lon="4.52712">
        <ele>1286.8000488281</ele>
        <time>2026-05-11T12:24:39.000Z</time>
      </trkpt>
      <trkpt lat="45.34211" lon="4.52709">
        <ele>1286.8000488281</ele>
        <time>2026-05-11T12:24:40.000Z</time>
      </trkpt>
      <trkpt lat="45.34208" lon="4.52707">
        <ele>1286.8000488281</ele>
        <time>2026-05-11T12:24:41.000Z</time>
      </trkpt>
      <trkpt lat="45.34205" lon="4.52706">
        <ele>1286.5999755859</ele>
        <time>2026-05-11T12:24:42.000Z</time>
      </trkpt>
      <trkpt lat="45.34202" lon="4.52704">
        <ele>1286.8000488281</ele>
        <time>2026-05-11T12:24:43.000Z</time>
      </trkpt>
      <trkpt lat="45.34199" lon="4.52702">
        <ele>1286.8000488281</ele>
        <time>2026-05-11T12:24:44.000Z</time>
      </trkpt>
      <trkpt lat="45.34196" lon="4.527">
        <ele>1286.8000488281</ele>
        <time>2026-05-11T12:24:45.000Z</time>
      </trkpt>
      <trkpt lat="45.34193" lon="4.52699">
        <ele>1287</ele>
        <time>2026-05-11T12:24:46.000Z</time>
      </trkpt>
      <trkpt lat="45.34189" lon="4.52697">
        <ele>1287</ele>
        <time>2026-05-11T12:24:47.000Z</time>
      </trkpt>
      <trkpt lat="45.34186" lon="4.52698">
        <ele>1287</ele>
        <time>2026-05-11T12:24:48.000Z</time>
      </trkpt>
      <trkpt lat="45.34182" lon="4.52698">
        <ele>1286.8000488281</ele>
        <time>2026-05-11T12:24:49.000Z</time>
      </trkpt>
      <trkpt lat="45.34178" lon="4.52697">
        <ele>1286.8000488281</ele>
        <time>2026-05-11T12:24:50.000Z</time>
      </trkpt>
      <trkpt lat="45.34174" lon="4.52696">
        <ele>1286.5999755859</ele>
        <time>2026-05-11T12:24:51.000Z</time>
      </trkpt>
      <trkpt lat="45.3417" lon="4.52696">
        <ele>1286.4000244141</ele>
        <time>2026-05-11T12:24:52.000Z</time>
      </trkpt>
      <trkpt lat="45.34166" lon="4.52695">
        <ele>1286</ele>
        <time>2026-05-11T12:24:53.000Z</time>
      </trkpt>
      <trkpt lat="45.34162" lon="4.52695">
        <ele>1285.8000488281</ele>
        <time>2026-05-11T12:24:54.000Z</time>
      </trkpt>
      <trkpt lat="45.34159" lon="4.52694">
        <ele>1285.5999755859</ele>
        <time>2026-05-11T12:24:55.000Z</time>
      </trkpt>
      <trkpt lat="45.34155" lon="4.52695">
        <ele>1285.4000244141</ele>
        <time>2026-05-11T12:24:56.000Z</time>
      </trkpt>
      <trkpt lat="45.34152" lon="4.52695">
        <ele>1285.1999511719</ele>
        <time>2026-05-11T12:24:57.000Z</time>
      </trkpt>
      <trkpt lat="45.34149" lon="4.52695">
        <ele>1285</ele>
        <time>2026-05-11T12:24:58.000Z</time>
      </trkpt>
      <trkpt lat="45.34146" lon="4.52694">
        <ele>1284.5999755859</ele>
        <time>2026-05-11T12:24:59.000Z</time>
      </trkpt>
      <trkpt lat="45.34143" lon="4.52694">
        <ele>1284.1999511719</ele>
        <time>2026-05-11T12:25:00.000Z</time>
      </trkpt>
      <trkpt lat="45.34139" lon="4.52693">
        <ele>1283.8000488281</ele>
        <time>2026-05-11T12:25:01.000Z</time>
      </trkpt>
      <trkpt lat="45.34136" lon="4.52692">
        <ele>1283.4000244141</ele>
        <time>2026-05-11T12:25:02.000Z</time>
      </trkpt>
      <trkpt lat="45.34132" lon="4.52692">
        <ele>1283.1999511719</ele>
        <time>2026-05-11T12:25:03.000Z</time>
      </trkpt>
      <trkpt lat="45.34128" lon="4.52692">
        <ele>1282.8000488281</ele>
        <time>2026-05-11T12:25:04.000Z</time>
      </trkpt>
      <trkpt lat="45.34125" lon="4.52694">
        <ele>1282.5999755859</ele>
        <time>2026-05-11T12:25:05.000Z</time>
      </trkpt>
      <trkpt lat="45.34122" lon="4.52696">
        <ele>1282.1999511719</ele>
        <time>2026-05-11T12:25:06.000Z</time>
      </trkpt>
      <trkpt lat="45.34119" lon="4.527">
        <ele>1281.8000488281</ele>
        <time>2026-05-11T12:25:07.000Z</time>
      </trkpt>
      <trkpt lat="45.34115" lon="4.52703">
        <ele>1281.5999755859</ele>
        <time>2026-05-11T12:25:08.000Z</time>
      </trkpt>
      <trkpt lat="45.34111" lon="4.52706">
        <ele>1281.1999511719</ele>
        <time>2026-05-11T12:25:09.000Z</time>
      </trkpt>
      <trkpt lat="45.34107" lon="4.52709">
        <ele>1280.8000488281</ele>
        <time>2026-05-11T12:25:10.000Z</time>
      </trkpt>
      <trkpt lat="45.34103" lon="4.52712">
        <ele>1280.4000244141</ele>
        <time>2026-05-11T12:25:11.000Z</time>
      </trkpt>
      <trkpt lat="45.34099" lon="4.52714">
        <ele>1280.1999511719</ele>
        <time>2026-05-11T12:25:12.000Z</time>
      </trkpt>
      <trkpt lat="45.34095" lon="4.52715">
        <ele>1279.8000488281</ele>
        <time>2026-05-11T12:25:13.000Z</time>
      </trkpt>
      <trkpt lat="45.34091" lon="4.52716">
        <ele>1279.8000488281</ele>
        <time>2026-05-11T12:25:14.000Z</time>
      </trkpt>
      <trkpt lat="45.34086" lon="4.52718">
        <ele>1279.8000488281</ele>
        <time>2026-05-11T12:25:15.000Z</time>
      </trkpt>
      <trkpt lat="45.34083" lon="4.52718">
        <ele>1279.8000488281</ele>
        <time>2026-05-11T12:25:16.000Z</time>
      </trkpt>
      <trkpt lat="45.3408" lon="4.5272">
        <ele>1279.5999755859</ele>
        <time>2026-05-11T12:25:17.000Z</time>
      </trkpt>
      <trkpt lat="45.34077" lon="4.52722">
        <ele>1279.5999755859</ele>
        <time>2026-05-11T12:25:18.000Z</time>
      </trkpt>
      <trkpt lat="45.34074" lon="4.52724">
        <ele>1279.5999755859</ele>
        <time>2026-05-11T12:25:19.000Z</time>
      </trkpt>
      <trkpt lat="45.34071" lon="4.52725">
        <ele>1279.5999755859</ele>
        <time>2026-05-11T12:25:20.000Z</time>
      </trkpt>
      <trkpt lat="45.34068" lon="4.52726">
        <ele>1279.5999755859</ele>
        <time>2026-05-11T12:25:21.000Z</time>
      </trkpt>
      <trkpt lat="45.34065" lon="4.52727">
        <ele>1279.5999755859</ele>
        <time>2026-05-11T12:25:22.000Z</time>
      </trkpt>
      <trkpt lat="45.34063" lon="4.52727">
        <ele>1279.8000488281</ele>
        <time>2026-05-11T12:25:23.000Z</time>
      </trkpt>
      <trkpt lat="45.3406" lon="4.52728">
        <ele>1279.8000488281</ele>
        <time>2026-05-11T12:25:24.000Z</time>
      </trkpt>
      <trkpt lat="45.34057" lon="4.52728">
        <ele>1279.8000488281</ele>
        <time>2026-05-11T12:25:25.000Z</time>
      </trkpt>
      <trkpt lat="45.34054" lon="4.5273">
        <ele>1279.5999755859</ele>
        <time>2026-05-11T12:25:26.000Z</time>
      </trkpt>
      <trkpt lat="45.3405" lon="4.52731">
        <ele>1279.5999755859</ele>
        <time>2026-05-11T12:25:27.000Z</time>
      </trkpt>
      <trkpt lat="45.34047" lon="4.52733">
        <ele>1279.4000244141</ele>
        <time>2026-05-11T12:25:28.000Z</time>
      </trkpt>
      <trkpt lat="45.34044" lon="4.52734">
        <ele>1279.4000244141</ele>
        <time>2026-05-11T12:25:29.000Z</time>
      </trkpt>
      <trkpt lat="45.3404" lon="4.52735">
        <ele>1279.4000244141</ele>
        <time>2026-05-11T12:25:30.000Z</time>
      </trkpt>
      <trkpt lat="45.34037" lon="4.52736">
        <ele>1279.1999511719</ele>
        <time>2026-05-11T12:25:31.000Z</time>
      </trkpt>
      <trkpt lat="45.34034" lon="4.52737">
        <ele>1279.1999511719</ele>
        <time>2026-05-11T12:25:32.000Z</time>
      </trkpt>
      <trkpt lat="45.3403" lon="4.52739">
        <ele>1279.1999511719</ele>
        <time>2026-05-11T12:25:33.000Z</time>
      </trkpt>
      <trkpt lat="45.34028" lon="4.5274">
        <ele>1279.1999511719</ele>
        <time>2026-05-11T12:25:34.000Z</time>
      </trkpt>
      <trkpt lat="45.34025" lon="4.52742">
        <ele>1279.1999511719</ele>
        <time>2026-05-11T12:25:35.000Z</time>
      </trkpt>
      <trkpt lat="45.34022" lon="4.52743">
        <ele>1279.1999511719</ele>
        <time>2026-05-11T12:25:36.000Z</time>
      </trkpt>
      <trkpt lat="45.34019" lon="4.52744">
        <ele>1279.1999511719</ele>
        <time>2026-05-11T12:25:37.000Z</time>
      </trkpt>
      <trkpt lat="45.34015" lon="4.52745">
        <ele>1279.1999511719</ele>
        <time>2026-05-11T12:25:38.000Z</time>
      </trkpt>
      <trkpt lat="45.34013" lon="4.52746">
        <ele>1279.1999511719</ele>
        <time>2026-05-11T12:25:39.000Z</time>
      </trkpt>
      <trkpt lat="45.34009" lon="4.52748">
        <ele>1279.1999511719</ele>
        <time>2026-05-11T12:25:40.000Z</time>
      </trkpt>
      <trkpt lat="45.34006" lon="4.5275">
        <ele>1279.1999511719</ele>
        <time>2026-05-11T12:25:41.000Z</time>
      </trkpt>
      <trkpt lat="45.34003" lon="4.52751">
        <ele>1279.4000244141</ele>
        <time>2026-05-11T12:25:42.000Z</time>
      </trkpt>
      <trkpt lat="45.34" lon="4.52752">
        <ele>1279.4000244141</ele>
        <time>2026-05-11T12:25:43.000Z</time>
      </trkpt>
      <trkpt lat="45.33997" lon="4.52752">
        <ele>1279.4000244141</ele>
        <time>2026-05-11T12:25:44.000Z</time>
      </trkpt>
      <trkpt lat="45.33994" lon="4.52753">
        <ele>1279.4000244141</ele>
        <time>2026-05-11T12:25:45.000Z</time>
      </trkpt>
      <trkpt lat="45.33991" lon="4.52754">
        <ele>1279.4000244141</ele>
        <time>2026-05-11T12:25:46.000Z</time>
      </trkpt>
      <trkpt lat="45.33988" lon="4.52756">
        <ele>1279.5999755859</ele>
        <time>2026-05-11T12:25:47.000Z</time>
      </trkpt>
      <trkpt lat="45.33985" lon="4.52757">
        <ele>1279.5999755859</ele>
        <time>2026-05-11T12:25:48.000Z</time>
      </trkpt>
      <trkpt lat="45.33982" lon="4.52758">
        <ele>1279.4000244141</ele>
        <time>2026-05-11T12:25:49.000Z</time>
      </trkpt>
      <trkpt lat="45.33978" lon="4.52759">
        <ele>1279.4000244141</ele>
        <time>2026-05-11T12:25:50.000Z</time>
      </trkpt>
      <trkpt lat="45.33975" lon="4.5276">
        <ele>1279.1999511719</ele>
        <time>2026-05-11T12:25:51.000Z</time>
      </trkpt>
      <trkpt lat="45.33971" lon="4.52761">
        <ele>1279.1999511719</ele>
        <time>2026-05-11T12:25:52.000Z</time>
      </trkpt>
      <trkpt lat="45.33968" lon="4.52761">
        <ele>1279</ele>
        <time>2026-05-11T12:25:53.000Z</time>
      </trkpt>
      <trkpt lat="45.33965" lon="4.52762">
        <ele>1279</ele>
        <time>2026-05-11T12:25:54.000Z</time>
      </trkpt>
      <trkpt lat="45.33962" lon="4.52763">
        <ele>1279</ele>
        <time>2026-05-11T12:25:55.000Z</time>
      </trkpt>
      <trkpt lat="45.33959" lon="4.52764">
        <ele>1279</ele>
        <time>2026-05-11T12:25:56.000Z</time>
      </trkpt>
      <trkpt lat="45.33957" lon="4.52765">
        <ele>1279</ele>
        <time>2026-05-11T12:25:57.000Z</time>
      </trkpt>
      <trkpt lat="45.33954" lon="4.52766">
        <ele>1278.8000488281</ele>
        <time>2026-05-11T12:25:58.000Z</time>
      </trkpt>
      <trkpt lat="45.3395" lon="4.52767">
        <ele>1278.5999755859</ele>
        <time>2026-05-11T12:25:59.000Z</time>
      </trkpt>
      <trkpt lat="45.33948" lon="4.52768">
        <ele>1278.4000244141</ele>
        <time>2026-05-11T12:26:00.000Z</time>
      </trkpt>
      <trkpt lat="45.33945" lon="4.52768">
        <ele>1278.1999511719</ele>
        <time>2026-05-11T12:26:01.000Z</time>
      </trkpt>
      <trkpt lat="45.33942" lon="4.52769">
        <ele>1277.8000488281</ele>
        <time>2026-05-11T12:26:02.000Z</time>
      </trkpt>
      <trkpt lat="45.3394" lon="4.52769">
        <ele>1277.8000488281</ele>
        <time>2026-05-11T12:26:03.000Z</time>
      </trkpt>
      <trkpt lat="45.33938" lon="4.5277">
        <ele>1277.5999755859</ele>
        <time>2026-05-11T12:26:04.000Z</time>
      </trkpt>
      <trkpt lat="45.33935" lon="4.5277">
        <ele>1277.4000244141</ele>
        <time>2026-05-11T12:26:05.000Z</time>
      </trkpt>
      <trkpt lat="45.33933" lon="4.52771">
        <ele>1277.4000244141</ele>
        <time>2026-05-11T12:26:06.000Z</time>
      </trkpt>
      <trkpt lat="45.33931" lon="4.52771">
        <ele>1277.4000244141</ele>
        <time>2026-05-11T12:26:07.000Z</time>
      </trkpt>
      <trkpt lat="45.33928" lon="4.5277">
        <ele>1277.4000244141</ele>
        <time>2026-05-11T12:26:08.000Z</time>
      </trkpt>
      <trkpt lat="45.33926" lon="4.52769">
        <ele>1277.4000244141</ele>
        <time>2026-05-11T12:26:09.000Z</time>
      </trkpt>
      <trkpt lat="45.33924" lon="4.52768">
        <ele>1277.4000244141</ele>
        <time>2026-05-11T12:26:10.000Z</time>
      </trkpt>
      <trkpt lat="45.33922" lon="4.52767">
        <ele>1277.4000244141</ele>
        <time>2026-05-11T12:26:11.000Z</time>
      </trkpt>
      <trkpt lat="45.3392" lon="4.52765">
        <ele>1277.1999511719</ele>
        <time>2026-05-11T12:26:12.000Z</time>
      </trkpt>
      <trkpt lat="45.33918" lon="4.52763">
        <ele>1277.1999511719</ele>
        <time>2026-05-11T12:26:13.000Z</time>
      </trkpt>
      <trkpt lat="45.33916" lon="4.52763">
        <ele>1277.1999511719</ele>
        <time>2026-05-11T12:26:14.000Z</time>
      </trkpt>
      <trkpt lat="45.33913" lon="4.52761">
        <ele>1277</ele>
        <time>2026-05-11T12:26:15.000Z</time>
      </trkpt>
      <trkpt lat="45.33911" lon="4.5276">
        <ele>1277</ele>
        <time>2026-05-11T12:26:16.000Z</time>
      </trkpt>
      <trkpt lat="45.33908" lon="4.52759">
        <ele>1276.8000488281</ele>
        <time>2026-05-11T12:26:17.000Z</time>
      </trkpt>
      <trkpt lat="45.33906" lon="4.52756">
        <ele>1276.5999755859</ele>
        <time>2026-05-11T12:26:18.000Z</time>
      </trkpt>
      <trkpt lat="45.33903" lon="4.52755">
        <ele>1276.5999755859</ele>
        <time>2026-05-11T12:26:19.000Z</time>
      </trkpt>
      <trkpt lat="45.33901" lon="4.52752">
        <ele>1276.5999755859</ele>
        <time>2026-05-11T12:26:20.000Z</time>
      </trkpt>
      <trkpt lat="45.33898" lon="4.52749">
        <ele>1276.5999755859</ele>
        <time>2026-05-11T12:26:21.000Z</time>
      </trkpt>
      <trkpt lat="45.33896" lon="4.52746">
        <ele>1276.4000244141</ele>
        <time>2026-05-11T12:26:22.000Z</time>
      </trkpt>
      <trkpt lat="45.33894" lon="4.52744">
        <ele>1276.4000244141</ele>
        <time>2026-05-11T12:26:23.000Z</time>
      </trkpt>
      <trkpt lat="45.33892" lon="4.52741">
        <ele>1276.1999511719</ele>
        <time>2026-05-11T12:26:24.000Z</time>
      </trkpt>
      <trkpt lat="45.3389" lon="4.52738">
        <ele>1276.1999511719</ele>
        <time>2026-05-11T12:26:25.000Z</time>
      </trkpt>
      <trkpt lat="45.33888" lon="4.52734">
        <ele>1276</ele>
        <time>2026-05-11T12:26:26.000Z</time>
      </trkpt>
      <trkpt lat="45.33885" lon="4.52731">
        <ele>1275.8000488281</ele>
        <time>2026-05-11T12:26:27.000Z</time>
      </trkpt>
      <trkpt lat="45.33882" lon="4.52729">
        <ele>1275.5999755859</ele>
        <time>2026-05-11T12:26:28.000Z</time>
      </trkpt>
      <trkpt lat="45.33881" lon="4.52725">
        <ele>1275.4000244141</ele>
        <time>2026-05-11T12:26:29.000Z</time>
      </trkpt>
      <trkpt lat="45.33879" lon="4.52721">
        <ele>1275.1999511719</ele>
        <time>2026-05-11T12:26:30.000Z</time>
      </trkpt>
      <trkpt lat="45.33877" lon="4.52718">
        <ele>1275</ele>
        <time>2026-05-11T12:26:31.000Z</time>
      </trkpt>
      <trkpt lat="45.33875" lon="4.52713">
        <ele>1274.8000488281</ele>
        <time>2026-05-11T12:26:32.000Z</time>
      </trkpt>
      <trkpt lat="45.33873" lon="4.5271">
        <ele>1274.5999755859</ele>
        <time>2026-05-11T12:26:33.000Z</time>
      </trkpt>
      <trkpt lat="45.33872" lon="4.52705">
        <ele>1274.4000244141</ele>
        <time>2026-05-11T12:26:34.000Z</time>
      </trkpt>
      <trkpt lat="45.3387" lon="4.52701">
        <ele>1274</ele>
        <time>2026-05-11T12:26:35.000Z</time>
      </trkpt>
      <trkpt lat="45.33869" lon="4.52696">
        <ele>1273.5999755859</ele>
        <time>2026-05-11T12:26:36.000Z</time>
      </trkpt>
      <trkpt lat="45.33866" lon="4.52692">
        <ele>1273.4000244141</ele>
        <time>2026-05-11T12:26:37.000Z</time>
      </trkpt>
      <trkpt lat="45.33864" lon="4.52689">
        <ele>1273</ele>
        <time>2026-05-11T12:26:38.000Z</time>
      </trkpt>
      <trkpt lat="45.33861" lon="4.52685">
        <ele>1272.8000488281</ele>
        <time>2026-05-11T12:26:39.000Z</time>
      </trkpt>
      <trkpt lat="45.33858" lon="4.52681">
        <ele>1272.4000244141</ele>
        <time>2026-05-11T12:26:40.000Z</time>
      </trkpt>
      <trkpt lat="45.33855" lon="4.52678">
        <ele>1272</ele>
        <time>2026-05-11T12:26:41.000Z</time>
      </trkpt>
      <trkpt lat="45.33853" lon="4.52675">
        <ele>1271.8000488281</ele>
        <time>2026-05-11T12:26:42.000Z</time>
      </trkpt>
      <trkpt lat="45.33851" lon="4.52672">
        <ele>1271.4000244141</ele>
        <time>2026-05-11T12:26:43.000Z</time>
      </trkpt>
      <trkpt lat="45.33848" lon="4.52669">
        <ele>1271</ele>
        <time>2026-05-11T12:26:44.000Z</time>
      </trkpt>
      <trkpt lat="45.33845" lon="4.52666">
        <ele>1270.5999755859</ele>
        <time>2026-05-11T12:26:45.000Z</time>
      </trkpt>
      <trkpt lat="45.33843" lon="4.52664">
        <ele>1270</ele>
        <time>2026-05-11T12:26:46.000Z</time>
      </trkpt>
      <trkpt lat="45.33841" lon="4.52662">
        <ele>1269.4000244141</ele>
        <time>2026-05-11T12:26:47.000Z</time>
      </trkpt>
      <trkpt lat="45.33839" lon="4.5266">
        <ele>1268.8000488281</ele>
        <time>2026-05-11T12:26:48.000Z</time>
      </trkpt>
      <trkpt lat="45.33837" lon="4.5266">
        <ele>1268.4000244141</ele>
        <time>2026-05-11T12:26:49.000Z</time>
      </trkpt>
      <trkpt lat="45.33835" lon="4.5266">
        <ele>1267.8000488281</ele>
        <time>2026-05-11T12:26:50.000Z</time>
      </trkpt>
      <trkpt lat="45.33833" lon="4.52659">
        <ele>1267.4000244141</ele>
        <time>2026-05-11T12:26:51.000Z</time>
      </trkpt>
      <trkpt lat="45.33831" lon="4.5266">
        <ele>1267</ele>
        <time>2026-05-11T12:26:52.000Z</time>
      </trkpt>
      <trkpt lat="45.3383" lon="4.52662">
        <ele>1266.5999755859</ele>
        <time>2026-05-11T12:26:53.000Z</time>
      </trkpt>
      <trkpt lat="45.33828" lon="4.52663">
        <ele>1266.4000244141</ele>
        <time>2026-05-11T12:26:54.000Z</time>
      </trkpt>
      <trkpt lat="45.33827" lon="4.52665">
        <ele>1266.1999511719</ele>
        <time>2026-05-11T12:26:55.000Z</time>
      </trkpt>
      <trkpt lat="45.33825" lon="4.52666">
        <ele>1266</ele>
        <time>2026-05-11T12:26:56.000Z</time>
      </trkpt>
      <trkpt lat="45.33823" lon="4.52667">
        <ele>1265.8000488281</ele>
        <time>2026-05-11T12:26:57.000Z</time>
      </trkpt>
      <trkpt lat="45.33821" lon="4.52668">
        <ele>1265.4000244141</ele>
        <time>2026-05-11T12:26:58.000Z</time>
      </trkpt>
      <trkpt lat="45.33819" lon="4.5267">
        <ele>1265.1999511719</ele>
        <time>2026-05-11T12:26:59.000Z</time>
      </trkpt>
      <trkpt lat="45.33817" lon="4.52671">
        <ele>1264.8000488281</ele>
        <time>2026-05-11T12:27:00.000Z</time>
      </trkpt>
      <trkpt lat="45.33815" lon="4.52673">
        <ele>1264.5999755859</ele>
        <time>2026-05-11T12:27:01.000Z</time>
      </trkpt>
      <trkpt lat="45.33813" lon="4.52674">
        <ele>1264.1999511719</ele>
        <time>2026-05-11T12:27:02.000Z</time>
      </trkpt>
      <trkpt lat="45.33811" lon="4.52676">
        <ele>1263.8000488281</ele>
        <time>2026-05-11T12:27:03.000Z</time>
      </trkpt>
      <trkpt lat="45.3381" lon="4.52677">
        <ele>1263.4000244141</ele>
        <time>2026-05-11T12:27:04.000Z</time>
      </trkpt>
      <trkpt lat="45.33808" lon="4.52679">
        <ele>1263.1999511719</ele>
        <time>2026-05-11T12:27:05.000Z</time>
      </trkpt>
      <trkpt lat="45.33807" lon="4.5268">
        <ele>1263</ele>
        <time>2026-05-11T12:27:06.000Z</time>
      </trkpt>
      <trkpt lat="45.33805" lon="4.52682">
        <ele>1262.5999755859</ele>
        <time>2026-05-11T12:27:07.000Z</time>
      </trkpt>
      <trkpt lat="45.33804" lon="4.52682">
        <ele>1262.4000244141</ele>
        <time>2026-05-11T12:27:08.000Z</time>
      </trkpt>
      <trkpt lat="45.33802" lon="4.52683">
        <ele>1262.1999511719</ele>
        <time>2026-05-11T12:27:09.000Z</time>
      </trkpt>
      <trkpt lat="45.338" lon="4.52685">
        <ele>1262</ele>
        <time>2026-05-11T12:27:10.000Z</time>
      </trkpt>
      <trkpt lat="45.33799" lon="4.52686">
        <ele>1261.5999755859</ele>
        <time>2026-05-11T12:27:11.000Z</time>
      </trkpt>
      <trkpt lat="45.33798" lon="4.52688">
        <ele>1261.5999755859</ele>
        <time>2026-05-11T12:27:12.000Z</time>
      </trkpt>
      <trkpt lat="45.33796" lon="4.52689">
        <ele>1261.4000244141</ele>
        <time>2026-05-11T12:27:13.000Z</time>
      </trkpt>
      <trkpt lat="45.33795" lon="4.52691">
        <ele>1261.1999511719</ele>
        <time>2026-05-11T12:27:14.000Z</time>
      </trkpt>
      <trkpt lat="45.33794" lon="4.52692">
        <ele>1261</ele>
        <time>2026-05-11T12:27:15.000Z</time>
      </trkpt>
      <trkpt lat="45.33792" lon="4.52694">
        <ele>1261</ele>
        <time>2026-05-11T12:27:16.000Z</time>
      </trkpt>
      <trkpt lat="45.3379" lon="4.52696">
        <ele>1260.8000488281</ele>
        <time>2026-05-11T12:27:17.000Z</time>
      </trkpt>
      <trkpt lat="45.33788" lon="4.52699">
        <ele>1260.5999755859</ele>
        <time>2026-05-11T12:27:18.000Z</time>
      </trkpt>
      <trkpt lat="45.33787" lon="4.52701">
        <ele>1260.4000244141</ele>
        <time>2026-05-11T12:27:19.000Z</time>
      </trkpt>
      <trkpt lat="45.33785" lon="4.52703">
        <ele>1260</ele>
        <time>2026-05-11T12:27:20.000Z</time>
      </trkpt>
      <trkpt lat="45.33783" lon="4.52705">
        <ele>1259.8000488281</ele>
        <time>2026-05-11T12:27:21.000Z</time>
      </trkpt>
      <trkpt lat="45.33781" lon="4.52708">
        <ele>1259.4000244141</ele>
        <time>2026-05-11T12:27:22.000Z</time>
      </trkpt>
      <trkpt lat="45.33779" lon="4.52709">
        <ele>1259.1999511719</ele>
        <time>2026-05-11T12:27:23.000Z</time>
      </trkpt>
      <trkpt lat="45.33777" lon="4.52711">
        <ele>1259</ele>
        <time>2026-05-11T12:27:24.000Z</time>
      </trkpt>
      <trkpt lat="45.33775" lon="4.52712">
        <ele>1258.5999755859</ele>
        <time>2026-05-11T12:27:25.000Z</time>
      </trkpt>
      <trkpt lat="45.33773" lon="4.52715">
        <ele>1258.4000244141</ele>
        <time>2026-05-11T12:27:26.000Z</time>
      </trkpt>
      <trkpt lat="45.33771" lon="4.52717">
        <ele>1258.1999511719</ele>
        <time>2026-05-11T12:27:27.000Z</time>
      </trkpt>
      <trkpt lat="45.33769" lon="4.52719">
        <ele>1258</ele>
        <time>2026-05-11T12:27:28.000Z</time>
      </trkpt>
      <trkpt lat="45.33767" lon="4.52721">
        <ele>1257.8000488281</ele>
        <time>2026-05-11T12:27:29.000Z</time>
      </trkpt>
      <trkpt lat="45.33765" lon="4.52723">
        <ele>1257.4000244141</ele>
        <time>2026-05-11T12:27:30.000Z</time>
      </trkpt>
      <trkpt lat="45.33763" lon="4.52725">
        <ele>1257.1999511719</ele>
        <time>2026-05-11T12:27:31.000Z</time>
      </trkpt>
      <trkpt lat="45.33761" lon="4.52726">
        <ele>1257</ele>
        <time>2026-05-11T12:27:32.000Z</time>
      </trkpt>
      <trkpt lat="45.33759" lon="4.52728">
        <ele>1256.8000488281</ele>
        <time>2026-05-11T12:27:33.000Z</time>
      </trkpt>
      <trkpt lat="45.33758" lon="4.5273">
        <ele>1256.5999755859</ele>
        <time>2026-05-11T12:27:34.000Z</time>
      </trkpt>
      <trkpt lat="45.33756" lon="4.52731">
        <ele>1256.4000244141</ele>
        <time>2026-05-11T12:27:35.000Z</time>
      </trkpt>
      <trkpt lat="45.33755" lon="4.52731">
        <ele>1256.1999511719</ele>
        <time>2026-05-11T12:27:36.000Z</time>
      </trkpt>
      <trkpt lat="45.33753" lon="4.52732">
        <ele>1256</ele>
        <time>2026-05-11T12:27:37.000Z</time>
      </trkpt>
      <trkpt lat="45.33751" lon="4.52733">
        <ele>1255.8000488281</ele>
        <time>2026-05-11T12:27:38.000Z</time>
      </trkpt>
      <trkpt lat="45.33749" lon="4.52735">
        <ele>1255.4000244141</ele>
        <time>2026-05-11T12:27:39.000Z</time>
      </trkpt>
      <trkpt lat="45.33747" lon="4.52736">
        <ele>1255.1999511719</ele>
        <time>2026-05-11T12:27:40.000Z</time>
      </trkpt>
      <trkpt lat="45.33746" lon="4.52737">
        <ele>1255</ele>
        <time>2026-05-11T12:27:41.000Z</time>
      </trkpt>
      <trkpt lat="45.33744" lon="4.52738">
        <ele>1254.8000488281</ele>
        <time>2026-05-11T12:27:42.000Z</time>
      </trkpt>
      <trkpt lat="45.33742" lon="4.52739">
        <ele>1254.5999755859</ele>
        <time>2026-05-11T12:27:43.000Z</time>
      </trkpt>
      <trkpt lat="45.3374" lon="4.52741">
        <ele>1254.1999511719</ele>
        <time>2026-05-11T12:27:44.000Z</time>
      </trkpt>
      <trkpt lat="45.33738" lon="4.52742">
        <ele>1254</ele>
        <time>2026-05-11T12:27:45.000Z</time>
      </trkpt>
      <trkpt lat="45.33736" lon="4.52744">
        <ele>1253.5999755859</ele>
        <time>2026-05-11T12:27:46.000Z</time>
      </trkpt>
      <trkpt lat="45.33735" lon="4.52746">
        <ele>1253.1999511719</ele>
        <time>2026-05-11T12:27:47.000Z</time>
      </trkpt>
      <trkpt lat="45.33733" lon="4.52747">
        <ele>1253</ele>
        <time>2026-05-11T12:27:48.000Z</time>
      </trkpt>
      <trkpt lat="45.33731" lon="4.52748">
        <ele>1252.5999755859</ele>
        <time>2026-05-11T12:27:49.000Z</time>
      </trkpt>
      <trkpt lat="45.33729" lon="4.52748">
        <ele>1252.4000244141</ele>
        <time>2026-05-11T12:27:50.000Z</time>
      </trkpt>
      <trkpt lat="45.33727" lon="4.52748">
        <ele>1252</ele>
        <time>2026-05-11T12:27:51.000Z</time>
      </trkpt>
      <trkpt lat="45.33725" lon="4.52748">
        <ele>1251.8000488281</ele>
        <time>2026-05-11T12:27:52.000Z</time>
      </trkpt>
      <trkpt lat="45.33723" lon="4.52749">
        <ele>1251.5999755859</ele>
        <time>2026-05-11T12:27:53.000Z</time>
      </trkpt>
      <trkpt lat="45.33721" lon="4.5275">
        <ele>1251.1999511719</ele>
        <time>2026-05-11T12:27:54.000Z</time>
      </trkpt>
      <trkpt lat="45.33719" lon="4.52752">
        <ele>1251</ele>
        <time>2026-05-11T12:27:55.000Z</time>
      </trkpt>
      <trkpt lat="45.33718" lon="4.52753">
        <ele>1250.5999755859</ele>
        <time>2026-05-11T12:27:56.000Z</time>
      </trkpt>
      <trkpt lat="45.33716" lon="4.52753">
        <ele>1250.1999511719</ele>
        <time>2026-05-11T12:27:57.000Z</time>
      </trkpt>
      <trkpt lat="45.33715" lon="4.52754">
        <ele>1250</ele>
        <time>2026-05-11T12:27:58.000Z</time>
      </trkpt>
      <trkpt lat="45.33713" lon="4.52756">
        <ele>1249.8000488281</ele>
        <time>2026-05-11T12:27:59.000Z</time>
      </trkpt>
      <trkpt lat="45.33711" lon="4.52757">
        <ele>1249.5999755859</ele>
        <time>2026-05-11T12:28:00.000Z</time>
      </trkpt>
      <trkpt lat="45.33709" lon="4.52758">
        <ele>1249.1999511719</ele>
        <time>2026-05-11T12:28:01.000Z</time>
      </trkpt>
      <trkpt lat="45.33706" lon="4.5276">
        <ele>1249</ele>
        <time>2026-05-11T12:28:02.000Z</time>
      </trkpt>
      <trkpt lat="45.33705" lon="4.52761">
        <ele>1248.8000488281</ele>
        <time>2026-05-11T12:28:03.000Z</time>
      </trkpt>
      <trkpt lat="45.33703" lon="4.52762">
        <ele>1248.4000244141</ele>
        <time>2026-05-11T12:28:04.000Z</time>
      </trkpt>
      <trkpt lat="45.33701" lon="4.52763">
        <ele>1248.1999511719</ele>
        <time>2026-05-11T12:28:05.000Z</time>
      </trkpt>
      <trkpt lat="45.33699" lon="4.52764">
        <ele>1248</ele>
        <time>2026-05-11T12:28:06.000Z</time>
      </trkpt>
      <trkpt lat="45.33697" lon="4.52765">
        <ele>1247.8000488281</ele>
        <time>2026-05-11T12:28:07.000Z</time>
      </trkpt>
      <trkpt lat="45.33696" lon="4.52765">
        <ele>1247.4000244141</ele>
        <time>2026-05-11T12:28:08.000Z</time>
      </trkpt>
      <trkpt lat="45.33694" lon="4.52766">
        <ele>1247.1999511719</ele>
        <time>2026-05-11T12:28:09.000Z</time>
      </trkpt>
      <trkpt lat="45.33692" lon="4.52767">
        <ele>1247</ele>
        <time>2026-05-11T12:28:10.000Z</time>
      </trkpt>
      <trkpt lat="45.33689" lon="4.52767">
        <ele>1246.5999755859</ele>
        <time>2026-05-11T12:28:11.000Z</time>
      </trkpt>
      <trkpt lat="45.33687" lon="4.52768">
        <ele>1246.4000244141</ele>
        <time>2026-05-11T12:28:12.000Z</time>
      </trkpt>
      <trkpt lat="45.33685" lon="4.52768">
        <ele>1246</ele>
        <time>2026-05-11T12:28:13.000Z</time>
      </trkpt>
      <trkpt lat="45.33683" lon="4.52769">
        <ele>1245.8000488281</ele>
        <time>2026-05-11T12:28:14.000Z</time>
      </trkpt>
      <trkpt lat="45.33681" lon="4.5277">
        <ele>1245.5999755859</ele>
        <time>2026-05-11T12:28:15.000Z</time>
      </trkpt>
      <trkpt lat="45.33678" lon="4.5277">
        <ele>1245.1999511719</ele>
        <time>2026-05-11T12:28:16.000Z</time>
      </trkpt>
      <trkpt lat="45.33676" lon="4.52771">
        <ele>1245</ele>
        <time>2026-05-11T12:28:17.000Z</time>
      </trkpt>
      <trkpt lat="45.33674" lon="4.52772">
        <ele>1244.8000488281</ele>
        <time>2026-05-11T12:28:18.000Z</time>
      </trkpt>
      <trkpt lat="45.33671" lon="4.52773">
        <ele>1244.5999755859</ele>
        <time>2026-05-11T12:28:19.000Z</time>
      </trkpt>
      <trkpt lat="45.33669" lon="4.52774">
        <ele>1244.1999511719</ele>
        <time>2026-05-11T12:28:20.000Z</time>
      </trkpt>
      <trkpt lat="45.33667" lon="4.52775">
        <ele>1244</ele>
        <time>2026-05-11T12:28:21.000Z</time>
      </trkpt>
      <trkpt lat="45.33665" lon="4.52776">
        <ele>1243.8000488281</ele>
        <time>2026-05-11T12:28:22.000Z</time>
      </trkpt>
      <trkpt lat="45.33662" lon="4.52777">
        <ele>1243.5999755859</ele>
        <time>2026-05-11T12:28:23.000Z</time>
      </trkpt>
      <trkpt lat="45.3366" lon="4.52777">
        <ele>1243.4000244141</ele>
        <time>2026-05-11T12:28:24.000Z</time>
      </trkpt>
      <trkpt lat="45.33658" lon="4.52778">
        <ele>1243.1999511719</ele>
        <time>2026-05-11T12:28:25.000Z</time>
      </trkpt>
      <trkpt lat="45.33656" lon="4.52779">
        <ele>1243</ele>
        <time>2026-05-11T12:28:26.000Z</time>
      </trkpt>
      <trkpt lat="45.33653" lon="4.5278">
        <ele>1242.5999755859</ele>
        <time>2026-05-11T12:28:27.000Z</time>
      </trkpt>
      <trkpt lat="45.33651" lon="4.52781">
        <ele>1242.4000244141</ele>
        <time>2026-05-11T12:28:28.000Z</time>
      </trkpt>
      <trkpt lat="45.33649" lon="4.52781">
        <ele>1242.1999511719</ele>
        <time>2026-05-11T12:28:29.000Z</time>
      </trkpt>
      <trkpt lat="45.33646" lon="4.52783">
        <ele>1242</ele>
        <time>2026-05-11T12:28:30.000Z</time>
      </trkpt>
      <trkpt lat="45.33643" lon="4.52783">
        <ele>1241.5999755859</ele>
        <time>2026-05-11T12:28:31.000Z</time>
      </trkpt>
      <trkpt lat="45.33641" lon="4.52784">
        <ele>1241.4000244141</ele>
        <time>2026-05-11T12:28:32.000Z</time>
      </trkpt>
      <trkpt lat="45.33638" lon="4.52784">
        <ele>1241.1999511719</ele>
        <time>2026-05-11T12:28:33.000Z</time>
      </trkpt>
      <trkpt lat="45.33635" lon="4.52785">
        <ele>1241</ele>
        <time>2026-05-11T12:28:34.000Z</time>
      </trkpt>
      <trkpt lat="45.33633" lon="4.52786">
        <ele>1240.5999755859</ele>
        <time>2026-05-11T12:28:35.000Z</time>
      </trkpt>
      <trkpt lat="45.3363" lon="4.52786">
        <ele>1240.4000244141</ele>
        <time>2026-05-11T12:28:36.000Z</time>
      </trkpt>
      <trkpt lat="45.33628" lon="4.52786">
        <ele>1240.1999511719</ele>
        <time>2026-05-11T12:28:37.000Z</time>
      </trkpt>
      <trkpt lat="45.33626" lon="4.52786">
        <ele>1239.8000488281</ele>
        <time>2026-05-11T12:28:38.000Z</time>
      </trkpt>
      <trkpt lat="45.33625" lon="4.52786">
        <ele>1239.8000488281</ele>
        <time>2026-05-11T12:28:39.000Z</time>
      </trkpt>
      <trkpt lat="45.33625" lon="4.52786">
        <ele>1239.5999755859</ele>
        <time>2026-05-11T12:28:40.000Z</time>
      </trkpt>
      <trkpt lat="45.33625" lon="4.52786">
        <ele>1239.4000244141</ele>
        <time>2026-05-11T12:28:41.000Z</time>
      </trkpt>
      <trkpt lat="45.3362" lon="4.52787">
        <ele>1238.8000488281</ele>
        <time>2026-05-11T12:28:47.000Z</time>
      </trkpt>
      <trkpt lat="45.33619" lon="4.52787">
        <ele>1238.8000488281</ele>
        <time>2026-05-11T12:28:48.000Z</time>
      </trkpt>
      <trkpt lat="45.33617" lon="4.52788">
        <ele>1238.5999755859</ele>
        <time>2026-05-11T12:28:49.000Z</time>
      </trkpt>
      <trkpt lat="45.33616" lon="4.52788">
        <ele>1238.4000244141</ele>
        <time>2026-05-11T12:28:50.000Z</time>
      </trkpt>
      <trkpt lat="45.33614" lon="4.52788">
        <ele>1238.1999511719</ele>
        <time>2026-05-11T12:28:51.000Z</time>
      </trkpt>
      <trkpt lat="45.33613" lon="4.52788">
        <ele>1238</ele>
        <time>2026-05-11T12:28:52.000Z</time>
      </trkpt>
      <trkpt lat="45.33611" lon="4.52788">
        <ele>1237.8000488281</ele>
        <time>2026-05-11T12:28:53.000Z</time>
      </trkpt>
      <trkpt lat="45.3361" lon="4.52788">
        <ele>1237.5999755859</ele>
        <time>2026-05-11T12:28:54.000Z</time>
      </trkpt>
      <trkpt lat="45.33608" lon="4.52788">
        <ele>1237.4000244141</ele>
        <time>2026-05-11T12:28:55.000Z</time>
      </trkpt>
      <trkpt lat="45.33607" lon="4.52788">
        <ele>1237.1999511719</ele>
        <time>2026-05-11T12:28:56.000Z</time>
      </trkpt>
      <trkpt lat="45.33605" lon="4.52787">
        <ele>1237</ele>
        <time>2026-05-11T12:28:57.000Z</time>
      </trkpt>
      <trkpt lat="45.33603" lon="4.52787">
        <ele>1236.8000488281</ele>
        <time>2026-05-11T12:28:58.000Z</time>
      </trkpt>
      <trkpt lat="45.33601" lon="4.52786">
        <ele>1236.5999755859</ele>
        <time>2026-05-11T12:28:59.000Z</time>
      </trkpt>
      <trkpt lat="45.33599" lon="4.52786">
        <ele>1236.4000244141</ele>
        <time>2026-05-11T12:29:00.000Z</time>
      </trkpt>
      <trkpt lat="45.33597" lon="4.52785">
        <ele>1236</ele>
        <time>2026-05-11T12:29:01.000Z</time>
      </trkpt>
      <trkpt lat="45.33595" lon="4.52784">
        <ele>1235.8000488281</ele>
        <time>2026-05-11T12:29:02.000Z</time>
      </trkpt>
      <trkpt lat="45.33593" lon="4.52783">
        <ele>1235.5999755859</ele>
        <time>2026-05-11T12:29:03.000Z</time>
      </trkpt>
      <trkpt lat="45.33591" lon="4.52782">
        <ele>1235.4000244141</ele>
        <time>2026-05-11T12:29:04.000Z</time>
      </trkpt>
      <trkpt lat="45.33589" lon="4.52781">
        <ele>1235.1999511719</ele>
        <time>2026-05-11T12:29:05.000Z</time>
      </trkpt>
      <trkpt lat="45.33587" lon="4.52779">
        <ele>1234.8000488281</ele>
        <time>2026-05-11T12:29:06.000Z</time>
      </trkpt>
      <trkpt lat="45.33585" lon="4.52778">
        <ele>1234.5999755859</ele>
        <time>2026-05-11T12:29:07.000Z</time>
      </trkpt>
      <trkpt lat="45.33583" lon="4.52776">
        <ele>1234.1999511719</ele>
        <time>2026-05-11T12:29:08.000Z</time>
      </trkpt>
      <trkpt lat="45.33581" lon="4.52775">
        <ele>1234</ele>
        <time>2026-05-11T12:29:09.000Z</time>
      </trkpt>
      <trkpt lat="45.33578" lon="4.52774">
        <ele>1233.8000488281</ele>
        <time>2026-05-11T12:29:10.000Z</time>
      </trkpt>
      <trkpt lat="45.33575" lon="4.52773">
        <ele>1233.4000244141</ele>
        <time>2026-05-11T12:29:11.000Z</time>
      </trkpt>
      <trkpt lat="45.33572" lon="4.52773">
        <ele>1233.1999511719</ele>
        <time>2026-05-11T12:29:12.000Z</time>
      </trkpt>
      <trkpt lat="45.3357" lon="4.52773">
        <ele>1232.8000488281</ele>
        <time>2026-05-11T12:29:13.000Z</time>
      </trkpt>
      <trkpt lat="45.33568" lon="4.52772">
        <ele>1232.5999755859</ele>
        <time>2026-05-11T12:29:14.000Z</time>
      </trkpt>
      <trkpt lat="45.33566" lon="4.52771">
        <ele>1232.4000244141</ele>
        <time>2026-05-11T12:29:15.000Z</time>
      </trkpt>
      <trkpt lat="45.33565" lon="4.5277">
        <ele>1232.1999511719</ele>
        <time>2026-05-11T12:29:16.000Z</time>
      </trkpt>
      <trkpt lat="45.33565" lon="4.52771">
        <ele>1232</ele>
        <time>2026-05-11T12:29:17.000Z</time>
      </trkpt>
      <trkpt lat="45.33562" lon="4.52774">
        <ele>1230</ele>
        <time>2026-05-11T12:34:01.000Z</time>
      </trkpt>
      <trkpt lat="45.33561" lon="4.52776">
        <ele>1229.8000488281</ele>
        <time>2026-05-11T12:34:02.000Z</time>
      </trkpt>
      <trkpt lat="45.3356" lon="4.52779">
        <ele>1229.8000488281</ele>
        <time>2026-05-11T12:34:03.000Z</time>
      </trkpt>
      <trkpt lat="45.3356" lon="4.52781">
        <ele>1229.5999755859</ele>
        <time>2026-05-11T12:34:04.000Z</time>
      </trkpt>
      <trkpt lat="45.33559" lon="4.52784">
        <ele>1229.4000244141</ele>
        <time>2026-05-11T12:34:05.000Z</time>
      </trkpt>
      <trkpt lat="45.33558" lon="4.52787">
        <ele>1229.1999511719</ele>
        <time>2026-05-11T12:34:06.000Z</time>
      </trkpt>
      <trkpt lat="45.33557" lon="4.52789">
        <ele>1229</ele>
        <time>2026-05-11T12:34:07.000Z</time>
      </trkpt>
      <trkpt lat="45.33556" lon="4.52792">
        <ele>1228.8000488281</ele>
        <time>2026-05-11T12:34:08.000Z</time>
      </trkpt>
      <trkpt lat="45.33556" lon="4.52795">
        <ele>1228.5999755859</ele>
        <time>2026-05-11T12:34:09.000Z</time>
      </trkpt>
      <trkpt lat="45.33555" lon="4.52798">
        <ele>1228.4000244141</ele>
        <time>2026-05-11T12:34:10.000Z</time>
      </trkpt>
      <trkpt lat="45.33555" lon="4.52802">
        <ele>1228.1999511719</ele>
        <time>2026-05-11T12:34:11.000Z</time>
      </trkpt>
      <trkpt lat="45.33555" lon="4.52806">
        <ele>1228</ele>
        <time>2026-05-11T12:34:12.000Z</time>
      </trkpt>
      <trkpt lat="45.33554" lon="4.52811">
        <ele>1227.5999755859</ele>
        <time>2026-05-11T12:34:13.000Z</time>
      </trkpt>
      <trkpt lat="45.33554" lon="4.52816">
        <ele>1227.4000244141</ele>
        <time>2026-05-11T12:34:14.000Z</time>
      </trkpt>
      <trkpt lat="45.33555" lon="4.52821">
        <ele>1227.1999511719</ele>
        <time>2026-05-11T12:34:15.000Z</time>
      </trkpt>
      <trkpt lat="45.33555" lon="4.52827">
        <ele>1227</ele>
        <time>2026-05-11T12:34:16.000Z</time>
      </trkpt>
      <trkpt lat="45.33556" lon="4.52832">
        <ele>1226.5999755859</ele>
        <time>2026-05-11T12:34:17.000Z</time>
      </trkpt>
      <trkpt lat="45.33556" lon="4.52837">
        <ele>1226.4000244141</ele>
        <time>2026-05-11T12:34:18.000Z</time>
      </trkpt>
      <trkpt lat="45.33557" lon="4.52841">
        <ele>1226.1999511719</ele>
        <time>2026-05-11T12:34:19.000Z</time>
      </trkpt>
      <trkpt lat="45.33557" lon="4.52846">
        <ele>1226</ele>
        <time>2026-05-11T12:34:20.000Z</time>
      </trkpt>
      <trkpt lat="45.33558" lon="4.5285">
        <ele>1225.8000488281</ele>
        <time>2026-05-11T12:34:21.000Z</time>
      </trkpt>
      <trkpt lat="45.33559" lon="4.52855">
        <ele>1225.5999755859</ele>
        <time>2026-05-11T12:34:22.000Z</time>
      </trkpt>
      <trkpt lat="45.3356" lon="4.52859">
        <ele>1225.5999755859</ele>
        <time>2026-05-11T12:34:23.000Z</time>
      </trkpt>
      <trkpt lat="45.33561" lon="4.52864">
        <ele>1225.4000244141</ele>
        <time>2026-05-11T12:34:24.000Z</time>
      </trkpt>
      <trkpt lat="45.33561" lon="4.52867">
        <ele>1225.1999511719</ele>
        <time>2026-05-11T12:34:25.000Z</time>
      </trkpt>
      <trkpt lat="45.33562" lon="4.5287">
        <ele>1225</ele>
        <time>2026-05-11T12:34:26.000Z</time>
      </trkpt>
      <trkpt lat="45.33562" lon="4.52874">
        <ele>1224.8000488281</ele>
        <time>2026-05-11T12:34:27.000Z</time>
      </trkpt>
      <trkpt lat="45.33562" lon="4.52878">
        <ele>1224.4000244141</ele>
        <time>2026-05-11T12:34:28.000Z</time>
      </trkpt>
      <trkpt lat="45.33562" lon="4.52882">
        <ele>1224.1999511719</ele>
        <time>2026-05-11T12:34:29.000Z</time>
      </trkpt>
      <trkpt lat="45.33562" lon="4.52886">
        <ele>1224</ele>
        <time>2026-05-11T12:34:30.000Z</time>
      </trkpt>
      <trkpt lat="45.33562" lon="4.5289">
        <ele>1223.8000488281</ele>
        <time>2026-05-11T12:34:31.000Z</time>
      </trkpt>
      <trkpt lat="45.33562" lon="4.52893">
        <ele>1223.5999755859</ele>
        <time>2026-05-11T12:34:32.000Z</time>
      </trkpt>
      <trkpt lat="45.33562" lon="4.52896">
        <ele>1223.4000244141</ele>
        <time>2026-05-11T12:34:33.000Z</time>
      </trkpt>
      <trkpt lat="45.33562" lon="4.52899">
        <ele>1223</ele>
        <time>2026-05-11T12:34:34.000Z</time>
      </trkpt>
      <trkpt lat="45.33562" lon="4.52902">
        <ele>1222.8000488281</ele>
        <time>2026-05-11T12:34:35.000Z</time>
      </trkpt>
      <trkpt lat="45.33562" lon="4.52905">
        <ele>1222.5999755859</ele>
        <time>2026-05-11T12:34:36.000Z</time>
      </trkpt>
      <trkpt lat="45.33562" lon="4.52909">
        <ele>1222.4000244141</ele>
        <time>2026-05-11T12:34:37.000Z</time>
      </trkpt>
      <trkpt lat="45.33561" lon="4.52911">
        <ele>1222.1999511719</ele>
        <time>2026-05-11T12:34:38.000Z</time>
      </trkpt>
      <trkpt lat="45.33562" lon="4.52914">
        <ele>1222</ele>
        <time>2026-05-11T12:34:39.000Z</time>
      </trkpt>
      <trkpt lat="45.33562" lon="4.52917">
        <ele>1221.8000488281</ele>
        <time>2026-05-11T12:34:40.000Z</time>
      </trkpt>
      <trkpt lat="45.33562" lon="4.52921">
        <ele>1221.4000244141</ele>
        <time>2026-05-11T12:34:41.000Z</time>
      </trkpt>
      <trkpt lat="45.33561" lon="4.52924">
        <ele>1221.1999511719</ele>
        <time>2026-05-11T12:34:42.000Z</time>
      </trkpt>
      <trkpt lat="45.33561" lon="4.52927">
        <ele>1221</ele>
        <time>2026-05-11T12:34:43.000Z</time>
      </trkpt>
      <trkpt lat="45.33561" lon="4.5293">
        <ele>1220.5999755859</ele>
        <time>2026-05-11T12:34:44.000Z</time>
      </trkpt>
      <trkpt lat="45.33561" lon="4.52934">
        <ele>1220.4000244141</ele>
        <time>2026-05-11T12:34:45.000Z</time>
      </trkpt>
      <trkpt lat="45.3356" lon="4.52938">
        <ele>1220.1999511719</ele>
        <time>2026-05-11T12:34:46.000Z</time>
      </trkpt>
      <trkpt lat="45.33561" lon="4.52941">
        <ele>1219.8000488281</ele>
        <time>2026-05-11T12:34:47.000Z</time>
      </trkpt>
      <trkpt lat="45.3356" lon="4.52946">
        <ele>1219.5999755859</ele>
        <time>2026-05-11T12:34:48.000Z</time>
      </trkpt>
      <trkpt lat="45.3356" lon="4.52951">
        <ele>1219.1999511719</ele>
        <time>2026-05-11T12:34:49.000Z</time>
      </trkpt>
      <trkpt lat="45.3356" lon="4.52956">
        <ele>1219</ele>
        <time>2026-05-11T12:34:50.000Z</time>
      </trkpt>
      <trkpt lat="45.3356" lon="4.52961">
        <ele>1218.5999755859</ele>
        <time>2026-05-11T12:34:51.000Z</time>
      </trkpt>
      <trkpt lat="45.3356" lon="4.52968">
        <ele>1218.4000244141</ele>
        <time>2026-05-11T12:34:52.000Z</time>
      </trkpt>
      <trkpt lat="45.33561" lon="4.52974">
        <ele>1218</ele>
        <time>2026-05-11T12:34:53.000Z</time>
      </trkpt>
      <trkpt lat="45.33562" lon="4.5298">
        <ele>1217.5999755859</ele>
        <time>2026-05-11T12:34:54.000Z</time>
      </trkpt>
      <trkpt lat="45.33563" lon="4.52985">
        <ele>1217.1999511719</ele>
        <time>2026-05-11T12:34:55.000Z</time>
      </trkpt>
      <trkpt lat="45.33564" lon="4.5299">
        <ele>1217</ele>
        <time>2026-05-11T12:34:56.000Z</time>
      </trkpt>
      <trkpt lat="45.33565" lon="4.52995">
        <ele>1216.5999755859</ele>
        <time>2026-05-11T12:34:57.000Z</time>
      </trkpt>
      <trkpt lat="45.33565" lon="4.53">
        <ele>1216.1999511719</ele>
        <time>2026-05-11T12:34:58.000Z</time>
      </trkpt>
      <trkpt lat="45.33566" lon="4.53004">
        <ele>1216</ele>
        <time>2026-05-11T12:34:59.000Z</time>
      </trkpt>
      <trkpt lat="45.33566" lon="4.53008">
        <ele>1215.5999755859</ele>
        <time>2026-05-11T12:35:00.000Z</time>
      </trkpt>
      <trkpt lat="45.33567" lon="4.53011">
        <ele>1215.4000244141</ele>
        <time>2026-05-11T12:35:01.000Z</time>
      </trkpt>
      <trkpt lat="45.33567" lon="4.53015">
        <ele>1215</ele>
        <time>2026-05-11T12:35:02.000Z</time>
      </trkpt>
      <trkpt lat="45.33567" lon="4.53018">
        <ele>1214.8000488281</ele>
        <time>2026-05-11T12:35:03.000Z</time>
      </trkpt>
      <trkpt lat="45.33567" lon="4.53021">
        <ele>1214.4000244141</ele>
        <time>2026-05-11T12:35:04.000Z</time>
      </trkpt>
      <trkpt lat="45.33568" lon="4.53024">
        <ele>1214.1999511719</ele>
        <time>2026-05-11T12:35:05.000Z</time>
      </trkpt>
      <trkpt lat="45.33568" lon="4.53028">
        <ele>1213.8000488281</ele>
        <time>2026-05-11T12:35:06.000Z</time>
      </trkpt>
      <trkpt lat="45.33568" lon="4.53031">
        <ele>1213.5999755859</ele>
        <time>2026-05-11T12:35:07.000Z</time>
      </trkpt>
      <trkpt lat="45.33568" lon="4.53035">
        <ele>1213.4000244141</ele>
        <time>2026-05-11T12:35:08.000Z</time>
      </trkpt>
      <trkpt lat="45.33569" lon="4.53039">
        <ele>1213</ele>
        <time>2026-05-11T12:35:09.000Z</time>
      </trkpt>
      <trkpt lat="45.33569" lon="4.53043">
        <ele>1212.5999755859</ele>
        <time>2026-05-11T12:35:10.000Z</time>
      </trkpt>
      <trkpt lat="45.33571" lon="4.53047">
        <ele>1212.4000244141</ele>
        <time>2026-05-11T12:35:11.000Z</time>
      </trkpt>
      <trkpt lat="45.33571" lon="4.53051">
        <ele>1212.1999511719</ele>
        <time>2026-05-11T12:35:12.000Z</time>
      </trkpt>
      <trkpt lat="45.33571" lon="4.53055">
        <ele>1211.8000488281</ele>
        <time>2026-05-11T12:35:13.000Z</time>
      </trkpt>
      <trkpt lat="45.33572" lon="4.53058">
        <ele>1211.5999755859</ele>
        <time>2026-05-11T12:35:14.000Z</time>
      </trkpt>
      <trkpt lat="45.33572" lon="4.53062">
        <ele>1211.1999511719</ele>
        <time>2026-05-11T12:35:15.000Z</time>
      </trkpt>
      <trkpt lat="45.33573" lon="4.53065">
        <ele>1210.8000488281</ele>
        <time>2026-05-11T12:35:16.000Z</time>
      </trkpt>
      <trkpt lat="45.33573" lon="4.53069">
        <ele>1210.4000244141</ele>
        <time>2026-05-11T12:35:17.000Z</time>
      </trkpt>
      <trkpt lat="45.33574" lon="4.53073">
        <ele>1210.1999511719</ele>
        <time>2026-05-11T12:35:18.000Z</time>
      </trkpt>
      <trkpt lat="45.33574" lon="4.53077">
        <ele>1209.8000488281</ele>
        <time>2026-05-11T12:35:19.000Z</time>
      </trkpt>
      <trkpt lat="45.33574" lon="4.53081">
        <ele>1209.5999755859</ele>
        <time>2026-05-11T12:35:20.000Z</time>
      </trkpt>
      <trkpt lat="45.33575" lon="4.53085">
        <ele>1209.1999511719</ele>
        <time>2026-05-11T12:35:21.000Z</time>
      </trkpt>
      <trkpt lat="45.33576" lon="4.53088">
        <ele>1208.8000488281</ele>
        <time>2026-05-11T12:35:22.000Z</time>
      </trkpt>
      <trkpt lat="45.33576" lon="4.53092">
        <ele>1208.4000244141</ele>
        <time>2026-05-11T12:35:23.000Z</time>
      </trkpt>
      <trkpt lat="45.33576" lon="4.53095">
        <ele>1208.1999511719</ele>
        <time>2026-05-11T12:35:24.000Z</time>
      </trkpt>
      <trkpt lat="45.33576" lon="4.53099">
        <ele>1207.8000488281</ele>
        <time>2026-05-11T12:35:25.000Z</time>
      </trkpt>
      <trkpt lat="45.33576" lon="4.53102">
        <ele>1207.4000244141</ele>
        <time>2026-05-11T12:35:26.000Z</time>
      </trkpt>
      <trkpt lat="45.33576" lon="4.53106">
        <ele>1207</ele>
        <time>2026-05-11T12:35:27.000Z</time>
      </trkpt>
      <trkpt lat="45.33575" lon="4.53111">
        <ele>1206.4000244141</ele>
        <time>2026-05-11T12:35:28.000Z</time>
      </trkpt>
      <trkpt lat="45.33575" lon="4.53116">
        <ele>1206</ele>
        <time>2026-05-11T12:35:29.000Z</time>
      </trkpt>
      <trkpt lat="45.33576" lon="4.53121">
        <ele>1205.5999755859</ele>
        <time>2026-05-11T12:35:30.000Z</time>
      </trkpt>
      <trkpt lat="45.33576" lon="4.53126">
        <ele>1205.1999511719</ele>
        <time>2026-05-11T12:35:31.000Z</time>
      </trkpt>
      <trkpt lat="45.33577" lon="4.53131">
        <ele>1204.8000488281</ele>
        <time>2026-05-11T12:35:32.000Z</time>
      </trkpt>
      <trkpt lat="45.33577" lon="4.53135">
        <ele>1204.4000244141</ele>
        <time>2026-05-11T12:35:33.000Z</time>
      </trkpt>
      <trkpt lat="45.33577" lon="4.5314">
        <ele>1204</ele>
        <time>2026-05-11T12:35:34.000Z</time>
      </trkpt>
      <trkpt lat="45.33578" lon="4.53145">
        <ele>1203.8000488281</ele>
        <time>2026-05-11T12:35:35.000Z</time>
      </trkpt>
      <trkpt lat="45.33579" lon="4.5315">
        <ele>1203.4000244141</ele>
        <time>2026-05-11T12:35:36.000Z</time>
      </trkpt>
      <trkpt lat="45.3358" lon="4.53155">
        <ele>1203.1999511719</ele>
        <time>2026-05-11T12:35:37.000Z</time>
      </trkpt>
      <trkpt lat="45.33581" lon="4.5316">
        <ele>1202.8000488281</ele>
        <time>2026-05-11T12:35:38.000Z</time>
      </trkpt>
      <trkpt lat="45.33582" lon="4.53164">
        <ele>1202.4000244141</ele>
        <time>2026-05-11T12:35:39.000Z</time>
      </trkpt>
      <trkpt lat="45.33583" lon="4.53169">
        <ele>1202</ele>
        <time>2026-05-11T12:35:40.000Z</time>
      </trkpt>
      <trkpt lat="45.33583" lon="4.53173">
        <ele>1201.8000488281</ele>
        <time>2026-05-11T12:35:41.000Z</time>
      </trkpt>
      <trkpt lat="45.33584" lon="4.53176">
        <ele>1201.4000244141</ele>
        <time>2026-05-11T12:35:42.000Z</time>
      </trkpt>
      <trkpt lat="45.33585" lon="4.5318">
        <ele>1201.1999511719</ele>
        <time>2026-05-11T12:35:43.000Z</time>
      </trkpt>
      <trkpt lat="45.33586" lon="4.53184">
        <ele>1201</ele>
        <time>2026-05-11T12:35:44.000Z</time>
      </trkpt>
      <trkpt lat="45.33587" lon="4.53188">
        <ele>1200.5999755859</ele>
        <time>2026-05-11T12:35:45.000Z</time>
      </trkpt>
      <trkpt lat="45.33587" lon="4.53191">
        <ele>1200.1999511719</ele>
        <time>2026-05-11T12:35:46.000Z</time>
      </trkpt>
      <trkpt lat="45.33588" lon="4.53195">
        <ele>1200</ele>
        <time>2026-05-11T12:35:47.000Z</time>
      </trkpt>
      <trkpt lat="45.3359" lon="4.532">
        <ele>1199.5999755859</ele>
        <time>2026-05-11T12:35:48.000Z</time>
      </trkpt>
      <trkpt lat="45.33591" lon="4.53204">
        <ele>1199.4000244141</ele>
        <time>2026-05-11T12:35:49.000Z</time>
      </trkpt>
      <trkpt lat="45.33594" lon="4.53208">
        <ele>1199</ele>
        <time>2026-05-11T12:35:50.000Z</time>
      </trkpt>
      <trkpt lat="45.33595" lon="4.53212">
        <ele>1198.5999755859</ele>
        <time>2026-05-11T12:35:51.000Z</time>
      </trkpt>
      <trkpt lat="45.33597" lon="4.53216">
        <ele>1198.1999511719</ele>
        <time>2026-05-11T12:35:52.000Z</time>
      </trkpt>
      <trkpt lat="45.33598" lon="4.5322">
        <ele>1197.8000488281</ele>
        <time>2026-05-11T12:35:53.000Z</time>
      </trkpt>
      <trkpt lat="45.336" lon="4.53225">
        <ele>1197.4000244141</ele>
        <time>2026-05-11T12:35:54.000Z</time>
      </trkpt>
      <trkpt lat="45.33602" lon="4.53229">
        <ele>1197</ele>
        <time>2026-05-11T12:35:55.000Z</time>
      </trkpt>
      <trkpt lat="45.33603" lon="4.53233">
        <ele>1196.4000244141</ele>
        <time>2026-05-11T12:35:56.000Z</time>
      </trkpt>
      <trkpt lat="45.33605" lon="4.53236">
        <ele>1195.8000488281</ele>
        <time>2026-05-11T12:35:57.000Z</time>
      </trkpt>
      <trkpt lat="45.33607" lon="4.53239">
        <ele>1195.4000244141</ele>
        <time>2026-05-11T12:35:58.000Z</time>
      </trkpt>
      <trkpt lat="45.3361" lon="4.53242">
        <ele>1194.8000488281</ele>
        <time>2026-05-11T12:35:59.000Z</time>
      </trkpt>
      <trkpt lat="45.33612" lon="4.53247">
        <ele>1194.4000244141</ele>
        <time>2026-05-11T12:36:00.000Z</time>
      </trkpt>
      <trkpt lat="45.33615" lon="4.5325">
        <ele>1193.8000488281</ele>
        <time>2026-05-11T12:36:01.000Z</time>
      </trkpt>
      <trkpt lat="45.33617" lon="4.53255">
        <ele>1193.1999511719</ele>
        <time>2026-05-11T12:36:02.000Z</time>
      </trkpt>
      <trkpt lat="45.33619" lon="4.53261">
        <ele>1192.5999755859</ele>
        <time>2026-05-11T12:36:03.000Z</time>
      </trkpt>
      <trkpt lat="45.33621" lon="4.53266">
        <ele>1192</ele>
        <time>2026-05-11T12:36:04.000Z</time>
      </trkpt>
      <trkpt lat="45.33622" lon="4.53271">
        <ele>1191.4000244141</ele>
        <time>2026-05-11T12:36:05.000Z</time>
      </trkpt>
      <trkpt lat="45.33623" lon="4.53277">
        <ele>1190.8000488281</ele>
        <time>2026-05-11T12:36:06.000Z</time>
      </trkpt>
      <trkpt lat="45.33625" lon="4.53283">
        <ele>1190.1999511719</ele>
        <time>2026-05-11T12:36:07.000Z</time>
      </trkpt>
      <trkpt lat="45.33627" lon="4.53289">
        <ele>1189.4000244141</ele>
        <time>2026-05-11T12:36:08.000Z</time>
      </trkpt>
      <trkpt lat="45.3363" lon="4.53295">
        <ele>1188.8000488281</ele>
        <time>2026-05-11T12:36:09.000Z</time>
      </trkpt>
      <trkpt lat="45.33633" lon="4.53301">
        <ele>1188.1999511719</ele>
        <time>2026-05-11T12:36:10.000Z</time>
      </trkpt>
      <trkpt lat="45.33635" lon="4.53306">
        <ele>1187.5999755859</ele>
        <time>2026-05-11T12:36:11.000Z</time>
      </trkpt>
      <trkpt lat="45.33637" lon="4.5331">
        <ele>1187.1999511719</ele>
        <time>2026-05-11T12:36:12.000Z</time>
      </trkpt>
      <trkpt lat="45.3364" lon="4.53314">
        <ele>1186.5999755859</ele>
        <time>2026-05-11T12:36:13.000Z</time>
      </trkpt>
      <trkpt lat="45.33642" lon="4.53318">
        <ele>1186</ele>
        <time>2026-05-11T12:36:14.000Z</time>
      </trkpt>
      <trkpt lat="45.33644" lon="4.53321">
        <ele>1185.4000244141</ele>
        <time>2026-05-11T12:36:15.000Z</time>
      </trkpt>
      <trkpt lat="45.33646" lon="4.53325">
        <ele>1185</ele>
        <time>2026-05-11T12:36:16.000Z</time>
      </trkpt>
      <trkpt lat="45.33648" lon="4.53328">
        <ele>1184.4000244141</ele>
        <time>2026-05-11T12:36:17.000Z</time>
      </trkpt>
      <trkpt lat="45.3365" lon="4.53331">
        <ele>1183.8000488281</ele>
        <time>2026-05-11T12:36:18.000Z</time>
      </trkpt>
      <trkpt lat="45.33652" lon="4.53334">
        <ele>1183.1999511719</ele>
        <time>2026-05-11T12:36:19.000Z</time>
      </trkpt>
      <trkpt lat="45.33653" lon="4.53338">
        <ele>1182.5999755859</ele>
        <time>2026-05-11T12:36:20.000Z</time>
      </trkpt>
      <trkpt lat="45.33654" lon="4.53341">
        <ele>1182</ele>
        <time>2026-05-11T12:36:21.000Z</time>
      </trkpt>
      <trkpt lat="45.33654" lon="4.53345">
        <ele>1181.4000244141</ele>
        <time>2026-05-11T12:36:22.000Z</time>
      </trkpt>
      <trkpt lat="45.33652" lon="4.53348">
        <ele>1180.8000488281</ele>
        <time>2026-05-11T12:36:23.000Z</time>
      </trkpt>
      <trkpt lat="45.3365" lon="4.53351">
        <ele>1180.1999511719</ele>
        <time>2026-05-11T12:36:24.000Z</time>
      </trkpt>
      <trkpt lat="45.33647" lon="4.53353">
        <ele>1179.5999755859</ele>
        <time>2026-05-11T12:36:25.000Z</time>
      </trkpt>
      <trkpt lat="45.33642" lon="4.53355">
        <ele>1178.5999755859</ele>
        <time>2026-05-11T12:36:26.000Z</time>
      </trkpt>
      <trkpt lat="45.33639" lon="4.53357">
        <ele>1178</ele>
        <time>2026-05-11T12:36:27.000Z</time>
      </trkpt>
      <trkpt lat="45.33634" lon="4.53358">
        <ele>1177.1999511719</ele>
        <time>2026-05-11T12:36:28.000Z</time>
      </trkpt>
      <trkpt lat="45.3363" lon="4.5336">
        <ele>1176.5999755859</ele>
        <time>2026-05-11T12:36:29.000Z</time>
      </trkpt>
      <trkpt lat="45.33626" lon="4.53362">
        <ele>1175.8000488281</ele>
        <time>2026-05-11T12:36:30.000Z</time>
      </trkpt>
      <trkpt lat="45.3362" lon="4.53364">
        <ele>1175</ele>
        <time>2026-05-11T12:36:31.000Z</time>
      </trkpt>
      <trkpt lat="45.33614" lon="4.53367">
        <ele>1174.1999511719</ele>
        <time>2026-05-11T12:36:32.000Z</time>
      </trkpt>
      <trkpt lat="45.33606" lon="4.53368">
        <ele>1173.4000244141</ele>
        <time>2026-05-11T12:36:33.000Z</time>
      </trkpt>
      <trkpt lat="45.33598" lon="4.5337">
        <ele>1172.5999755859</ele>
        <time>2026-05-11T12:36:34.000Z</time>
      </trkpt>
      <trkpt lat="45.33589" lon="4.53372">
        <ele>1171.8000488281</ele>
        <time>2026-05-11T12:36:35.000Z</time>
      </trkpt>
      <trkpt lat="45.3358" lon="4.53372">
        <ele>1170.8000488281</ele>
        <time>2026-05-11T12:36:36.000Z</time>
      </trkpt>
      <trkpt lat="45.33571" lon="4.53372">
        <ele>1169.8000488281</ele>
        <time>2026-05-11T12:36:37.000Z</time>
      </trkpt>
      <trkpt lat="45.33564" lon="4.53372">
        <ele>1168.8000488281</ele>
        <time>2026-05-11T12:36:38.000Z</time>
      </trkpt>
      <trkpt lat="45.33557" lon="4.53372">
        <ele>1168</ele>
        <time>2026-05-11T12:36:39.000Z</time>
      </trkpt>
      <trkpt lat="45.33552" lon="4.53371">
        <ele>1167.1999511719</ele>
        <time>2026-05-11T12:36:40.000Z</time>
      </trkpt>
      <trkpt lat="45.33547" lon="4.53371">
        <ele>1166.5999755859</ele>
        <time>2026-05-11T12:36:41.000Z</time>
      </trkpt>
      <trkpt lat="45.33542" lon="4.53372">
        <ele>1166</ele>
        <time>2026-05-11T12:36:42.000Z</time>
      </trkpt>
      <trkpt lat="45.33537" lon="4.53375">
        <ele>1165.1999511719</ele>
        <time>2026-05-11T12:36:43.000Z</time>
      </trkpt>
      <trkpt lat="45.33532" lon="4.53379">
        <ele>1164.5999755859</ele>
        <time>2026-05-11T12:36:44.000Z</time>
      </trkpt>
      <trkpt lat="45.33526" lon="4.53384">
        <ele>1163.8000488281</ele>
        <time>2026-05-11T12:36:45.000Z</time>
      </trkpt>
      <trkpt lat="45.33522" lon="4.53391">
        <ele>1163</ele>
        <time>2026-05-11T12:36:46.000Z</time>
      </trkpt>
      <trkpt lat="45.33517" lon="4.53396">
        <ele>1162.1999511719</ele>
        <time>2026-05-11T12:36:47.000Z</time>
      </trkpt>
      <trkpt lat="45.33513" lon="4.534">
        <ele>1161.4000244141</ele>
        <time>2026-05-11T12:36:48.000Z</time>
      </trkpt>
      <trkpt lat="45.3351" lon="4.53404">
        <ele>1160.4000244141</ele>
        <time>2026-05-11T12:36:49.000Z</time>
      </trkpt>
      <trkpt lat="45.33506" lon="4.53408">
        <ele>1159.4000244141</ele>
        <time>2026-05-11T12:36:50.000Z</time>
      </trkpt>
      <trkpt lat="45.33502" lon="4.53413">
        <ele>1158.5999755859</ele>
        <time>2026-05-11T12:36:51.000Z</time>
      </trkpt>
      <trkpt lat="45.33498" lon="4.53417">
        <ele>1157.5999755859</ele>
        <time>2026-05-11T12:36:52.000Z</time>
      </trkpt>
      <trkpt lat="45.33494" lon="4.53423">
        <ele>1156.5999755859</ele>
        <time>2026-05-11T12:36:53.000Z</time>
      </trkpt>
      <trkpt lat="45.3349" lon="4.5343">
        <ele>1155.4000244141</ele>
        <time>2026-05-11T12:36:54.000Z</time>
      </trkpt>
      <trkpt lat="45.33485" lon="4.53439">
        <ele>1154</ele>
        <time>2026-05-11T12:36:55.000Z</time>
      </trkpt>
      <trkpt lat="45.3348" lon="4.53449">
        <ele>1153</ele>
        <time>2026-05-11T12:36:56.000Z</time>
      </trkpt>
      <trkpt lat="45.33474" lon="4.5346">
        <ele>1151.8000488281</ele>
        <time>2026-05-11T12:36:57.000Z</time>
      </trkpt>
      <trkpt lat="45.33468" lon="4.5347">
        <ele>1150.5999755859</ele>
        <time>2026-05-11T12:36:58.000Z</time>
      </trkpt>
      <trkpt lat="45.33461" lon="4.53481">
        <ele>1149.4000244141</ele>
        <time>2026-05-11T12:36:59.000Z</time>
      </trkpt>
      <trkpt lat="45.33454" lon="4.53491">
        <ele>1148.1999511719</ele>
        <time>2026-05-11T12:37:00.000Z</time>
      </trkpt>
      <trkpt lat="45.33447" lon="4.53501">
        <ele>1146.8000488281</ele>
        <time>2026-05-11T12:37:01.000Z</time>
      </trkpt>
      <trkpt lat="45.33439" lon="4.53512">
        <ele>1145.8000488281</ele>
        <time>2026-05-11T12:37:02.000Z</time>
      </trkpt>
      <trkpt lat="45.33432" lon="4.53523">
        <ele>1144.8000488281</ele>
        <time>2026-05-11T12:37:03.000Z</time>
      </trkpt>
      <trkpt lat="45.33424" lon="4.53533">
        <ele>1144</ele>
        <time>2026-05-11T12:37:04.000Z</time>
      </trkpt>
      <trkpt lat="45.33418" lon="4.53543">
        <ele>1143</ele>
        <time>2026-05-11T12:37:05.000Z</time>
      </trkpt>
      <trkpt lat="45.33411" lon="4.53551">
        <ele>1142.1999511719</ele>
        <time>2026-05-11T12:37:06.000Z</time>
      </trkpt>
      <trkpt lat="45.33404" lon="4.5356">
        <ele>1141.4000244141</ele>
        <time>2026-05-11T12:37:07.000Z</time>
      </trkpt>
      <trkpt lat="45.33397" lon="4.53568">
        <ele>1140.5999755859</ele>
        <time>2026-05-11T12:37:08.000Z</time>
      </trkpt>
      <trkpt lat="45.33391" lon="4.53576">
        <ele>1139.8000488281</ele>
        <time>2026-05-11T12:37:09.000Z</time>
      </trkpt>
      <trkpt lat="45.33386" lon="4.53584">
        <ele>1139</ele>
        <time>2026-05-11T12:37:10.000Z</time>
      </trkpt>
      <trkpt lat="45.33381" lon="4.53592">
        <ele>1138</ele>
        <time>2026-05-11T12:37:11.000Z</time>
      </trkpt>
      <trkpt lat="45.33376" lon="4.53599">
        <ele>1136.8000488281</ele>
        <time>2026-05-11T12:37:12.000Z</time>
      </trkpt>
      <trkpt lat="45.33371" lon="4.53608">
        <ele>1136</ele>
        <time>2026-05-11T12:37:13.000Z</time>
      </trkpt>
      <trkpt lat="45.33365" lon="4.53617">
        <ele>1135</ele>
        <time>2026-05-11T12:37:14.000Z</time>
      </trkpt>
      <trkpt lat="45.33359" lon="4.53628">
        <ele>1133.8000488281</ele>
        <time>2026-05-11T12:37:15.000Z</time>
      </trkpt>
      <trkpt lat="45.33352" lon="4.53641">
        <ele>1132.5999755859</ele>
        <time>2026-05-11T12:37:16.000Z</time>
      </trkpt>
      <trkpt lat="45.33346" lon="4.53654">
        <ele>1131.1999511719</ele>
        <time>2026-05-11T12:37:17.000Z</time>
      </trkpt>
      <trkpt lat="45.33339" lon="4.53667">
        <ele>1129.4000244141</ele>
        <time>2026-05-11T12:37:18.000Z</time>
      </trkpt>
      <trkpt lat="45.33332" lon="4.53678">
        <ele>1127.8000488281</ele>
        <time>2026-05-11T12:37:19.000Z</time>
      </trkpt>
      <trkpt lat="45.33326" lon="4.5369">
        <ele>1126.1999511719</ele>
        <time>2026-05-11T12:37:20.000Z</time>
      </trkpt>
      <trkpt lat="45.3332" lon="4.53701">
        <ele>1124.8000488281</ele>
        <time>2026-05-11T12:37:21.000Z</time>
      </trkpt>
      <trkpt lat="45.33314" lon="4.53711">
        <ele>1123.1999511719</ele>
        <time>2026-05-11T12:37:22.000Z</time>
      </trkpt>
      <trkpt lat="45.33308" lon="4.5372">
        <ele>1121.8000488281</ele>
        <time>2026-05-11T12:37:23.000Z</time>
      </trkpt>
      <trkpt lat="45.33303" lon="4.53728">
        <ele>1120.1999511719</ele>
        <time>2026-05-11T12:37:24.000Z</time>
      </trkpt>
      <trkpt lat="45.33298" lon="4.53735">
        <ele>1119.1999511719</ele>
        <time>2026-05-11T12:37:25.000Z</time>
      </trkpt>
      <trkpt lat="45.33294" lon="4.53741">
        <ele>1118.1999511719</ele>
        <time>2026-05-11T12:37:26.000Z</time>
      </trkpt>
      <trkpt lat="45.33291" lon="4.53747">
        <ele>1117.4000244141</ele>
        <time>2026-05-11T12:37:27.000Z</time>
      </trkpt>
      <trkpt lat="45.33289" lon="4.53752">
        <ele>1116.8000488281</ele>
        <time>2026-05-11T12:37:28.000Z</time>
      </trkpt>
      <trkpt lat="45.33286" lon="4.53756">
        <ele>1116.1999511719</ele>
        <time>2026-05-11T12:37:29.000Z</time>
      </trkpt>
      <trkpt lat="45.33284" lon="4.5376">
        <ele>1115.5999755859</ele>
        <time>2026-05-11T12:37:30.000Z</time>
      </trkpt>
      <trkpt lat="45.33282" lon="4.53766">
        <ele>1115.1999511719</ele>
        <time>2026-05-11T12:37:31.000Z</time>
      </trkpt>
      <trkpt lat="45.33279" lon="4.53772">
        <ele>1114.8000488281</ele>
        <time>2026-05-11T12:37:32.000Z</time>
      </trkpt>
      <trkpt lat="45.33278" lon="4.53779">
        <ele>1114.1999511719</ele>
        <time>2026-05-11T12:37:33.000Z</time>
      </trkpt>
      <trkpt lat="45.33277" lon="4.53785">
        <ele>1113.8000488281</ele>
        <time>2026-05-11T12:37:34.000Z</time>
      </trkpt>
      <trkpt lat="45.33276" lon="4.53789">
        <ele>1113.4000244141</ele>
        <time>2026-05-11T12:37:35.000Z</time>
      </trkpt>
      <trkpt lat="45.33276" lon="4.53794">
        <ele>1113</ele>
        <time>2026-05-11T12:37:36.000Z</time>
      </trkpt>
      <trkpt lat="45.33275" lon="4.53798">
        <ele>1112.5999755859</ele>
        <time>2026-05-11T12:37:37.000Z</time>
      </trkpt>
      <trkpt lat="45.33275" lon="4.53802">
        <ele>1112.4000244141</ele>
        <time>2026-05-11T12:37:38.000Z</time>
      </trkpt>
      <trkpt lat="45.33275" lon="4.53807">
        <ele>1112.1999511719</ele>
        <time>2026-05-11T12:37:39.000Z</time>
      </trkpt>
      <trkpt lat="45.33275" lon="4.53812">
        <ele>1112</ele>
        <time>2026-05-11T12:37:40.000Z</time>
      </trkpt>
      <trkpt lat="45.33274" lon="4.53817">
        <ele>1111.8000488281</ele>
        <time>2026-05-11T12:37:41.000Z</time>
      </trkpt>
      <trkpt lat="45.33273" lon="4.53822">
        <ele>1111.5999755859</ele>
        <time>2026-05-11T12:37:42.000Z</time>
      </trkpt>
      <trkpt lat="45.33273" lon="4.53827">
        <ele>1111.4000244141</ele>
        <time>2026-05-11T12:37:43.000Z</time>
      </trkpt>
      <trkpt lat="45.33272" lon="4.53832">
        <ele>1111.1999511719</ele>
        <time>2026-05-11T12:37:44.000Z</time>
      </trkpt>
      <trkpt lat="45.33271" lon="4.53837">
        <ele>1111</ele>
        <time>2026-05-11T12:37:45.000Z</time>
      </trkpt>
      <trkpt lat="45.3327" lon="4.53843">
        <ele>1110.8000488281</ele>
        <time>2026-05-11T12:37:46.000Z</time>
      </trkpt>
      <trkpt lat="45.33268" lon="4.53848">
        <ele>1110.5999755859</ele>
        <time>2026-05-11T12:37:47.000Z</time>
      </trkpt>
      <trkpt lat="45.33267" lon="4.53853">
        <ele>1110.4000244141</ele>
        <time>2026-05-11T12:37:48.000Z</time>
      </trkpt>
      <trkpt lat="45.33265" lon="4.53859">
        <ele>1110.1999511719</ele>
        <time>2026-05-11T12:37:49.000Z</time>
      </trkpt>
      <trkpt lat="45.33263" lon="4.53864">
        <ele>1110</ele>
        <time>2026-05-11T12:37:50.000Z</time>
      </trkpt>
      <trkpt lat="45.3326" lon="4.53869">
        <ele>1109.5999755859</ele>
        <time>2026-05-11T12:37:51.000Z</time>
      </trkpt>
      <trkpt lat="45.33258" lon="4.53874">
        <ele>1109.4000244141</ele>
        <time>2026-05-11T12:37:52.000Z</time>
      </trkpt>
      <trkpt lat="45.33255" lon="4.53878">
        <ele>1109</ele>
        <time>2026-05-11T12:37:53.000Z</time>
      </trkpt>
      <trkpt lat="45.33253" lon="4.53883">
        <ele>1108.8000488281</ele>
        <time>2026-05-11T12:37:54.000Z</time>
      </trkpt>
      <trkpt lat="45.3325" lon="4.53888">
        <ele>1108.5999755859</ele>
        <time>2026-05-11T12:37:55.000Z</time>
      </trkpt>
      <trkpt lat="45.33246" lon="4.53893">
        <ele>1108.4000244141</ele>
        <time>2026-05-11T12:37:56.000Z</time>
      </trkpt>
      <trkpt lat="45.33243" lon="4.53897">
        <ele>1108</ele>
        <time>2026-05-11T12:37:57.000Z</time>
      </trkpt>
      <trkpt lat="45.33239" lon="4.53902">
        <ele>1107.8000488281</ele>
        <time>2026-05-11T12:37:58.000Z</time>
      </trkpt>
      <trkpt lat="45.33235" lon="4.53907">
        <ele>1107.4000244141</ele>
        <time>2026-05-11T12:37:59.000Z</time>
      </trkpt>
      <trkpt lat="45.33231" lon="4.53911">
        <ele>1107.1999511719</ele>
        <time>2026-05-11T12:38:00.000Z</time>
      </trkpt>
      <trkpt lat="45.33226" lon="4.53915">
        <ele>1106.8000488281</ele>
        <time>2026-05-11T12:38:01.000Z</time>
      </trkpt>
      <trkpt lat="45.33222" lon="4.53919">
        <ele>1106.5999755859</ele>
        <time>2026-05-11T12:38:02.000Z</time>
      </trkpt>
      <trkpt lat="45.33218" lon="4.53923">
        <ele>1106.4000244141</ele>
        <time>2026-05-11T12:38:03.000Z</time>
      </trkpt>
      <trkpt lat="45.33214" lon="4.53927">
        <ele>1106.1999511719</ele>
        <time>2026-05-11T12:38:04.000Z</time>
      </trkpt>
      <trkpt lat="45.3321" lon="4.5393">
        <ele>1106</ele>
        <time>2026-05-11T12:38:05.000Z</time>
      </trkpt>
      <trkpt lat="45.33206" lon="4.53933">
        <ele>1105.8000488281</ele>
        <time>2026-05-11T12:38:06.000Z</time>
      </trkpt>
      <trkpt lat="45.33202" lon="4.53936">
        <ele>1105.4000244141</ele>
        <time>2026-05-11T12:38:07.000Z</time>
      </trkpt>
      <trkpt lat="45.33199" lon="4.53939">
        <ele>1105.1999511719</ele>
        <time>2026-05-11T12:38:08.000Z</time>
      </trkpt>
      <trkpt lat="45.33194" lon="4.53944">
        <ele>1105</ele>
        <time>2026-05-11T12:38:09.000Z</time>
      </trkpt>
      <trkpt lat="45.33191" lon="4.53949">
        <ele>1104.5999755859</ele>
        <time>2026-05-11T12:38:10.000Z</time>
      </trkpt>
      <trkpt lat="45.33187" lon="4.53954">
        <ele>1104.4000244141</ele>
        <time>2026-05-11T12:38:11.000Z</time>
      </trkpt>
      <trkpt lat="45.33184" lon="4.53959">
        <ele>1104</ele>
        <time>2026-05-11T12:38:12.000Z</time>
      </trkpt>
      <trkpt lat="45.3318" lon="4.53962">
        <ele>1103.8000488281</ele>
        <time>2026-05-11T12:38:13.000Z</time>
      </trkpt>
      <trkpt lat="45.33177" lon="4.53966">
        <ele>1103.4000244141</ele>
        <time>2026-05-11T12:38:14.000Z</time>
      </trkpt>
      <trkpt lat="45.33173" lon="4.53971">
        <ele>1103.1999511719</ele>
        <time>2026-05-11T12:38:15.000Z</time>
      </trkpt>
      <trkpt lat="45.33169" lon="4.53975">
        <ele>1102.8000488281</ele>
        <time>2026-05-11T12:38:16.000Z</time>
      </trkpt>
      <trkpt lat="45.33165" lon="4.53979">
        <ele>1102.1999511719</ele>
        <time>2026-05-11T12:38:17.000Z</time>
      </trkpt>
      <trkpt lat="45.3316" lon="4.53983">
        <ele>1102</ele>
        <time>2026-05-11T12:38:18.000Z</time>
      </trkpt>
      <trkpt lat="45.33156" lon="4.53986">
        <ele>1101.5999755859</ele>
        <time>2026-05-11T12:38:19.000Z</time>
      </trkpt>
      <trkpt lat="45.33152" lon="4.5399">
        <ele>1101.1999511719</ele>
        <time>2026-05-11T12:38:20.000Z</time>
      </trkpt>
      <trkpt lat="45.33149" lon="4.53994">
        <ele>1100.8000488281</ele>
        <time>2026-05-11T12:38:21.000Z</time>
      </trkpt>
      <trkpt lat="45.33146" lon="4.53999">
        <ele>1100.1999511719</ele>
        <time>2026-05-11T12:38:22.000Z</time>
      </trkpt>
      <trkpt lat="45.33143" lon="4.54002">
        <ele>1099.8000488281</ele>
        <time>2026-05-11T12:38:23.000Z</time>
      </trkpt>
      <trkpt lat="45.3314" lon="4.54006">
        <ele>1099.4000244141</ele>
        <time>2026-05-11T12:38:24.000Z</time>
      </trkpt>
      <trkpt lat="45.33136" lon="4.54009">
        <ele>1099</ele>
        <time>2026-05-11T12:38:25.000Z</time>
      </trkpt>
      <trkpt lat="45.33133" lon="4.54013">
        <ele>1098.5999755859</ele>
        <time>2026-05-11T12:38:26.000Z</time>
      </trkpt>
      <trkpt lat="45.33129" lon="4.54015">
        <ele>1098.1999511719</ele>
        <time>2026-05-11T12:38:27.000Z</time>
      </trkpt>
      <trkpt lat="45.33126" lon="4.54019">
        <ele>1097.8000488281</ele>
        <time>2026-05-11T12:38:28.000Z</time>
      </trkpt>
      <trkpt lat="45.33122" lon="4.54022">
        <ele>1097.4000244141</ele>
        <time>2026-05-11T12:38:29.000Z</time>
      </trkpt>
      <trkpt lat="45.33119" lon="4.54025">
        <ele>1097</ele>
        <time>2026-05-11T12:38:30.000Z</time>
      </trkpt>
      <trkpt lat="45.33115" lon="4.54028">
        <ele>1096.5999755859</ele>
        <time>2026-05-11T12:38:31.000Z</time>
      </trkpt>
      <trkpt lat="45.33112" lon="4.54031">
        <ele>1096</ele>
        <time>2026-05-11T12:38:32.000Z</time>
      </trkpt>
      <trkpt lat="45.33109" lon="4.54034">
        <ele>1095.8000488281</ele>
        <time>2026-05-11T12:38:33.000Z</time>
      </trkpt>
      <trkpt lat="45.33106" lon="4.54037">
        <ele>1095.1999511719</ele>
        <time>2026-05-11T12:38:34.000Z</time>
      </trkpt>
      <trkpt lat="45.33103" lon="4.54041">
        <ele>1094.8000488281</ele>
        <time>2026-05-11T12:38:35.000Z</time>
      </trkpt>
      <trkpt lat="45.331" lon="4.54044">
        <ele>1094.4000244141</ele>
        <time>2026-05-11T12:38:36.000Z</time>
      </trkpt>
      <trkpt lat="45.33097" lon="4.54048">
        <ele>1094.1999511719</ele>
        <time>2026-05-11T12:38:37.000Z</time>
      </trkpt>
      <trkpt lat="45.33094" lon="4.54052">
        <ele>1093.8000488281</ele>
        <time>2026-05-11T12:38:38.000Z</time>
      </trkpt>
      <trkpt lat="45.33092" lon="4.54057">
        <ele>1093.4000244141</ele>
        <time>2026-05-11T12:38:39.000Z</time>
      </trkpt>
      <trkpt lat="45.33089" lon="4.5406">
        <ele>1092.8000488281</ele>
        <time>2026-05-11T12:38:40.000Z</time>
      </trkpt>
      <trkpt lat="45.33086" lon="4.54064">
        <ele>1092.4000244141</ele>
        <time>2026-05-11T12:38:41.000Z</time>
      </trkpt>
      <trkpt lat="45.33083" lon="4.54067">
        <ele>1092</ele>
        <time>2026-05-11T12:38:42.000Z</time>
      </trkpt>
      <trkpt lat="45.33081" lon="4.54072">
        <ele>1091.5999755859</ele>
        <time>2026-05-11T12:38:43.000Z</time>
      </trkpt>
      <trkpt lat="45.33078" lon="4.54076">
        <ele>1091</ele>
        <time>2026-05-11T12:38:44.000Z</time>
      </trkpt>
      <trkpt lat="45.33075" lon="4.54079">
        <ele>1090.4000244141</ele>
        <time>2026-05-11T12:38:45.000Z</time>
      </trkpt>
      <trkpt lat="45.33073" lon="4.54083">
        <ele>1089.8000488281</ele>
        <time>2026-05-11T12:38:46.000Z</time>
      </trkpt>
      <trkpt lat="45.3307" lon="4.54087">
        <ele>1089.1999511719</ele>
        <time>2026-05-11T12:38:47.000Z</time>
      </trkpt>
      <trkpt lat="45.33068" lon="4.54091">
        <ele>1088.8000488281</ele>
        <time>2026-05-11T12:38:48.000Z</time>
      </trkpt>
      <trkpt lat="45.33066" lon="4.54095">
        <ele>1088.1999511719</ele>
        <time>2026-05-11T12:38:49.000Z</time>
      </trkpt>
      <trkpt lat="45.33063" lon="4.54099">
        <ele>1087.8000488281</ele>
        <time>2026-05-11T12:38:50.000Z</time>
      </trkpt>
      <trkpt lat="45.3306" lon="4.54103">
        <ele>1087.1999511719</ele>
        <time>2026-05-11T12:38:51.000Z</time>
      </trkpt>
      <trkpt lat="45.33058" lon="4.54107">
        <ele>1086.5999755859</ele>
        <time>2026-05-11T12:38:52.000Z</time>
      </trkpt>
      <trkpt lat="45.33056" lon="4.5411">
        <ele>1086.1999511719</ele>
        <time>2026-05-11T12:38:53.000Z</time>
      </trkpt>
      <trkpt lat="45.33053" lon="4.54114">
        <ele>1085.5999755859</ele>
        <time>2026-05-11T12:38:54.000Z</time>
      </trkpt>
      <trkpt lat="45.3305" lon="4.54118">
        <ele>1085.1999511719</ele>
        <time>2026-05-11T12:38:55.000Z</time>
      </trkpt>
      <trkpt lat="45.33046" lon="4.54122">
        <ele>1084.5999755859</ele>
        <time>2026-05-11T12:38:56.000Z</time>
      </trkpt>
      <trkpt lat="45.33043" lon="4.54127">
        <ele>1084</ele>
        <time>2026-05-11T12:38:57.000Z</time>
      </trkpt>
      <trkpt lat="45.3304" lon="4.54131">
        <ele>1083.4000244141</ele>
        <time>2026-05-11T12:38:58.000Z</time>
      </trkpt>
      <trkpt lat="45.33037" lon="4.54134">
        <ele>1083</ele>
        <time>2026-05-11T12:38:59.000Z</time>
      </trkpt>
      <trkpt lat="45.33034" lon="4.54138">
        <ele>1082.5999755859</ele>
        <time>2026-05-11T12:39:00.000Z</time>
      </trkpt>
      <trkpt lat="45.33031" lon="4.54142">
        <ele>1082</ele>
        <time>2026-05-11T12:39:01.000Z</time>
      </trkpt>
      <trkpt lat="45.33027" lon="4.54145">
        <ele>1081.5999755859</ele>
        <time>2026-05-11T12:39:02.000Z</time>
      </trkpt>
      <trkpt lat="45.33023" lon="4.54149">
        <ele>1081.1999511719</ele>
        <time>2026-05-11T12:39:03.000Z</time>
      </trkpt>
      <trkpt lat="45.33019" lon="4.54153">
        <ele>1080.8000488281</ele>
        <time>2026-05-11T12:39:04.000Z</time>
      </trkpt>
      <trkpt lat="45.33015" lon="4.54156">
        <ele>1080.4000244141</ele>
        <time>2026-05-11T12:39:05.000Z</time>
      </trkpt>
      <trkpt lat="45.33011" lon="4.5416">
        <ele>1080</ele>
        <time>2026-05-11T12:39:06.000Z</time>
      </trkpt>
      <trkpt lat="45.33007" lon="4.54163">
        <ele>1079.5999755859</ele>
        <time>2026-05-11T12:39:07.000Z</time>
      </trkpt>
      <trkpt lat="45.33002" lon="4.54165">
        <ele>1079</ele>
        <time>2026-05-11T12:39:08.000Z</time>
      </trkpt>
      <trkpt lat="45.32998" lon="4.54167">
        <ele>1078.5999755859</ele>
        <time>2026-05-11T12:39:09.000Z</time>
      </trkpt>
      <trkpt lat="45.32993" lon="4.54171">
        <ele>1078.1999511719</ele>
        <time>2026-05-11T12:39:10.000Z</time>
      </trkpt>
      <trkpt lat="45.32989" lon="4.54173">
        <ele>1077.5999755859</ele>
        <time>2026-05-11T12:39:11.000Z</time>
      </trkpt>
      <trkpt lat="45.32985" lon="4.54174">
        <ele>1077.1999511719</ele>
        <time>2026-05-11T12:39:12.000Z</time>
      </trkpt>
      <trkpt lat="45.32981" lon="4.54176">
        <ele>1076.5999755859</ele>
        <time>2026-05-11T12:39:13.000Z</time>
      </trkpt>
      <trkpt lat="45.32977" lon="4.54178">
        <ele>1076</ele>
        <time>2026-05-11T12:39:14.000Z</time>
      </trkpt>
      <trkpt lat="45.32973" lon="4.54181">
        <ele>1075.5999755859</ele>
        <time>2026-05-11T12:39:15.000Z</time>
      </trkpt>
      <trkpt lat="45.32968" lon="4.54182">
        <ele>1075.1999511719</ele>
        <time>2026-05-11T12:39:16.000Z</time>
      </trkpt>
      <trkpt lat="45.32964" lon="4.54183">
        <ele>1074.8000488281</ele>
        <time>2026-05-11T12:39:17.000Z</time>
      </trkpt>
      <trkpt lat="45.32959" lon="4.54183">
        <ele>1074.4000244141</ele>
        <time>2026-05-11T12:39:18.000Z</time>
      </trkpt>
      <trkpt lat="45.32955" lon="4.54184">
        <ele>1074</ele>
        <time>2026-05-11T12:39:19.000Z</time>
      </trkpt>
      <trkpt lat="45.3295" lon="4.54185">
        <ele>1073.4000244141</ele>
        <time>2026-05-11T12:39:20.000Z</time>
      </trkpt>
      <trkpt lat="45.32946" lon="4.54185">
        <ele>1073</ele>
        <time>2026-05-11T12:39:21.000Z</time>
      </trkpt>
      <trkpt lat="45.3294" lon="4.54186">
        <ele>1072.5999755859</ele>
        <time>2026-05-11T12:39:22.000Z</time>
      </trkpt>
      <trkpt lat="45.32935" lon="4.54187">
        <ele>1072</ele>
        <time>2026-05-11T12:39:23.000Z</time>
      </trkpt>
      <trkpt lat="45.32929" lon="4.54188">
        <ele>1071.5999755859</ele>
        <time>2026-05-11T12:39:24.000Z</time>
      </trkpt>
      <trkpt lat="45.32923" lon="4.54189">
        <ele>1071</ele>
        <time>2026-05-11T12:39:25.000Z</time>
      </trkpt>
      <trkpt lat="45.32917" lon="4.5419">
        <ele>1070.1999511719</ele>
        <time>2026-05-11T12:39:26.000Z</time>
      </trkpt>
      <trkpt lat="45.32911" lon="4.54191">
        <ele>1069.5999755859</ele>
        <time>2026-05-11T12:39:27.000Z</time>
      </trkpt>
      <trkpt lat="45.32904" lon="4.54191">
        <ele>1069</ele>
        <time>2026-05-11T12:39:28.000Z</time>
      </trkpt>
      <trkpt lat="45.32897" lon="4.54192">
        <ele>1068.1999511719</ele>
        <time>2026-05-11T12:39:29.000Z</time>
      </trkpt>
      <trkpt lat="45.3289" lon="4.54192">
        <ele>1067.5999755859</ele>
        <time>2026-05-11T12:39:30.000Z</time>
      </trkpt>
      <trkpt lat="45.32882" lon="4.54192">
        <ele>1067</ele>
        <time>2026-05-11T12:39:31.000Z</time>
      </trkpt>
      <trkpt lat="45.32874" lon="4.54191">
        <ele>1066.1999511719</ele>
        <time>2026-05-11T12:39:32.000Z</time>
      </trkpt>
      <trkpt lat="45.32867" lon="4.5419">
        <ele>1065.4000244141</ele>
        <time>2026-05-11T12:39:33.000Z</time>
      </trkpt>
      <trkpt lat="45.32861" lon="4.54191">
        <ele>1064.8000488281</ele>
        <time>2026-05-11T12:39:34.000Z</time>
      </trkpt>
      <trkpt lat="45.32855" lon="4.5419">
        <ele>1064</ele>
        <time>2026-05-11T12:39:35.000Z</time>
      </trkpt>
      <trkpt lat="45.3285" lon="4.54191">
        <ele>1063.4000244141</ele>
        <time>2026-05-11T12:39:36.000Z</time>
      </trkpt>
      <trkpt lat="45.32845" lon="4.5419">
        <ele>1062.8000488281</ele>
        <time>2026-05-11T12:39:37.000Z</time>
      </trkpt>
      <trkpt lat="45.3284" lon="4.5419">
        <ele>1062</ele>
        <time>2026-05-11T12:39:38.000Z</time>
      </trkpt>
      <trkpt lat="45.32836" lon="4.54191">
        <ele>1061.5999755859</ele>
        <time>2026-05-11T12:39:39.000Z</time>
      </trkpt>
      <trkpt lat="45.32831" lon="4.5419">
        <ele>1061</ele>
        <time>2026-05-11T12:39:40.000Z</time>
      </trkpt>
      <trkpt lat="45.32827" lon="4.54189">
        <ele>1060.4000244141</ele>
        <time>2026-05-11T12:39:41.000Z</time>
      </trkpt>
      <trkpt lat="45.32824" lon="4.54189">
        <ele>1060</ele>
        <time>2026-05-11T12:39:42.000Z</time>
      </trkpt>
      <trkpt lat="45.3282" lon="4.54189">
        <ele>1059.5999755859</ele>
        <time>2026-05-11T12:39:43.000Z</time>
      </trkpt>
      <trkpt lat="45.32817" lon="4.54188">
        <ele>1059</ele>
        <time>2026-05-11T12:39:44.000Z</time>
      </trkpt>
      <trkpt lat="45.32814" lon="4.54188">
        <ele>1058.5999755859</ele>
        <time>2026-05-11T12:39:45.000Z</time>
      </trkpt>
      <trkpt lat="45.32811" lon="4.54188">
        <ele>1058.1999511719</ele>
        <time>2026-05-11T12:39:46.000Z</time>
      </trkpt>
      <trkpt lat="45.32808" lon="4.54188">
        <ele>1057.8000488281</ele>
        <time>2026-05-11T12:39:47.000Z</time>
      </trkpt>
      <trkpt lat="45.32805" lon="4.54187">
        <ele>1057.4000244141</ele>
        <time>2026-05-11T12:39:48.000Z</time>
      </trkpt>
      <trkpt lat="45.32803" lon="4.54187">
        <ele>1057</ele>
        <time>2026-05-11T12:39:49.000Z</time>
      </trkpt>
      <trkpt lat="45.328" lon="4.54186">
        <ele>1056.5999755859</ele>
        <time>2026-05-11T12:39:50.000Z</time>
      </trkpt>
      <trkpt lat="45.32797" lon="4.54186">
        <ele>1056.1999511719</ele>
        <time>2026-05-11T12:39:51.000Z</time>
      </trkpt>
      <trkpt lat="45.32794" lon="4.54186">
        <ele>1055.8000488281</ele>
        <time>2026-05-11T12:39:52.000Z</time>
      </trkpt>
      <trkpt lat="45.32792" lon="4.54185">
        <ele>1055.4000244141</ele>
        <time>2026-05-11T12:39:53.000Z</time>
      </trkpt>
      <trkpt lat="45.32789" lon="4.54185">
        <ele>1055</ele>
        <time>2026-05-11T12:39:54.000Z</time>
      </trkpt>
      <trkpt lat="45.32787" lon="4.54185">
        <ele>1054.5999755859</ele>
        <time>2026-05-11T12:39:55.000Z</time>
      </trkpt>
      <trkpt lat="45.32784" lon="4.54185">
        <ele>1054.1999511719</ele>
        <time>2026-05-11T12:39:56.000Z</time>
      </trkpt>
      <trkpt lat="45.32782" lon="4.54185">
        <ele>1053.8000488281</ele>
        <time>2026-05-11T12:39:57.000Z</time>
      </trkpt>
      <trkpt lat="45.32779" lon="4.54186">
        <ele>1053.4000244141</ele>
        <time>2026-05-11T12:39:58.000Z</time>
      </trkpt>
      <trkpt lat="45.32776" lon="4.54186">
        <ele>1052.8000488281</ele>
        <time>2026-05-11T12:39:59.000Z</time>
      </trkpt>
      <trkpt lat="45.32773" lon="4.54186">
        <ele>1052.4000244141</ele>
        <time>2026-05-11T12:40:00.000Z</time>
      </trkpt>
      <trkpt lat="45.3277" lon="4.54187">
        <ele>1051.8000488281</ele>
        <time>2026-05-11T12:40:01.000Z</time>
      </trkpt>
      <trkpt lat="45.32767" lon="4.54188">
        <ele>1051.1999511719</ele>
        <time>2026-05-11T12:40:02.000Z</time>
      </trkpt>
      <trkpt lat="45.32764" lon="4.54188">
        <ele>1050.8000488281</ele>
        <time>2026-05-11T12:40:03.000Z</time>
      </trkpt>
      <trkpt lat="45.32761" lon="4.54189">
        <ele>1050.4000244141</ele>
        <time>2026-05-11T12:40:04.000Z</time>
      </trkpt>
      <trkpt lat="45.32758" lon="4.54192">
        <ele>1049.8000488281</ele>
        <time>2026-05-11T12:40:05.000Z</time>
      </trkpt>
      <trkpt lat="45.32755" lon="4.54195">
        <ele>1049.1999511719</ele>
        <time>2026-05-11T12:40:06.000Z</time>
      </trkpt>
      <trkpt lat="45.32753" lon="4.54196">
        <ele>1048.5999755859</ele>
        <time>2026-05-11T12:40:07.000Z</time>
      </trkpt>
      <trkpt lat="45.3275" lon="4.54198">
        <ele>1048.1999511719</ele>
        <time>2026-05-11T12:40:08.000Z</time>
      </trkpt>
      <trkpt lat="45.32748" lon="4.542">
        <ele>1047.5999755859</ele>
        <time>2026-05-11T12:40:09.000Z</time>
      </trkpt>
      <trkpt lat="45.32745" lon="4.54202">
        <ele>1047</ele>
        <time>2026-05-11T12:40:10.000Z</time>
      </trkpt>
      <trkpt lat="45.32743" lon="4.54204">
        <ele>1046.4000244141</ele>
        <time>2026-05-11T12:40:11.000Z</time>
      </trkpt>
      <trkpt lat="45.32741" lon="4.54207">
        <ele>1046</ele>
        <time>2026-05-11T12:40:12.000Z</time>
      </trkpt>
      <trkpt lat="45.32738" lon="4.54209">
        <ele>1045.1999511719</ele>
        <time>2026-05-11T12:40:13.000Z</time>
      </trkpt>
      <trkpt lat="45.32736" lon="4.54211">
        <ele>1044.5999755859</ele>
        <time>2026-05-11T12:40:14.000Z</time>
      </trkpt>
      <trkpt lat="45.32733" lon="4.54213">
        <ele>1044.1999511719</ele>
        <time>2026-05-11T12:40:15.000Z</time>
      </trkpt>
      <trkpt lat="45.32731" lon="4.54214">
        <ele>1043.5999755859</ele>
        <time>2026-05-11T12:40:16.000Z</time>
      </trkpt>
      <trkpt lat="45.32728" lon="4.54215">
        <ele>1043</ele>
        <time>2026-05-11T12:40:17.000Z</time>
      </trkpt>
      <trkpt lat="45.32725" lon="4.54217">
        <ele>1042.4000244141</ele>
        <time>2026-05-11T12:40:18.000Z</time>
      </trkpt>
      <trkpt lat="45.32722" lon="4.54219">
        <ele>1041.8000488281</ele>
        <time>2026-05-11T12:40:19.000Z</time>
      </trkpt>
      <trkpt lat="45.32718" lon="4.54221">
        <ele>1041.4000244141</ele>
        <time>2026-05-11T12:40:20.000Z</time>
      </trkpt>
      <trkpt lat="45.32714" lon="4.54223">
        <ele>1040.8000488281</ele>
        <time>2026-05-11T12:40:21.000Z</time>
      </trkpt>
      <trkpt lat="45.3271" lon="4.54225">
        <ele>1040</ele>
        <time>2026-05-11T12:40:22.000Z</time>
      </trkpt>
      <trkpt lat="45.32706" lon="4.54227">
        <ele>1039.4000244141</ele>
        <time>2026-05-11T12:40:23.000Z</time>
      </trkpt>
      <trkpt lat="45.32702" lon="4.54229">
        <ele>1038.5999755859</ele>
        <time>2026-05-11T12:40:24.000Z</time>
      </trkpt>
      <trkpt lat="45.32698" lon="4.5423">
        <ele>1038</ele>
        <time>2026-05-11T12:40:25.000Z</time>
      </trkpt>
      <trkpt lat="45.32694" lon="4.54232">
        <ele>1037.1999511719</ele>
        <time>2026-05-11T12:40:26.000Z</time>
      </trkpt>
      <trkpt lat="45.32689" lon="4.54233">
        <ele>1036.5999755859</ele>
        <time>2026-05-11T12:40:27.000Z</time>
      </trkpt>
      <trkpt lat="45.32686" lon="4.54234">
        <ele>1036</ele>
        <time>2026-05-11T12:40:28.000Z</time>
      </trkpt>
      <trkpt lat="45.32682" lon="4.54234">
        <ele>1035.4000244141</ele>
        <time>2026-05-11T12:40:29.000Z</time>
      </trkpt>
      <trkpt lat="45.32678" lon="4.54235">
        <ele>1034.5999755859</ele>
        <time>2026-05-11T12:40:30.000Z</time>
      </trkpt>
      <trkpt lat="45.32675" lon="4.54235">
        <ele>1034</ele>
        <time>2026-05-11T12:40:31.000Z</time>
      </trkpt>
      <trkpt lat="45.32672" lon="4.54237">
        <ele>1033.4000244141</ele>
        <time>2026-05-11T12:40:32.000Z</time>
      </trkpt>
      <trkpt lat="45.32669" lon="4.54238">
        <ele>1032.8000488281</ele>
        <time>2026-05-11T12:40:33.000Z</time>
      </trkpt>
      <trkpt lat="45.32666" lon="4.5424">
        <ele>1032.4000244141</ele>
        <time>2026-05-11T12:40:34.000Z</time>
      </trkpt>
      <trkpt lat="45.32663" lon="4.54241">
        <ele>1031.8000488281</ele>
        <time>2026-05-11T12:40:35.000Z</time>
      </trkpt>
      <trkpt lat="45.3266" lon="4.54243">
        <ele>1031</ele>
        <time>2026-05-11T12:40:36.000Z</time>
      </trkpt>
      <trkpt lat="45.32658" lon="4.54247">
        <ele>1030.5999755859</ele>
        <time>2026-05-11T12:40:37.000Z</time>
      </trkpt>
      <trkpt lat="45.32657" lon="4.54251">
        <ele>1030</ele>
        <time>2026-05-11T12:40:38.000Z</time>
      </trkpt>
      <trkpt lat="45.32656" lon="4.54255">
        <ele>1029.5999755859</ele>
        <time>2026-05-11T12:40:39.000Z</time>
      </trkpt>
      <trkpt lat="45.32656" lon="4.54259">
        <ele>1029</ele>
        <time>2026-05-11T12:40:40.000Z</time>
      </trkpt>
      <trkpt lat="45.32656" lon="4.54263">
        <ele>1028.4000244141</ele>
        <time>2026-05-11T12:40:41.000Z</time>
      </trkpt>
      <trkpt lat="45.32656" lon="4.54266">
        <ele>1028</ele>
        <time>2026-05-11T12:40:42.000Z</time>
      </trkpt>
      <trkpt lat="45.32655" lon="4.5427">
        <ele>1027.5999755859</ele>
        <time>2026-05-11T12:40:43.000Z</time>
      </trkpt>
      <trkpt lat="45.32655" lon="4.54274">
        <ele>1027</ele>
        <time>2026-05-11T12:40:44.000Z</time>
      </trkpt>
      <trkpt lat="45.32655" lon="4.54278">
        <ele>1026.5999755859</ele>
        <time>2026-05-11T12:40:45.000Z</time>
      </trkpt>
      <trkpt lat="45.32654" lon="4.54282">
        <ele>1026.1999511719</ele>
        <time>2026-05-11T12:40:46.000Z</time>
      </trkpt>
      <trkpt lat="45.32654" lon="4.54286">
        <ele>1025.5999755859</ele>
        <time>2026-05-11T12:40:47.000Z</time>
      </trkpt>
      <trkpt lat="45.32654" lon="4.54291">
        <ele>1025</ele>
        <time>2026-05-11T12:40:48.000Z</time>
      </trkpt>
      <trkpt lat="45.32653" lon="4.54295">
        <ele>1024.5999755859</ele>
        <time>2026-05-11T12:40:49.000Z</time>
      </trkpt>
      <trkpt lat="45.32653" lon="4.54299">
        <ele>1024.1999511719</ele>
        <time>2026-05-11T12:40:50.000Z</time>
      </trkpt>
      <trkpt lat="45.32652" lon="4.54303">
        <ele>1023.5999755859</ele>
        <time>2026-05-11T12:40:51.000Z</time>
      </trkpt>
      <trkpt lat="45.32651" lon="4.54308">
        <ele>1023</ele>
        <time>2026-05-11T12:40:52.000Z</time>
      </trkpt>
      <trkpt lat="45.3265" lon="4.54313">
        <ele>1022.4000244141</ele>
        <time>2026-05-11T12:40:53.000Z</time>
      </trkpt>
      <trkpt lat="45.32649" lon="4.54318">
        <ele>1021.799987793</ele>
        <time>2026-05-11T12:40:54.000Z</time>
      </trkpt>
      <trkpt lat="45.32647" lon="4.54323">
        <ele>1021.200012207</ele>
        <time>2026-05-11T12:40:55.000Z</time>
      </trkpt>
      <trkpt lat="45.32646" lon="4.54327">
        <ele>1020.5999755859</ele>
        <time>2026-05-11T12:40:56.000Z</time>
      </trkpt>
      <trkpt lat="45.32644" lon="4.54331">
        <ele>1020</ele>
        <time>2026-05-11T12:40:57.000Z</time>
      </trkpt>
      <trkpt lat="45.32643" lon="4.54335">
        <ele>1019.4000244141</ele>
        <time>2026-05-11T12:40:58.000Z</time>
      </trkpt>
      <trkpt lat="45.32641" lon="4.54339">
        <ele>1018.799987793</ele>
        <time>2026-05-11T12:40:59.000Z</time>
      </trkpt>
      <trkpt lat="45.32639" lon="4.54343">
        <ele>1018.200012207</ele>
        <time>2026-05-11T12:41:00.000Z</time>
      </trkpt>
      <trkpt lat="45.32636" lon="4.54346">
        <ele>1017.5999755859</ele>
        <time>2026-05-11T12:41:01.000Z</time>
      </trkpt>
      <trkpt lat="45.32634" lon="4.54349">
        <ele>1017</ele>
        <time>2026-05-11T12:41:02.000Z</time>
      </trkpt>
      <trkpt lat="45.32632" lon="4.54353">
        <ele>1016.4000244141</ele>
        <time>2026-05-11T12:41:03.000Z</time>
      </trkpt>
      <trkpt lat="45.32629" lon="4.54358">
        <ele>1015.799987793</ele>
        <time>2026-05-11T12:41:04.000Z</time>
      </trkpt>
      <trkpt lat="45.32627" lon="4.54363">
        <ele>1015.200012207</ele>
        <time>2026-05-11T12:41:05.000Z</time>
      </trkpt>
      <trkpt lat="45.32625" lon="4.54367">
        <ele>1014.5999755859</ele>
        <time>2026-05-11T12:41:06.000Z</time>
      </trkpt>
      <trkpt lat="45.32623" lon="4.54372">
        <ele>1014.200012207</ele>
        <time>2026-05-11T12:41:07.000Z</time>
      </trkpt>
      <trkpt lat="45.32623" lon="4.54377">
        <ele>1013.5999755859</ele>
        <time>2026-05-11T12:41:08.000Z</time>
      </trkpt>
      <trkpt lat="45.32622" lon="4.54382">
        <ele>1013</ele>
        <time>2026-05-11T12:41:09.000Z</time>
      </trkpt>
      <trkpt lat="45.32622" lon="4.54386">
        <ele>1012.4000244141</ele>
        <time>2026-05-11T12:41:10.000Z</time>
      </trkpt>
      <trkpt lat="45.32622" lon="4.54391">
        <ele>1012</ele>
        <time>2026-05-11T12:41:11.000Z</time>
      </trkpt>
      <trkpt lat="45.32623" lon="4.54394">
        <ele>1011.5999755859</ele>
        <time>2026-05-11T12:41:12.000Z</time>
      </trkpt>
      <trkpt lat="45.32623" lon="4.54399">
        <ele>1011</ele>
        <time>2026-05-11T12:41:13.000Z</time>
      </trkpt>
      <trkpt lat="45.32623" lon="4.54404">
        <ele>1010.5999755859</ele>
        <time>2026-05-11T12:41:14.000Z</time>
      </trkpt>
      <trkpt lat="45.32622" lon="4.54409">
        <ele>1010</ele>
        <time>2026-05-11T12:41:15.000Z</time>
      </trkpt>
      <trkpt lat="45.32622" lon="4.54414">
        <ele>1009.5999755859</ele>
        <time>2026-05-11T12:41:16.000Z</time>
      </trkpt>
      <trkpt lat="45.32622" lon="4.54419">
        <ele>1009</ele>
        <time>2026-05-11T12:41:17.000Z</time>
      </trkpt>
      <trkpt lat="45.32622" lon="4.54424">
        <ele>1008.5999755859</ele>
        <time>2026-05-11T12:41:18.000Z</time>
      </trkpt>
      <trkpt lat="45.32621" lon="4.54429">
        <ele>1008.200012207</ele>
        <time>2026-05-11T12:41:19.000Z</time>
      </trkpt>
      <trkpt lat="45.3262" lon="4.54435">
        <ele>1007.799987793</ele>
        <time>2026-05-11T12:41:20.000Z</time>
      </trkpt>
      <trkpt lat="45.32619" lon="4.54441">
        <ele>1007.200012207</ele>
        <time>2026-05-11T12:41:21.000Z</time>
      </trkpt>
      <trkpt lat="45.32618" lon="4.54447">
        <ele>1006.5999755859</ele>
        <time>2026-05-11T12:41:22.000Z</time>
      </trkpt>
      <trkpt lat="45.32618" lon="4.54452">
        <ele>1006.200012207</ele>
        <time>2026-05-11T12:41:23.000Z</time>
      </trkpt>
      <trkpt lat="45.32617" lon="4.54457">
        <ele>1005.5999755859</ele>
        <time>2026-05-11T12:41:24.000Z</time>
      </trkpt>
      <trkpt lat="45.32616" lon="4.54461">
        <ele>1005.200012207</ele>
        <time>2026-05-11T12:41:25.000Z</time>
      </trkpt>
      <trkpt lat="45.32615" lon="4.54465">
        <ele>1004.799987793</ele>
        <time>2026-05-11T12:41:26.000Z</time>
      </trkpt>
      <trkpt lat="45.32615" lon="4.5447">
        <ele>1004.4000244141</ele>
        <time>2026-05-11T12:41:27.000Z</time>
      </trkpt>
      <trkpt lat="45.32615" lon="4.54475">
        <ele>1003.799987793</ele>
        <time>2026-05-11T12:41:28.000Z</time>
      </trkpt>
      <trkpt lat="45.32615" lon="4.5448">
        <ele>1003.200012207</ele>
        <time>2026-05-11T12:41:29.000Z</time>
      </trkpt>
      <trkpt lat="45.32614" lon="4.54485">
        <ele>1002.799987793</ele>
        <time>2026-05-11T12:41:30.000Z</time>
      </trkpt>
      <trkpt lat="45.32613" lon="4.5449">
        <ele>1002.4000244141</ele>
        <time>2026-05-11T12:41:31.000Z</time>
      </trkpt>
      <trkpt lat="45.32612" lon="4.54495">
        <ele>1002</ele>
        <time>2026-05-11T12:41:32.000Z</time>
      </trkpt>
      <trkpt lat="45.32611" lon="4.545">
        <ele>1001.4000244141</ele>
        <time>2026-05-11T12:41:33.000Z</time>
      </trkpt>
      <trkpt lat="45.3261" lon="4.54504">
        <ele>1001</ele>
        <time>2026-05-11T12:41:34.000Z</time>
      </trkpt>
      <trkpt lat="45.32608" lon="4.54509">
        <ele>1000.5999755859</ele>
        <time>2026-05-11T12:41:35.000Z</time>
      </trkpt>
      <trkpt lat="45.32607" lon="4.54515">
        <ele>1000.200012207</ele>
        <time>2026-05-11T12:41:36.000Z</time>
      </trkpt>
      <trkpt lat="45.32604" lon="4.54521">
        <ele>999.79998779297</ele>
        <time>2026-05-11T12:41:37.000Z</time>
      </trkpt>
      <trkpt lat="45.32601" lon="4.54526">
        <ele>999.59997558594</ele>
        <time>2026-05-11T12:41:38.000Z</time>
      </trkpt>
      <trkpt lat="45.32598" lon="4.54531">
        <ele>999.20001220703</ele>
        <time>2026-05-11T12:41:39.000Z</time>
      </trkpt>
      <trkpt lat="45.32596" lon="4.54535">
        <ele>998.79998779297</ele>
        <time>2026-05-11T12:41:40.000Z</time>
      </trkpt>
      <trkpt lat="45.32594" lon="4.5454">
        <ele>998.40002441406</ele>
        <time>2026-05-11T12:41:41.000Z</time>
      </trkpt>
      <trkpt lat="45.32591" lon="4.54545">
        <ele>998.20001220703</ele>
        <time>2026-05-11T12:41:42.000Z</time>
      </trkpt>
      <trkpt lat="45.32588" lon="4.54551">
        <ele>997.79998779297</ele>
        <time>2026-05-11T12:41:43.000Z</time>
      </trkpt>
      <trkpt lat="45.32585" lon="4.54557">
        <ele>997.40002441406</ele>
        <time>2026-05-11T12:41:44.000Z</time>
      </trkpt>
      <trkpt lat="45.32582" lon="4.54563">
        <ele>997</ele>
        <time>2026-05-11T12:41:45.000Z</time>
      </trkpt>
      <trkpt lat="45.32579" lon="4.54567">
        <ele>996.59997558594</ele>
        <time>2026-05-11T12:41:46.000Z</time>
      </trkpt>
      <trkpt lat="45.32575" lon="4.54572">
        <ele>996.20001220703</ele>
        <time>2026-05-11T12:41:47.000Z</time>
      </trkpt>
      <trkpt lat="45.32573" lon="4.54576">
        <ele>996</ele>
        <time>2026-05-11T12:41:48.000Z</time>
      </trkpt>
      <trkpt lat="45.3257" lon="4.5458">
        <ele>995.59997558594</ele>
        <time>2026-05-11T12:41:49.000Z</time>
      </trkpt>
      <trkpt lat="45.32567" lon="4.54584">
        <ele>995.40002441406</ele>
        <time>2026-05-11T12:41:50.000Z</time>
      </trkpt>
      <trkpt lat="45.32565" lon="4.54589">
        <ele>995</ele>
        <time>2026-05-11T12:41:51.000Z</time>
      </trkpt>
      <trkpt lat="45.32563" lon="4.54593">
        <ele>994.79998779297</ele>
        <time>2026-05-11T12:41:52.000Z</time>
      </trkpt>
      <trkpt lat="45.32561" lon="4.54596">
        <ele>994.59997558594</ele>
        <time>2026-05-11T12:41:53.000Z</time>
      </trkpt>
      <trkpt lat="45.32559" lon="4.54598">
        <ele>994.40002441406</ele>
        <time>2026-05-11T12:41:54.000Z</time>
      </trkpt>
      <trkpt lat="45.32558" lon="4.54601">
        <ele>994</ele>
        <time>2026-05-11T12:41:55.000Z</time>
      </trkpt>
      <trkpt lat="45.32557" lon="4.54604">
        <ele>993.79998779297</ele>
        <time>2026-05-11T12:41:56.000Z</time>
      </trkpt>
      <trkpt lat="45.32556" lon="4.54605">
        <ele>993.40002441406</ele>
        <time>2026-05-11T12:41:57.000Z</time>
      </trkpt>
      <trkpt lat="45.32556" lon="4.54605">
        <ele>993.20001220703</ele>
        <time>2026-05-11T12:41:58.000Z</time>
      </trkpt>
      <trkpt lat="45.32556" lon="4.54605">
        <ele>993</ele>
        <time>2026-05-11T12:41:59.000Z</time>
      </trkpt>
      <trkpt lat="45.32555" lon="4.5461">
        <ele>992</ele>
        <time>2026-05-11T12:45:02.000Z</time>
      </trkpt>
      <trkpt lat="45.32555" lon="4.54613">
        <ele>991.79998779297</ele>
        <time>2026-05-11T12:45:03.000Z</time>
      </trkpt>
      <trkpt lat="45.32553" lon="4.54617">
        <ele>991.59997558594</ele>
        <time>2026-05-11T12:45:04.000Z</time>
      </trkpt>
      <trkpt lat="45.32552" lon="4.54621">
        <ele>991.59997558594</ele>
        <time>2026-05-11T12:45:05.000Z</time>
      </trkpt>
      <trkpt lat="45.32551" lon="4.54626">
        <ele>991.40002441406</ele>
        <time>2026-05-11T12:45:06.000Z</time>
      </trkpt>
      <trkpt lat="45.32549" lon="4.54631">
        <ele>991.20001220703</ele>
        <time>2026-05-11T12:45:07.000Z</time>
      </trkpt>
      <trkpt lat="45.32548" lon="4.54636">
        <ele>991</ele>
        <time>2026-05-11T12:45:08.000Z</time>
      </trkpt>
      <trkpt lat="45.32546" lon="4.5464">
        <ele>990.59997558594</ele>
        <time>2026-05-11T12:45:09.000Z</time>
      </trkpt>
      <trkpt lat="45.32544" lon="4.54645">
        <ele>990.40002441406</ele>
        <time>2026-05-11T12:45:10.000Z</time>
      </trkpt>
      <trkpt lat="45.32542" lon="4.54649">
        <ele>990</ele>
        <time>2026-05-11T12:45:11.000Z</time>
      </trkpt>
      <trkpt lat="45.3254" lon="4.54653">
        <ele>989.79998779297</ele>
        <time>2026-05-11T12:45:12.000Z</time>
      </trkpt>
      <trkpt lat="45.32538" lon="4.54658">
        <ele>989.40002441406</ele>
        <time>2026-05-11T12:45:13.000Z</time>
      </trkpt>
      <trkpt lat="45.32536" lon="4.54663">
        <ele>989.20001220703</ele>
        <time>2026-05-11T12:45:14.000Z</time>
      </trkpt>
      <trkpt lat="45.32534" lon="4.54668">
        <ele>988.79998779297</ele>
        <time>2026-05-11T12:45:15.000Z</time>
      </trkpt>
      <trkpt lat="45.32532" lon="4.54672">
        <ele>988.59997558594</ele>
        <time>2026-05-11T12:45:16.000Z</time>
      </trkpt>
      <trkpt lat="45.3253" lon="4.54677">
        <ele>988.40002441406</ele>
        <time>2026-05-11T12:45:17.000Z</time>
      </trkpt>
      <trkpt lat="45.32528" lon="4.5468">
        <ele>988.20001220703</ele>
        <time>2026-05-11T12:45:18.000Z</time>
      </trkpt>
      <trkpt lat="45.32526" lon="4.54683">
        <ele>987.79998779297</ele>
        <time>2026-05-11T12:45:19.000Z</time>
      </trkpt>
      <trkpt lat="45.32524" lon="4.54684">
        <ele>987.59997558594</ele>
        <time>2026-05-11T12:45:20.000Z</time>
      </trkpt>
      <trkpt lat="45.32521" lon="4.54686">
        <ele>987.40002441406</ele>
        <time>2026-05-11T12:45:21.000Z</time>
      </trkpt>
      <trkpt lat="45.32518" lon="4.54687">
        <ele>987.20001220703</ele>
        <time>2026-05-11T12:45:22.000Z</time>
      </trkpt>
      <trkpt lat="45.32516" lon="4.54686">
        <ele>986.79998779297</ele>
        <time>2026-05-11T12:45:23.000Z</time>
      </trkpt>
      <trkpt lat="45.32513" lon="4.54686">
        <ele>986.59997558594</ele>
        <time>2026-05-11T12:45:24.000Z</time>
      </trkpt>
      <trkpt lat="45.32511" lon="4.54686">
        <ele>986.40002441406</ele>
        <time>2026-05-11T12:45:25.000Z</time>
      </trkpt>
      <trkpt lat="45.32508" lon="4.54686">
        <ele>986</ele>
        <time>2026-05-11T12:45:26.000Z</time>
      </trkpt>
      <trkpt lat="45.32505" lon="4.54685">
        <ele>985.59997558594</ele>
        <time>2026-05-11T12:45:27.000Z</time>
      </trkpt>
      <trkpt lat="45.32503" lon="4.54684">
        <ele>985.40002441406</ele>
        <time>2026-05-11T12:45:28.000Z</time>
      </trkpt>
      <trkpt lat="45.325" lon="4.54683">
        <ele>985</ele>
        <time>2026-05-11T12:45:29.000Z</time>
      </trkpt>
      <trkpt lat="45.32497" lon="4.54683">
        <ele>984.59997558594</ele>
        <time>2026-05-11T12:45:30.000Z</time>
      </trkpt>
      <trkpt lat="45.32494" lon="4.54683">
        <ele>984.20001220703</ele>
        <time>2026-05-11T12:45:31.000Z</time>
      </trkpt>
      <trkpt lat="45.32491" lon="4.54682">
        <ele>983.79998779297</ele>
        <time>2026-05-11T12:45:32.000Z</time>
      </trkpt>
      <trkpt lat="45.32489" lon="4.54681">
        <ele>983.40002441406</ele>
        <time>2026-05-11T12:45:33.000Z</time>
      </trkpt>
      <trkpt lat="45.32487" lon="4.5468">
        <ele>983</ele>
        <time>2026-05-11T12:45:34.000Z</time>
      </trkpt>
      <trkpt lat="45.32484" lon="4.54679">
        <ele>982.79998779297</ele>
        <time>2026-05-11T12:45:35.000Z</time>
      </trkpt>
      <trkpt lat="45.32482" lon="4.54679">
        <ele>982.40002441406</ele>
        <time>2026-05-11T12:45:36.000Z</time>
      </trkpt>
      <trkpt lat="45.3248" lon="4.54678">
        <ele>982</ele>
        <time>2026-05-11T12:45:37.000Z</time>
      </trkpt>
      <trkpt lat="45.32477" lon="4.54677">
        <ele>981.59997558594</ele>
        <time>2026-05-11T12:45:38.000Z</time>
      </trkpt>
      <trkpt lat="45.32475" lon="4.54677">
        <ele>981.20001220703</ele>
        <time>2026-05-11T12:45:39.000Z</time>
      </trkpt>
      <trkpt lat="45.32473" lon="4.54676">
        <ele>980.79998779297</ele>
        <time>2026-05-11T12:45:40.000Z</time>
      </trkpt>
      <trkpt lat="45.32471" lon="4.54674">
        <ele>980.40002441406</ele>
        <time>2026-05-11T12:45:41.000Z</time>
      </trkpt>
      <trkpt lat="45.3247" lon="4.54672">
        <ele>980</ele>
        <time>2026-05-11T12:45:42.000Z</time>
      </trkpt>
      <trkpt lat="45.32469" lon="4.54669">
        <ele>979.59997558594</ele>
        <time>2026-05-11T12:45:43.000Z</time>
      </trkpt>
      <trkpt lat="45.32467" lon="4.54665">
        <ele>979.20001220703</ele>
        <time>2026-05-11T12:45:44.000Z</time>
      </trkpt>
      <trkpt lat="45.32466" lon="4.54661">
        <ele>978.79998779297</ele>
        <time>2026-05-11T12:45:45.000Z</time>
      </trkpt>
      <trkpt lat="45.32464" lon="4.54658">
        <ele>978.20001220703</ele>
        <time>2026-05-11T12:45:46.000Z</time>
      </trkpt>
      <trkpt lat="45.32463" lon="4.54654">
        <ele>977.79998779297</ele>
        <time>2026-05-11T12:45:47.000Z</time>
      </trkpt>
      <trkpt lat="45.32461" lon="4.5465">
        <ele>977.40002441406</ele>
        <time>2026-05-11T12:45:48.000Z</time>
      </trkpt>
      <trkpt lat="45.3246" lon="4.54647">
        <ele>977</ele>
        <time>2026-05-11T12:45:49.000Z</time>
      </trkpt>
      <trkpt lat="45.32458" lon="4.54643">
        <ele>976.59997558594</ele>
        <time>2026-05-11T12:45:50.000Z</time>
      </trkpt>
      <trkpt lat="45.32457" lon="4.5464">
        <ele>976.40002441406</ele>
        <time>2026-05-11T12:45:51.000Z</time>
      </trkpt>
      <trkpt lat="45.32455" lon="4.54637">
        <ele>976</ele>
        <time>2026-05-11T12:45:52.000Z</time>
      </trkpt>
      <trkpt lat="45.32454" lon="4.54634">
        <ele>975.79998779297</ele>
        <time>2026-05-11T12:45:53.000Z</time>
      </trkpt>
      <trkpt lat="45.32453" lon="4.54631">
        <ele>975.40002441406</ele>
        <time>2026-05-11T12:45:54.000Z</time>
      </trkpt>
      <trkpt lat="45.32452" lon="4.54628">
        <ele>974.79998779297</ele>
        <time>2026-05-11T12:45:55.000Z</time>
      </trkpt>
      <trkpt lat="45.32451" lon="4.54625">
        <ele>974.40002441406</ele>
        <time>2026-05-11T12:45:56.000Z</time>
      </trkpt>
      <trkpt lat="45.32449" lon="4.54621">
        <ele>974</ele>
        <time>2026-05-11T12:45:57.000Z</time>
      </trkpt>
      <trkpt lat="45.32448" lon="4.54617">
        <ele>973.59997558594</ele>
        <time>2026-05-11T12:45:58.000Z</time>
      </trkpt>
      <trkpt lat="45.32447" lon="4.54614">
        <ele>973.20001220703</ele>
        <time>2026-05-11T12:45:59.000Z</time>
      </trkpt>
      <trkpt lat="45.32446" lon="4.54611">
        <ele>972.59997558594</ele>
        <time>2026-05-11T12:46:00.000Z</time>
      </trkpt>
      <trkpt lat="45.32445" lon="4.54608">
        <ele>972</ele>
        <time>2026-05-11T12:46:01.000Z</time>
      </trkpt>
      <trkpt lat="45.32444" lon="4.54605">
        <ele>971.59997558594</ele>
        <time>2026-05-11T12:46:02.000Z</time>
      </trkpt>
      <trkpt lat="45.32443" lon="4.54601">
        <ele>971.20001220703</ele>
        <time>2026-05-11T12:46:03.000Z</time>
      </trkpt>
      <trkpt lat="45.32442" lon="4.54598">
        <ele>970.79998779297</ele>
        <time>2026-05-11T12:46:04.000Z</time>
      </trkpt>
      <trkpt lat="45.32441" lon="4.54595">
        <ele>970.40002441406</ele>
        <time>2026-05-11T12:46:05.000Z</time>
      </trkpt>
      <trkpt lat="45.32439" lon="4.54592">
        <ele>970</ele>
        <time>2026-05-11T12:46:06.000Z</time>
      </trkpt>
      <trkpt lat="45.32438" lon="4.54589">
        <ele>969.40002441406</ele>
        <time>2026-05-11T12:46:07.000Z</time>
      </trkpt>
      <trkpt lat="45.32437" lon="4.54587">
        <ele>969</ele>
        <time>2026-05-11T12:46:08.000Z</time>
      </trkpt>
      <trkpt lat="45.32435" lon="4.54583">
        <ele>968.59997558594</ele>
        <time>2026-05-11T12:46:09.000Z</time>
      </trkpt>
      <trkpt lat="45.32434" lon="4.54581">
        <ele>968.20001220703</ele>
        <time>2026-05-11T12:46:10.000Z</time>
      </trkpt>
      <trkpt lat="45.32432" lon="4.54578">
        <ele>967.59997558594</ele>
        <time>2026-05-11T12:46:11.000Z</time>
      </trkpt>
      <trkpt lat="45.32431" lon="4.54575">
        <ele>967.20001220703</ele>
        <time>2026-05-11T12:46:12.000Z</time>
      </trkpt>
      <trkpt lat="45.3243" lon="4.54572">
        <ele>966.59997558594</ele>
        <time>2026-05-11T12:46:13.000Z</time>
      </trkpt>
      <trkpt lat="45.32428" lon="4.54569">
        <ele>966.20001220703</ele>
        <time>2026-05-11T12:46:14.000Z</time>
      </trkpt>
      <trkpt lat="45.32427" lon="4.54565">
        <ele>965.59997558594</ele>
        <time>2026-05-11T12:46:15.000Z</time>
      </trkpt>
      <trkpt lat="45.32425" lon="4.54563">
        <ele>965.20001220703</ele>
        <time>2026-05-11T12:46:16.000Z</time>
      </trkpt>
      <trkpt lat="45.32422" lon="4.5456">
        <ele>964.79998779297</ele>
        <time>2026-05-11T12:46:17.000Z</time>
      </trkpt>
      <trkpt lat="45.32421" lon="4.54558">
        <ele>964.20001220703</ele>
        <time>2026-05-11T12:46:18.000Z</time>
      </trkpt>
      <trkpt lat="45.32419" lon="4.54555">
        <ele>963.59997558594</ele>
        <time>2026-05-11T12:46:19.000Z</time>
      </trkpt>
      <trkpt lat="45.32418" lon="4.54552">
        <ele>963</ele>
        <time>2026-05-11T12:46:20.000Z</time>
      </trkpt>
      <trkpt lat="45.32416" lon="4.5455">
        <ele>962.40002441406</ele>
        <time>2026-05-11T12:46:21.000Z</time>
      </trkpt>
      <trkpt lat="45.32414" lon="4.54547">
        <ele>962</ele>
        <time>2026-05-11T12:46:22.000Z</time>
      </trkpt>
      <trkpt lat="45.32412" lon="4.54545">
        <ele>961.40002441406</ele>
        <time>2026-05-11T12:46:23.000Z</time>
      </trkpt>
      <trkpt lat="45.32411" lon="4.54541">
        <ele>960.79998779297</ele>
        <time>2026-05-11T12:46:24.000Z</time>
      </trkpt>
      <trkpt lat="45.32409" lon="4.54538">
        <ele>960.20001220703</ele>
        <time>2026-05-11T12:46:25.000Z</time>
      </trkpt>
      <trkpt lat="45.32408" lon="4.54536">
        <ele>959.59997558594</ele>
        <time>2026-05-11T12:46:26.000Z</time>
      </trkpt>
      <trkpt lat="45.32406" lon="4.54533">
        <ele>959</ele>
        <time>2026-05-11T12:46:27.000Z</time>
      </trkpt>
      <trkpt lat="45.32405" lon="4.5453">
        <ele>958.59997558594</ele>
        <time>2026-05-11T12:46:28.000Z</time>
      </trkpt>
      <trkpt lat="45.32403" lon="4.54527">
        <ele>958</ele>
        <time>2026-05-11T12:46:29.000Z</time>
      </trkpt>
      <trkpt lat="45.32402" lon="4.54524">
        <ele>957.40002441406</ele>
        <time>2026-05-11T12:46:30.000Z</time>
      </trkpt>
      <trkpt lat="45.32401" lon="4.5452">
        <ele>956.79998779297</ele>
        <time>2026-05-11T12:46:31.000Z</time>
      </trkpt>
      <trkpt lat="45.324" lon="4.54517">
        <ele>956.20001220703</ele>
        <time>2026-05-11T12:46:32.000Z</time>
      </trkpt>
      <trkpt lat="45.32399" lon="4.54513">
        <ele>955.59997558594</ele>
        <time>2026-05-11T12:46:33.000Z</time>
      </trkpt>
      <trkpt lat="45.32398" lon="4.54509">
        <ele>955</ele>
        <time>2026-05-11T12:46:34.000Z</time>
      </trkpt>
      <trkpt lat="45.32397" lon="4.54505">
        <ele>954.59997558594</ele>
        <time>2026-05-11T12:46:35.000Z</time>
      </trkpt>
      <trkpt lat="45.32396" lon="4.54502">
        <ele>954</ele>
        <time>2026-05-11T12:46:36.000Z</time>
      </trkpt>
      <trkpt lat="45.32396" lon="4.54499">
        <ele>953.40002441406</ele>
        <time>2026-05-11T12:46:37.000Z</time>
      </trkpt>
      <trkpt lat="45.32395" lon="4.54497">
        <ele>953</ele>
        <time>2026-05-11T12:46:38.000Z</time>
      </trkpt>
      <trkpt lat="45.32395" lon="4.54494">
        <ele>952.40002441406</ele>
        <time>2026-05-11T12:46:39.000Z</time>
      </trkpt>
      <trkpt lat="45.32394" lon="4.54492">
        <ele>952</ele>
        <time>2026-05-11T12:46:40.000Z</time>
      </trkpt>
      <trkpt lat="45.32393" lon="4.54489">
        <ele>951.59997558594</ele>
        <time>2026-05-11T12:46:41.000Z</time>
      </trkpt>
      <trkpt lat="45.32391" lon="4.54488">
        <ele>951</ele>
        <time>2026-05-11T12:46:42.000Z</time>
      </trkpt>
      <trkpt lat="45.32389" lon="4.54489">
        <ele>950.59997558594</ele>
        <time>2026-05-11T12:46:43.000Z</time>
      </trkpt>
      <trkpt lat="45.32388" lon="4.54492">
        <ele>950.20001220703</ele>
        <time>2026-05-11T12:46:44.000Z</time>
      </trkpt>
      <trkpt lat="45.32388" lon="4.54495">
        <ele>949.79998779297</ele>
        <time>2026-05-11T12:46:45.000Z</time>
      </trkpt>
      <trkpt lat="45.32387" lon="4.54498">
        <ele>949.59997558594</ele>
        <time>2026-05-11T12:46:46.000Z</time>
      </trkpt>
      <trkpt lat="45.32387" lon="4.54502">
        <ele>949.40002441406</ele>
        <time>2026-05-11T12:46:47.000Z</time>
      </trkpt>
      <trkpt lat="45.32386" lon="4.54506">
        <ele>949.20001220703</ele>
        <time>2026-05-11T12:46:48.000Z</time>
      </trkpt>
      <trkpt lat="45.32386" lon="4.54511">
        <ele>949</ele>
        <time>2026-05-11T12:46:49.000Z</time>
      </trkpt>
      <trkpt lat="45.32385" lon="4.54517">
        <ele>949</ele>
        <time>2026-05-11T12:46:50.000Z</time>
      </trkpt>
      <trkpt lat="45.32384" lon="4.54522">
        <ele>948.79998779297</ele>
        <time>2026-05-11T12:46:51.000Z</time>
      </trkpt>
      <trkpt lat="45.32384" lon="4.54528">
        <ele>948.79998779297</ele>
        <time>2026-05-11T12:46:52.000Z</time>
      </trkpt>
      <trkpt lat="45.32383" lon="4.54533">
        <ele>948.59997558594</ele>
        <time>2026-05-11T12:46:53.000Z</time>
      </trkpt>
      <trkpt lat="45.32383" lon="4.54539">
        <ele>948.59997558594</ele>
        <time>2026-05-11T12:46:54.000Z</time>
      </trkpt>
      <trkpt lat="45.32382" lon="4.54545">
        <ele>948.59997558594</ele>
        <time>2026-05-11T12:46:55.000Z</time>
      </trkpt>
      <trkpt lat="45.32381" lon="4.54552">
        <ele>948.59997558594</ele>
        <time>2026-05-11T12:46:56.000Z</time>
      </trkpt>
      <trkpt lat="45.3238" lon="4.54559">
        <ele>948.40002441406</ele>
        <time>2026-05-11T12:46:57.000Z</time>
      </trkpt>
      <trkpt lat="45.32379" lon="4.54566">
        <ele>948.40002441406</ele>
        <time>2026-05-11T12:46:58.000Z</time>
      </trkpt>
      <trkpt lat="45.32379" lon="4.54573">
        <ele>948.20001220703</ele>
        <time>2026-05-11T12:46:59.000Z</time>
      </trkpt>
      <trkpt lat="45.32378" lon="4.5458">
        <ele>948.20001220703</ele>
        <time>2026-05-11T12:47:00.000Z</time>
      </trkpt>
      <trkpt lat="45.32377" lon="4.54587">
        <ele>948</ele>
        <time>2026-05-11T12:47:01.000Z</time>
      </trkpt>
      <trkpt lat="45.32376" lon="4.54593">
        <ele>948</ele>
        <time>2026-05-11T12:47:02.000Z</time>
      </trkpt>
      <trkpt lat="45.32375" lon="4.546">
        <ele>947.79998779297</ele>
        <time>2026-05-11T12:47:03.000Z</time>
      </trkpt>
      <trkpt lat="45.32374" lon="4.54607">
        <ele>947.79998779297</ele>
        <time>2026-05-11T12:47:04.000Z</time>
      </trkpt>
      <trkpt lat="45.32373" lon="4.54614">
        <ele>947.79998779297</ele>
        <time>2026-05-11T12:47:05.000Z</time>
      </trkpt>
      <trkpt lat="45.32372" lon="4.5462">
        <ele>947.59997558594</ele>
        <time>2026-05-11T12:47:06.000Z</time>
      </trkpt>
      <trkpt lat="45.3237" lon="4.54626">
        <ele>947.59997558594</ele>
        <time>2026-05-11T12:47:07.000Z</time>
      </trkpt>
      <trkpt lat="45.32369" lon="4.54632">
        <ele>947.59997558594</ele>
        <time>2026-05-11T12:47:08.000Z</time>
      </trkpt>
      <trkpt lat="45.32367" lon="4.54639">
        <ele>947.40002441406</ele>
        <time>2026-05-11T12:47:09.000Z</time>
      </trkpt>
      <trkpt lat="45.32365" lon="4.54645">
        <ele>947.40002441406</ele>
        <time>2026-05-11T12:47:10.000Z</time>
      </trkpt>
      <trkpt lat="45.32363" lon="4.54651">
        <ele>947.20001220703</ele>
        <time>2026-05-11T12:47:11.000Z</time>
      </trkpt>
      <trkpt lat="45.32361" lon="4.54658">
        <ele>947</ele>
        <time>2026-05-11T12:47:12.000Z</time>
      </trkpt>
      <trkpt lat="45.32358" lon="4.54665">
        <ele>947</ele>
        <time>2026-05-11T12:47:13.000Z</time>
      </trkpt>
      <trkpt lat="45.32357" lon="4.54671">
        <ele>946.79998779297</ele>
        <time>2026-05-11T12:47:14.000Z</time>
      </trkpt>
      <trkpt lat="45.32355" lon="4.54677">
        <ele>946.59997558594</ele>
        <time>2026-05-11T12:47:15.000Z</time>
      </trkpt>
      <trkpt lat="45.32354" lon="4.54681">
        <ele>946.40002441406</ele>
        <time>2026-05-11T12:47:16.000Z</time>
      </trkpt>
      <trkpt lat="45.32353" lon="4.54685">
        <ele>946.20001220703</ele>
        <time>2026-05-11T12:47:17.000Z</time>
      </trkpt>
      <trkpt lat="45.32352" lon="4.54688">
        <ele>946</ele>
        <time>2026-05-11T12:47:18.000Z</time>
      </trkpt>
      <trkpt lat="45.32351" lon="4.5469">
        <ele>945.79998779297</ele>
        <time>2026-05-11T12:47:19.000Z</time>
      </trkpt>
      <trkpt lat="45.3235" lon="4.54691">
        <ele>945.59997558594</ele>
        <time>2026-05-11T12:47:20.000Z</time>
      </trkpt>
      <trkpt lat="45.32349" lon="4.54691">
        <ele>945.40002441406</ele>
        <time>2026-05-11T12:47:21.000Z</time>
      </trkpt>
      <trkpt lat="45.32349" lon="4.54691">
        <ele>945.20001220703</ele>
        <time>2026-05-11T12:47:22.000Z</time>
      </trkpt>
      <trkpt lat="45.32349" lon="4.54691">
        <ele>945</ele>
        <time>2026-05-11T12:47:23.000Z</time>
      </trkpt>
      <trkpt lat="45.32349" lon="4.54691">
        <ele>944.79998779297</ele>
        <time>2026-05-11T12:47:24.000Z</time>
      </trkpt>
      <trkpt lat="45.32342" lon="4.54693">
        <ele>942.59997558594</ele>
        <time>2026-05-11T12:48:43.000Z</time>
      </trkpt>
      <trkpt lat="45.32341" lon="4.54693">
        <ele>942.59997558594</ele>
        <time>2026-05-11T12:48:44.000Z</time>
      </trkpt>
      <trkpt lat="45.3234" lon="4.54693">
        <ele>942.40002441406</ele>
        <time>2026-05-11T12:48:45.000Z</time>
      </trkpt>
      <trkpt lat="45.32339" lon="4.54693">
        <ele>942.20001220703</ele>
        <time>2026-05-11T12:48:46.000Z</time>
      </trkpt>
      <trkpt lat="45.32338" lon="4.54693">
        <ele>942.20001220703</ele>
        <time>2026-05-11T12:48:47.000Z</time>
      </trkpt>
      <trkpt lat="45.32338" lon="4.54693">
        <ele>942</ele>
        <time>2026-05-11T12:48:48.000Z</time>
      </trkpt>
      <trkpt lat="45.32325" lon="4.54699">
        <ele>939.40002441406</ele>
        <time>2026-05-11T12:49:05.000Z</time>
      </trkpt>
      <trkpt lat="45.32324" lon="4.54699">
        <ele>939.20001220703</ele>
        <time>2026-05-11T12:49:06.000Z</time>
      </trkpt>
      <trkpt lat="45.32322" lon="4.547">
        <ele>938.79998779297</ele>
        <time>2026-05-11T12:49:07.000Z</time>
      </trkpt>
      <trkpt lat="45.32321" lon="4.54701">
        <ele>938.59997558594</ele>
        <time>2026-05-11T12:49:08.000Z</time>
      </trkpt>
      <trkpt lat="45.32319" lon="4.54702">
        <ele>938.40002441406</ele>
        <time>2026-05-11T12:49:09.000Z</time>
      </trkpt>
      <trkpt lat="45.32318" lon="4.54702">
        <ele>938.20001220703</ele>
        <time>2026-05-11T12:49:10.000Z</time>
      </trkpt>
      <trkpt lat="45.32316" lon="4.54703">
        <ele>938</ele>
        <time>2026-05-11T12:49:11.000Z</time>
      </trkpt>
      <trkpt lat="45.32315" lon="4.54703">
        <ele>937.79998779297</ele>
        <time>2026-05-11T12:49:12.000Z</time>
      </trkpt>
      <trkpt lat="45.32313" lon="4.54704">
        <ele>937.59997558594</ele>
        <time>2026-05-11T12:49:13.000Z</time>
      </trkpt>
      <trkpt lat="45.32312" lon="4.54704">
        <ele>937.20001220703</ele>
        <time>2026-05-11T12:49:14.000Z</time>
      </trkpt>
      <trkpt lat="45.3231" lon="4.54704">
        <ele>937</ele>
        <time>2026-05-11T12:49:15.000Z</time>
      </trkpt>
      <trkpt lat="45.32309" lon="4.54704">
        <ele>936.59997558594</ele>
        <time>2026-05-11T12:49:16.000Z</time>
      </trkpt>
      <trkpt lat="45.32308" lon="4.54704">
        <ele>936.40002441406</ele>
        <time>2026-05-11T12:49:17.000Z</time>
      </trkpt>
      <trkpt lat="45.32307" lon="4.54704">
        <ele>936</ele>
        <time>2026-05-11T12:49:18.000Z</time>
      </trkpt>
      <trkpt lat="45.32306" lon="4.54704">
        <ele>935.79998779297</ele>
        <time>2026-05-11T12:49:19.000Z</time>
      </trkpt>
      <trkpt lat="45.32305" lon="4.54704">
        <ele>935.40002441406</ele>
        <time>2026-05-11T12:49:20.000Z</time>
      </trkpt>
      <trkpt lat="45.32304" lon="4.54704">
        <ele>935.20001220703</ele>
        <time>2026-05-11T12:49:21.000Z</time>
      </trkpt>
      <trkpt lat="45.32303" lon="4.54704">
        <ele>934.79998779297</ele>
        <time>2026-05-11T12:49:22.000Z</time>
      </trkpt>
      <trkpt lat="45.32302" lon="4.54703">
        <ele>934.40002441406</ele>
        <time>2026-05-11T12:49:23.000Z</time>
      </trkpt>
      <trkpt lat="45.32301" lon="4.54703">
        <ele>934.20001220703</ele>
        <time>2026-05-11T12:49:24.000Z</time>
      </trkpt>
      <trkpt lat="45.323" lon="4.54703">
        <ele>933.79998779297</ele>
        <time>2026-05-11T12:49:25.000Z</time>
      </trkpt>
      <trkpt lat="45.32299" lon="4.54704">
        <ele>933.40002441406</ele>
        <time>2026-05-11T12:49:26.000Z</time>
      </trkpt>
      <trkpt lat="45.32297" lon="4.54704">
        <ele>933.20001220703</ele>
        <time>2026-05-11T12:49:27.000Z</time>
      </trkpt>
      <trkpt lat="45.32296" lon="4.54704">
        <ele>933</ele>
        <time>2026-05-11T12:49:28.000Z</time>
      </trkpt>
      <trkpt lat="45.32295" lon="4.54704">
        <ele>932.59997558594</ele>
        <time>2026-05-11T12:49:29.000Z</time>
      </trkpt>
      <trkpt lat="45.32294" lon="4.54703">
        <ele>932.40002441406</ele>
        <time>2026-05-11T12:49:30.000Z</time>
      </trkpt>
      <trkpt lat="45.32293" lon="4.54703">
        <ele>932</ele>
        <time>2026-05-11T12:49:31.000Z</time>
      </trkpt>
      <trkpt lat="45.32292" lon="4.54703">
        <ele>931.79998779297</ele>
        <time>2026-05-11T12:49:32.000Z</time>
      </trkpt>
      <trkpt lat="45.32291" lon="4.54703">
        <ele>931.40002441406</ele>
        <time>2026-05-11T12:49:33.000Z</time>
      </trkpt>
      <trkpt lat="45.3229" lon="4.54703">
        <ele>931.20001220703</ele>
        <time>2026-05-11T12:49:34.000Z</time>
      </trkpt>
      <trkpt lat="45.32289" lon="4.54703">
        <ele>930.79998779297</ele>
        <time>2026-05-11T12:49:35.000Z</time>
      </trkpt>
      <trkpt lat="45.32289" lon="4.54703">
        <ele>930.40002441406</ele>
        <time>2026-05-11T12:49:36.000Z</time>
      </trkpt>
      <trkpt lat="45.32288" lon="4.54703">
        <ele>930.20001220703</ele>
        <time>2026-05-11T12:49:37.000Z</time>
      </trkpt>
      <trkpt lat="45.32287" lon="4.54703">
        <ele>929.79998779297</ele>
        <time>2026-05-11T12:49:38.000Z</time>
      </trkpt>
      <trkpt lat="45.32286" lon="4.54704">
        <ele>929.59997558594</ele>
        <time>2026-05-11T12:49:39.000Z</time>
      </trkpt>
      <trkpt lat="45.32286" lon="4.54704">
        <ele>929.20001220703</ele>
        <time>2026-05-11T12:49:40.000Z</time>
      </trkpt>
      <trkpt lat="45.32285" lon="4.54704">
        <ele>929</ele>
        <time>2026-05-11T12:49:41.000Z</time>
      </trkpt>
      <trkpt lat="45.32285" lon="4.54704">
        <ele>928.59997558594</ele>
        <time>2026-05-11T12:49:42.000Z</time>
      </trkpt>
      <trkpt lat="45.32284" lon="4.54705">
        <ele>928.40002441406</ele>
        <time>2026-05-11T12:49:43.000Z</time>
      </trkpt>
      <trkpt lat="45.32283" lon="4.54704">
        <ele>928.20001220703</ele>
        <time>2026-05-11T12:49:44.000Z</time>
      </trkpt>
      <trkpt lat="45.32282" lon="4.54705">
        <ele>928</ele>
        <time>2026-05-11T12:49:45.000Z</time>
      </trkpt>
      <trkpt lat="45.32282" lon="4.54705">
        <ele>927.79998779297</ele>
        <time>2026-05-11T12:49:46.000Z</time>
      </trkpt>
      <trkpt lat="45.32281" lon="4.54704">
        <ele>927.59997558594</ele>
        <time>2026-05-11T12:49:47.000Z</time>
      </trkpt>
      <trkpt lat="45.3228" lon="4.54704">
        <ele>927.20001220703</ele>
        <time>2026-05-11T12:49:48.000Z</time>
      </trkpt>
      <trkpt lat="45.32279" lon="4.54704">
        <ele>927</ele>
        <time>2026-05-11T12:49:49.000Z</time>
      </trkpt>
      <trkpt lat="45.32278" lon="4.54704">
        <ele>926.79998779297</ele>
        <time>2026-05-11T12:49:50.000Z</time>
      </trkpt>
      <trkpt lat="45.32278" lon="4.54704">
        <ele>926.59997558594</ele>
        <time>2026-05-11T12:49:51.000Z</time>
      </trkpt>
      <trkpt lat="45.32277" lon="4.54704">
        <ele>926.40002441406</ele>
        <time>2026-05-11T12:49:52.000Z</time>
      </trkpt>
      <trkpt lat="45.32277" lon="4.54704">
        <ele>926.20001220703</ele>
        <time>2026-05-11T12:49:53.000Z</time>
      </trkpt>
      <trkpt lat="45.32276" lon="4.54704">
        <ele>925.79998779297</ele>
        <time>2026-05-11T12:49:54.000Z</time>
      </trkpt>
      <trkpt lat="45.32275" lon="4.54704">
        <ele>925.59997558594</ele>
        <time>2026-05-11T12:49:55.000Z</time>
      </trkpt>
      <trkpt lat="45.32274" lon="4.54704">
        <ele>925.40002441406</ele>
        <time>2026-05-11T12:49:56.000Z</time>
      </trkpt>
      <trkpt lat="45.32273" lon="4.54704">
        <ele>925.20001220703</ele>
        <time>2026-05-11T12:49:57.000Z</time>
      </trkpt>
      <trkpt lat="45.32273" lon="4.54704">
        <ele>925</ele>
        <time>2026-05-11T12:49:58.000Z</time>
      </trkpt>
      <trkpt lat="45.32272" lon="4.54703">
        <ele>924.79998779297</ele>
        <time>2026-05-11T12:49:59.000Z</time>
      </trkpt>
      <trkpt lat="45.32271" lon="4.54703">
        <ele>924.59997558594</ele>
        <time>2026-05-11T12:50:00.000Z</time>
      </trkpt>
      <trkpt lat="45.32271" lon="4.54703">
        <ele>924.40002441406</ele>
        <time>2026-05-11T12:50:01.000Z</time>
      </trkpt>
      <trkpt lat="45.3227" lon="4.54704">
        <ele>924.20001220703</ele>
        <time>2026-05-11T12:50:02.000Z</time>
      </trkpt>
      <trkpt lat="45.32269" lon="4.54704">
        <ele>924</ele>
        <time>2026-05-11T12:50:03.000Z</time>
      </trkpt>
      <trkpt lat="45.32268" lon="4.54704">
        <ele>923.79998779297</ele>
        <time>2026-05-11T12:50:04.000Z</time>
      </trkpt>
      <trkpt lat="45.32267" lon="4.54704">
        <ele>923.59997558594</ele>
        <time>2026-05-11T12:50:05.000Z</time>
      </trkpt>
      <trkpt lat="45.32265" lon="4.54705">
        <ele>923.20001220703</ele>
        <time>2026-05-11T12:50:06.000Z</time>
      </trkpt>
      <trkpt lat="45.32264" lon="4.54706">
        <ele>923</ele>
        <time>2026-05-11T12:50:07.000Z</time>
      </trkpt>
      <trkpt lat="45.32264" lon="4.54706">
        <ele>922.79998779297</ele>
        <time>2026-05-11T12:50:08.000Z</time>
      </trkpt>
      <trkpt lat="45.32264" lon="4.54706">
        <ele>922.59997558594</ele>
        <time>2026-05-11T12:50:09.000Z</time>
      </trkpt>
      <trkpt lat="45.32228" lon="4.54715">
        <ele>910.20001220703</ele>
        <time>2026-05-11T12:51:18.000Z</time>
      </trkpt>
      <trkpt lat="45.32227" lon="4.54716">
        <ele>910</ele>
        <time>2026-05-11T12:51:19.000Z</time>
      </trkpt>
      <trkpt lat="45.32226" lon="4.54716">
        <ele>910</ele>
        <time>2026-05-11T12:51:20.000Z</time>
      </trkpt>
      <trkpt lat="45.32225" lon="4.54717">
        <ele>909.79998779297</ele>
        <time>2026-05-11T12:51:21.000Z</time>
      </trkpt>
      <trkpt lat="45.32224" lon="4.54717">
        <ele>909.79998779297</ele>
        <time>2026-05-11T12:51:22.000Z</time>
      </trkpt>
      <trkpt lat="45.32223" lon="4.54718">
        <ele>909.79998779297</ele>
        <time>2026-05-11T12:51:23.000Z</time>
      </trkpt>
      <trkpt lat="45.32222" lon="4.54719">
        <ele>909.79998779297</ele>
        <time>2026-05-11T12:51:24.000Z</time>
      </trkpt>
      <trkpt lat="45.32221" lon="4.5472">
        <ele>909.59997558594</ele>
        <time>2026-05-11T12:51:25.000Z</time>
      </trkpt>
      <trkpt lat="45.32221" lon="4.54721">
        <ele>909.59997558594</ele>
        <time>2026-05-11T12:51:26.000Z</time>
      </trkpt>
      <trkpt lat="45.3222" lon="4.54721">
        <ele>909.59997558594</ele>
        <time>2026-05-11T12:51:27.000Z</time>
      </trkpt>
      <trkpt lat="45.32219" lon="4.54721">
        <ele>909.59997558594</ele>
        <time>2026-05-11T12:51:28.000Z</time>
      </trkpt>
      <trkpt lat="45.32219" lon="4.54722">
        <ele>909.59997558594</ele>
        <time>2026-05-11T12:51:29.000Z</time>
      </trkpt>
      <trkpt lat="45.32218" lon="4.54722">
        <ele>909.79998779297</ele>
        <time>2026-05-11T12:51:30.000Z</time>
      </trkpt>
      <trkpt lat="45.32217" lon="4.54723">
        <ele>909.79998779297</ele>
        <time>2026-05-11T12:51:31.000Z</time>
      </trkpt>
      <trkpt lat="45.32216" lon="4.54723">
        <ele>909.79998779297</ele>
        <time>2026-05-11T12:51:32.000Z</time>
      </trkpt>
      <trkpt lat="45.32216" lon="4.54722">
        <ele>909.79998779297</ele>
        <time>2026-05-11T12:51:33.000Z</time>
      </trkpt>
      <trkpt lat="45.32216" lon="4.54722">
        <ele>909.59997558594</ele>
        <time>2026-05-11T12:51:34.000Z</time>
      </trkpt>
      <trkpt lat="45.32216" lon="4.54722">
        <ele>909.59997558594</ele>
        <time>2026-05-11T12:51:35.000Z</time>
      </trkpt>
      <trkpt lat="45.32209" lon="4.54755">
        <ele>911.20001220703</ele>
        <time>2026-05-11T12:52:08.000Z</time>
      </trkpt>
      <trkpt lat="45.32209" lon="4.54758">
        <ele>911.20001220703</ele>
        <time>2026-05-11T12:52:09.000Z</time>
      </trkpt>
      <trkpt lat="45.32208" lon="4.54762">
        <ele>911.20001220703</ele>
        <time>2026-05-11T12:52:10.000Z</time>
      </trkpt>
      <trkpt lat="45.32206" lon="4.54765">
        <ele>911.20001220703</ele>
        <time>2026-05-11T12:52:11.000Z</time>
      </trkpt>
      <trkpt lat="45.32206" lon="4.54769">
        <ele>911.40002441406</ele>
        <time>2026-05-11T12:52:12.000Z</time>
      </trkpt>
      <trkpt lat="45.32205" lon="4.54772">
        <ele>911.59997558594</ele>
        <time>2026-05-11T12:52:13.000Z</time>
      </trkpt>
      <trkpt lat="45.32205" lon="4.54776">
        <ele>911.79998779297</ele>
        <time>2026-05-11T12:52:14.000Z</time>
      </trkpt>
      <trkpt lat="45.32204" lon="4.54779">
        <ele>912</ele>
        <time>2026-05-11T12:52:15.000Z</time>
      </trkpt>
      <trkpt lat="45.32204" lon="4.54782">
        <ele>912.20001220703</ele>
        <time>2026-05-11T12:52:16.000Z</time>
      </trkpt>
      <trkpt lat="45.32203" lon="4.54784">
        <ele>912.40002441406</ele>
        <time>2026-05-11T12:52:17.000Z</time>
      </trkpt>
      <trkpt lat="45.32203" lon="4.54787">
        <ele>912.59997558594</ele>
        <time>2026-05-11T12:52:18.000Z</time>
      </trkpt>
      <trkpt lat="45.32202" lon="4.54789">
        <ele>912.79998779297</ele>
        <time>2026-05-11T12:52:19.000Z</time>
      </trkpt>
      <trkpt lat="45.32202" lon="4.54791">
        <ele>913</ele>
        <time>2026-05-11T12:52:20.000Z</time>
      </trkpt>
      <trkpt lat="45.32201" lon="4.54793">
        <ele>913.20001220703</ele>
        <time>2026-05-11T12:52:21.000Z</time>
      </trkpt>
      <trkpt lat="45.32201" lon="4.54795">
        <ele>913.40002441406</ele>
        <time>2026-05-11T12:52:22.000Z</time>
      </trkpt>
      <trkpt lat="45.32201" lon="4.54797">
        <ele>913.59997558594</ele>
        <time>2026-05-11T12:52:23.000Z</time>
      </trkpt>
      <trkpt lat="45.32201" lon="4.54798">
        <ele>913.79998779297</ele>
        <time>2026-05-11T12:52:24.000Z</time>
      </trkpt>
      <trkpt lat="45.322" lon="4.548">
        <ele>913.79998779297</ele>
        <time>2026-05-11T12:52:25.000Z</time>
      </trkpt>
      <trkpt lat="45.32199" lon="4.54802">
        <ele>914</ele>
        <time>2026-05-11T12:52:26.000Z</time>
      </trkpt>
      <trkpt lat="45.32199" lon="4.54804">
        <ele>914.20001220703</ele>
        <time>2026-05-11T12:52:27.000Z</time>
      </trkpt>
      <trkpt lat="45.32199" lon="4.54806">
        <ele>914.20001220703</ele>
        <time>2026-05-11T12:52:28.000Z</time>
      </trkpt>
      <trkpt lat="45.32198" lon="4.54808">
        <ele>914.20001220703</ele>
        <time>2026-05-11T12:52:29.000Z</time>
      </trkpt>
      <trkpt lat="45.32197" lon="4.5481">
        <ele>914.40002441406</ele>
        <time>2026-05-11T12:52:30.000Z</time>
      </trkpt>
      <trkpt lat="45.32197" lon="4.54811">
        <ele>914.40002441406</ele>
        <time>2026-05-11T12:52:31.000Z</time>
      </trkpt>
      <trkpt lat="45.32196" lon="4.54813">
        <ele>914.40002441406</ele>
        <time>2026-05-11T12:52:32.000Z</time>
      </trkpt>
      <trkpt lat="45.32195" lon="4.54815">
        <ele>914.40002441406</ele>
        <time>2026-05-11T12:52:33.000Z</time>
      </trkpt>
      <trkpt lat="45.32195" lon="4.54817">
        <ele>914.40002441406</ele>
        <time>2026-05-11T12:52:34.000Z</time>
      </trkpt>
      <trkpt lat="45.32195" lon="4.54819">
        <ele>914.40002441406</ele>
        <time>2026-05-11T12:52:35.000Z</time>
      </trkpt>
      <trkpt lat="45.32195" lon="4.54821">
        <ele>914.59997558594</ele>
        <time>2026-05-11T12:52:36.000Z</time>
      </trkpt>
      <trkpt lat="45.32194" lon="4.54823">
        <ele>914.59997558594</ele>
        <time>2026-05-11T12:52:37.000Z</time>
      </trkpt>
      <trkpt lat="45.32193" lon="4.54825">
        <ele>914.59997558594</ele>
        <time>2026-05-11T12:52:38.000Z</time>
      </trkpt>
      <trkpt lat="45.32192" lon="4.54826">
        <ele>914.59997558594</ele>
        <time>2026-05-11T12:52:39.000Z</time>
      </trkpt>
      <trkpt lat="45.32191" lon="4.54828">
        <ele>914.59997558594</ele>
        <time>2026-05-11T12:52:40.000Z</time>
      </trkpt>
      <trkpt lat="45.32191" lon="4.5483">
        <ele>914.59997558594</ele>
        <time>2026-05-11T12:52:41.000Z</time>
      </trkpt>
      <trkpt lat="45.32189" lon="4.54831">
        <ele>914.59997558594</ele>
        <time>2026-05-11T12:52:42.000Z</time>
      </trkpt>
      <trkpt lat="45.32189" lon="4.54833">
        <ele>914.59997558594</ele>
        <time>2026-05-11T12:52:43.000Z</time>
      </trkpt>
      <trkpt lat="45.32188" lon="4.54834">
        <ele>914.59997558594</ele>
        <time>2026-05-11T12:52:44.000Z</time>
      </trkpt>
      <trkpt lat="45.32188" lon="4.54836">
        <ele>914.59997558594</ele>
        <time>2026-05-11T12:52:45.000Z</time>
      </trkpt>
      <trkpt lat="45.32188" lon="4.54836">
        <ele>914.59997558594</ele>
        <time>2026-05-11T12:52:46.000Z</time>
      </trkpt>
      <trkpt lat="45.32188" lon="4.54837">
        <ele>914.59997558594</ele>
        <time>2026-05-11T12:52:47.000Z</time>
      </trkpt>
      <trkpt lat="45.32189" lon="4.54849">
        <ele>914.79998779297</ele>
        <time>2026-05-11T12:54:19.000Z</time>
      </trkpt>
      <trkpt lat="45.32189" lon="4.54852">
        <ele>914.79998779297</ele>
        <time>2026-05-11T12:54:20.000Z</time>
      </trkpt>
      <trkpt lat="45.32189" lon="4.54856">
        <ele>914.79998779297</ele>
        <time>2026-05-11T12:54:21.000Z</time>
      </trkpt>
      <trkpt lat="45.32189" lon="4.5486">
        <ele>914.79998779297</ele>
        <time>2026-05-11T12:54:22.000Z</time>
      </trkpt>
      <trkpt lat="45.32188" lon="4.54863">
        <ele>914.79998779297</ele>
        <time>2026-05-11T12:54:23.000Z</time>
      </trkpt>
      <trkpt lat="45.32188" lon="4.54867">
        <ele>914.79998779297</ele>
        <time>2026-05-11T12:54:24.000Z</time>
      </trkpt>
      <trkpt lat="45.32187" lon="4.54871">
        <ele>915</ele>
        <time>2026-05-11T12:54:25.000Z</time>
      </trkpt>
      <trkpt lat="45.32187" lon="4.54874">
        <ele>915</ele>
        <time>2026-05-11T12:54:26.000Z</time>
      </trkpt>
      <trkpt lat="45.32186" lon="4.54879">
        <ele>915</ele>
        <time>2026-05-11T12:54:27.000Z</time>
      </trkpt>
      <trkpt lat="45.32185" lon="4.54883">
        <ele>915</ele>
        <time>2026-05-11T12:54:28.000Z</time>
      </trkpt>
      <trkpt lat="45.32185" lon="4.54888">
        <ele>915.20001220703</ele>
        <time>2026-05-11T12:54:29.000Z</time>
      </trkpt>
      <trkpt lat="45.32184" lon="4.54893">
        <ele>915.20001220703</ele>
        <time>2026-05-11T12:54:30.000Z</time>
      </trkpt>
      <trkpt lat="45.32184" lon="4.54898">
        <ele>915.20001220703</ele>
        <time>2026-05-11T12:54:31.000Z</time>
      </trkpt>
      <trkpt lat="45.32184" lon="4.54903">
        <ele>915</ele>
        <time>2026-05-11T12:54:32.000Z</time>
      </trkpt>
      <trkpt lat="45.32183" lon="4.54908">
        <ele>915</ele>
        <time>2026-05-11T12:54:33.000Z</time>
      </trkpt>
      <trkpt lat="45.32183" lon="4.54914">
        <ele>914.79998779297</ele>
        <time>2026-05-11T12:54:34.000Z</time>
      </trkpt>
      <trkpt lat="45.32183" lon="4.54921">
        <ele>914.79998779297</ele>
        <time>2026-05-11T12:54:35.000Z</time>
      </trkpt>
      <trkpt lat="45.32183" lon="4.54928">
        <ele>914.59997558594</ele>
        <time>2026-05-11T12:54:36.000Z</time>
      </trkpt>
      <trkpt lat="45.32183" lon="4.54935">
        <ele>914.40002441406</ele>
        <time>2026-05-11T12:54:37.000Z</time>
      </trkpt>
      <trkpt lat="45.32184" lon="4.54942">
        <ele>914.20001220703</ele>
        <time>2026-05-11T12:54:38.000Z</time>
      </trkpt>
      <trkpt lat="45.32185" lon="4.54948">
        <ele>914.20001220703</ele>
        <time>2026-05-11T12:54:39.000Z</time>
      </trkpt>
      <trkpt lat="45.32186" lon="4.54954">
        <ele>914</ele>
        <time>2026-05-11T12:54:40.000Z</time>
      </trkpt>
      <trkpt lat="45.32187" lon="4.54961">
        <ele>914</ele>
        <time>2026-05-11T12:54:41.000Z</time>
      </trkpt>
      <trkpt lat="45.32189" lon="4.54967">
        <ele>913.79998779297</ele>
        <time>2026-05-11T12:54:42.000Z</time>
      </trkpt>
      <trkpt lat="45.3219" lon="4.54973">
        <ele>913.79998779297</ele>
        <time>2026-05-11T12:54:43.000Z</time>
      </trkpt>
      <trkpt lat="45.32191" lon="4.54979">
        <ele>913.59997558594</ele>
        <time>2026-05-11T12:54:44.000Z</time>
      </trkpt>
      <trkpt lat="45.32191" lon="4.54985">
        <ele>913.59997558594</ele>
        <time>2026-05-11T12:54:45.000Z</time>
      </trkpt>
      <trkpt lat="45.32193" lon="4.54991">
        <ele>913.40002441406</ele>
        <time>2026-05-11T12:54:46.000Z</time>
      </trkpt>
      <trkpt lat="45.32194" lon="4.54998">
        <ele>913.40002441406</ele>
        <time>2026-05-11T12:54:47.000Z</time>
      </trkpt>
      <trkpt lat="45.32195" lon="4.55005">
        <ele>913.20001220703</ele>
        <time>2026-05-11T12:54:48.000Z</time>
      </trkpt>
      <trkpt lat="45.32196" lon="4.55012">
        <ele>913</ele>
        <time>2026-05-11T12:54:49.000Z</time>
      </trkpt>
      <trkpt lat="45.32197" lon="4.55019">
        <ele>913</ele>
        <time>2026-05-11T12:54:50.000Z</time>
      </trkpt>
      <trkpt lat="45.32197" lon="4.55027">
        <ele>912.79998779297</ele>
        <time>2026-05-11T12:54:51.000Z</time>
      </trkpt>
      <trkpt lat="45.32198" lon="4.55035">
        <ele>912.59997558594</ele>
        <time>2026-05-11T12:54:52.000Z</time>
      </trkpt>
      <trkpt lat="45.32197" lon="4.55043">
        <ele>912.40002441406</ele>
        <time>2026-05-11T12:54:53.000Z</time>
      </trkpt>
      <trkpt lat="45.32196" lon="4.55051">
        <ele>912.20001220703</ele>
        <time>2026-05-11T12:54:54.000Z</time>
      </trkpt>
      <trkpt lat="45.32194" lon="4.55059">
        <ele>912</ele>
        <time>2026-05-11T12:54:55.000Z</time>
      </trkpt>
      <trkpt lat="45.32192" lon="4.55067">
        <ele>911.79998779297</ele>
        <time>2026-05-11T12:54:56.000Z</time>
      </trkpt>
      <trkpt lat="45.32191" lon="4.55075">
        <ele>911.59997558594</ele>
        <time>2026-05-11T12:54:57.000Z</time>
      </trkpt>
      <trkpt lat="45.32189" lon="4.55083">
        <ele>911.40002441406</ele>
        <time>2026-05-11T12:54:58.000Z</time>
      </trkpt>
      <trkpt lat="45.32189" lon="4.55089">
        <ele>911.40002441406</ele>
        <time>2026-05-11T12:54:59.000Z</time>
      </trkpt>
      <trkpt lat="45.32189" lon="4.55095">
        <ele>911.40002441406</ele>
        <time>2026-05-11T12:55:00.000Z</time>
      </trkpt>
      <trkpt lat="45.32189" lon="4.55099">
        <ele>911.59997558594</ele>
        <time>2026-05-11T12:55:01.000Z</time>
      </trkpt>
      <trkpt lat="45.3219" lon="4.55103">
        <ele>911.59997558594</ele>
        <time>2026-05-11T12:55:02.000Z</time>
      </trkpt>
      <trkpt lat="45.3219" lon="4.55107">
        <ele>911.79998779297</ele>
        <time>2026-05-11T12:55:03.000Z</time>
      </trkpt>
      <trkpt lat="45.32191" lon="4.5511">
        <ele>912</ele>
        <time>2026-05-11T12:55:04.000Z</time>
      </trkpt>
      <trkpt lat="45.32191" lon="4.55114">
        <ele>912.20001220703</ele>
        <time>2026-05-11T12:55:05.000Z</time>
      </trkpt>
      <trkpt lat="45.32192" lon="4.55118">
        <ele>912.59997558594</ele>
        <time>2026-05-11T12:55:06.000Z</time>
      </trkpt>
      <trkpt lat="45.32193" lon="4.55121">
        <ele>912.79998779297</ele>
        <time>2026-05-11T12:55:07.000Z</time>
      </trkpt>
      <trkpt lat="45.32193" lon="4.55125">
        <ele>912.79998779297</ele>
        <time>2026-05-11T12:55:08.000Z</time>
      </trkpt>
      <trkpt lat="45.32194" lon="4.55129">
        <ele>913</ele>
        <time>2026-05-11T12:55:09.000Z</time>
      </trkpt>
      <trkpt lat="45.32195" lon="4.55134">
        <ele>913</ele>
        <time>2026-05-11T12:55:10.000Z</time>
      </trkpt>
      <trkpt lat="45.32196" lon="4.55138">
        <ele>913.20001220703</ele>
        <time>2026-05-11T12:55:11.000Z</time>
      </trkpt>
      <trkpt lat="45.32198" lon="4.55143">
        <ele>913.20001220703</ele>
        <time>2026-05-11T12:55:12.000Z</time>
      </trkpt>
      <trkpt lat="45.322" lon="4.55146">
        <ele>913.20001220703</ele>
        <time>2026-05-11T12:55:13.000Z</time>
      </trkpt>
      <trkpt lat="45.32202" lon="4.5515">
        <ele>913.40002441406</ele>
        <time>2026-05-11T12:55:14.000Z</time>
      </trkpt>
      <trkpt lat="45.32205" lon="4.55154">
        <ele>913.40002441406</ele>
        <time>2026-05-11T12:55:15.000Z</time>
      </trkpt>
      <trkpt lat="45.32208" lon="4.55157">
        <ele>913.20001220703</ele>
        <time>2026-05-11T12:55:16.000Z</time>
      </trkpt>
      <trkpt lat="45.32211" lon="4.55161">
        <ele>913.20001220703</ele>
        <time>2026-05-11T12:55:17.000Z</time>
      </trkpt>
      <trkpt lat="45.32214" lon="4.55165">
        <ele>913.20001220703</ele>
        <time>2026-05-11T12:55:18.000Z</time>
      </trkpt>
      <trkpt lat="45.32217" lon="4.55168">
        <ele>913.20001220703</ele>
        <time>2026-05-11T12:55:19.000Z</time>
      </trkpt>
      <trkpt lat="45.32221" lon="4.55171">
        <ele>913</ele>
        <time>2026-05-11T12:55:20.000Z</time>
      </trkpt>
      <trkpt lat="45.32224" lon="4.55174">
        <ele>913</ele>
        <time>2026-05-11T12:55:21.000Z</time>
      </trkpt>
      <trkpt lat="45.32227" lon="4.55177">
        <ele>913</ele>
        <time>2026-05-11T12:55:22.000Z</time>
      </trkpt>
      <trkpt lat="45.32231" lon="4.55179">
        <ele>912.79998779297</ele>
        <time>2026-05-11T12:55:23.000Z</time>
      </trkpt>
      <trkpt lat="45.32234" lon="4.55182">
        <ele>912.79998779297</ele>
        <time>2026-05-11T12:55:24.000Z</time>
      </trkpt>
      <trkpt lat="45.32237" lon="4.55185">
        <ele>912.59997558594</ele>
        <time>2026-05-11T12:55:25.000Z</time>
      </trkpt>
      <trkpt lat="45.3224" lon="4.55188">
        <ele>912.40002441406</ele>
        <time>2026-05-11T12:55:26.000Z</time>
      </trkpt>
      <trkpt lat="45.32244" lon="4.55191">
        <ele>912.40002441406</ele>
        <time>2026-05-11T12:55:27.000Z</time>
      </trkpt>
      <trkpt lat="45.32248" lon="4.55194">
        <ele>912.20001220703</ele>
        <time>2026-05-11T12:55:28.000Z</time>
      </trkpt>
      <trkpt lat="45.32252" lon="4.55196">
        <ele>912</ele>
        <time>2026-05-11T12:55:29.000Z</time>
      </trkpt>
      <trkpt lat="45.32257" lon="4.55199">
        <ele>911.79998779297</ele>
        <time>2026-05-11T12:55:30.000Z</time>
      </trkpt>
      <trkpt lat="45.32262" lon="4.55202">
        <ele>911.59997558594</ele>
        <time>2026-05-11T12:55:31.000Z</time>
      </trkpt>
      <trkpt lat="45.32266" lon="4.55205">
        <ele>911.40002441406</ele>
        <time>2026-05-11T12:55:32.000Z</time>
      </trkpt>
      <trkpt lat="45.32272" lon="4.55207">
        <ele>911</ele>
        <time>2026-05-11T12:55:33.000Z</time>
      </trkpt>
      <trkpt lat="45.32277" lon="4.5521">
        <ele>910.59997558594</ele>
        <time>2026-05-11T12:55:34.000Z</time>
      </trkpt>
      <trkpt lat="45.32282" lon="4.55213">
        <ele>910.40002441406</ele>
        <time>2026-05-11T12:55:35.000Z</time>
      </trkpt>
      <trkpt lat="45.32287" lon="4.55217">
        <ele>910</ele>
        <time>2026-05-11T12:55:36.000Z</time>
      </trkpt>
      <trkpt lat="45.32293" lon="4.5522">
        <ele>909.59997558594</ele>
        <time>2026-05-11T12:55:37.000Z</time>
      </trkpt>
      <trkpt lat="45.32299" lon="4.55224">
        <ele>909.20001220703</ele>
        <time>2026-05-11T12:55:38.000Z</time>
      </trkpt>
      <trkpt lat="45.32305" lon="4.55229">
        <ele>908.79998779297</ele>
        <time>2026-05-11T12:55:39.000Z</time>
      </trkpt>
      <trkpt lat="45.32311" lon="4.55233">
        <ele>908.40002441406</ele>
        <time>2026-05-11T12:55:40.000Z</time>
      </trkpt>
      <trkpt lat="45.32318" lon="4.55238">
        <ele>908</ele>
        <time>2026-05-11T12:55:41.000Z</time>
      </trkpt>
      <trkpt lat="45.32324" lon="4.55242">
        <ele>907.40002441406</ele>
        <time>2026-05-11T12:55:42.000Z</time>
      </trkpt>
      <trkpt lat="45.32331" lon="4.55247">
        <ele>907</ele>
        <time>2026-05-11T12:55:43.000Z</time>
      </trkpt>
      <trkpt lat="45.32337" lon="4.55251">
        <ele>906.59997558594</ele>
        <time>2026-05-11T12:55:44.000Z</time>
      </trkpt>
      <trkpt lat="45.32344" lon="4.55255">
        <ele>906.20001220703</ele>
        <time>2026-05-11T12:55:45.000Z</time>
      </trkpt>
      <trkpt lat="45.32351" lon="4.5526">
        <ele>905.59997558594</ele>
        <time>2026-05-11T12:55:46.000Z</time>
      </trkpt>
      <trkpt lat="45.32358" lon="4.55265">
        <ele>905.20001220703</ele>
        <time>2026-05-11T12:55:47.000Z</time>
      </trkpt>
      <trkpt lat="45.32365" lon="4.5527">
        <ele>904.59997558594</ele>
        <time>2026-05-11T12:55:48.000Z</time>
      </trkpt>
      <trkpt lat="45.32371" lon="4.55275">
        <ele>904.20001220703</ele>
        <time>2026-05-11T12:55:49.000Z</time>
      </trkpt>
      <trkpt lat="45.32378" lon="4.55279">
        <ele>903.79998779297</ele>
        <time>2026-05-11T12:55:50.000Z</time>
      </trkpt>
      <trkpt lat="45.32384" lon="4.55283">
        <ele>903</ele>
        <time>2026-05-11T12:55:51.000Z</time>
      </trkpt>
      <trkpt lat="45.32391" lon="4.55288">
        <ele>902.59997558594</ele>
        <time>2026-05-11T12:55:52.000Z</time>
      </trkpt>
      <trkpt lat="45.32397" lon="4.55293">
        <ele>902</ele>
        <time>2026-05-11T12:55:53.000Z</time>
      </trkpt>
      <trkpt lat="45.32403" lon="4.55298">
        <ele>901.59997558594</ele>
        <time>2026-05-11T12:55:54.000Z</time>
      </trkpt>
      <trkpt lat="45.32409" lon="4.55303">
        <ele>901</ele>
        <time>2026-05-11T12:55:55.000Z</time>
      </trkpt>
      <trkpt lat="45.32415" lon="4.55309">
        <ele>900.40002441406</ele>
        <time>2026-05-11T12:55:56.000Z</time>
      </trkpt>
      <trkpt lat="45.32421" lon="4.55316">
        <ele>899.59997558594</ele>
        <time>2026-05-11T12:55:57.000Z</time>
      </trkpt>
      <trkpt lat="45.32426" lon="4.55323">
        <ele>899</ele>
        <time>2026-05-11T12:55:58.000Z</time>
      </trkpt>
      <trkpt lat="45.32432" lon="4.5533">
        <ele>898.40002441406</ele>
        <time>2026-05-11T12:55:59.000Z</time>
      </trkpt>
      <trkpt lat="45.32437" lon="4.55337">
        <ele>897.59997558594</ele>
        <time>2026-05-11T12:56:00.000Z</time>
      </trkpt>
      <trkpt lat="45.32442" lon="4.55345">
        <ele>897</ele>
        <time>2026-05-11T12:56:01.000Z</time>
      </trkpt>
      <trkpt lat="45.32446" lon="4.55352">
        <ele>896.40002441406</ele>
        <time>2026-05-11T12:56:02.000Z</time>
      </trkpt>
      <trkpt lat="45.3245" lon="4.55359">
        <ele>895.79998779297</ele>
        <time>2026-05-11T12:56:03.000Z</time>
      </trkpt>
      <trkpt lat="45.32455" lon="4.55367">
        <ele>895.20001220703</ele>
        <time>2026-05-11T12:56:04.000Z</time>
      </trkpt>
      <trkpt lat="45.3246" lon="4.55374">
        <ele>894.59997558594</ele>
        <time>2026-05-11T12:56:05.000Z</time>
      </trkpt>
      <trkpt lat="45.32465" lon="4.55382">
        <ele>894</ele>
        <time>2026-05-11T12:56:06.000Z</time>
      </trkpt>
      <trkpt lat="45.3247" lon="4.5539">
        <ele>893.40002441406</ele>
        <time>2026-05-11T12:56:07.000Z</time>
      </trkpt>
      <trkpt lat="45.32474" lon="4.55398">
        <ele>892.79998779297</ele>
        <time>2026-05-11T12:56:08.000Z</time>
      </trkpt>
      <trkpt lat="45.32478" lon="4.55406">
        <ele>892.20001220703</ele>
        <time>2026-05-11T12:56:09.000Z</time>
      </trkpt>
      <trkpt lat="45.32481" lon="4.55414">
        <ele>891.59997558594</ele>
        <time>2026-05-11T12:56:10.000Z</time>
      </trkpt>
      <trkpt lat="45.32484" lon="4.55422">
        <ele>891.20001220703</ele>
        <time>2026-05-11T12:56:11.000Z</time>
      </trkpt>
      <trkpt lat="45.32486" lon="4.5543">
        <ele>890.59997558594</ele>
        <time>2026-05-11T12:56:12.000Z</time>
      </trkpt>
      <trkpt lat="45.32489" lon="4.55437">
        <ele>890.20001220703</ele>
        <time>2026-05-11T12:56:13.000Z</time>
      </trkpt>
      <trkpt lat="45.32491" lon="4.55445">
        <ele>889.59997558594</ele>
        <time>2026-05-11T12:56:14.000Z</time>
      </trkpt>
      <trkpt lat="45.32493" lon="4.55453">
        <ele>889</ele>
        <time>2026-05-11T12:56:15.000Z</time>
      </trkpt>
      <trkpt lat="45.32495" lon="4.55463">
        <ele>888.59997558594</ele>
        <time>2026-05-11T12:56:16.000Z</time>
      </trkpt>
      <trkpt lat="45.32496" lon="4.55472">
        <ele>888</ele>
        <time>2026-05-11T12:56:17.000Z</time>
      </trkpt>
      <trkpt lat="45.32498" lon="4.55481">
        <ele>887.40002441406</ele>
        <time>2026-05-11T12:56:18.000Z</time>
      </trkpt>
      <trkpt lat="45.32499" lon="4.5549">
        <ele>886.79998779297</ele>
        <time>2026-05-11T12:56:19.000Z</time>
      </trkpt>
      <trkpt lat="45.32501" lon="4.555">
        <ele>886</ele>
        <time>2026-05-11T12:56:20.000Z</time>
      </trkpt>
      <trkpt lat="45.32504" lon="4.55509">
        <ele>885.40002441406</ele>
        <time>2026-05-11T12:56:21.000Z</time>
      </trkpt>
      <trkpt lat="45.32508" lon="4.55517">
        <ele>884.79998779297</ele>
        <time>2026-05-11T12:56:22.000Z</time>
      </trkpt>
      <trkpt lat="45.32511" lon="4.55526">
        <ele>884.20001220703</ele>
        <time>2026-05-11T12:56:23.000Z</time>
      </trkpt>
      <trkpt lat="45.32515" lon="4.55535">
        <ele>883.59997558594</ele>
        <time>2026-05-11T12:56:24.000Z</time>
      </trkpt>
      <trkpt lat="45.32518" lon="4.55544">
        <ele>883</ele>
        <time>2026-05-11T12:56:25.000Z</time>
      </trkpt>
      <trkpt lat="45.32521" lon="4.55552">
        <ele>882.40002441406</ele>
        <time>2026-05-11T12:56:26.000Z</time>
      </trkpt>
      <trkpt lat="45.32524" lon="4.55559">
        <ele>881.79998779297</ele>
        <time>2026-05-11T12:56:27.000Z</time>
      </trkpt>
      <trkpt lat="45.32527" lon="4.55567">
        <ele>881.20001220703</ele>
        <time>2026-05-11T12:56:28.000Z</time>
      </trkpt>
      <trkpt lat="45.32531" lon="4.55573">
        <ele>880.59997558594</ele>
        <time>2026-05-11T12:56:29.000Z</time>
      </trkpt>
      <trkpt lat="45.32536" lon="4.55578">
        <ele>880</ele>
        <time>2026-05-11T12:56:30.000Z</time>
      </trkpt>
      <trkpt lat="45.32542" lon="4.55581">
        <ele>879.40002441406</ele>
        <time>2026-05-11T12:56:31.000Z</time>
      </trkpt>
      <trkpt lat="45.32547" lon="4.55583">
        <ele>878.59997558594</ele>
        <time>2026-05-11T12:56:32.000Z</time>
      </trkpt>
      <trkpt lat="45.32553" lon="4.55584">
        <ele>878</ele>
        <time>2026-05-11T12:56:33.000Z</time>
      </trkpt>
      <trkpt lat="45.32559" lon="4.55584">
        <ele>877.59997558594</ele>
        <time>2026-05-11T12:56:34.000Z</time>
      </trkpt>
      <trkpt lat="45.32563" lon="4.55583">
        <ele>877.20001220703</ele>
        <time>2026-05-11T12:56:35.000Z</time>
      </trkpt>
      <trkpt lat="45.32568" lon="4.55582">
        <ele>876.59997558594</ele>
        <time>2026-05-11T12:56:36.000Z</time>
      </trkpt>
      <trkpt lat="45.32573" lon="4.5558">
        <ele>876.20001220703</ele>
        <time>2026-05-11T12:56:37.000Z</time>
      </trkpt>
      <trkpt lat="45.32577" lon="4.55579">
        <ele>875.79998779297</ele>
        <time>2026-05-11T12:56:38.000Z</time>
      </trkpt>
      <trkpt lat="45.3258" lon="4.55576">
        <ele>875.40002441406</ele>
        <time>2026-05-11T12:56:39.000Z</time>
      </trkpt>
      <trkpt lat="45.32583" lon="4.55574">
        <ele>875</ele>
        <time>2026-05-11T12:56:40.000Z</time>
      </trkpt>
      <trkpt lat="45.32586" lon="4.55572">
        <ele>874.59997558594</ele>
        <time>2026-05-11T12:56:41.000Z</time>
      </trkpt>
      <trkpt lat="45.32588" lon="4.55572">
        <ele>874.20001220703</ele>
        <time>2026-05-11T12:56:42.000Z</time>
      </trkpt>
      <trkpt lat="45.32591" lon="4.55574">
        <ele>873.79998779297</ele>
        <time>2026-05-11T12:56:43.000Z</time>
      </trkpt>
      <trkpt lat="45.32592" lon="4.55577">
        <ele>873.59997558594</ele>
        <time>2026-05-11T12:56:44.000Z</time>
      </trkpt>
      <trkpt lat="45.32592" lon="4.5558">
        <ele>873.20001220703</ele>
        <time>2026-05-11T12:56:45.000Z</time>
      </trkpt>
      <trkpt lat="45.32591" lon="4.55583">
        <ele>873</ele>
        <time>2026-05-11T12:56:46.000Z</time>
      </trkpt>
      <trkpt lat="45.32589" lon="4.55584">
        <ele>872.59997558594</ele>
        <time>2026-05-11T12:56:47.000Z</time>
      </trkpt>
      <trkpt lat="45.32588" lon="4.55585">
        <ele>872.20001220703</ele>
        <time>2026-05-11T12:56:48.000Z</time>
      </trkpt>
      <trkpt lat="45.32586" lon="4.55586">
        <ele>872</ele>
        <time>2026-05-11T12:56:49.000Z</time>
      </trkpt>
      <trkpt lat="45.32585" lon="4.55587">
        <ele>871.79998779297</ele>
        <time>2026-05-11T12:56:50.000Z</time>
      </trkpt>
      <trkpt lat="45.32583" lon="4.55589">
        <ele>871.59997558594</ele>
        <time>2026-05-11T12:56:51.000Z</time>
      </trkpt>
      <trkpt lat="45.32582" lon="4.55591">
        <ele>871.40002441406</ele>
        <time>2026-05-11T12:56:52.000Z</time>
      </trkpt>
      <trkpt lat="45.3258" lon="4.55593">
        <ele>871.20001220703</ele>
        <time>2026-05-11T12:56:53.000Z</time>
      </trkpt>
      <trkpt lat="45.32577" lon="4.55595">
        <ele>871</ele>
        <time>2026-05-11T12:56:54.000Z</time>
      </trkpt>
      <trkpt lat="45.32575" lon="4.55597">
        <ele>871</ele>
        <time>2026-05-11T12:56:55.000Z</time>
      </trkpt>
      <trkpt lat="45.32572" lon="4.55598">
        <ele>870.79998779297</ele>
        <time>2026-05-11T12:56:56.000Z</time>
      </trkpt>
      <trkpt lat="45.3257" lon="4.556">
        <ele>870.59997558594</ele>
        <time>2026-05-11T12:56:57.000Z</time>
      </trkpt>
      <trkpt lat="45.32567" lon="4.55602">
        <ele>870.40002441406</ele>
        <time>2026-05-11T12:56:58.000Z</time>
      </trkpt>
      <trkpt lat="45.32565" lon="4.55604">
        <ele>870.20001220703</ele>
        <time>2026-05-11T12:56:59.000Z</time>
      </trkpt>
      <trkpt lat="45.32562" lon="4.55607">
        <ele>870</ele>
        <time>2026-05-11T12:57:00.000Z</time>
      </trkpt>
      <trkpt lat="45.32559" lon="4.5561">
        <ele>869.59997558594</ele>
        <time>2026-05-11T12:57:01.000Z</time>
      </trkpt>
      <trkpt lat="45.32556" lon="4.55613">
        <ele>869.40002441406</ele>
        <time>2026-05-11T12:57:02.000Z</time>
      </trkpt>
      <trkpt lat="45.32552" lon="4.55615">
        <ele>869.20001220703</ele>
        <time>2026-05-11T12:57:03.000Z</time>
      </trkpt>
      <trkpt lat="45.32548" lon="4.55616">
        <ele>869</ele>
        <time>2026-05-11T12:57:04.000Z</time>
      </trkpt>
      <trkpt lat="45.32544" lon="4.55616">
        <ele>868.79998779297</ele>
        <time>2026-05-11T12:57:05.000Z</time>
      </trkpt>
      <trkpt lat="45.32541" lon="4.55615">
        <ele>868.40002441406</ele>
        <time>2026-05-11T12:57:06.000Z</time>
      </trkpt>
      <trkpt lat="45.32539" lon="4.55615">
        <ele>868.40002441406</ele>
        <time>2026-05-11T12:57:07.000Z</time>
      </trkpt>
      <trkpt lat="45.32538" lon="4.55615">
        <ele>868.20001220703</ele>
        <time>2026-05-11T12:57:08.000Z</time>
      </trkpt>
      <trkpt lat="45.32537" lon="4.55614">
        <ele>868</ele>
        <time>2026-05-11T12:57:09.000Z</time>
      </trkpt>
      <trkpt lat="45.32537" lon="4.55614">
        <ele>868</ele>
        <time>2026-05-11T12:57:10.000Z</time>
      </trkpt>
      <trkpt lat="45.32537" lon="4.55614">
        <ele>868</ele>
        <time>2026-05-11T12:57:11.000Z</time>
      </trkpt>
      <trkpt lat="45.32537" lon="4.55605">
        <ele>867.59997558594</ele>
        <time>2026-05-11T13:00:59.000Z</time>
      </trkpt>
      <trkpt lat="45.32535" lon="4.55603">
        <ele>867.40002441406</ele>
        <time>2026-05-11T13:01:00.000Z</time>
      </trkpt>
      <trkpt lat="45.32533" lon="4.55602">
        <ele>867.20001220703</ele>
        <time>2026-05-11T13:01:01.000Z</time>
      </trkpt>
      <trkpt lat="45.32531" lon="4.556">
        <ele>867.20001220703</ele>
        <time>2026-05-11T13:01:02.000Z</time>
      </trkpt>
      <trkpt lat="45.32529" lon="4.55598">
        <ele>867</ele>
        <time>2026-05-11T13:01:03.000Z</time>
      </trkpt>
      <trkpt lat="45.32526" lon="4.55597">
        <ele>867</ele>
        <time>2026-05-11T13:01:04.000Z</time>
      </trkpt>
      <trkpt lat="45.32523" lon="4.55595">
        <ele>866.79998779297</ele>
        <time>2026-05-11T13:01:05.000Z</time>
      </trkpt>
      <trkpt lat="45.3252" lon="4.55592">
        <ele>866.79998779297</ele>
        <time>2026-05-11T13:01:06.000Z</time>
      </trkpt>
      <trkpt lat="45.32517" lon="4.55589">
        <ele>866.59997558594</ele>
        <time>2026-05-11T13:01:07.000Z</time>
      </trkpt>
      <trkpt lat="45.32513" lon="4.55587">
        <ele>866.59997558594</ele>
        <time>2026-05-11T13:01:08.000Z</time>
      </trkpt>
      <trkpt lat="45.3251" lon="4.55584">
        <ele>866.59997558594</ele>
        <time>2026-05-11T13:01:09.000Z</time>
      </trkpt>
      <trkpt lat="45.32507" lon="4.5558">
        <ele>866.40002441406</ele>
        <time>2026-05-11T13:01:10.000Z</time>
      </trkpt>
      <trkpt lat="45.32503" lon="4.55575">
        <ele>866.40002441406</ele>
        <time>2026-05-11T13:01:11.000Z</time>
      </trkpt>
      <trkpt lat="45.32499" lon="4.5557">
        <ele>866.20001220703</ele>
        <time>2026-05-11T13:01:12.000Z</time>
      </trkpt>
      <trkpt lat="45.32496" lon="4.55565">
        <ele>866</ele>
        <time>2026-05-11T13:01:13.000Z</time>
      </trkpt>
      <trkpt lat="45.32492" lon="4.55559">
        <ele>865.79998779297</ele>
        <time>2026-05-11T13:01:14.000Z</time>
      </trkpt>
      <trkpt lat="45.32488" lon="4.55553">
        <ele>865.59997558594</ele>
        <time>2026-05-11T13:01:15.000Z</time>
      </trkpt>
      <trkpt lat="45.32484" lon="4.55546">
        <ele>865.20001220703</ele>
        <time>2026-05-11T13:01:16.000Z</time>
      </trkpt>
      <trkpt lat="45.32479" lon="4.55539">
        <ele>864.79998779297</ele>
        <time>2026-05-11T13:01:17.000Z</time>
      </trkpt>
      <trkpt lat="45.32473" lon="4.55532">
        <ele>864.40002441406</ele>
        <time>2026-05-11T13:01:18.000Z</time>
      </trkpt>
      <trkpt lat="45.32467" lon="4.55525">
        <ele>864</ele>
        <time>2026-05-11T13:01:19.000Z</time>
      </trkpt>
      <trkpt lat="45.32461" lon="4.55519">
        <ele>863.59997558594</ele>
        <time>2026-05-11T13:01:20.000Z</time>
      </trkpt>
      <trkpt lat="45.32454" lon="4.55513">
        <ele>863.20001220703</ele>
        <time>2026-05-11T13:01:21.000Z</time>
      </trkpt>
      <trkpt lat="45.32448" lon="4.55508">
        <ele>862.79998779297</ele>
        <time>2026-05-11T13:01:22.000Z</time>
      </trkpt>
      <trkpt lat="45.32441" lon="4.55502">
        <ele>862.40002441406</ele>
        <time>2026-05-11T13:01:23.000Z</time>
      </trkpt>
      <trkpt lat="45.32435" lon="4.55496">
        <ele>862</ele>
        <time>2026-05-11T13:01:24.000Z</time>
      </trkpt>
      <trkpt lat="45.32428" lon="4.55489">
        <ele>861.59997558594</ele>
        <time>2026-05-11T13:01:25.000Z</time>
      </trkpt>
      <trkpt lat="45.3242" lon="4.55483">
        <ele>861</ele>
        <time>2026-05-11T13:01:26.000Z</time>
      </trkpt>
      <trkpt lat="45.32413" lon="4.55477">
        <ele>860.59997558594</ele>
        <time>2026-05-11T13:01:27.000Z</time>
      </trkpt>
      <trkpt lat="45.32405" lon="4.55471">
        <ele>860</ele>
        <time>2026-05-11T13:01:28.000Z</time>
      </trkpt>
      <trkpt lat="45.32397" lon="4.55464">
        <ele>859.40002441406</ele>
        <time>2026-05-11T13:01:29.000Z</time>
      </trkpt>
      <trkpt lat="45.32389" lon="4.55459">
        <ele>859</ele>
        <time>2026-05-11T13:01:30.000Z</time>
      </trkpt>
      <trkpt lat="45.32381" lon="4.55453">
        <ele>858.40002441406</ele>
        <time>2026-05-11T13:01:31.000Z</time>
      </trkpt>
      <trkpt lat="45.32374" lon="4.55447">
        <ele>858</ele>
        <time>2026-05-11T13:01:32.000Z</time>
      </trkpt>
      <trkpt lat="45.32366" lon="4.55443">
        <ele>857.40002441406</ele>
        <time>2026-05-11T13:01:33.000Z</time>
      </trkpt>
      <trkpt lat="45.32358" lon="4.5544">
        <ele>857</ele>
        <time>2026-05-11T13:01:34.000Z</time>
      </trkpt>
      <trkpt lat="45.3235" lon="4.55437">
        <ele>856.40002441406</ele>
        <time>2026-05-11T13:01:35.000Z</time>
      </trkpt>
      <trkpt lat="45.32342" lon="4.55436">
        <ele>856</ele>
        <time>2026-05-11T13:01:36.000Z</time>
      </trkpt>
      <trkpt lat="45.32334" lon="4.55435">
        <ele>855.59997558594</ele>
        <time>2026-05-11T13:01:37.000Z</time>
      </trkpt>
      <trkpt lat="45.32325" lon="4.55436">
        <ele>855.20001220703</ele>
        <time>2026-05-11T13:01:38.000Z</time>
      </trkpt>
      <trkpt lat="45.32316" lon="4.55438">
        <ele>854.59997558594</ele>
        <time>2026-05-11T13:01:39.000Z</time>
      </trkpt>
      <trkpt lat="45.32308" lon="4.55441">
        <ele>854</ele>
        <time>2026-05-11T13:01:40.000Z</time>
      </trkpt>
      <trkpt lat="45.32299" lon="4.55445">
        <ele>853.40002441406</ele>
        <time>2026-05-11T13:01:41.000Z</time>
      </trkpt>
      <trkpt lat="45.32292" lon="4.55451">
        <ele>852.79998779297</ele>
        <time>2026-05-11T13:01:42.000Z</time>
      </trkpt>
      <trkpt lat="45.32285" lon="4.55458">
        <ele>852.20001220703</ele>
        <time>2026-05-11T13:01:43.000Z</time>
      </trkpt>
      <trkpt lat="45.32279" lon="4.55466">
        <ele>851.79998779297</ele>
        <time>2026-05-11T13:01:44.000Z</time>
      </trkpt>
      <trkpt lat="45.32274" lon="4.55475">
        <ele>851.20001220703</ele>
        <time>2026-05-11T13:01:45.000Z</time>
      </trkpt>
      <trkpt lat="45.32268" lon="4.55485">
        <ele>850.59997558594</ele>
        <time>2026-05-11T13:01:46.000Z</time>
      </trkpt>
      <trkpt lat="45.32263" lon="4.55494">
        <ele>850.20001220703</ele>
        <time>2026-05-11T13:01:47.000Z</time>
      </trkpt>
      <trkpt lat="45.32258" lon="4.55504">
        <ele>849.59997558594</ele>
        <time>2026-05-11T13:01:48.000Z</time>
      </trkpt>
      <trkpt lat="45.32254" lon="4.55513">
        <ele>849.20001220703</ele>
        <time>2026-05-11T13:01:49.000Z</time>
      </trkpt>
      <trkpt lat="45.32251" lon="4.55524">
        <ele>848.59997558594</ele>
        <time>2026-05-11T13:01:50.000Z</time>
      </trkpt>
      <trkpt lat="45.32248" lon="4.55534">
        <ele>848.20001220703</ele>
        <time>2026-05-11T13:01:51.000Z</time>
      </trkpt>
      <trkpt lat="45.32245" lon="4.55543">
        <ele>847.40002441406</ele>
        <time>2026-05-11T13:01:52.000Z</time>
      </trkpt>
      <trkpt lat="45.32243" lon="4.55553">
        <ele>847</ele>
        <time>2026-05-11T13:01:53.000Z</time>
      </trkpt>
      <trkpt lat="45.32241" lon="4.55564">
        <ele>846.40002441406</ele>
        <time>2026-05-11T13:01:54.000Z</time>
      </trkpt>
      <trkpt lat="45.32239" lon="4.55575">
        <ele>845.79998779297</ele>
        <time>2026-05-11T13:01:55.000Z</time>
      </trkpt>
      <trkpt lat="45.32238" lon="4.55586">
        <ele>845.20001220703</ele>
        <time>2026-05-11T13:01:56.000Z</time>
      </trkpt>
      <trkpt lat="45.32238" lon="4.55597">
        <ele>844.79998779297</ele>
        <time>2026-05-11T13:01:57.000Z</time>
      </trkpt>
      <trkpt lat="45.32238" lon="4.55607">
        <ele>844</ele>
        <time>2026-05-11T13:01:58.000Z</time>
      </trkpt>
      <trkpt lat="45.32239" lon="4.55618">
        <ele>843.40002441406</ele>
        <time>2026-05-11T13:01:59.000Z</time>
      </trkpt>
      <trkpt lat="45.3224" lon="4.55629">
        <ele>843</ele>
        <time>2026-05-11T13:02:00.000Z</time>
      </trkpt>
      <trkpt lat="45.32242" lon="4.55641">
        <ele>842.40002441406</ele>
        <time>2026-05-11T13:02:01.000Z</time>
      </trkpt>
      <trkpt lat="45.32244" lon="4.55652">
        <ele>841.79998779297</ele>
        <time>2026-05-11T13:02:02.000Z</time>
      </trkpt>
      <trkpt lat="45.32245" lon="4.55665">
        <ele>841.40002441406</ele>
        <time>2026-05-11T13:02:03.000Z</time>
      </trkpt>
      <trkpt lat="45.32247" lon="4.55678">
        <ele>840.59997558594</ele>
        <time>2026-05-11T13:02:04.000Z</time>
      </trkpt>
      <trkpt lat="45.32249" lon="4.55689">
        <ele>840.20001220703</ele>
        <time>2026-05-11T13:02:05.000Z</time>
      </trkpt>
      <trkpt lat="45.32252" lon="4.557">
        <ele>839.59997558594</ele>
        <time>2026-05-11T13:02:06.000Z</time>
      </trkpt>
      <trkpt lat="45.32254" lon="4.5571">
        <ele>839</ele>
        <time>2026-05-11T13:02:07.000Z</time>
      </trkpt>
      <trkpt lat="45.32255" lon="4.55719">
        <ele>838.59997558594</ele>
        <time>2026-05-11T13:02:08.000Z</time>
      </trkpt>
      <trkpt lat="45.32254" lon="4.55729">
        <ele>838</ele>
        <time>2026-05-11T13:02:09.000Z</time>
      </trkpt>
      <trkpt lat="45.32253" lon="4.55738">
        <ele>837.40002441406</ele>
        <time>2026-05-11T13:02:10.000Z</time>
      </trkpt>
      <trkpt lat="45.3225" lon="4.55747">
        <ele>836.79998779297</ele>
        <time>2026-05-11T13:02:11.000Z</time>
      </trkpt>
      <trkpt lat="45.32246" lon="4.55755">
        <ele>836.40002441406</ele>
        <time>2026-05-11T13:02:12.000Z</time>
      </trkpt>
      <trkpt lat="45.3224" lon="4.55763">
        <ele>836</ele>
        <time>2026-05-11T13:02:13.000Z</time>
      </trkpt>
      <trkpt lat="45.32234" lon="4.55767">
        <ele>835.40002441406</ele>
        <time>2026-05-11T13:02:14.000Z</time>
      </trkpt>
      <trkpt lat="45.32227" lon="4.5577">
        <ele>834.79998779297</ele>
        <time>2026-05-11T13:02:15.000Z</time>
      </trkpt>
      <trkpt lat="45.32219" lon="4.55772">
        <ele>834.40002441406</ele>
        <time>2026-05-11T13:02:16.000Z</time>
      </trkpt>
      <trkpt lat="45.32211" lon="4.55773">
        <ele>834</ele>
        <time>2026-05-11T13:02:17.000Z</time>
      </trkpt>
      <trkpt lat="45.32204" lon="4.55772">
        <ele>833.59997558594</ele>
        <time>2026-05-11T13:02:18.000Z</time>
      </trkpt>
      <trkpt lat="45.32196" lon="4.5577">
        <ele>833</ele>
        <time>2026-05-11T13:02:19.000Z</time>
      </trkpt>
      <trkpt lat="45.32189" lon="4.55766">
        <ele>832.59997558594</ele>
        <time>2026-05-11T13:02:20.000Z</time>
      </trkpt>
      <trkpt lat="45.32183" lon="4.55761">
        <ele>832</ele>
        <time>2026-05-11T13:02:21.000Z</time>
      </trkpt>
      <trkpt lat="45.32177" lon="4.55755">
        <ele>831.40002441406</ele>
        <time>2026-05-11T13:02:22.000Z</time>
      </trkpt>
      <trkpt lat="45.32171" lon="4.55747">
        <ele>831</ele>
        <time>2026-05-11T13:02:23.000Z</time>
      </trkpt>
      <trkpt lat="45.32166" lon="4.55739">
        <ele>830.40002441406</ele>
        <time>2026-05-11T13:02:24.000Z</time>
      </trkpt>
      <trkpt lat="45.3216" lon="4.5573">
        <ele>830</ele>
        <time>2026-05-11T13:02:25.000Z</time>
      </trkpt>
      <trkpt lat="45.32154" lon="4.55721">
        <ele>829.40002441406</ele>
        <time>2026-05-11T13:02:26.000Z</time>
      </trkpt>
      <trkpt lat="45.32149" lon="4.55711">
        <ele>828.79998779297</ele>
        <time>2026-05-11T13:02:27.000Z</time>
      </trkpt>
      <trkpt lat="45.32143" lon="4.55702">
        <ele>828.20001220703</ele>
        <time>2026-05-11T13:02:28.000Z</time>
      </trkpt>
      <trkpt lat="45.32137" lon="4.55691">
        <ele>827.79998779297</ele>
        <time>2026-05-11T13:02:29.000Z</time>
      </trkpt>
      <trkpt lat="45.32131" lon="4.5568">
        <ele>827.20001220703</ele>
        <time>2026-05-11T13:02:30.000Z</time>
      </trkpt>
      <trkpt lat="45.32125" lon="4.55669">
        <ele>826.59997558594</ele>
        <time>2026-05-11T13:02:31.000Z</time>
      </trkpt>
      <trkpt lat="45.32119" lon="4.55659">
        <ele>825.79998779297</ele>
        <time>2026-05-11T13:02:32.000Z</time>
      </trkpt>
      <trkpt lat="45.32113" lon="4.55648">
        <ele>825.20001220703</ele>
        <time>2026-05-11T13:02:33.000Z</time>
      </trkpt>
      <trkpt lat="45.32106" lon="4.55638">
        <ele>824.59997558594</ele>
        <time>2026-05-11T13:02:34.000Z</time>
      </trkpt>
      <trkpt lat="45.321" lon="4.5563">
        <ele>824</ele>
        <time>2026-05-11T13:02:35.000Z</time>
      </trkpt>
      <trkpt lat="45.32093" lon="4.55622">
        <ele>823.40002441406</ele>
        <time>2026-05-11T13:02:36.000Z</time>
      </trkpt>
      <trkpt lat="45.32086" lon="4.55616">
        <ele>822.79998779297</ele>
        <time>2026-05-11T13:02:37.000Z</time>
      </trkpt>
      <trkpt lat="45.32078" lon="4.5561">
        <ele>822</ele>
        <time>2026-05-11T13:02:38.000Z</time>
      </trkpt>
      <trkpt lat="45.32071" lon="4.55605">
        <ele>821.59997558594</ele>
        <time>2026-05-11T13:02:39.000Z</time>
      </trkpt>
      <trkpt lat="45.32063" lon="4.55601">
        <ele>821</ele>
        <time>2026-05-11T13:02:40.000Z</time>
      </trkpt>
      <trkpt lat="45.32054" lon="4.55597">
        <ele>820.40002441406</ele>
        <time>2026-05-11T13:02:41.000Z</time>
      </trkpt>
      <trkpt lat="45.32045" lon="4.55594">
        <ele>820</ele>
        <time>2026-05-11T13:02:42.000Z</time>
      </trkpt>
      <trkpt lat="45.32037" lon="4.5559">
        <ele>819.40002441406</ele>
        <time>2026-05-11T13:02:43.000Z</time>
      </trkpt>
      <trkpt lat="45.32028" lon="4.55587">
        <ele>818.79998779297</ele>
        <time>2026-05-11T13:02:44.000Z</time>
      </trkpt>
      <trkpt lat="45.32019" lon="4.55584">
        <ele>818.20001220703</ele>
        <time>2026-05-11T13:02:45.000Z</time>
      </trkpt>
      <trkpt lat="45.32011" lon="4.55581">
        <ele>817.59997558594</ele>
        <time>2026-05-11T13:02:46.000Z</time>
      </trkpt>
      <trkpt lat="45.32003" lon="4.5558">
        <ele>817</ele>
        <time>2026-05-11T13:02:47.000Z</time>
      </trkpt>
      <trkpt lat="45.31994" lon="4.55579">
        <ele>816.59997558594</ele>
        <time>2026-05-11T13:02:48.000Z</time>
      </trkpt>
      <trkpt lat="45.31985" lon="4.5558">
        <ele>816</ele>
        <time>2026-05-11T13:02:49.000Z</time>
      </trkpt>
      <trkpt lat="45.31976" lon="4.55582">
        <ele>815.40002441406</ele>
        <time>2026-05-11T13:02:50.000Z</time>
      </trkpt>
      <trkpt lat="45.31968" lon="4.55585">
        <ele>814.79998779297</ele>
        <time>2026-05-11T13:02:51.000Z</time>
      </trkpt>
      <trkpt lat="45.3196" lon="4.55588">
        <ele>814.40002441406</ele>
        <time>2026-05-11T13:02:52.000Z</time>
      </trkpt>
      <trkpt lat="45.31952" lon="4.55592">
        <ele>813.79998779297</ele>
        <time>2026-05-11T13:02:53.000Z</time>
      </trkpt>
      <trkpt lat="45.31944" lon="4.55595">
        <ele>813.40002441406</ele>
        <time>2026-05-11T13:02:54.000Z</time>
      </trkpt>
      <trkpt lat="45.31936" lon="4.55598">
        <ele>812.59997558594</ele>
        <time>2026-05-11T13:02:55.000Z</time>
      </trkpt>
      <trkpt lat="45.31928" lon="4.55601">
        <ele>812.20001220703</ele>
        <time>2026-05-11T13:02:56.000Z</time>
      </trkpt>
      <trkpt lat="45.3192" lon="4.55603">
        <ele>811.59997558594</ele>
        <time>2026-05-11T13:02:57.000Z</time>
      </trkpt>
      <trkpt lat="45.31912" lon="4.55603">
        <ele>811</ele>
        <time>2026-05-11T13:02:58.000Z</time>
      </trkpt>
      <trkpt lat="45.31904" lon="4.55602">
        <ele>810.40002441406</ele>
        <time>2026-05-11T13:02:59.000Z</time>
      </trkpt>
      <trkpt lat="45.31896" lon="4.556">
        <ele>810</ele>
        <time>2026-05-11T13:03:00.000Z</time>
      </trkpt>
      <trkpt lat="45.31888" lon="4.55596">
        <ele>809.20001220703</ele>
        <time>2026-05-11T13:03:01.000Z</time>
      </trkpt>
      <trkpt lat="45.31881" lon="4.5559">
        <ele>808.79998779297</ele>
        <time>2026-05-11T13:03:02.000Z</time>
      </trkpt>
      <trkpt lat="45.31875" lon="4.55583">
        <ele>808.20001220703</ele>
        <time>2026-05-11T13:03:03.000Z</time>
      </trkpt>
      <trkpt lat="45.31869" lon="4.55575">
        <ele>807.59997558594</ele>
        <time>2026-05-11T13:03:04.000Z</time>
      </trkpt>
      <trkpt lat="45.31865" lon="4.55566">
        <ele>807</ele>
        <time>2026-05-11T13:03:05.000Z</time>
      </trkpt>
      <trkpt lat="45.31861" lon="4.55557">
        <ele>806.40002441406</ele>
        <time>2026-05-11T13:03:06.000Z</time>
      </trkpt>
      <trkpt lat="45.31858" lon="4.55547">
        <ele>805.59997558594</ele>
        <time>2026-05-11T13:03:07.000Z</time>
      </trkpt>
      <trkpt lat="45.31856" lon="4.55536">
        <ele>805</ele>
        <time>2026-05-11T13:03:08.000Z</time>
      </trkpt>
      <trkpt lat="45.31855" lon="4.55524">
        <ele>804.40002441406</ele>
        <time>2026-05-11T13:03:09.000Z</time>
      </trkpt>
      <trkpt lat="45.31854" lon="4.55511">
        <ele>803.59997558594</ele>
        <time>2026-05-11T13:03:10.000Z</time>
      </trkpt>
      <trkpt lat="45.31854" lon="4.55498">
        <ele>803</ele>
        <time>2026-05-11T13:03:11.000Z</time>
      </trkpt>
      <trkpt lat="45.31853" lon="4.55484">
        <ele>802.40002441406</ele>
        <time>2026-05-11T13:03:12.000Z</time>
      </trkpt>
      <trkpt lat="45.31853" lon="4.55471">
        <ele>801.59997558594</ele>
        <time>2026-05-11T13:03:13.000Z</time>
      </trkpt>
      <trkpt lat="45.31852" lon="4.55457">
        <ele>801</ele>
        <time>2026-05-11T13:03:14.000Z</time>
      </trkpt>
      <trkpt lat="45.31851" lon="4.55443">
        <ele>800.20001220703</ele>
        <time>2026-05-11T13:03:15.000Z</time>
      </trkpt>
      <trkpt lat="45.3185" lon="4.5543">
        <ele>799.59997558594</ele>
        <time>2026-05-11T13:03:16.000Z</time>
      </trkpt>
      <trkpt lat="45.31849" lon="4.55417">
        <ele>799</ele>
        <time>2026-05-11T13:03:17.000Z</time>
      </trkpt>
      <trkpt lat="45.31847" lon="4.55404">
        <ele>798.40002441406</ele>
        <time>2026-05-11T13:03:18.000Z</time>
      </trkpt>
      <trkpt lat="45.31847" lon="4.55392">
        <ele>797.59997558594</ele>
        <time>2026-05-11T13:03:19.000Z</time>
      </trkpt>
      <trkpt lat="45.31846" lon="4.5538">
        <ele>797</ele>
        <time>2026-05-11T13:03:20.000Z</time>
      </trkpt>
      <trkpt lat="45.31845" lon="4.55367">
        <ele>796.40002441406</ele>
        <time>2026-05-11T13:03:21.000Z</time>
      </trkpt>
      <trkpt lat="45.31843" lon="4.55354">
        <ele>796</ele>
        <time>2026-05-11T13:03:22.000Z</time>
      </trkpt>
      <trkpt lat="45.31842" lon="4.55341">
        <ele>795.40002441406</ele>
        <time>2026-05-11T13:03:23.000Z</time>
      </trkpt>
      <trkpt lat="45.3184" lon="4.55328">
        <ele>794.79998779297</ele>
        <time>2026-05-11T13:03:24.000Z</time>
      </trkpt>
      <trkpt lat="45.31838" lon="4.55314">
        <ele>794.20001220703</ele>
        <time>2026-05-11T13:03:25.000Z</time>
      </trkpt>
      <trkpt lat="45.31836" lon="4.55301">
        <ele>793.59997558594</ele>
        <time>2026-05-11T13:03:26.000Z</time>
      </trkpt>
      <trkpt lat="45.31833" lon="4.55287">
        <ele>793</ele>
        <time>2026-05-11T13:03:27.000Z</time>
      </trkpt>
      <trkpt lat="45.3183" lon="4.55273">
        <ele>792.40002441406</ele>
        <time>2026-05-11T13:03:28.000Z</time>
      </trkpt>
      <trkpt lat="45.31826" lon="4.5526">
        <ele>791.79998779297</ele>
        <time>2026-05-11T13:03:29.000Z</time>
      </trkpt>
      <trkpt lat="45.31822" lon="4.55248">
        <ele>791</ele>
        <time>2026-05-11T13:03:30.000Z</time>
      </trkpt>
      <trkpt lat="45.31818" lon="4.55237">
        <ele>790.20001220703</ele>
        <time>2026-05-11T13:03:31.000Z</time>
      </trkpt>
      <trkpt lat="45.31813" lon="4.55228">
        <ele>789.40002441406</ele>
        <time>2026-05-11T13:03:32.000Z</time>
      </trkpt>
      <trkpt lat="45.31807" lon="4.5522">
        <ele>788.79998779297</ele>
        <time>2026-05-11T13:03:33.000Z</time>
      </trkpt>
      <trkpt lat="45.31802" lon="4.55212">
        <ele>788.20001220703</ele>
        <time>2026-05-11T13:03:34.000Z</time>
      </trkpt>
      <trkpt lat="45.31796" lon="4.55206">
        <ele>787.59997558594</ele>
        <time>2026-05-11T13:03:35.000Z</time>
      </trkpt>
      <trkpt lat="45.3179" lon="4.552">
        <ele>786.79998779297</ele>
        <time>2026-05-11T13:03:36.000Z</time>
      </trkpt>
      <trkpt lat="45.31783" lon="4.55196">
        <ele>786.20001220703</ele>
        <time>2026-05-11T13:03:37.000Z</time>
      </trkpt>
      <trkpt lat="45.31776" lon="4.55193">
        <ele>785.59997558594</ele>
        <time>2026-05-11T13:03:38.000Z</time>
      </trkpt>
      <trkpt lat="45.31769" lon="4.55191">
        <ele>785.20001220703</ele>
        <time>2026-05-11T13:03:39.000Z</time>
      </trkpt>
      <trkpt lat="45.31762" lon="4.5519">
        <ele>784.59997558594</ele>
        <time>2026-05-11T13:03:40.000Z</time>
      </trkpt>
      <trkpt lat="45.31755" lon="4.5519">
        <ele>784</ele>
        <time>2026-05-11T13:03:41.000Z</time>
      </trkpt>
      <trkpt lat="45.31748" lon="4.55189">
        <ele>783.59997558594</ele>
        <time>2026-05-11T13:03:42.000Z</time>
      </trkpt>
      <trkpt lat="45.31741" lon="4.55189">
        <ele>783.20001220703</ele>
        <time>2026-05-11T13:03:43.000Z</time>
      </trkpt>
      <trkpt lat="45.31733" lon="4.55188">
        <ele>782.79998779297</ele>
        <time>2026-05-11T13:03:44.000Z</time>
      </trkpt>
      <trkpt lat="45.31725" lon="4.55186">
        <ele>782.40002441406</ele>
        <time>2026-05-11T13:03:45.000Z</time>
      </trkpt>
      <trkpt lat="45.31717" lon="4.55184">
        <ele>781.79998779297</ele>
        <time>2026-05-11T13:03:46.000Z</time>
      </trkpt>
      <trkpt lat="45.31709" lon="4.55182">
        <ele>781.20001220703</ele>
        <time>2026-05-11T13:03:47.000Z</time>
      </trkpt>
      <trkpt lat="45.317" lon="4.5518">
        <ele>780.59997558594</ele>
        <time>2026-05-11T13:03:48.000Z</time>
      </trkpt>
      <trkpt lat="45.3169" lon="4.55178">
        <ele>780</ele>
        <time>2026-05-11T13:03:49.000Z</time>
      </trkpt>
      <trkpt lat="45.31681" lon="4.55176">
        <ele>779.40002441406</ele>
        <time>2026-05-11T13:03:50.000Z</time>
      </trkpt>
      <trkpt lat="45.31671" lon="4.55174">
        <ele>778.79998779297</ele>
        <time>2026-05-11T13:03:51.000Z</time>
      </trkpt>
      <trkpt lat="45.31662" lon="4.55172">
        <ele>778</ele>
        <time>2026-05-11T13:03:52.000Z</time>
      </trkpt>
      <trkpt lat="45.31654" lon="4.55171">
        <ele>777.20001220703</ele>
        <time>2026-05-11T13:03:53.000Z</time>
      </trkpt>
      <trkpt lat="45.31646" lon="4.55169">
        <ele>776.59997558594</ele>
        <time>2026-05-11T13:03:54.000Z</time>
      </trkpt>
      <trkpt lat="45.31638" lon="4.55168">
        <ele>776.20001220703</ele>
        <time>2026-05-11T13:03:55.000Z</time>
      </trkpt>
      <trkpt lat="45.31631" lon="4.55165">
        <ele>775.59997558594</ele>
        <time>2026-05-11T13:03:56.000Z</time>
      </trkpt>
      <trkpt lat="45.31625" lon="4.55162">
        <ele>775.20001220703</ele>
        <time>2026-05-11T13:03:57.000Z</time>
      </trkpt>
      <trkpt lat="45.31619" lon="4.55158">
        <ele>774.79998779297</ele>
        <time>2026-05-11T13:03:58.000Z</time>
      </trkpt>
      <trkpt lat="45.31614" lon="4.55153">
        <ele>774.20001220703</ele>
        <time>2026-05-11T13:03:59.000Z</time>
      </trkpt>
      <trkpt lat="45.3161" lon="4.55148">
        <ele>773.79998779297</ele>
        <time>2026-05-11T13:04:00.000Z</time>
      </trkpt>
      <trkpt lat="45.31605" lon="4.55142">
        <ele>773.59997558594</ele>
        <time>2026-05-11T13:04:01.000Z</time>
      </trkpt>
      <trkpt lat="45.31601" lon="4.55136">
        <ele>773.20001220703</ele>
        <time>2026-05-11T13:04:02.000Z</time>
      </trkpt>
      <trkpt lat="45.31598" lon="4.5513">
        <ele>773</ele>
        <time>2026-05-11T13:04:03.000Z</time>
      </trkpt>
      <trkpt lat="45.31595" lon="4.55123">
        <ele>772.59997558594</ele>
        <time>2026-05-11T13:04:04.000Z</time>
      </trkpt>
      <trkpt lat="45.31592" lon="4.55116">
        <ele>772.40002441406</ele>
        <time>2026-05-11T13:04:05.000Z</time>
      </trkpt>
      <trkpt lat="45.3159" lon="4.55108">
        <ele>772</ele>
        <time>2026-05-11T13:04:06.000Z</time>
      </trkpt>
      <trkpt lat="45.31589" lon="4.55101">
        <ele>771.79998779297</ele>
        <time>2026-05-11T13:04:07.000Z</time>
      </trkpt>
      <trkpt lat="45.31588" lon="4.55093">
        <ele>771.40002441406</ele>
        <time>2026-05-11T13:04:08.000Z</time>
      </trkpt>
      <trkpt lat="45.31588" lon="4.55086">
        <ele>771.20001220703</ele>
        <time>2026-05-11T13:04:09.000Z</time>
      </trkpt>
      <trkpt lat="45.31589" lon="4.55078">
        <ele>770.79998779297</ele>
        <time>2026-05-11T13:04:10.000Z</time>
      </trkpt>
      <trkpt lat="45.31589" lon="4.55071">
        <ele>770.59997558594</ele>
        <time>2026-05-11T13:04:11.000Z</time>
      </trkpt>
      <trkpt lat="45.3159" lon="4.55064">
        <ele>770.20001220703</ele>
        <time>2026-05-11T13:04:12.000Z</time>
      </trkpt>
      <trkpt lat="45.31592" lon="4.55058">
        <ele>770</ele>
        <time>2026-05-11T13:04:13.000Z</time>
      </trkpt>
      <trkpt lat="45.31593" lon="4.55052">
        <ele>769.79998779297</ele>
        <time>2026-05-11T13:04:14.000Z</time>
      </trkpt>
      <trkpt lat="45.31594" lon="4.55046">
        <ele>769.40002441406</ele>
        <time>2026-05-11T13:04:15.000Z</time>
      </trkpt>
      <trkpt lat="45.31595" lon="4.55039">
        <ele>769.20001220703</ele>
        <time>2026-05-11T13:04:16.000Z</time>
      </trkpt>
      <trkpt lat="45.31597" lon="4.55033">
        <ele>768.79998779297</ele>
        <time>2026-05-11T13:04:17.000Z</time>
      </trkpt>
      <trkpt lat="45.31599" lon="4.55027">
        <ele>768.59997558594</ele>
        <time>2026-05-11T13:04:18.000Z</time>
      </trkpt>
      <trkpt lat="45.316" lon="4.55021">
        <ele>768.40002441406</ele>
        <time>2026-05-11T13:04:19.000Z</time>
      </trkpt>
      <trkpt lat="45.31602" lon="4.55015">
        <ele>768</ele>
        <time>2026-05-11T13:04:20.000Z</time>
      </trkpt>
      <trkpt lat="45.31604" lon="4.55009">
        <ele>767.79998779297</ele>
        <time>2026-05-11T13:04:21.000Z</time>
      </trkpt>
      <trkpt lat="45.31606" lon="4.55003">
        <ele>767.20001220703</ele>
        <time>2026-05-11T13:04:22.000Z</time>
      </trkpt>
      <trkpt lat="45.31608" lon="4.54997">
        <ele>767</ele>
        <time>2026-05-11T13:04:23.000Z</time>
      </trkpt>
      <trkpt lat="45.3161" lon="4.5499">
        <ele>766.59997558594</ele>
        <time>2026-05-11T13:04:24.000Z</time>
      </trkpt>
      <trkpt lat="45.31612" lon="4.54984">
        <ele>766.20001220703</ele>
        <time>2026-05-11T13:04:25.000Z</time>
      </trkpt>
      <trkpt lat="45.31615" lon="4.54978">
        <ele>765.79998779297</ele>
        <time>2026-05-11T13:04:26.000Z</time>
      </trkpt>
      <trkpt lat="45.31617" lon="4.54972">
        <ele>765.59997558594</ele>
        <time>2026-05-11T13:04:27.000Z</time>
      </trkpt>
      <trkpt lat="45.31619" lon="4.54967">
        <ele>765.20001220703</ele>
        <time>2026-05-11T13:04:28.000Z</time>
      </trkpt>
      <trkpt lat="45.31621" lon="4.54962">
        <ele>765</ele>
        <time>2026-05-11T13:04:29.000Z</time>
      </trkpt>
      <trkpt lat="45.31623" lon="4.54958">
        <ele>764.79998779297</ele>
        <time>2026-05-11T13:04:30.000Z</time>
      </trkpt>
      <trkpt lat="45.31625" lon="4.54953">
        <ele>764.40002441406</ele>
        <time>2026-05-11T13:04:31.000Z</time>
      </trkpt>
      <trkpt lat="45.31627" lon="4.54948">
        <ele>764.20001220703</ele>
        <time>2026-05-11T13:04:32.000Z</time>
      </trkpt>
      <trkpt lat="45.31628" lon="4.54942">
        <ele>763.79998779297</ele>
        <time>2026-05-11T13:04:33.000Z</time>
      </trkpt>
      <trkpt lat="45.3163" lon="4.54937">
        <ele>763.59997558594</ele>
        <time>2026-05-11T13:04:34.000Z</time>
      </trkpt>
      <trkpt lat="45.31632" lon="4.54931">
        <ele>763.40002441406</ele>
        <time>2026-05-11T13:04:35.000Z</time>
      </trkpt>
      <trkpt lat="45.31634" lon="4.54924">
        <ele>763</ele>
        <time>2026-05-11T13:04:36.000Z</time>
      </trkpt>
      <trkpt lat="45.31636" lon="4.54918">
        <ele>762.79998779297</ele>
        <time>2026-05-11T13:04:37.000Z</time>
      </trkpt>
      <trkpt lat="45.31638" lon="4.54912">
        <ele>762.59997558594</ele>
        <time>2026-05-11T13:04:38.000Z</time>
      </trkpt>
      <trkpt lat="45.31639" lon="4.54905">
        <ele>762.20001220703</ele>
        <time>2026-05-11T13:04:39.000Z</time>
      </trkpt>
      <trkpt lat="45.31641" lon="4.54899">
        <ele>761.79998779297</ele>
        <time>2026-05-11T13:04:40.000Z</time>
      </trkpt>
      <trkpt lat="45.31642" lon="4.54891">
        <ele>761.40002441406</ele>
        <time>2026-05-11T13:04:41.000Z</time>
      </trkpt>
      <trkpt lat="45.31644" lon="4.54883">
        <ele>761</ele>
        <time>2026-05-11T13:04:42.000Z</time>
      </trkpt>
      <trkpt lat="45.31645" lon="4.54875">
        <ele>760.59997558594</ele>
        <time>2026-05-11T13:04:43.000Z</time>
      </trkpt>
      <trkpt lat="45.31647" lon="4.54866">
        <ele>760.20001220703</ele>
        <time>2026-05-11T13:04:44.000Z</time>
      </trkpt>
      <trkpt lat="45.31649" lon="4.54857">
        <ele>759.79998779297</ele>
        <time>2026-05-11T13:04:45.000Z</time>
      </trkpt>
      <trkpt lat="45.3165" lon="4.54848">
        <ele>759.40002441406</ele>
        <time>2026-05-11T13:04:46.000Z</time>
      </trkpt>
      <trkpt lat="45.31652" lon="4.5484">
        <ele>759</ele>
        <time>2026-05-11T13:04:47.000Z</time>
      </trkpt>
      <trkpt lat="45.31654" lon="4.54833">
        <ele>758.59997558594</ele>
        <time>2026-05-11T13:04:48.000Z</time>
      </trkpt>
      <trkpt lat="45.31655" lon="4.54827">
        <ele>758.20001220703</ele>
        <time>2026-05-11T13:04:49.000Z</time>
      </trkpt>
      <trkpt lat="45.31656" lon="4.54822">
        <ele>757.79998779297</ele>
        <time>2026-05-11T13:04:50.000Z</time>
      </trkpt>
      <trkpt lat="45.31657" lon="4.54818">
        <ele>757.59997558594</ele>
        <time>2026-05-11T13:04:51.000Z</time>
      </trkpt>
      <trkpt lat="45.31658" lon="4.54814">
        <ele>757.40002441406</ele>
        <time>2026-05-11T13:04:52.000Z</time>
      </trkpt>
      <trkpt lat="45.31659" lon="4.54811">
        <ele>757</ele>
        <time>2026-05-11T13:04:53.000Z</time>
      </trkpt>
      <trkpt lat="45.31658" lon="4.54808">
        <ele>756.79998779297</ele>
        <time>2026-05-11T13:04:54.000Z</time>
      </trkpt>
      <trkpt lat="45.31657" lon="4.54806">
        <ele>756.59997558594</ele>
        <time>2026-05-11T13:04:55.000Z</time>
      </trkpt>
      <trkpt lat="45.31655" lon="4.54805">
        <ele>756.40002441406</ele>
        <time>2026-05-11T13:04:56.000Z</time>
      </trkpt>
      <trkpt lat="45.31653" lon="4.54807">
        <ele>756.20001220703</ele>
        <time>2026-05-11T13:04:57.000Z</time>
      </trkpt>
      <trkpt lat="45.31651" lon="4.5481">
        <ele>755.79998779297</ele>
        <time>2026-05-11T13:04:58.000Z</time>
      </trkpt>
      <trkpt lat="45.3165" lon="4.54814">
        <ele>755.59997558594</ele>
        <time>2026-05-11T13:04:59.000Z</time>
      </trkpt>
      <trkpt lat="45.31647" lon="4.54817">
        <ele>755.40002441406</ele>
        <time>2026-05-11T13:05:00.000Z</time>
      </trkpt>
      <trkpt lat="45.31644" lon="4.5482">
        <ele>754.79998779297</ele>
        <time>2026-05-11T13:05:01.000Z</time>
      </trkpt>
      <trkpt lat="45.3164" lon="4.54822">
        <ele>754.20001220703</ele>
        <time>2026-05-11T13:05:02.000Z</time>
      </trkpt>
      <trkpt lat="45.31637" lon="4.54823">
        <ele>753.59997558594</ele>
        <time>2026-05-11T13:05:03.000Z</time>
      </trkpt>
      <trkpt lat="45.31635" lon="4.54825">
        <ele>753</ele>
        <time>2026-05-11T13:05:04.000Z</time>
      </trkpt>
      <trkpt lat="45.31631" lon="4.54826">
        <ele>752.40002441406</ele>
        <time>2026-05-11T13:05:05.000Z</time>
      </trkpt>
      <trkpt lat="45.31628" lon="4.54827">
        <ele>751.79998779297</ele>
        <time>2026-05-11T13:05:06.000Z</time>
      </trkpt>
      <trkpt lat="45.31625" lon="4.54829">
        <ele>751.20001220703</ele>
        <time>2026-05-11T13:05:07.000Z</time>
      </trkpt>
      <trkpt lat="45.31623" lon="4.54829">
        <ele>750.59997558594</ele>
        <time>2026-05-11T13:05:08.000Z</time>
      </trkpt>
      <trkpt lat="45.31621" lon="4.54829">
        <ele>750.20001220703</ele>
        <time>2026-05-11T13:05:09.000Z</time>
      </trkpt>
      <trkpt lat="45.31619" lon="4.54829">
        <ele>749.79998779297</ele>
        <time>2026-05-11T13:05:10.000Z</time>
      </trkpt>
      <trkpt lat="45.31618" lon="4.5483">
        <ele>749.40002441406</ele>
        <time>2026-05-11T13:05:11.000Z</time>
      </trkpt>
      <trkpt lat="45.31615" lon="4.54831">
        <ele>749.20001220703</ele>
        <time>2026-05-11T13:05:12.000Z</time>
      </trkpt>
      <trkpt lat="45.31613" lon="4.54832">
        <ele>748.79998779297</ele>
        <time>2026-05-11T13:05:13.000Z</time>
      </trkpt>
      <trkpt lat="45.31612" lon="4.54833">
        <ele>748.40002441406</ele>
        <time>2026-05-11T13:05:14.000Z</time>
      </trkpt>
      <trkpt lat="45.31611" lon="4.54834">
        <ele>748</ele>
        <time>2026-05-11T13:05:15.000Z</time>
      </trkpt>
      <trkpt lat="45.31609" lon="4.54834">
        <ele>747.59997558594</ele>
        <time>2026-05-11T13:05:16.000Z</time>
      </trkpt>
      <trkpt lat="45.31608" lon="4.54835">
        <ele>747.40002441406</ele>
        <time>2026-05-11T13:05:17.000Z</time>
      </trkpt>
      <trkpt lat="45.31607" lon="4.54835">
        <ele>747</ele>
        <time>2026-05-11T13:05:18.000Z</time>
      </trkpt>
      <trkpt lat="45.31607" lon="4.54835">
        <ele>746.79998779297</ele>
        <time>2026-05-11T13:05:19.000Z</time>
      </trkpt>
      <trkpt lat="45.31592" lon="4.54841">
        <ele>743.79998779297</ele>
        <time>2026-05-11T13:05:48.000Z</time>
      </trkpt>
      <trkpt lat="45.31591" lon="4.54842">
        <ele>743.59997558594</ele>
        <time>2026-05-11T13:05:49.000Z</time>
      </trkpt>
      <trkpt lat="45.3159" lon="4.54842">
        <ele>743.20001220703</ele>
        <time>2026-05-11T13:05:50.000Z</time>
      </trkpt>
      <trkpt lat="45.31588" lon="4.54843">
        <ele>743</ele>
        <time>2026-05-11T13:05:51.000Z</time>
      </trkpt>
      <trkpt lat="45.31586" lon="4.54844">
        <ele>742.59997558594</ele>
        <time>2026-05-11T13:05:52.000Z</time>
      </trkpt>
      <trkpt lat="45.31584" lon="4.54844">
        <ele>742.40002441406</ele>
        <time>2026-05-11T13:05:53.000Z</time>
      </trkpt>
      <trkpt lat="45.31582" lon="4.54845">
        <ele>742</ele>
        <time>2026-05-11T13:05:54.000Z</time>
      </trkpt>
      <trkpt lat="45.3158" lon="4.54846">
        <ele>741.59997558594</ele>
        <time>2026-05-11T13:05:55.000Z</time>
      </trkpt>
      <trkpt lat="45.31578" lon="4.54847">
        <ele>741.40002441406</ele>
        <time>2026-05-11T13:05:56.000Z</time>
      </trkpt>
      <trkpt lat="45.31576" lon="4.54849">
        <ele>741</ele>
        <time>2026-05-11T13:05:57.000Z</time>
      </trkpt>
      <trkpt lat="45.31573" lon="4.5485">
        <ele>740.59997558594</ele>
        <time>2026-05-11T13:05:58.000Z</time>
      </trkpt>
      <trkpt lat="45.31572" lon="4.5485">
        <ele>740.40002441406</ele>
        <time>2026-05-11T13:05:59.000Z</time>
      </trkpt>
      <trkpt lat="45.3157" lon="4.54852">
        <ele>739.79998779297</ele>
        <time>2026-05-11T13:06:00.000Z</time>
      </trkpt>
      <trkpt lat="45.31568" lon="4.54853">
        <ele>739.59997558594</ele>
        <time>2026-05-11T13:06:01.000Z</time>
      </trkpt>
      <trkpt lat="45.31566" lon="4.54855">
        <ele>739.20001220703</ele>
        <time>2026-05-11T13:06:02.000Z</time>
      </trkpt>
      <trkpt lat="45.31564" lon="4.54857">
        <ele>738.79998779297</ele>
        <time>2026-05-11T13:06:03.000Z</time>
      </trkpt>
      <trkpt lat="45.31563" lon="4.54859">
        <ele>738.40002441406</ele>
        <time>2026-05-11T13:06:04.000Z</time>
      </trkpt>
      <trkpt lat="45.31561" lon="4.54861">
        <ele>738.20001220703</ele>
        <time>2026-05-11T13:06:05.000Z</time>
      </trkpt>
      <trkpt lat="45.31559" lon="4.54863">
        <ele>737.79998779297</ele>
        <time>2026-05-11T13:06:06.000Z</time>
      </trkpt>
      <trkpt lat="45.31557" lon="4.54866">
        <ele>737.40002441406</ele>
        <time>2026-05-11T13:06:07.000Z</time>
      </trkpt>
      <trkpt lat="45.31556" lon="4.54868">
        <ele>737.20001220703</ele>
        <time>2026-05-11T13:06:08.000Z</time>
      </trkpt>
      <trkpt lat="45.31554" lon="4.54869">
        <ele>736.79998779297</ele>
        <time>2026-05-11T13:06:09.000Z</time>
      </trkpt>
      <trkpt lat="45.31552" lon="4.54871">
        <ele>736.59997558594</ele>
        <time>2026-05-11T13:06:10.000Z</time>
      </trkpt>
      <trkpt lat="45.31551" lon="4.54872">
        <ele>736.40002441406</ele>
        <time>2026-05-11T13:06:11.000Z</time>
      </trkpt>
      <trkpt lat="45.31548" lon="4.54874">
        <ele>736</ele>
        <time>2026-05-11T13:06:12.000Z</time>
      </trkpt>
      <trkpt lat="45.31547" lon="4.54876">
        <ele>735.59997558594</ele>
        <time>2026-05-11T13:06:13.000Z</time>
      </trkpt>
      <trkpt lat="45.31545" lon="4.54877">
        <ele>735.40002441406</ele>
        <time>2026-05-11T13:06:14.000Z</time>
      </trkpt>
      <trkpt lat="45.31543" lon="4.54879">
        <ele>735.20001220703</ele>
        <time>2026-05-11T13:06:15.000Z</time>
      </trkpt>
      <trkpt lat="45.31541" lon="4.54881">
        <ele>734.79998779297</ele>
        <time>2026-05-11T13:06:16.000Z</time>
      </trkpt>
      <trkpt lat="45.31539" lon="4.54881">
        <ele>734.59997558594</ele>
        <time>2026-05-11T13:06:17.000Z</time>
      </trkpt>
      <trkpt lat="45.31538" lon="4.54883">
        <ele>734.40002441406</ele>
        <time>2026-05-11T13:06:18.000Z</time>
      </trkpt>
      <trkpt lat="45.31536" lon="4.54884">
        <ele>734</ele>
        <time>2026-05-11T13:06:19.000Z</time>
      </trkpt>
      <trkpt lat="45.31534" lon="4.54885">
        <ele>733.79998779297</ele>
        <time>2026-05-11T13:06:20.000Z</time>
      </trkpt>
      <trkpt lat="45.31533" lon="4.54886">
        <ele>733.40002441406</ele>
        <time>2026-05-11T13:06:21.000Z</time>
      </trkpt>
      <trkpt lat="45.31531" lon="4.54887">
        <ele>733.20001220703</ele>
        <time>2026-05-11T13:06:22.000Z</time>
      </trkpt>
      <trkpt lat="45.31529" lon="4.54888">
        <ele>732.79998779297</ele>
        <time>2026-05-11T13:06:23.000Z</time>
      </trkpt>
      <trkpt lat="45.31527" lon="4.5489">
        <ele>732.59997558594</ele>
        <time>2026-05-11T13:06:24.000Z</time>
      </trkpt>
      <trkpt lat="45.31525" lon="4.54891">
        <ele>732.40002441406</ele>
        <time>2026-05-11T13:06:25.000Z</time>
      </trkpt>
      <trkpt lat="45.31524" lon="4.54893">
        <ele>732</ele>
        <time>2026-05-11T13:06:26.000Z</time>
      </trkpt>
      <trkpt lat="45.31522" lon="4.54894">
        <ele>731.79998779297</ele>
        <time>2026-05-11T13:06:27.000Z</time>
      </trkpt>
      <trkpt lat="45.3152" lon="4.54895">
        <ele>731.59997558594</ele>
        <time>2026-05-11T13:06:28.000Z</time>
      </trkpt>
      <trkpt lat="45.31519" lon="4.54896">
        <ele>731.20001220703</ele>
        <time>2026-05-11T13:06:29.000Z</time>
      </trkpt>
      <trkpt lat="45.31518" lon="4.54899">
        <ele>731</ele>
        <time>2026-05-11T13:06:30.000Z</time>
      </trkpt>
      <trkpt lat="45.31515" lon="4.549">
        <ele>730.59997558594</ele>
        <time>2026-05-11T13:06:31.000Z</time>
      </trkpt>
      <trkpt lat="45.31513" lon="4.54901">
        <ele>730.20001220703</ele>
        <time>2026-05-11T13:06:32.000Z</time>
      </trkpt>
      <trkpt lat="45.31511" lon="4.54903">
        <ele>729.79998779297</ele>
        <time>2026-05-11T13:06:33.000Z</time>
      </trkpt>
      <trkpt lat="45.31509" lon="4.54904">
        <ele>729.40002441406</ele>
        <time>2026-05-11T13:06:34.000Z</time>
      </trkpt>
      <trkpt lat="45.31507" lon="4.54905">
        <ele>729</ele>
        <time>2026-05-11T13:06:35.000Z</time>
      </trkpt>
      <trkpt lat="45.31506" lon="4.54907">
        <ele>728.59997558594</ele>
        <time>2026-05-11T13:06:36.000Z</time>
      </trkpt>
      <trkpt lat="45.31505" lon="4.54908">
        <ele>728.40002441406</ele>
        <time>2026-05-11T13:06:37.000Z</time>
      </trkpt>
      <trkpt lat="45.31503" lon="4.54909">
        <ele>728</ele>
        <time>2026-05-11T13:06:38.000Z</time>
      </trkpt>
      <trkpt lat="45.31503" lon="4.54909">
        <ele>727.79998779297</ele>
        <time>2026-05-11T13:06:39.000Z</time>
      </trkpt>
      <trkpt lat="45.31501" lon="4.5491">
        <ele>727.59997558594</ele>
        <time>2026-05-11T13:06:40.000Z</time>
      </trkpt>
      <trkpt lat="45.315" lon="4.54911">
        <ele>727.20001220703</ele>
        <time>2026-05-11T13:06:41.000Z</time>
      </trkpt>
      <trkpt lat="45.31499" lon="4.54912">
        <ele>727</ele>
        <time>2026-05-11T13:06:42.000Z</time>
      </trkpt>
      <trkpt lat="45.31498" lon="4.54913">
        <ele>726.79998779297</ele>
        <time>2026-05-11T13:06:43.000Z</time>
      </trkpt>
      <trkpt lat="45.31497" lon="4.54913">
        <ele>726.59997558594</ele>
        <time>2026-05-11T13:06:44.000Z</time>
      </trkpt>
      <trkpt lat="45.31496" lon="4.54914">
        <ele>726.20001220703</ele>
        <time>2026-05-11T13:06:45.000Z</time>
      </trkpt>
      <trkpt lat="45.31495" lon="4.54914">
        <ele>726</ele>
        <time>2026-05-11T13:06:46.000Z</time>
      </trkpt>
      <trkpt lat="45.31495" lon="4.54915">
        <ele>725.59997558594</ele>
        <time>2026-05-11T13:06:47.000Z</time>
      </trkpt>
      <trkpt lat="45.31494" lon="4.54915">
        <ele>725.20001220703</ele>
        <time>2026-05-11T13:06:48.000Z</time>
      </trkpt>
      <trkpt lat="45.31493" lon="4.54916">
        <ele>724.79998779297</ele>
        <time>2026-05-11T13:06:49.000Z</time>
      </trkpt>
      <trkpt lat="45.31491" lon="4.54917">
        <ele>724.59997558594</ele>
        <time>2026-05-11T13:06:50.000Z</time>
      </trkpt>
      <trkpt lat="45.3149" lon="4.54918">
        <ele>724.40002441406</ele>
        <time>2026-05-11T13:06:51.000Z</time>
      </trkpt>
      <trkpt lat="45.31488" lon="4.54918">
        <ele>724</ele>
        <time>2026-05-11T13:06:52.000Z</time>
      </trkpt>
      <trkpt lat="45.31487" lon="4.54919">
        <ele>723.79998779297</ele>
        <time>2026-05-11T13:06:53.000Z</time>
      </trkpt>
      <trkpt lat="45.31486" lon="4.54921">
        <ele>723.59997558594</ele>
        <time>2026-05-11T13:06:54.000Z</time>
      </trkpt>
      <trkpt lat="45.31484" lon="4.54923">
        <ele>723.40002441406</ele>
        <time>2026-05-11T13:06:55.000Z</time>
      </trkpt>
      <trkpt lat="45.31482" lon="4.54925">
        <ele>723.40002441406</ele>
        <time>2026-05-11T13:06:56.000Z</time>
      </trkpt>
      <trkpt lat="45.3148" lon="4.54927">
        <ele>723.20001220703</ele>
        <time>2026-05-11T13:06:57.000Z</time>
      </trkpt>
      <trkpt lat="45.31478" lon="4.54929">
        <ele>722.79998779297</ele>
        <time>2026-05-11T13:06:58.000Z</time>
      </trkpt>
      <trkpt lat="45.31476" lon="4.54932">
        <ele>722.59997558594</ele>
        <time>2026-05-11T13:06:59.000Z</time>
      </trkpt>
      <trkpt lat="45.31473" lon="4.54934">
        <ele>722.40002441406</ele>
        <time>2026-05-11T13:07:00.000Z</time>
      </trkpt>
      <trkpt lat="45.3147" lon="4.54938">
        <ele>722.20001220703</ele>
        <time>2026-05-11T13:07:01.000Z</time>
      </trkpt>
      <trkpt lat="45.31467" lon="4.5494">
        <ele>721.79998779297</ele>
        <time>2026-05-11T13:07:02.000Z</time>
      </trkpt>
      <trkpt lat="45.31465" lon="4.54943">
        <ele>721.59997558594</ele>
        <time>2026-05-11T13:07:03.000Z</time>
      </trkpt>
      <trkpt lat="45.31462" lon="4.54945">
        <ele>721.40002441406</ele>
        <time>2026-05-11T13:07:04.000Z</time>
      </trkpt>
      <trkpt lat="45.3146" lon="4.54946">
        <ele>721</ele>
        <time>2026-05-11T13:07:05.000Z</time>
      </trkpt>
      <trkpt lat="45.31458" lon="4.54948">
        <ele>721</ele>
        <time>2026-05-11T13:07:06.000Z</time>
      </trkpt>
      <trkpt lat="45.31457" lon="4.5495">
        <ele>720.79998779297</ele>
        <time>2026-05-11T13:07:07.000Z</time>
      </trkpt>
      <trkpt lat="45.31456" lon="4.54952">
        <ele>720.59997558594</ele>
        <time>2026-05-11T13:07:08.000Z</time>
      </trkpt>
      <trkpt lat="45.31454" lon="4.54953">
        <ele>720.40002441406</ele>
        <time>2026-05-11T13:07:09.000Z</time>
      </trkpt>
      <trkpt lat="45.31453" lon="4.54954">
        <ele>720.20001220703</ele>
        <time>2026-05-11T13:07:10.000Z</time>
      </trkpt>
      <trkpt lat="45.31452" lon="4.54956">
        <ele>719.79998779297</ele>
        <time>2026-05-11T13:07:11.000Z</time>
      </trkpt>
      <trkpt lat="45.31451" lon="4.54958">
        <ele>719.59997558594</ele>
        <time>2026-05-11T13:07:12.000Z</time>
      </trkpt>
      <trkpt lat="45.3145" lon="4.54959">
        <ele>719.40002441406</ele>
        <time>2026-05-11T13:07:13.000Z</time>
      </trkpt>
      <trkpt lat="45.31449" lon="4.54961">
        <ele>719</ele>
        <time>2026-05-11T13:07:14.000Z</time>
      </trkpt>
      <trkpt lat="45.31447" lon="4.54963">
        <ele>718.79998779297</ele>
        <time>2026-05-11T13:07:15.000Z</time>
      </trkpt>
      <trkpt lat="45.31445" lon="4.54965">
        <ele>718.59997558594</ele>
        <time>2026-05-11T13:07:16.000Z</time>
      </trkpt>
      <trkpt lat="45.31443" lon="4.54967">
        <ele>718.40002441406</ele>
        <time>2026-05-11T13:07:17.000Z</time>
      </trkpt>
      <trkpt lat="45.31441" lon="4.54969">
        <ele>718.20001220703</ele>
        <time>2026-05-11T13:07:18.000Z</time>
      </trkpt>
      <trkpt lat="45.31439" lon="4.54972">
        <ele>718</ele>
        <time>2026-05-11T13:07:19.000Z</time>
      </trkpt>
      <trkpt lat="45.31438" lon="4.54974">
        <ele>717.79998779297</ele>
        <time>2026-05-11T13:07:20.000Z</time>
      </trkpt>
      <trkpt lat="45.31436" lon="4.54976">
        <ele>717.59997558594</ele>
        <time>2026-05-11T13:07:21.000Z</time>
      </trkpt>
      <trkpt lat="45.31434" lon="4.54977">
        <ele>717.40002441406</ele>
        <time>2026-05-11T13:07:22.000Z</time>
      </trkpt>
      <trkpt lat="45.31433" lon="4.54978">
        <ele>717.40002441406</ele>
        <time>2026-05-11T13:07:23.000Z</time>
      </trkpt>
      <trkpt lat="45.31432" lon="4.5498">
        <ele>717.20001220703</ele>
        <time>2026-05-11T13:07:24.000Z</time>
      </trkpt>
      <trkpt lat="45.31431" lon="4.54981">
        <ele>717</ele>
        <time>2026-05-11T13:07:25.000Z</time>
      </trkpt>
      <trkpt lat="45.3143" lon="4.54983">
        <ele>716.79998779297</ele>
        <time>2026-05-11T13:07:26.000Z</time>
      </trkpt>
      <trkpt lat="45.31428" lon="4.54985">
        <ele>716.59997558594</ele>
        <time>2026-05-11T13:07:27.000Z</time>
      </trkpt>
      <trkpt lat="45.31426" lon="4.54986">
        <ele>716.40002441406</ele>
        <time>2026-05-11T13:07:28.000Z</time>
      </trkpt>
      <trkpt lat="45.31424" lon="4.54988">
        <ele>716</ele>
        <time>2026-05-11T13:07:29.000Z</time>
      </trkpt>
      <trkpt lat="45.31422" lon="4.54989">
        <ele>715.79998779297</ele>
        <time>2026-05-11T13:07:30.000Z</time>
      </trkpt>
      <trkpt lat="45.3142" lon="4.54991">
        <ele>715.40002441406</ele>
        <time>2026-05-11T13:07:31.000Z</time>
      </trkpt>
      <trkpt lat="45.31419" lon="4.54992">
        <ele>715.20001220703</ele>
        <time>2026-05-11T13:07:32.000Z</time>
      </trkpt>
      <trkpt lat="45.31417" lon="4.54993">
        <ele>714.79998779297</ele>
        <time>2026-05-11T13:07:33.000Z</time>
      </trkpt>
      <trkpt lat="45.31416" lon="4.54995">
        <ele>714.40002441406</ele>
        <time>2026-05-11T13:07:34.000Z</time>
      </trkpt>
      <trkpt lat="45.31415" lon="4.54996">
        <ele>714</ele>
        <time>2026-05-11T13:07:35.000Z</time>
      </trkpt>
      <trkpt lat="45.31414" lon="4.54997">
        <ele>713.79998779297</ele>
        <time>2026-05-11T13:07:36.000Z</time>
      </trkpt>
      <trkpt lat="45.31406" lon="4.55006">
        <ele>712.20001220703</ele>
        <time>2026-05-11T13:07:52.000Z</time>
      </trkpt>
      <trkpt lat="45.31405" lon="4.55009">
        <ele>712</ele>
        <time>2026-05-11T13:07:53.000Z</time>
      </trkpt>
      <trkpt lat="45.31403" lon="4.55011">
        <ele>711.79998779297</ele>
        <time>2026-05-11T13:07:54.000Z</time>
      </trkpt>
      <trkpt lat="45.31401" lon="4.55014">
        <ele>711.59997558594</ele>
        <time>2026-05-11T13:07:55.000Z</time>
      </trkpt>
      <trkpt lat="45.314" lon="4.55016">
        <ele>711.40002441406</ele>
        <time>2026-05-11T13:07:56.000Z</time>
      </trkpt>
      <trkpt lat="45.31399" lon="4.55018">
        <ele>711</ele>
        <time>2026-05-11T13:07:57.000Z</time>
      </trkpt>
      <trkpt lat="45.31398" lon="4.5502">
        <ele>710.79998779297</ele>
        <time>2026-05-11T13:07:58.000Z</time>
      </trkpt>
      <trkpt lat="45.31397" lon="4.55022">
        <ele>710.40002441406</ele>
        <time>2026-05-11T13:07:59.000Z</time>
      </trkpt>
      <trkpt lat="45.31396" lon="4.55024">
        <ele>710.20001220703</ele>
        <time>2026-05-11T13:08:00.000Z</time>
      </trkpt>
      <trkpt lat="45.31395" lon="4.55025">
        <ele>710</ele>
        <time>2026-05-11T13:08:01.000Z</time>
      </trkpt>
      <trkpt lat="45.31393" lon="4.55027">
        <ele>710</ele>
        <time>2026-05-11T13:08:02.000Z</time>
      </trkpt>
      <trkpt lat="45.31392" lon="4.55029">
        <ele>709.79998779297</ele>
        <time>2026-05-11T13:08:03.000Z</time>
      </trkpt>
      <trkpt lat="45.31391" lon="4.5503">
        <ele>709.59997558594</ele>
        <time>2026-05-11T13:08:04.000Z</time>
      </trkpt>
      <trkpt lat="45.31389" lon="4.55031">
        <ele>709.40002441406</ele>
        <time>2026-05-11T13:08:05.000Z</time>
      </trkpt>
      <trkpt lat="45.31388" lon="4.55031">
        <ele>709</ele>
        <time>2026-05-11T13:08:06.000Z</time>
      </trkpt>
      <trkpt lat="45.31387" lon="4.5503">
        <ele>708.79998779297</ele>
        <time>2026-05-11T13:08:07.000Z</time>
      </trkpt>
      <trkpt lat="45.31385" lon="4.5503">
        <ele>708.40002441406</ele>
        <time>2026-05-11T13:08:08.000Z</time>
      </trkpt>
      <trkpt lat="45.31384" lon="4.55029">
        <ele>708.20001220703</ele>
        <time>2026-05-11T13:08:09.000Z</time>
      </trkpt>
      <trkpt lat="45.31382" lon="4.55027">
        <ele>707.79998779297</ele>
        <time>2026-05-11T13:08:10.000Z</time>
      </trkpt>
      <trkpt lat="45.31381" lon="4.55026">
        <ele>707.59997558594</ele>
        <time>2026-05-11T13:08:11.000Z</time>
      </trkpt>
      <trkpt lat="45.3138" lon="4.55025">
        <ele>707.20001220703</ele>
        <time>2026-05-11T13:08:12.000Z</time>
      </trkpt>
      <trkpt lat="45.31378" lon="4.55024">
        <ele>707</ele>
        <time>2026-05-11T13:08:13.000Z</time>
      </trkpt>
      <trkpt lat="45.31377" lon="4.55024">
        <ele>706.40002441406</ele>
        <time>2026-05-11T13:08:14.000Z</time>
      </trkpt>
      <trkpt lat="45.31377" lon="4.55023">
        <ele>706</ele>
        <time>2026-05-11T13:08:15.000Z</time>
      </trkpt>
      <trkpt lat="45.31377" lon="4.55022">
        <ele>705.59997558594</ele>
        <time>2026-05-11T13:08:16.000Z</time>
      </trkpt>
      <trkpt lat="45.31373" lon="4.54979">
        <ele>696.79998779297</ele>
        <time>2026-05-11T13:09:21.000Z</time>
      </trkpt>
      <trkpt lat="45.31373" lon="4.54977">
        <ele>696.59997558594</ele>
        <time>2026-05-11T13:09:22.000Z</time>
      </trkpt>
      <trkpt lat="45.31374" lon="4.54975">
        <ele>696.59997558594</ele>
        <time>2026-05-11T13:09:23.000Z</time>
      </trkpt>
      <trkpt lat="45.31375" lon="4.54973">
        <ele>696.40002441406</ele>
        <time>2026-05-11T13:09:24.000Z</time>
      </trkpt>
      <trkpt lat="45.31375" lon="4.54972">
        <ele>696.20001220703</ele>
        <time>2026-05-11T13:09:25.000Z</time>
      </trkpt>
      <trkpt lat="45.31376" lon="4.54969">
        <ele>696.20001220703</ele>
        <time>2026-05-11T13:09:26.000Z</time>
      </trkpt>
      <trkpt lat="45.31376" lon="4.54967">
        <ele>696</ele>
        <time>2026-05-11T13:09:27.000Z</time>
      </trkpt>
      <trkpt lat="45.31377" lon="4.54965">
        <ele>696</ele>
        <time>2026-05-11T13:09:28.000Z</time>
      </trkpt>
      <trkpt lat="45.31377" lon="4.54962">
        <ele>695.79998779297</ele>
        <time>2026-05-11T13:09:29.000Z</time>
      </trkpt>
      <trkpt lat="45.31377" lon="4.54959">
        <ele>695.59997558594</ele>
        <time>2026-05-11T13:09:30.000Z</time>
      </trkpt>
      <trkpt lat="45.31377" lon="4.54956">
        <ele>695.59997558594</ele>
        <time>2026-05-11T13:09:31.000Z</time>
      </trkpt>
      <trkpt lat="45.31378" lon="4.54955">
        <ele>695.40002441406</ele>
        <time>2026-05-11T13:09:32.000Z</time>
      </trkpt>
      <trkpt lat="45.31377" lon="4.54955">
        <ele>695.40002441406</ele>
        <time>2026-05-11T13:09:33.000Z</time>
      </trkpt>
      <trkpt lat="45.31377" lon="4.54955">
        <ele>695.40002441406</ele>
        <time>2026-05-11T13:09:34.000Z</time>
      </trkpt>
      <trkpt lat="45.31378" lon="4.54932">
        <ele>692.20001220703</ele>
        <time>2026-05-11T13:10:02.000Z</time>
      </trkpt>
      <trkpt lat="45.31378" lon="4.5493">
        <ele>692.20001220703</ele>
        <time>2026-05-11T13:10:03.000Z</time>
      </trkpt>
      <trkpt lat="45.31379" lon="4.54928">
        <ele>692</ele>
        <time>2026-05-11T13:10:04.000Z</time>
      </trkpt>
      <trkpt lat="45.31379" lon="4.54926">
        <ele>692</ele>
        <time>2026-05-11T13:10:05.000Z</time>
      </trkpt>
      <trkpt lat="45.31379" lon="4.54925">
        <ele>691.79998779297</ele>
        <time>2026-05-11T13:10:06.000Z</time>
      </trkpt>
      <trkpt lat="45.31379" lon="4.54923">
        <ele>691.79998779297</ele>
        <time>2026-05-11T13:10:07.000Z</time>
      </trkpt>
      <trkpt lat="45.31378" lon="4.54921">
        <ele>691.59997558594</ele>
        <time>2026-05-11T13:10:08.000Z</time>
      </trkpt>
      <trkpt lat="45.31378" lon="4.54919">
        <ele>691.40002441406</ele>
        <time>2026-05-11T13:10:09.000Z</time>
      </trkpt>
      <trkpt lat="45.31378" lon="4.54918">
        <ele>691.20001220703</ele>
        <time>2026-05-11T13:10:10.000Z</time>
      </trkpt>
      <trkpt lat="45.31378" lon="4.54917">
        <ele>691.20001220703</ele>
        <time>2026-05-11T13:10:11.000Z</time>
      </trkpt>
      <trkpt lat="45.31378" lon="4.54916">
        <ele>691</ele>
        <time>2026-05-11T13:10:12.000Z</time>
      </trkpt>
      <trkpt lat="45.31378" lon="4.54915">
        <ele>690.79998779297</ele>
        <time>2026-05-11T13:10:13.000Z</time>
      </trkpt>
      <trkpt lat="45.31377" lon="4.54914">
        <ele>690.79998779297</ele>
        <time>2026-05-11T13:10:14.000Z</time>
      </trkpt>
      <trkpt lat="45.31377" lon="4.54913">
        <ele>690.59997558594</ele>
        <time>2026-05-11T13:10:15.000Z</time>
      </trkpt>
      <trkpt lat="45.31377" lon="4.54913">
        <ele>690.59997558594</ele>
        <time>2026-05-11T13:10:16.000Z</time>
      </trkpt>
      <trkpt lat="45.31376" lon="4.54912">
        <ele>690.40002441406</ele>
        <time>2026-05-11T13:10:17.000Z</time>
      </trkpt>
      <trkpt lat="45.31375" lon="4.5491">
        <ele>690.40002441406</ele>
        <time>2026-05-11T13:10:18.000Z</time>
      </trkpt>
      <trkpt lat="45.31374" lon="4.54908">
        <ele>690.20001220703</ele>
        <time>2026-05-11T13:10:19.000Z</time>
      </trkpt>
      <trkpt lat="45.31373" lon="4.54907">
        <ele>690.20001220703</ele>
        <time>2026-05-11T13:10:20.000Z</time>
      </trkpt>
      <trkpt lat="45.31373" lon="4.54905">
        <ele>690</ele>
        <time>2026-05-11T13:10:21.000Z</time>
      </trkpt>
      <trkpt lat="45.31373" lon="4.54906">
        <ele>690</ele>
        <time>2026-05-11T13:10:22.000Z</time>
      </trkpt>
      <trkpt lat="45.31333" lon="4.54892">
        <ele>684.79998779297</ele>
        <time>2026-05-11T13:12:05.000Z</time>
      </trkpt>
      <trkpt lat="45.31331" lon="4.54893">
        <ele>684.79998779297</ele>
        <time>2026-05-11T13:12:06.000Z</time>
      </trkpt>
      <trkpt lat="45.3133" lon="4.54894">
        <ele>684.79998779297</ele>
        <time>2026-05-11T13:12:07.000Z</time>
      </trkpt>
      <trkpt lat="45.31328" lon="4.54896">
        <ele>684.79998779297</ele>
        <time>2026-05-11T13:12:08.000Z</time>
      </trkpt>
      <trkpt lat="45.31327" lon="4.54897">
        <ele>684.79998779297</ele>
        <time>2026-05-11T13:12:09.000Z</time>
      </trkpt>
      <trkpt lat="45.31325" lon="4.54899">
        <ele>684.79998779297</ele>
        <time>2026-05-11T13:12:10.000Z</time>
      </trkpt>
      <trkpt lat="45.31323" lon="4.549">
        <ele>685</ele>
        <time>2026-05-11T13:12:11.000Z</time>
      </trkpt>
      <trkpt lat="45.31322" lon="4.54901">
        <ele>685</ele>
        <time>2026-05-11T13:12:12.000Z</time>
      </trkpt>
      <trkpt lat="45.31319" lon="4.54903">
        <ele>685</ele>
        <time>2026-05-11T13:12:13.000Z</time>
      </trkpt>
      <trkpt lat="45.31317" lon="4.54903">
        <ele>685</ele>
        <time>2026-05-11T13:12:14.000Z</time>
      </trkpt>
      <trkpt lat="45.31315" lon="4.54904">
        <ele>685.20001220703</ele>
        <time>2026-05-11T13:12:15.000Z</time>
      </trkpt>
      <trkpt lat="45.31312" lon="4.54905">
        <ele>685.20001220703</ele>
        <time>2026-05-11T13:12:16.000Z</time>
      </trkpt>
      <trkpt lat="45.3131" lon="4.54906">
        <ele>685.20001220703</ele>
        <time>2026-05-11T13:12:17.000Z</time>
      </trkpt>
      <trkpt lat="45.31307" lon="4.54908">
        <ele>685.20001220703</ele>
        <time>2026-05-11T13:12:18.000Z</time>
      </trkpt>
      <trkpt lat="45.31304" lon="4.54909">
        <ele>685.20001220703</ele>
        <time>2026-05-11T13:12:19.000Z</time>
      </trkpt>
      <trkpt lat="45.31301" lon="4.54911">
        <ele>685.20001220703</ele>
        <time>2026-05-11T13:12:20.000Z</time>
      </trkpt>
      <trkpt lat="45.31299" lon="4.54912">
        <ele>685.20001220703</ele>
        <time>2026-05-11T13:12:21.000Z</time>
      </trkpt>
      <trkpt lat="45.31296" lon="4.54913">
        <ele>685.20001220703</ele>
        <time>2026-05-11T13:12:22.000Z</time>
      </trkpt>
      <trkpt lat="45.31293" lon="4.54915">
        <ele>685.40002441406</ele>
        <time>2026-05-11T13:12:23.000Z</time>
      </trkpt>
      <trkpt lat="45.3129" lon="4.54916">
        <ele>685.40002441406</ele>
        <time>2026-05-11T13:12:24.000Z</time>
      </trkpt>
      <trkpt lat="45.31287" lon="4.54917">
        <ele>685.59997558594</ele>
        <time>2026-05-11T13:12:25.000Z</time>
      </trkpt>
      <trkpt lat="45.31284" lon="4.54917">
        <ele>685.59997558594</ele>
        <time>2026-05-11T13:12:26.000Z</time>
      </trkpt>
      <trkpt lat="45.31281" lon="4.54918">
        <ele>685.79998779297</ele>
        <time>2026-05-11T13:12:27.000Z</time>
      </trkpt>
      <trkpt lat="45.31278" lon="4.54919">
        <ele>685.79998779297</ele>
        <time>2026-05-11T13:12:28.000Z</time>
      </trkpt>
      <trkpt lat="45.31276" lon="4.5492">
        <ele>686</ele>
        <time>2026-05-11T13:12:29.000Z</time>
      </trkpt>
      <trkpt lat="45.31273" lon="4.54921">
        <ele>686.20001220703</ele>
        <time>2026-05-11T13:12:30.000Z</time>
      </trkpt>
      <trkpt lat="45.31271" lon="4.54922">
        <ele>686.40002441406</ele>
        <time>2026-05-11T13:12:31.000Z</time>
      </trkpt>
      <trkpt lat="45.31268" lon="4.54924">
        <ele>686.59997558594</ele>
        <time>2026-05-11T13:12:32.000Z</time>
      </trkpt>
      <trkpt lat="45.31265" lon="4.54925">
        <ele>686.59997558594</ele>
        <time>2026-05-11T13:12:33.000Z</time>
      </trkpt>
      <trkpt lat="45.31263" lon="4.54926">
        <ele>686.79998779297</ele>
        <time>2026-05-11T13:12:34.000Z</time>
      </trkpt>
      <trkpt lat="45.31261" lon="4.54927">
        <ele>687</ele>
        <time>2026-05-11T13:12:35.000Z</time>
      </trkpt>
      <trkpt lat="45.31258" lon="4.54929">
        <ele>687.20001220703</ele>
        <time>2026-05-11T13:12:36.000Z</time>
      </trkpt>
      <trkpt lat="45.31256" lon="4.5493">
        <ele>687.40002441406</ele>
        <time>2026-05-11T13:12:37.000Z</time>
      </trkpt>
      <trkpt lat="45.31253" lon="4.54931">
        <ele>687.59997558594</ele>
        <time>2026-05-11T13:12:38.000Z</time>
      </trkpt>
      <trkpt lat="45.31252" lon="4.54933">
        <ele>687.79998779297</ele>
        <time>2026-05-11T13:12:39.000Z</time>
      </trkpt>
      <trkpt lat="45.3125" lon="4.54935">
        <ele>688</ele>
        <time>2026-05-11T13:12:40.000Z</time>
      </trkpt>
      <trkpt lat="45.31248" lon="4.54936">
        <ele>688</ele>
        <time>2026-05-11T13:12:41.000Z</time>
      </trkpt>
      <trkpt lat="45.31245" lon="4.54939">
        <ele>688.20001220703</ele>
        <time>2026-05-11T13:12:42.000Z</time>
      </trkpt>
      <trkpt lat="45.31243" lon="4.54941">
        <ele>688.20001220703</ele>
        <time>2026-05-11T13:12:43.000Z</time>
      </trkpt>
      <trkpt lat="45.3124" lon="4.54943">
        <ele>688.20001220703</ele>
        <time>2026-05-11T13:12:44.000Z</time>
      </trkpt>
      <trkpt lat="45.31237" lon="4.54945">
        <ele>688.20001220703</ele>
        <time>2026-05-11T13:12:45.000Z</time>
      </trkpt>
      <trkpt lat="45.31234" lon="4.54947">
        <ele>688</ele>
        <time>2026-05-11T13:12:46.000Z</time>
      </trkpt>
      <trkpt lat="45.31232" lon="4.54949">
        <ele>688</ele>
        <time>2026-05-11T13:12:47.000Z</time>
      </trkpt>
      <trkpt lat="45.31229" lon="4.54952">
        <ele>688</ele>
        <time>2026-05-11T13:12:48.000Z</time>
      </trkpt>
      <trkpt lat="45.31228" lon="4.54955">
        <ele>687.79998779297</ele>
        <time>2026-05-11T13:12:49.000Z</time>
      </trkpt>
      <trkpt lat="45.31226" lon="4.54958">
        <ele>687.59997558594</ele>
        <time>2026-05-11T13:12:50.000Z</time>
      </trkpt>
      <trkpt lat="45.31224" lon="4.54961">
        <ele>687.40002441406</ele>
        <time>2026-05-11T13:12:51.000Z</time>
      </trkpt>
      <trkpt lat="45.31223" lon="4.54966">
        <ele>687</ele>
        <time>2026-05-11T13:12:52.000Z</time>
      </trkpt>
      <trkpt lat="45.31221" lon="4.54969">
        <ele>686.79998779297</ele>
        <time>2026-05-11T13:12:53.000Z</time>
      </trkpt>
      <trkpt lat="45.3122" lon="4.54974">
        <ele>686.40002441406</ele>
        <time>2026-05-11T13:12:54.000Z</time>
      </trkpt>
      <trkpt lat="45.31219" lon="4.54978">
        <ele>686</ele>
        <time>2026-05-11T13:12:55.000Z</time>
      </trkpt>
      <trkpt lat="45.31218" lon="4.54982">
        <ele>685.59997558594</ele>
        <time>2026-05-11T13:12:56.000Z</time>
      </trkpt>
      <trkpt lat="45.31217" lon="4.54988">
        <ele>685.40002441406</ele>
        <time>2026-05-11T13:12:57.000Z</time>
      </trkpt>
      <trkpt lat="45.31215" lon="4.54993">
        <ele>685</ele>
        <time>2026-05-11T13:12:58.000Z</time>
      </trkpt>
      <trkpt lat="45.31213" lon="4.54997">
        <ele>684.59997558594</ele>
        <time>2026-05-11T13:12:59.000Z</time>
      </trkpt>
      <trkpt lat="45.31212" lon="4.55003">
        <ele>684.20001220703</ele>
        <time>2026-05-11T13:13:00.000Z</time>
      </trkpt>
      <trkpt lat="45.31211" lon="4.55008">
        <ele>683.79998779297</ele>
        <time>2026-05-11T13:13:01.000Z</time>
      </trkpt>
      <trkpt lat="45.31209" lon="4.55013">
        <ele>683.59997558594</ele>
        <time>2026-05-11T13:13:02.000Z</time>
      </trkpt>
      <trkpt lat="45.31208" lon="4.55018">
        <ele>683.20001220703</ele>
        <time>2026-05-11T13:13:03.000Z</time>
      </trkpt>
      <trkpt lat="45.31206" lon="4.55022">
        <ele>682.59997558594</ele>
        <time>2026-05-11T13:13:04.000Z</time>
      </trkpt>
      <trkpt lat="45.31205" lon="4.55026">
        <ele>682.40002441406</ele>
        <time>2026-05-11T13:13:05.000Z</time>
      </trkpt>
      <trkpt lat="45.31204" lon="4.5503">
        <ele>682</ele>
        <time>2026-05-11T13:13:06.000Z</time>
      </trkpt>
      <trkpt lat="45.31203" lon="4.55034">
        <ele>681.79998779297</ele>
        <time>2026-05-11T13:13:07.000Z</time>
      </trkpt>
      <trkpt lat="45.31201" lon="4.55037">
        <ele>681.40002441406</ele>
        <time>2026-05-11T13:13:08.000Z</time>
      </trkpt>
      <trkpt lat="45.312" lon="4.5504">
        <ele>681.20001220703</ele>
        <time>2026-05-11T13:13:09.000Z</time>
      </trkpt>
      <trkpt lat="45.31198" lon="4.55044">
        <ele>680.59997558594</ele>
        <time>2026-05-11T13:13:10.000Z</time>
      </trkpt>
      <trkpt lat="45.31195" lon="4.55046">
        <ele>680.20001220703</ele>
        <time>2026-05-11T13:13:11.000Z</time>
      </trkpt>
      <trkpt lat="45.31193" lon="4.55047">
        <ele>679.79998779297</ele>
        <time>2026-05-11T13:13:12.000Z</time>
      </trkpt>
      <trkpt lat="45.31191" lon="4.55047">
        <ele>679.40002441406</ele>
        <time>2026-05-11T13:13:13.000Z</time>
      </trkpt>
      <trkpt lat="45.31189" lon="4.55046">
        <ele>678.79998779297</ele>
        <time>2026-05-11T13:13:14.000Z</time>
      </trkpt>
      <trkpt lat="45.31186" lon="4.55046">
        <ele>678.59997558594</ele>
        <time>2026-05-11T13:13:15.000Z</time>
      </trkpt>
      <trkpt lat="45.31184" lon="4.55045">
        <ele>678</ele>
        <time>2026-05-11T13:13:16.000Z</time>
      </trkpt>
      <trkpt lat="45.31182" lon="4.55044">
        <ele>677.79998779297</ele>
        <time>2026-05-11T13:13:17.000Z</time>
      </trkpt>
      <trkpt lat="45.3118" lon="4.55044">
        <ele>677.40002441406</ele>
        <time>2026-05-11T13:13:18.000Z</time>
      </trkpt>
      <trkpt lat="45.31178" lon="4.55044">
        <ele>677</ele>
        <time>2026-05-11T13:13:19.000Z</time>
      </trkpt>
      <trkpt lat="45.31176" lon="4.55043">
        <ele>676.59997558594</ele>
        <time>2026-05-11T13:13:20.000Z</time>
      </trkpt>
      <trkpt lat="45.31175" lon="4.55042">
        <ele>676.20001220703</ele>
        <time>2026-05-11T13:13:21.000Z</time>
      </trkpt>
      <trkpt lat="45.31173" lon="4.55041">
        <ele>675.79998779297</ele>
        <time>2026-05-11T13:13:22.000Z</time>
      </trkpt>
      <trkpt lat="45.31172" lon="4.55038">
        <ele>675.20001220703</ele>
        <time>2026-05-11T13:13:23.000Z</time>
      </trkpt>
      <trkpt lat="45.3117" lon="4.55035">
        <ele>674.79998779297</ele>
        <time>2026-05-11T13:13:24.000Z</time>
      </trkpt>
      <trkpt lat="45.31169" lon="4.55032">
        <ele>674.40002441406</ele>
        <time>2026-05-11T13:13:25.000Z</time>
      </trkpt>
      <trkpt lat="45.31167" lon="4.55029">
        <ele>674</ele>
        <time>2026-05-11T13:13:26.000Z</time>
      </trkpt>
      <trkpt lat="45.31166" lon="4.55027">
        <ele>673.40002441406</ele>
        <time>2026-05-11T13:13:27.000Z</time>
      </trkpt>
      <trkpt lat="45.31164" lon="4.55025">
        <ele>672.79998779297</ele>
        <time>2026-05-11T13:13:28.000Z</time>
      </trkpt>
      <trkpt lat="45.31163" lon="4.55022">
        <ele>672.40002441406</ele>
        <time>2026-05-11T13:13:29.000Z</time>
      </trkpt>
      <trkpt lat="45.31161" lon="4.55019">
        <ele>672</ele>
        <time>2026-05-11T13:13:30.000Z</time>
      </trkpt>
      <trkpt lat="45.3116" lon="4.55016">
        <ele>671.59997558594</ele>
        <time>2026-05-11T13:13:31.000Z</time>
      </trkpt>
      <trkpt lat="45.31158" lon="4.55013">
        <ele>671.20001220703</ele>
        <time>2026-05-11T13:13:32.000Z</time>
      </trkpt>
      <trkpt lat="45.31156" lon="4.5501">
        <ele>671</ele>
        <time>2026-05-11T13:13:33.000Z</time>
      </trkpt>
      <trkpt lat="45.31154" lon="4.55007">
        <ele>670.59997558594</ele>
        <time>2026-05-11T13:13:34.000Z</time>
      </trkpt>
      <trkpt lat="45.31153" lon="4.55004">
        <ele>670.20001220703</ele>
        <time>2026-05-11T13:13:35.000Z</time>
      </trkpt>
      <trkpt lat="45.31151" lon="4.55001">
        <ele>670</ele>
        <time>2026-05-11T13:13:36.000Z</time>
      </trkpt>
      <trkpt lat="45.31149" lon="4.54997">
        <ele>669.59997558594</ele>
        <time>2026-05-11T13:13:37.000Z</time>
      </trkpt>
      <trkpt lat="45.31148" lon="4.54994">
        <ele>669.40002441406</ele>
        <time>2026-05-11T13:13:38.000Z</time>
      </trkpt>
      <trkpt lat="45.31146" lon="4.54991">
        <ele>669</ele>
        <time>2026-05-11T13:13:39.000Z</time>
      </trkpt>
      <trkpt lat="45.31144" lon="4.54989">
        <ele>668.59997558594</ele>
        <time>2026-05-11T13:13:40.000Z</time>
      </trkpt>
      <trkpt lat="45.31142" lon="4.54986">
        <ele>668.40002441406</ele>
        <time>2026-05-11T13:13:41.000Z</time>
      </trkpt>
      <trkpt lat="45.31141" lon="4.54984">
        <ele>668.20001220703</ele>
        <time>2026-05-11T13:13:42.000Z</time>
      </trkpt>
      <trkpt lat="45.31139" lon="4.54982">
        <ele>667.79998779297</ele>
        <time>2026-05-11T13:13:43.000Z</time>
      </trkpt>
      <trkpt lat="45.31137" lon="4.5498">
        <ele>667.59997558594</ele>
        <time>2026-05-11T13:13:44.000Z</time>
      </trkpt>
      <trkpt lat="45.31136" lon="4.54978">
        <ele>667.20001220703</ele>
        <time>2026-05-11T13:13:45.000Z</time>
      </trkpt>
      <trkpt lat="45.31134" lon="4.54976">
        <ele>666.79998779297</ele>
        <time>2026-05-11T13:13:46.000Z</time>
      </trkpt>
      <trkpt lat="45.31133" lon="4.54973">
        <ele>666.59997558594</ele>
        <time>2026-05-11T13:13:47.000Z</time>
      </trkpt>
      <trkpt lat="45.31131" lon="4.54971">
        <ele>666.20001220703</ele>
        <time>2026-05-11T13:13:48.000Z</time>
      </trkpt>
      <trkpt lat="45.3113" lon="4.54968">
        <ele>665.79998779297</ele>
        <time>2026-05-11T13:13:49.000Z</time>
      </trkpt>
      <trkpt lat="45.31129" lon="4.54966">
        <ele>665.59997558594</ele>
        <time>2026-05-11T13:13:50.000Z</time>
      </trkpt>
      <trkpt lat="45.31127" lon="4.54964">
        <ele>665.20001220703</ele>
        <time>2026-05-11T13:13:51.000Z</time>
      </trkpt>
      <trkpt lat="45.31125" lon="4.54962">
        <ele>664.79998779297</ele>
        <time>2026-05-11T13:13:52.000Z</time>
      </trkpt>
      <trkpt lat="45.31123" lon="4.54961">
        <ele>664.40002441406</ele>
        <time>2026-05-11T13:13:53.000Z</time>
      </trkpt>
      <trkpt lat="45.31121" lon="4.54959">
        <ele>664</ele>
        <time>2026-05-11T13:13:54.000Z</time>
      </trkpt>
      <trkpt lat="45.31118" lon="4.54958">
        <ele>663.79998779297</ele>
        <time>2026-05-11T13:13:55.000Z</time>
      </trkpt>
      <trkpt lat="45.31116" lon="4.54957">
        <ele>663.40002441406</ele>
        <time>2026-05-11T13:13:56.000Z</time>
      </trkpt>
      <trkpt lat="45.31114" lon="4.54955">
        <ele>663</ele>
        <time>2026-05-11T13:13:57.000Z</time>
      </trkpt>
      <trkpt lat="45.31112" lon="4.54954">
        <ele>662.40002441406</ele>
        <time>2026-05-11T13:13:58.000Z</time>
      </trkpt>
      <trkpt lat="45.31109" lon="4.54952">
        <ele>661.79998779297</ele>
        <time>2026-05-11T13:13:59.000Z</time>
      </trkpt>
      <trkpt lat="45.31107" lon="4.5495">
        <ele>661.20001220703</ele>
        <time>2026-05-11T13:14:00.000Z</time>
      </trkpt>
      <trkpt lat="45.31105" lon="4.54947">
        <ele>660.59997558594</ele>
        <time>2026-05-11T13:14:01.000Z</time>
      </trkpt>
      <trkpt lat="45.31103" lon="4.54944">
        <ele>660.20001220703</ele>
        <time>2026-05-11T13:14:02.000Z</time>
      </trkpt>
      <trkpt lat="45.31101" lon="4.54942">
        <ele>659.59997558594</ele>
        <time>2026-05-11T13:14:03.000Z</time>
      </trkpt>
      <trkpt lat="45.31098" lon="4.54939">
        <ele>659</ele>
        <time>2026-05-11T13:14:04.000Z</time>
      </trkpt>
      <trkpt lat="45.31095" lon="4.54937">
        <ele>658.59997558594</ele>
        <time>2026-05-11T13:14:05.000Z</time>
      </trkpt>
      <trkpt lat="45.31092" lon="4.54936">
        <ele>658</ele>
        <time>2026-05-11T13:14:06.000Z</time>
      </trkpt>
      <trkpt lat="45.31089" lon="4.54934">
        <ele>657.59997558594</ele>
        <time>2026-05-11T13:14:07.000Z</time>
      </trkpt>
      <trkpt lat="45.31087" lon="4.54932">
        <ele>657.20001220703</ele>
        <time>2026-05-11T13:14:08.000Z</time>
      </trkpt>
      <trkpt lat="45.31085" lon="4.54931">
        <ele>656.79998779297</ele>
        <time>2026-05-11T13:14:09.000Z</time>
      </trkpt>
      <trkpt lat="45.31083" lon="4.54929">
        <ele>656.20001220703</ele>
        <time>2026-05-11T13:14:10.000Z</time>
      </trkpt>
      <trkpt lat="45.31081" lon="4.54928">
        <ele>655.59997558594</ele>
        <time>2026-05-11T13:14:11.000Z</time>
      </trkpt>
      <trkpt lat="45.31078" lon="4.54926">
        <ele>655.20001220703</ele>
        <time>2026-05-11T13:14:12.000Z</time>
      </trkpt>
      <trkpt lat="45.31076" lon="4.54924">
        <ele>654.79998779297</ele>
        <time>2026-05-11T13:14:13.000Z</time>
      </trkpt>
      <trkpt lat="45.31074" lon="4.54923">
        <ele>654.20001220703</ele>
        <time>2026-05-11T13:14:14.000Z</time>
      </trkpt>
      <trkpt lat="45.31072" lon="4.54921">
        <ele>653.79998779297</ele>
        <time>2026-05-11T13:14:15.000Z</time>
      </trkpt>
      <trkpt lat="45.31069" lon="4.5492">
        <ele>653.20001220703</ele>
        <time>2026-05-11T13:14:16.000Z</time>
      </trkpt>
      <trkpt lat="45.31066" lon="4.54918">
        <ele>652.79998779297</ele>
        <time>2026-05-11T13:14:17.000Z</time>
      </trkpt>
      <trkpt lat="45.31063" lon="4.54917">
        <ele>652.20001220703</ele>
        <time>2026-05-11T13:14:18.000Z</time>
      </trkpt>
      <trkpt lat="45.31061" lon="4.54916">
        <ele>651.79998779297</ele>
        <time>2026-05-11T13:14:19.000Z</time>
      </trkpt>
      <trkpt lat="45.31059" lon="4.54915">
        <ele>651.40002441406</ele>
        <time>2026-05-11T13:14:20.000Z</time>
      </trkpt>
      <trkpt lat="45.31057" lon="4.54914">
        <ele>651</ele>
        <time>2026-05-11T13:14:21.000Z</time>
      </trkpt>
      <trkpt lat="45.31055" lon="4.54913">
        <ele>650.59997558594</ele>
        <time>2026-05-11T13:14:22.000Z</time>
      </trkpt>
      <trkpt lat="45.31052" lon="4.54913">
        <ele>650</ele>
        <time>2026-05-11T13:14:23.000Z</time>
      </trkpt>
      <trkpt lat="45.31049" lon="4.54913">
        <ele>649.59997558594</ele>
        <time>2026-05-11T13:14:24.000Z</time>
      </trkpt>
      <trkpt lat="45.31046" lon="4.54913">
        <ele>649.20001220703</ele>
        <time>2026-05-11T13:14:25.000Z</time>
      </trkpt>
      <trkpt lat="45.31043" lon="4.54913">
        <ele>648.59997558594</ele>
        <time>2026-05-11T13:14:26.000Z</time>
      </trkpt>
      <trkpt lat="45.3104" lon="4.54913">
        <ele>648</ele>
        <time>2026-05-11T13:14:27.000Z</time>
      </trkpt>
      <trkpt lat="45.31037" lon="4.54913">
        <ele>647.40002441406</ele>
        <time>2026-05-11T13:14:28.000Z</time>
      </trkpt>
      <trkpt lat="45.31035" lon="4.54912">
        <ele>647</ele>
        <time>2026-05-11T13:14:29.000Z</time>
      </trkpt>
      <trkpt lat="45.31032" lon="4.54912">
        <ele>646.40002441406</ele>
        <time>2026-05-11T13:14:30.000Z</time>
      </trkpt>
      <trkpt lat="45.31029" lon="4.54911">
        <ele>646</ele>
        <time>2026-05-11T13:14:31.000Z</time>
      </trkpt>
      <trkpt lat="45.31026" lon="4.54911">
        <ele>645.40002441406</ele>
        <time>2026-05-11T13:14:32.000Z</time>
      </trkpt>
      <trkpt lat="45.31023" lon="4.5491">
        <ele>644.79998779297</ele>
        <time>2026-05-11T13:14:33.000Z</time>
      </trkpt>
      <trkpt lat="45.31021" lon="4.54909">
        <ele>644.20001220703</ele>
        <time>2026-05-11T13:14:34.000Z</time>
      </trkpt>
      <trkpt lat="45.31018" lon="4.54908">
        <ele>643.59997558594</ele>
        <time>2026-05-11T13:14:35.000Z</time>
      </trkpt>
      <trkpt lat="45.31015" lon="4.54907">
        <ele>643.20001220703</ele>
        <time>2026-05-11T13:14:36.000Z</time>
      </trkpt>
      <trkpt lat="45.31011" lon="4.54906">
        <ele>642.59997558594</ele>
        <time>2026-05-11T13:14:37.000Z</time>
      </trkpt>
      <trkpt lat="45.31009" lon="4.54905">
        <ele>642.20001220703</ele>
        <time>2026-05-11T13:14:38.000Z</time>
      </trkpt>
      <trkpt lat="45.31006" lon="4.54904">
        <ele>641.59997558594</ele>
        <time>2026-05-11T13:14:39.000Z</time>
      </trkpt>
      <trkpt lat="45.31003" lon="4.54903">
        <ele>641</ele>
        <time>2026-05-11T13:14:40.000Z</time>
      </trkpt>
      <trkpt lat="45.30999" lon="4.54901">
        <ele>640.59997558594</ele>
        <time>2026-05-11T13:14:41.000Z</time>
      </trkpt>
      <trkpt lat="45.30996" lon="4.54899">
        <ele>640.20001220703</ele>
        <time>2026-05-11T13:14:42.000Z</time>
      </trkpt>
      <trkpt lat="45.30993" lon="4.54898">
        <ele>639.79998779297</ele>
        <time>2026-05-11T13:14:43.000Z</time>
      </trkpt>
      <trkpt lat="45.3099" lon="4.54896">
        <ele>639.40002441406</ele>
        <time>2026-05-11T13:14:44.000Z</time>
      </trkpt>
      <trkpt lat="45.30987" lon="4.54895">
        <ele>638.79998779297</ele>
        <time>2026-05-11T13:14:45.000Z</time>
      </trkpt>
      <trkpt lat="45.30984" lon="4.54894">
        <ele>638.40002441406</ele>
        <time>2026-05-11T13:14:46.000Z</time>
      </trkpt>
      <trkpt lat="45.30981" lon="4.54893">
        <ele>638</ele>
        <time>2026-05-11T13:14:47.000Z</time>
      </trkpt>
      <trkpt lat="45.30978" lon="4.54893">
        <ele>637.59997558594</ele>
        <time>2026-05-11T13:14:48.000Z</time>
      </trkpt>
      <trkpt lat="45.30975" lon="4.54892">
        <ele>637.20001220703</ele>
        <time>2026-05-11T13:14:49.000Z</time>
      </trkpt>
      <trkpt lat="45.30972" lon="4.54892">
        <ele>636.79998779297</ele>
        <time>2026-05-11T13:14:50.000Z</time>
      </trkpt>
      <trkpt lat="45.30969" lon="4.54891">
        <ele>636.20001220703</ele>
        <time>2026-05-11T13:14:51.000Z</time>
      </trkpt>
      <trkpt lat="45.30966" lon="4.54891">
        <ele>635.79998779297</ele>
        <time>2026-05-11T13:14:52.000Z</time>
      </trkpt>
      <trkpt lat="45.30963" lon="4.5489">
        <ele>635.40002441406</ele>
        <time>2026-05-11T13:14:53.000Z</time>
      </trkpt>
      <trkpt lat="45.3096" lon="4.5489">
        <ele>634.79998779297</ele>
        <time>2026-05-11T13:14:54.000Z</time>
      </trkpt>
      <trkpt lat="45.30957" lon="4.5489">
        <ele>634.40002441406</ele>
        <time>2026-05-11T13:14:55.000Z</time>
      </trkpt>
      <trkpt lat="45.30954" lon="4.54891">
        <ele>633.79998779297</ele>
        <time>2026-05-11T13:14:56.000Z</time>
      </trkpt>
      <trkpt lat="45.30951" lon="4.54891">
        <ele>633.20001220703</ele>
        <time>2026-05-11T13:14:57.000Z</time>
      </trkpt>
      <trkpt lat="45.30948" lon="4.54892">
        <ele>632.59997558594</ele>
        <time>2026-05-11T13:14:58.000Z</time>
      </trkpt>
      <trkpt lat="45.30945" lon="4.54892">
        <ele>632</ele>
        <time>2026-05-11T13:14:59.000Z</time>
      </trkpt>
      <trkpt lat="45.30943" lon="4.54892">
        <ele>631.40002441406</ele>
        <time>2026-05-11T13:15:00.000Z</time>
      </trkpt>
      <trkpt lat="45.3094" lon="4.54892">
        <ele>630.79998779297</ele>
        <time>2026-05-11T13:15:01.000Z</time>
      </trkpt>
      <trkpt lat="45.30938" lon="4.54893">
        <ele>630.20001220703</ele>
        <time>2026-05-11T13:15:02.000Z</time>
      </trkpt>
      <trkpt lat="45.30935" lon="4.54893">
        <ele>629.59997558594</ele>
        <time>2026-05-11T13:15:03.000Z</time>
      </trkpt>
      <trkpt lat="45.30933" lon="4.54893">
        <ele>629</ele>
        <time>2026-05-11T13:15:04.000Z</time>
      </trkpt>
      <trkpt lat="45.3093" lon="4.54893">
        <ele>628.40002441406</ele>
        <time>2026-05-11T13:15:05.000Z</time>
      </trkpt>
      <trkpt lat="45.30927" lon="4.54895">
        <ele>628</ele>
        <time>2026-05-11T13:15:06.000Z</time>
      </trkpt>
      <trkpt lat="45.30924" lon="4.54895">
        <ele>627.40002441406</ele>
        <time>2026-05-11T13:15:07.000Z</time>
      </trkpt>
      <trkpt lat="45.30921" lon="4.54897">
        <ele>626.79998779297</ele>
        <time>2026-05-11T13:15:08.000Z</time>
      </trkpt>
      <trkpt lat="45.30918" lon="4.54899">
        <ele>626.20001220703</ele>
        <time>2026-05-11T13:15:09.000Z</time>
      </trkpt>
      <trkpt lat="45.30914" lon="4.54901">
        <ele>625.59997558594</ele>
        <time>2026-05-11T13:15:10.000Z</time>
      </trkpt>
      <trkpt lat="45.3091" lon="4.54904">
        <ele>625.20001220703</ele>
        <time>2026-05-11T13:15:11.000Z</time>
      </trkpt>
      <trkpt lat="45.30906" lon="4.54905">
        <ele>624.59997558594</ele>
        <time>2026-05-11T13:15:12.000Z</time>
      </trkpt>
      <trkpt lat="45.309" lon="4.54907">
        <ele>624</ele>
        <time>2026-05-11T13:15:13.000Z</time>
      </trkpt>
      <trkpt lat="45.30895" lon="4.5491">
        <ele>623.40002441406</ele>
        <time>2026-05-11T13:15:14.000Z</time>
      </trkpt>
      <trkpt lat="45.30889" lon="4.54914">
        <ele>622.79998779297</ele>
        <time>2026-05-11T13:15:15.000Z</time>
      </trkpt>
      <trkpt lat="45.30883" lon="4.54917">
        <ele>622.20001220703</ele>
        <time>2026-05-11T13:15:16.000Z</time>
      </trkpt>
      <trkpt lat="45.30877" lon="4.54921">
        <ele>621.59997558594</ele>
        <time>2026-05-11T13:15:17.000Z</time>
      </trkpt>
      <trkpt lat="45.3087" lon="4.54924">
        <ele>620.79998779297</ele>
        <time>2026-05-11T13:15:18.000Z</time>
      </trkpt>
      <trkpt lat="45.30864" lon="4.54928">
        <ele>620.20001220703</ele>
        <time>2026-05-11T13:15:19.000Z</time>
      </trkpt>
      <trkpt lat="45.30858" lon="4.54931">
        <ele>619.40002441406</ele>
        <time>2026-05-11T13:15:20.000Z</time>
      </trkpt>
      <trkpt lat="45.30852" lon="4.54934">
        <ele>618.79998779297</ele>
        <time>2026-05-11T13:15:21.000Z</time>
      </trkpt>
      <trkpt lat="45.30847" lon="4.54936">
        <ele>618</ele>
        <time>2026-05-11T13:15:22.000Z</time>
      </trkpt>
      <trkpt lat="45.30841" lon="4.54939">
        <ele>617.59997558594</ele>
        <time>2026-05-11T13:15:23.000Z</time>
      </trkpt>
      <trkpt lat="45.30836" lon="4.5494">
        <ele>617</ele>
        <time>2026-05-11T13:15:24.000Z</time>
      </trkpt>
      <trkpt lat="45.3083" lon="4.54941">
        <ele>616.59997558594</ele>
        <time>2026-05-11T13:15:25.000Z</time>
      </trkpt>
      <trkpt lat="45.30824" lon="4.54943">
        <ele>616</ele>
        <time>2026-05-11T13:15:26.000Z</time>
      </trkpt>
      <trkpt lat="45.30819" lon="4.54945">
        <ele>615.40002441406</ele>
        <time>2026-05-11T13:15:27.000Z</time>
      </trkpt>
      <trkpt lat="45.30812" lon="4.54947">
        <ele>615</ele>
        <time>2026-05-11T13:15:28.000Z</time>
      </trkpt>
      <trkpt lat="45.30806" lon="4.54948">
        <ele>614.40002441406</ele>
        <time>2026-05-11T13:15:29.000Z</time>
      </trkpt>
      <trkpt lat="45.30799" lon="4.5495">
        <ele>613.79998779297</ele>
        <time>2026-05-11T13:15:30.000Z</time>
      </trkpt>
      <trkpt lat="45.30786" lon="4.54954">
        <ele>613.40002441406</ele>
        <time>2026-05-11T13:15:31.000Z</time>
      </trkpt>
      <trkpt lat="45.30786" lon="4.54954">
        <ele>612.79998779297</ele>
        <time>2026-05-11T13:15:32.000Z</time>
      </trkpt>
      <trkpt lat="45.3078" lon="4.54955">
        <ele>612.20001220703</ele>
        <time>2026-05-11T13:15:33.000Z</time>
      </trkpt>
      <trkpt lat="45.30774" lon="4.54957">
        <ele>611.79998779297</ele>
        <time>2026-05-11T13:15:34.000Z</time>
      </trkpt>
      <trkpt lat="45.30768" lon="4.54959">
        <ele>611.40002441406</ele>
        <time>2026-05-11T13:15:35.000Z</time>
      </trkpt>
      <trkpt lat="45.30763" lon="4.54962">
        <ele>611.20001220703</ele>
        <time>2026-05-11T13:15:36.000Z</time>
      </trkpt>
      <trkpt lat="45.30758" lon="4.54963">
        <ele>611</ele>
        <time>2026-05-11T13:15:37.000Z</time>
      </trkpt>
      <trkpt lat="45.30754" lon="4.54966">
        <ele>610.79998779297</ele>
        <time>2026-05-11T13:15:38.000Z</time>
      </trkpt>
      <trkpt lat="45.3075" lon="4.54969">
        <ele>610.59997558594</ele>
        <time>2026-05-11T13:15:39.000Z</time>
      </trkpt>
      <trkpt lat="45.30747" lon="4.54971">
        <ele>610.59997558594</ele>
        <time>2026-05-11T13:15:40.000Z</time>
      </trkpt>
      <trkpt lat="45.30744" lon="4.54974">
        <ele>610.59997558594</ele>
        <time>2026-05-11T13:15:41.000Z</time>
      </trkpt>
      <trkpt lat="45.30742" lon="4.54976">
        <ele>610.79998779297</ele>
        <time>2026-05-11T13:15:42.000Z</time>
      </trkpt>
      <trkpt lat="45.3074" lon="4.54979">
        <ele>610.79998779297</ele>
        <time>2026-05-11T13:15:43.000Z</time>
      </trkpt>
      <trkpt lat="45.30737" lon="4.54981">
        <ele>611</ele>
        <time>2026-05-11T13:15:44.000Z</time>
      </trkpt>
      <trkpt lat="45.30734" lon="4.54984">
        <ele>611</ele>
        <time>2026-05-11T13:15:45.000Z</time>
      </trkpt>
      <trkpt lat="45.30731" lon="4.54987">
        <ele>611</ele>
        <time>2026-05-11T13:15:46.000Z</time>
      </trkpt>
      <trkpt lat="45.30727" lon="4.54991">
        <ele>610.79998779297</ele>
        <time>2026-05-11T13:15:47.000Z</time>
      </trkpt>
      <trkpt lat="45.30722" lon="4.54993">
        <ele>610.59997558594</ele>
        <time>2026-05-11T13:15:48.000Z</time>
      </trkpt>
      <trkpt lat="45.30716" lon="4.54996">
        <ele>610.40002441406</ele>
        <time>2026-05-11T13:15:49.000Z</time>
      </trkpt>
      <trkpt lat="45.30711" lon="4.54998">
        <ele>610</ele>
        <time>2026-05-11T13:15:50.000Z</time>
      </trkpt>
      <trkpt lat="45.30705" lon="4.55">
        <ele>609.59997558594</ele>
        <time>2026-05-11T13:15:51.000Z</time>
      </trkpt>
      <trkpt lat="45.30699" lon="4.55001">
        <ele>609.20001220703</ele>
        <time>2026-05-11T13:15:52.000Z</time>
      </trkpt>
      <trkpt lat="45.30692" lon="4.55002">
        <ele>608.79998779297</ele>
        <time>2026-05-11T13:15:53.000Z</time>
      </trkpt>
      <trkpt lat="45.30686" lon="4.55003">
        <ele>608.40002441406</ele>
        <time>2026-05-11T13:15:54.000Z</time>
      </trkpt>
      <trkpt lat="45.3068" lon="4.55005">
        <ele>607.79998779297</ele>
        <time>2026-05-11T13:15:55.000Z</time>
      </trkpt>
      <trkpt lat="45.30674" lon="4.55006">
        <ele>607.40002441406</ele>
        <time>2026-05-11T13:15:56.000Z</time>
      </trkpt>
      <trkpt lat="45.30668" lon="4.55007">
        <ele>607</ele>
        <time>2026-05-11T13:15:57.000Z</time>
      </trkpt>
      <trkpt lat="45.30663" lon="4.55008">
        <ele>606.59997558594</ele>
        <time>2026-05-11T13:15:58.000Z</time>
      </trkpt>
      <trkpt lat="45.30658" lon="4.55009">
        <ele>606.20001220703</ele>
        <time>2026-05-11T13:15:59.000Z</time>
      </trkpt>
      <trkpt lat="45.30652" lon="4.55011">
        <ele>605.79998779297</ele>
        <time>2026-05-11T13:16:00.000Z</time>
      </trkpt>
      <trkpt lat="45.30648" lon="4.55014">
        <ele>605.40002441406</ele>
        <time>2026-05-11T13:16:01.000Z</time>
      </trkpt>
      <trkpt lat="45.30643" lon="4.55016">
        <ele>605</ele>
        <time>2026-05-11T13:16:02.000Z</time>
      </trkpt>
      <trkpt lat="45.30638" lon="4.55018">
        <ele>604.79998779297</ele>
        <time>2026-05-11T13:16:03.000Z</time>
      </trkpt>
      <trkpt lat="45.30632" lon="4.5502">
        <ele>604.40002441406</ele>
        <time>2026-05-11T13:16:04.000Z</time>
      </trkpt>
      <trkpt lat="45.30625" lon="4.55022">
        <ele>604.20001220703</ele>
        <time>2026-05-11T13:16:05.000Z</time>
      </trkpt>
      <trkpt lat="45.30618" lon="4.55023">
        <ele>603.79998779297</ele>
        <time>2026-05-11T13:16:06.000Z</time>
      </trkpt>
      <trkpt lat="45.30612" lon="4.55026">
        <ele>603.20001220703</ele>
        <time>2026-05-11T13:16:07.000Z</time>
      </trkpt>
      <trkpt lat="45.30608" lon="4.55027">
        <ele>602.79998779297</ele>
        <time>2026-05-11T13:16:08.000Z</time>
      </trkpt>
      <trkpt lat="45.30604" lon="4.55029">
        <ele>602.20001220703</ele>
        <time>2026-05-11T13:16:09.000Z</time>
      </trkpt>
      <trkpt lat="45.306" lon="4.55032">
        <ele>601.79998779297</ele>
        <time>2026-05-11T13:16:10.000Z</time>
      </trkpt>
      <trkpt lat="45.30597" lon="4.55035">
        <ele>601.40002441406</ele>
        <time>2026-05-11T13:16:11.000Z</time>
      </trkpt>
      <trkpt lat="45.30593" lon="4.55038">
        <ele>600.79998779297</ele>
        <time>2026-05-11T13:16:12.000Z</time>
      </trkpt>
      <trkpt lat="45.30589" lon="4.55042">
        <ele>600.20001220703</ele>
        <time>2026-05-11T13:16:13.000Z</time>
      </trkpt>
      <trkpt lat="45.30585" lon="4.55046">
        <ele>599.40002441406</ele>
        <time>2026-05-11T13:16:14.000Z</time>
      </trkpt>
      <trkpt lat="45.30581" lon="4.55051">
        <ele>598.59997558594</ele>
        <time>2026-05-11T13:16:15.000Z</time>
      </trkpt>
      <trkpt lat="45.30577" lon="4.55057">
        <ele>597.79998779297</ele>
        <time>2026-05-11T13:16:16.000Z</time>
      </trkpt>
      <trkpt lat="45.30574" lon="4.55064">
        <ele>597</ele>
        <time>2026-05-11T13:16:17.000Z</time>
      </trkpt>
      <trkpt lat="45.30569" lon="4.55071">
        <ele>596</ele>
        <time>2026-05-11T13:16:18.000Z</time>
      </trkpt>
      <trkpt lat="45.30564" lon="4.55077">
        <ele>595.20001220703</ele>
        <time>2026-05-11T13:16:19.000Z</time>
      </trkpt>
      <trkpt lat="45.3056" lon="4.55084">
        <ele>594</ele>
        <time>2026-05-11T13:16:20.000Z</time>
      </trkpt>
      <trkpt lat="45.30556" lon="4.5509">
        <ele>593.20001220703</ele>
        <time>2026-05-11T13:16:21.000Z</time>
      </trkpt>
      <trkpt lat="45.30552" lon="4.55095">
        <ele>592.20001220703</ele>
        <time>2026-05-11T13:16:22.000Z</time>
      </trkpt>
      <trkpt lat="45.3055" lon="4.551">
        <ele>591.59997558594</ele>
        <time>2026-05-11T13:16:23.000Z</time>
      </trkpt>
      <trkpt lat="45.3055" lon="4.55104">
        <ele>590.79998779297</ele>
        <time>2026-05-11T13:16:24.000Z</time>
      </trkpt>
      <trkpt lat="45.30551" lon="4.55109">
        <ele>590.20001220703</ele>
        <time>2026-05-11T13:16:25.000Z</time>
      </trkpt>
      <trkpt lat="45.30554" lon="4.55111">
        <ele>589.59997558594</ele>
        <time>2026-05-11T13:16:26.000Z</time>
      </trkpt>
      <trkpt lat="45.30557" lon="4.55112">
        <ele>589</ele>
        <time>2026-05-11T13:16:27.000Z</time>
      </trkpt>
      <trkpt lat="45.30559" lon="4.55113">
        <ele>588.59997558594</ele>
        <time>2026-05-11T13:16:28.000Z</time>
      </trkpt>
      <trkpt lat="45.30562" lon="4.55115">
        <ele>588.20001220703</ele>
        <time>2026-05-11T13:16:29.000Z</time>
      </trkpt>
      <trkpt lat="45.30565" lon="4.55118">
        <ele>587.59997558594</ele>
        <time>2026-05-11T13:16:30.000Z</time>
      </trkpt>
      <trkpt lat="45.30567" lon="4.5512">
        <ele>587.20001220703</ele>
        <time>2026-05-11T13:16:31.000Z</time>
      </trkpt>
      <trkpt lat="45.30569" lon="4.55123">
        <ele>586.79998779297</ele>
        <time>2026-05-11T13:16:32.000Z</time>
      </trkpt>
      <trkpt lat="45.30572" lon="4.55126">
        <ele>586.79998779297</ele>
        <time>2026-05-11T13:16:33.000Z</time>
      </trkpt>
      <trkpt lat="45.30574" lon="4.55129">
        <ele>586.59997558594</ele>
        <time>2026-05-11T13:16:34.000Z</time>
      </trkpt>
      <trkpt lat="45.30577" lon="4.55132">
        <ele>586.79998779297</ele>
        <time>2026-05-11T13:16:35.000Z</time>
      </trkpt>
      <trkpt lat="45.3058" lon="4.55135">
        <ele>586.79998779297</ele>
        <time>2026-05-11T13:16:36.000Z</time>
      </trkpt>
      <trkpt lat="45.30583" lon="4.55137">
        <ele>587</ele>
        <time>2026-05-11T13:16:37.000Z</time>
      </trkpt>
      <trkpt lat="45.30586" lon="4.5514">
        <ele>587</ele>
        <time>2026-05-11T13:16:38.000Z</time>
      </trkpt>
      <trkpt lat="45.30589" lon="4.55141">
        <ele>587</ele>
        <time>2026-05-11T13:16:39.000Z</time>
      </trkpt>
      <trkpt lat="45.30592" lon="4.55142">
        <ele>587</ele>
        <time>2026-05-11T13:16:40.000Z</time>
      </trkpt>
      <trkpt lat="45.30595" lon="4.55143">
        <ele>586.79998779297</ele>
        <time>2026-05-11T13:16:41.000Z</time>
      </trkpt>
      <trkpt lat="45.30598" lon="4.55143">
        <ele>586.79998779297</ele>
        <time>2026-05-11T13:16:42.000Z</time>
      </trkpt>
      <trkpt lat="45.30601" lon="4.55142">
        <ele>586.79998779297</ele>
        <time>2026-05-11T13:16:43.000Z</time>
      </trkpt>
      <trkpt lat="45.30603" lon="4.55142">
        <ele>586.79998779297</ele>
        <time>2026-05-11T13:16:44.000Z</time>
      </trkpt>
      <trkpt lat="45.30606" lon="4.55141">
        <ele>586.79998779297</ele>
        <time>2026-05-11T13:16:45.000Z</time>
      </trkpt>
      <trkpt lat="45.30608" lon="4.55141">
        <ele>586.79998779297</ele>
        <time>2026-05-11T13:16:46.000Z</time>
      </trkpt>
      <trkpt lat="45.30611" lon="4.5514">
        <ele>586.79998779297</ele>
        <time>2026-05-11T13:16:47.000Z</time>
      </trkpt>
      <trkpt lat="45.30614" lon="4.55139">
        <ele>587</ele>
        <time>2026-05-11T13:16:48.000Z</time>
      </trkpt>
      <trkpt lat="45.30616" lon="4.55138">
        <ele>587</ele>
        <time>2026-05-11T13:16:49.000Z</time>
      </trkpt>
      <trkpt lat="45.30619" lon="4.55137">
        <ele>587.20001220703</ele>
        <time>2026-05-11T13:16:50.000Z</time>
      </trkpt>
      <trkpt lat="45.30622" lon="4.55136">
        <ele>587.20001220703</ele>
        <time>2026-05-11T13:16:51.000Z</time>
      </trkpt>
      <trkpt lat="45.30625" lon="4.55136">
        <ele>587.20001220703</ele>
        <time>2026-05-11T13:16:52.000Z</time>
      </trkpt>
      <trkpt lat="45.30627" lon="4.55135">
        <ele>587.40002441406</ele>
        <time>2026-05-11T13:16:53.000Z</time>
      </trkpt>
      <trkpt lat="45.3063" lon="4.55134">
        <ele>587.59997558594</ele>
        <time>2026-05-11T13:16:54.000Z</time>
      </trkpt>
      <trkpt lat="45.30633" lon="4.55134">
        <ele>587.59997558594</ele>
        <time>2026-05-11T13:16:55.000Z</time>
      </trkpt>
      <trkpt lat="45.30635" lon="4.55133">
        <ele>587.79998779297</ele>
        <time>2026-05-11T13:16:56.000Z</time>
      </trkpt>
      <trkpt lat="45.30638" lon="4.55132">
        <ele>587.79998779297</ele>
        <time>2026-05-11T13:16:57.000Z</time>
      </trkpt>
      <trkpt lat="45.3064" lon="4.55132">
        <ele>588</ele>
        <time>2026-05-11T13:16:58.000Z</time>
      </trkpt>
      <trkpt lat="45.30643" lon="4.55131">
        <ele>588</ele>
        <time>2026-05-11T13:16:59.000Z</time>
      </trkpt>
      <trkpt lat="45.30646" lon="4.5513">
        <ele>588</ele>
        <time>2026-05-11T13:17:00.000Z</time>
      </trkpt>
      <trkpt lat="45.30648" lon="4.55129">
        <ele>588.20001220703</ele>
        <time>2026-05-11T13:17:01.000Z</time>
      </trkpt>
      <trkpt lat="45.30651" lon="4.55128">
        <ele>588.20001220703</ele>
        <time>2026-05-11T13:17:02.000Z</time>
      </trkpt>
      <trkpt lat="45.30654" lon="4.55127">
        <ele>588.40002441406</ele>
        <time>2026-05-11T13:17:03.000Z</time>
      </trkpt>
      <trkpt lat="45.30656" lon="4.55127">
        <ele>588.40002441406</ele>
        <time>2026-05-11T13:17:04.000Z</time>
      </trkpt>
      <trkpt lat="45.30659" lon="4.55126">
        <ele>588.59997558594</ele>
        <time>2026-05-11T13:17:05.000Z</time>
      </trkpt>
      <trkpt lat="45.30661" lon="4.55126">
        <ele>588.59997558594</ele>
        <time>2026-05-11T13:17:06.000Z</time>
      </trkpt>
      <trkpt lat="45.30664" lon="4.55125">
        <ele>588.79998779297</ele>
        <time>2026-05-11T13:17:07.000Z</time>
      </trkpt>
      <trkpt lat="45.30666" lon="4.55124">
        <ele>589</ele>
        <time>2026-05-11T13:17:08.000Z</time>
      </trkpt>
      <trkpt lat="45.30669" lon="4.55124">
        <ele>589</ele>
        <time>2026-05-11T13:17:09.000Z</time>
      </trkpt>
      <trkpt lat="45.30671" lon="4.55123">
        <ele>589</ele>
        <time>2026-05-11T13:17:10.000Z</time>
      </trkpt>
      <trkpt lat="45.30673" lon="4.55122">
        <ele>589.20001220703</ele>
        <time>2026-05-11T13:17:11.000Z</time>
      </trkpt>
      <trkpt lat="45.30675" lon="4.55122">
        <ele>589.40002441406</ele>
        <time>2026-05-11T13:17:12.000Z</time>
      </trkpt>
      <trkpt lat="45.30678" lon="4.55121">
        <ele>589.40002441406</ele>
        <time>2026-05-11T13:17:13.000Z</time>
      </trkpt>
      <trkpt lat="45.3068" lon="4.55121">
        <ele>589.59997558594</ele>
        <time>2026-05-11T13:17:14.000Z</time>
      </trkpt>
      <trkpt lat="45.30682" lon="4.55121">
        <ele>589.79998779297</ele>
        <time>2026-05-11T13:17:15.000Z</time>
      </trkpt>
      <trkpt lat="45.30684" lon="4.55121">
        <ele>590</ele>
        <time>2026-05-11T13:17:16.000Z</time>
      </trkpt>
      <trkpt lat="45.30687" lon="4.55121">
        <ele>590.20001220703</ele>
        <time>2026-05-11T13:17:17.000Z</time>
      </trkpt>
      <trkpt lat="45.30689" lon="4.5512">
        <ele>590.40002441406</ele>
        <time>2026-05-11T13:17:18.000Z</time>
      </trkpt>
      <trkpt lat="45.30692" lon="4.5512">
        <ele>590.79998779297</ele>
        <time>2026-05-11T13:17:19.000Z</time>
      </trkpt>
      <trkpt lat="45.30694" lon="4.5512">
        <ele>591</ele>
        <time>2026-05-11T13:17:20.000Z</time>
      </trkpt>
      <trkpt lat="45.30696" lon="4.5512">
        <ele>591.20001220703</ele>
        <time>2026-05-11T13:17:21.000Z</time>
      </trkpt>
      <trkpt lat="45.30699" lon="4.55119">
        <ele>591.40002441406</ele>
        <time>2026-05-11T13:17:22.000Z</time>
      </trkpt>
      <trkpt lat="45.30701" lon="4.55119">
        <ele>591.40002441406</ele>
        <time>2026-05-11T13:17:23.000Z</time>
      </trkpt>
      <trkpt lat="45.30704" lon="4.55119">
        <ele>591.40002441406</ele>
        <time>2026-05-11T13:17:24.000Z</time>
      </trkpt>
      <trkpt lat="45.30709" lon="4.55119">
        <ele>591.59997558594</ele>
        <time>2026-05-11T13:17:25.000Z</time>
      </trkpt>
      <trkpt lat="45.30709" lon="4.55119">
        <ele>591.59997558594</ele>
        <time>2026-05-11T13:17:26.000Z</time>
      </trkpt>
      <trkpt lat="45.30711" lon="4.55119">
        <ele>591.59997558594</ele>
        <time>2026-05-11T13:17:27.000Z</time>
      </trkpt>
      <trkpt lat="45.30714" lon="4.55119">
        <ele>591.79998779297</ele>
        <time>2026-05-11T13:17:28.000Z</time>
      </trkpt>
      <trkpt lat="45.30716" lon="4.55119">
        <ele>591.79998779297</ele>
        <time>2026-05-11T13:17:29.000Z</time>
      </trkpt>
      <trkpt lat="45.30719" lon="4.55118">
        <ele>592</ele>
        <time>2026-05-11T13:17:30.000Z</time>
      </trkpt>
      <trkpt lat="45.30721" lon="4.55118">
        <ele>592</ele>
        <time>2026-05-11T13:17:31.000Z</time>
      </trkpt>
      <trkpt lat="45.30723" lon="4.55118">
        <ele>592</ele>
        <time>2026-05-11T13:17:32.000Z</time>
      </trkpt>
      <trkpt lat="45.30726" lon="4.55118">
        <ele>592.20001220703</ele>
        <time>2026-05-11T13:17:33.000Z</time>
      </trkpt>
      <trkpt lat="45.30728" lon="4.55118">
        <ele>592.40002441406</ele>
        <time>2026-05-11T13:17:34.000Z</time>
      </trkpt>
      <trkpt lat="45.3073" lon="4.55118">
        <ele>592.40002441406</ele>
        <time>2026-05-11T13:17:35.000Z</time>
      </trkpt>
      <trkpt lat="45.30732" lon="4.55119">
        <ele>592.59997558594</ele>
        <time>2026-05-11T13:17:36.000Z</time>
      </trkpt>
      <trkpt lat="45.30735" lon="4.55119">
        <ele>592.59997558594</ele>
        <time>2026-05-11T13:17:37.000Z</time>
      </trkpt>
      <trkpt lat="45.30737" lon="4.5512">
        <ele>592.79998779297</ele>
        <time>2026-05-11T13:17:38.000Z</time>
      </trkpt>
      <trkpt lat="45.3074" lon="4.55121">
        <ele>592.79998779297</ele>
        <time>2026-05-11T13:17:39.000Z</time>
      </trkpt>
      <trkpt lat="45.30742" lon="4.55122">
        <ele>593</ele>
        <time>2026-05-11T13:17:40.000Z</time>
      </trkpt>
      <trkpt lat="45.30744" lon="4.55122">
        <ele>593</ele>
        <time>2026-05-11T13:17:41.000Z</time>
      </trkpt>
      <trkpt lat="45.30747" lon="4.55123">
        <ele>593.20001220703</ele>
        <time>2026-05-11T13:17:42.000Z</time>
      </trkpt>
      <trkpt lat="45.30749" lon="4.55124">
        <ele>593.40002441406</ele>
        <time>2026-05-11T13:17:43.000Z</time>
      </trkpt>
      <trkpt lat="45.30751" lon="4.55125">
        <ele>593.40002441406</ele>
        <time>2026-05-11T13:17:44.000Z</time>
      </trkpt>
      <trkpt lat="45.30753" lon="4.55126">
        <ele>593.59997558594</ele>
        <time>2026-05-11T13:17:45.000Z</time>
      </trkpt>
      <trkpt lat="45.30755" lon="4.55127">
        <ele>593.79998779297</ele>
        <time>2026-05-11T13:17:46.000Z</time>
      </trkpt>
      <trkpt lat="45.30757" lon="4.55128">
        <ele>594</ele>
        <time>2026-05-11T13:17:47.000Z</time>
      </trkpt>
      <trkpt lat="45.30758" lon="4.55129">
        <ele>594.40002441406</ele>
        <time>2026-05-11T13:17:48.000Z</time>
      </trkpt>
      <trkpt lat="45.30761" lon="4.5513">
        <ele>594.79998779297</ele>
        <time>2026-05-11T13:17:49.000Z</time>
      </trkpt>
      <trkpt lat="45.30763" lon="4.5513">
        <ele>595</ele>
        <time>2026-05-11T13:17:50.000Z</time>
      </trkpt>
      <trkpt lat="45.30765" lon="4.55131">
        <ele>595.40002441406</ele>
        <time>2026-05-11T13:17:51.000Z</time>
      </trkpt>
      <trkpt lat="45.30767" lon="4.55131">
        <ele>595.79998779297</ele>
        <time>2026-05-11T13:17:52.000Z</time>
      </trkpt>
      <trkpt lat="45.30769" lon="4.55132">
        <ele>596</ele>
        <time>2026-05-11T13:17:53.000Z</time>
      </trkpt>
      <trkpt lat="45.30771" lon="4.55133">
        <ele>596.40002441406</ele>
        <time>2026-05-11T13:17:54.000Z</time>
      </trkpt>
      <trkpt lat="45.30773" lon="4.55134">
        <ele>596.59997558594</ele>
        <time>2026-05-11T13:17:55.000Z</time>
      </trkpt>
      <trkpt lat="45.30776" lon="4.55135">
        <ele>597</ele>
        <time>2026-05-11T13:17:56.000Z</time>
      </trkpt>
      <trkpt lat="45.30778" lon="4.55137">
        <ele>597.20001220703</ele>
        <time>2026-05-11T13:17:57.000Z</time>
      </trkpt>
      <trkpt lat="45.30781" lon="4.55138">
        <ele>597.40002441406</ele>
        <time>2026-05-11T13:17:58.000Z</time>
      </trkpt>
      <trkpt lat="45.30783" lon="4.55139">
        <ele>597.59997558594</ele>
        <time>2026-05-11T13:17:59.000Z</time>
      </trkpt>
      <trkpt lat="45.30786" lon="4.5514">
        <ele>597.79998779297</ele>
        <time>2026-05-11T13:18:00.000Z</time>
      </trkpt>
      <trkpt lat="45.30788" lon="4.5514">
        <ele>598</ele>
        <time>2026-05-11T13:18:01.000Z</time>
      </trkpt>
      <trkpt lat="45.3079" lon="4.55141">
        <ele>598</ele>
        <time>2026-05-11T13:18:02.000Z</time>
      </trkpt>
      <trkpt lat="45.30792" lon="4.55142">
        <ele>598.20001220703</ele>
        <time>2026-05-11T13:18:03.000Z</time>
      </trkpt>
      <trkpt lat="45.30795" lon="4.55142">
        <ele>598.20001220703</ele>
        <time>2026-05-11T13:18:04.000Z</time>
      </trkpt>
      <trkpt lat="45.30797" lon="4.55142">
        <ele>598.20001220703</ele>
        <time>2026-05-11T13:18:05.000Z</time>
      </trkpt>
      <trkpt lat="45.30799" lon="4.55142">
        <ele>598.40002441406</ele>
        <time>2026-05-11T13:18:06.000Z</time>
      </trkpt>
      <trkpt lat="45.30801" lon="4.55141">
        <ele>598.40002441406</ele>
        <time>2026-05-11T13:18:07.000Z</time>
      </trkpt>
      <trkpt lat="45.30803" lon="4.55141">
        <ele>598.59997558594</ele>
        <time>2026-05-11T13:18:08.000Z</time>
      </trkpt>
      <trkpt lat="45.30806" lon="4.5514">
        <ele>598.59997558594</ele>
        <time>2026-05-11T13:18:09.000Z</time>
      </trkpt>
      <trkpt lat="45.30808" lon="4.5514">
        <ele>598.79998779297</ele>
        <time>2026-05-11T13:18:10.000Z</time>
      </trkpt>
      <trkpt lat="45.3081" lon="4.55139">
        <ele>598.79998779297</ele>
        <time>2026-05-11T13:18:11.000Z</time>
      </trkpt>
      <trkpt lat="45.30812" lon="4.55139">
        <ele>599</ele>
        <time>2026-05-11T13:18:12.000Z</time>
      </trkpt>
      <trkpt lat="45.30814" lon="4.5514">
        <ele>599</ele>
        <time>2026-05-11T13:18:13.000Z</time>
      </trkpt>
      <trkpt lat="45.30814" lon="4.55142">
        <ele>599.20001220703</ele>
        <time>2026-05-11T13:18:14.000Z</time>
      </trkpt>
      <trkpt lat="45.30814" lon="4.55143">
        <ele>599.20001220703</ele>
        <time>2026-05-11T13:18:15.000Z</time>
      </trkpt>
      <trkpt lat="45.30813" lon="4.55144">
        <ele>599.40002441406</ele>
        <time>2026-05-11T13:18:16.000Z</time>
      </trkpt>
      <trkpt lat="45.30812" lon="4.55145">
        <ele>599.40002441406</ele>
        <time>2026-05-11T13:18:17.000Z</time>
      </trkpt>
      <trkpt lat="45.30811" lon="4.55147">
        <ele>599.59997558594</ele>
        <time>2026-05-11T13:18:18.000Z</time>
      </trkpt>
      <trkpt lat="45.30812" lon="4.55147">
        <ele>599.59997558594</ele>
        <time>2026-05-11T13:18:19.000Z</time>
      </trkpt>
      <trkpt lat="45.30812" lon="4.55147">
        <ele>599.79998779297</ele>
        <time>2026-05-11T13:18:20.000Z</time>
      </trkpt>
      <trkpt lat="45.30818" lon="4.55137">
        <ele>599.40002441406</ele>
        <time>2026-05-11T13:19:02.000Z</time>
      </trkpt>
      <trkpt lat="45.3082" lon="4.55136">
        <ele>599.20001220703</ele>
        <time>2026-05-11T13:19:03.000Z</time>
      </trkpt>
      <trkpt lat="45.30822" lon="4.55135">
        <ele>599.20001220703</ele>
        <time>2026-05-11T13:19:04.000Z</time>
      </trkpt>
      <trkpt lat="45.30824" lon="4.55135">
        <ele>599.20001220703</ele>
        <time>2026-05-11T13:19:05.000Z</time>
      </trkpt>
      <trkpt lat="45.30825" lon="4.55135">
        <ele>599.20001220703</ele>
        <time>2026-05-11T13:19:06.000Z</time>
      </trkpt>
      <trkpt lat="45.30827" lon="4.55134">
        <ele>599.20001220703</ele>
        <time>2026-05-11T13:19:07.000Z</time>
      </trkpt>
      <trkpt lat="45.30829" lon="4.55133">
        <ele>599.40002441406</ele>
        <time>2026-05-11T13:19:08.000Z</time>
      </trkpt>
      <trkpt lat="45.30831" lon="4.55132">
        <ele>599.40002441406</ele>
        <time>2026-05-11T13:19:09.000Z</time>
      </trkpt>
      <trkpt lat="45.30833" lon="4.55131">
        <ele>599.59997558594</ele>
        <time>2026-05-11T13:19:10.000Z</time>
      </trkpt>
      <trkpt lat="45.30835" lon="4.5513">
        <ele>599.59997558594</ele>
        <time>2026-05-11T13:19:11.000Z</time>
      </trkpt>
      <trkpt lat="45.30837" lon="4.55129">
        <ele>599.79998779297</ele>
        <time>2026-05-11T13:19:12.000Z</time>
      </trkpt>
      <trkpt lat="45.30839" lon="4.55129">
        <ele>600</ele>
        <time>2026-05-11T13:19:13.000Z</time>
      </trkpt>
      <trkpt lat="45.3084" lon="4.55128">
        <ele>600</ele>
        <time>2026-05-11T13:19:14.000Z</time>
      </trkpt>
      <trkpt lat="45.30841" lon="4.55126">
        <ele>600.20001220703</ele>
        <time>2026-05-11T13:19:15.000Z</time>
      </trkpt>
      <trkpt lat="45.30842" lon="4.55124">
        <ele>600.20001220703</ele>
        <time>2026-05-11T13:19:16.000Z</time>
      </trkpt>
      <trkpt lat="45.30843" lon="4.55123">
        <ele>600.40002441406</ele>
        <time>2026-05-11T13:19:17.000Z</time>
      </trkpt>
      <trkpt lat="45.30845" lon="4.55121">
        <ele>600.59997558594</ele>
        <time>2026-05-11T13:19:18.000Z</time>
      </trkpt>
      <trkpt lat="45.30846" lon="4.55119">
        <ele>600.59997558594</ele>
        <time>2026-05-11T13:19:19.000Z</time>
      </trkpt>
      <trkpt lat="45.30847" lon="4.55119">
        <ele>600.79998779297</ele>
        <time>2026-05-11T13:19:20.000Z</time>
      </trkpt>
      <trkpt lat="45.30849" lon="4.55118">
        <ele>601</ele>
        <time>2026-05-11T13:19:21.000Z</time>
      </trkpt>
      <trkpt lat="45.3085" lon="4.55119">
        <ele>601.20001220703</ele>
        <time>2026-05-11T13:19:22.000Z</time>
      </trkpt>
      <trkpt lat="45.30851" lon="4.5512">
        <ele>601.40002441406</ele>
        <time>2026-05-11T13:19:23.000Z</time>
      </trkpt>
      <trkpt lat="45.30853" lon="4.5512">
        <ele>601.59997558594</ele>
        <time>2026-05-11T13:19:24.000Z</time>
      </trkpt>
      <trkpt lat="45.30854" lon="4.55122">
        <ele>601.59997558594</ele>
        <time>2026-05-11T13:19:25.000Z</time>
      </trkpt>
      <trkpt lat="45.30854" lon="4.55124">
        <ele>601.79998779297</ele>
        <time>2026-05-11T13:19:26.000Z</time>
      </trkpt>
      <trkpt lat="45.30853" lon="4.55126">
        <ele>601.79998779297</ele>
        <time>2026-05-11T13:19:27.000Z</time>
      </trkpt>
      <trkpt lat="45.30853" lon="4.55128">
        <ele>602</ele>
        <time>2026-05-11T13:19:28.000Z</time>
      </trkpt>
      <trkpt lat="45.30851" lon="4.55131">
        <ele>602</ele>
        <time>2026-05-11T13:19:29.000Z</time>
      </trkpt>
      <trkpt lat="45.30848" lon="4.55134">
        <ele>602.20001220703</ele>
        <time>2026-05-11T13:19:30.000Z</time>
      </trkpt>
      <trkpt lat="45.30848" lon="4.55134">
        <ele>602.20001220703</ele>
        <time>2026-05-11T13:19:31.000Z</time>
      </trkpt>
      <trkpt lat="45.30846" lon="4.55135">
        <ele>602.40002441406</ele>
        <time>2026-05-11T13:19:32.000Z</time>
      </trkpt>
      <trkpt lat="45.30844" lon="4.55136">
        <ele>602.59997558594</ele>
        <time>2026-05-11T13:19:33.000Z</time>
      </trkpt>
      <trkpt lat="45.30843" lon="4.55138">
        <ele>602.79998779297</ele>
        <time>2026-05-11T13:19:34.000Z</time>
      </trkpt>
      <trkpt lat="45.30841" lon="4.55139">
        <ele>603.20001220703</ele>
        <time>2026-05-11T13:19:35.000Z</time>
      </trkpt>
      <trkpt lat="45.3084" lon="4.5514">
        <ele>603.59997558594</ele>
        <time>2026-05-11T13:19:36.000Z</time>
      </trkpt>
      <trkpt lat="45.30839" lon="4.55141">
        <ele>604</ele>
        <time>2026-05-11T13:19:37.000Z</time>
      </trkpt>
      <trkpt lat="45.30837" lon="4.55142">
        <ele>604.20001220703</ele>
        <time>2026-05-11T13:19:38.000Z</time>
      </trkpt>
      <trkpt lat="45.30835" lon="4.55143">
        <ele>604.40002441406</ele>
        <time>2026-05-11T13:19:39.000Z</time>
      </trkpt>
      <trkpt lat="45.30834" lon="4.55144">
        <ele>604.59997558594</ele>
        <time>2026-05-11T13:19:40.000Z</time>
      </trkpt>
      <trkpt lat="45.30832" lon="4.55145">
        <ele>604.79998779297</ele>
        <time>2026-05-11T13:19:41.000Z</time>
      </trkpt>
      <trkpt lat="45.30831" lon="4.55147">
        <ele>605</ele>
        <time>2026-05-11T13:19:42.000Z</time>
      </trkpt>
      <trkpt lat="45.30829" lon="4.55148">
        <ele>605.40002441406</ele>
        <time>2026-05-11T13:19:43.000Z</time>
      </trkpt>
      <trkpt lat="45.30828" lon="4.55149">
        <ele>605.59997558594</ele>
        <time>2026-05-11T13:19:44.000Z</time>
      </trkpt>
      <trkpt lat="45.30826" lon="4.5515">
        <ele>605.79998779297</ele>
        <time>2026-05-11T13:19:45.000Z</time>
      </trkpt>
      <trkpt lat="45.30824" lon="4.55152">
        <ele>606</ele>
        <time>2026-05-11T13:19:46.000Z</time>
      </trkpt>
      <trkpt lat="45.30823" lon="4.55153">
        <ele>606.20001220703</ele>
        <time>2026-05-11T13:19:47.000Z</time>
      </trkpt>
      <trkpt lat="45.30821" lon="4.55154">
        <ele>606.20001220703</ele>
        <time>2026-05-11T13:19:48.000Z</time>
      </trkpt>
      <trkpt lat="45.3082" lon="4.55155">
        <ele>606.40002441406</ele>
        <time>2026-05-11T13:19:49.000Z</time>
      </trkpt>
      <trkpt lat="45.30819" lon="4.55157">
        <ele>606.59997558594</ele>
        <time>2026-05-11T13:19:50.000Z</time>
      </trkpt>
      <trkpt lat="45.30817" lon="4.55157">
        <ele>606.59997558594</ele>
        <time>2026-05-11T13:19:51.000Z</time>
      </trkpt>
      <trkpt lat="45.30816" lon="4.55158">
        <ele>606.59997558594</ele>
        <time>2026-05-11T13:19:52.000Z</time>
      </trkpt>
      <trkpt lat="45.30814" lon="4.5516">
        <ele>606.59997558594</ele>
        <time>2026-05-11T13:19:53.000Z</time>
      </trkpt>
      <trkpt lat="45.30812" lon="4.55161">
        <ele>606.79998779297</ele>
        <time>2026-05-11T13:19:54.000Z</time>
      </trkpt>
      <trkpt lat="45.30811" lon="4.55162">
        <ele>607</ele>
        <time>2026-05-11T13:19:55.000Z</time>
      </trkpt>
      <trkpt lat="45.30808" lon="4.55163">
        <ele>607.20001220703</ele>
        <time>2026-05-11T13:19:56.000Z</time>
      </trkpt>
      <trkpt lat="45.30806" lon="4.55164">
        <ele>607.40002441406</ele>
        <time>2026-05-11T13:19:57.000Z</time>
      </trkpt>
      <trkpt lat="45.30805" lon="4.55165">
        <ele>607.59997558594</ele>
        <time>2026-05-11T13:19:58.000Z</time>
      </trkpt>
      <trkpt lat="45.30803" lon="4.55166">
        <ele>607.79998779297</ele>
        <time>2026-05-11T13:19:59.000Z</time>
      </trkpt>
      <trkpt lat="45.30802" lon="4.55167">
        <ele>607.79998779297</ele>
        <time>2026-05-11T13:20:00.000Z</time>
      </trkpt>
      <trkpt lat="45.308" lon="4.55168">
        <ele>608</ele>
        <time>2026-05-11T13:20:01.000Z</time>
      </trkpt>
      <trkpt lat="45.30799" lon="4.55169">
        <ele>608</ele>
        <time>2026-05-11T13:20:02.000Z</time>
      </trkpt>
      <trkpt lat="45.30797" lon="4.5517">
        <ele>608</ele>
        <time>2026-05-11T13:20:03.000Z</time>
      </trkpt>
      <trkpt lat="45.30795" lon="4.55171">
        <ele>608.20001220703</ele>
        <time>2026-05-11T13:20:04.000Z</time>
      </trkpt>
      <trkpt lat="45.30794" lon="4.55171">
        <ele>608.40002441406</ele>
        <time>2026-05-11T13:20:05.000Z</time>
      </trkpt>
      <trkpt lat="45.30792" lon="4.55172">
        <ele>608.59997558594</ele>
        <time>2026-05-11T13:20:06.000Z</time>
      </trkpt>
      <trkpt lat="45.3079" lon="4.55174">
        <ele>608.79998779297</ele>
        <time>2026-05-11T13:20:07.000Z</time>
      </trkpt>
      <trkpt lat="45.30788" lon="4.55175">
        <ele>608.79998779297</ele>
        <time>2026-05-11T13:20:08.000Z</time>
      </trkpt>
      <trkpt lat="45.30786" lon="4.55176">
        <ele>608.79998779297</ele>
        <time>2026-05-11T13:20:09.000Z</time>
      </trkpt>
      <trkpt lat="45.30784" lon="4.55177">
        <ele>609</ele>
        <time>2026-05-11T13:20:10.000Z</time>
      </trkpt>
      <trkpt lat="45.30782" lon="4.55177">
        <ele>609</ele>
        <time>2026-05-11T13:20:11.000Z</time>
      </trkpt>
      <trkpt lat="45.3078" lon="4.55177">
        <ele>609</ele>
        <time>2026-05-11T13:20:12.000Z</time>
      </trkpt>
      <trkpt lat="45.30778" lon="4.55178">
        <ele>609.20001220703</ele>
        <time>2026-05-11T13:20:13.000Z</time>
      </trkpt>
      <trkpt lat="45.30776" lon="4.55179">
        <ele>609.20001220703</ele>
        <time>2026-05-11T13:20:14.000Z</time>
      </trkpt>
      <trkpt lat="45.30774" lon="4.55179">
        <ele>609.40002441406</ele>
        <time>2026-05-11T13:20:15.000Z</time>
      </trkpt>
      <trkpt lat="45.30773" lon="4.55179">
        <ele>609.40002441406</ele>
        <time>2026-05-11T13:20:16.000Z</time>
      </trkpt>
      <trkpt lat="45.30771" lon="4.5518">
        <ele>609.59997558594</ele>
        <time>2026-05-11T13:20:17.000Z</time>
      </trkpt>
      <trkpt lat="45.3077" lon="4.5518">
        <ele>609.79998779297</ele>
        <time>2026-05-11T13:20:18.000Z</time>
      </trkpt>
      <trkpt lat="45.30768" lon="4.5518">
        <ele>609.79998779297</ele>
        <time>2026-05-11T13:20:19.000Z</time>
      </trkpt>
      <trkpt lat="45.30766" lon="4.5518">
        <ele>610</ele>
        <time>2026-05-11T13:20:20.000Z</time>
      </trkpt>
      <trkpt lat="45.30765" lon="4.55181">
        <ele>610.20001220703</ele>
        <time>2026-05-11T13:20:21.000Z</time>
      </trkpt>
      <trkpt lat="45.30763" lon="4.55181">
        <ele>610.40002441406</ele>
        <time>2026-05-11T13:20:22.000Z</time>
      </trkpt>
      <trkpt lat="45.30761" lon="4.55181">
        <ele>610.40002441406</ele>
        <time>2026-05-11T13:20:23.000Z</time>
      </trkpt>
      <trkpt lat="45.3076" lon="4.55181">
        <ele>610.59997558594</ele>
        <time>2026-05-11T13:20:24.000Z</time>
      </trkpt>
      <trkpt lat="45.30758" lon="4.55181">
        <ele>610.79998779297</ele>
        <time>2026-05-11T13:20:25.000Z</time>
      </trkpt>
      <trkpt lat="45.30756" lon="4.55181">
        <ele>610.79998779297</ele>
        <time>2026-05-11T13:20:26.000Z</time>
      </trkpt>
      <trkpt lat="45.30754" lon="4.55182">
        <ele>610.79998779297</ele>
        <time>2026-05-11T13:20:27.000Z</time>
      </trkpt>
      <trkpt lat="45.30751" lon="4.55183">
        <ele>610.79998779297</ele>
        <time>2026-05-11T13:20:28.000Z</time>
      </trkpt>
      <trkpt lat="45.30749" lon="4.55184">
        <ele>610.79998779297</ele>
        <time>2026-05-11T13:20:29.000Z</time>
      </trkpt>
      <trkpt lat="45.30746" lon="4.55185">
        <ele>611</ele>
        <time>2026-05-11T13:20:30.000Z</time>
      </trkpt>
      <trkpt lat="45.30743" lon="4.55186">
        <ele>610.79998779297</ele>
        <time>2026-05-11T13:20:31.000Z</time>
      </trkpt>
      <trkpt lat="45.3074" lon="4.55187">
        <ele>611</ele>
        <time>2026-05-11T13:20:32.000Z</time>
      </trkpt>
      <trkpt lat="45.30737" lon="4.55188">
        <ele>611</ele>
        <time>2026-05-11T13:20:33.000Z</time>
      </trkpt>
      <trkpt lat="45.30734" lon="4.55189">
        <ele>611</ele>
        <time>2026-05-11T13:20:34.000Z</time>
      </trkpt>
      <trkpt lat="45.30732" lon="4.55189">
        <ele>611</ele>
        <time>2026-05-11T13:20:35.000Z</time>
      </trkpt>
      <trkpt lat="45.3073" lon="4.55189">
        <ele>611.20001220703</ele>
        <time>2026-05-11T13:20:36.000Z</time>
      </trkpt>
      <trkpt lat="45.30728" lon="4.5519">
        <ele>611.40002441406</ele>
        <time>2026-05-11T13:20:37.000Z</time>
      </trkpt>
      <trkpt lat="45.30725" lon="4.5519">
        <ele>611.59997558594</ele>
        <time>2026-05-11T13:20:38.000Z</time>
      </trkpt>
      <trkpt lat="45.30723" lon="4.5519">
        <ele>611.79998779297</ele>
        <time>2026-05-11T13:20:39.000Z</time>
      </trkpt>
      <trkpt lat="45.30721" lon="4.55189">
        <ele>612</ele>
        <time>2026-05-11T13:20:40.000Z</time>
      </trkpt>
      <trkpt lat="45.30718" lon="4.55189">
        <ele>612.20001220703</ele>
        <time>2026-05-11T13:20:41.000Z</time>
      </trkpt>
      <trkpt lat="45.30715" lon="4.55189">
        <ele>612.40002441406</ele>
        <time>2026-05-11T13:20:42.000Z</time>
      </trkpt>
      <trkpt lat="45.30713" lon="4.55189">
        <ele>612.59997558594</ele>
        <time>2026-05-11T13:20:43.000Z</time>
      </trkpt>
      <trkpt lat="45.3071" lon="4.55189">
        <ele>612.59997558594</ele>
        <time>2026-05-11T13:20:44.000Z</time>
      </trkpt>
      <trkpt lat="45.30707" lon="4.5519">
        <ele>612.79998779297</ele>
        <time>2026-05-11T13:20:45.000Z</time>
      </trkpt>
      <trkpt lat="45.30704" lon="4.5519">
        <ele>613</ele>
        <time>2026-05-11T13:20:46.000Z</time>
      </trkpt>
      <trkpt lat="45.30702" lon="4.5519">
        <ele>613</ele>
        <time>2026-05-11T13:20:47.000Z</time>
      </trkpt>
      <trkpt lat="45.307" lon="4.55191">
        <ele>613.20001220703</ele>
        <time>2026-05-11T13:20:48.000Z</time>
      </trkpt>
      <trkpt lat="45.30697" lon="4.55193">
        <ele>613.40002441406</ele>
        <time>2026-05-11T13:20:49.000Z</time>
      </trkpt>
      <trkpt lat="45.30695" lon="4.55194">
        <ele>613.59997558594</ele>
        <time>2026-05-11T13:20:50.000Z</time>
      </trkpt>
      <trkpt lat="45.30692" lon="4.55195">
        <ele>613.79998779297</ele>
        <time>2026-05-11T13:20:51.000Z</time>
      </trkpt>
      <trkpt lat="45.3069" lon="4.55196">
        <ele>613.79998779297</ele>
        <time>2026-05-11T13:20:52.000Z</time>
      </trkpt>
      <trkpt lat="45.30687" lon="4.55197">
        <ele>614</ele>
        <time>2026-05-11T13:20:53.000Z</time>
      </trkpt>
      <trkpt lat="45.30685" lon="4.55198">
        <ele>614</ele>
        <time>2026-05-11T13:20:54.000Z</time>
      </trkpt>
      <trkpt lat="45.30683" lon="4.552">
        <ele>614.40002441406</ele>
        <time>2026-05-11T13:20:55.000Z</time>
      </trkpt>
      <trkpt lat="45.30681" lon="4.55201">
        <ele>614.59997558594</ele>
        <time>2026-05-11T13:20:56.000Z</time>
      </trkpt>
      <trkpt lat="45.30679" lon="4.55203">
        <ele>614.79998779297</ele>
        <time>2026-05-11T13:20:57.000Z</time>
      </trkpt>
      <trkpt lat="45.30677" lon="4.55205">
        <ele>615</ele>
        <time>2026-05-11T13:20:58.000Z</time>
      </trkpt>
      <trkpt lat="45.30675" lon="4.55207">
        <ele>615</ele>
        <time>2026-05-11T13:20:59.000Z</time>
      </trkpt>
      <trkpt lat="45.30672" lon="4.55209">
        <ele>615.20001220703</ele>
        <time>2026-05-11T13:21:00.000Z</time>
      </trkpt>
      <trkpt lat="45.3067" lon="4.55211">
        <ele>615.40002441406</ele>
        <time>2026-05-11T13:21:01.000Z</time>
      </trkpt>
      <trkpt lat="45.30668" lon="4.55213">
        <ele>615.59997558594</ele>
        <time>2026-05-11T13:21:02.000Z</time>
      </trkpt>
      <trkpt lat="45.30666" lon="4.55216">
        <ele>615.79998779297</ele>
        <time>2026-05-11T13:21:03.000Z</time>
      </trkpt>
      <trkpt lat="45.30665" lon="4.55218">
        <ele>616</ele>
        <time>2026-05-11T13:21:04.000Z</time>
      </trkpt>
      <trkpt lat="45.30663" lon="4.55221">
        <ele>616.20001220703</ele>
        <time>2026-05-11T13:21:05.000Z</time>
      </trkpt>
      <trkpt lat="45.30662" lon="4.55224">
        <ele>616.40002441406</ele>
        <time>2026-05-11T13:21:06.000Z</time>
      </trkpt>
      <trkpt lat="45.3066" lon="4.55227">
        <ele>616.59997558594</ele>
        <time>2026-05-11T13:21:07.000Z</time>
      </trkpt>
      <trkpt lat="45.30658" lon="4.5523">
        <ele>616.79998779297</ele>
        <time>2026-05-11T13:21:08.000Z</time>
      </trkpt>
      <trkpt lat="45.30657" lon="4.55232">
        <ele>617</ele>
        <time>2026-05-11T13:21:09.000Z</time>
      </trkpt>
      <trkpt lat="45.30656" lon="4.55236">
        <ele>617.20001220703</ele>
        <time>2026-05-11T13:21:10.000Z</time>
      </trkpt>
      <trkpt lat="45.30655" lon="4.55239">
        <ele>617.40002441406</ele>
        <time>2026-05-11T13:21:11.000Z</time>
      </trkpt>
      <trkpt lat="45.30654" lon="4.55242">
        <ele>617.40002441406</ele>
        <time>2026-05-11T13:21:12.000Z</time>
      </trkpt>
      <trkpt lat="45.30653" lon="4.55245">
        <ele>617.59997558594</ele>
        <time>2026-05-11T13:21:13.000Z</time>
      </trkpt>
      <trkpt lat="45.30653" lon="4.55248">
        <ele>617.79998779297</ele>
        <time>2026-05-11T13:21:14.000Z</time>
      </trkpt>
      <trkpt lat="45.30652" lon="4.55252">
        <ele>618</ele>
        <time>2026-05-11T13:21:15.000Z</time>
      </trkpt>
      <trkpt lat="45.30652" lon="4.55255">
        <ele>618.20001220703</ele>
        <time>2026-05-11T13:21:16.000Z</time>
      </trkpt>
      <trkpt lat="45.30652" lon="4.55259">
        <ele>618.20001220703</ele>
        <time>2026-05-11T13:21:17.000Z</time>
      </trkpt>
      <trkpt lat="45.30652" lon="4.55262">
        <ele>618.40002441406</ele>
        <time>2026-05-11T13:21:18.000Z</time>
      </trkpt>
      <trkpt lat="45.30652" lon="4.55266">
        <ele>618.59997558594</ele>
        <time>2026-05-11T13:21:19.000Z</time>
      </trkpt>
      <trkpt lat="45.30652" lon="4.5527">
        <ele>618.59997558594</ele>
        <time>2026-05-11T13:21:20.000Z</time>
      </trkpt>
      <trkpt lat="45.30653" lon="4.55273">
        <ele>618.79998779297</ele>
        <time>2026-05-11T13:21:21.000Z</time>
      </trkpt>
      <trkpt lat="45.30653" lon="4.55276">
        <ele>619</ele>
        <time>2026-05-11T13:21:22.000Z</time>
      </trkpt>
      <trkpt lat="45.30654" lon="4.55279">
        <ele>619.20001220703</ele>
        <time>2026-05-11T13:21:23.000Z</time>
      </trkpt>
      <trkpt lat="45.30655" lon="4.55282">
        <ele>619.40002441406</ele>
        <time>2026-05-11T13:21:24.000Z</time>
      </trkpt>
      <trkpt lat="45.30656" lon="4.55285">
        <ele>619.79998779297</ele>
        <time>2026-05-11T13:21:25.000Z</time>
      </trkpt>
      <trkpt lat="45.30657" lon="4.55288">
        <ele>620.20001220703</ele>
        <time>2026-05-11T13:21:26.000Z</time>
      </trkpt>
      <trkpt lat="45.30658" lon="4.55291">
        <ele>620.40002441406</ele>
        <time>2026-05-11T13:21:27.000Z</time>
      </trkpt>
      <trkpt lat="45.30659" lon="4.55293">
        <ele>620.79998779297</ele>
        <time>2026-05-11T13:21:28.000Z</time>
      </trkpt>
      <trkpt lat="45.3066" lon="4.55296">
        <ele>621.20001220703</ele>
        <time>2026-05-11T13:21:29.000Z</time>
      </trkpt>
      <trkpt lat="45.30662" lon="4.55299">
        <ele>621.59997558594</ele>
        <time>2026-05-11T13:21:30.000Z</time>
      </trkpt>
      <trkpt lat="45.30664" lon="4.55301">
        <ele>622</ele>
        <time>2026-05-11T13:21:31.000Z</time>
      </trkpt>
      <trkpt lat="45.30665" lon="4.55303">
        <ele>622.40002441406</ele>
        <time>2026-05-11T13:21:32.000Z</time>
      </trkpt>
      <trkpt lat="45.30666" lon="4.55304">
        <ele>622.59997558594</ele>
        <time>2026-05-11T13:21:33.000Z</time>
      </trkpt>
      <trkpt lat="45.30666" lon="4.55306">
        <ele>623</ele>
        <time>2026-05-11T13:21:34.000Z</time>
      </trkpt>
      <trkpt lat="45.30667" lon="4.55308">
        <ele>623.20001220703</ele>
        <time>2026-05-11T13:21:35.000Z</time>
      </trkpt>
      <trkpt lat="45.30667" lon="4.5531">
        <ele>623.59997558594</ele>
        <time>2026-05-11T13:21:36.000Z</time>
      </trkpt>
      <trkpt lat="45.30668" lon="4.55312">
        <ele>623.79998779297</ele>
        <time>2026-05-11T13:21:37.000Z</time>
      </trkpt>
      <trkpt lat="45.30669" lon="4.55312">
        <ele>624</ele>
        <time>2026-05-11T13:21:38.000Z</time>
      </trkpt>
      <trkpt lat="45.3067" lon="4.55313">
        <ele>624.20001220703</ele>
        <time>2026-05-11T13:21:39.000Z</time>
      </trkpt>
      <trkpt lat="45.3067" lon="4.55313">
        <ele>624.40002441406</ele>
        <time>2026-05-11T13:21:40.000Z</time>
      </trkpt>
      <trkpt lat="45.30671" lon="4.55313">
        <ele>624.40002441406</ele>
        <time>2026-05-11T13:21:41.000Z</time>
      </trkpt>
      <trkpt lat="45.30666" lon="4.55306">
        <ele>623.59997558594</ele>
        <time>2026-05-11T13:21:59.000Z</time>
      </trkpt>
      <trkpt lat="45.30665" lon="4.55305">
        <ele>623.59997558594</ele>
        <time>2026-05-11T13:22:00.000Z</time>
      </trkpt>
      <trkpt lat="45.30664" lon="4.55303">
        <ele>623.40002441406</ele>
        <time>2026-05-11T13:22:01.000Z</time>
      </trkpt>
      <trkpt lat="45.30663" lon="4.55301">
        <ele>623.20001220703</ele>
        <time>2026-05-11T13:22:02.000Z</time>
      </trkpt>
      <trkpt lat="45.30662" lon="4.553">
        <ele>623</ele>
        <time>2026-05-11T13:22:03.000Z</time>
      </trkpt>
      <trkpt lat="45.30661" lon="4.55299">
        <ele>623</ele>
        <time>2026-05-11T13:22:04.000Z</time>
      </trkpt>
      <trkpt lat="45.3066" lon="4.55297">
        <ele>622.79998779297</ele>
        <time>2026-05-11T13:22:05.000Z</time>
      </trkpt>
      <trkpt lat="45.30659" lon="4.55296">
        <ele>622.79998779297</ele>
        <time>2026-05-11T13:22:06.000Z</time>
      </trkpt>
      <trkpt lat="45.30658" lon="4.55294">
        <ele>622.59997558594</ele>
        <time>2026-05-11T13:22:07.000Z</time>
      </trkpt>
      <trkpt lat="45.30657" lon="4.55292">
        <ele>622.40002441406</ele>
        <time>2026-05-11T13:22:08.000Z</time>
      </trkpt>
      <trkpt lat="45.30656" lon="4.55291">
        <ele>622.20001220703</ele>
        <time>2026-05-11T13:22:09.000Z</time>
      </trkpt>
      <trkpt lat="45.30656" lon="4.55288">
        <ele>622</ele>
        <time>2026-05-11T13:22:10.000Z</time>
      </trkpt>
      <trkpt lat="45.30655" lon="4.55286">
        <ele>621.79998779297</ele>
        <time>2026-05-11T13:22:11.000Z</time>
      </trkpt>
      <trkpt lat="45.30655" lon="4.55284">
        <ele>621.59997558594</ele>
        <time>2026-05-11T13:22:12.000Z</time>
      </trkpt>
      <trkpt lat="45.30655" lon="4.55283">
        <ele>621.40002441406</ele>
        <time>2026-05-11T13:22:13.000Z</time>
      </trkpt>
      <trkpt lat="45.30654" lon="4.55282">
        <ele>621.20001220703</ele>
        <time>2026-05-11T13:22:14.000Z</time>
      </trkpt>
      <trkpt lat="45.30654" lon="4.55281">
        <ele>621</ele>
        <time>2026-05-11T13:22:15.000Z</time>
      </trkpt>
      <trkpt lat="45.30654" lon="4.55281">
        <ele>621</ele>
        <time>2026-05-11T13:22:16.000Z</time>
      </trkpt>
      <trkpt lat="45.3065" lon="4.55292">
        <ele>619.59997558594</ele>
        <time>2026-05-11T13:22:47.000Z</time>
      </trkpt>
      <trkpt lat="45.30649" lon="4.55295">
        <ele>619.40002441406</ele>
        <time>2026-05-11T13:22:48.000Z</time>
      </trkpt>
      <trkpt lat="45.30649" lon="4.55298">
        <ele>619.20001220703</ele>
        <time>2026-05-11T13:22:49.000Z</time>
      </trkpt>
      <trkpt lat="45.30649" lon="4.55302">
        <ele>619</ele>
        <time>2026-05-11T13:22:50.000Z</time>
      </trkpt>
      <trkpt lat="45.30649" lon="4.55305">
        <ele>618.79998779297</ele>
        <time>2026-05-11T13:22:51.000Z</time>
      </trkpt>
      <trkpt lat="45.30649" lon="4.55309">
        <ele>618.79998779297</ele>
        <time>2026-05-11T13:22:52.000Z</time>
      </trkpt>
      <trkpt lat="45.3065" lon="4.55313">
        <ele>618.59997558594</ele>
        <time>2026-05-11T13:22:53.000Z</time>
      </trkpt>
      <trkpt lat="45.3065" lon="4.55316">
        <ele>618.40002441406</ele>
        <time>2026-05-11T13:22:54.000Z</time>
      </trkpt>
      <trkpt lat="45.30651" lon="4.5532">
        <ele>618.20001220703</ele>
        <time>2026-05-11T13:22:55.000Z</time>
      </trkpt>
      <trkpt lat="45.30651" lon="4.55324">
        <ele>618.20001220703</ele>
        <time>2026-05-11T13:22:56.000Z</time>
      </trkpt>
      <trkpt lat="45.30652" lon="4.55328">
        <ele>618</ele>
        <time>2026-05-11T13:22:57.000Z</time>
      </trkpt>
      <trkpt lat="45.30652" lon="4.55331">
        <ele>617.79998779297</ele>
        <time>2026-05-11T13:22:58.000Z</time>
      </trkpt>
      <trkpt lat="45.30652" lon="4.55335">
        <ele>617.79998779297</ele>
        <time>2026-05-11T13:22:59.000Z</time>
      </trkpt>
      <trkpt lat="45.30653" lon="4.55338">
        <ele>617.79998779297</ele>
        <time>2026-05-11T13:23:00.000Z</time>
      </trkpt>
      <trkpt lat="45.30654" lon="4.55341">
        <ele>617.59997558594</ele>
        <time>2026-05-11T13:23:01.000Z</time>
      </trkpt>
      <trkpt lat="45.30655" lon="4.55344">
        <ele>617.59997558594</ele>
        <time>2026-05-11T13:23:02.000Z</time>
      </trkpt>
      <trkpt lat="45.30656" lon="4.55347">
        <ele>617.59997558594</ele>
        <time>2026-05-11T13:23:03.000Z</time>
      </trkpt>
      <trkpt lat="45.30656" lon="4.5535">
        <ele>617.40002441406</ele>
        <time>2026-05-11T13:23:04.000Z</time>
      </trkpt>
      <trkpt lat="45.30657" lon="4.55352">
        <ele>617.40002441406</ele>
        <time>2026-05-11T13:23:05.000Z</time>
      </trkpt>
      <trkpt lat="45.30658" lon="4.55354">
        <ele>617.40002441406</ele>
        <time>2026-05-11T13:23:06.000Z</time>
      </trkpt>
      <trkpt lat="45.3066" lon="4.55357">
        <ele>617.40002441406</ele>
        <time>2026-05-11T13:23:07.000Z</time>
      </trkpt>
      <trkpt lat="45.30661" lon="4.5536">
        <ele>617.40002441406</ele>
        <time>2026-05-11T13:23:08.000Z</time>
      </trkpt>
      <trkpt lat="45.30662" lon="4.55363">
        <ele>617.40002441406</ele>
        <time>2026-05-11T13:23:09.000Z</time>
      </trkpt>
      <trkpt lat="45.30663" lon="4.55366">
        <ele>617.40002441406</ele>
        <time>2026-05-11T13:23:10.000Z</time>
      </trkpt>
      <trkpt lat="45.30664" lon="4.55369">
        <ele>617.40002441406</ele>
        <time>2026-05-11T13:23:11.000Z</time>
      </trkpt>
      <trkpt lat="45.30665" lon="4.55372">
        <ele>617.40002441406</ele>
        <time>2026-05-11T13:23:12.000Z</time>
      </trkpt>
      <trkpt lat="45.30666" lon="4.55375">
        <ele>617.40002441406</ele>
        <time>2026-05-11T13:23:13.000Z</time>
      </trkpt>
      <trkpt lat="45.30667" lon="4.55378">
        <ele>617.40002441406</ele>
        <time>2026-05-11T13:23:14.000Z</time>
      </trkpt>
      <trkpt lat="45.30668" lon="4.55381">
        <ele>617.40002441406</ele>
        <time>2026-05-11T13:23:15.000Z</time>
      </trkpt>
      <trkpt lat="45.30668" lon="4.55383">
        <ele>617.40002441406</ele>
        <time>2026-05-11T13:23:16.000Z</time>
      </trkpt>
      <trkpt lat="45.30668" lon="4.55386">
        <ele>617.20001220703</ele>
        <time>2026-05-11T13:23:17.000Z</time>
      </trkpt>
      <trkpt lat="45.30668" lon="4.5539">
        <ele>617</ele>
        <time>2026-05-11T13:23:18.000Z</time>
      </trkpt>
      <trkpt lat="45.30668" lon="4.55392">
        <ele>616.79998779297</ele>
        <time>2026-05-11T13:23:19.000Z</time>
      </trkpt>
      <trkpt lat="45.30668" lon="4.55395">
        <ele>616.59997558594</ele>
        <time>2026-05-11T13:23:20.000Z</time>
      </trkpt>
      <trkpt lat="45.30668" lon="4.55398">
        <ele>616.40002441406</ele>
        <time>2026-05-11T13:23:21.000Z</time>
      </trkpt>
      <trkpt lat="45.30668" lon="4.554">
        <ele>616.20001220703</ele>
        <time>2026-05-11T13:23:22.000Z</time>
      </trkpt>
      <trkpt lat="45.30668" lon="4.55403">
        <ele>616</ele>
        <time>2026-05-11T13:23:23.000Z</time>
      </trkpt>
      <trkpt lat="45.30668" lon="4.55407">
        <ele>615.79998779297</ele>
        <time>2026-05-11T13:23:24.000Z</time>
      </trkpt>
      <trkpt lat="45.30668" lon="4.5541">
        <ele>615.59997558594</ele>
        <time>2026-05-11T13:23:25.000Z</time>
      </trkpt>
      <trkpt lat="45.30668" lon="4.55414">
        <ele>615.40002441406</ele>
        <time>2026-05-11T13:23:26.000Z</time>
      </trkpt>
      <trkpt lat="45.30668" lon="4.55418">
        <ele>615</ele>
        <time>2026-05-11T13:23:27.000Z</time>
      </trkpt>
      <trkpt lat="45.30668" lon="4.55421">
        <ele>614.79998779297</ele>
        <time>2026-05-11T13:23:28.000Z</time>
      </trkpt>
      <trkpt lat="45.30667" lon="4.55425">
        <ele>614.40002441406</ele>
        <time>2026-05-11T13:23:29.000Z</time>
      </trkpt>
      <trkpt lat="45.30666" lon="4.55429">
        <ele>614.20001220703</ele>
        <time>2026-05-11T13:23:30.000Z</time>
      </trkpt>
      <trkpt lat="45.30666" lon="4.55433">
        <ele>613.79998779297</ele>
        <time>2026-05-11T13:23:31.000Z</time>
      </trkpt>
      <trkpt lat="45.30665" lon="4.55436">
        <ele>613.59997558594</ele>
        <time>2026-05-11T13:23:32.000Z</time>
      </trkpt>
      <trkpt lat="45.30664" lon="4.55439">
        <ele>613.40002441406</ele>
        <time>2026-05-11T13:23:33.000Z</time>
      </trkpt>
      <trkpt lat="45.30664" lon="4.55442">
        <ele>613.40002441406</ele>
        <time>2026-05-11T13:23:34.000Z</time>
      </trkpt>
      <trkpt lat="45.30663" lon="4.55445">
        <ele>613.20001220703</ele>
        <time>2026-05-11T13:23:35.000Z</time>
      </trkpt>
      <trkpt lat="45.30663" lon="4.55448">
        <ele>613.20001220703</ele>
        <time>2026-05-11T13:23:36.000Z</time>
      </trkpt>
      <trkpt lat="45.30662" lon="4.55452">
        <ele>613.20001220703</ele>
        <time>2026-05-11T13:23:37.000Z</time>
      </trkpt>
      <trkpt lat="45.30662" lon="4.55456">
        <ele>613.40002441406</ele>
        <time>2026-05-11T13:23:38.000Z</time>
      </trkpt>
      <trkpt lat="45.30661" lon="4.5546">
        <ele>613.20001220703</ele>
        <time>2026-05-11T13:23:39.000Z</time>
      </trkpt>
      <trkpt lat="45.3066" lon="4.55464">
        <ele>613.20001220703</ele>
        <time>2026-05-11T13:23:40.000Z</time>
      </trkpt>
      <trkpt lat="45.30659" lon="4.55467">
        <ele>613</ele>
        <time>2026-05-11T13:23:41.000Z</time>
      </trkpt>
      <trkpt lat="45.30657" lon="4.5547">
        <ele>613</ele>
        <time>2026-05-11T13:23:42.000Z</time>
      </trkpt>
      <trkpt lat="45.30655" lon="4.55472">
        <ele>612.79998779297</ele>
        <time>2026-05-11T13:23:43.000Z</time>
      </trkpt>
      <trkpt lat="45.30652" lon="4.55474">
        <ele>612.79998779297</ele>
        <time>2026-05-11T13:23:44.000Z</time>
      </trkpt>
      <trkpt lat="45.3065" lon="4.55475">
        <ele>612.59997558594</ele>
        <time>2026-05-11T13:23:45.000Z</time>
      </trkpt>
      <trkpt lat="45.30647" lon="4.55476">
        <ele>612.79998779297</ele>
        <time>2026-05-11T13:23:46.000Z</time>
      </trkpt>
      <trkpt lat="45.30644" lon="4.55477">
        <ele>612.79998779297</ele>
        <time>2026-05-11T13:23:47.000Z</time>
      </trkpt>
      <trkpt lat="45.30642" lon="4.55479">
        <ele>612.79998779297</ele>
        <time>2026-05-11T13:23:48.000Z</time>
      </trkpt>
      <trkpt lat="45.30639" lon="4.5548">
        <ele>613</ele>
        <time>2026-05-11T13:23:49.000Z</time>
      </trkpt>
      <trkpt lat="45.30637" lon="4.55481">
        <ele>613.20001220703</ele>
        <time>2026-05-11T13:23:50.000Z</time>
      </trkpt>
      <trkpt lat="45.30634" lon="4.55482">
        <ele>613.40002441406</ele>
        <time>2026-05-11T13:23:51.000Z</time>
      </trkpt>
      <trkpt lat="45.30632" lon="4.55483">
        <ele>613.59997558594</ele>
        <time>2026-05-11T13:23:52.000Z</time>
      </trkpt>
      <trkpt lat="45.30629" lon="4.55484">
        <ele>613.79998779297</ele>
        <time>2026-05-11T13:23:53.000Z</time>
      </trkpt>
      <trkpt lat="45.30627" lon="4.55485">
        <ele>614</ele>
        <time>2026-05-11T13:23:54.000Z</time>
      </trkpt>
      <trkpt lat="45.30625" lon="4.55486">
        <ele>614.20001220703</ele>
        <time>2026-05-11T13:23:55.000Z</time>
      </trkpt>
      <trkpt lat="45.30622" lon="4.55487">
        <ele>614.40002441406</ele>
        <time>2026-05-11T13:23:56.000Z</time>
      </trkpt>
      <trkpt lat="45.3062" lon="4.55489">
        <ele>614.79998779297</ele>
        <time>2026-05-11T13:23:57.000Z</time>
      </trkpt>
      <trkpt lat="45.30617" lon="4.55489">
        <ele>615</ele>
        <time>2026-05-11T13:23:58.000Z</time>
      </trkpt>
      <trkpt lat="45.30615" lon="4.55491">
        <ele>615.40002441406</ele>
        <time>2026-05-11T13:23:59.000Z</time>
      </trkpt>
      <trkpt lat="45.30613" lon="4.55492">
        <ele>615.59997558594</ele>
        <time>2026-05-11T13:24:00.000Z</time>
      </trkpt>
      <trkpt lat="45.30611" lon="4.55494">
        <ele>615.79998779297</ele>
        <time>2026-05-11T13:24:01.000Z</time>
      </trkpt>
      <trkpt lat="45.30609" lon="4.55495">
        <ele>616</ele>
        <time>2026-05-11T13:24:02.000Z</time>
      </trkpt>
      <trkpt lat="45.30607" lon="4.55496">
        <ele>616.40002441406</ele>
        <time>2026-05-11T13:24:03.000Z</time>
      </trkpt>
      <trkpt lat="45.30605" lon="4.55497">
        <ele>616.59997558594</ele>
        <time>2026-05-11T13:24:04.000Z</time>
      </trkpt>
      <trkpt lat="45.30602" lon="4.55497">
        <ele>616.79998779297</ele>
        <time>2026-05-11T13:24:05.000Z</time>
      </trkpt>
      <trkpt lat="45.306" lon="4.55498">
        <ele>617.20001220703</ele>
        <time>2026-05-11T13:24:06.000Z</time>
      </trkpt>
      <trkpt lat="45.30597" lon="4.55499">
        <ele>617.20001220703</ele>
        <time>2026-05-11T13:24:07.000Z</time>
      </trkpt>
      <trkpt lat="45.30594" lon="4.55499">
        <ele>617.40002441406</ele>
        <time>2026-05-11T13:24:08.000Z</time>
      </trkpt>
      <trkpt lat="45.30592" lon="4.55499">
        <ele>617.40002441406</ele>
        <time>2026-05-11T13:24:09.000Z</time>
      </trkpt>
      <trkpt lat="45.3059" lon="4.55499">
        <ele>617.40002441406</ele>
        <time>2026-05-11T13:24:10.000Z</time>
      </trkpt>
      <trkpt lat="45.30587" lon="4.55499">
        <ele>617.20001220703</ele>
        <time>2026-05-11T13:24:11.000Z</time>
      </trkpt>
      <trkpt lat="45.30585" lon="4.55499">
        <ele>617.20001220703</ele>
        <time>2026-05-11T13:24:12.000Z</time>
      </trkpt>
      <trkpt lat="45.30582" lon="4.555">
        <ele>617.20001220703</ele>
        <time>2026-05-11T13:24:13.000Z</time>
      </trkpt>
      <trkpt lat="45.3058" lon="4.555">
        <ele>617</ele>
        <time>2026-05-11T13:24:14.000Z</time>
      </trkpt>
      <trkpt lat="45.30577" lon="4.555">
        <ele>617</ele>
        <time>2026-05-11T13:24:15.000Z</time>
      </trkpt>
      <trkpt lat="45.30575" lon="4.555">
        <ele>616.79998779297</ele>
        <time>2026-05-11T13:24:16.000Z</time>
      </trkpt>
      <trkpt lat="45.30572" lon="4.55501">
        <ele>616.59997558594</ele>
        <time>2026-05-11T13:24:17.000Z</time>
      </trkpt>
      <trkpt lat="45.3057" lon="4.55501">
        <ele>616.40002441406</ele>
        <time>2026-05-11T13:24:18.000Z</time>
      </trkpt>
      <trkpt lat="45.30567" lon="4.55502">
        <ele>616.20001220703</ele>
        <time>2026-05-11T13:24:19.000Z</time>
      </trkpt>
      <trkpt lat="45.30564" lon="4.55503">
        <ele>616</ele>
        <time>2026-05-11T13:24:20.000Z</time>
      </trkpt>
      <trkpt lat="45.30562" lon="4.55503">
        <ele>615.59997558594</ele>
        <time>2026-05-11T13:24:21.000Z</time>
      </trkpt>
      <trkpt lat="45.30559" lon="4.55504">
        <ele>615.40002441406</ele>
        <time>2026-05-11T13:24:22.000Z</time>
      </trkpt>
      <trkpt lat="45.30557" lon="4.55505">
        <ele>615</ele>
        <time>2026-05-11T13:24:23.000Z</time>
      </trkpt>
      <trkpt lat="45.30554" lon="4.55505">
        <ele>614.79998779297</ele>
        <time>2026-05-11T13:24:24.000Z</time>
      </trkpt>
      <trkpt lat="45.30551" lon="4.55506">
        <ele>614.59997558594</ele>
        <time>2026-05-11T13:24:25.000Z</time>
      </trkpt>
      <trkpt lat="45.30549" lon="4.55507">
        <ele>614.20001220703</ele>
        <time>2026-05-11T13:24:26.000Z</time>
      </trkpt>
      <trkpt lat="45.30547" lon="4.55508">
        <ele>614</ele>
        <time>2026-05-11T13:24:27.000Z</time>
      </trkpt>
      <trkpt lat="45.30544" lon="4.55508">
        <ele>613.59997558594</ele>
        <time>2026-05-11T13:24:28.000Z</time>
      </trkpt>
      <trkpt lat="45.30541" lon="4.5551">
        <ele>613.20001220703</ele>
        <time>2026-05-11T13:24:29.000Z</time>
      </trkpt>
      <trkpt lat="45.30539" lon="4.5551">
        <ele>613</ele>
        <time>2026-05-11T13:24:30.000Z</time>
      </trkpt>
      <trkpt lat="45.30536" lon="4.55512">
        <ele>612.59997558594</ele>
        <time>2026-05-11T13:24:31.000Z</time>
      </trkpt>
      <trkpt lat="45.30533" lon="4.55514">
        <ele>612.20001220703</ele>
        <time>2026-05-11T13:24:32.000Z</time>
      </trkpt>
      <trkpt lat="45.3053" lon="4.55517">
        <ele>611.79998779297</ele>
        <time>2026-05-11T13:24:33.000Z</time>
      </trkpt>
      <trkpt lat="45.30527" lon="4.55519">
        <ele>611.40002441406</ele>
        <time>2026-05-11T13:24:34.000Z</time>
      </trkpt>
      <trkpt lat="45.30524" lon="4.55522">
        <ele>610.79998779297</ele>
        <time>2026-05-11T13:24:35.000Z</time>
      </trkpt>
      <trkpt lat="45.30521" lon="4.55524">
        <ele>610.40002441406</ele>
        <time>2026-05-11T13:24:36.000Z</time>
      </trkpt>
      <trkpt lat="45.30518" lon="4.55526">
        <ele>609.79998779297</ele>
        <time>2026-05-11T13:24:37.000Z</time>
      </trkpt>
      <trkpt lat="45.30514" lon="4.55528">
        <ele>609.40002441406</ele>
        <time>2026-05-11T13:24:38.000Z</time>
      </trkpt>
      <trkpt lat="45.30511" lon="4.55529">
        <ele>608.79998779297</ele>
        <time>2026-05-11T13:24:39.000Z</time>
      </trkpt>
      <trkpt lat="45.30507" lon="4.5553">
        <ele>608.20001220703</ele>
        <time>2026-05-11T13:24:40.000Z</time>
      </trkpt>
      <trkpt lat="45.30504" lon="4.55531">
        <ele>607.79998779297</ele>
        <time>2026-05-11T13:24:41.000Z</time>
      </trkpt>
      <trkpt lat="45.30501" lon="4.55531">
        <ele>607.20001220703</ele>
        <time>2026-05-11T13:24:42.000Z</time>
      </trkpt>
      <trkpt lat="45.30498" lon="4.55531">
        <ele>606.79998779297</ele>
        <time>2026-05-11T13:24:43.000Z</time>
      </trkpt>
      <trkpt lat="45.30495" lon="4.55532">
        <ele>606.40002441406</ele>
        <time>2026-05-11T13:24:44.000Z</time>
      </trkpt>
      <trkpt lat="45.30492" lon="4.55533">
        <ele>606.20001220703</ele>
        <time>2026-05-11T13:24:45.000Z</time>
      </trkpt>
      <trkpt lat="45.30489" lon="4.55534">
        <ele>605.79998779297</ele>
        <time>2026-05-11T13:24:46.000Z</time>
      </trkpt>
      <trkpt lat="45.30486" lon="4.55535">
        <ele>605.40002441406</ele>
        <time>2026-05-11T13:24:47.000Z</time>
      </trkpt>
      <trkpt lat="45.30483" lon="4.55535">
        <ele>605</ele>
        <time>2026-05-11T13:24:48.000Z</time>
      </trkpt>
      <trkpt lat="45.3048" lon="4.55536">
        <ele>604.79998779297</ele>
        <time>2026-05-11T13:24:49.000Z</time>
      </trkpt>
      <trkpt lat="45.30478" lon="4.55536">
        <ele>604.40002441406</ele>
        <time>2026-05-11T13:24:50.000Z</time>
      </trkpt>
      <trkpt lat="45.30475" lon="4.55537">
        <ele>604</ele>
        <time>2026-05-11T13:24:51.000Z</time>
      </trkpt>
      <trkpt lat="45.30472" lon="4.55537">
        <ele>603.59997558594</ele>
        <time>2026-05-11T13:24:52.000Z</time>
      </trkpt>
      <trkpt lat="45.3047" lon="4.55537">
        <ele>603.20001220703</ele>
        <time>2026-05-11T13:24:53.000Z</time>
      </trkpt>
      <trkpt lat="45.30468" lon="4.55536">
        <ele>602.79998779297</ele>
        <time>2026-05-11T13:24:54.000Z</time>
      </trkpt>
      <trkpt lat="45.30465" lon="4.55536">
        <ele>602.20001220703</ele>
        <time>2026-05-11T13:24:55.000Z</time>
      </trkpt>
      <trkpt lat="45.30462" lon="4.55536">
        <ele>601.79998779297</ele>
        <time>2026-05-11T13:24:56.000Z</time>
      </trkpt>
      <trkpt lat="45.3046" lon="4.55535">
        <ele>601.40002441406</ele>
        <time>2026-05-11T13:24:57.000Z</time>
      </trkpt>
      <trkpt lat="45.30457" lon="4.55534">
        <ele>601</ele>
        <time>2026-05-11T13:24:58.000Z</time>
      </trkpt>
      <trkpt lat="45.30454" lon="4.55535">
        <ele>600.59997558594</ele>
        <time>2026-05-11T13:24:59.000Z</time>
      </trkpt>
      <trkpt lat="45.30451" lon="4.55537">
        <ele>600.20001220703</ele>
        <time>2026-05-11T13:25:00.000Z</time>
      </trkpt>
      <trkpt lat="45.30448" lon="4.55539">
        <ele>599.79998779297</ele>
        <time>2026-05-11T13:25:01.000Z</time>
      </trkpt>
      <trkpt lat="45.30445" lon="4.5554">
        <ele>599.59997558594</ele>
        <time>2026-05-11T13:25:02.000Z</time>
      </trkpt>
      <trkpt lat="45.30441" lon="4.55542">
        <ele>599.20001220703</ele>
        <time>2026-05-11T13:25:03.000Z</time>
      </trkpt>
      <trkpt lat="45.30437" lon="4.55543">
        <ele>598.79998779297</ele>
        <time>2026-05-11T13:25:04.000Z</time>
      </trkpt>
      <trkpt lat="45.30433" lon="4.55545">
        <ele>598.40002441406</ele>
        <time>2026-05-11T13:25:05.000Z</time>
      </trkpt>
      <trkpt lat="45.3043" lon="4.55546">
        <ele>598</ele>
        <time>2026-05-11T13:25:06.000Z</time>
      </trkpt>
      <trkpt lat="45.30424" lon="4.55548">
        <ele>597.59997558594</ele>
        <time>2026-05-11T13:25:07.000Z</time>
      </trkpt>
      <trkpt lat="45.30424" lon="4.55548">
        <ele>597.20001220703</ele>
        <time>2026-05-11T13:25:08.000Z</time>
      </trkpt>
      <trkpt lat="45.3042" lon="4.55551">
        <ele>596.79998779297</ele>
        <time>2026-05-11T13:25:09.000Z</time>
      </trkpt>
      <trkpt lat="45.30417" lon="4.55553">
        <ele>596.59997558594</ele>
        <time>2026-05-11T13:25:10.000Z</time>
      </trkpt>
      <trkpt lat="45.30413" lon="4.55557">
        <ele>596.20001220703</ele>
        <time>2026-05-11T13:25:11.000Z</time>
      </trkpt>
      <trkpt lat="45.30409" lon="4.55561">
        <ele>595.59997558594</ele>
        <time>2026-05-11T13:25:12.000Z</time>
      </trkpt>
      <trkpt lat="45.30405" lon="4.55564">
        <ele>595.20001220703</ele>
        <time>2026-05-11T13:25:13.000Z</time>
      </trkpt>
      <trkpt lat="45.30401" lon="4.55566">
        <ele>594.79998779297</ele>
        <time>2026-05-11T13:25:14.000Z</time>
      </trkpt>
      <trkpt lat="45.30398" lon="4.55566">
        <ele>594.59997558594</ele>
        <time>2026-05-11T13:25:15.000Z</time>
      </trkpt>
      <trkpt lat="45.30395" lon="4.55565">
        <ele>594.40002441406</ele>
        <time>2026-05-11T13:25:16.000Z</time>
      </trkpt>
      <trkpt lat="45.30392" lon="4.55564">
        <ele>594.40002441406</ele>
        <time>2026-05-11T13:25:17.000Z</time>
      </trkpt>
      <trkpt lat="45.3039" lon="4.55562">
        <ele>594.40002441406</ele>
        <time>2026-05-11T13:25:18.000Z</time>
      </trkpt>
      <trkpt lat="45.30387" lon="4.5556">
        <ele>594.59997558594</ele>
        <time>2026-05-11T13:25:19.000Z</time>
      </trkpt>
      <trkpt lat="45.30385" lon="4.55558">
        <ele>594.59997558594</ele>
        <time>2026-05-11T13:25:20.000Z</time>
      </trkpt>
      <trkpt lat="45.30383" lon="4.55555">
        <ele>594.79998779297</ele>
        <time>2026-05-11T13:25:21.000Z</time>
      </trkpt>
      <trkpt lat="45.30381" lon="4.55553">
        <ele>595</ele>
        <time>2026-05-11T13:25:22.000Z</time>
      </trkpt>
      <trkpt lat="45.30379" lon="4.55553">
        <ele>595.40002441406</ele>
        <time>2026-05-11T13:25:23.000Z</time>
      </trkpt>
      <trkpt lat="45.30376" lon="4.55553">
        <ele>595.59997558594</ele>
        <time>2026-05-11T13:25:24.000Z</time>
      </trkpt>
      <trkpt lat="45.30374" lon="4.55554">
        <ele>596</ele>
        <time>2026-05-11T13:25:25.000Z</time>
      </trkpt>
      <trkpt lat="45.30371" lon="4.55556">
        <ele>596.20001220703</ele>
        <time>2026-05-11T13:25:26.000Z</time>
      </trkpt>
      <trkpt lat="45.30369" lon="4.55558">
        <ele>596.59997558594</ele>
        <time>2026-05-11T13:25:27.000Z</time>
      </trkpt>
      <trkpt lat="45.30367" lon="4.55561">
        <ele>596.79998779297</ele>
        <time>2026-05-11T13:25:28.000Z</time>
      </trkpt>
      <trkpt lat="45.30365" lon="4.55566">
        <ele>597.20001220703</ele>
        <time>2026-05-11T13:25:29.000Z</time>
      </trkpt>
      <trkpt lat="45.30363" lon="4.55571">
        <ele>597.40002441406</ele>
        <time>2026-05-11T13:25:30.000Z</time>
      </trkpt>
      <trkpt lat="45.30361" lon="4.55574">
        <ele>597.79998779297</ele>
        <time>2026-05-11T13:25:31.000Z</time>
      </trkpt>
      <trkpt lat="45.30358" lon="4.55578">
        <ele>597.79998779297</ele>
        <time>2026-05-11T13:25:32.000Z</time>
      </trkpt>
      <trkpt lat="45.30356" lon="4.55581">
        <ele>598</ele>
        <time>2026-05-11T13:25:33.000Z</time>
      </trkpt>
      <trkpt lat="45.30354" lon="4.55584">
        <ele>598</ele>
        <time>2026-05-11T13:25:34.000Z</time>
      </trkpt>
      <trkpt lat="45.30352" lon="4.55587">
        <ele>598.20001220703</ele>
        <time>2026-05-11T13:25:35.000Z</time>
      </trkpt>
      <trkpt lat="45.3035" lon="4.55589">
        <ele>598.20001220703</ele>
        <time>2026-05-11T13:25:36.000Z</time>
      </trkpt>
      <trkpt lat="45.30348" lon="4.55591">
        <ele>598.20001220703</ele>
        <time>2026-05-11T13:25:37.000Z</time>
      </trkpt>
      <trkpt lat="45.30347" lon="4.55593">
        <ele>598.20001220703</ele>
        <time>2026-05-11T13:25:38.000Z</time>
      </trkpt>
      <trkpt lat="45.30345" lon="4.55595">
        <ele>598.20001220703</ele>
        <time>2026-05-11T13:25:39.000Z</time>
      </trkpt>
      <trkpt lat="45.30344" lon="4.55596">
        <ele>598.20001220703</ele>
        <time>2026-05-11T13:25:40.000Z</time>
      </trkpt>
      <trkpt lat="45.30342" lon="4.55598">
        <ele>598.40002441406</ele>
        <time>2026-05-11T13:25:41.000Z</time>
      </trkpt>
      <trkpt lat="45.3034" lon="4.556">
        <ele>598.40002441406</ele>
        <time>2026-05-11T13:25:42.000Z</time>
      </trkpt>
      <trkpt lat="45.30339" lon="4.55601">
        <ele>598.59997558594</ele>
        <time>2026-05-11T13:25:43.000Z</time>
      </trkpt>
      <trkpt lat="45.30337" lon="4.55604">
        <ele>598.59997558594</ele>
        <time>2026-05-11T13:25:44.000Z</time>
      </trkpt>
      <trkpt lat="45.30335" lon="4.55606">
        <ele>598.59997558594</ele>
        <time>2026-05-11T13:25:45.000Z</time>
      </trkpt>
      <trkpt lat="45.30333" lon="4.55608">
        <ele>598.59997558594</ele>
        <time>2026-05-11T13:25:46.000Z</time>
      </trkpt>
      <trkpt lat="45.30331" lon="4.55611">
        <ele>598.59997558594</ele>
        <time>2026-05-11T13:25:47.000Z</time>
      </trkpt>
      <trkpt lat="45.30329" lon="4.55613">
        <ele>598.40002441406</ele>
        <time>2026-05-11T13:25:48.000Z</time>
      </trkpt>
      <trkpt lat="45.30326" lon="4.55615">
        <ele>598.20001220703</ele>
        <time>2026-05-11T13:25:49.000Z</time>
      </trkpt>
      <trkpt lat="45.30323" lon="4.55618">
        <ele>598</ele>
        <time>2026-05-11T13:25:50.000Z</time>
      </trkpt>
      <trkpt lat="45.3032" lon="4.55621">
        <ele>597.79998779297</ele>
        <time>2026-05-11T13:25:51.000Z</time>
      </trkpt>
      <trkpt lat="45.30317" lon="4.55624">
        <ele>597.40002441406</ele>
        <time>2026-05-11T13:25:52.000Z</time>
      </trkpt>
      <trkpt lat="45.30314" lon="4.55627">
        <ele>597</ele>
        <time>2026-05-11T13:25:53.000Z</time>
      </trkpt>
      <trkpt lat="45.3031" lon="4.5563">
        <ele>596.59997558594</ele>
        <time>2026-05-11T13:25:54.000Z</time>
      </trkpt>
      <trkpt lat="45.30307" lon="4.55633">
        <ele>596.20001220703</ele>
        <time>2026-05-11T13:25:55.000Z</time>
      </trkpt>
      <trkpt lat="45.30303" lon="4.55635">
        <ele>595.79998779297</ele>
        <time>2026-05-11T13:25:56.000Z</time>
      </trkpt>
      <trkpt lat="45.30299" lon="4.55637">
        <ele>595.59997558594</ele>
        <time>2026-05-11T13:25:57.000Z</time>
      </trkpt>
      <trkpt lat="45.30295" lon="4.5564">
        <ele>595.20001220703</ele>
        <time>2026-05-11T13:25:58.000Z</time>
      </trkpt>
      <trkpt lat="45.30291" lon="4.55643">
        <ele>594.79998779297</ele>
        <time>2026-05-11T13:25:59.000Z</time>
      </trkpt>
      <trkpt lat="45.30288" lon="4.55645">
        <ele>594.40002441406</ele>
        <time>2026-05-11T13:26:00.000Z</time>
      </trkpt>
      <trkpt lat="45.30284" lon="4.55646">
        <ele>594</ele>
        <time>2026-05-11T13:26:01.000Z</time>
      </trkpt>
      <trkpt lat="45.3028" lon="4.55648">
        <ele>593.59997558594</ele>
        <time>2026-05-11T13:26:02.000Z</time>
      </trkpt>
      <trkpt lat="45.30272" lon="4.55654">
        <ele>593.20001220703</ele>
        <time>2026-05-11T13:26:03.000Z</time>
      </trkpt>
      <trkpt lat="45.30267" lon="4.55657">
        <ele>593</ele>
        <time>2026-05-11T13:26:04.000Z</time>
      </trkpt>
      <trkpt lat="45.30267" lon="4.55657">
        <ele>592.59997558594</ele>
        <time>2026-05-11T13:26:05.000Z</time>
      </trkpt>
      <trkpt lat="45.30262" lon="4.5566">
        <ele>592.20001220703</ele>
        <time>2026-05-11T13:26:06.000Z</time>
      </trkpt>
      <trkpt lat="45.30258" lon="4.55663">
        <ele>591.59997558594</ele>
        <time>2026-05-11T13:26:07.000Z</time>
      </trkpt>
      <trkpt lat="45.30253" lon="4.55666">
        <ele>591.20001220703</ele>
        <time>2026-05-11T13:26:08.000Z</time>
      </trkpt>
      <trkpt lat="45.30248" lon="4.5567">
        <ele>591</ele>
        <time>2026-05-11T13:26:09.000Z</time>
      </trkpt>
      <trkpt lat="45.30244" lon="4.55673">
        <ele>590.79998779297</ele>
        <time>2026-05-11T13:26:10.000Z</time>
      </trkpt>
      <trkpt lat="45.30239" lon="4.55676">
        <ele>590.79998779297</ele>
        <time>2026-05-11T13:26:11.000Z</time>
      </trkpt>
      <trkpt lat="45.30235" lon="4.55678">
        <ele>590.79998779297</ele>
        <time>2026-05-11T13:26:12.000Z</time>
      </trkpt>
      <trkpt lat="45.30226" lon="4.55684">
        <ele>591</ele>
        <time>2026-05-11T13:26:13.000Z</time>
      </trkpt>
      <trkpt lat="45.30226" lon="4.55684">
        <ele>591</ele>
        <time>2026-05-11T13:26:14.000Z</time>
      </trkpt>
      <trkpt lat="45.30218" lon="4.55688">
        <ele>591</ele>
        <time>2026-05-11T13:26:15.000Z</time>
      </trkpt>
      <trkpt lat="45.30218" lon="4.55688">
        <ele>591</ele>
        <time>2026-05-11T13:26:16.000Z</time>
      </trkpt>
      <trkpt lat="45.30214" lon="4.5569">
        <ele>591</ele>
        <time>2026-05-11T13:26:17.000Z</time>
      </trkpt>
      <trkpt lat="45.30205" lon="4.55694">
        <ele>591</ele>
        <time>2026-05-11T13:26:18.000Z</time>
      </trkpt>
      <trkpt lat="45.30205" lon="4.55694">
        <ele>591</ele>
        <time>2026-05-11T13:26:19.000Z</time>
      </trkpt>
      <trkpt lat="45.302" lon="4.55696">
        <ele>591</ele>
        <time>2026-05-11T13:26:20.000Z</time>
      </trkpt>
      <trkpt lat="45.30195" lon="4.55698">
        <ele>590.79998779297</ele>
        <time>2026-05-11T13:26:21.000Z</time>
      </trkpt>
      <trkpt lat="45.3019" lon="4.55699">
        <ele>590.79998779297</ele>
        <time>2026-05-11T13:26:22.000Z</time>
      </trkpt>
      <trkpt lat="45.30186" lon="4.55701">
        <ele>590.79998779297</ele>
        <time>2026-05-11T13:26:23.000Z</time>
      </trkpt>
      <trkpt lat="45.30182" lon="4.55702">
        <ele>590.79998779297</ele>
        <time>2026-05-11T13:26:24.000Z</time>
      </trkpt>
      <trkpt lat="45.30179" lon="4.55702">
        <ele>590.59997558594</ele>
        <time>2026-05-11T13:26:25.000Z</time>
      </trkpt>
      <trkpt lat="45.30175" lon="4.55703">
        <ele>590.59997558594</ele>
        <time>2026-05-11T13:26:26.000Z</time>
      </trkpt>
      <trkpt lat="45.30167" lon="4.55704">
        <ele>590.59997558594</ele>
        <time>2026-05-11T13:26:27.000Z</time>
      </trkpt>
      <trkpt lat="45.30167" lon="4.55704">
        <ele>590.40002441406</ele>
        <time>2026-05-11T13:26:28.000Z</time>
      </trkpt>
      <trkpt lat="45.30164" lon="4.55706">
        <ele>590.40002441406</ele>
        <time>2026-05-11T13:26:29.000Z</time>
      </trkpt>
      <trkpt lat="45.3016" lon="4.55707">
        <ele>590.40002441406</ele>
        <time>2026-05-11T13:26:30.000Z</time>
      </trkpt>
      <trkpt lat="45.30153" lon="4.55709">
        <ele>590.40002441406</ele>
        <time>2026-05-11T13:26:31.000Z</time>
      </trkpt>
      <trkpt lat="45.30153" lon="4.55709">
        <ele>590.59997558594</ele>
        <time>2026-05-11T13:26:32.000Z</time>
      </trkpt>
      <trkpt lat="45.3015" lon="4.5571">
        <ele>590.79998779297</ele>
        <time>2026-05-11T13:26:33.000Z</time>
      </trkpt>
      <trkpt lat="45.30147" lon="4.55712">
        <ele>591</ele>
        <time>2026-05-11T13:26:34.000Z</time>
      </trkpt>
      <trkpt lat="45.30144" lon="4.55713">
        <ele>591.20001220703</ele>
        <time>2026-05-11T13:26:35.000Z</time>
      </trkpt>
      <trkpt lat="45.30141" lon="4.55715">
        <ele>591.20001220703</ele>
        <time>2026-05-11T13:26:36.000Z</time>
      </trkpt>
      <trkpt lat="45.30138" lon="4.55716">
        <ele>591.40002441406</ele>
        <time>2026-05-11T13:26:37.000Z</time>
      </trkpt>
      <trkpt lat="45.30135" lon="4.55718">
        <ele>591.59997558594</ele>
        <time>2026-05-11T13:26:38.000Z</time>
      </trkpt>
      <trkpt lat="45.30129" lon="4.55721">
        <ele>591.79998779297</ele>
        <time>2026-05-11T13:26:39.000Z</time>
      </trkpt>
      <trkpt lat="45.30126" lon="4.55722">
        <ele>592</ele>
        <time>2026-05-11T13:26:40.000Z</time>
      </trkpt>
      <trkpt lat="45.30126" lon="4.55722">
        <ele>592.40002441406</ele>
        <time>2026-05-11T13:26:41.000Z</time>
      </trkpt>
      <trkpt lat="45.30122" lon="4.55723">
        <ele>592.59997558594</ele>
        <time>2026-05-11T13:26:42.000Z</time>
      </trkpt>
      <trkpt lat="45.30117" lon="4.55723">
        <ele>592.79998779297</ele>
        <time>2026-05-11T13:26:43.000Z</time>
      </trkpt>
      <trkpt lat="45.30114" lon="4.55724">
        <ele>593</ele>
        <time>2026-05-11T13:26:44.000Z</time>
      </trkpt>
      <trkpt lat="45.30111" lon="4.55724">
        <ele>593.20001220703</ele>
        <time>2026-05-11T13:26:45.000Z</time>
      </trkpt>
      <trkpt lat="45.30108" lon="4.55724">
        <ele>593.20001220703</ele>
        <time>2026-05-11T13:26:46.000Z</time>
      </trkpt>
      <trkpt lat="45.30104" lon="4.55724">
        <ele>593.40002441406</ele>
        <time>2026-05-11T13:26:47.000Z</time>
      </trkpt>
      <trkpt lat="45.30101" lon="4.55724">
        <ele>593.40002441406</ele>
        <time>2026-05-11T13:26:48.000Z</time>
      </trkpt>
      <trkpt lat="45.30097" lon="4.55724">
        <ele>593.59997558594</ele>
        <time>2026-05-11T13:26:49.000Z</time>
      </trkpt>
      <trkpt lat="45.30094" lon="4.55725">
        <ele>593.59997558594</ele>
        <time>2026-05-11T13:26:50.000Z</time>
      </trkpt>
      <trkpt lat="45.30091" lon="4.55726">
        <ele>593.59997558594</ele>
        <time>2026-05-11T13:26:51.000Z</time>
      </trkpt>
      <trkpt lat="45.30088" lon="4.55728">
        <ele>593.79998779297</ele>
        <time>2026-05-11T13:26:52.000Z</time>
      </trkpt>
      <trkpt lat="45.30086" lon="4.55729">
        <ele>593.79998779297</ele>
        <time>2026-05-11T13:26:53.000Z</time>
      </trkpt>
      <trkpt lat="45.30083" lon="4.5573">
        <ele>593.79998779297</ele>
        <time>2026-05-11T13:26:54.000Z</time>
      </trkpt>
      <trkpt lat="45.3008" lon="4.55732">
        <ele>593.79998779297</ele>
        <time>2026-05-11T13:26:55.000Z</time>
      </trkpt>
      <trkpt lat="45.30078" lon="4.55735">
        <ele>593.79998779297</ele>
        <time>2026-05-11T13:26:56.000Z</time>
      </trkpt>
      <trkpt lat="45.30075" lon="4.55737">
        <ele>593.59997558594</ele>
        <time>2026-05-11T13:26:57.000Z</time>
      </trkpt>
      <trkpt lat="45.30072" lon="4.55739">
        <ele>593.40002441406</ele>
        <time>2026-05-11T13:26:58.000Z</time>
      </trkpt>
      <trkpt lat="45.30069" lon="4.55742">
        <ele>593.20001220703</ele>
        <time>2026-05-11T13:26:59.000Z</time>
      </trkpt>
      <trkpt lat="45.30067" lon="4.55745">
        <ele>593</ele>
        <time>2026-05-11T13:27:00.000Z</time>
      </trkpt>
      <trkpt lat="45.30064" lon="4.55748">
        <ele>593</ele>
        <time>2026-05-11T13:27:01.000Z</time>
      </trkpt>
      <trkpt lat="45.30062" lon="4.55751">
        <ele>593</ele>
        <time>2026-05-11T13:27:02.000Z</time>
      </trkpt>
      <trkpt lat="45.30059" lon="4.55753">
        <ele>592.79998779297</ele>
        <time>2026-05-11T13:27:03.000Z</time>
      </trkpt>
      <trkpt lat="45.30056" lon="4.55756">
        <ele>592.59997558594</ele>
        <time>2026-05-11T13:27:04.000Z</time>
      </trkpt>
      <trkpt lat="45.30054" lon="4.5576">
        <ele>592.40002441406</ele>
        <time>2026-05-11T13:27:05.000Z</time>
      </trkpt>
      <trkpt lat="45.30052" lon="4.55764">
        <ele>592</ele>
        <time>2026-05-11T13:27:06.000Z</time>
      </trkpt>
      <trkpt lat="45.3005" lon="4.55768">
        <ele>591.79998779297</ele>
        <time>2026-05-11T13:27:07.000Z</time>
      </trkpt>
      <trkpt lat="45.30048" lon="4.55773">
        <ele>591.40002441406</ele>
        <time>2026-05-11T13:27:08.000Z</time>
      </trkpt>
      <trkpt lat="45.30046" lon="4.55777">
        <ele>591.20001220703</ele>
        <time>2026-05-11T13:27:09.000Z</time>
      </trkpt>
      <trkpt lat="45.30041" lon="4.55787">
        <ele>591</ele>
        <time>2026-05-11T13:27:10.000Z</time>
      </trkpt>
      <trkpt lat="45.30041" lon="4.55787">
        <ele>590.59997558594</ele>
        <time>2026-05-11T13:27:11.000Z</time>
      </trkpt>
      <trkpt lat="45.30038" lon="4.55792">
        <ele>590.40002441406</ele>
        <time>2026-05-11T13:27:12.000Z</time>
      </trkpt>
      <trkpt lat="45.30036" lon="4.55797">
        <ele>590</ele>
        <time>2026-05-11T13:27:13.000Z</time>
      </trkpt>
      <trkpt lat="45.30033" lon="4.55801">
        <ele>589.79998779297</ele>
        <time>2026-05-11T13:27:14.000Z</time>
      </trkpt>
      <trkpt lat="45.30028" lon="4.55809">
        <ele>589.40002441406</ele>
        <time>2026-05-11T13:27:15.000Z</time>
      </trkpt>
      <trkpt lat="45.30026" lon="4.55813">
        <ele>589.20001220703</ele>
        <time>2026-05-11T13:27:16.000Z</time>
      </trkpt>
      <trkpt lat="45.30026" lon="4.55813">
        <ele>588.79998779297</ele>
        <time>2026-05-11T13:27:17.000Z</time>
      </trkpt>
      <trkpt lat="45.30024" lon="4.55816">
        <ele>588.59997558594</ele>
        <time>2026-05-11T13:27:18.000Z</time>
      </trkpt>
      <trkpt lat="45.30021" lon="4.55818">
        <ele>588.59997558594</ele>
        <time>2026-05-11T13:27:19.000Z</time>
      </trkpt>
      <trkpt lat="45.3002" lon="4.55821">
        <ele>588.40002441406</ele>
        <time>2026-05-11T13:27:20.000Z</time>
      </trkpt>
      <trkpt lat="45.30019" lon="4.55823">
        <ele>588.20001220703</ele>
        <time>2026-05-11T13:27:21.000Z</time>
      </trkpt>
      <trkpt lat="45.30019" lon="4.55823">
        <ele>588.20001220703</ele>
        <time>2026-05-11T13:27:22.000Z</time>
      </trkpt>
      <trkpt lat="45.30017" lon="4.55825">
        <ele>588.20001220703</ele>
        <time>2026-05-11T13:28:02.000Z</time>
      </trkpt>
      <trkpt lat="45.30012" lon="4.5583">
        <ele>588</ele>
        <time>2026-05-11T13:28:03.000Z</time>
      </trkpt>
      <trkpt lat="45.30012" lon="4.5583">
        <ele>588</ele>
        <time>2026-05-11T13:28:04.000Z</time>
      </trkpt>
      <trkpt lat="45.30008" lon="4.55834">
        <ele>588</ele>
        <time>2026-05-11T13:28:05.000Z</time>
      </trkpt>
      <trkpt lat="45.30008" lon="4.55834">
        <ele>587.79998779297</ele>
        <time>2026-05-11T13:28:06.000Z</time>
      </trkpt>
      <trkpt lat="45.30004" lon="4.55839">
        <ele>587.79998779297</ele>
        <time>2026-05-11T13:28:07.000Z</time>
      </trkpt>
      <trkpt lat="45.30004" lon="4.55839">
        <ele>587.79998779297</ele>
        <time>2026-05-11T13:28:08.000Z</time>
      </trkpt>
      <trkpt lat="45.29999" lon="4.55844">
        <ele>587.79998779297</ele>
        <time>2026-05-11T13:28:09.000Z</time>
      </trkpt>
      <trkpt lat="45.29999" lon="4.55844">
        <ele>587.79998779297</ele>
        <time>2026-05-11T13:28:10.000Z</time>
      </trkpt>
      <trkpt lat="45.29997" lon="4.55847">
        <ele>587.79998779297</ele>
        <time>2026-05-11T13:28:11.000Z</time>
      </trkpt>
      <trkpt lat="45.29993" lon="4.55853">
        <ele>587.79998779297</ele>
        <time>2026-05-11T13:28:12.000Z</time>
      </trkpt>
      <trkpt lat="45.29991" lon="4.55855">
        <ele>587.79998779297</ele>
        <time>2026-05-11T13:28:13.000Z</time>
      </trkpt>
      <trkpt lat="45.29991" lon="4.55855">
        <ele>587.79998779297</ele>
        <time>2026-05-11T13:28:14.000Z</time>
      </trkpt>
      <trkpt lat="45.29988" lon="4.55858">
        <ele>587.79998779297</ele>
        <time>2026-05-11T13:28:15.000Z</time>
      </trkpt>
      <trkpt lat="45.29983" lon="4.55864">
        <ele>587.59997558594</ele>
        <time>2026-05-11T13:28:16.000Z</time>
      </trkpt>
      <trkpt lat="45.29983" lon="4.55864">
        <ele>587.59997558594</ele>
        <time>2026-05-11T13:28:17.000Z</time>
      </trkpt>
      <trkpt lat="45.2998" lon="4.55867">
        <ele>587.59997558594</ele>
        <time>2026-05-11T13:28:18.000Z</time>
      </trkpt>
      <trkpt lat="45.29975" lon="4.55872">
        <ele>587.40002441406</ele>
        <time>2026-05-11T13:28:19.000Z</time>
      </trkpt>
      <trkpt lat="45.29975" lon="4.55872">
        <ele>587.20001220703</ele>
        <time>2026-05-11T13:28:20.000Z</time>
      </trkpt>
      <trkpt lat="45.29973" lon="4.55875">
        <ele>587.20001220703</ele>
        <time>2026-05-11T13:28:21.000Z</time>
      </trkpt>
      <trkpt lat="45.29971" lon="4.55878">
        <ele>587</ele>
        <time>2026-05-11T13:28:22.000Z</time>
      </trkpt>
      <trkpt lat="45.29968" lon="4.55881">
        <ele>586.79998779297</ele>
        <time>2026-05-11T13:28:23.000Z</time>
      </trkpt>
      <trkpt lat="45.29965" lon="4.55884">
        <ele>586.59997558594</ele>
        <time>2026-05-11T13:28:24.000Z</time>
      </trkpt>
      <trkpt lat="45.29962" lon="4.55888">
        <ele>586.40002441406</ele>
        <time>2026-05-11T13:28:25.000Z</time>
      </trkpt>
      <trkpt lat="45.2996" lon="4.55892">
        <ele>586.20001220703</ele>
        <time>2026-05-11T13:28:26.000Z</time>
      </trkpt>
      <trkpt lat="45.29955" lon="4.55899">
        <ele>586</ele>
        <time>2026-05-11T13:28:27.000Z</time>
      </trkpt>
      <trkpt lat="45.29955" lon="4.55899">
        <ele>585.79998779297</ele>
        <time>2026-05-11T13:28:28.000Z</time>
      </trkpt>
      <trkpt lat="45.29953" lon="4.55902">
        <ele>585.79998779297</ele>
        <time>2026-05-11T13:28:29.000Z</time>
      </trkpt>
      <trkpt lat="45.29951" lon="4.55906">
        <ele>585.79998779297</ele>
        <time>2026-05-11T13:28:30.000Z</time>
      </trkpt>
      <trkpt lat="45.29948" lon="4.5591">
        <ele>586</ele>
        <time>2026-05-11T13:28:31.000Z</time>
      </trkpt>
      <trkpt lat="45.29946" lon="4.55913">
        <ele>586</ele>
        <time>2026-05-11T13:28:32.000Z</time>
      </trkpt>
      <trkpt lat="45.29944" lon="4.55917">
        <ele>586.20001220703</ele>
        <time>2026-05-11T13:28:33.000Z</time>
      </trkpt>
      <trkpt lat="45.29939" lon="4.55925">
        <ele>586.20001220703</ele>
        <time>2026-05-11T13:28:34.000Z</time>
      </trkpt>
      <trkpt lat="45.29939" lon="4.55925">
        <ele>586.40002441406</ele>
        <time>2026-05-11T13:28:35.000Z</time>
      </trkpt>
      <trkpt lat="45.29937" lon="4.55929">
        <ele>586.59997558594</ele>
        <time>2026-05-11T13:28:36.000Z</time>
      </trkpt>
      <trkpt lat="45.29935" lon="4.55933">
        <ele>586.79998779297</ele>
        <time>2026-05-11T13:28:37.000Z</time>
      </trkpt>
      <trkpt lat="45.29932" lon="4.55937">
        <ele>587</ele>
        <time>2026-05-11T13:28:38.000Z</time>
      </trkpt>
      <trkpt lat="45.29929" lon="4.55941">
        <ele>587.20001220703</ele>
        <time>2026-05-11T13:28:39.000Z</time>
      </trkpt>
      <trkpt lat="45.29927" lon="4.55945">
        <ele>587.59997558594</ele>
        <time>2026-05-11T13:28:40.000Z</time>
      </trkpt>
      <trkpt lat="45.29924" lon="4.55949">
        <ele>587.79998779297</ele>
        <time>2026-05-11T13:28:41.000Z</time>
      </trkpt>
      <trkpt lat="45.29922" lon="4.55952">
        <ele>588</ele>
        <time>2026-05-11T13:28:42.000Z</time>
      </trkpt>
      <trkpt lat="45.2992" lon="4.55956">
        <ele>588.20001220703</ele>
        <time>2026-05-11T13:28:43.000Z</time>
      </trkpt>
      <trkpt lat="45.29917" lon="4.55961">
        <ele>588.40002441406</ele>
        <time>2026-05-11T13:28:44.000Z</time>
      </trkpt>
      <trkpt lat="45.29915" lon="4.55964">
        <ele>588.59997558594</ele>
        <time>2026-05-11T13:28:45.000Z</time>
      </trkpt>
      <trkpt lat="45.29913" lon="4.55968">
        <ele>589</ele>
        <time>2026-05-11T13:28:46.000Z</time>
      </trkpt>
      <trkpt lat="45.29911" lon="4.55973">
        <ele>589.20001220703</ele>
        <time>2026-05-11T13:28:47.000Z</time>
      </trkpt>
      <trkpt lat="45.29909" lon="4.55977">
        <ele>589.40002441406</ele>
        <time>2026-05-11T13:28:48.000Z</time>
      </trkpt>
      <trkpt lat="45.29907" lon="4.55981">
        <ele>589.59997558594</ele>
        <time>2026-05-11T13:28:49.000Z</time>
      </trkpt>
      <trkpt lat="45.29904" lon="4.55985">
        <ele>590</ele>
        <time>2026-05-11T13:28:50.000Z</time>
      </trkpt>
      <trkpt lat="45.29903" lon="4.5599">
        <ele>590.20001220703</ele>
        <time>2026-05-11T13:28:51.000Z</time>
      </trkpt>
      <trkpt lat="45.29901" lon="4.55994">
        <ele>590.40002441406</ele>
        <time>2026-05-11T13:28:52.000Z</time>
      </trkpt>
      <trkpt lat="45.29899" lon="4.55998">
        <ele>590.59997558594</ele>
        <time>2026-05-11T13:28:53.000Z</time>
      </trkpt>
      <trkpt lat="45.29897" lon="4.56002">
        <ele>590.79998779297</ele>
        <time>2026-05-11T13:28:54.000Z</time>
      </trkpt>
      <trkpt lat="45.29896" lon="4.56007">
        <ele>591</ele>
        <time>2026-05-11T13:28:55.000Z</time>
      </trkpt>
      <trkpt lat="45.29894" lon="4.56011">
        <ele>591.20001220703</ele>
        <time>2026-05-11T13:28:56.000Z</time>
      </trkpt>
      <trkpt lat="45.29893" lon="4.56015">
        <ele>591.40002441406</ele>
        <time>2026-05-11T13:28:57.000Z</time>
      </trkpt>
      <trkpt lat="45.29889" lon="4.56024">
        <ele>591.59997558594</ele>
        <time>2026-05-11T13:28:58.000Z</time>
      </trkpt>
      <trkpt lat="45.29889" lon="4.56024">
        <ele>591.79998779297</ele>
        <time>2026-05-11T13:28:59.000Z</time>
      </trkpt>
      <trkpt lat="45.29888" lon="4.56028">
        <ele>592</ele>
        <time>2026-05-11T13:29:00.000Z</time>
      </trkpt>
      <trkpt lat="45.29886" lon="4.56032">
        <ele>592.20001220703</ele>
        <time>2026-05-11T13:29:01.000Z</time>
      </trkpt>
      <trkpt lat="45.29885" lon="4.56037">
        <ele>592.40002441406</ele>
        <time>2026-05-11T13:29:02.000Z</time>
      </trkpt>
      <trkpt lat="45.29883" lon="4.56041">
        <ele>592.59997558594</ele>
        <time>2026-05-11T13:29:03.000Z</time>
      </trkpt>
      <trkpt lat="45.29882" lon="4.56045">
        <ele>592.79998779297</ele>
        <time>2026-05-11T13:29:04.000Z</time>
      </trkpt>
      <trkpt lat="45.2988" lon="4.56049">
        <ele>593.20001220703</ele>
        <time>2026-05-11T13:29:05.000Z</time>
      </trkpt>
      <trkpt lat="45.29879" lon="4.56052">
        <ele>593.40002441406</ele>
        <time>2026-05-11T13:29:06.000Z</time>
      </trkpt>
      <trkpt lat="45.29877" lon="4.56056">
        <ele>593.59997558594</ele>
        <time>2026-05-11T13:29:07.000Z</time>
      </trkpt>
      <trkpt lat="45.29876" lon="4.5606">
        <ele>593.79998779297</ele>
        <time>2026-05-11T13:29:08.000Z</time>
      </trkpt>
      <trkpt lat="45.29874" lon="4.56064">
        <ele>594</ele>
        <time>2026-05-11T13:29:09.000Z</time>
      </trkpt>
      <trkpt lat="45.29873" lon="4.56067">
        <ele>594.20001220703</ele>
        <time>2026-05-11T13:29:10.000Z</time>
      </trkpt>
      <trkpt lat="45.29871" lon="4.56071">
        <ele>594.40002441406</ele>
        <time>2026-05-11T13:29:11.000Z</time>
      </trkpt>
      <trkpt lat="45.2987" lon="4.56075">
        <ele>594.79998779297</ele>
        <time>2026-05-11T13:29:12.000Z</time>
      </trkpt>
      <trkpt lat="45.29869" lon="4.5608">
        <ele>595</ele>
        <time>2026-05-11T13:29:13.000Z</time>
      </trkpt>
      <trkpt lat="45.29867" lon="4.56084">
        <ele>595.20001220703</ele>
        <time>2026-05-11T13:29:14.000Z</time>
      </trkpt>
      <trkpt lat="45.29866" lon="4.56088">
        <ele>595.40002441406</ele>
        <time>2026-05-11T13:29:15.000Z</time>
      </trkpt>
      <trkpt lat="45.29864" lon="4.56093">
        <ele>595.59997558594</ele>
        <time>2026-05-11T13:29:16.000Z</time>
      </trkpt>
      <trkpt lat="45.29863" lon="4.56097">
        <ele>595.79998779297</ele>
        <time>2026-05-11T13:29:17.000Z</time>
      </trkpt>
      <trkpt lat="45.29862" lon="4.56102">
        <ele>596</ele>
        <time>2026-05-11T13:29:18.000Z</time>
      </trkpt>
      <trkpt lat="45.29861" lon="4.56106">
        <ele>596.20001220703</ele>
        <time>2026-05-11T13:29:19.000Z</time>
      </trkpt>
      <trkpt lat="45.2986" lon="4.56111">
        <ele>596.40002441406</ele>
        <time>2026-05-11T13:29:20.000Z</time>
      </trkpt>
      <trkpt lat="45.29859" lon="4.56115">
        <ele>596.59997558594</ele>
        <time>2026-05-11T13:29:21.000Z</time>
      </trkpt>
      <trkpt lat="45.29858" lon="4.5612">
        <ele>596.79998779297</ele>
        <time>2026-05-11T13:29:22.000Z</time>
      </trkpt>
      <trkpt lat="45.29857" lon="4.56124">
        <ele>597</ele>
        <time>2026-05-11T13:29:23.000Z</time>
      </trkpt>
      <trkpt lat="45.29856" lon="4.56129">
        <ele>597</ele>
        <time>2026-05-11T13:29:24.000Z</time>
      </trkpt>
      <trkpt lat="45.29856" lon="4.56134">
        <ele>597.20001220703</ele>
        <time>2026-05-11T13:29:25.000Z</time>
      </trkpt>
      <trkpt lat="45.29855" lon="4.56138">
        <ele>597.40002441406</ele>
        <time>2026-05-11T13:29:26.000Z</time>
      </trkpt>
      <trkpt lat="45.29854" lon="4.56143">
        <ele>597.59997558594</ele>
        <time>2026-05-11T13:29:27.000Z</time>
      </trkpt>
      <trkpt lat="45.29854" lon="4.56148">
        <ele>597.79998779297</ele>
        <time>2026-05-11T13:29:28.000Z</time>
      </trkpt>
      <trkpt lat="45.29854" lon="4.56152">
        <ele>598</ele>
        <time>2026-05-11T13:29:29.000Z</time>
      </trkpt>
      <trkpt lat="45.29855" lon="4.56157">
        <ele>598.40002441406</ele>
        <time>2026-05-11T13:29:30.000Z</time>
      </trkpt>
      <trkpt lat="45.29856" lon="4.56162">
        <ele>598.59997558594</ele>
        <time>2026-05-11T13:29:31.000Z</time>
      </trkpt>
      <trkpt lat="45.29857" lon="4.56167">
        <ele>598.79998779297</ele>
        <time>2026-05-11T13:29:32.000Z</time>
      </trkpt>
      <trkpt lat="45.29858" lon="4.56172">
        <ele>598.79998779297</ele>
        <time>2026-05-11T13:29:33.000Z</time>
      </trkpt>
      <trkpt lat="45.29859" lon="4.56176">
        <ele>599</ele>
        <time>2026-05-11T13:29:34.000Z</time>
      </trkpt>
      <trkpt lat="45.2986" lon="4.5618">
        <ele>599.20001220703</ele>
        <time>2026-05-11T13:29:35.000Z</time>
      </trkpt>
      <trkpt lat="45.29861" lon="4.56184">
        <ele>599.40002441406</ele>
        <time>2026-05-11T13:29:36.000Z</time>
      </trkpt>
      <trkpt lat="45.29863" lon="4.56189">
        <ele>599.59997558594</ele>
        <time>2026-05-11T13:29:37.000Z</time>
      </trkpt>
      <trkpt lat="45.29864" lon="4.56193">
        <ele>599.79998779297</ele>
        <time>2026-05-11T13:29:38.000Z</time>
      </trkpt>
      <trkpt lat="45.29865" lon="4.56197">
        <ele>600</ele>
        <time>2026-05-11T13:29:39.000Z</time>
      </trkpt>
      <trkpt lat="45.29867" lon="4.56201">
        <ele>600.20001220703</ele>
        <time>2026-05-11T13:29:40.000Z</time>
      </trkpt>
      <trkpt lat="45.29869" lon="4.56205">
        <ele>600.40002441406</ele>
        <time>2026-05-11T13:29:41.000Z</time>
      </trkpt>
      <trkpt lat="45.2987" lon="4.5621">
        <ele>600.40002441406</ele>
        <time>2026-05-11T13:29:42.000Z</time>
      </trkpt>
      <trkpt lat="45.29872" lon="4.56215">
        <ele>600.40002441406</ele>
        <time>2026-05-11T13:29:43.000Z</time>
      </trkpt>
      <trkpt lat="45.29874" lon="4.56221">
        <ele>600.59997558594</ele>
        <time>2026-05-11T13:29:44.000Z</time>
      </trkpt>
      <trkpt lat="45.29876" lon="4.56226">
        <ele>600.59997558594</ele>
        <time>2026-05-11T13:29:45.000Z</time>
      </trkpt>
      <trkpt lat="45.29878" lon="4.56231">
        <ele>600.59997558594</ele>
        <time>2026-05-11T13:29:46.000Z</time>
      </trkpt>
      <trkpt lat="45.2988" lon="4.56237">
        <ele>600.59997558594</ele>
        <time>2026-05-11T13:29:47.000Z</time>
      </trkpt>
      <trkpt lat="45.29881" lon="4.56242">
        <ele>600.40002441406</ele>
        <time>2026-05-11T13:29:48.000Z</time>
      </trkpt>
      <trkpt lat="45.29883" lon="4.56248">
        <ele>600.40002441406</ele>
        <time>2026-05-11T13:29:49.000Z</time>
      </trkpt>
      <trkpt lat="45.29885" lon="4.56253">
        <ele>600.40002441406</ele>
        <time>2026-05-11T13:29:50.000Z</time>
      </trkpt>
      <trkpt lat="45.29887" lon="4.56259">
        <ele>600.40002441406</ele>
        <time>2026-05-11T13:29:51.000Z</time>
      </trkpt>
      <trkpt lat="45.29889" lon="4.56265">
        <ele>600.20001220703</ele>
        <time>2026-05-11T13:29:52.000Z</time>
      </trkpt>
      <trkpt lat="45.2989" lon="4.56271">
        <ele>600.20001220703</ele>
        <time>2026-05-11T13:29:53.000Z</time>
      </trkpt>
      <trkpt lat="45.29892" lon="4.56277">
        <ele>600</ele>
        <time>2026-05-11T13:29:54.000Z</time>
      </trkpt>
      <trkpt lat="45.29895" lon="4.56283">
        <ele>600</ele>
        <time>2026-05-11T13:29:55.000Z</time>
      </trkpt>
      <trkpt lat="45.29897" lon="4.5629">
        <ele>599.79998779297</ele>
        <time>2026-05-11T13:29:56.000Z</time>
      </trkpt>
      <trkpt lat="45.29899" lon="4.56296">
        <ele>599.79998779297</ele>
        <time>2026-05-11T13:29:57.000Z</time>
      </trkpt>
      <trkpt lat="45.29901" lon="4.56302">
        <ele>599.59997558594</ele>
        <time>2026-05-11T13:29:58.000Z</time>
      </trkpt>
      <trkpt lat="45.29904" lon="4.56308">
        <ele>599.59997558594</ele>
        <time>2026-05-11T13:29:59.000Z</time>
      </trkpt>
      <trkpt lat="45.29906" lon="4.56314">
        <ele>599.40002441406</ele>
        <time>2026-05-11T13:30:00.000Z</time>
      </trkpt>
      <trkpt lat="45.29908" lon="4.56321">
        <ele>599.20001220703</ele>
        <time>2026-05-11T13:30:01.000Z</time>
      </trkpt>
      <trkpt lat="45.2991" lon="4.56327">
        <ele>599</ele>
        <time>2026-05-11T13:30:02.000Z</time>
      </trkpt>
      <trkpt lat="45.29911" lon="4.56334">
        <ele>598.79998779297</ele>
        <time>2026-05-11T13:30:03.000Z</time>
      </trkpt>
      <trkpt lat="45.29912" lon="4.56348">
        <ele>598.59997558594</ele>
        <time>2026-05-11T13:30:04.000Z</time>
      </trkpt>
      <trkpt lat="45.29912" lon="4.56348">
        <ele>598.59997558594</ele>
        <time>2026-05-11T13:30:05.000Z</time>
      </trkpt>
      <trkpt lat="45.29912" lon="4.56355">
        <ele>598.40002441406</ele>
        <time>2026-05-11T13:30:06.000Z</time>
      </trkpt>
      <trkpt lat="45.29911" lon="4.56361">
        <ele>598.40002441406</ele>
        <time>2026-05-11T13:30:07.000Z</time>
      </trkpt>
      <trkpt lat="45.2991" lon="4.56368">
        <ele>598.20001220703</ele>
        <time>2026-05-11T13:30:08.000Z</time>
      </trkpt>
      <trkpt lat="45.29909" lon="4.56375">
        <ele>598</ele>
        <time>2026-05-11T13:30:09.000Z</time>
      </trkpt>
      <trkpt lat="45.29909" lon="4.56382">
        <ele>598</ele>
        <time>2026-05-11T13:30:10.000Z</time>
      </trkpt>
      <trkpt lat="45.29908" lon="4.5639">
        <ele>597.79998779297</ele>
        <time>2026-05-11T13:30:11.000Z</time>
      </trkpt>
      <trkpt lat="45.29908" lon="4.56397">
        <ele>597.59997558594</ele>
        <time>2026-05-11T13:30:12.000Z</time>
      </trkpt>
      <trkpt lat="45.29908" lon="4.56404">
        <ele>597.40002441406</ele>
        <time>2026-05-11T13:30:13.000Z</time>
      </trkpt>
      <trkpt lat="45.29908" lon="4.56412">
        <ele>597.20001220703</ele>
        <time>2026-05-11T13:30:14.000Z</time>
      </trkpt>
      <trkpt lat="45.29908" lon="4.56419">
        <ele>597</ele>
        <time>2026-05-11T13:30:15.000Z</time>
      </trkpt>
      <trkpt lat="45.29908" lon="4.56427">
        <ele>597</ele>
        <time>2026-05-11T13:30:16.000Z</time>
      </trkpt>
      <trkpt lat="45.29908" lon="4.56434">
        <ele>596.79998779297</ele>
        <time>2026-05-11T13:30:17.000Z</time>
      </trkpt>
      <trkpt lat="45.29908" lon="4.56441">
        <ele>596.59997558594</ele>
        <time>2026-05-11T13:30:18.000Z</time>
      </trkpt>
      <trkpt lat="45.29909" lon="4.56449">
        <ele>596.59997558594</ele>
        <time>2026-05-11T13:30:19.000Z</time>
      </trkpt>
      <trkpt lat="45.29909" lon="4.56456">
        <ele>596.40002441406</ele>
        <time>2026-05-11T13:30:20.000Z</time>
      </trkpt>
      <trkpt lat="45.2991" lon="4.56464">
        <ele>596.40002441406</ele>
        <time>2026-05-11T13:30:21.000Z</time>
      </trkpt>
      <trkpt lat="45.29912" lon="4.56471">
        <ele>596.20001220703</ele>
        <time>2026-05-11T13:30:22.000Z</time>
      </trkpt>
      <trkpt lat="45.29913" lon="4.56478">
        <ele>596</ele>
        <time>2026-05-11T13:30:23.000Z</time>
      </trkpt>
      <trkpt lat="45.29914" lon="4.56486">
        <ele>596</ele>
        <time>2026-05-11T13:30:24.000Z</time>
      </trkpt>
      <trkpt lat="45.29915" lon="4.56495">
        <ele>595.79998779297</ele>
        <time>2026-05-11T13:30:25.000Z</time>
      </trkpt>
      <trkpt lat="45.29916" lon="4.56502">
        <ele>595.59997558594</ele>
        <time>2026-05-11T13:30:26.000Z</time>
      </trkpt>
      <trkpt lat="45.29918" lon="4.56511">
        <ele>595.59997558594</ele>
        <time>2026-05-11T13:30:27.000Z</time>
      </trkpt>
      <trkpt lat="45.2992" lon="4.56527">
        <ele>595.40002441406</ele>
        <time>2026-05-11T13:30:28.000Z</time>
      </trkpt>
      <trkpt lat="45.2992" lon="4.56527">
        <ele>595.20001220703</ele>
        <time>2026-05-11T13:30:29.000Z</time>
      </trkpt>
      <trkpt lat="45.29922" lon="4.56536">
        <ele>595</ele>
        <time>2026-05-11T13:30:30.000Z</time>
      </trkpt>
      <trkpt lat="45.29923" lon="4.56545">
        <ele>594.79998779297</ele>
        <time>2026-05-11T13:30:31.000Z</time>
      </trkpt>
      <trkpt lat="45.29924" lon="4.56554">
        <ele>594.40002441406</ele>
        <time>2026-05-11T13:30:32.000Z</time>
      </trkpt>
      <trkpt lat="45.29925" lon="4.56563">
        <ele>594.20001220703</ele>
        <time>2026-05-11T13:30:33.000Z</time>
      </trkpt>
      <trkpt lat="45.29925" lon="4.5658">
        <ele>594</ele>
        <time>2026-05-11T13:30:34.000Z</time>
      </trkpt>
      <trkpt lat="45.29925" lon="4.5658">
        <ele>593.79998779297</ele>
        <time>2026-05-11T13:30:35.000Z</time>
      </trkpt>
      <trkpt lat="45.29925" lon="4.56589">
        <ele>593.40002441406</ele>
        <time>2026-05-11T13:30:36.000Z</time>
      </trkpt>
      <trkpt lat="45.29925" lon="4.56598">
        <ele>593.20001220703</ele>
        <time>2026-05-11T13:30:37.000Z</time>
      </trkpt>
      <trkpt lat="45.29924" lon="4.56606">
        <ele>592.79998779297</ele>
        <time>2026-05-11T13:30:38.000Z</time>
      </trkpt>
      <trkpt lat="45.29922" lon="4.56615">
        <ele>592.59997558594</ele>
        <time>2026-05-11T13:30:39.000Z</time>
      </trkpt>
      <trkpt lat="45.2992" lon="4.56623">
        <ele>592.20001220703</ele>
        <time>2026-05-11T13:30:40.000Z</time>
      </trkpt>
      <trkpt lat="45.29918" lon="4.56631">
        <ele>592</ele>
        <time>2026-05-11T13:30:41.000Z</time>
      </trkpt>
      <trkpt lat="45.29918" lon="4.56639">
        <ele>591.59997558594</ele>
        <time>2026-05-11T13:30:42.000Z</time>
      </trkpt>
      <trkpt lat="45.29917" lon="4.56648">
        <ele>591.40002441406</ele>
        <time>2026-05-11T13:30:43.000Z</time>
      </trkpt>
      <trkpt lat="45.29917" lon="4.56656">
        <ele>591.20001220703</ele>
        <time>2026-05-11T13:30:44.000Z</time>
      </trkpt>
      <trkpt lat="45.29917" lon="4.56664">
        <ele>591</ele>
        <time>2026-05-11T13:30:45.000Z</time>
      </trkpt>
      <trkpt lat="45.29919" lon="4.5668">
        <ele>591</ele>
        <time>2026-05-11T13:30:46.000Z</time>
      </trkpt>
      <trkpt lat="45.29919" lon="4.5668">
        <ele>590.79998779297</ele>
        <time>2026-05-11T13:30:47.000Z</time>
      </trkpt>
      <trkpt lat="45.2992" lon="4.56687">
        <ele>590.59997558594</ele>
        <time>2026-05-11T13:30:48.000Z</time>
      </trkpt>
      <trkpt lat="45.29922" lon="4.56695">
        <ele>590.40002441406</ele>
        <time>2026-05-11T13:30:49.000Z</time>
      </trkpt>
      <trkpt lat="45.29925" lon="4.56702">
        <ele>590.40002441406</ele>
        <time>2026-05-11T13:30:50.000Z</time>
      </trkpt>
      <trkpt lat="45.29928" lon="4.5671">
        <ele>590.20001220703</ele>
        <time>2026-05-11T13:30:51.000Z</time>
      </trkpt>
      <trkpt lat="45.2993" lon="4.56717">
        <ele>590.20001220703</ele>
        <time>2026-05-11T13:30:52.000Z</time>
      </trkpt>
      <trkpt lat="45.29933" lon="4.56724">
        <ele>590</ele>
        <time>2026-05-11T13:30:53.000Z</time>
      </trkpt>
      <trkpt lat="45.29935" lon="4.56731">
        <ele>589.79998779297</ele>
        <time>2026-05-11T13:30:54.000Z</time>
      </trkpt>
      <trkpt lat="45.29938" lon="4.56738">
        <ele>589.59997558594</ele>
        <time>2026-05-11T13:30:55.000Z</time>
      </trkpt>
      <trkpt lat="45.2994" lon="4.56746">
        <ele>589.59997558594</ele>
        <time>2026-05-11T13:30:56.000Z</time>
      </trkpt>
      <trkpt lat="45.29943" lon="4.56753">
        <ele>589.40002441406</ele>
        <time>2026-05-11T13:30:57.000Z</time>
      </trkpt>
      <trkpt lat="45.29946" lon="4.56759">
        <ele>589.20001220703</ele>
        <time>2026-05-11T13:30:58.000Z</time>
      </trkpt>
      <trkpt lat="45.2995" lon="4.56766">
        <ele>589.20001220703</ele>
        <time>2026-05-11T13:30:59.000Z</time>
      </trkpt>
      <trkpt lat="45.29954" lon="4.56772">
        <ele>589</ele>
        <time>2026-05-11T13:31:00.000Z</time>
      </trkpt>
      <trkpt lat="45.29959" lon="4.56776">
        <ele>588.79998779297</ele>
        <time>2026-05-11T13:31:01.000Z</time>
      </trkpt>
      <trkpt lat="45.29963" lon="4.5678">
        <ele>588.40002441406</ele>
        <time>2026-05-11T13:31:02.000Z</time>
      </trkpt>
      <trkpt lat="45.29968" lon="4.56783">
        <ele>588.20001220703</ele>
        <time>2026-05-11T13:31:03.000Z</time>
      </trkpt>
      <trkpt lat="45.29974" lon="4.56785">
        <ele>587.79998779297</ele>
        <time>2026-05-11T13:31:04.000Z</time>
      </trkpt>
      <trkpt lat="45.29979" lon="4.56786">
        <ele>587.59997558594</ele>
        <time>2026-05-11T13:31:05.000Z</time>
      </trkpt>
      <trkpt lat="45.29985" lon="4.56788">
        <ele>587</ele>
        <time>2026-05-11T13:31:06.000Z</time>
      </trkpt>
      <trkpt lat="45.29991" lon="4.5679">
        <ele>586.79998779297</ele>
        <time>2026-05-11T13:31:07.000Z</time>
      </trkpt>
      <trkpt lat="45.29996" lon="4.56791">
        <ele>586.40002441406</ele>
        <time>2026-05-11T13:31:08.000Z</time>
      </trkpt>
      <trkpt lat="45.30001" lon="4.56792">
        <ele>586.20001220703</ele>
        <time>2026-05-11T13:31:09.000Z</time>
      </trkpt>
      <trkpt lat="45.30007" lon="4.56792">
        <ele>585.79998779297</ele>
        <time>2026-05-11T13:31:10.000Z</time>
      </trkpt>
      <trkpt lat="45.30012" lon="4.56793">
        <ele>585.59997558594</ele>
        <time>2026-05-11T13:31:11.000Z</time>
      </trkpt>
      <trkpt lat="45.30016" lon="4.56794">
        <ele>585.20001220703</ele>
        <time>2026-05-11T13:31:12.000Z</time>
      </trkpt>
      <trkpt lat="45.30021" lon="4.56797">
        <ele>585</ele>
        <time>2026-05-11T13:31:13.000Z</time>
      </trkpt>
      <trkpt lat="45.30025" lon="4.56799">
        <ele>584.79998779297</ele>
        <time>2026-05-11T13:31:14.000Z</time>
      </trkpt>
      <trkpt lat="45.30028" lon="4.56802">
        <ele>584.59997558594</ele>
        <time>2026-05-11T13:31:15.000Z</time>
      </trkpt>
      <trkpt lat="45.30032" lon="4.56805">
        <ele>584.59997558594</ele>
        <time>2026-05-11T13:31:16.000Z</time>
      </trkpt>
      <trkpt lat="45.30035" lon="4.56806">
        <ele>584.40002441406</ele>
        <time>2026-05-11T13:31:17.000Z</time>
      </trkpt>
      <trkpt lat="45.30039" lon="4.56807">
        <ele>584.20001220703</ele>
        <time>2026-05-11T13:31:18.000Z</time>
      </trkpt>
      <trkpt lat="45.30042" lon="4.56807">
        <ele>584.20001220703</ele>
        <time>2026-05-11T13:31:19.000Z</time>
      </trkpt>
      <trkpt lat="45.30045" lon="4.56807">
        <ele>584</ele>
        <time>2026-05-11T13:31:20.000Z</time>
      </trkpt>
      <trkpt lat="45.30048" lon="4.56807">
        <ele>584</ele>
        <time>2026-05-11T13:31:21.000Z</time>
      </trkpt>
      <trkpt lat="45.3005" lon="4.56807">
        <ele>584.20001220703</ele>
        <time>2026-05-11T13:31:22.000Z</time>
      </trkpt>
      <trkpt lat="45.30053" lon="4.56807">
        <ele>584.20001220703</ele>
        <time>2026-05-11T13:31:23.000Z</time>
      </trkpt>
      <trkpt lat="45.30056" lon="4.56807">
        <ele>584.20001220703</ele>
        <time>2026-05-11T13:31:24.000Z</time>
      </trkpt>
      <trkpt lat="45.30059" lon="4.56806">
        <ele>584.20001220703</ele>
        <time>2026-05-11T13:31:25.000Z</time>
      </trkpt>
      <trkpt lat="45.30062" lon="4.56805">
        <ele>584.20001220703</ele>
        <time>2026-05-11T13:31:26.000Z</time>
      </trkpt>
      <trkpt lat="45.30066" lon="4.56803">
        <ele>584.20001220703</ele>
        <time>2026-05-11T13:31:27.000Z</time>
      </trkpt>
      <trkpt lat="45.3007" lon="4.56802">
        <ele>584.20001220703</ele>
        <time>2026-05-11T13:31:28.000Z</time>
      </trkpt>
      <trkpt lat="45.30074" lon="4.56801">
        <ele>584</ele>
        <time>2026-05-11T13:31:29.000Z</time>
      </trkpt>
      <trkpt lat="45.30079" lon="4.568">
        <ele>583.79998779297</ele>
        <time>2026-05-11T13:31:30.000Z</time>
      </trkpt>
      <trkpt lat="45.30084" lon="4.568">
        <ele>583.40002441406</ele>
        <time>2026-05-11T13:31:31.000Z</time>
      </trkpt>
      <trkpt lat="45.30089" lon="4.568">
        <ele>583.20001220703</ele>
        <time>2026-05-11T13:31:32.000Z</time>
      </trkpt>
      <trkpt lat="45.30094" lon="4.56801">
        <ele>582.79998779297</ele>
        <time>2026-05-11T13:31:33.000Z</time>
      </trkpt>
      <trkpt lat="45.30098" lon="4.56803">
        <ele>582.40002441406</ele>
        <time>2026-05-11T13:31:34.000Z</time>
      </trkpt>
      <trkpt lat="45.30102" lon="4.56804">
        <ele>582.20001220703</ele>
        <time>2026-05-11T13:31:35.000Z</time>
      </trkpt>
      <trkpt lat="45.30106" lon="4.56807">
        <ele>581.79998779297</ele>
        <time>2026-05-11T13:31:36.000Z</time>
      </trkpt>
      <trkpt lat="45.30111" lon="4.56809">
        <ele>581.40002441406</ele>
        <time>2026-05-11T13:31:37.000Z</time>
      </trkpt>
      <trkpt lat="45.30116" lon="4.56812">
        <ele>581</ele>
        <time>2026-05-11T13:31:38.000Z</time>
      </trkpt>
      <trkpt lat="45.3012" lon="4.56816">
        <ele>580.79998779297</ele>
        <time>2026-05-11T13:31:39.000Z</time>
      </trkpt>
      <trkpt lat="45.30124" lon="4.5682">
        <ele>580.40002441406</ele>
        <time>2026-05-11T13:31:40.000Z</time>
      </trkpt>
      <trkpt lat="45.30127" lon="4.56826">
        <ele>580</ele>
        <time>2026-05-11T13:31:41.000Z</time>
      </trkpt>
      <trkpt lat="45.30127" lon="4.56832">
        <ele>579.79998779297</ele>
        <time>2026-05-11T13:31:42.000Z</time>
      </trkpt>
      <trkpt lat="45.30127" lon="4.56839">
        <ele>579.40002441406</ele>
        <time>2026-05-11T13:31:43.000Z</time>
      </trkpt>
      <trkpt lat="45.30126" lon="4.56845">
        <ele>579</ele>
        <time>2026-05-11T13:31:44.000Z</time>
      </trkpt>
      <trkpt lat="45.30125" lon="4.56851">
        <ele>578.59997558594</ele>
        <time>2026-05-11T13:31:45.000Z</time>
      </trkpt>
      <trkpt lat="45.30124" lon="4.56857">
        <ele>578.20001220703</ele>
        <time>2026-05-11T13:31:46.000Z</time>
      </trkpt>
      <trkpt lat="45.30125" lon="4.56864">
        <ele>577.79998779297</ele>
        <time>2026-05-11T13:31:47.000Z</time>
      </trkpt>
      <trkpt lat="45.30125" lon="4.56869">
        <ele>577.40002441406</ele>
        <time>2026-05-11T13:31:48.000Z</time>
      </trkpt>
      <trkpt lat="45.30126" lon="4.56874">
        <ele>577.20001220703</ele>
        <time>2026-05-11T13:31:49.000Z</time>
      </trkpt>
      <trkpt lat="45.30127" lon="4.5688">
        <ele>577</ele>
        <time>2026-05-11T13:31:50.000Z</time>
      </trkpt>
      <trkpt lat="45.30128" lon="4.56886">
        <ele>577</ele>
        <time>2026-05-11T13:31:51.000Z</time>
      </trkpt>
      <trkpt lat="45.30129" lon="4.56899">
        <ele>577</ele>
        <time>2026-05-11T13:31:52.000Z</time>
      </trkpt>
      <trkpt lat="45.30129" lon="4.56899">
        <ele>577.20001220703</ele>
        <time>2026-05-11T13:31:53.000Z</time>
      </trkpt>
      <trkpt lat="45.30129" lon="4.56911">
        <ele>577.20001220703</ele>
        <time>2026-05-11T13:31:54.000Z</time>
      </trkpt>
      <trkpt lat="45.30129" lon="4.56911">
        <ele>577.20001220703</ele>
        <time>2026-05-11T13:31:55.000Z</time>
      </trkpt>
      <trkpt lat="45.30129" lon="4.56918">
        <ele>577.20001220703</ele>
        <time>2026-05-11T13:31:56.000Z</time>
      </trkpt>
      <trkpt lat="45.30128" lon="4.5693">
        <ele>577</ele>
        <time>2026-05-11T13:31:57.000Z</time>
      </trkpt>
      <trkpt lat="45.30127" lon="4.56936">
        <ele>577</ele>
        <time>2026-05-11T13:31:58.000Z</time>
      </trkpt>
      <trkpt lat="45.30127" lon="4.56942">
        <ele>576.79998779297</ele>
        <time>2026-05-11T13:31:59.000Z</time>
      </trkpt>
      <trkpt lat="45.30127" lon="4.56942">
        <ele>576.79998779297</ele>
        <time>2026-05-11T13:32:00.000Z</time>
      </trkpt>
      <trkpt lat="45.30126" lon="4.56948">
        <ele>576.79998779297</ele>
        <time>2026-05-11T13:32:01.000Z</time>
      </trkpt>
      <trkpt lat="45.30126" lon="4.56954">
        <ele>577</ele>
        <time>2026-05-11T13:32:02.000Z</time>
      </trkpt>
      <trkpt lat="45.30125" lon="4.56966">
        <ele>577</ele>
        <time>2026-05-11T13:32:03.000Z</time>
      </trkpt>
      <trkpt lat="45.30125" lon="4.56966">
        <ele>577.20001220703</ele>
        <time>2026-05-11T13:32:04.000Z</time>
      </trkpt>
      <trkpt lat="45.30124" lon="4.56972">
        <ele>577.40002441406</ele>
        <time>2026-05-11T13:32:05.000Z</time>
      </trkpt>
      <trkpt lat="45.30124" lon="4.56978">
        <ele>577.59997558594</ele>
        <time>2026-05-11T13:32:06.000Z</time>
      </trkpt>
      <trkpt lat="45.30123" lon="4.56983">
        <ele>578</ele>
        <time>2026-05-11T13:32:07.000Z</time>
      </trkpt>
      <trkpt lat="45.30122" lon="4.56989">
        <ele>578.20001220703</ele>
        <time>2026-05-11T13:32:08.000Z</time>
      </trkpt>
      <trkpt lat="45.30122" lon="4.56996">
        <ele>578.59997558594</ele>
        <time>2026-05-11T13:32:09.000Z</time>
      </trkpt>
      <trkpt lat="45.30121" lon="4.57002">
        <ele>578.79998779297</ele>
        <time>2026-05-11T13:32:10.000Z</time>
      </trkpt>
      <trkpt lat="45.30121" lon="4.57009">
        <ele>579</ele>
        <time>2026-05-11T13:32:11.000Z</time>
      </trkpt>
      <trkpt lat="45.30119" lon="4.57021">
        <ele>579.40002441406</ele>
        <time>2026-05-11T13:32:12.000Z</time>
      </trkpt>
      <trkpt lat="45.30119" lon="4.57021">
        <ele>579.59997558594</ele>
        <time>2026-05-11T13:32:13.000Z</time>
      </trkpt>
      <trkpt lat="45.30118" lon="4.57027">
        <ele>579.79998779297</ele>
        <time>2026-05-11T13:32:14.000Z</time>
      </trkpt>
      <trkpt lat="45.30117" lon="4.57033">
        <ele>580</ele>
        <time>2026-05-11T13:32:15.000Z</time>
      </trkpt>
      <trkpt lat="45.30116" lon="4.57039">
        <ele>580.20001220703</ele>
        <time>2026-05-11T13:32:16.000Z</time>
      </trkpt>
      <trkpt lat="45.30116" lon="4.57046">
        <ele>580.40002441406</ele>
        <time>2026-05-11T13:32:17.000Z</time>
      </trkpt>
      <trkpt lat="45.30115" lon="4.57051">
        <ele>580.59997558594</ele>
        <time>2026-05-11T13:32:18.000Z</time>
      </trkpt>
      <trkpt lat="45.30115" lon="4.57058">
        <ele>580.79998779297</ele>
        <time>2026-05-11T13:32:19.000Z</time>
      </trkpt>
      <trkpt lat="45.30114" lon="4.57064">
        <ele>581</ele>
        <time>2026-05-11T13:32:20.000Z</time>
      </trkpt>
      <trkpt lat="45.30113" lon="4.5707">
        <ele>581</ele>
        <time>2026-05-11T13:32:21.000Z</time>
      </trkpt>
      <trkpt lat="45.30112" lon="4.57076">
        <ele>581.20001220703</ele>
        <time>2026-05-11T13:32:22.000Z</time>
      </trkpt>
      <trkpt lat="45.30111" lon="4.57082">
        <ele>581.40002441406</ele>
        <time>2026-05-11T13:32:23.000Z</time>
      </trkpt>
      <trkpt lat="45.3011" lon="4.57088">
        <ele>581.40002441406</ele>
        <time>2026-05-11T13:32:24.000Z</time>
      </trkpt>
      <trkpt lat="45.3011" lon="4.57094">
        <ele>581.59997558594</ele>
        <time>2026-05-11T13:32:25.000Z</time>
      </trkpt>
      <trkpt lat="45.30109" lon="4.57099">
        <ele>581.79998779297</ele>
        <time>2026-05-11T13:32:26.000Z</time>
      </trkpt>
      <trkpt lat="45.30109" lon="4.57105">
        <ele>582</ele>
        <time>2026-05-11T13:32:27.000Z</time>
      </trkpt>
      <trkpt lat="45.30108" lon="4.57111">
        <ele>582</ele>
        <time>2026-05-11T13:32:28.000Z</time>
      </trkpt>
      <trkpt lat="45.30107" lon="4.57116">
        <ele>582.20001220703</ele>
        <time>2026-05-11T13:32:29.000Z</time>
      </trkpt>
      <trkpt lat="45.30107" lon="4.57122">
        <ele>582.40002441406</ele>
        <time>2026-05-11T13:32:30.000Z</time>
      </trkpt>
      <trkpt lat="45.30106" lon="4.57127">
        <ele>582.59997558594</ele>
        <time>2026-05-11T13:32:31.000Z</time>
      </trkpt>
      <trkpt lat="45.30107" lon="4.57133">
        <ele>582.79998779297</ele>
        <time>2026-05-11T13:32:32.000Z</time>
      </trkpt>
      <trkpt lat="45.30107" lon="4.57139">
        <ele>582.79998779297</ele>
        <time>2026-05-11T13:32:33.000Z</time>
      </trkpt>
      <trkpt lat="45.30107" lon="4.57145">
        <ele>583</ele>
        <time>2026-05-11T13:32:34.000Z</time>
      </trkpt>
      <trkpt lat="45.30109" lon="4.5715">
        <ele>583.20001220703</ele>
        <time>2026-05-11T13:32:35.000Z</time>
      </trkpt>
      <trkpt lat="45.3011" lon="4.57156">
        <ele>583.20001220703</ele>
        <time>2026-05-11T13:32:36.000Z</time>
      </trkpt>
      <trkpt lat="45.30112" lon="4.57161">
        <ele>583.40002441406</ele>
        <time>2026-05-11T13:32:37.000Z</time>
      </trkpt>
      <trkpt lat="45.30114" lon="4.57166">
        <ele>583.40002441406</ele>
        <time>2026-05-11T13:32:38.000Z</time>
      </trkpt>
      <trkpt lat="45.30117" lon="4.57171">
        <ele>583.59997558594</ele>
        <time>2026-05-11T13:32:39.000Z</time>
      </trkpt>
      <trkpt lat="45.30119" lon="4.57176">
        <ele>583.59997558594</ele>
        <time>2026-05-11T13:32:40.000Z</time>
      </trkpt>
      <trkpt lat="45.30122" lon="4.57181">
        <ele>583.59997558594</ele>
        <time>2026-05-11T13:32:41.000Z</time>
      </trkpt>
      <trkpt lat="45.30125" lon="4.57185">
        <ele>583.79998779297</ele>
        <time>2026-05-11T13:32:42.000Z</time>
      </trkpt>
      <trkpt lat="45.30128" lon="4.5719">
        <ele>584</ele>
        <time>2026-05-11T13:32:43.000Z</time>
      </trkpt>
      <trkpt lat="45.3013" lon="4.57195">
        <ele>584</ele>
        <time>2026-05-11T13:32:44.000Z</time>
      </trkpt>
      <trkpt lat="45.30133" lon="4.57199">
        <ele>584.20001220703</ele>
        <time>2026-05-11T13:32:45.000Z</time>
      </trkpt>
      <trkpt lat="45.30136" lon="4.57204">
        <ele>584.20001220703</ele>
        <time>2026-05-11T13:32:46.000Z</time>
      </trkpt>
      <trkpt lat="45.30139" lon="4.57208">
        <ele>584.40002441406</ele>
        <time>2026-05-11T13:32:47.000Z</time>
      </trkpt>
      <trkpt lat="45.30141" lon="4.57213">
        <ele>584.40002441406</ele>
        <time>2026-05-11T13:32:48.000Z</time>
      </trkpt>
      <trkpt lat="45.30144" lon="4.57217">
        <ele>584.59997558594</ele>
        <time>2026-05-11T13:32:49.000Z</time>
      </trkpt>
      <trkpt lat="45.30147" lon="4.57222">
        <ele>584.59997558594</ele>
        <time>2026-05-11T13:32:50.000Z</time>
      </trkpt>
      <trkpt lat="45.3015" lon="4.57227">
        <ele>584.79998779297</ele>
        <time>2026-05-11T13:32:51.000Z</time>
      </trkpt>
      <trkpt lat="45.30152" lon="4.57231">
        <ele>585</ele>
        <time>2026-05-11T13:32:52.000Z</time>
      </trkpt>
      <trkpt lat="45.30155" lon="4.57236">
        <ele>585</ele>
        <time>2026-05-11T13:32:53.000Z</time>
      </trkpt>
      <trkpt lat="45.30157" lon="4.57241">
        <ele>585.20001220703</ele>
        <time>2026-05-11T13:32:54.000Z</time>
      </trkpt>
      <trkpt lat="45.3016" lon="4.57245">
        <ele>585.40002441406</ele>
        <time>2026-05-11T13:32:55.000Z</time>
      </trkpt>
      <trkpt lat="45.30163" lon="4.5725">
        <ele>585.40002441406</ele>
        <time>2026-05-11T13:32:56.000Z</time>
      </trkpt>
      <trkpt lat="45.30165" lon="4.57255">
        <ele>585.59997558594</ele>
        <time>2026-05-11T13:32:57.000Z</time>
      </trkpt>
      <trkpt lat="45.30168" lon="4.5726">
        <ele>585.59997558594</ele>
        <time>2026-05-11T13:32:58.000Z</time>
      </trkpt>
      <trkpt lat="45.30171" lon="4.57265">
        <ele>585.59997558594</ele>
        <time>2026-05-11T13:32:59.000Z</time>
      </trkpt>
      <trkpt lat="45.30174" lon="4.5727">
        <ele>585.79998779297</ele>
        <time>2026-05-11T13:33:00.000Z</time>
      </trkpt>
      <trkpt lat="45.30176" lon="4.57275">
        <ele>585.79998779297</ele>
        <time>2026-05-11T13:33:01.000Z</time>
      </trkpt>
      <trkpt lat="45.30179" lon="4.5728">
        <ele>586</ele>
        <time>2026-05-11T13:33:02.000Z</time>
      </trkpt>
      <trkpt lat="45.30182" lon="4.57285">
        <ele>586</ele>
        <time>2026-05-11T13:33:03.000Z</time>
      </trkpt>
      <trkpt lat="45.30184" lon="4.57291">
        <ele>586.20001220703</ele>
        <time>2026-05-11T13:33:04.000Z</time>
      </trkpt>
      <trkpt lat="45.30186" lon="4.57296">
        <ele>586.20001220703</ele>
        <time>2026-05-11T13:33:05.000Z</time>
      </trkpt>
      <trkpt lat="45.30189" lon="4.57301">
        <ele>586.40002441406</ele>
        <time>2026-05-11T13:33:06.000Z</time>
      </trkpt>
      <trkpt lat="45.30191" lon="4.57307">
        <ele>586.40002441406</ele>
        <time>2026-05-11T13:33:07.000Z</time>
      </trkpt>
      <trkpt lat="45.30193" lon="4.57312">
        <ele>586.59997558594</ele>
        <time>2026-05-11T13:33:08.000Z</time>
      </trkpt>
      <trkpt lat="45.30196" lon="4.57318">
        <ele>586.59997558594</ele>
        <time>2026-05-11T13:33:09.000Z</time>
      </trkpt>
      <trkpt lat="45.30198" lon="4.57323">
        <ele>586.79998779297</ele>
        <time>2026-05-11T13:33:10.000Z</time>
      </trkpt>
      <trkpt lat="45.30201" lon="4.57328">
        <ele>586.79998779297</ele>
        <time>2026-05-11T13:33:11.000Z</time>
      </trkpt>
      <trkpt lat="45.30203" lon="4.57334">
        <ele>587</ele>
        <time>2026-05-11T13:33:12.000Z</time>
      </trkpt>
      <trkpt lat="45.30205" lon="4.57339">
        <ele>587</ele>
        <time>2026-05-11T13:33:13.000Z</time>
      </trkpt>
      <trkpt lat="45.30207" lon="4.57344">
        <ele>587.20001220703</ele>
        <time>2026-05-11T13:33:14.000Z</time>
      </trkpt>
      <trkpt lat="45.30209" lon="4.57349">
        <ele>587.40002441406</ele>
        <time>2026-05-11T13:33:15.000Z</time>
      </trkpt>
      <trkpt lat="45.30212" lon="4.57354">
        <ele>587.40002441406</ele>
        <time>2026-05-11T13:33:16.000Z</time>
      </trkpt>
      <trkpt lat="45.30215" lon="4.57358">
        <ele>587.59997558594</ele>
        <time>2026-05-11T13:33:17.000Z</time>
      </trkpt>
      <trkpt lat="45.30218" lon="4.57363">
        <ele>587.59997558594</ele>
        <time>2026-05-11T13:33:18.000Z</time>
      </trkpt>
      <trkpt lat="45.30221" lon="4.57367">
        <ele>587.79998779297</ele>
        <time>2026-05-11T13:33:19.000Z</time>
      </trkpt>
      <trkpt lat="45.30224" lon="4.57372">
        <ele>588</ele>
        <time>2026-05-11T13:33:20.000Z</time>
      </trkpt>
      <trkpt lat="45.30227" lon="4.57376">
        <ele>588</ele>
        <time>2026-05-11T13:33:21.000Z</time>
      </trkpt>
      <trkpt lat="45.3023" lon="4.5738">
        <ele>588.20001220703</ele>
        <time>2026-05-11T13:33:22.000Z</time>
      </trkpt>
      <trkpt lat="45.30234" lon="4.57383">
        <ele>588.40002441406</ele>
        <time>2026-05-11T13:33:23.000Z</time>
      </trkpt>
      <trkpt lat="45.30237" lon="4.57386">
        <ele>588.40002441406</ele>
        <time>2026-05-11T13:33:24.000Z</time>
      </trkpt>
      <trkpt lat="45.30241" lon="4.5739">
        <ele>588.59997558594</ele>
        <time>2026-05-11T13:33:25.000Z</time>
      </trkpt>
      <trkpt lat="45.30245" lon="4.57392">
        <ele>588.59997558594</ele>
        <time>2026-05-11T13:33:26.000Z</time>
      </trkpt>
      <trkpt lat="45.30249" lon="4.57395">
        <ele>588.79998779297</ele>
        <time>2026-05-11T13:33:27.000Z</time>
      </trkpt>
      <trkpt lat="45.30253" lon="4.57397">
        <ele>588.79998779297</ele>
        <time>2026-05-11T13:33:28.000Z</time>
      </trkpt>
      <trkpt lat="45.30258" lon="4.574">
        <ele>589</ele>
        <time>2026-05-11T13:33:29.000Z</time>
      </trkpt>
      <trkpt lat="45.30262" lon="4.57402">
        <ele>589</ele>
        <time>2026-05-11T13:33:30.000Z</time>
      </trkpt>
      <trkpt lat="45.30266" lon="4.57405">
        <ele>589.20001220703</ele>
        <time>2026-05-11T13:33:31.000Z</time>
      </trkpt>
      <trkpt lat="45.3027" lon="4.57408">
        <ele>589.20001220703</ele>
        <time>2026-05-11T13:33:32.000Z</time>
      </trkpt>
      <trkpt lat="45.30274" lon="4.57411">
        <ele>589.40002441406</ele>
        <time>2026-05-11T13:33:33.000Z</time>
      </trkpt>
      <trkpt lat="45.30278" lon="4.57415">
        <ele>589.40002441406</ele>
        <time>2026-05-11T13:33:34.000Z</time>
      </trkpt>
      <trkpt lat="45.30282" lon="4.57419">
        <ele>589.59997558594</ele>
        <time>2026-05-11T13:33:35.000Z</time>
      </trkpt>
      <trkpt lat="45.30286" lon="4.57423">
        <ele>589.59997558594</ele>
        <time>2026-05-11T13:33:36.000Z</time>
      </trkpt>
      <trkpt lat="45.3029" lon="4.57427">
        <ele>589.79998779297</ele>
        <time>2026-05-11T13:33:37.000Z</time>
      </trkpt>
      <trkpt lat="45.30293" lon="4.57431">
        <ele>590</ele>
        <time>2026-05-11T13:33:38.000Z</time>
      </trkpt>
      <trkpt lat="45.30296" lon="4.57436">
        <ele>590.20001220703</ele>
        <time>2026-05-11T13:33:39.000Z</time>
      </trkpt>
      <trkpt lat="45.30301" lon="4.57445">
        <ele>590.20001220703</ele>
        <time>2026-05-11T13:33:40.000Z</time>
      </trkpt>
      <trkpt lat="45.30301" lon="4.57445">
        <ele>590.40002441406</ele>
        <time>2026-05-11T13:33:41.000Z</time>
      </trkpt>
      <trkpt lat="45.30303" lon="4.5745">
        <ele>590.59997558594</ele>
        <time>2026-05-11T13:33:42.000Z</time>
      </trkpt>
      <trkpt lat="45.30306" lon="4.57455">
        <ele>590.59997558594</ele>
        <time>2026-05-11T13:33:43.000Z</time>
      </trkpt>
      <trkpt lat="45.30307" lon="4.57461">
        <ele>590.79998779297</ele>
        <time>2026-05-11T13:33:44.000Z</time>
      </trkpt>
      <trkpt lat="45.30309" lon="4.57467">
        <ele>591</ele>
        <time>2026-05-11T13:33:45.000Z</time>
      </trkpt>
      <trkpt lat="45.30313" lon="4.57479">
        <ele>591.20001220703</ele>
        <time>2026-05-11T13:33:46.000Z</time>
      </trkpt>
      <trkpt lat="45.30313" lon="4.57479">
        <ele>591.40002441406</ele>
        <time>2026-05-11T13:33:47.000Z</time>
      </trkpt>
      <trkpt lat="45.30315" lon="4.57486">
        <ele>591.59997558594</ele>
        <time>2026-05-11T13:33:48.000Z</time>
      </trkpt>
      <trkpt lat="45.30316" lon="4.57492">
        <ele>591.59997558594</ele>
        <time>2026-05-11T13:33:49.000Z</time>
      </trkpt>
      <trkpt lat="45.30318" lon="4.57498">
        <ele>591.79998779297</ele>
        <time>2026-05-11T13:33:50.000Z</time>
      </trkpt>
      <trkpt lat="45.30319" lon="4.57504">
        <ele>592</ele>
        <time>2026-05-11T13:33:51.000Z</time>
      </trkpt>
      <trkpt lat="45.30322" lon="4.57515">
        <ele>592</ele>
        <time>2026-05-11T13:33:52.000Z</time>
      </trkpt>
      <trkpt lat="45.30322" lon="4.57515">
        <ele>592.20001220703</ele>
        <time>2026-05-11T13:33:53.000Z</time>
      </trkpt>
      <trkpt lat="45.30323" lon="4.57521">
        <ele>592.40002441406</ele>
        <time>2026-05-11T13:33:54.000Z</time>
      </trkpt>
      <trkpt lat="45.30326" lon="4.57533">
        <ele>592.40002441406</ele>
        <time>2026-05-11T13:33:55.000Z</time>
      </trkpt>
      <trkpt lat="45.30326" lon="4.57533">
        <ele>592.59997558594</ele>
        <time>2026-05-11T13:33:56.000Z</time>
      </trkpt>
      <trkpt lat="45.3033" lon="4.57544">
        <ele>592.79998779297</ele>
        <time>2026-05-11T13:33:57.000Z</time>
      </trkpt>
      <trkpt lat="45.3033" lon="4.57544">
        <ele>593</ele>
        <time>2026-05-11T13:33:58.000Z</time>
      </trkpt>
      <trkpt lat="45.30331" lon="4.5755">
        <ele>593</ele>
        <time>2026-05-11T13:33:59.000Z</time>
      </trkpt>
      <trkpt lat="45.30333" lon="4.57555">
        <ele>593.20001220703</ele>
        <time>2026-05-11T13:34:00.000Z</time>
      </trkpt>
      <trkpt lat="45.30334" lon="4.57561">
        <ele>593.40002441406</ele>
        <time>2026-05-11T13:34:01.000Z</time>
      </trkpt>
      <trkpt lat="45.30336" lon="4.57567">
        <ele>593.59997558594</ele>
        <time>2026-05-11T13:34:02.000Z</time>
      </trkpt>
      <trkpt lat="45.30338" lon="4.57572">
        <ele>593.59997558594</ele>
        <time>2026-05-11T13:34:03.000Z</time>
      </trkpt>
      <trkpt lat="45.30339" lon="4.57577">
        <ele>593.79998779297</ele>
        <time>2026-05-11T13:34:04.000Z</time>
      </trkpt>
      <trkpt lat="45.30341" lon="4.57582">
        <ele>593.79998779297</ele>
        <time>2026-05-11T13:34:05.000Z</time>
      </trkpt>
      <trkpt lat="45.30343" lon="4.57587">
        <ele>593.79998779297</ele>
        <time>2026-05-11T13:34:06.000Z</time>
      </trkpt>
      <trkpt lat="45.30345" lon="4.57592">
        <ele>594</ele>
        <time>2026-05-11T13:34:07.000Z</time>
      </trkpt>
      <trkpt lat="45.30348" lon="4.57597">
        <ele>594.20001220703</ele>
        <time>2026-05-11T13:34:08.000Z</time>
      </trkpt>
      <trkpt lat="45.30351" lon="4.57601">
        <ele>594.40002441406</ele>
        <time>2026-05-11T13:34:09.000Z</time>
      </trkpt>
      <trkpt lat="45.30354" lon="4.57606">
        <ele>594.59997558594</ele>
        <time>2026-05-11T13:34:10.000Z</time>
      </trkpt>
      <trkpt lat="45.30357" lon="4.5761">
        <ele>594.79998779297</ele>
        <time>2026-05-11T13:34:11.000Z</time>
      </trkpt>
      <trkpt lat="45.30361" lon="4.57615">
        <ele>595.20001220703</ele>
        <time>2026-05-11T13:34:12.000Z</time>
      </trkpt>
      <trkpt lat="45.30364" lon="4.5762">
        <ele>595.40002441406</ele>
        <time>2026-05-11T13:34:13.000Z</time>
      </trkpt>
      <trkpt lat="45.30368" lon="4.57624">
        <ele>595.79998779297</ele>
        <time>2026-05-11T13:34:14.000Z</time>
      </trkpt>
      <trkpt lat="45.30372" lon="4.57628">
        <ele>596</ele>
        <time>2026-05-11T13:34:15.000Z</time>
      </trkpt>
      <trkpt lat="45.30376" lon="4.57632">
        <ele>596</ele>
        <time>2026-05-11T13:34:16.000Z</time>
      </trkpt>
      <trkpt lat="45.30379" lon="4.57636">
        <ele>596.20001220703</ele>
        <time>2026-05-11T13:34:17.000Z</time>
      </trkpt>
      <trkpt lat="45.30383" lon="4.5764">
        <ele>596.40002441406</ele>
        <time>2026-05-11T13:34:18.000Z</time>
      </trkpt>
      <trkpt lat="45.30387" lon="4.57645">
        <ele>596.59997558594</ele>
        <time>2026-05-11T13:34:19.000Z</time>
      </trkpt>
      <trkpt lat="45.30391" lon="4.57649">
        <ele>596.79998779297</ele>
        <time>2026-05-11T13:34:20.000Z</time>
      </trkpt>
      <trkpt lat="45.30394" lon="4.57654">
        <ele>597</ele>
        <time>2026-05-11T13:34:21.000Z</time>
      </trkpt>
      <trkpt lat="45.30398" lon="4.57657">
        <ele>597</ele>
        <time>2026-05-11T13:34:22.000Z</time>
      </trkpt>
      <trkpt lat="45.30401" lon="4.57661">
        <ele>597.20001220703</ele>
        <time>2026-05-11T13:34:23.000Z</time>
      </trkpt>
      <trkpt lat="45.30403" lon="4.57664">
        <ele>597.40002441406</ele>
        <time>2026-05-11T13:34:24.000Z</time>
      </trkpt>
      <trkpt lat="45.30406" lon="4.57668">
        <ele>597.40002441406</ele>
        <time>2026-05-11T13:34:25.000Z</time>
      </trkpt>
      <trkpt lat="45.30409" lon="4.57672">
        <ele>597.59997558594</ele>
        <time>2026-05-11T13:34:26.000Z</time>
      </trkpt>
      <trkpt lat="45.30412" lon="4.57676">
        <ele>597.79998779297</ele>
        <time>2026-05-11T13:34:27.000Z</time>
      </trkpt>
      <trkpt lat="45.30415" lon="4.5768">
        <ele>597.79998779297</ele>
        <time>2026-05-11T13:34:28.000Z</time>
      </trkpt>
      <trkpt lat="45.30419" lon="4.57684">
        <ele>597.79998779297</ele>
        <time>2026-05-11T13:34:29.000Z</time>
      </trkpt>
      <trkpt lat="45.30422" lon="4.57689">
        <ele>597.79998779297</ele>
        <time>2026-05-11T13:34:30.000Z</time>
      </trkpt>
      <trkpt lat="45.30426" lon="4.57693">
        <ele>598</ele>
        <time>2026-05-11T13:34:31.000Z</time>
      </trkpt>
      <trkpt lat="45.30429" lon="4.57696">
        <ele>598</ele>
        <time>2026-05-11T13:34:32.000Z</time>
      </trkpt>
      <trkpt lat="45.30433" lon="4.577">
        <ele>598</ele>
        <time>2026-05-11T13:34:33.000Z</time>
      </trkpt>
      <trkpt lat="45.30438" lon="4.57703">
        <ele>598</ele>
        <time>2026-05-11T13:34:34.000Z</time>
      </trkpt>
      <trkpt lat="45.30442" lon="4.57705">
        <ele>598.20001220703</ele>
        <time>2026-05-11T13:34:35.000Z</time>
      </trkpt>
      <trkpt lat="45.30447" lon="4.57708">
        <ele>598.20001220703</ele>
        <time>2026-05-11T13:34:36.000Z</time>
      </trkpt>
      <trkpt lat="45.30452" lon="4.5771">
        <ele>598.20001220703</ele>
        <time>2026-05-11T13:34:37.000Z</time>
      </trkpt>
      <trkpt lat="45.30456" lon="4.57711">
        <ele>598.40002441406</ele>
        <time>2026-05-11T13:34:38.000Z</time>
      </trkpt>
      <trkpt lat="45.30461" lon="4.57712">
        <ele>598.40002441406</ele>
        <time>2026-05-11T13:34:39.000Z</time>
      </trkpt>
      <trkpt lat="45.30466" lon="4.57713">
        <ele>598.59997558594</ele>
        <time>2026-05-11T13:34:40.000Z</time>
      </trkpt>
      <trkpt lat="45.30471" lon="4.57712">
        <ele>598.59997558594</ele>
        <time>2026-05-11T13:34:41.000Z</time>
      </trkpt>
      <trkpt lat="45.30476" lon="4.57712">
        <ele>598.59997558594</ele>
        <time>2026-05-11T13:34:42.000Z</time>
      </trkpt>
      <trkpt lat="45.30481" lon="4.57712">
        <ele>598.59997558594</ele>
        <time>2026-05-11T13:34:43.000Z</time>
      </trkpt>
      <trkpt lat="45.30485" lon="4.57711">
        <ele>598.59997558594</ele>
        <time>2026-05-11T13:34:44.000Z</time>
      </trkpt>
      <trkpt lat="45.3049" lon="4.5771">
        <ele>598.79998779297</ele>
        <time>2026-05-11T13:34:45.000Z</time>
      </trkpt>
      <trkpt lat="45.30495" lon="4.57709">
        <ele>598.79998779297</ele>
        <time>2026-05-11T13:34:46.000Z</time>
      </trkpt>
      <trkpt lat="45.305" lon="4.57708">
        <ele>598.79998779297</ele>
        <time>2026-05-11T13:34:47.000Z</time>
      </trkpt>
      <trkpt lat="45.30505" lon="4.57707">
        <ele>599</ele>
        <time>2026-05-11T13:34:48.000Z</time>
      </trkpt>
      <trkpt lat="45.3051" lon="4.57706">
        <ele>599</ele>
        <time>2026-05-11T13:34:49.000Z</time>
      </trkpt>
      <trkpt lat="45.30514" lon="4.57705">
        <ele>599.20001220703</ele>
        <time>2026-05-11T13:34:50.000Z</time>
      </trkpt>
      <trkpt lat="45.30519" lon="4.57704">
        <ele>599.20001220703</ele>
        <time>2026-05-11T13:34:51.000Z</time>
      </trkpt>
      <trkpt lat="45.30529" lon="4.57702">
        <ele>599.40002441406</ele>
        <time>2026-05-11T13:34:52.000Z</time>
      </trkpt>
      <trkpt lat="45.30529" lon="4.57702">
        <ele>599.40002441406</ele>
        <time>2026-05-11T13:34:53.000Z</time>
      </trkpt>
      <trkpt lat="45.30533" lon="4.57701">
        <ele>599.59997558594</ele>
        <time>2026-05-11T13:34:54.000Z</time>
      </trkpt>
      <trkpt lat="45.30543" lon="4.577">
        <ele>599.59997558594</ele>
        <time>2026-05-11T13:34:55.000Z</time>
      </trkpt>
      <trkpt lat="45.30543" lon="4.577">
        <ele>599.79998779297</ele>
        <time>2026-05-11T13:34:56.000Z</time>
      </trkpt>
      <trkpt lat="45.30552" lon="4.57698">
        <ele>600</ele>
        <time>2026-05-11T13:34:57.000Z</time>
      </trkpt>
      <trkpt lat="45.30556" lon="4.57696">
        <ele>600</ele>
        <time>2026-05-11T13:34:58.000Z</time>
      </trkpt>
      <trkpt lat="45.30556" lon="4.57696">
        <ele>600.20001220703</ele>
        <time>2026-05-11T13:34:59.000Z</time>
      </trkpt>
      <trkpt lat="45.30561" lon="4.57695">
        <ele>600.40002441406</ele>
        <time>2026-05-11T13:35:00.000Z</time>
      </trkpt>
      <trkpt lat="45.30565" lon="4.57695">
        <ele>600.40002441406</ele>
        <time>2026-05-11T13:35:01.000Z</time>
      </trkpt>
      <trkpt lat="45.3057" lon="4.57694">
        <ele>600.59997558594</ele>
        <time>2026-05-11T13:35:02.000Z</time>
      </trkpt>
      <trkpt lat="45.30574" lon="4.57692">
        <ele>600.79998779297</ele>
        <time>2026-05-11T13:35:03.000Z</time>
      </trkpt>
      <trkpt lat="45.30583" lon="4.5769">
        <ele>601</ele>
        <time>2026-05-11T13:35:04.000Z</time>
      </trkpt>
      <trkpt lat="45.30587" lon="4.57688">
        <ele>601.20001220703</ele>
        <time>2026-05-11T13:35:05.000Z</time>
      </trkpt>
      <trkpt lat="45.30587" lon="4.57688">
        <ele>601.20001220703</ele>
        <time>2026-05-11T13:35:06.000Z</time>
      </trkpt>
      <trkpt lat="45.30596" lon="4.57687">
        <ele>601.40002441406</ele>
        <time>2026-05-11T13:35:07.000Z</time>
      </trkpt>
      <trkpt lat="45.30596" lon="4.57687">
        <ele>601.59997558594</ele>
        <time>2026-05-11T13:35:08.000Z</time>
      </trkpt>
      <trkpt lat="45.306" lon="4.57686">
        <ele>601.79998779297</ele>
        <time>2026-05-11T13:35:09.000Z</time>
      </trkpt>
      <trkpt lat="45.30609" lon="4.57685">
        <ele>602</ele>
        <time>2026-05-11T13:35:10.000Z</time>
      </trkpt>
      <trkpt lat="45.30609" lon="4.57685">
        <ele>602.40002441406</ele>
        <time>2026-05-11T13:35:11.000Z</time>
      </trkpt>
      <trkpt lat="45.30613" lon="4.57684">
        <ele>602.59997558594</ele>
        <time>2026-05-11T13:35:12.000Z</time>
      </trkpt>
      <trkpt lat="45.30622" lon="4.57683">
        <ele>602.79998779297</ele>
        <time>2026-05-11T13:35:13.000Z</time>
      </trkpt>
      <trkpt lat="45.30622" lon="4.57683">
        <ele>603</ele>
        <time>2026-05-11T13:35:14.000Z</time>
      </trkpt>
      <trkpt lat="45.30631" lon="4.57681">
        <ele>603.20001220703</ele>
        <time>2026-05-11T13:35:15.000Z</time>
      </trkpt>
      <trkpt lat="45.30635" lon="4.5768">
        <ele>603.40002441406</ele>
        <time>2026-05-11T13:35:16.000Z</time>
      </trkpt>
      <trkpt lat="45.30639" lon="4.5768">
        <ele>603.59997558594</ele>
        <time>2026-05-11T13:35:17.000Z</time>
      </trkpt>
      <trkpt lat="45.30639" lon="4.5768">
        <ele>603.79998779297</ele>
        <time>2026-05-11T13:35:18.000Z</time>
      </trkpt>
      <trkpt lat="45.30647" lon="4.57679">
        <ele>604</ele>
        <time>2026-05-11T13:35:19.000Z</time>
      </trkpt>
      <trkpt lat="45.30647" lon="4.57679">
        <ele>604.40002441406</ele>
        <time>2026-05-11T13:35:20.000Z</time>
      </trkpt>
      <trkpt lat="45.30656" lon="4.5768">
        <ele>604.59997558594</ele>
        <time>2026-05-11T13:35:21.000Z</time>
      </trkpt>
      <trkpt lat="45.3066" lon="4.57681">
        <ele>605</ele>
        <time>2026-05-11T13:35:22.000Z</time>
      </trkpt>
      <trkpt lat="45.3066" lon="4.57681">
        <ele>605.20001220703</ele>
        <time>2026-05-11T13:35:23.000Z</time>
      </trkpt>
      <trkpt lat="45.30664" lon="4.57682">
        <ele>605.40002441406</ele>
        <time>2026-05-11T13:35:24.000Z</time>
      </trkpt>
      <trkpt lat="45.30672" lon="4.57687">
        <ele>605.59997558594</ele>
        <time>2026-05-11T13:35:25.000Z</time>
      </trkpt>
      <trkpt lat="45.30675" lon="4.5769">
        <ele>605.79998779297</ele>
        <time>2026-05-11T13:35:26.000Z</time>
      </trkpt>
      <trkpt lat="45.30679" lon="4.57693">
        <ele>606.20001220703</ele>
        <time>2026-05-11T13:35:27.000Z</time>
      </trkpt>
      <trkpt lat="45.30682" lon="4.57697">
        <ele>606.40002441406</ele>
        <time>2026-05-11T13:35:28.000Z</time>
      </trkpt>
      <trkpt lat="45.30682" lon="4.57697">
        <ele>606.59997558594</ele>
        <time>2026-05-11T13:35:29.000Z</time>
      </trkpt>
      <trkpt lat="45.30686" lon="4.57701">
        <ele>606.79998779297</ele>
        <time>2026-05-11T13:35:30.000Z</time>
      </trkpt>
      <trkpt lat="45.30688" lon="4.57705">
        <ele>607</ele>
        <time>2026-05-11T13:35:31.000Z</time>
      </trkpt>
      <trkpt lat="45.30693" lon="4.57714">
        <ele>607.40002441406</ele>
        <time>2026-05-11T13:35:32.000Z</time>
      </trkpt>
      <trkpt lat="45.30695" lon="4.5772">
        <ele>607.59997558594</ele>
        <time>2026-05-11T13:35:33.000Z</time>
      </trkpt>
      <trkpt lat="45.30696" lon="4.57725">
        <ele>607.79998779297</ele>
        <time>2026-05-11T13:35:34.000Z</time>
      </trkpt>
      <trkpt lat="45.30698" lon="4.57731">
        <ele>608</ele>
        <time>2026-05-11T13:35:35.000Z</time>
      </trkpt>
      <trkpt lat="45.30698" lon="4.57731">
        <ele>608.20001220703</ele>
        <time>2026-05-11T13:35:36.000Z</time>
      </trkpt>
      <trkpt lat="45.30699" lon="4.57737">
        <ele>608.40002441406</ele>
        <time>2026-05-11T13:35:37.000Z</time>
      </trkpt>
      <trkpt lat="45.307" lon="4.57744">
        <ele>608.59997558594</ele>
        <time>2026-05-11T13:35:38.000Z</time>
      </trkpt>
      <trkpt lat="45.307" lon="4.57756">
        <ele>608.79998779297</ele>
        <time>2026-05-11T13:35:39.000Z</time>
      </trkpt>
      <trkpt lat="45.307" lon="4.57756">
        <ele>609</ele>
        <time>2026-05-11T13:35:40.000Z</time>
      </trkpt>
      <trkpt lat="45.307" lon="4.57762">
        <ele>609.20001220703</ele>
        <time>2026-05-11T13:35:41.000Z</time>
      </trkpt>
      <trkpt lat="45.30699" lon="4.57768">
        <ele>609.20001220703</ele>
        <time>2026-05-11T13:35:42.000Z</time>
      </trkpt>
      <trkpt lat="45.30699" lon="4.57774">
        <ele>609.40002441406</ele>
        <time>2026-05-11T13:35:43.000Z</time>
      </trkpt>
      <trkpt lat="45.30698" lon="4.5778">
        <ele>609.59997558594</ele>
        <time>2026-05-11T13:35:44.000Z</time>
      </trkpt>
      <trkpt lat="45.30696" lon="4.57792">
        <ele>609.79998779297</ele>
        <time>2026-05-11T13:35:45.000Z</time>
      </trkpt>
      <trkpt lat="45.30695" lon="4.57798">
        <ele>609.79998779297</ele>
        <time>2026-05-11T13:35:46.000Z</time>
      </trkpt>
      <trkpt lat="45.30694" lon="4.57805">
        <ele>610</ele>
        <time>2026-05-11T13:35:47.000Z</time>
      </trkpt>
      <trkpt lat="45.30693" lon="4.57811">
        <ele>610.20001220703</ele>
        <time>2026-05-11T13:35:48.000Z</time>
      </trkpt>
      <trkpt lat="45.30693" lon="4.57811">
        <ele>610.40002441406</ele>
        <time>2026-05-11T13:35:49.000Z</time>
      </trkpt>
      <trkpt lat="45.30692" lon="4.57817">
        <ele>610.59997558594</ele>
        <time>2026-05-11T13:35:50.000Z</time>
      </trkpt>
      <trkpt lat="45.30689" lon="4.57829">
        <ele>610.79998779297</ele>
        <time>2026-05-11T13:35:51.000Z</time>
      </trkpt>
      <trkpt lat="45.30688" lon="4.57836">
        <ele>610.79998779297</ele>
        <time>2026-05-11T13:35:52.000Z</time>
      </trkpt>
      <trkpt lat="45.30688" lon="4.57836">
        <ele>611</ele>
        <time>2026-05-11T13:35:53.000Z</time>
      </trkpt>
      <trkpt lat="45.30685" lon="4.57849">
        <ele>611.20001220703</ele>
        <time>2026-05-11T13:35:54.000Z</time>
      </trkpt>
      <trkpt lat="45.30685" lon="4.57849">
        <ele>611.20001220703</ele>
        <time>2026-05-11T13:35:55.000Z</time>
      </trkpt>
      <trkpt lat="45.30681" lon="4.57862">
        <ele>611.40002441406</ele>
        <time>2026-05-11T13:35:56.000Z</time>
      </trkpt>
      <trkpt lat="45.30679" lon="4.57869">
        <ele>611.59997558594</ele>
        <time>2026-05-11T13:35:57.000Z</time>
      </trkpt>
      <trkpt lat="45.30677" lon="4.57875">
        <ele>611.59997558594</ele>
        <time>2026-05-11T13:35:58.000Z</time>
      </trkpt>
      <trkpt lat="45.30677" lon="4.57875">
        <ele>611.79998779297</ele>
        <time>2026-05-11T13:35:59.000Z</time>
      </trkpt>
      <trkpt lat="45.30673" lon="4.57887">
        <ele>611.79998779297</ele>
        <time>2026-05-11T13:36:00.000Z</time>
      </trkpt>
      <trkpt lat="45.30673" lon="4.57887">
        <ele>612</ele>
        <time>2026-05-11T13:36:01.000Z</time>
      </trkpt>
      <trkpt lat="45.30671" lon="4.57892">
        <ele>612</ele>
        <time>2026-05-11T13:36:02.000Z</time>
      </trkpt>
      <trkpt lat="45.30666" lon="4.57903">
        <ele>612.20001220703</ele>
        <time>2026-05-11T13:36:03.000Z</time>
      </trkpt>
      <trkpt lat="45.30664" lon="4.57908">
        <ele>612.40002441406</ele>
        <time>2026-05-11T13:36:04.000Z</time>
      </trkpt>
      <trkpt lat="45.30661" lon="4.57913">
        <ele>612.40002441406</ele>
        <time>2026-05-11T13:36:05.000Z</time>
      </trkpt>
      <trkpt lat="45.30659" lon="4.57918">
        <ele>612.59997558594</ele>
        <time>2026-05-11T13:36:06.000Z</time>
      </trkpt>
      <trkpt lat="45.30659" lon="4.57918">
        <ele>612.79998779297</ele>
        <time>2026-05-11T13:36:07.000Z</time>
      </trkpt>
      <trkpt lat="45.30656" lon="4.57923">
        <ele>613</ele>
        <time>2026-05-11T13:36:08.000Z</time>
      </trkpt>
      <trkpt lat="45.30651" lon="4.57932">
        <ele>613.20001220703</ele>
        <time>2026-05-11T13:36:09.000Z</time>
      </trkpt>
      <trkpt lat="45.30648" lon="4.57937">
        <ele>613.20001220703</ele>
        <time>2026-05-11T13:36:10.000Z</time>
      </trkpt>
      <trkpt lat="45.30648" lon="4.57937">
        <ele>613.40002441406</ele>
        <time>2026-05-11T13:36:11.000Z</time>
      </trkpt>
      <trkpt lat="45.30643" lon="4.57946">
        <ele>613.59997558594</ele>
        <time>2026-05-11T13:36:12.000Z</time>
      </trkpt>
      <trkpt lat="45.3064" lon="4.57951">
        <ele>613.79998779297</ele>
        <time>2026-05-11T13:36:13.000Z</time>
      </trkpt>
      <trkpt lat="45.3064" lon="4.57951">
        <ele>614</ele>
        <time>2026-05-11T13:36:14.000Z</time>
      </trkpt>
      <trkpt lat="45.30637" lon="4.57957">
        <ele>614.20001220703</ele>
        <time>2026-05-11T13:36:15.000Z</time>
      </trkpt>
      <trkpt lat="45.30632" lon="4.57969">
        <ele>614.20001220703</ele>
        <time>2026-05-11T13:36:16.000Z</time>
      </trkpt>
      <trkpt lat="45.30632" lon="4.57969">
        <ele>614.40002441406</ele>
        <time>2026-05-11T13:36:17.000Z</time>
      </trkpt>
      <trkpt lat="45.30627" lon="4.5798">
        <ele>614.59997558594</ele>
        <time>2026-05-11T13:36:18.000Z</time>
      </trkpt>
      <trkpt lat="45.30625" lon="4.57986">
        <ele>614.79998779297</ele>
        <time>2026-05-11T13:36:19.000Z</time>
      </trkpt>
      <trkpt lat="45.30625" lon="4.57986">
        <ele>615</ele>
        <time>2026-05-11T13:36:20.000Z</time>
      </trkpt>
      <trkpt lat="45.3062" lon="4.57999">
        <ele>615</ele>
        <time>2026-05-11T13:36:21.000Z</time>
      </trkpt>
      <trkpt lat="45.30618" lon="4.58005">
        <ele>615.20001220703</ele>
        <time>2026-05-11T13:36:22.000Z</time>
      </trkpt>
      <trkpt lat="45.30618" lon="4.58005">
        <ele>615.40002441406</ele>
        <time>2026-05-11T13:36:23.000Z</time>
      </trkpt>
      <trkpt lat="45.30614" lon="4.58018">
        <ele>615.40002441406</ele>
        <time>2026-05-11T13:36:24.000Z</time>
      </trkpt>
      <trkpt lat="45.30613" lon="4.58024">
        <ele>615.59997558594</ele>
        <time>2026-05-11T13:36:25.000Z</time>
      </trkpt>
      <trkpt lat="45.30613" lon="4.58024">
        <ele>615.59997558594</ele>
        <time>2026-05-11T13:36:26.000Z</time>
      </trkpt>
      <trkpt lat="45.3061" lon="4.58037">
        <ele>615.79998779297</ele>
        <time>2026-05-11T13:36:27.000Z</time>
      </trkpt>
      <trkpt lat="45.30609" lon="4.58044">
        <ele>616</ele>
        <time>2026-05-11T13:36:28.000Z</time>
      </trkpt>
      <trkpt lat="45.30608" lon="4.5805">
        <ele>616</ele>
        <time>2026-05-11T13:36:29.000Z</time>
      </trkpt>
      <trkpt lat="45.30608" lon="4.5805">
        <ele>616.20001220703</ele>
        <time>2026-05-11T13:36:30.000Z</time>
      </trkpt>
      <trkpt lat="45.30606" lon="4.58064">
        <ele>616.40002441406</ele>
        <time>2026-05-11T13:36:31.000Z</time>
      </trkpt>
      <trkpt lat="45.30606" lon="4.58064">
        <ele>616.59997558594</ele>
        <time>2026-05-11T13:36:32.000Z</time>
      </trkpt>
      <trkpt lat="45.30605" lon="4.58078">
        <ele>616.59997558594</ele>
        <time>2026-05-11T13:36:33.000Z</time>
      </trkpt>
      <trkpt lat="45.30605" lon="4.58078">
        <ele>616.79998779297</ele>
        <time>2026-05-11T13:36:34.000Z</time>
      </trkpt>
      <trkpt lat="45.30603" lon="4.58091">
        <ele>617</ele>
        <time>2026-05-11T13:36:35.000Z</time>
      </trkpt>
      <trkpt lat="45.30603" lon="4.58091">
        <ele>617</ele>
        <time>2026-05-11T13:36:36.000Z</time>
      </trkpt>
      <trkpt lat="45.30603" lon="4.58098">
        <ele>617.20001220703</ele>
        <time>2026-05-11T13:36:37.000Z</time>
      </trkpt>
      <trkpt lat="45.30603" lon="4.58105">
        <ele>617.40002441406</ele>
        <time>2026-05-11T13:36:38.000Z</time>
      </trkpt>
      <trkpt lat="45.30603" lon="4.58112">
        <ele>617.59997558594</ele>
        <time>2026-05-11T13:36:39.000Z</time>
      </trkpt>
      <trkpt lat="45.30603" lon="4.58118">
        <ele>617.59997558594</ele>
        <time>2026-05-11T13:36:40.000Z</time>
      </trkpt>
      <trkpt lat="45.30603" lon="4.58125">
        <ele>617.79998779297</ele>
        <time>2026-05-11T13:36:41.000Z</time>
      </trkpt>
      <trkpt lat="45.30604" lon="4.58133">
        <ele>618</ele>
        <time>2026-05-11T13:36:42.000Z</time>
      </trkpt>
      <trkpt lat="45.30605" lon="4.5814">
        <ele>618</ele>
        <time>2026-05-11T13:36:43.000Z</time>
      </trkpt>
      <trkpt lat="45.30607" lon="4.58147">
        <ele>618.20001220703</ele>
        <time>2026-05-11T13:36:44.000Z</time>
      </trkpt>
      <trkpt lat="45.30609" lon="4.58154">
        <ele>618.20001220703</ele>
        <time>2026-05-11T13:36:45.000Z</time>
      </trkpt>
      <trkpt lat="45.30612" lon="4.5816">
        <ele>618.40002441406</ele>
        <time>2026-05-11T13:36:46.000Z</time>
      </trkpt>
      <trkpt lat="45.30615" lon="4.58166">
        <ele>618.40002441406</ele>
        <time>2026-05-11T13:36:47.000Z</time>
      </trkpt>
      <trkpt lat="45.30619" lon="4.58171">
        <ele>618.40002441406</ele>
        <time>2026-05-11T13:36:48.000Z</time>
      </trkpt>
      <trkpt lat="45.30623" lon="4.58175">
        <ele>618.40002441406</ele>
        <time>2026-05-11T13:36:49.000Z</time>
      </trkpt>
      <trkpt lat="45.30627" lon="4.58179">
        <ele>618.59997558594</ele>
        <time>2026-05-11T13:36:50.000Z</time>
      </trkpt>
      <trkpt lat="45.30631" lon="4.58181">
        <ele>618.59997558594</ele>
        <time>2026-05-11T13:36:51.000Z</time>
      </trkpt>
      <trkpt lat="45.30635" lon="4.58184">
        <ele>618.59997558594</ele>
        <time>2026-05-11T13:36:52.000Z</time>
      </trkpt>
      <trkpt lat="45.3064" lon="4.58186">
        <ele>618.40002441406</ele>
        <time>2026-05-11T13:36:53.000Z</time>
      </trkpt>
      <trkpt lat="45.30644" lon="4.58187">
        <ele>618.40002441406</ele>
        <time>2026-05-11T13:36:54.000Z</time>
      </trkpt>
      <trkpt lat="45.30653" lon="4.58188">
        <ele>618.40002441406</ele>
        <time>2026-05-11T13:36:55.000Z</time>
      </trkpt>
      <trkpt lat="45.30653" lon="4.58188">
        <ele>618.40002441406</ele>
        <time>2026-05-11T13:36:56.000Z</time>
      </trkpt>
      <trkpt lat="45.30662" lon="4.58186">
        <ele>618.40002441406</ele>
        <time>2026-05-11T13:36:57.000Z</time>
      </trkpt>
      <trkpt lat="45.30662" lon="4.58186">
        <ele>618.40002441406</ele>
        <time>2026-05-11T13:36:58.000Z</time>
      </trkpt>
      <trkpt lat="45.30667" lon="4.58184">
        <ele>618.40002441406</ele>
        <time>2026-05-11T13:36:59.000Z</time>
      </trkpt>
      <trkpt lat="45.30672" lon="4.58181">
        <ele>618.20001220703</ele>
        <time>2026-05-11T13:37:00.000Z</time>
      </trkpt>
      <trkpt lat="45.30683" lon="4.58175">
        <ele>618.20001220703</ele>
        <time>2026-05-11T13:37:01.000Z</time>
      </trkpt>
      <trkpt lat="45.30683" lon="4.58175">
        <ele>618.20001220703</ele>
        <time>2026-05-11T13:37:02.000Z</time>
      </trkpt>
      <trkpt lat="45.30688" lon="4.58171">
        <ele>618</ele>
        <time>2026-05-11T13:37:03.000Z</time>
      </trkpt>
      <trkpt lat="45.30693" lon="4.58167">
        <ele>618</ele>
        <time>2026-05-11T13:37:04.000Z</time>
      </trkpt>
      <trkpt lat="45.30703" lon="4.5816">
        <ele>618</ele>
        <time>2026-05-11T13:37:05.000Z</time>
      </trkpt>
      <trkpt lat="45.30703" lon="4.5816">
        <ele>618</ele>
        <time>2026-05-11T13:37:06.000Z</time>
      </trkpt>
      <trkpt lat="45.30714" lon="4.58153">
        <ele>617.79998779297</ele>
        <time>2026-05-11T13:37:07.000Z</time>
      </trkpt>
      <trkpt lat="45.30714" lon="4.58153">
        <ele>617.79998779297</ele>
        <time>2026-05-11T13:37:08.000Z</time>
      </trkpt>
      <trkpt lat="45.30725" lon="4.58147">
        <ele>617.79998779297</ele>
        <time>2026-05-11T13:37:09.000Z</time>
      </trkpt>
      <trkpt lat="45.30731" lon="4.58145">
        <ele>617.59997558594</ele>
        <time>2026-05-11T13:37:10.000Z</time>
      </trkpt>
      <trkpt lat="45.30731" lon="4.58145">
        <ele>617.59997558594</ele>
        <time>2026-05-11T13:37:11.000Z</time>
      </trkpt>
      <trkpt lat="45.30736" lon="4.58143">
        <ele>617.59997558594</ele>
        <time>2026-05-11T13:37:12.000Z</time>
      </trkpt>
      <trkpt lat="45.30747" lon="4.5814">
        <ele>617.59997558594</ele>
        <time>2026-05-11T13:37:13.000Z</time>
      </trkpt>
      <trkpt lat="45.30752" lon="4.58138">
        <ele>617.59997558594</ele>
        <time>2026-05-11T13:37:14.000Z</time>
      </trkpt>
      <trkpt lat="45.30752" lon="4.58138">
        <ele>617.40002441406</ele>
        <time>2026-05-11T13:37:15.000Z</time>
      </trkpt>
      <trkpt lat="45.30763" lon="4.58135">
        <ele>617.40002441406</ele>
        <time>2026-05-11T13:37:16.000Z</time>
      </trkpt>
      <trkpt lat="45.30768" lon="4.58133">
        <ele>617.40002441406</ele>
        <time>2026-05-11T13:37:17.000Z</time>
      </trkpt>
      <trkpt lat="45.30768" lon="4.58133">
        <ele>617.40002441406</ele>
        <time>2026-05-11T13:37:18.000Z</time>
      </trkpt>
      <trkpt lat="45.30779" lon="4.5813">
        <ele>617.40002441406</ele>
        <time>2026-05-11T13:37:19.000Z</time>
      </trkpt>
      <trkpt lat="45.30784" lon="4.58129">
        <ele>617.40002441406</ele>
        <time>2026-05-11T13:37:20.000Z</time>
      </trkpt>
      <trkpt lat="45.30784" lon="4.58129">
        <ele>617.20001220703</ele>
        <time>2026-05-11T13:37:21.000Z</time>
      </trkpt>
      <trkpt lat="45.30794" lon="4.58127">
        <ele>617.20001220703</ele>
        <time>2026-05-11T13:37:22.000Z</time>
      </trkpt>
      <trkpt lat="45.30799" lon="4.58126">
        <ele>617.20001220703</ele>
        <time>2026-05-11T13:37:23.000Z</time>
      </trkpt>
      <trkpt lat="45.30799" lon="4.58126">
        <ele>617.20001220703</ele>
        <time>2026-05-11T13:37:24.000Z</time>
      </trkpt>
      <trkpt lat="45.30809" lon="4.58123">
        <ele>617.20001220703</ele>
        <time>2026-05-11T13:37:25.000Z</time>
      </trkpt>
      <trkpt lat="45.30814" lon="4.58122">
        <ele>617</ele>
        <time>2026-05-11T13:37:26.000Z</time>
      </trkpt>
      <trkpt lat="45.30819" lon="4.58121">
        <ele>617</ele>
        <time>2026-05-11T13:37:27.000Z</time>
      </trkpt>
      <trkpt lat="45.30824" lon="4.58121">
        <ele>617</ele>
        <time>2026-05-11T13:37:28.000Z</time>
      </trkpt>
      <trkpt lat="45.3083" lon="4.5812">
        <ele>616.79998779297</ele>
        <time>2026-05-11T13:37:29.000Z</time>
      </trkpt>
      <trkpt lat="45.3083" lon="4.5812">
        <ele>616.79998779297</ele>
        <time>2026-05-11T13:37:30.000Z</time>
      </trkpt>
      <trkpt lat="45.30842" lon="4.58119">
        <ele>616.79998779297</ele>
        <time>2026-05-11T13:37:31.000Z</time>
      </trkpt>
      <trkpt lat="45.30842" lon="4.58119">
        <ele>616.79998779297</ele>
        <time>2026-05-11T13:37:32.000Z</time>
      </trkpt>
      <trkpt lat="45.30848" lon="4.5812">
        <ele>616.59997558594</ele>
        <time>2026-05-11T13:37:33.000Z</time>
      </trkpt>
      <trkpt lat="45.30859" lon="4.58121">
        <ele>616.59997558594</ele>
        <time>2026-05-11T13:37:34.000Z</time>
      </trkpt>
      <trkpt lat="45.30865" lon="4.58122">
        <ele>616.59997558594</ele>
        <time>2026-05-11T13:37:35.000Z</time>
      </trkpt>
      <trkpt lat="45.30865" lon="4.58122">
        <ele>616.40002441406</ele>
        <time>2026-05-11T13:37:36.000Z</time>
      </trkpt>
      <trkpt lat="45.3087" lon="4.58123">
        <ele>616.40002441406</ele>
        <time>2026-05-11T13:37:37.000Z</time>
      </trkpt>
      <trkpt lat="45.30881" lon="4.58127">
        <ele>616.40002441406</ele>
        <time>2026-05-11T13:37:38.000Z</time>
      </trkpt>
      <trkpt lat="45.30886" lon="4.58129">
        <ele>616.20001220703</ele>
        <time>2026-05-11T13:37:39.000Z</time>
      </trkpt>
      <trkpt lat="45.30891" lon="4.58132">
        <ele>616.20001220703</ele>
        <time>2026-05-11T13:37:40.000Z</time>
      </trkpt>
      <trkpt lat="45.30896" lon="4.58134">
        <ele>616</ele>
        <time>2026-05-11T13:37:41.000Z</time>
      </trkpt>
      <trkpt lat="45.30901" lon="4.58136">
        <ele>616</ele>
        <time>2026-05-11T13:37:42.000Z</time>
      </trkpt>
      <trkpt lat="45.30901" lon="4.58136">
        <ele>616</ele>
        <time>2026-05-11T13:37:43.000Z</time>
      </trkpt>
      <trkpt lat="45.3091" lon="4.58141">
        <ele>615.79998779297</ele>
        <time>2026-05-11T13:37:44.000Z</time>
      </trkpt>
      <trkpt lat="45.30915" lon="4.58144">
        <ele>615.79998779297</ele>
        <time>2026-05-11T13:37:45.000Z</time>
      </trkpt>
      <trkpt lat="45.3092" lon="4.58146">
        <ele>615.79998779297</ele>
        <time>2026-05-11T13:37:46.000Z</time>
      </trkpt>
      <trkpt lat="45.30925" lon="4.58149">
        <ele>615.59997558594</ele>
        <time>2026-05-11T13:37:47.000Z</time>
      </trkpt>
      <trkpt lat="45.3093" lon="4.58152">
        <ele>615.59997558594</ele>
        <time>2026-05-11T13:37:48.000Z</time>
      </trkpt>
      <trkpt lat="45.3093" lon="4.58152">
        <ele>615.40002441406</ele>
        <time>2026-05-11T13:37:49.000Z</time>
      </trkpt>
      <trkpt lat="45.3094" lon="4.58158">
        <ele>615.20001220703</ele>
        <time>2026-05-11T13:37:50.000Z</time>
      </trkpt>
      <trkpt lat="45.30946" lon="4.58161">
        <ele>615.20001220703</ele>
        <time>2026-05-11T13:37:51.000Z</time>
      </trkpt>
      <trkpt lat="45.30951" lon="4.58164">
        <ele>615</ele>
        <time>2026-05-11T13:37:52.000Z</time>
      </trkpt>
      <trkpt lat="45.30957" lon="4.58167">
        <ele>614.79998779297</ele>
        <time>2026-05-11T13:37:53.000Z</time>
      </trkpt>
      <trkpt lat="45.30962" lon="4.5817">
        <ele>614.79998779297</ele>
        <time>2026-05-11T13:37:54.000Z</time>
      </trkpt>
      <trkpt lat="45.30962" lon="4.5817">
        <ele>614.59997558594</ele>
        <time>2026-05-11T13:37:55.000Z</time>
      </trkpt>
      <trkpt lat="45.30968" lon="4.58172">
        <ele>614.40002441406</ele>
        <time>2026-05-11T13:37:56.000Z</time>
      </trkpt>
      <trkpt lat="45.30979" lon="4.58178">
        <ele>614.20001220703</ele>
        <time>2026-05-11T13:37:57.000Z</time>
      </trkpt>
      <trkpt lat="45.30984" lon="4.58181">
        <ele>614.20001220703</ele>
        <time>2026-05-11T13:37:58.000Z</time>
      </trkpt>
      <trkpt lat="45.3099" lon="4.58184">
        <ele>614</ele>
        <time>2026-05-11T13:37:59.000Z</time>
      </trkpt>
      <trkpt lat="45.3099" lon="4.58184">
        <ele>613.79998779297</ele>
        <time>2026-05-11T13:38:00.000Z</time>
      </trkpt>
      <trkpt lat="45.31" lon="4.5819">
        <ele>613.59997558594</ele>
        <time>2026-05-11T13:38:01.000Z</time>
      </trkpt>
      <trkpt lat="45.31" lon="4.5819">
        <ele>613.20001220703</ele>
        <time>2026-05-11T13:38:02.000Z</time>
      </trkpt>
      <trkpt lat="45.3101" lon="4.58196">
        <ele>613</ele>
        <time>2026-05-11T13:38:03.000Z</time>
      </trkpt>
      <trkpt lat="45.31015" lon="4.582">
        <ele>612.79998779297</ele>
        <time>2026-05-11T13:38:04.000Z</time>
      </trkpt>
      <trkpt lat="45.31015" lon="4.582">
        <ele>612.59997558594</ele>
        <time>2026-05-11T13:38:05.000Z</time>
      </trkpt>
      <trkpt lat="45.31023" lon="4.58207">
        <ele>612.40002441406</ele>
        <time>2026-05-11T13:38:06.000Z</time>
      </trkpt>
      <trkpt lat="45.31027" lon="4.5821">
        <ele>612.20001220703</ele>
        <time>2026-05-11T13:38:07.000Z</time>
      </trkpt>
      <trkpt lat="45.31027" lon="4.5821">
        <ele>612.20001220703</ele>
        <time>2026-05-11T13:38:08.000Z</time>
      </trkpt>
      <trkpt lat="45.31035" lon="4.58219">
        <ele>612.20001220703</ele>
        <time>2026-05-11T13:38:09.000Z</time>
      </trkpt>
      <trkpt lat="45.31038" lon="4.58224">
        <ele>612.40002441406</ele>
        <time>2026-05-11T13:38:10.000Z</time>
      </trkpt>
      <trkpt lat="45.31041" lon="4.5823">
        <ele>612.40002441406</ele>
        <time>2026-05-11T13:38:11.000Z</time>
      </trkpt>
      <trkpt lat="45.31044" lon="4.58236">
        <ele>612.40002441406</ele>
        <time>2026-05-11T13:38:12.000Z</time>
      </trkpt>
      <trkpt lat="45.31044" lon="4.58236">
        <ele>612.40002441406</ele>
        <time>2026-05-11T13:38:13.000Z</time>
      </trkpt>
      <trkpt lat="45.31047" lon="4.58243">
        <ele>612.40002441406</ele>
        <time>2026-05-11T13:38:14.000Z</time>
      </trkpt>
      <trkpt lat="45.31049" lon="4.58251">
        <ele>612.40002441406</ele>
        <time>2026-05-11T13:38:15.000Z</time>
      </trkpt>
      <trkpt lat="45.31052" lon="4.58266">
        <ele>612.40002441406</ele>
        <time>2026-05-11T13:38:16.000Z</time>
      </trkpt>
      <trkpt lat="45.31051" lon="4.58274">
        <ele>612.40002441406</ele>
        <time>2026-05-11T13:38:17.000Z</time>
      </trkpt>
      <trkpt lat="45.31051" lon="4.58274">
        <ele>612.40002441406</ele>
        <time>2026-05-11T13:38:18.000Z</time>
      </trkpt>
      <trkpt lat="45.31047" lon="4.58287">
        <ele>612.40002441406</ele>
        <time>2026-05-11T13:38:19.000Z</time>
      </trkpt>
      <trkpt lat="45.31047" lon="4.58287">
        <ele>612.40002441406</ele>
        <time>2026-05-11T13:38:20.000Z</time>
      </trkpt>
      <trkpt lat="45.31042" lon="4.58299">
        <ele>612.40002441406</ele>
        <time>2026-05-11T13:38:21.000Z</time>
      </trkpt>
      <trkpt lat="45.31039" lon="4.58305">
        <ele>612.59997558594</ele>
        <time>2026-05-11T13:38:22.000Z</time>
      </trkpt>
      <trkpt lat="45.31036" lon="4.5831">
        <ele>612.59997558594</ele>
        <time>2026-05-11T13:38:23.000Z</time>
      </trkpt>
      <trkpt lat="45.31032" lon="4.58314">
        <ele>612.59997558594</ele>
        <time>2026-05-11T13:38:24.000Z</time>
      </trkpt>
      <trkpt lat="45.31028" lon="4.58318">
        <ele>612.79998779297</ele>
        <time>2026-05-11T13:38:25.000Z</time>
      </trkpt>
      <trkpt lat="45.31028" lon="4.58318">
        <ele>613</ele>
        <time>2026-05-11T13:38:26.000Z</time>
      </trkpt>
      <trkpt lat="45.31019" lon="4.58325">
        <ele>613.20001220703</ele>
        <time>2026-05-11T13:38:27.000Z</time>
      </trkpt>
      <trkpt lat="45.31015" lon="4.58327">
        <ele>613.20001220703</ele>
        <time>2026-05-11T13:38:28.000Z</time>
      </trkpt>
      <trkpt lat="45.31011" lon="4.58328">
        <ele>613.40002441406</ele>
        <time>2026-05-11T13:38:29.000Z</time>
      </trkpt>
      <trkpt lat="45.31006" lon="4.5833">
        <ele>613.59997558594</ele>
        <time>2026-05-11T13:38:30.000Z</time>
      </trkpt>
      <trkpt lat="45.31001" lon="4.58331">
        <ele>613.79998779297</ele>
        <time>2026-05-11T13:38:31.000Z</time>
      </trkpt>
      <trkpt lat="45.30996" lon="4.58333">
        <ele>614</ele>
        <time>2026-05-11T13:38:32.000Z</time>
      </trkpt>
      <trkpt lat="45.30996" lon="4.58333">
        <ele>614.20001220703</ele>
        <time>2026-05-11T13:38:33.000Z</time>
      </trkpt>
      <trkpt lat="45.30987" lon="4.58335">
        <ele>614.20001220703</ele>
        <time>2026-05-11T13:38:34.000Z</time>
      </trkpt>
      <trkpt lat="45.30987" lon="4.58335">
        <ele>614.40002441406</ele>
        <time>2026-05-11T13:38:35.000Z</time>
      </trkpt>
      <trkpt lat="45.30978" lon="4.58338">
        <ele>614.59997558594</ele>
        <time>2026-05-11T13:38:36.000Z</time>
      </trkpt>
      <trkpt lat="45.30973" lon="4.58339">
        <ele>614.79998779297</ele>
        <time>2026-05-11T13:38:37.000Z</time>
      </trkpt>
      <trkpt lat="45.30968" lon="4.58341">
        <ele>615</ele>
        <time>2026-05-11T13:38:38.000Z</time>
      </trkpt>
      <trkpt lat="45.30964" lon="4.58342">
        <ele>615.20001220703</ele>
        <time>2026-05-11T13:38:39.000Z</time>
      </trkpt>
      <trkpt lat="45.30959" lon="4.58343">
        <ele>615.40002441406</ele>
        <time>2026-05-11T13:38:40.000Z</time>
      </trkpt>
      <trkpt lat="45.30955" lon="4.58345">
        <ele>615.40002441406</ele>
        <time>2026-05-11T13:38:41.000Z</time>
      </trkpt>
      <trkpt lat="45.3095" lon="4.58346">
        <ele>615.59997558594</ele>
        <time>2026-05-11T13:38:42.000Z</time>
      </trkpt>
      <trkpt lat="45.3095" lon="4.58346">
        <ele>615.79998779297</ele>
        <time>2026-05-11T13:38:43.000Z</time>
      </trkpt>
      <trkpt lat="45.30941" lon="4.5835">
        <ele>616</ele>
        <time>2026-05-11T13:38:44.000Z</time>
      </trkpt>
      <trkpt lat="45.30941" lon="4.5835">
        <ele>616.20001220703</ele>
        <time>2026-05-11T13:38:45.000Z</time>
      </trkpt>
      <trkpt lat="45.30933" lon="4.58355">
        <ele>616.40002441406</ele>
        <time>2026-05-11T13:38:46.000Z</time>
      </trkpt>
      <trkpt lat="45.30929" lon="4.58358">
        <ele>616.59997558594</ele>
        <time>2026-05-11T13:38:47.000Z</time>
      </trkpt>
      <trkpt lat="45.30926" lon="4.58362">
        <ele>616.79998779297</ele>
        <time>2026-05-11T13:38:48.000Z</time>
      </trkpt>
      <trkpt lat="45.30922" lon="4.58365">
        <ele>617.20001220703</ele>
        <time>2026-05-11T13:38:49.000Z</time>
      </trkpt>
      <trkpt lat="45.30922" lon="4.58365">
        <ele>617.40002441406</ele>
        <time>2026-05-11T13:38:50.000Z</time>
      </trkpt>
      <trkpt lat="45.30919" lon="4.58369">
        <ele>617.59997558594</ele>
        <time>2026-05-11T13:38:51.000Z</time>
      </trkpt>
      <trkpt lat="45.30912" lon="4.58378">
        <ele>617.79998779297</ele>
        <time>2026-05-11T13:38:52.000Z</time>
      </trkpt>
      <trkpt lat="45.30909" lon="4.58383">
        <ele>618</ele>
        <time>2026-05-11T13:38:53.000Z</time>
      </trkpt>
      <trkpt lat="45.30909" lon="4.58383">
        <ele>618.20001220703</ele>
        <time>2026-05-11T13:38:54.000Z</time>
      </trkpt>
      <trkpt lat="45.30904" lon="4.58394">
        <ele>618.59997558594</ele>
        <time>2026-05-11T13:38:55.000Z</time>
      </trkpt>
      <trkpt lat="45.30902" lon="4.58399">
        <ele>618.79998779297</ele>
        <time>2026-05-11T13:38:56.000Z</time>
      </trkpt>
      <trkpt lat="45.30902" lon="4.58399">
        <ele>619</ele>
        <time>2026-05-11T13:38:57.000Z</time>
      </trkpt>
      <trkpt lat="45.30898" lon="4.58411">
        <ele>619.40002441406</ele>
        <time>2026-05-11T13:38:58.000Z</time>
      </trkpt>
      <trkpt lat="45.30898" lon="4.58411">
        <ele>619.59997558594</ele>
        <time>2026-05-11T13:38:59.000Z</time>
      </trkpt>
      <trkpt lat="45.30894" lon="4.58422">
        <ele>619.79998779297</ele>
        <time>2026-05-11T13:39:00.000Z</time>
      </trkpt>
      <trkpt lat="45.30893" lon="4.58428">
        <ele>620.20001220703</ele>
        <time>2026-05-11T13:39:01.000Z</time>
      </trkpt>
      <trkpt lat="45.30893" lon="4.58428">
        <ele>620.40002441406</ele>
        <time>2026-05-11T13:39:02.000Z</time>
      </trkpt>
      <trkpt lat="45.30891" lon="4.58434">
        <ele>620.59997558594</ele>
        <time>2026-05-11T13:39:03.000Z</time>
      </trkpt>
      <trkpt lat="45.30889" lon="4.58439">
        <ele>620.79998779297</ele>
        <time>2026-05-11T13:39:04.000Z</time>
      </trkpt>
      <trkpt lat="45.30885" lon="4.58451">
        <ele>621</ele>
        <time>2026-05-11T13:39:05.000Z</time>
      </trkpt>
      <trkpt lat="45.30883" lon="4.58456">
        <ele>621.20001220703</ele>
        <time>2026-05-11T13:39:06.000Z</time>
      </trkpt>
      <trkpt lat="45.30883" lon="4.58456">
        <ele>621.40002441406</ele>
        <time>2026-05-11T13:39:07.000Z</time>
      </trkpt>
      <trkpt lat="45.30879" lon="4.58467">
        <ele>621.79998779297</ele>
        <time>2026-05-11T13:39:08.000Z</time>
      </trkpt>
      <trkpt lat="45.30877" lon="4.58473">
        <ele>622</ele>
        <time>2026-05-11T13:39:09.000Z</time>
      </trkpt>
      <trkpt lat="45.30877" lon="4.58473">
        <ele>622.20001220703</ele>
        <time>2026-05-11T13:39:10.000Z</time>
      </trkpt>
      <trkpt lat="45.30874" lon="4.58483">
        <ele>622.40002441406</ele>
        <time>2026-05-11T13:39:11.000Z</time>
      </trkpt>
      <trkpt lat="45.30872" lon="4.58489">
        <ele>622.59997558594</ele>
        <time>2026-05-11T13:39:12.000Z</time>
      </trkpt>
      <trkpt lat="45.30871" lon="4.58494">
        <ele>622.79998779297</ele>
        <time>2026-05-11T13:39:13.000Z</time>
      </trkpt>
      <trkpt lat="45.30869" lon="4.58499">
        <ele>623.20001220703</ele>
        <time>2026-05-11T13:39:14.000Z</time>
      </trkpt>
      <trkpt lat="45.30867" lon="4.58503">
        <ele>623.40002441406</ele>
        <time>2026-05-11T13:39:15.000Z</time>
      </trkpt>
      <trkpt lat="45.30867" lon="4.58503">
        <ele>623.59997558594</ele>
        <time>2026-05-11T13:39:16.000Z</time>
      </trkpt>
      <trkpt lat="45.30864" lon="4.58513">
        <ele>623.79998779297</ele>
        <time>2026-05-11T13:39:17.000Z</time>
      </trkpt>
      <trkpt lat="45.30864" lon="4.58513">
        <ele>624</ele>
        <time>2026-05-11T13:39:18.000Z</time>
      </trkpt>
      <trkpt lat="45.30861" lon="4.58523">
        <ele>624.20001220703</ele>
        <time>2026-05-11T13:39:19.000Z</time>
      </trkpt>
      <trkpt lat="45.3086" lon="4.58528">
        <ele>624.40002441406</ele>
        <time>2026-05-11T13:39:20.000Z</time>
      </trkpt>
      <trkpt lat="45.30858" lon="4.58533">
        <ele>624.59997558594</ele>
        <time>2026-05-11T13:39:21.000Z</time>
      </trkpt>
      <trkpt lat="45.30857" lon="4.58537">
        <ele>624.79998779297</ele>
        <time>2026-05-11T13:39:22.000Z</time>
      </trkpt>
      <trkpt lat="45.30855" lon="4.58542">
        <ele>625.20001220703</ele>
        <time>2026-05-11T13:39:23.000Z</time>
      </trkpt>
      <trkpt lat="45.30855" lon="4.58542">
        <ele>625.40002441406</ele>
        <time>2026-05-11T13:39:24.000Z</time>
      </trkpt>
      <trkpt lat="45.30852" lon="4.58551">
        <ele>625.59997558594</ele>
        <time>2026-05-11T13:39:25.000Z</time>
      </trkpt>
      <trkpt lat="45.30851" lon="4.58555">
        <ele>626</ele>
        <time>2026-05-11T13:39:26.000Z</time>
      </trkpt>
      <trkpt lat="45.3085" lon="4.58559">
        <ele>626.20001220703</ele>
        <time>2026-05-11T13:39:27.000Z</time>
      </trkpt>
      <trkpt lat="45.3085" lon="4.58559">
        <ele>626.59997558594</ele>
        <time>2026-05-11T13:39:28.000Z</time>
      </trkpt>
      <trkpt lat="45.30847" lon="4.58568">
        <ele>626.79998779297</ele>
        <time>2026-05-11T13:39:29.000Z</time>
      </trkpt>
      <trkpt lat="45.30845" lon="4.58572">
        <ele>627</ele>
        <time>2026-05-11T13:39:30.000Z</time>
      </trkpt>
      <trkpt lat="45.30844" lon="4.58576">
        <ele>627.40002441406</ele>
        <time>2026-05-11T13:39:31.000Z</time>
      </trkpt>
      <trkpt lat="45.30843" lon="4.5858">
        <ele>627.40002441406</ele>
        <time>2026-05-11T13:39:32.000Z</time>
      </trkpt>
      <trkpt lat="45.30841" lon="4.58584">
        <ele>627.59997558594</ele>
        <time>2026-05-11T13:39:33.000Z</time>
      </trkpt>
      <trkpt lat="45.30841" lon="4.58584">
        <ele>627.79998779297</ele>
        <time>2026-05-11T13:39:34.000Z</time>
      </trkpt>
      <trkpt lat="45.3084" lon="4.58589">
        <ele>628</ele>
        <time>2026-05-11T13:39:35.000Z</time>
      </trkpt>
      <trkpt lat="45.30838" lon="4.58593">
        <ele>628.20001220703</ele>
        <time>2026-05-11T13:39:36.000Z</time>
      </trkpt>
      <trkpt lat="45.30836" lon="4.58602">
        <ele>628.40002441406</ele>
        <time>2026-05-11T13:39:37.000Z</time>
      </trkpt>
      <trkpt lat="45.30835" lon="4.58607">
        <ele>628.59997558594</ele>
        <time>2026-05-11T13:39:38.000Z</time>
      </trkpt>
      <trkpt lat="45.30835" lon="4.58607">
        <ele>629</ele>
        <time>2026-05-11T13:39:39.000Z</time>
      </trkpt>
      <trkpt lat="45.30834" lon="4.58612">
        <ele>629.20001220703</ele>
        <time>2026-05-11T13:39:40.000Z</time>
      </trkpt>
      <trkpt lat="45.30832" lon="4.58621">
        <ele>629.40002441406</ele>
        <time>2026-05-11T13:39:41.000Z</time>
      </trkpt>
      <trkpt lat="45.30831" lon="4.58626">
        <ele>629.79998779297</ele>
        <time>2026-05-11T13:39:42.000Z</time>
      </trkpt>
      <trkpt lat="45.30831" lon="4.5863">
        <ele>630.20001220703</ele>
        <time>2026-05-11T13:39:43.000Z</time>
      </trkpt>
      <trkpt lat="45.30831" lon="4.5863">
        <ele>630.40002441406</ele>
        <time>2026-05-11T13:39:44.000Z</time>
      </trkpt>
      <trkpt lat="45.3083" lon="4.58641">
        <ele>630.59997558594</ele>
        <time>2026-05-11T13:39:45.000Z</time>
      </trkpt>
      <trkpt lat="45.3083" lon="4.58641">
        <ele>630.79998779297</ele>
        <time>2026-05-11T13:39:46.000Z</time>
      </trkpt>
      <trkpt lat="45.3083" lon="4.58651">
        <ele>631</ele>
        <time>2026-05-11T13:39:47.000Z</time>
      </trkpt>
      <trkpt lat="45.3083" lon="4.58651">
        <ele>631.40002441406</ele>
        <time>2026-05-11T13:39:48.000Z</time>
      </trkpt>
      <trkpt lat="45.3083" lon="4.58657">
        <ele>631.59997558594</ele>
        <time>2026-05-11T13:39:49.000Z</time>
      </trkpt>
      <trkpt lat="45.3083" lon="4.58662">
        <ele>631.79998779297</ele>
        <time>2026-05-11T13:39:50.000Z</time>
      </trkpt>
      <trkpt lat="45.30831" lon="4.58672">
        <ele>632.20001220703</ele>
        <time>2026-05-11T13:39:51.000Z</time>
      </trkpt>
      <trkpt lat="45.30831" lon="4.58672">
        <ele>632.40002441406</ele>
        <time>2026-05-11T13:39:52.000Z</time>
      </trkpt>
      <trkpt lat="45.30832" lon="4.58682">
        <ele>632.59997558594</ele>
        <time>2026-05-11T13:39:53.000Z</time>
      </trkpt>
      <trkpt lat="45.30832" lon="4.58682">
        <ele>633</ele>
        <time>2026-05-11T13:39:54.000Z</time>
      </trkpt>
      <trkpt lat="45.30834" lon="4.58692">
        <ele>633.20001220703</ele>
        <time>2026-05-11T13:39:55.000Z</time>
      </trkpt>
      <trkpt lat="45.30835" lon="4.58697">
        <ele>633.40002441406</ele>
        <time>2026-05-11T13:39:56.000Z</time>
      </trkpt>
      <trkpt lat="45.30835" lon="4.58697">
        <ele>633.59997558594</ele>
        <time>2026-05-11T13:39:57.000Z</time>
      </trkpt>
      <trkpt lat="45.30837" lon="4.58702">
        <ele>633.79998779297</ele>
        <time>2026-05-11T13:39:58.000Z</time>
      </trkpt>
      <trkpt lat="45.30838" lon="4.58706">
        <ele>634</ele>
        <time>2026-05-11T13:39:59.000Z</time>
      </trkpt>
      <trkpt lat="45.30839" lon="4.58711">
        <ele>634.40002441406</ele>
        <time>2026-05-11T13:40:00.000Z</time>
      </trkpt>
      <trkpt lat="45.30843" lon="4.5872">
        <ele>634.59997558594</ele>
        <time>2026-05-11T13:40:01.000Z</time>
      </trkpt>
      <trkpt lat="45.30843" lon="4.5872">
        <ele>634.79998779297</ele>
        <time>2026-05-11T13:40:02.000Z</time>
      </trkpt>
      <trkpt lat="45.30847" lon="4.58728">
        <ele>635</ele>
        <time>2026-05-11T13:40:03.000Z</time>
      </trkpt>
      <trkpt lat="45.30847" lon="4.58728">
        <ele>635.20001220703</ele>
        <time>2026-05-11T13:40:04.000Z</time>
      </trkpt>
      <trkpt lat="45.30849" lon="4.58732">
        <ele>635.59997558594</ele>
        <time>2026-05-11T13:40:05.000Z</time>
      </trkpt>
      <trkpt lat="45.30852" lon="4.58736">
        <ele>635.79998779297</ele>
        <time>2026-05-11T13:40:06.000Z</time>
      </trkpt>
      <trkpt lat="45.30857" lon="4.58743">
        <ele>636</ele>
        <time>2026-05-11T13:40:07.000Z</time>
      </trkpt>
      <trkpt lat="45.30857" lon="4.58743">
        <ele>636.20001220703</ele>
        <time>2026-05-11T13:40:08.000Z</time>
      </trkpt>
      <trkpt lat="45.30862" lon="4.5875">
        <ele>636.40002441406</ele>
        <time>2026-05-11T13:40:09.000Z</time>
      </trkpt>
      <trkpt lat="45.30862" lon="4.5875">
        <ele>636.59997558594</ele>
        <time>2026-05-11T13:40:10.000Z</time>
      </trkpt>
      <trkpt lat="45.30867" lon="4.58756">
        <ele>636.79998779297</ele>
        <time>2026-05-11T13:40:11.000Z</time>
      </trkpt>
      <trkpt lat="45.3087" lon="4.58759">
        <ele>637</ele>
        <time>2026-05-11T13:40:12.000Z</time>
      </trkpt>
      <trkpt lat="45.30872" lon="4.58762">
        <ele>637.20001220703</ele>
        <time>2026-05-11T13:40:13.000Z</time>
      </trkpt>
      <trkpt lat="45.30872" lon="4.58762">
        <ele>637.40002441406</ele>
        <time>2026-05-11T13:40:14.000Z</time>
      </trkpt>
      <trkpt lat="45.30878" lon="4.58768">
        <ele>637.59997558594</ele>
        <time>2026-05-11T13:40:15.000Z</time>
      </trkpt>
      <trkpt lat="45.30878" lon="4.58768">
        <ele>637.79998779297</ele>
        <time>2026-05-11T13:40:16.000Z</time>
      </trkpt>
      <trkpt lat="45.3088" lon="4.58771">
        <ele>638</ele>
        <time>2026-05-11T13:40:17.000Z</time>
      </trkpt>
      <trkpt lat="45.30886" lon="4.58777">
        <ele>638.20001220703</ele>
        <time>2026-05-11T13:40:18.000Z</time>
      </trkpt>
      <trkpt lat="45.30889" lon="4.5878">
        <ele>638.40002441406</ele>
        <time>2026-05-11T13:40:19.000Z</time>
      </trkpt>
      <trkpt lat="45.30892" lon="4.58783">
        <ele>638.59997558594</ele>
        <time>2026-05-11T13:40:20.000Z</time>
      </trkpt>
      <trkpt lat="45.30892" lon="4.58783">
        <ele>639</ele>
        <time>2026-05-11T13:40:21.000Z</time>
      </trkpt>
      <trkpt lat="45.30897" lon="4.58788">
        <ele>639.20001220703</ele>
        <time>2026-05-11T13:40:22.000Z</time>
      </trkpt>
      <trkpt lat="45.30897" lon="4.58788">
        <ele>639.40002441406</ele>
        <time>2026-05-11T13:40:23.000Z</time>
      </trkpt>
      <trkpt lat="45.30902" lon="4.58794">
        <ele>639.59997558594</ele>
        <time>2026-05-11T13:40:24.000Z</time>
      </trkpt>
      <trkpt lat="45.30905" lon="4.58797">
        <ele>639.79998779297</ele>
        <time>2026-05-11T13:40:25.000Z</time>
      </trkpt>
      <trkpt lat="45.30908" lon="4.58799">
        <ele>640</ele>
        <time>2026-05-11T13:40:26.000Z</time>
      </trkpt>
      <trkpt lat="45.30908" lon="4.58799">
        <ele>640.20001220703</ele>
        <time>2026-05-11T13:40:27.000Z</time>
      </trkpt>
      <trkpt lat="45.30913" lon="4.58805">
        <ele>640.40002441406</ele>
        <time>2026-05-11T13:40:28.000Z</time>
      </trkpt>
      <trkpt lat="45.30913" lon="4.58805">
        <ele>640.59997558594</ele>
        <time>2026-05-11T13:40:29.000Z</time>
      </trkpt>
      <trkpt lat="45.30919" lon="4.58811">
        <ele>641</ele>
        <time>2026-05-11T13:40:30.000Z</time>
      </trkpt>
      <trkpt lat="45.30922" lon="4.58814">
        <ele>641</ele>
        <time>2026-05-11T13:40:31.000Z</time>
      </trkpt>
      <trkpt lat="45.30924" lon="4.58818">
        <ele>641.20001220703</ele>
        <time>2026-05-11T13:40:32.000Z</time>
      </trkpt>
      <trkpt lat="45.30924" lon="4.58818">
        <ele>641.40002441406</ele>
        <time>2026-05-11T13:40:33.000Z</time>
      </trkpt>
      <trkpt lat="45.3093" lon="4.58824">
        <ele>641.59997558594</ele>
        <time>2026-05-11T13:40:34.000Z</time>
      </trkpt>
      <trkpt lat="45.30932" lon="4.58828">
        <ele>641.79998779297</ele>
        <time>2026-05-11T13:40:35.000Z</time>
      </trkpt>
      <trkpt lat="45.30935" lon="4.58832">
        <ele>642.20001220703</ele>
        <time>2026-05-11T13:40:36.000Z</time>
      </trkpt>
      <trkpt lat="45.30937" lon="4.58836">
        <ele>642.20001220703</ele>
        <time>2026-05-11T13:40:37.000Z</time>
      </trkpt>
      <trkpt lat="45.3094" lon="4.58841">
        <ele>642.40002441406</ele>
        <time>2026-05-11T13:40:38.000Z</time>
      </trkpt>
      <trkpt lat="45.3094" lon="4.58841">
        <ele>642.59997558594</ele>
        <time>2026-05-11T13:40:39.000Z</time>
      </trkpt>
      <trkpt lat="45.30943" lon="4.5885">
        <ele>642.79998779297</ele>
        <time>2026-05-11T13:40:40.000Z</time>
      </trkpt>
      <trkpt lat="45.30945" lon="4.58855">
        <ele>643</ele>
        <time>2026-05-11T13:40:41.000Z</time>
      </trkpt>
      <trkpt lat="45.30947" lon="4.58859">
        <ele>643.20001220703</ele>
        <time>2026-05-11T13:40:42.000Z</time>
      </trkpt>
      <trkpt lat="45.30949" lon="4.58864">
        <ele>643.20001220703</ele>
        <time>2026-05-11T13:40:43.000Z</time>
      </trkpt>
      <trkpt lat="45.3095" lon="4.5887">
        <ele>643.40002441406</ele>
        <time>2026-05-11T13:40:44.000Z</time>
      </trkpt>
      <trkpt lat="45.3095" lon="4.5887">
        <ele>643.59997558594</ele>
        <time>2026-05-11T13:40:45.000Z</time>
      </trkpt>
      <trkpt lat="45.30952" lon="4.5888">
        <ele>643.79998779297</ele>
        <time>2026-05-11T13:40:46.000Z</time>
      </trkpt>
      <trkpt lat="45.30953" lon="4.58885">
        <ele>643.79998779297</ele>
        <time>2026-05-11T13:40:47.000Z</time>
      </trkpt>
      <trkpt lat="45.30954" lon="4.5889">
        <ele>644</ele>
        <time>2026-05-11T13:40:48.000Z</time>
      </trkpt>
      <trkpt lat="45.30954" lon="4.58895">
        <ele>644.20001220703</ele>
        <time>2026-05-11T13:40:49.000Z</time>
      </trkpt>
      <trkpt lat="45.30955" lon="4.58901">
        <ele>644.20001220703</ele>
        <time>2026-05-11T13:40:50.000Z</time>
      </trkpt>
      <trkpt lat="45.30955" lon="4.58901">
        <ele>644.40002441406</ele>
        <time>2026-05-11T13:40:51.000Z</time>
      </trkpt>
      <trkpt lat="45.30955" lon="4.58912">
        <ele>644.40002441406</ele>
        <time>2026-05-11T13:40:52.000Z</time>
      </trkpt>
      <trkpt lat="45.30955" lon="4.58917">
        <ele>644.59997558594</ele>
        <time>2026-05-11T13:40:53.000Z</time>
      </trkpt>
      <trkpt lat="45.30954" lon="4.58923">
        <ele>644.79998779297</ele>
        <time>2026-05-11T13:40:54.000Z</time>
      </trkpt>
      <trkpt lat="45.30954" lon="4.58928">
        <ele>644.79998779297</ele>
        <time>2026-05-11T13:40:55.000Z</time>
      </trkpt>
      <trkpt lat="45.30953" lon="4.58933">
        <ele>645</ele>
        <time>2026-05-11T13:40:56.000Z</time>
      </trkpt>
      <trkpt lat="45.30953" lon="4.58933">
        <ele>645</ele>
        <time>2026-05-11T13:40:57.000Z</time>
      </trkpt>
      <trkpt lat="45.30953" lon="4.58938">
        <ele>645.20001220703</ele>
        <time>2026-05-11T13:40:58.000Z</time>
      </trkpt>
      <trkpt lat="45.30951" lon="4.58948">
        <ele>645.40002441406</ele>
        <time>2026-05-11T13:40:59.000Z</time>
      </trkpt>
      <trkpt lat="45.3095" lon="4.58953">
        <ele>645.40002441406</ele>
        <time>2026-05-11T13:41:00.000Z</time>
      </trkpt>
      <trkpt lat="45.3095" lon="4.58953">
        <ele>645.59997558594</ele>
        <time>2026-05-11T13:41:01.000Z</time>
      </trkpt>
      <trkpt lat="45.30948" lon="4.58959">
        <ele>645.59997558594</ele>
        <time>2026-05-11T13:41:02.000Z</time>
      </trkpt>
      <trkpt lat="45.30947" lon="4.58964">
        <ele>645.59997558594</ele>
        <time>2026-05-11T13:41:03.000Z</time>
      </trkpt>
      <trkpt lat="45.30943" lon="4.58973">
        <ele>645.79998779297</ele>
        <time>2026-05-11T13:41:04.000Z</time>
      </trkpt>
      <trkpt lat="45.30941" lon="4.58978">
        <ele>645.79998779297</ele>
        <time>2026-05-11T13:41:05.000Z</time>
      </trkpt>
      <trkpt lat="45.30939" lon="4.58983">
        <ele>646</ele>
        <time>2026-05-11T13:41:06.000Z</time>
      </trkpt>
      <trkpt lat="45.30936" lon="4.58988">
        <ele>646.20001220703</ele>
        <time>2026-05-11T13:41:07.000Z</time>
      </trkpt>
      <trkpt lat="45.30936" lon="4.58988">
        <ele>646.20001220703</ele>
        <time>2026-05-11T13:41:08.000Z</time>
      </trkpt>
      <trkpt lat="45.30934" lon="4.58992">
        <ele>646.40002441406</ele>
        <time>2026-05-11T13:41:09.000Z</time>
      </trkpt>
      <trkpt lat="45.30931" lon="4.58997">
        <ele>646.40002441406</ele>
        <time>2026-05-11T13:41:10.000Z</time>
      </trkpt>
      <trkpt lat="45.30926" lon="4.59007">
        <ele>646.59997558594</ele>
        <time>2026-05-11T13:41:11.000Z</time>
      </trkpt>
      <trkpt lat="45.30926" lon="4.59007">
        <ele>646.59997558594</ele>
        <time>2026-05-11T13:41:12.000Z</time>
      </trkpt>
      <trkpt lat="45.30924" lon="4.59012">
        <ele>646.79998779297</ele>
        <time>2026-05-11T13:41:13.000Z</time>
      </trkpt>
      <trkpt lat="45.30922" lon="4.59017">
        <ele>646.79998779297</ele>
        <time>2026-05-11T13:41:14.000Z</time>
      </trkpt>
      <trkpt lat="45.3092" lon="4.59022">
        <ele>646.79998779297</ele>
        <time>2026-05-11T13:41:15.000Z</time>
      </trkpt>
      <trkpt lat="45.30916" lon="4.59034">
        <ele>647</ele>
        <time>2026-05-11T13:41:16.000Z</time>
      </trkpt>
      <trkpt lat="45.30915" lon="4.5904">
        <ele>647</ele>
        <time>2026-05-11T13:41:17.000Z</time>
      </trkpt>
      <trkpt lat="45.30914" lon="4.59046">
        <ele>647.20001220703</ele>
        <time>2026-05-11T13:41:18.000Z</time>
      </trkpt>
      <trkpt lat="45.30913" lon="4.59052">
        <ele>647.40002441406</ele>
        <time>2026-05-11T13:41:19.000Z</time>
      </trkpt>
      <trkpt lat="45.30913" lon="4.59052">
        <ele>647.40002441406</ele>
        <time>2026-05-11T13:41:20.000Z</time>
      </trkpt>
      <trkpt lat="45.30913" lon="4.59057">
        <ele>647.59997558594</ele>
        <time>2026-05-11T13:41:21.000Z</time>
      </trkpt>
      <trkpt lat="45.30912" lon="4.59067">
        <ele>647.79998779297</ele>
        <time>2026-05-11T13:41:22.000Z</time>
      </trkpt>
      <trkpt lat="45.30912" lon="4.59073">
        <ele>648.20001220703</ele>
        <time>2026-05-11T13:41:23.000Z</time>
      </trkpt>
      <trkpt lat="45.30912" lon="4.59079">
        <ele>648.20001220703</ele>
        <time>2026-05-11T13:41:24.000Z</time>
      </trkpt>
      <trkpt lat="45.30913" lon="4.59085">
        <ele>648.40002441406</ele>
        <time>2026-05-11T13:41:25.000Z</time>
      </trkpt>
      <trkpt lat="45.30913" lon="4.59085">
        <ele>648.59997558594</ele>
        <time>2026-05-11T13:41:26.000Z</time>
      </trkpt>
      <trkpt lat="45.30913" lon="4.5909">
        <ele>648.79998779297</ele>
        <time>2026-05-11T13:41:27.000Z</time>
      </trkpt>
      <trkpt lat="45.30915" lon="4.59103">
        <ele>649</ele>
        <time>2026-05-11T13:41:28.000Z</time>
      </trkpt>
      <trkpt lat="45.30916" lon="4.59109">
        <ele>649</ele>
        <time>2026-05-11T13:41:29.000Z</time>
      </trkpt>
      <trkpt lat="45.30916" lon="4.59115">
        <ele>649.20001220703</ele>
        <time>2026-05-11T13:41:30.000Z</time>
      </trkpt>
      <trkpt lat="45.30917" lon="4.59121">
        <ele>649.40002441406</ele>
        <time>2026-05-11T13:41:31.000Z</time>
      </trkpt>
      <trkpt lat="45.30917" lon="4.59127">
        <ele>649.59997558594</ele>
        <time>2026-05-11T13:41:32.000Z</time>
      </trkpt>
      <trkpt lat="45.30917" lon="4.59127">
        <ele>649.59997558594</ele>
        <time>2026-05-11T13:41:33.000Z</time>
      </trkpt>
      <trkpt lat="45.30918" lon="4.59139">
        <ele>649.79998779297</ele>
        <time>2026-05-11T13:41:34.000Z</time>
      </trkpt>
      <trkpt lat="45.30919" lon="4.59145">
        <ele>650</ele>
        <time>2026-05-11T13:41:35.000Z</time>
      </trkpt>
      <trkpt lat="45.30919" lon="4.59145">
        <ele>650.20001220703</ele>
        <time>2026-05-11T13:41:36.000Z</time>
      </trkpt>
      <trkpt lat="45.30919" lon="4.59157">
        <ele>650.40002441406</ele>
        <time>2026-05-11T13:41:37.000Z</time>
      </trkpt>
      <trkpt lat="45.30919" lon="4.59157">
        <ele>650.40002441406</ele>
        <time>2026-05-11T13:41:38.000Z</time>
      </trkpt>
      <trkpt lat="45.3092" lon="4.59163">
        <ele>650.59997558594</ele>
        <time>2026-05-11T13:41:39.000Z</time>
      </trkpt>
      <trkpt lat="45.30919" lon="4.59175">
        <ele>650.79998779297</ele>
        <time>2026-05-11T13:41:40.000Z</time>
      </trkpt>
      <trkpt lat="45.30919" lon="4.59181">
        <ele>651</ele>
        <time>2026-05-11T13:41:41.000Z</time>
      </trkpt>
      <trkpt lat="45.30918" lon="4.59187">
        <ele>651</ele>
        <time>2026-05-11T13:41:42.000Z</time>
      </trkpt>
      <trkpt lat="45.30918" lon="4.59187">
        <ele>651.20001220703</ele>
        <time>2026-05-11T13:41:43.000Z</time>
      </trkpt>
      <trkpt lat="45.30916" lon="4.59199">
        <ele>651.40002441406</ele>
        <time>2026-05-11T13:41:44.000Z</time>
      </trkpt>
      <trkpt lat="45.30916" lon="4.59199">
        <ele>651.59997558594</ele>
        <time>2026-05-11T13:41:45.000Z</time>
      </trkpt>
      <trkpt lat="45.30914" lon="4.59212">
        <ele>651.79998779297</ele>
        <time>2026-05-11T13:41:46.000Z</time>
      </trkpt>
      <trkpt lat="45.30913" lon="4.59218">
        <ele>652</ele>
        <time>2026-05-11T13:41:47.000Z</time>
      </trkpt>
      <trkpt lat="45.30913" lon="4.59223">
        <ele>652</ele>
        <time>2026-05-11T13:41:48.000Z</time>
      </trkpt>
      <trkpt lat="45.30913" lon="4.59223">
        <ele>652.20001220703</ele>
        <time>2026-05-11T13:41:49.000Z</time>
      </trkpt>
      <trkpt lat="45.30911" lon="4.59235">
        <ele>652.40002441406</ele>
        <time>2026-05-11T13:41:50.000Z</time>
      </trkpt>
      <trkpt lat="45.30911" lon="4.59235">
        <ele>652.59997558594</ele>
        <time>2026-05-11T13:41:51.000Z</time>
      </trkpt>
      <trkpt lat="45.30909" lon="4.59248">
        <ele>652.59997558594</ele>
        <time>2026-05-11T13:41:52.000Z</time>
      </trkpt>
      <trkpt lat="45.30908" lon="4.59254">
        <ele>652.79998779297</ele>
        <time>2026-05-11T13:41:53.000Z</time>
      </trkpt>
      <trkpt lat="45.30907" lon="4.5926">
        <ele>653</ele>
        <time>2026-05-11T13:41:54.000Z</time>
      </trkpt>
      <trkpt lat="45.30906" lon="4.59266">
        <ele>653.20001220703</ele>
        <time>2026-05-11T13:41:55.000Z</time>
      </trkpt>
      <trkpt lat="45.30906" lon="4.59271">
        <ele>653.40002441406</ele>
        <time>2026-05-11T13:41:56.000Z</time>
      </trkpt>
      <trkpt lat="45.30906" lon="4.59271">
        <ele>653.59997558594</ele>
        <time>2026-05-11T13:41:57.000Z</time>
      </trkpt>
      <trkpt lat="45.30904" lon="4.59282">
        <ele>653.59997558594</ele>
        <time>2026-05-11T13:41:58.000Z</time>
      </trkpt>
      <trkpt lat="45.30903" lon="4.59288">
        <ele>653.79998779297</ele>
        <time>2026-05-11T13:41:59.000Z</time>
      </trkpt>
      <trkpt lat="45.30902" lon="4.59295">
        <ele>654</ele>
        <time>2026-05-11T13:42:00.000Z</time>
      </trkpt>
      <trkpt lat="45.30901" lon="4.59301">
        <ele>654.20001220703</ele>
        <time>2026-05-11T13:42:01.000Z</time>
      </trkpt>
      <trkpt lat="45.30901" lon="4.59301">
        <ele>654.20001220703</ele>
        <time>2026-05-11T13:42:02.000Z</time>
      </trkpt>
      <trkpt lat="45.309" lon="4.59307">
        <ele>654.40002441406</ele>
        <time>2026-05-11T13:42:03.000Z</time>
      </trkpt>
      <trkpt lat="45.30898" lon="4.59319">
        <ele>654.40002441406</ele>
        <time>2026-05-11T13:42:04.000Z</time>
      </trkpt>
      <trkpt lat="45.30897" lon="4.59325">
        <ele>654.59997558594</ele>
        <time>2026-05-11T13:42:05.000Z</time>
      </trkpt>
      <trkpt lat="45.30897" lon="4.59331">
        <ele>654.59997558594</ele>
        <time>2026-05-11T13:42:06.000Z</time>
      </trkpt>
      <trkpt lat="45.30896" lon="4.59338">
        <ele>654.79998779297</ele>
        <time>2026-05-11T13:42:07.000Z</time>
      </trkpt>
      <trkpt lat="45.30896" lon="4.59338">
        <ele>654.79998779297</ele>
        <time>2026-05-11T13:42:08.000Z</time>
      </trkpt>
      <trkpt lat="45.30896" lon="4.59344">
        <ele>655</ele>
        <time>2026-05-11T13:42:09.000Z</time>
      </trkpt>
      <trkpt lat="45.30896" lon="4.59357">
        <ele>655</ele>
        <time>2026-05-11T13:42:10.000Z</time>
      </trkpt>
      <trkpt lat="45.30897" lon="4.59363">
        <ele>655.20001220703</ele>
        <time>2026-05-11T13:42:11.000Z</time>
      </trkpt>
      <trkpt lat="45.30898" lon="4.59369">
        <ele>655.40002441406</ele>
        <time>2026-05-11T13:42:12.000Z</time>
      </trkpt>
      <trkpt lat="45.30898" lon="4.59374">
        <ele>655.40002441406</ele>
        <time>2026-05-11T13:42:13.000Z</time>
      </trkpt>
      <trkpt lat="45.30898" lon="4.59374">
        <ele>655.59997558594</ele>
        <time>2026-05-11T13:42:14.000Z</time>
      </trkpt>
      <trkpt lat="45.30899" lon="4.5938">
        <ele>655.79998779297</ele>
        <time>2026-05-11T13:42:15.000Z</time>
      </trkpt>
      <trkpt lat="45.30902" lon="4.59392">
        <ele>656</ele>
        <time>2026-05-11T13:42:16.000Z</time>
      </trkpt>
      <trkpt lat="45.30903" lon="4.59398">
        <ele>656.20001220703</ele>
        <time>2026-05-11T13:42:17.000Z</time>
      </trkpt>
      <trkpt lat="45.30905" lon="4.59404">
        <ele>656.20001220703</ele>
        <time>2026-05-11T13:42:18.000Z</time>
      </trkpt>
      <trkpt lat="45.30905" lon="4.59404">
        <ele>656.40002441406</ele>
        <time>2026-05-11T13:42:19.000Z</time>
      </trkpt>
      <trkpt lat="45.30907" lon="4.59409">
        <ele>656.59997558594</ele>
        <time>2026-05-11T13:42:20.000Z</time>
      </trkpt>
      <trkpt lat="45.30909" lon="4.59415">
        <ele>656.79998779297</ele>
        <time>2026-05-11T13:42:21.000Z</time>
      </trkpt>
      <trkpt lat="45.30914" lon="4.59425">
        <ele>657</ele>
        <time>2026-05-11T13:42:22.000Z</time>
      </trkpt>
      <trkpt lat="45.30914" lon="4.59425">
        <ele>657.20001220703</ele>
        <time>2026-05-11T13:42:23.000Z</time>
      </trkpt>
      <trkpt lat="45.30916" lon="4.59431">
        <ele>657.40002441406</ele>
        <time>2026-05-11T13:42:24.000Z</time>
      </trkpt>
      <trkpt lat="45.30919" lon="4.59436">
        <ele>657.59997558594</ele>
        <time>2026-05-11T13:42:25.000Z</time>
      </trkpt>
      <trkpt lat="45.30921" lon="4.59441">
        <ele>657.79998779297</ele>
        <time>2026-05-11T13:42:26.000Z</time>
      </trkpt>
      <trkpt lat="45.30926" lon="4.59451">
        <ele>658</ele>
        <time>2026-05-11T13:42:27.000Z</time>
      </trkpt>
      <trkpt lat="45.30929" lon="4.59456">
        <ele>658.20001220703</ele>
        <time>2026-05-11T13:42:28.000Z</time>
      </trkpt>
      <trkpt lat="45.30932" lon="4.59461">
        <ele>658.40002441406</ele>
        <time>2026-05-11T13:42:29.000Z</time>
      </trkpt>
      <trkpt lat="45.30934" lon="4.59466">
        <ele>658.40002441406</ele>
        <time>2026-05-11T13:42:30.000Z</time>
      </trkpt>
      <trkpt lat="45.30937" lon="4.59471">
        <ele>658.59997558594</ele>
        <time>2026-05-11T13:42:31.000Z</time>
      </trkpt>
      <trkpt lat="45.30937" lon="4.59471">
        <ele>658.79998779297</ele>
        <time>2026-05-11T13:42:32.000Z</time>
      </trkpt>
      <trkpt lat="45.30942" lon="4.59481">
        <ele>658.79998779297</ele>
        <time>2026-05-11T13:42:33.000Z</time>
      </trkpt>
      <trkpt lat="45.30945" lon="4.59486">
        <ele>659</ele>
        <time>2026-05-11T13:42:34.000Z</time>
      </trkpt>
      <trkpt lat="45.30945" lon="4.59486">
        <ele>659.20001220703</ele>
        <time>2026-05-11T13:42:35.000Z</time>
      </trkpt>
      <trkpt lat="45.30947" lon="4.59491">
        <ele>659.20001220703</ele>
        <time>2026-05-11T13:42:36.000Z</time>
      </trkpt>
      <trkpt lat="45.30953" lon="4.59501">
        <ele>659.40002441406</ele>
        <time>2026-05-11T13:42:37.000Z</time>
      </trkpt>
      <trkpt lat="45.30953" lon="4.59501">
        <ele>659.59997558594</ele>
        <time>2026-05-11T13:42:38.000Z</time>
      </trkpt>
      <trkpt lat="45.30957" lon="4.59512">
        <ele>659.79998779297</ele>
        <time>2026-05-11T13:42:39.000Z</time>
      </trkpt>
      <trkpt lat="45.30959" lon="4.59518">
        <ele>660</ele>
        <time>2026-05-11T13:42:40.000Z</time>
      </trkpt>
      <trkpt lat="45.30961" lon="4.59524">
        <ele>660</ele>
        <time>2026-05-11T13:42:41.000Z</time>
      </trkpt>
      <trkpt lat="45.30963" lon="4.59529">
        <ele>660.20001220703</ele>
        <time>2026-05-11T13:42:42.000Z</time>
      </trkpt>
      <trkpt lat="45.30963" lon="4.59529">
        <ele>660.40002441406</ele>
        <time>2026-05-11T13:42:43.000Z</time>
      </trkpt>
      <trkpt lat="45.30966" lon="4.59541">
        <ele>660.40002441406</ele>
        <time>2026-05-11T13:42:44.000Z</time>
      </trkpt>
      <trkpt lat="45.30968" lon="4.59547">
        <ele>660.59997558594</ele>
        <time>2026-05-11T13:42:45.000Z</time>
      </trkpt>
      <trkpt lat="45.30969" lon="4.59552">
        <ele>660.79998779297</ele>
        <time>2026-05-11T13:42:46.000Z</time>
      </trkpt>
      <trkpt lat="45.30971" lon="4.59558">
        <ele>661</ele>
        <time>2026-05-11T13:42:47.000Z</time>
      </trkpt>
      <trkpt lat="45.30973" lon="4.59563">
        <ele>661.40002441406</ele>
        <time>2026-05-11T13:42:48.000Z</time>
      </trkpt>
      <trkpt lat="45.30973" lon="4.59563">
        <ele>661.59997558594</ele>
        <time>2026-05-11T13:42:49.000Z</time>
      </trkpt>
      <trkpt lat="45.30975" lon="4.59569">
        <ele>661.79998779297</ele>
        <time>2026-05-11T13:42:50.000Z</time>
      </trkpt>
      <trkpt lat="45.30977" lon="4.59579">
        <ele>662</ele>
        <time>2026-05-11T13:42:51.000Z</time>
      </trkpt>
      <trkpt lat="45.30979" lon="4.59583">
        <ele>662.40002441406</ele>
        <time>2026-05-11T13:42:52.000Z</time>
      </trkpt>
      <trkpt lat="45.3098" lon="4.59588">
        <ele>662.59997558594</ele>
        <time>2026-05-11T13:42:53.000Z</time>
      </trkpt>
      <trkpt lat="45.30982" lon="4.59593">
        <ele>662.79998779297</ele>
        <time>2026-05-11T13:42:54.000Z</time>
      </trkpt>
      <trkpt lat="45.30983" lon="4.59599">
        <ele>663.20001220703</ele>
        <time>2026-05-11T13:42:55.000Z</time>
      </trkpt>
      <trkpt lat="45.30985" lon="4.59604">
        <ele>663.40002441406</ele>
        <time>2026-05-11T13:42:56.000Z</time>
      </trkpt>
      <trkpt lat="45.30987" lon="4.59609">
        <ele>663.59997558594</ele>
        <time>2026-05-11T13:42:57.000Z</time>
      </trkpt>
      <trkpt lat="45.30988" lon="4.59614">
        <ele>663.79998779297</ele>
        <time>2026-05-11T13:42:58.000Z</time>
      </trkpt>
      <trkpt lat="45.3099" lon="4.5962">
        <ele>664</ele>
        <time>2026-05-11T13:42:59.000Z</time>
      </trkpt>
      <trkpt lat="45.30991" lon="4.59625">
        <ele>664.20001220703</ele>
        <time>2026-05-11T13:43:00.000Z</time>
      </trkpt>
      <trkpt lat="45.30993" lon="4.59631">
        <ele>664.40002441406</ele>
        <time>2026-05-11T13:43:01.000Z</time>
      </trkpt>
      <trkpt lat="45.30993" lon="4.59631">
        <ele>664.59997558594</ele>
        <time>2026-05-11T13:43:02.000Z</time>
      </trkpt>
      <trkpt lat="45.30997" lon="4.59642">
        <ele>664.79998779297</ele>
        <time>2026-05-11T13:43:03.000Z</time>
      </trkpt>
      <trkpt lat="45.30998" lon="4.59648">
        <ele>665</ele>
        <time>2026-05-11T13:43:04.000Z</time>
      </trkpt>
      <trkpt lat="45.30998" lon="4.59648">
        <ele>665.20001220703</ele>
        <time>2026-05-11T13:43:05.000Z</time>
      </trkpt>
      <trkpt lat="45.31" lon="4.59659">
        <ele>665.40002441406</ele>
        <time>2026-05-11T13:43:06.000Z</time>
      </trkpt>
      <trkpt lat="45.31001" lon="4.59665">
        <ele>665.59997558594</ele>
        <time>2026-05-11T13:43:07.000Z</time>
      </trkpt>
      <trkpt lat="45.31001" lon="4.59665">
        <ele>666</ele>
        <time>2026-05-11T13:43:08.000Z</time>
      </trkpt>
      <trkpt lat="45.31002" lon="4.59671">
        <ele>666.20001220703</ele>
        <time>2026-05-11T13:43:09.000Z</time>
      </trkpt>
      <trkpt lat="45.31004" lon="4.59682">
        <ele>666.40002441406</ele>
        <time>2026-05-11T13:43:10.000Z</time>
      </trkpt>
      <trkpt lat="45.31004" lon="4.59688">
        <ele>666.59997558594</ele>
        <time>2026-05-11T13:43:11.000Z</time>
      </trkpt>
      <trkpt lat="45.31005" lon="4.59693">
        <ele>666.79998779297</ele>
        <time>2026-05-11T13:43:12.000Z</time>
      </trkpt>
      <trkpt lat="45.31005" lon="4.59693">
        <ele>667</ele>
        <time>2026-05-11T13:43:13.000Z</time>
      </trkpt>
      <trkpt lat="45.31005" lon="4.59698">
        <ele>667.20001220703</ele>
        <time>2026-05-11T13:43:14.000Z</time>
      </trkpt>
      <trkpt lat="45.31006" lon="4.59708">
        <ele>667.40002441406</ele>
        <time>2026-05-11T13:43:15.000Z</time>
      </trkpt>
      <trkpt lat="45.31007" lon="4.59714">
        <ele>667.59997558594</ele>
        <time>2026-05-11T13:43:16.000Z</time>
      </trkpt>
      <trkpt lat="45.31007" lon="4.59719">
        <ele>668</ele>
        <time>2026-05-11T13:43:17.000Z</time>
      </trkpt>
      <trkpt lat="45.31007" lon="4.59719">
        <ele>668</ele>
        <time>2026-05-11T13:43:18.000Z</time>
      </trkpt>
      <trkpt lat="45.31008" lon="4.59725">
        <ele>668.40002441406</ele>
        <time>2026-05-11T13:43:19.000Z</time>
      </trkpt>
      <trkpt lat="45.31008" lon="4.5973">
        <ele>668.59997558594</ele>
        <time>2026-05-11T13:43:20.000Z</time>
      </trkpt>
      <trkpt lat="45.31008" lon="4.59736">
        <ele>668.79998779297</ele>
        <time>2026-05-11T13:43:21.000Z</time>
      </trkpt>
      <trkpt lat="45.31009" lon="4.59747">
        <ele>669.20001220703</ele>
        <time>2026-05-11T13:43:22.000Z</time>
      </trkpt>
      <trkpt lat="45.31009" lon="4.59747">
        <ele>669.40002441406</ele>
        <time>2026-05-11T13:43:23.000Z</time>
      </trkpt>
      <trkpt lat="45.31009" lon="4.59753">
        <ele>669.59997558594</ele>
        <time>2026-05-11T13:43:24.000Z</time>
      </trkpt>
      <trkpt lat="45.3101" lon="4.59758">
        <ele>669.79998779297</ele>
        <time>2026-05-11T13:43:25.000Z</time>
      </trkpt>
      <trkpt lat="45.3101" lon="4.59764">
        <ele>670.20001220703</ele>
        <time>2026-05-11T13:43:26.000Z</time>
      </trkpt>
      <trkpt lat="45.31011" lon="4.5977">
        <ele>670.40002441406</ele>
        <time>2026-05-11T13:43:27.000Z</time>
      </trkpt>
      <trkpt lat="45.31011" lon="4.59775">
        <ele>670.59997558594</ele>
        <time>2026-05-11T13:43:28.000Z</time>
      </trkpt>
      <trkpt lat="45.31011" lon="4.59779">
        <ele>670.79998779297</ele>
        <time>2026-05-11T13:43:29.000Z</time>
      </trkpt>
      <trkpt lat="45.31011" lon="4.59783">
        <ele>671</ele>
        <time>2026-05-11T13:43:30.000Z</time>
      </trkpt>
      <trkpt lat="45.31012" lon="4.59792">
        <ele>671.20001220703</ele>
        <time>2026-05-11T13:43:31.000Z</time>
      </trkpt>
      <trkpt lat="45.31012" lon="4.59792">
        <ele>671.40002441406</ele>
        <time>2026-05-11T13:43:32.000Z</time>
      </trkpt>
      <trkpt lat="45.31012" lon="4.59802">
        <ele>671.59997558594</ele>
        <time>2026-05-11T13:43:33.000Z</time>
      </trkpt>
      <trkpt lat="45.31013" lon="4.59806">
        <ele>671.79998779297</ele>
        <time>2026-05-11T13:43:34.000Z</time>
      </trkpt>
      <trkpt lat="45.31013" lon="4.59809">
        <ele>671.79998779297</ele>
        <time>2026-05-11T13:43:35.000Z</time>
      </trkpt>
      <trkpt lat="45.31013" lon="4.59809">
        <ele>672</ele>
        <time>2026-05-11T13:43:36.000Z</time>
      </trkpt>
      <trkpt lat="45.31014" lon="4.59814">
        <ele>672.20001220703</ele>
        <time>2026-05-11T13:43:37.000Z</time>
      </trkpt>
      <trkpt lat="45.31014" lon="4.59814">
        <ele>672.40002441406</ele>
        <time>2026-05-11T13:43:38.000Z</time>
      </trkpt>
      <trkpt lat="45.31014" lon="4.59818">
        <ele>672.59997558594</ele>
        <time>2026-05-11T13:43:39.000Z</time>
      </trkpt>
      <trkpt lat="45.31015" lon="4.59824">
        <ele>672.59997558594</ele>
        <time>2026-05-11T13:43:40.000Z</time>
      </trkpt>
      <trkpt lat="45.31015" lon="4.59824">
        <ele>672.79998779297</ele>
        <time>2026-05-11T13:43:41.000Z</time>
      </trkpt>
      <trkpt lat="45.31016" lon="4.59827">
        <ele>672.79998779297</ele>
        <time>2026-05-11T13:43:42.000Z</time>
      </trkpt>
      <trkpt lat="45.31018" lon="4.59834">
        <ele>672.79998779297</ele>
        <time>2026-05-11T13:43:43.000Z</time>
      </trkpt>
      <trkpt lat="45.31018" lon="4.59834">
        <ele>673</ele>
        <time>2026-05-11T13:43:44.000Z</time>
      </trkpt>
      <trkpt lat="45.31019" lon="4.59841">
        <ele>673</ele>
        <time>2026-05-11T13:43:45.000Z</time>
      </trkpt>
      <trkpt lat="45.31019" lon="4.59841">
        <ele>673</ele>
        <time>2026-05-11T13:43:46.000Z</time>
      </trkpt>
      <trkpt lat="45.3102" lon="4.59843">
        <ele>673.20001220703</ele>
        <time>2026-05-11T13:43:47.000Z</time>
      </trkpt>
      <trkpt lat="45.31021" lon="4.59846">
        <ele>673.20001220703</ele>
        <time>2026-05-11T13:43:48.000Z</time>
      </trkpt>
      <trkpt lat="45.31023" lon="4.5985">
        <ele>673.20001220703</ele>
        <time>2026-05-11T13:43:49.000Z</time>
      </trkpt>
      <trkpt lat="45.31023" lon="4.5985">
        <ele>673.20001220703</ele>
        <time>2026-05-11T13:43:50.000Z</time>
      </trkpt>
      <trkpt lat="45.31025" lon="4.59852">
        <ele>673.20001220703</ele>
        <time>2026-05-11T13:43:51.000Z</time>
      </trkpt>
      <trkpt lat="45.31026" lon="4.59854">
        <ele>673.40002441406</ele>
        <time>2026-05-11T13:43:52.000Z</time>
      </trkpt>
      <trkpt lat="45.31027" lon="4.59856">
        <ele>673.40002441406</ele>
        <time>2026-05-11T13:43:53.000Z</time>
      </trkpt>
      <trkpt lat="45.31028" lon="4.59857">
        <ele>673.40002441406</ele>
        <time>2026-05-11T13:43:54.000Z</time>
      </trkpt>
      <trkpt lat="45.31031" lon="4.59861">
        <ele>673.40002441406</ele>
        <time>2026-05-11T13:43:55.000Z</time>
      </trkpt>
      <trkpt lat="45.31031" lon="4.59861">
        <ele>673.59997558594</ele>
        <time>2026-05-11T13:43:56.000Z</time>
      </trkpt>
      <trkpt lat="45.31032" lon="4.59863">
        <ele>673.59997558594</ele>
        <time>2026-05-11T13:43:57.000Z</time>
      </trkpt>
      <trkpt lat="45.31034" lon="4.59865">
        <ele>673.40002441406</ele>
        <time>2026-05-11T13:43:58.000Z</time>
      </trkpt>
      <trkpt lat="45.31037" lon="4.59867">
        <ele>673.40002441406</ele>
        <time>2026-05-11T13:43:59.000Z</time>
      </trkpt>
      <trkpt lat="45.3104" lon="4.59868">
        <ele>673.40002441406</ele>
        <time>2026-05-11T13:44:00.000Z</time>
      </trkpt>
      <trkpt lat="45.31043" lon="4.59867">
        <ele>673.20001220703</ele>
        <time>2026-05-11T13:44:01.000Z</time>
      </trkpt>
      <trkpt lat="45.31046" lon="4.59866">
        <ele>673</ele>
        <time>2026-05-11T13:44:02.000Z</time>
      </trkpt>
      <trkpt lat="45.31053" lon="4.5986">
        <ele>672.79998779297</ele>
        <time>2026-05-11T13:44:03.000Z</time>
      </trkpt>
      <trkpt lat="45.31056" lon="4.59856">
        <ele>672.59997558594</ele>
        <time>2026-05-11T13:44:04.000Z</time>
      </trkpt>
      <trkpt lat="45.31056" lon="4.59856">
        <ele>672.40002441406</ele>
        <time>2026-05-11T13:44:05.000Z</time>
      </trkpt>
      <trkpt lat="45.31058" lon="4.59853">
        <ele>672.40002441406</ele>
        <time>2026-05-11T13:44:06.000Z</time>
      </trkpt>
      <trkpt lat="45.3106" lon="4.59851">
        <ele>672.40002441406</ele>
        <time>2026-05-11T13:44:07.000Z</time>
      </trkpt>
      <trkpt lat="45.31062" lon="4.59849">
        <ele>672.59997558594</ele>
        <time>2026-05-11T13:44:08.000Z</time>
      </trkpt>
      <trkpt lat="45.31066" lon="4.59845">
        <ele>672.59997558594</ele>
        <time>2026-05-11T13:44:09.000Z</time>
      </trkpt>
      <trkpt lat="45.31069" lon="4.59842">
        <ele>672.79998779297</ele>
        <time>2026-05-11T13:44:10.000Z</time>
      </trkpt>
      <trkpt lat="45.31069" lon="4.59842">
        <ele>673</ele>
        <time>2026-05-11T13:44:11.000Z</time>
      </trkpt>
      <trkpt lat="45.31071" lon="4.5984">
        <ele>673</ele>
        <time>2026-05-11T13:44:12.000Z</time>
      </trkpt>
      <trkpt lat="45.31072" lon="4.59838">
        <ele>673.20001220703</ele>
        <time>2026-05-11T13:44:13.000Z</time>
      </trkpt>
      <trkpt lat="45.31073" lon="4.59835">
        <ele>673.20001220703</ele>
        <time>2026-05-11T13:44:14.000Z</time>
      </trkpt>
      <trkpt lat="45.31074" lon="4.59835">
        <ele>673.40002441406</ele>
        <time>2026-05-11T13:44:15.000Z</time>
      </trkpt>
      <trkpt lat="45.31074" lon="4.59835">
        <ele>673.59997558594</ele>
        <time>2026-05-11T13:44:16.000Z</time>
      </trkpt>
      <trkpt lat="45.31086" lon="4.59819">
        <ele>673.79998779297</ele>
        <time>2026-05-11T13:52:30.000Z</time>
      </trkpt>
      <trkpt lat="45.31088" lon="4.59816">
        <ele>673.79998779297</ele>
        <time>2026-05-11T13:52:31.000Z</time>
      </trkpt>
      <trkpt lat="45.3109" lon="4.59813">
        <ele>673.79998779297</ele>
        <time>2026-05-11T13:52:32.000Z</time>
      </trkpt>
      <trkpt lat="45.3109" lon="4.59813">
        <ele>673.79998779297</ele>
        <time>2026-05-11T13:52:33.000Z</time>
      </trkpt>
      <trkpt lat="45.31094" lon="4.59808">
        <ele>673.79998779297</ele>
        <time>2026-05-11T13:52:34.000Z</time>
      </trkpt>
      <trkpt lat="45.31094" lon="4.59808">
        <ele>673.79998779297</ele>
        <time>2026-05-11T13:52:35.000Z</time>
      </trkpt>
      <trkpt lat="45.31099" lon="4.59802">
        <ele>673.79998779297</ele>
        <time>2026-05-11T13:52:36.000Z</time>
      </trkpt>
      <trkpt lat="45.31102" lon="4.59798">
        <ele>673.79998779297</ele>
        <time>2026-05-11T13:52:37.000Z</time>
      </trkpt>
      <trkpt lat="45.31102" lon="4.59798">
        <ele>673.79998779297</ele>
        <time>2026-05-11T13:52:38.000Z</time>
      </trkpt>
      <trkpt lat="45.31107" lon="4.59791">
        <ele>673.79998779297</ele>
        <time>2026-05-11T13:52:39.000Z</time>
      </trkpt>
      <trkpt lat="45.3111" lon="4.59787">
        <ele>673.79998779297</ele>
        <time>2026-05-11T13:52:40.000Z</time>
      </trkpt>
      <trkpt lat="45.31113" lon="4.59784">
        <ele>673.59997558594</ele>
        <time>2026-05-11T13:52:41.000Z</time>
      </trkpt>
      <trkpt lat="45.31115" lon="4.5978">
        <ele>673.59997558594</ele>
        <time>2026-05-11T13:52:42.000Z</time>
      </trkpt>
      <trkpt lat="45.31115" lon="4.5978">
        <ele>673.59997558594</ele>
        <time>2026-05-11T13:52:43.000Z</time>
      </trkpt>
      <trkpt lat="45.31121" lon="4.59773">
        <ele>673.59997558594</ele>
        <time>2026-05-11T13:52:44.000Z</time>
      </trkpt>
      <trkpt lat="45.31123" lon="4.5977">
        <ele>673.59997558594</ele>
        <time>2026-05-11T13:52:45.000Z</time>
      </trkpt>
      <trkpt lat="45.31126" lon="4.59767">
        <ele>673.59997558594</ele>
        <time>2026-05-11T13:52:46.000Z</time>
      </trkpt>
      <trkpt lat="45.31126" lon="4.59767">
        <ele>673.59997558594</ele>
        <time>2026-05-11T13:52:47.000Z</time>
      </trkpt>
      <trkpt lat="45.31129" lon="4.59763">
        <ele>673.59997558594</ele>
        <time>2026-05-11T13:52:48.000Z</time>
      </trkpt>
      <trkpt lat="45.31134" lon="4.59756">
        <ele>673.59997558594</ele>
        <time>2026-05-11T13:52:49.000Z</time>
      </trkpt>
      <trkpt lat="45.31137" lon="4.59753">
        <ele>673.59997558594</ele>
        <time>2026-05-11T13:52:50.000Z</time>
      </trkpt>
      <trkpt lat="45.3114" lon="4.59749">
        <ele>673.59997558594</ele>
        <time>2026-05-11T13:52:51.000Z</time>
      </trkpt>
      <trkpt lat="45.3114" lon="4.59749">
        <ele>673.59997558594</ele>
        <time>2026-05-11T13:52:52.000Z</time>
      </trkpt>
      <trkpt lat="45.31143" lon="4.59746">
        <ele>673.59997558594</ele>
        <time>2026-05-11T13:52:53.000Z</time>
      </trkpt>
      <trkpt lat="45.31149" lon="4.59738">
        <ele>673.59997558594</ele>
        <time>2026-05-11T13:52:54.000Z</time>
      </trkpt>
      <trkpt lat="45.31151" lon="4.59735">
        <ele>673.59997558594</ele>
        <time>2026-05-11T13:52:55.000Z</time>
      </trkpt>
      <trkpt lat="45.31154" lon="4.59731">
        <ele>673.59997558594</ele>
        <time>2026-05-11T13:52:56.000Z</time>
      </trkpt>
      <trkpt lat="45.31157" lon="4.59728">
        <ele>673.59997558594</ele>
        <time>2026-05-11T13:52:57.000Z</time>
      </trkpt>
      <trkpt lat="45.31157" lon="4.59728">
        <ele>673.40002441406</ele>
        <time>2026-05-11T13:52:58.000Z</time>
      </trkpt>
      <trkpt lat="45.31162" lon="4.59721">
        <ele>673.40002441406</ele>
        <time>2026-05-11T13:52:59.000Z</time>
      </trkpt>
      <trkpt lat="45.31162" lon="4.59721">
        <ele>673.40002441406</ele>
        <time>2026-05-11T13:53:00.000Z</time>
      </trkpt>
      <trkpt lat="45.31168" lon="4.59713">
        <ele>673.40002441406</ele>
        <time>2026-05-11T13:53:01.000Z</time>
      </trkpt>
      <trkpt lat="45.31168" lon="4.59713">
        <ele>673.40002441406</ele>
        <time>2026-05-11T13:53:02.000Z</time>
      </trkpt>
      <trkpt lat="45.31173" lon="4.59706">
        <ele>673.40002441406</ele>
        <time>2026-05-11T13:53:03.000Z</time>
      </trkpt>
      <trkpt lat="45.31176" lon="4.59703">
        <ele>673.59997558594</ele>
        <time>2026-05-11T13:53:04.000Z</time>
      </trkpt>
      <trkpt lat="45.31178" lon="4.597">
        <ele>673.59997558594</ele>
        <time>2026-05-11T13:53:05.000Z</time>
      </trkpt>
      <trkpt lat="45.31178" lon="4.597">
        <ele>673.59997558594</ele>
        <time>2026-05-11T13:53:06.000Z</time>
      </trkpt>
      <trkpt lat="45.31184" lon="4.59694">
        <ele>673.59997558594</ele>
        <time>2026-05-11T13:53:07.000Z</time>
      </trkpt>
      <trkpt lat="45.31186" lon="4.59691">
        <ele>673.59997558594</ele>
        <time>2026-05-11T13:53:08.000Z</time>
      </trkpt>
      <trkpt lat="45.31189" lon="4.59687">
        <ele>673.59997558594</ele>
        <time>2026-05-11T13:53:09.000Z</time>
      </trkpt>
      <trkpt lat="45.31192" lon="4.59684">
        <ele>673.59997558594</ele>
        <time>2026-05-11T13:53:10.000Z</time>
      </trkpt>
      <trkpt lat="45.31194" lon="4.59679">
        <ele>673.59997558594</ele>
        <time>2026-05-11T13:53:11.000Z</time>
      </trkpt>
      <trkpt lat="45.31198" lon="4.59676">
        <ele>673.59997558594</ele>
        <time>2026-05-11T13:53:12.000Z</time>
      </trkpt>
      <trkpt lat="45.31201" lon="4.59672">
        <ele>673.59997558594</ele>
        <time>2026-05-11T13:53:13.000Z</time>
      </trkpt>
      <trkpt lat="45.31204" lon="4.59668">
        <ele>673.59997558594</ele>
        <time>2026-05-11T13:53:14.000Z</time>
      </trkpt>
      <trkpt lat="45.31207" lon="4.59663">
        <ele>673.40002441406</ele>
        <time>2026-05-11T13:53:15.000Z</time>
      </trkpt>
      <trkpt lat="45.31207" lon="4.59663">
        <ele>673.40002441406</ele>
        <time>2026-05-11T13:53:16.000Z</time>
      </trkpt>
      <trkpt lat="45.31213" lon="4.59656">
        <ele>673.40002441406</ele>
        <time>2026-05-11T13:53:17.000Z</time>
      </trkpt>
      <trkpt lat="45.31216" lon="4.59653">
        <ele>673.40002441406</ele>
        <time>2026-05-11T13:53:18.000Z</time>
      </trkpt>
      <trkpt lat="45.31218" lon="4.59649">
        <ele>673.40002441406</ele>
        <time>2026-05-11T13:53:19.000Z</time>
      </trkpt>
      <trkpt lat="45.31221" lon="4.59645">
        <ele>673.40002441406</ele>
        <time>2026-05-11T13:53:20.000Z</time>
      </trkpt>
      <trkpt lat="45.31221" lon="4.59645">
        <ele>673.40002441406</ele>
        <time>2026-05-11T13:53:21.000Z</time>
      </trkpt>
      <trkpt lat="45.31226" lon="4.59637">
        <ele>673.40002441406</ele>
        <time>2026-05-11T13:53:22.000Z</time>
      </trkpt>
      <trkpt lat="45.31226" lon="4.59637">
        <ele>673.40002441406</ele>
        <time>2026-05-11T13:53:23.000Z</time>
      </trkpt>
      <trkpt lat="45.31229" lon="4.59633">
        <ele>673.40002441406</ele>
        <time>2026-05-11T13:53:24.000Z</time>
      </trkpt>
      <trkpt lat="45.31236" lon="4.59626">
        <ele>673.40002441406</ele>
        <time>2026-05-11T13:53:25.000Z</time>
      </trkpt>
      <trkpt lat="45.31236" lon="4.59626">
        <ele>673.40002441406</ele>
        <time>2026-05-11T13:53:26.000Z</time>
      </trkpt>
      <trkpt lat="45.31241" lon="4.59619">
        <ele>673.40002441406</ele>
        <time>2026-05-11T13:53:27.000Z</time>
      </trkpt>
      <trkpt lat="45.31241" lon="4.59619">
        <ele>673.40002441406</ele>
        <time>2026-05-11T13:53:28.000Z</time>
      </trkpt>
      <trkpt lat="45.31244" lon="4.59616">
        <ele>673.40002441406</ele>
        <time>2026-05-11T13:53:29.000Z</time>
      </trkpt>
      <trkpt lat="45.31251" lon="4.59608">
        <ele>673.40002441406</ele>
        <time>2026-05-11T13:53:30.000Z</time>
      </trkpt>
      <trkpt lat="45.31254" lon="4.59604">
        <ele>673.40002441406</ele>
        <time>2026-05-11T13:53:31.000Z</time>
      </trkpt>
      <trkpt lat="45.31254" lon="4.59604">
        <ele>673.40002441406</ele>
        <time>2026-05-11T13:53:32.000Z</time>
      </trkpt>
      <trkpt lat="45.31259" lon="4.59598">
        <ele>673.40002441406</ele>
        <time>2026-05-11T13:53:33.000Z</time>
      </trkpt>
      <trkpt lat="45.31261" lon="4.59595">
        <ele>673.40002441406</ele>
        <time>2026-05-11T13:53:34.000Z</time>
      </trkpt>
      <trkpt lat="45.31263" lon="4.59592">
        <ele>673.40002441406</ele>
        <time>2026-05-11T13:53:35.000Z</time>
      </trkpt>
      <trkpt lat="45.31266" lon="4.59589">
        <ele>673.40002441406</ele>
        <time>2026-05-11T13:53:36.000Z</time>
      </trkpt>
      <trkpt lat="45.31268" lon="4.59585">
        <ele>673.59997558594</ele>
        <time>2026-05-11T13:53:37.000Z</time>
      </trkpt>
      <trkpt lat="45.31271" lon="4.59581">
        <ele>673.59997558594</ele>
        <time>2026-05-11T13:53:38.000Z</time>
      </trkpt>
      <trkpt lat="45.31271" lon="4.59581">
        <ele>673.59997558594</ele>
        <time>2026-05-11T13:53:39.000Z</time>
      </trkpt>
      <trkpt lat="45.31274" lon="4.59577">
        <ele>673.59997558594</ele>
        <time>2026-05-11T13:53:40.000Z</time>
      </trkpt>
      <trkpt lat="45.31279" lon="4.59569">
        <ele>673.59997558594</ele>
        <time>2026-05-11T13:53:41.000Z</time>
      </trkpt>
      <trkpt lat="45.31282" lon="4.59565">
        <ele>673.59997558594</ele>
        <time>2026-05-11T13:53:42.000Z</time>
      </trkpt>
      <trkpt lat="45.31285" lon="4.59561">
        <ele>673.59997558594</ele>
        <time>2026-05-11T13:53:43.000Z</time>
      </trkpt>
      <trkpt lat="45.31288" lon="4.59557">
        <ele>673.59997558594</ele>
        <time>2026-05-11T13:53:44.000Z</time>
      </trkpt>
      <trkpt lat="45.31288" lon="4.59557">
        <ele>673.40002441406</ele>
        <time>2026-05-11T13:53:45.000Z</time>
      </trkpt>
      <trkpt lat="45.31294" lon="4.59549">
        <ele>673.59997558594</ele>
        <time>2026-05-11T13:53:46.000Z</time>
      </trkpt>
      <trkpt lat="45.31297" lon="4.59545">
        <ele>673.59997558594</ele>
        <time>2026-05-11T13:53:47.000Z</time>
      </trkpt>
      <trkpt lat="45.313" lon="4.59541">
        <ele>673.59997558594</ele>
        <time>2026-05-11T13:53:48.000Z</time>
      </trkpt>
      <trkpt lat="45.31303" lon="4.59538">
        <ele>673.59997558594</ele>
        <time>2026-05-11T13:53:49.000Z</time>
      </trkpt>
      <trkpt lat="45.31303" lon="4.59538">
        <ele>673.59997558594</ele>
        <time>2026-05-11T13:53:50.000Z</time>
      </trkpt>
      <trkpt lat="45.31309" lon="4.59531">
        <ele>673.59997558594</ele>
        <time>2026-05-11T13:53:51.000Z</time>
      </trkpt>
      <trkpt lat="45.31311" lon="4.59527">
        <ele>673.59997558594</ele>
        <time>2026-05-11T13:53:52.000Z</time>
      </trkpt>
      <trkpt lat="45.31314" lon="4.59523">
        <ele>673.59997558594</ele>
        <time>2026-05-11T13:53:53.000Z</time>
      </trkpt>
      <trkpt lat="45.31317" lon="4.59519">
        <ele>673.59997558594</ele>
        <time>2026-05-11T13:53:54.000Z</time>
      </trkpt>
      <trkpt lat="45.3132" lon="4.59514">
        <ele>673.59997558594</ele>
        <time>2026-05-11T13:53:55.000Z</time>
      </trkpt>
      <trkpt lat="45.31323" lon="4.59509">
        <ele>673.59997558594</ele>
        <time>2026-05-11T13:53:56.000Z</time>
      </trkpt>
      <trkpt lat="45.31325" lon="4.59505">
        <ele>673.59997558594</ele>
        <time>2026-05-11T13:53:57.000Z</time>
      </trkpt>
      <trkpt lat="45.31328" lon="4.595">
        <ele>673.59997558594</ele>
        <time>2026-05-11T13:53:58.000Z</time>
      </trkpt>
      <trkpt lat="45.3133" lon="4.59495">
        <ele>673.59997558594</ele>
        <time>2026-05-11T13:53:59.000Z</time>
      </trkpt>
      <trkpt lat="45.31332" lon="4.59491">
        <ele>673.59997558594</ele>
        <time>2026-05-11T13:54:00.000Z</time>
      </trkpt>
      <trkpt lat="45.31334" lon="4.59487">
        <ele>673.79998779297</ele>
        <time>2026-05-11T13:54:01.000Z</time>
      </trkpt>
      <trkpt lat="45.31336" lon="4.59483">
        <ele>673.79998779297</ele>
        <time>2026-05-11T13:54:02.000Z</time>
      </trkpt>
      <trkpt lat="45.31339" lon="4.59478">
        <ele>673.79998779297</ele>
        <time>2026-05-11T13:54:03.000Z</time>
      </trkpt>
      <trkpt lat="45.3134" lon="4.59473">
        <ele>673.79998779297</ele>
        <time>2026-05-11T13:54:04.000Z</time>
      </trkpt>
      <trkpt lat="45.3134" lon="4.59473">
        <ele>674</ele>
        <time>2026-05-11T13:54:05.000Z</time>
      </trkpt>
      <trkpt lat="45.31344" lon="4.59463">
        <ele>674</ele>
        <time>2026-05-11T13:54:06.000Z</time>
      </trkpt>
      <trkpt lat="45.31347" lon="4.59459">
        <ele>674</ele>
        <time>2026-05-11T13:54:07.000Z</time>
      </trkpt>
      <trkpt lat="45.31349" lon="4.59454">
        <ele>674</ele>
        <time>2026-05-11T13:54:08.000Z</time>
      </trkpt>
      <trkpt lat="45.31351" lon="4.5945">
        <ele>674.20001220703</ele>
        <time>2026-05-11T13:54:09.000Z</time>
      </trkpt>
      <trkpt lat="45.31353" lon="4.59446">
        <ele>674.20001220703</ele>
        <time>2026-05-11T13:54:10.000Z</time>
      </trkpt>
      <trkpt lat="45.31355" lon="4.59442">
        <ele>674.20001220703</ele>
        <time>2026-05-11T13:54:11.000Z</time>
      </trkpt>
      <trkpt lat="45.31357" lon="4.59439">
        <ele>674.40002441406</ele>
        <time>2026-05-11T13:54:12.000Z</time>
      </trkpt>
      <trkpt lat="45.31357" lon="4.59439">
        <ele>674.40002441406</ele>
        <time>2026-05-11T13:54:13.000Z</time>
      </trkpt>
      <trkpt lat="45.31362" lon="4.59431">
        <ele>674.59997558594</ele>
        <time>2026-05-11T13:54:14.000Z</time>
      </trkpt>
      <trkpt lat="45.31365" lon="4.59427">
        <ele>674.59997558594</ele>
        <time>2026-05-11T13:54:15.000Z</time>
      </trkpt>
      <trkpt lat="45.31367" lon="4.59423">
        <ele>674.79998779297</ele>
        <time>2026-05-11T13:54:16.000Z</time>
      </trkpt>
      <trkpt lat="45.3137" lon="4.5942">
        <ele>674.79998779297</ele>
        <time>2026-05-11T13:54:17.000Z</time>
      </trkpt>
      <trkpt lat="45.31372" lon="4.59416">
        <ele>675</ele>
        <time>2026-05-11T13:54:18.000Z</time>
      </trkpt>
      <trkpt lat="45.31375" lon="4.59414">
        <ele>675</ele>
        <time>2026-05-11T13:54:19.000Z</time>
      </trkpt>
      <trkpt lat="45.31377" lon="4.5941">
        <ele>675.20001220703</ele>
        <time>2026-05-11T13:54:20.000Z</time>
      </trkpt>
      <trkpt lat="45.3138" lon="4.59407">
        <ele>675.20001220703</ele>
        <time>2026-05-11T13:54:21.000Z</time>
      </trkpt>
      <trkpt lat="45.31382" lon="4.59404">
        <ele>675.40002441406</ele>
        <time>2026-05-11T13:54:22.000Z</time>
      </trkpt>
      <trkpt lat="45.31385" lon="4.59401">
        <ele>675.40002441406</ele>
        <time>2026-05-11T13:54:23.000Z</time>
      </trkpt>
      <trkpt lat="45.31387" lon="4.59398">
        <ele>675.40002441406</ele>
        <time>2026-05-11T13:54:24.000Z</time>
      </trkpt>
      <trkpt lat="45.3139" lon="4.59395">
        <ele>675.40002441406</ele>
        <time>2026-05-11T13:54:25.000Z</time>
      </trkpt>
      <trkpt lat="45.3139" lon="4.59395">
        <ele>675.59997558594</ele>
        <time>2026-05-11T13:54:26.000Z</time>
      </trkpt>
      <trkpt lat="45.31394" lon="4.59387">
        <ele>675.59997558594</ele>
        <time>2026-05-11T13:54:27.000Z</time>
      </trkpt>
      <trkpt lat="45.31396" lon="4.59384">
        <ele>675.59997558594</ele>
        <time>2026-05-11T13:54:28.000Z</time>
      </trkpt>
      <trkpt lat="45.31398" lon="4.5938">
        <ele>675.59997558594</ele>
        <time>2026-05-11T13:54:29.000Z</time>
      </trkpt>
      <trkpt lat="45.314" lon="4.59376">
        <ele>675.79998779297</ele>
        <time>2026-05-11T13:54:30.000Z</time>
      </trkpt>
      <trkpt lat="45.31402" lon="4.59373">
        <ele>675.79998779297</ele>
        <time>2026-05-11T13:54:31.000Z</time>
      </trkpt>
      <trkpt lat="45.31403" lon="4.59369">
        <ele>675.79998779297</ele>
        <time>2026-05-11T13:54:32.000Z</time>
      </trkpt>
      <trkpt lat="45.31405" lon="4.59366">
        <ele>676</ele>
        <time>2026-05-11T13:54:33.000Z</time>
      </trkpt>
      <trkpt lat="45.31407" lon="4.59363">
        <ele>676.20001220703</ele>
        <time>2026-05-11T13:54:34.000Z</time>
      </trkpt>
      <trkpt lat="45.31408" lon="4.59359">
        <ele>676.40002441406</ele>
        <time>2026-05-11T13:54:35.000Z</time>
      </trkpt>
      <trkpt lat="45.3141" lon="4.59356">
        <ele>676.59997558594</ele>
        <time>2026-05-11T13:54:36.000Z</time>
      </trkpt>
      <trkpt lat="45.31411" lon="4.59354">
        <ele>676.79998779297</ele>
        <time>2026-05-11T13:54:37.000Z</time>
      </trkpt>
      <trkpt lat="45.31411" lon="4.59354">
        <ele>677</ele>
        <time>2026-05-11T13:54:38.000Z</time>
      </trkpt>
      <trkpt lat="45.31414" lon="4.59347">
        <ele>677.40002441406</ele>
        <time>2026-05-11T13:54:39.000Z</time>
      </trkpt>
      <trkpt lat="45.31416" lon="4.59343">
        <ele>677.59997558594</ele>
        <time>2026-05-11T13:54:40.000Z</time>
      </trkpt>
      <trkpt lat="45.31417" lon="4.5934">
        <ele>677.79998779297</ele>
        <time>2026-05-11T13:54:41.000Z</time>
      </trkpt>
      <trkpt lat="45.31418" lon="4.59336">
        <ele>678</ele>
        <time>2026-05-11T13:54:42.000Z</time>
      </trkpt>
      <trkpt lat="45.31419" lon="4.59333">
        <ele>678.20001220703</ele>
        <time>2026-05-11T13:54:43.000Z</time>
      </trkpt>
      <trkpt lat="45.31421" lon="4.59329">
        <ele>678.40002441406</ele>
        <time>2026-05-11T13:54:44.000Z</time>
      </trkpt>
      <trkpt lat="45.31422" lon="4.59326">
        <ele>678.59997558594</ele>
        <time>2026-05-11T13:54:45.000Z</time>
      </trkpt>
      <trkpt lat="45.31423" lon="4.59322">
        <ele>678.59997558594</ele>
        <time>2026-05-11T13:54:46.000Z</time>
      </trkpt>
      <trkpt lat="45.31425" lon="4.59318">
        <ele>678.79998779297</ele>
        <time>2026-05-11T13:54:47.000Z</time>
      </trkpt>
      <trkpt lat="45.31426" lon="4.59315">
        <ele>678.79998779297</ele>
        <time>2026-05-11T13:54:48.000Z</time>
      </trkpt>
      <trkpt lat="45.31428" lon="4.59311">
        <ele>679</ele>
        <time>2026-05-11T13:54:49.000Z</time>
      </trkpt>
      <trkpt lat="45.31428" lon="4.59311">
        <ele>679</ele>
        <time>2026-05-11T13:54:50.000Z</time>
      </trkpt>
      <trkpt lat="45.31431" lon="4.59304">
        <ele>679.20001220703</ele>
        <time>2026-05-11T13:54:51.000Z</time>
      </trkpt>
      <trkpt lat="45.31432" lon="4.59301">
        <ele>679.20001220703</ele>
        <time>2026-05-11T13:54:52.000Z</time>
      </trkpt>
      <trkpt lat="45.31433" lon="4.59297">
        <ele>679.40002441406</ele>
        <time>2026-05-11T13:54:53.000Z</time>
      </trkpt>
      <trkpt lat="45.31435" lon="4.59294">
        <ele>679.40002441406</ele>
        <time>2026-05-11T13:54:54.000Z</time>
      </trkpt>
      <trkpt lat="45.31436" lon="4.59291">
        <ele>679.59997558594</ele>
        <time>2026-05-11T13:54:55.000Z</time>
      </trkpt>
      <trkpt lat="45.31438" lon="4.59287">
        <ele>679.59997558594</ele>
        <time>2026-05-11T13:54:56.000Z</time>
      </trkpt>
      <trkpt lat="45.31439" lon="4.59284">
        <ele>679.59997558594</ele>
        <time>2026-05-11T13:54:57.000Z</time>
      </trkpt>
      <trkpt lat="45.3144" lon="4.59281">
        <ele>679.79998779297</ele>
        <time>2026-05-11T13:54:58.000Z</time>
      </trkpt>
      <trkpt lat="45.31441" lon="4.59278">
        <ele>679.79998779297</ele>
        <time>2026-05-11T13:54:59.000Z</time>
      </trkpt>
      <trkpt lat="45.31443" lon="4.59275">
        <ele>679.79998779297</ele>
        <time>2026-05-11T13:55:00.000Z</time>
      </trkpt>
      <trkpt lat="45.31444" lon="4.59272">
        <ele>679.79998779297</ele>
        <time>2026-05-11T13:55:01.000Z</time>
      </trkpt>
      <trkpt lat="45.31446" lon="4.59269">
        <ele>679.79998779297</ele>
        <time>2026-05-11T13:55:02.000Z</time>
      </trkpt>
      <trkpt lat="45.31446" lon="4.59269">
        <ele>679.79998779297</ele>
        <time>2026-05-11T13:55:03.000Z</time>
      </trkpt>
      <trkpt lat="45.31449" lon="4.59263">
        <ele>680</ele>
        <time>2026-05-11T13:55:04.000Z</time>
      </trkpt>
      <trkpt lat="45.31451" lon="4.5926">
        <ele>680</ele>
        <time>2026-05-11T13:55:05.000Z</time>
      </trkpt>
      <trkpt lat="45.31453" lon="4.59258">
        <ele>680.20001220703</ele>
        <time>2026-05-11T13:55:06.000Z</time>
      </trkpt>
      <trkpt lat="45.31454" lon="4.59255">
        <ele>680.40002441406</ele>
        <time>2026-05-11T13:55:07.000Z</time>
      </trkpt>
      <trkpt lat="45.31454" lon="4.59255">
        <ele>680.59997558594</ele>
        <time>2026-05-11T13:55:08.000Z</time>
      </trkpt>
      <trkpt lat="45.31458" lon="4.59251">
        <ele>680.79998779297</ele>
        <time>2026-05-11T13:55:09.000Z</time>
      </trkpt>
      <trkpt lat="45.3146" lon="4.59248">
        <ele>680.79998779297</ele>
        <time>2026-05-11T13:55:10.000Z</time>
      </trkpt>
      <trkpt lat="45.31462" lon="4.59247">
        <ele>681</ele>
        <time>2026-05-11T13:55:11.000Z</time>
      </trkpt>
      <trkpt lat="45.31465" lon="4.59245">
        <ele>681</ele>
        <time>2026-05-11T13:55:12.000Z</time>
      </trkpt>
      <trkpt lat="45.31467" lon="4.59243">
        <ele>681</ele>
        <time>2026-05-11T13:55:13.000Z</time>
      </trkpt>
      <trkpt lat="45.3147" lon="4.59242">
        <ele>681</ele>
        <time>2026-05-11T13:55:14.000Z</time>
      </trkpt>
      <trkpt lat="45.31473" lon="4.59242">
        <ele>681</ele>
        <time>2026-05-11T13:55:15.000Z</time>
      </trkpt>
      <trkpt lat="45.31476" lon="4.59241">
        <ele>680.79998779297</ele>
        <time>2026-05-11T13:55:16.000Z</time>
      </trkpt>
      <trkpt lat="45.31479" lon="4.59241">
        <ele>680.59997558594</ele>
        <time>2026-05-11T13:55:17.000Z</time>
      </trkpt>
      <trkpt lat="45.31482" lon="4.59241">
        <ele>680.59997558594</ele>
        <time>2026-05-11T13:55:18.000Z</time>
      </trkpt>
      <trkpt lat="45.31485" lon="4.59242">
        <ele>680.40002441406</ele>
        <time>2026-05-11T13:55:19.000Z</time>
      </trkpt>
      <trkpt lat="45.31487" lon="4.59243">
        <ele>680.20001220703</ele>
        <time>2026-05-11T13:55:20.000Z</time>
      </trkpt>
      <trkpt lat="45.3149" lon="4.59244">
        <ele>680</ele>
        <time>2026-05-11T13:55:21.000Z</time>
      </trkpt>
      <trkpt lat="45.31492" lon="4.59245">
        <ele>680</ele>
        <time>2026-05-11T13:55:22.000Z</time>
      </trkpt>
      <trkpt lat="45.31492" lon="4.59245">
        <ele>680</ele>
        <time>2026-05-11T13:55:23.000Z</time>
      </trkpt>
      <trkpt lat="45.31497" lon="4.59249">
        <ele>680.20001220703</ele>
        <time>2026-05-11T13:55:24.000Z</time>
      </trkpt>
      <trkpt lat="45.31499" lon="4.59252">
        <ele>680.40002441406</ele>
        <time>2026-05-11T13:55:25.000Z</time>
      </trkpt>
      <trkpt lat="45.31499" lon="4.59252">
        <ele>680.59997558594</ele>
        <time>2026-05-11T13:55:26.000Z</time>
      </trkpt>
      <trkpt lat="45.31504" lon="4.59256">
        <ele>681</ele>
        <time>2026-05-11T13:55:27.000Z</time>
      </trkpt>
      <trkpt lat="45.31507" lon="4.59258">
        <ele>681.20001220703</ele>
        <time>2026-05-11T13:55:28.000Z</time>
      </trkpt>
      <trkpt lat="45.31507" lon="4.59258">
        <ele>681.59997558594</ele>
        <time>2026-05-11T13:55:29.000Z</time>
      </trkpt>
      <trkpt lat="45.31511" lon="4.59262">
        <ele>681.79998779297</ele>
        <time>2026-05-11T13:55:30.000Z</time>
      </trkpt>
      <trkpt lat="45.31513" lon="4.59263">
        <ele>682</ele>
        <time>2026-05-11T13:55:31.000Z</time>
      </trkpt>
      <trkpt lat="45.31513" lon="4.59263">
        <ele>682.20001220703</ele>
        <time>2026-05-11T13:55:32.000Z</time>
      </trkpt>
      <trkpt lat="45.31517" lon="4.59266">
        <ele>682.40002441406</ele>
        <time>2026-05-11T13:55:33.000Z</time>
      </trkpt>
      <trkpt lat="45.31519" lon="4.59267">
        <ele>682.40002441406</ele>
        <time>2026-05-11T13:55:34.000Z</time>
      </trkpt>
      <trkpt lat="45.31521" lon="4.59268">
        <ele>682.40002441406</ele>
        <time>2026-05-11T13:55:35.000Z</time>
      </trkpt>
      <trkpt lat="45.31522" lon="4.59269">
        <ele>682.59997558594</ele>
        <time>2026-05-11T13:55:36.000Z</time>
      </trkpt>
      <trkpt lat="45.31524" lon="4.5927">
        <ele>682.79998779297</ele>
        <time>2026-05-11T13:55:37.000Z</time>
      </trkpt>
      <trkpt lat="45.31525" lon="4.59272">
        <ele>683</ele>
        <time>2026-05-11T13:55:38.000Z</time>
      </trkpt>
      <trkpt lat="45.31525" lon="4.59272">
        <ele>683</ele>
        <time>2026-05-11T13:55:39.000Z</time>
      </trkpt>
      <trkpt lat="45.31528" lon="4.59274">
        <ele>683.40002441406</ele>
        <time>2026-05-11T13:55:40.000Z</time>
      </trkpt>
      <trkpt lat="45.31529" lon="4.59275">
        <ele>683.40002441406</ele>
        <time>2026-05-11T13:55:41.000Z</time>
      </trkpt>
      <trkpt lat="45.3153" lon="4.59276">
        <ele>683.59997558594</ele>
        <time>2026-05-11T13:55:42.000Z</time>
      </trkpt>
      <trkpt lat="45.31531" lon="4.59277">
        <ele>683.79998779297</ele>
        <time>2026-05-11T13:55:43.000Z</time>
      </trkpt>
      <trkpt lat="45.31531" lon="4.59277">
        <ele>683.79998779297</ele>
        <time>2026-05-11T13:55:44.000Z</time>
      </trkpt>
      <trkpt lat="45.31534" lon="4.59279">
        <ele>684</ele>
        <time>2026-05-11T13:55:45.000Z</time>
      </trkpt>
      <trkpt lat="45.31535" lon="4.5928">
        <ele>684.20001220703</ele>
        <time>2026-05-11T13:55:46.000Z</time>
      </trkpt>
      <trkpt lat="45.31537" lon="4.59281">
        <ele>684.20001220703</ele>
        <time>2026-05-11T13:55:47.000Z</time>
      </trkpt>
      <trkpt lat="45.31537" lon="4.59281">
        <ele>684.59997558594</ele>
        <time>2026-05-11T13:55:48.000Z</time>
      </trkpt>
      <trkpt lat="45.31539" lon="4.59282">
        <ele>684.79998779297</ele>
        <time>2026-05-11T13:55:49.000Z</time>
      </trkpt>
      <trkpt lat="45.31541" lon="4.59283">
        <ele>685.20001220703</ele>
        <time>2026-05-11T13:55:50.000Z</time>
      </trkpt>
      <trkpt lat="45.31543" lon="4.59284">
        <ele>685.40002441406</ele>
        <time>2026-05-11T13:55:51.000Z</time>
      </trkpt>
      <trkpt lat="45.31545" lon="4.59284">
        <ele>685.59997558594</ele>
        <time>2026-05-11T13:55:52.000Z</time>
      </trkpt>
      <trkpt lat="45.31547" lon="4.59284">
        <ele>685.79998779297</ele>
        <time>2026-05-11T13:55:53.000Z</time>
      </trkpt>
      <trkpt lat="45.31549" lon="4.59284">
        <ele>686</ele>
        <time>2026-05-11T13:55:54.000Z</time>
      </trkpt>
      <trkpt lat="45.31551" lon="4.59284">
        <ele>686.20001220703</ele>
        <time>2026-05-11T13:55:55.000Z</time>
      </trkpt>
      <trkpt lat="45.31554" lon="4.59284">
        <ele>686.20001220703</ele>
        <time>2026-05-11T13:55:56.000Z</time>
      </trkpt>
      <trkpt lat="45.31556" lon="4.59283">
        <ele>686.59997558594</ele>
        <time>2026-05-11T13:55:57.000Z</time>
      </trkpt>
      <trkpt lat="45.31558" lon="4.59282">
        <ele>686.79998779297</ele>
        <time>2026-05-11T13:55:58.000Z</time>
      </trkpt>
      <trkpt lat="45.3156" lon="4.59281">
        <ele>687</ele>
        <time>2026-05-11T13:55:59.000Z</time>
      </trkpt>
      <trkpt lat="45.31562" lon="4.59281">
        <ele>687.40002441406</ele>
        <time>2026-05-11T13:56:00.000Z</time>
      </trkpt>
      <trkpt lat="45.31564" lon="4.5928">
        <ele>687.59997558594</ele>
        <time>2026-05-11T13:56:01.000Z</time>
      </trkpt>
      <trkpt lat="45.31565" lon="4.59279">
        <ele>688</ele>
        <time>2026-05-11T13:56:02.000Z</time>
      </trkpt>
      <trkpt lat="45.31567" lon="4.59278">
        <ele>688.20001220703</ele>
        <time>2026-05-11T13:56:03.000Z</time>
      </trkpt>
      <trkpt lat="45.31569" lon="4.59277">
        <ele>688.59997558594</ele>
        <time>2026-05-11T13:56:04.000Z</time>
      </trkpt>
      <trkpt lat="45.31571" lon="4.59276">
        <ele>689</ele>
        <time>2026-05-11T13:56:05.000Z</time>
      </trkpt>
      <trkpt lat="45.31573" lon="4.59276">
        <ele>689.20001220703</ele>
        <time>2026-05-11T13:56:06.000Z</time>
      </trkpt>
      <trkpt lat="45.31575" lon="4.59275">
        <ele>689.40002441406</ele>
        <time>2026-05-11T13:56:07.000Z</time>
      </trkpt>
      <trkpt lat="45.31577" lon="4.59274">
        <ele>689.79998779297</ele>
        <time>2026-05-11T13:56:08.000Z</time>
      </trkpt>
      <trkpt lat="45.31579" lon="4.59273">
        <ele>690</ele>
        <time>2026-05-11T13:56:09.000Z</time>
      </trkpt>
      <trkpt lat="45.31579" lon="4.59273">
        <ele>690.20001220703</ele>
        <time>2026-05-11T13:56:10.000Z</time>
      </trkpt>
      <trkpt lat="45.31582" lon="4.59271">
        <ele>690.40002441406</ele>
        <time>2026-05-11T13:56:11.000Z</time>
      </trkpt>
      <trkpt lat="45.31583" lon="4.5927">
        <ele>690.59997558594</ele>
        <time>2026-05-11T13:56:12.000Z</time>
      </trkpt>
      <trkpt lat="45.31585" lon="4.5927">
        <ele>691</ele>
        <time>2026-05-11T13:56:13.000Z</time>
      </trkpt>
      <trkpt lat="45.31587" lon="4.59269">
        <ele>691.40002441406</ele>
        <time>2026-05-11T13:56:14.000Z</time>
      </trkpt>
      <trkpt lat="45.31587" lon="4.59269">
        <ele>691.79998779297</ele>
        <time>2026-05-11T13:56:15.000Z</time>
      </trkpt>
      <trkpt lat="45.3159" lon="4.59268">
        <ele>692</ele>
        <time>2026-05-11T13:56:16.000Z</time>
      </trkpt>
      <trkpt lat="45.31592" lon="4.59267">
        <ele>692.40002441406</ele>
        <time>2026-05-11T13:56:17.000Z</time>
      </trkpt>
      <trkpt lat="45.31594" lon="4.59266">
        <ele>692.59997558594</ele>
        <time>2026-05-11T13:56:18.000Z</time>
      </trkpt>
      <trkpt lat="45.31596" lon="4.59265">
        <ele>692.79998779297</ele>
        <time>2026-05-11T13:56:19.000Z</time>
      </trkpt>
      <trkpt lat="45.31598" lon="4.59264">
        <ele>693</ele>
        <time>2026-05-11T13:56:20.000Z</time>
      </trkpt>
      <trkpt lat="45.31599" lon="4.59263">
        <ele>693.20001220703</ele>
        <time>2026-05-11T13:56:21.000Z</time>
      </trkpt>
      <trkpt lat="45.31601" lon="4.59263">
        <ele>693.40002441406</ele>
        <time>2026-05-11T13:56:22.000Z</time>
      </trkpt>
      <trkpt lat="45.31603" lon="4.59262">
        <ele>693.59997558594</ele>
        <time>2026-05-11T13:56:23.000Z</time>
      </trkpt>
      <trkpt lat="45.31605" lon="4.59261">
        <ele>693.79998779297</ele>
        <time>2026-05-11T13:56:24.000Z</time>
      </trkpt>
      <trkpt lat="45.31606" lon="4.5926">
        <ele>693.79998779297</ele>
        <time>2026-05-11T13:56:25.000Z</time>
      </trkpt>
      <trkpt lat="45.31608" lon="4.59259">
        <ele>694</ele>
        <time>2026-05-11T13:56:26.000Z</time>
      </trkpt>
      <trkpt lat="45.31609" lon="4.59258">
        <ele>694.20001220703</ele>
        <time>2026-05-11T13:56:27.000Z</time>
      </trkpt>
      <trkpt lat="45.31611" lon="4.59257">
        <ele>694.40002441406</ele>
        <time>2026-05-11T13:56:28.000Z</time>
      </trkpt>
      <trkpt lat="45.31613" lon="4.59257">
        <ele>694.59997558594</ele>
        <time>2026-05-11T13:56:29.000Z</time>
      </trkpt>
      <trkpt lat="45.31613" lon="4.59257">
        <ele>694.79998779297</ele>
        <time>2026-05-11T13:56:30.000Z</time>
      </trkpt>
      <trkpt lat="45.31616" lon="4.59256">
        <ele>695</ele>
        <time>2026-05-11T13:56:31.000Z</time>
      </trkpt>
      <trkpt lat="45.31618" lon="4.59255">
        <ele>695.20001220703</ele>
        <time>2026-05-11T13:56:32.000Z</time>
      </trkpt>
      <trkpt lat="45.31619" lon="4.59255">
        <ele>695.40002441406</ele>
        <time>2026-05-11T13:56:33.000Z</time>
      </trkpt>
      <trkpt lat="45.31621" lon="4.59254">
        <ele>695.59997558594</ele>
        <time>2026-05-11T13:56:34.000Z</time>
      </trkpt>
      <trkpt lat="45.31623" lon="4.59253">
        <ele>695.79998779297</ele>
        <time>2026-05-11T13:56:35.000Z</time>
      </trkpt>
      <trkpt lat="45.31624" lon="4.59252">
        <ele>696.20001220703</ele>
        <time>2026-05-11T13:56:36.000Z</time>
      </trkpt>
      <trkpt lat="45.31625" lon="4.59252">
        <ele>696.40002441406</ele>
        <time>2026-05-11T13:56:37.000Z</time>
      </trkpt>
      <trkpt lat="45.31627" lon="4.59251">
        <ele>696.59997558594</ele>
        <time>2026-05-11T13:56:38.000Z</time>
      </trkpt>
      <trkpt lat="45.31629" lon="4.5925">
        <ele>697</ele>
        <time>2026-05-11T13:56:39.000Z</time>
      </trkpt>
      <trkpt lat="45.3163" lon="4.5925">
        <ele>697.20001220703</ele>
        <time>2026-05-11T13:56:40.000Z</time>
      </trkpt>
      <trkpt lat="45.31632" lon="4.59249">
        <ele>697.59997558594</ele>
        <time>2026-05-11T13:56:41.000Z</time>
      </trkpt>
      <trkpt lat="45.31633" lon="4.59249">
        <ele>697.79998779297</ele>
        <time>2026-05-11T13:56:42.000Z</time>
      </trkpt>
      <trkpt lat="45.31635" lon="4.59248">
        <ele>698</ele>
        <time>2026-05-11T13:56:43.000Z</time>
      </trkpt>
      <trkpt lat="45.31636" lon="4.59247">
        <ele>698.20001220703</ele>
        <time>2026-05-11T13:56:44.000Z</time>
      </trkpt>
      <trkpt lat="45.31638" lon="4.59247">
        <ele>698.40002441406</ele>
        <time>2026-05-11T13:56:45.000Z</time>
      </trkpt>
      <trkpt lat="45.31639" lon="4.59246">
        <ele>698.59997558594</ele>
        <time>2026-05-11T13:56:46.000Z</time>
      </trkpt>
      <trkpt lat="45.31641" lon="4.59244">
        <ele>698.79998779297</ele>
        <time>2026-05-11T13:56:47.000Z</time>
      </trkpt>
      <trkpt lat="45.31642" lon="4.59243">
        <ele>699</ele>
        <time>2026-05-11T13:56:48.000Z</time>
      </trkpt>
      <trkpt lat="45.31644" lon="4.59242">
        <ele>699.20001220703</ele>
        <time>2026-05-11T13:56:49.000Z</time>
      </trkpt>
      <trkpt lat="45.31646" lon="4.5924">
        <ele>699.40002441406</ele>
        <time>2026-05-11T13:56:50.000Z</time>
      </trkpt>
      <trkpt lat="45.31647" lon="4.59239">
        <ele>699.59997558594</ele>
        <time>2026-05-11T13:56:51.000Z</time>
      </trkpt>
      <trkpt lat="45.31649" lon="4.59237">
        <ele>700</ele>
        <time>2026-05-11T13:56:52.000Z</time>
      </trkpt>
      <trkpt lat="45.31649" lon="4.59237">
        <ele>700.20001220703</ele>
        <time>2026-05-11T13:56:53.000Z</time>
      </trkpt>
      <trkpt lat="45.31651" lon="4.59233">
        <ele>700.59997558594</ele>
        <time>2026-05-11T13:56:54.000Z</time>
      </trkpt>
      <trkpt lat="45.31651" lon="4.59231">
        <ele>700.79998779297</ele>
        <time>2026-05-11T13:56:55.000Z</time>
      </trkpt>
      <trkpt lat="45.31652" lon="4.59228">
        <ele>701.20001220703</ele>
        <time>2026-05-11T13:56:56.000Z</time>
      </trkpt>
      <trkpt lat="45.31653" lon="4.59225">
        <ele>701.59997558594</ele>
        <time>2026-05-11T13:56:57.000Z</time>
      </trkpt>
      <trkpt lat="45.31653" lon="4.59222">
        <ele>702</ele>
        <time>2026-05-11T13:56:58.000Z</time>
      </trkpt>
      <trkpt lat="45.31653" lon="4.59222">
        <ele>702.40002441406</ele>
        <time>2026-05-11T13:56:59.000Z</time>
      </trkpt>
      <trkpt lat="45.31654" lon="4.59216">
        <ele>702.79998779297</ele>
        <time>2026-05-11T13:57:00.000Z</time>
      </trkpt>
      <trkpt lat="45.31655" lon="4.59213">
        <ele>703</ele>
        <time>2026-05-11T13:57:01.000Z</time>
      </trkpt>
      <trkpt lat="45.31655" lon="4.5921">
        <ele>703.40002441406</ele>
        <time>2026-05-11T13:57:02.000Z</time>
      </trkpt>
      <trkpt lat="45.31657" lon="4.59207">
        <ele>703.59997558594</ele>
        <time>2026-05-11T13:57:03.000Z</time>
      </trkpt>
      <trkpt lat="45.31658" lon="4.59204">
        <ele>703.79998779297</ele>
        <time>2026-05-11T13:57:04.000Z</time>
      </trkpt>
      <trkpt lat="45.31659" lon="4.59201">
        <ele>704</ele>
        <time>2026-05-11T13:57:05.000Z</time>
      </trkpt>
      <trkpt lat="45.31659" lon="4.59199">
        <ele>704.20001220703</ele>
        <time>2026-05-11T13:57:06.000Z</time>
      </trkpt>
      <trkpt lat="45.3166" lon="4.59196">
        <ele>704.20001220703</ele>
        <time>2026-05-11T13:57:07.000Z</time>
      </trkpt>
      <trkpt lat="45.3166" lon="4.59192">
        <ele>704.40002441406</ele>
        <time>2026-05-11T13:57:08.000Z</time>
      </trkpt>
      <trkpt lat="45.31661" lon="4.59189">
        <ele>704.59997558594</ele>
        <time>2026-05-11T13:57:09.000Z</time>
      </trkpt>
      <trkpt lat="45.31662" lon="4.59186">
        <ele>704.59997558594</ele>
        <time>2026-05-11T13:57:10.000Z</time>
      </trkpt>
      <trkpt lat="45.31663" lon="4.59183">
        <ele>704.79998779297</ele>
        <time>2026-05-11T13:57:11.000Z</time>
      </trkpt>
      <trkpt lat="45.31664" lon="4.59179">
        <ele>704.79998779297</ele>
        <time>2026-05-11T13:57:12.000Z</time>
      </trkpt>
      <trkpt lat="45.31665" lon="4.59176">
        <ele>705</ele>
        <time>2026-05-11T13:57:13.000Z</time>
      </trkpt>
      <trkpt lat="45.31666" lon="4.59173">
        <ele>705</ele>
        <time>2026-05-11T13:57:14.000Z</time>
      </trkpt>
      <trkpt lat="45.31667" lon="4.5917">
        <ele>705.20001220703</ele>
        <time>2026-05-11T13:57:15.000Z</time>
      </trkpt>
      <trkpt lat="45.31668" lon="4.59166">
        <ele>705.20001220703</ele>
        <time>2026-05-11T13:57:16.000Z</time>
      </trkpt>
      <trkpt lat="45.31669" lon="4.59163">
        <ele>705.20001220703</ele>
        <time>2026-05-11T13:57:17.000Z</time>
      </trkpt>
      <trkpt lat="45.31671" lon="4.5916">
        <ele>705.40002441406</ele>
        <time>2026-05-11T13:57:18.000Z</time>
      </trkpt>
      <trkpt lat="45.31672" lon="4.59156">
        <ele>705.59997558594</ele>
        <time>2026-05-11T13:57:19.000Z</time>
      </trkpt>
      <trkpt lat="45.31673" lon="4.59152">
        <ele>705.59997558594</ele>
        <time>2026-05-11T13:57:20.000Z</time>
      </trkpt>
      <trkpt lat="45.31674" lon="4.59149">
        <ele>705.79998779297</ele>
        <time>2026-05-11T13:57:21.000Z</time>
      </trkpt>
      <trkpt lat="45.31675" lon="4.59146">
        <ele>706</ele>
        <time>2026-05-11T13:57:22.000Z</time>
      </trkpt>
      <trkpt lat="45.31676" lon="4.59142">
        <ele>706</ele>
        <time>2026-05-11T13:57:23.000Z</time>
      </trkpt>
      <trkpt lat="45.31677" lon="4.59139">
        <ele>706.20001220703</ele>
        <time>2026-05-11T13:57:24.000Z</time>
      </trkpt>
      <trkpt lat="45.31678" lon="4.59136">
        <ele>706.40002441406</ele>
        <time>2026-05-11T13:57:25.000Z</time>
      </trkpt>
      <trkpt lat="45.3168" lon="4.59133">
        <ele>706.40002441406</ele>
        <time>2026-05-11T13:57:26.000Z</time>
      </trkpt>
      <trkpt lat="45.31682" lon="4.59131">
        <ele>706.59997558594</ele>
        <time>2026-05-11T13:57:27.000Z</time>
      </trkpt>
      <trkpt lat="45.31684" lon="4.5913">
        <ele>706.79998779297</ele>
        <time>2026-05-11T13:57:28.000Z</time>
      </trkpt>
      <trkpt lat="45.31686" lon="4.5913">
        <ele>706.79998779297</ele>
        <time>2026-05-11T13:57:29.000Z</time>
      </trkpt>
      <trkpt lat="45.31688" lon="4.59131">
        <ele>707</ele>
        <time>2026-05-11T13:57:30.000Z</time>
      </trkpt>
      <trkpt lat="45.3169" lon="4.59134">
        <ele>707.20001220703</ele>
        <time>2026-05-11T13:57:31.000Z</time>
      </trkpt>
      <trkpt lat="45.31691" lon="4.59137">
        <ele>707.20001220703</ele>
        <time>2026-05-11T13:57:32.000Z</time>
      </trkpt>
      <trkpt lat="45.31692" lon="4.5914">
        <ele>707.20001220703</ele>
        <time>2026-05-11T13:57:33.000Z</time>
      </trkpt>
      <trkpt lat="45.31692" lon="4.59144">
        <ele>707.40002441406</ele>
        <time>2026-05-11T13:57:34.000Z</time>
      </trkpt>
      <trkpt lat="45.31692" lon="4.59147">
        <ele>707.59997558594</ele>
        <time>2026-05-11T13:57:35.000Z</time>
      </trkpt>
      <trkpt lat="45.31692" lon="4.59151">
        <ele>707.79998779297</ele>
        <time>2026-05-11T13:57:36.000Z</time>
      </trkpt>
      <trkpt lat="45.31691" lon="4.59155">
        <ele>708.20001220703</ele>
        <time>2026-05-11T13:57:37.000Z</time>
      </trkpt>
      <trkpt lat="45.31691" lon="4.59158">
        <ele>708.20001220703</ele>
        <time>2026-05-11T13:57:38.000Z</time>
      </trkpt>
      <trkpt lat="45.3169" lon="4.59161">
        <ele>708.40002441406</ele>
        <time>2026-05-11T13:57:39.000Z</time>
      </trkpt>
      <trkpt lat="45.3169" lon="4.59164">
        <ele>708.40002441406</ele>
        <time>2026-05-11T13:57:40.000Z</time>
      </trkpt>
      <trkpt lat="45.31689" lon="4.59167">
        <ele>708.40002441406</ele>
        <time>2026-05-11T13:57:41.000Z</time>
      </trkpt>
      <trkpt lat="45.31688" lon="4.59171">
        <ele>708.40002441406</ele>
        <time>2026-05-11T13:57:42.000Z</time>
      </trkpt>
      <trkpt lat="45.31687" lon="4.59174">
        <ele>708.59997558594</ele>
        <time>2026-05-11T13:57:43.000Z</time>
      </trkpt>
      <trkpt lat="45.31687" lon="4.59177">
        <ele>708.59997558594</ele>
        <time>2026-05-11T13:57:44.000Z</time>
      </trkpt>
      <trkpt lat="45.31686" lon="4.59181">
        <ele>708.79998779297</ele>
        <time>2026-05-11T13:57:45.000Z</time>
      </trkpt>
      <trkpt lat="45.31686" lon="4.59184">
        <ele>708.79998779297</ele>
        <time>2026-05-11T13:57:46.000Z</time>
      </trkpt>
      <trkpt lat="45.31686" lon="4.59187">
        <ele>709</ele>
        <time>2026-05-11T13:57:47.000Z</time>
      </trkpt>
      <trkpt lat="45.31686" lon="4.59191">
        <ele>709</ele>
        <time>2026-05-11T13:57:48.000Z</time>
      </trkpt>
      <trkpt lat="45.31685" lon="4.59195">
        <ele>709.20001220703</ele>
        <time>2026-05-11T13:57:49.000Z</time>
      </trkpt>
      <trkpt lat="45.31685" lon="4.59198">
        <ele>709.20001220703</ele>
        <time>2026-05-11T13:57:50.000Z</time>
      </trkpt>
      <trkpt lat="45.31684" lon="4.59201">
        <ele>709.40002441406</ele>
        <time>2026-05-11T13:57:51.000Z</time>
      </trkpt>
      <trkpt lat="45.31683" lon="4.59204">
        <ele>709.40002441406</ele>
        <time>2026-05-11T13:57:52.000Z</time>
      </trkpt>
      <trkpt lat="45.31682" lon="4.59208">
        <ele>709.59997558594</ele>
        <time>2026-05-11T13:57:53.000Z</time>
      </trkpt>
      <trkpt lat="45.31682" lon="4.59211">
        <ele>709.59997558594</ele>
        <time>2026-05-11T13:57:54.000Z</time>
      </trkpt>
      <trkpt lat="45.31681" lon="4.59214">
        <ele>709.79998779297</ele>
        <time>2026-05-11T13:57:55.000Z</time>
      </trkpt>
      <trkpt lat="45.31682" lon="4.59217">
        <ele>709.79998779297</ele>
        <time>2026-05-11T13:57:56.000Z</time>
      </trkpt>
      <trkpt lat="45.31681" lon="4.5922">
        <ele>709.79998779297</ele>
        <time>2026-05-11T13:57:57.000Z</time>
      </trkpt>
      <trkpt lat="45.31681" lon="4.59224">
        <ele>709.79998779297</ele>
        <time>2026-05-11T13:57:58.000Z</time>
      </trkpt>
      <trkpt lat="45.3168" lon="4.59229">
        <ele>709.79998779297</ele>
        <time>2026-05-11T13:57:59.000Z</time>
      </trkpt>
      <trkpt lat="45.31677" lon="4.59235">
        <ele>709.79998779297</ele>
        <time>2026-05-11T13:58:00.000Z</time>
      </trkpt>
      <trkpt lat="45.31675" lon="4.59241">
        <ele>709.79998779297</ele>
        <time>2026-05-11T13:58:01.000Z</time>
      </trkpt>
      <trkpt lat="45.31672" lon="4.59247">
        <ele>709.59997558594</ele>
        <time>2026-05-11T13:58:02.000Z</time>
      </trkpt>
      <trkpt lat="45.3167" lon="4.59253">
        <ele>709.40002441406</ele>
        <time>2026-05-11T13:58:03.000Z</time>
      </trkpt>
      <trkpt lat="45.31669" lon="4.59257">
        <ele>709.40002441406</ele>
        <time>2026-05-11T13:58:04.000Z</time>
      </trkpt>
      <trkpt lat="45.31667" lon="4.59261">
        <ele>709.20001220703</ele>
        <time>2026-05-11T13:58:05.000Z</time>
      </trkpt>
      <trkpt lat="45.31666" lon="4.59265">
        <ele>709.20001220703</ele>
        <time>2026-05-11T13:58:06.000Z</time>
      </trkpt>
      <trkpt lat="45.31664" lon="4.59268">
        <ele>709.40002441406</ele>
        <time>2026-05-11T13:58:07.000Z</time>
      </trkpt>
      <trkpt lat="45.31663" lon="4.59272">
        <ele>709.40002441406</ele>
        <time>2026-05-11T13:58:08.000Z</time>
      </trkpt>
      <trkpt lat="45.31662" lon="4.59276">
        <ele>709.59997558594</ele>
        <time>2026-05-11T13:58:09.000Z</time>
      </trkpt>
      <trkpt lat="45.3166" lon="4.5928">
        <ele>709.59997558594</ele>
        <time>2026-05-11T13:58:10.000Z</time>
      </trkpt>
      <trkpt lat="45.31658" lon="4.59285">
        <ele>709.59997558594</ele>
        <time>2026-05-11T13:58:11.000Z</time>
      </trkpt>
      <trkpt lat="45.31657" lon="4.5929">
        <ele>709.40002441406</ele>
        <time>2026-05-11T13:58:12.000Z</time>
      </trkpt>
      <trkpt lat="45.31656" lon="4.59296">
        <ele>709.40002441406</ele>
        <time>2026-05-11T13:58:13.000Z</time>
      </trkpt>
      <trkpt lat="45.31655" lon="4.59302">
        <ele>709.20001220703</ele>
        <time>2026-05-11T13:58:14.000Z</time>
      </trkpt>
      <trkpt lat="45.31655" lon="4.59307">
        <ele>709</ele>
        <time>2026-05-11T13:58:15.000Z</time>
      </trkpt>
      <trkpt lat="45.31654" lon="4.59313">
        <ele>708.79998779297</ele>
        <time>2026-05-11T13:58:16.000Z</time>
      </trkpt>
      <trkpt lat="45.31654" lon="4.59319">
        <ele>708.59997558594</ele>
        <time>2026-05-11T13:58:17.000Z</time>
      </trkpt>
      <trkpt lat="45.31653" lon="4.59325">
        <ele>708.40002441406</ele>
        <time>2026-05-11T13:58:18.000Z</time>
      </trkpt>
      <trkpt lat="45.31652" lon="4.5933">
        <ele>708.40002441406</ele>
        <time>2026-05-11T13:58:19.000Z</time>
      </trkpt>
      <trkpt lat="45.31652" lon="4.59336">
        <ele>708.40002441406</ele>
        <time>2026-05-11T13:58:20.000Z</time>
      </trkpt>
      <trkpt lat="45.31651" lon="4.59341">
        <ele>708.20001220703</ele>
        <time>2026-05-11T13:58:21.000Z</time>
      </trkpt>
      <trkpt lat="45.31651" lon="4.59346">
        <ele>708.20001220703</ele>
        <time>2026-05-11T13:58:22.000Z</time>
      </trkpt>
      <trkpt lat="45.3165" lon="4.59351">
        <ele>708.20001220703</ele>
        <time>2026-05-11T13:58:23.000Z</time>
      </trkpt>
      <trkpt lat="45.31649" lon="4.59356">
        <ele>708.20001220703</ele>
        <time>2026-05-11T13:58:24.000Z</time>
      </trkpt>
      <trkpt lat="45.31649" lon="4.59361">
        <ele>708</ele>
        <time>2026-05-11T13:58:25.000Z</time>
      </trkpt>
      <trkpt lat="45.31648" lon="4.59367">
        <ele>708</ele>
        <time>2026-05-11T13:58:26.000Z</time>
      </trkpt>
      <trkpt lat="45.31648" lon="4.59371">
        <ele>707.79998779297</ele>
        <time>2026-05-11T13:58:27.000Z</time>
      </trkpt>
      <trkpt lat="45.31648" lon="4.59376">
        <ele>707.79998779297</ele>
        <time>2026-05-11T13:58:28.000Z</time>
      </trkpt>
      <trkpt lat="45.31647" lon="4.59381">
        <ele>707.79998779297</ele>
        <time>2026-05-11T13:58:29.000Z</time>
      </trkpt>
      <trkpt lat="45.31647" lon="4.59386">
        <ele>707.79998779297</ele>
        <time>2026-05-11T13:58:30.000Z</time>
      </trkpt>
      <trkpt lat="45.31647" lon="4.5939">
        <ele>708</ele>
        <time>2026-05-11T13:58:31.000Z</time>
      </trkpt>
      <trkpt lat="45.31646" lon="4.59395">
        <ele>708.20001220703</ele>
        <time>2026-05-11T13:58:32.000Z</time>
      </trkpt>
      <trkpt lat="45.31645" lon="4.59401">
        <ele>708.40002441406</ele>
        <time>2026-05-11T13:58:33.000Z</time>
      </trkpt>
      <trkpt lat="45.31645" lon="4.59407">
        <ele>708.59997558594</ele>
        <time>2026-05-11T13:58:34.000Z</time>
      </trkpt>
      <trkpt lat="45.31645" lon="4.59413">
        <ele>708.79998779297</ele>
        <time>2026-05-11T13:58:35.000Z</time>
      </trkpt>
      <trkpt lat="45.31645" lon="4.59418">
        <ele>708.79998779297</ele>
        <time>2026-05-11T13:58:36.000Z</time>
      </trkpt>
      <trkpt lat="45.31647" lon="4.59423">
        <ele>708.79998779297</ele>
        <time>2026-05-11T13:58:37.000Z</time>
      </trkpt>
      <trkpt lat="45.31649" lon="4.59427">
        <ele>708.79998779297</ele>
        <time>2026-05-11T13:58:38.000Z</time>
      </trkpt>
      <trkpt lat="45.31651" lon="4.59431">
        <ele>709</ele>
        <time>2026-05-11T13:58:39.000Z</time>
      </trkpt>
      <trkpt lat="45.31652" lon="4.59435">
        <ele>709</ele>
        <time>2026-05-11T13:58:40.000Z</time>
      </trkpt>
      <trkpt lat="45.31653" lon="4.59439">
        <ele>709</ele>
        <time>2026-05-11T13:58:41.000Z</time>
      </trkpt>
      <trkpt lat="45.31654" lon="4.59442">
        <ele>709.20001220703</ele>
        <time>2026-05-11T13:58:42.000Z</time>
      </trkpt>
      <trkpt lat="45.31655" lon="4.59447">
        <ele>709.40002441406</ele>
        <time>2026-05-11T13:58:43.000Z</time>
      </trkpt>
      <trkpt lat="45.31655" lon="4.59451">
        <ele>709.40002441406</ele>
        <time>2026-05-11T13:58:44.000Z</time>
      </trkpt>
      <trkpt lat="45.31656" lon="4.59455">
        <ele>709.59997558594</ele>
        <time>2026-05-11T13:58:45.000Z</time>
      </trkpt>
      <trkpt lat="45.31658" lon="4.59459">
        <ele>709.79998779297</ele>
        <time>2026-05-11T13:58:46.000Z</time>
      </trkpt>
      <trkpt lat="45.31659" lon="4.59462">
        <ele>710.20001220703</ele>
        <time>2026-05-11T13:58:47.000Z</time>
      </trkpt>
      <trkpt lat="45.31659" lon="4.59467">
        <ele>710.40002441406</ele>
        <time>2026-05-11T13:58:48.000Z</time>
      </trkpt>
      <trkpt lat="45.3166" lon="4.59471">
        <ele>710.79998779297</ele>
        <time>2026-05-11T13:58:49.000Z</time>
      </trkpt>
      <trkpt lat="45.3166" lon="4.59475">
        <ele>711.20001220703</ele>
        <time>2026-05-11T13:58:50.000Z</time>
      </trkpt>
      <trkpt lat="45.3166" lon="4.59479">
        <ele>711.40002441406</ele>
        <time>2026-05-11T13:58:51.000Z</time>
      </trkpt>
      <trkpt lat="45.31659" lon="4.59483">
        <ele>711.79998779297</ele>
        <time>2026-05-11T13:58:52.000Z</time>
      </trkpt>
      <trkpt lat="45.31659" lon="4.59488">
        <ele>711.79998779297</ele>
        <time>2026-05-11T13:58:53.000Z</time>
      </trkpt>
      <trkpt lat="45.31658" lon="4.59492">
        <ele>711.79998779297</ele>
        <time>2026-05-11T13:58:54.000Z</time>
      </trkpt>
      <trkpt lat="45.31658" lon="4.59497">
        <ele>711.79998779297</ele>
        <time>2026-05-11T13:58:55.000Z</time>
      </trkpt>
      <trkpt lat="45.31657" lon="4.59501">
        <ele>711.79998779297</ele>
        <time>2026-05-11T13:58:56.000Z</time>
      </trkpt>
      <trkpt lat="45.31657" lon="4.59505">
        <ele>711.79998779297</ele>
        <time>2026-05-11T13:58:57.000Z</time>
      </trkpt>
      <trkpt lat="45.31656" lon="4.59509">
        <ele>711.79998779297</ele>
        <time>2026-05-11T13:58:58.000Z</time>
      </trkpt>
      <trkpt lat="45.31656" lon="4.59514">
        <ele>711.79998779297</ele>
        <time>2026-05-11T13:58:59.000Z</time>
      </trkpt>
      <trkpt lat="45.31656" lon="4.59518">
        <ele>711.79998779297</ele>
        <time>2026-05-11T13:59:00.000Z</time>
      </trkpt>
      <trkpt lat="45.31656" lon="4.59522">
        <ele>711.79998779297</ele>
        <time>2026-05-11T13:59:01.000Z</time>
      </trkpt>
      <trkpt lat="45.31656" lon="4.59526">
        <ele>711.79998779297</ele>
        <time>2026-05-11T13:59:02.000Z</time>
      </trkpt>
      <trkpt lat="45.31656" lon="4.5953">
        <ele>712</ele>
        <time>2026-05-11T13:59:03.000Z</time>
      </trkpt>
      <trkpt lat="45.31656" lon="4.59534">
        <ele>712.20001220703</ele>
        <time>2026-05-11T13:59:04.000Z</time>
      </trkpt>
      <trkpt lat="45.31656" lon="4.59538">
        <ele>712.40002441406</ele>
        <time>2026-05-11T13:59:05.000Z</time>
      </trkpt>
      <trkpt lat="45.31656" lon="4.59542">
        <ele>712.59997558594</ele>
        <time>2026-05-11T13:59:06.000Z</time>
      </trkpt>
      <trkpt lat="45.31655" lon="4.59547">
        <ele>712.79998779297</ele>
        <time>2026-05-11T13:59:07.000Z</time>
      </trkpt>
      <trkpt lat="45.31655" lon="4.59551">
        <ele>712.79998779297</ele>
        <time>2026-05-11T13:59:08.000Z</time>
      </trkpt>
      <trkpt lat="45.31656" lon="4.59555">
        <ele>713</ele>
        <time>2026-05-11T13:59:09.000Z</time>
      </trkpt>
      <trkpt lat="45.31655" lon="4.5956">
        <ele>713.20001220703</ele>
        <time>2026-05-11T13:59:10.000Z</time>
      </trkpt>
      <trkpt lat="45.31655" lon="4.59564">
        <ele>713.40002441406</ele>
        <time>2026-05-11T13:59:11.000Z</time>
      </trkpt>
      <trkpt lat="45.31655" lon="4.59569">
        <ele>713.59997558594</ele>
        <time>2026-05-11T13:59:12.000Z</time>
      </trkpt>
      <trkpt lat="45.31655" lon="4.59573">
        <ele>713.79998779297</ele>
        <time>2026-05-11T13:59:13.000Z</time>
      </trkpt>
      <trkpt lat="45.31655" lon="4.59578">
        <ele>713.79998779297</ele>
        <time>2026-05-11T13:59:14.000Z</time>
      </trkpt>
      <trkpt lat="45.31654" lon="4.59583">
        <ele>713.79998779297</ele>
        <time>2026-05-11T13:59:15.000Z</time>
      </trkpt>
      <trkpt lat="45.31654" lon="4.59587">
        <ele>713.79998779297</ele>
        <time>2026-05-11T13:59:16.000Z</time>
      </trkpt>
      <trkpt lat="45.31654" lon="4.59592">
        <ele>714</ele>
        <time>2026-05-11T13:59:17.000Z</time>
      </trkpt>
      <trkpt lat="45.31653" lon="4.59596">
        <ele>714</ele>
        <time>2026-05-11T13:59:18.000Z</time>
      </trkpt>
      <trkpt lat="45.31653" lon="4.596">
        <ele>714</ele>
        <time>2026-05-11T13:59:19.000Z</time>
      </trkpt>
      <trkpt lat="45.31653" lon="4.59605">
        <ele>714.20001220703</ele>
        <time>2026-05-11T13:59:20.000Z</time>
      </trkpt>
      <trkpt lat="45.31654" lon="4.59609">
        <ele>714.20001220703</ele>
        <time>2026-05-11T13:59:21.000Z</time>
      </trkpt>
      <trkpt lat="45.31654" lon="4.59612">
        <ele>714.40002441406</ele>
        <time>2026-05-11T13:59:22.000Z</time>
      </trkpt>
      <trkpt lat="45.31654" lon="4.59615">
        <ele>714.40002441406</ele>
        <time>2026-05-11T13:59:23.000Z</time>
      </trkpt>
      <trkpt lat="45.31654" lon="4.59618">
        <ele>714.79998779297</ele>
        <time>2026-05-11T13:59:24.000Z</time>
      </trkpt>
      <trkpt lat="45.31654" lon="4.59621">
        <ele>715</ele>
        <time>2026-05-11T13:59:25.000Z</time>
      </trkpt>
      <trkpt lat="45.31655" lon="4.59624">
        <ele>715.40002441406</ele>
        <time>2026-05-11T13:59:26.000Z</time>
      </trkpt>
      <trkpt lat="45.31655" lon="4.59628">
        <ele>715.59997558594</ele>
        <time>2026-05-11T13:59:27.000Z</time>
      </trkpt>
      <trkpt lat="45.31655" lon="4.59632">
        <ele>715.79998779297</ele>
        <time>2026-05-11T13:59:28.000Z</time>
      </trkpt>
      <trkpt lat="45.31655" lon="4.59635">
        <ele>716</ele>
        <time>2026-05-11T13:59:29.000Z</time>
      </trkpt>
      <trkpt lat="45.31655" lon="4.59639">
        <ele>716</ele>
        <time>2026-05-11T13:59:30.000Z</time>
      </trkpt>
      <trkpt lat="45.31656" lon="4.59642">
        <ele>716.20001220703</ele>
        <time>2026-05-11T13:59:31.000Z</time>
      </trkpt>
      <trkpt lat="45.31656" lon="4.59645">
        <ele>716.40002441406</ele>
        <time>2026-05-11T13:59:32.000Z</time>
      </trkpt>
      <trkpt lat="45.31656" lon="4.59647">
        <ele>716.40002441406</ele>
        <time>2026-05-11T13:59:33.000Z</time>
      </trkpt>
      <trkpt lat="45.31656" lon="4.59646">
        <ele>716.59997558594</ele>
        <time>2026-05-11T13:59:34.000Z</time>
      </trkpt>
      <trkpt lat="45.31659" lon="4.59652">
        <ele>717.79998779297</ele>
        <time>2026-05-11T13:59:58.000Z</time>
      </trkpt>
      <trkpt lat="45.31659" lon="4.59655">
        <ele>717.79998779297</ele>
        <time>2026-05-11T13:59:59.000Z</time>
      </trkpt>
      <trkpt lat="45.31659" lon="4.59658">
        <ele>717.79998779297</ele>
        <time>2026-05-11T14:00:00.000Z</time>
      </trkpt>
      <trkpt lat="45.3166" lon="4.59662">
        <ele>717.59997558594</ele>
        <time>2026-05-11T14:00:01.000Z</time>
      </trkpt>
      <trkpt lat="45.31659" lon="4.59667">
        <ele>717.40002441406</ele>
        <time>2026-05-11T14:00:02.000Z</time>
      </trkpt>
      <trkpt lat="45.31659" lon="4.59673">
        <ele>717.20001220703</ele>
        <time>2026-05-11T14:00:03.000Z</time>
      </trkpt>
      <trkpt lat="45.31659" lon="4.59677">
        <ele>717.20001220703</ele>
        <time>2026-05-11T14:00:04.000Z</time>
      </trkpt>
      <trkpt lat="45.31659" lon="4.59681">
        <ele>717.20001220703</ele>
        <time>2026-05-11T14:00:05.000Z</time>
      </trkpt>
      <trkpt lat="45.31659" lon="4.59684">
        <ele>717</ele>
        <time>2026-05-11T14:00:06.000Z</time>
      </trkpt>
      <trkpt lat="45.31659" lon="4.59688">
        <ele>717.20001220703</ele>
        <time>2026-05-11T14:00:07.000Z</time>
      </trkpt>
      <trkpt lat="45.31659" lon="4.59692">
        <ele>717.20001220703</ele>
        <time>2026-05-11T14:00:08.000Z</time>
      </trkpt>
      <trkpt lat="45.31659" lon="4.59697">
        <ele>717.40002441406</ele>
        <time>2026-05-11T14:00:09.000Z</time>
      </trkpt>
      <trkpt lat="45.31659" lon="4.59701">
        <ele>717.40002441406</ele>
        <time>2026-05-11T14:00:10.000Z</time>
      </trkpt>
      <trkpt lat="45.3166" lon="4.59705">
        <ele>717.59997558594</ele>
        <time>2026-05-11T14:00:11.000Z</time>
      </trkpt>
      <trkpt lat="45.3166" lon="4.59708">
        <ele>717.59997558594</ele>
        <time>2026-05-11T14:00:12.000Z</time>
      </trkpt>
      <trkpt lat="45.31661" lon="4.59711">
        <ele>717.79998779297</ele>
        <time>2026-05-11T14:00:13.000Z</time>
      </trkpt>
      <trkpt lat="45.31663" lon="4.59714">
        <ele>718</ele>
        <time>2026-05-11T14:00:14.000Z</time>
      </trkpt>
      <trkpt lat="45.31663" lon="4.59717">
        <ele>718.40002441406</ele>
        <time>2026-05-11T14:00:15.000Z</time>
      </trkpt>
      <trkpt lat="45.31664" lon="4.5972">
        <ele>718.59997558594</ele>
        <time>2026-05-11T14:00:16.000Z</time>
      </trkpt>
      <trkpt lat="45.31665" lon="4.59723">
        <ele>718.79998779297</ele>
        <time>2026-05-11T14:00:17.000Z</time>
      </trkpt>
      <trkpt lat="45.31666" lon="4.59727">
        <ele>718.79998779297</ele>
        <time>2026-05-11T14:00:18.000Z</time>
      </trkpt>
      <trkpt lat="45.31666" lon="4.59729">
        <ele>719</ele>
        <time>2026-05-11T14:00:19.000Z</time>
      </trkpt>
      <trkpt lat="45.31667" lon="4.59733">
        <ele>719.20001220703</ele>
        <time>2026-05-11T14:00:20.000Z</time>
      </trkpt>
      <trkpt lat="45.31668" lon="4.59736">
        <ele>719.40002441406</ele>
        <time>2026-05-11T14:00:21.000Z</time>
      </trkpt>
      <trkpt lat="45.31668" lon="4.59739">
        <ele>719.59997558594</ele>
        <time>2026-05-11T14:00:22.000Z</time>
      </trkpt>
      <trkpt lat="45.31669" lon="4.59743">
        <ele>719.59997558594</ele>
        <time>2026-05-11T14:00:23.000Z</time>
      </trkpt>
      <trkpt lat="45.3167" lon="4.59746">
        <ele>719.79998779297</ele>
        <time>2026-05-11T14:00:24.000Z</time>
      </trkpt>
      <trkpt lat="45.3167" lon="4.5975">
        <ele>720</ele>
        <time>2026-05-11T14:00:25.000Z</time>
      </trkpt>
      <trkpt lat="45.3167" lon="4.59753">
        <ele>720.20001220703</ele>
        <time>2026-05-11T14:00:26.000Z</time>
      </trkpt>
      <trkpt lat="45.3167" lon="4.59756">
        <ele>720.20001220703</ele>
        <time>2026-05-11T14:00:27.000Z</time>
      </trkpt>
      <trkpt lat="45.31671" lon="4.5976">
        <ele>720.40002441406</ele>
        <time>2026-05-11T14:00:28.000Z</time>
      </trkpt>
      <trkpt lat="45.3167" lon="4.59763">
        <ele>720.40002441406</ele>
        <time>2026-05-11T14:00:29.000Z</time>
      </trkpt>
      <trkpt lat="45.31671" lon="4.59766">
        <ele>720.59997558594</ele>
        <time>2026-05-11T14:00:30.000Z</time>
      </trkpt>
      <trkpt lat="45.31671" lon="4.59769">
        <ele>720.59997558594</ele>
        <time>2026-05-11T14:00:31.000Z</time>
      </trkpt>
      <trkpt lat="45.31671" lon="4.59772">
        <ele>720.59997558594</ele>
        <time>2026-05-11T14:00:32.000Z</time>
      </trkpt>
      <trkpt lat="45.31671" lon="4.59775">
        <ele>720.59997558594</ele>
        <time>2026-05-11T14:00:33.000Z</time>
      </trkpt>
      <trkpt lat="45.31671" lon="4.59778">
        <ele>720.79998779297</ele>
        <time>2026-05-11T14:00:34.000Z</time>
      </trkpt>
      <trkpt lat="45.31671" lon="4.59778">
        <ele>720.79998779297</ele>
        <time>2026-05-11T14:00:35.000Z</time>
      </trkpt>
      <trkpt lat="45.3167" lon="4.59784">
        <ele>720.79998779297</ele>
        <time>2026-05-11T14:00:36.000Z</time>
      </trkpt>
      <trkpt lat="45.3167" lon="4.59787">
        <ele>721</ele>
        <time>2026-05-11T14:00:37.000Z</time>
      </trkpt>
      <trkpt lat="45.3167" lon="4.5979">
        <ele>721</ele>
        <time>2026-05-11T14:00:38.000Z</time>
      </trkpt>
      <trkpt lat="45.3167" lon="4.59792">
        <ele>721</ele>
        <time>2026-05-11T14:00:39.000Z</time>
      </trkpt>
      <trkpt lat="45.31669" lon="4.59795">
        <ele>721</ele>
        <time>2026-05-11T14:00:40.000Z</time>
      </trkpt>
      <trkpt lat="45.31669" lon="4.59798">
        <ele>721</ele>
        <time>2026-05-11T14:00:41.000Z</time>
      </trkpt>
      <trkpt lat="45.31669" lon="4.59801">
        <ele>721</ele>
        <time>2026-05-11T14:00:42.000Z</time>
      </trkpt>
      <trkpt lat="45.31669" lon="4.59803">
        <ele>721</ele>
        <time>2026-05-11T14:00:43.000Z</time>
      </trkpt>
      <trkpt lat="45.31669" lon="4.59806">
        <ele>721.20001220703</ele>
        <time>2026-05-11T14:00:44.000Z</time>
      </trkpt>
      <trkpt lat="45.31669" lon="4.59808">
        <ele>721.40002441406</ele>
        <time>2026-05-11T14:00:45.000Z</time>
      </trkpt>
      <trkpt lat="45.31669" lon="4.5981">
        <ele>721.59997558594</ele>
        <time>2026-05-11T14:00:46.000Z</time>
      </trkpt>
      <trkpt lat="45.31669" lon="4.59813">
        <ele>721.79998779297</ele>
        <time>2026-05-11T14:00:47.000Z</time>
      </trkpt>
      <trkpt lat="45.31668" lon="4.59815">
        <ele>722</ele>
        <time>2026-05-11T14:00:48.000Z</time>
      </trkpt>
      <trkpt lat="45.31668" lon="4.59818">
        <ele>722.20001220703</ele>
        <time>2026-05-11T14:00:49.000Z</time>
      </trkpt>
      <trkpt lat="45.31668" lon="4.5982">
        <ele>722.40002441406</ele>
        <time>2026-05-11T14:00:50.000Z</time>
      </trkpt>
      <trkpt lat="45.31668" lon="4.59823">
        <ele>722.40002441406</ele>
        <time>2026-05-11T14:00:51.000Z</time>
      </trkpt>
      <trkpt lat="45.31669" lon="4.59825">
        <ele>722.79998779297</ele>
        <time>2026-05-11T14:00:52.000Z</time>
      </trkpt>
      <trkpt lat="45.31669" lon="4.59827">
        <ele>723.20001220703</ele>
        <time>2026-05-11T14:00:53.000Z</time>
      </trkpt>
      <trkpt lat="45.3167" lon="4.59829">
        <ele>723.40002441406</ele>
        <time>2026-05-11T14:00:54.000Z</time>
      </trkpt>
      <trkpt lat="45.31671" lon="4.59832">
        <ele>723.79998779297</ele>
        <time>2026-05-11T14:00:55.000Z</time>
      </trkpt>
      <trkpt lat="45.31671" lon="4.59834">
        <ele>724.20001220703</ele>
        <time>2026-05-11T14:00:56.000Z</time>
      </trkpt>
      <trkpt lat="45.31672" lon="4.59836">
        <ele>724.40002441406</ele>
        <time>2026-05-11T14:00:57.000Z</time>
      </trkpt>
      <trkpt lat="45.31673" lon="4.59838">
        <ele>724.79998779297</ele>
        <time>2026-05-11T14:00:58.000Z</time>
      </trkpt>
      <trkpt lat="45.31674" lon="4.5984">
        <ele>725.20001220703</ele>
        <time>2026-05-11T14:00:59.000Z</time>
      </trkpt>
      <trkpt lat="45.31674" lon="4.59842">
        <ele>725.40002441406</ele>
        <time>2026-05-11T14:01:00.000Z</time>
      </trkpt>
      <trkpt lat="45.31676" lon="4.59845">
        <ele>725.79998779297</ele>
        <time>2026-05-11T14:01:01.000Z</time>
      </trkpt>
      <trkpt lat="45.31677" lon="4.59847">
        <ele>726</ele>
        <time>2026-05-11T14:01:02.000Z</time>
      </trkpt>
      <trkpt lat="45.31678" lon="4.59849">
        <ele>726.20001220703</ele>
        <time>2026-05-11T14:01:03.000Z</time>
      </trkpt>
      <trkpt lat="45.31679" lon="4.59852">
        <ele>726.40002441406</ele>
        <time>2026-05-11T14:01:04.000Z</time>
      </trkpt>
      <trkpt lat="45.3168" lon="4.59854">
        <ele>726.59997558594</ele>
        <time>2026-05-11T14:01:05.000Z</time>
      </trkpt>
      <trkpt lat="45.31681" lon="4.59856">
        <ele>726.79998779297</ele>
        <time>2026-05-11T14:01:06.000Z</time>
      </trkpt>
      <trkpt lat="45.31682" lon="4.59859">
        <ele>727</ele>
        <time>2026-05-11T14:01:07.000Z</time>
      </trkpt>
      <trkpt lat="45.31683" lon="4.59861">
        <ele>727.20001220703</ele>
        <time>2026-05-11T14:01:08.000Z</time>
      </trkpt>
      <trkpt lat="45.31683" lon="4.59863">
        <ele>727.40002441406</ele>
        <time>2026-05-11T14:01:09.000Z</time>
      </trkpt>
      <trkpt lat="45.31684" lon="4.59865">
        <ele>727.59997558594</ele>
        <time>2026-05-11T14:01:10.000Z</time>
      </trkpt>
      <trkpt lat="45.31685" lon="4.59867">
        <ele>727.59997558594</ele>
        <time>2026-05-11T14:01:11.000Z</time>
      </trkpt>
      <trkpt lat="45.31686" lon="4.59869">
        <ele>727.79998779297</ele>
        <time>2026-05-11T14:01:12.000Z</time>
      </trkpt>
      <trkpt lat="45.31686" lon="4.59871">
        <ele>728</ele>
        <time>2026-05-11T14:01:13.000Z</time>
      </trkpt>
      <trkpt lat="45.31687" lon="4.59872">
        <ele>728</ele>
        <time>2026-05-11T14:01:14.000Z</time>
      </trkpt>
      <trkpt lat="45.31688" lon="4.59873">
        <ele>728.20001220703</ele>
        <time>2026-05-11T14:01:15.000Z</time>
      </trkpt>
      <trkpt lat="45.31688" lon="4.59875">
        <ele>728.20001220703</ele>
        <time>2026-05-11T14:01:16.000Z</time>
      </trkpt>
      <trkpt lat="45.31689" lon="4.59877">
        <ele>728.40002441406</ele>
        <time>2026-05-11T14:01:17.000Z</time>
      </trkpt>
      <trkpt lat="45.31689" lon="4.59877">
        <ele>728.40002441406</ele>
        <time>2026-05-11T14:01:18.000Z</time>
      </trkpt>
      <trkpt lat="45.31689" lon="4.59877">
        <ele>728.40002441406</ele>
        <time>2026-05-11T14:01:19.000Z</time>
      </trkpt>
      <trkpt lat="45.31694" lon="4.5989">
        <ele>729.20001220703</ele>
        <time>2026-05-11T14:08:41.000Z</time>
      </trkpt>
      <trkpt lat="45.31695" lon="4.59893">
        <ele>729.20001220703</ele>
        <time>2026-05-11T14:08:42.000Z</time>
      </trkpt>
      <trkpt lat="45.31696" lon="4.59895">
        <ele>729.20001220703</ele>
        <time>2026-05-11T14:08:43.000Z</time>
      </trkpt>
      <trkpt lat="45.31697" lon="4.59898">
        <ele>729.20001220703</ele>
        <time>2026-05-11T14:08:44.000Z</time>
      </trkpt>
      <trkpt lat="45.31698" lon="4.59901">
        <ele>729</ele>
        <time>2026-05-11T14:08:45.000Z</time>
      </trkpt>
      <trkpt lat="45.31699" lon="4.59906">
        <ele>729</ele>
        <time>2026-05-11T14:08:46.000Z</time>
      </trkpt>
      <trkpt lat="45.31701" lon="4.5991">
        <ele>729</ele>
        <time>2026-05-11T14:08:47.000Z</time>
      </trkpt>
      <trkpt lat="45.31702" lon="4.59914">
        <ele>728.79998779297</ele>
        <time>2026-05-11T14:08:48.000Z</time>
      </trkpt>
      <trkpt lat="45.31704" lon="4.59918">
        <ele>728.79998779297</ele>
        <time>2026-05-11T14:08:49.000Z</time>
      </trkpt>
      <trkpt lat="45.31706" lon="4.59923">
        <ele>728.59997558594</ele>
        <time>2026-05-11T14:08:50.000Z</time>
      </trkpt>
      <trkpt lat="45.31708" lon="4.59928">
        <ele>728.40002441406</ele>
        <time>2026-05-11T14:08:51.000Z</time>
      </trkpt>
      <trkpt lat="45.3171" lon="4.59932">
        <ele>728.20001220703</ele>
        <time>2026-05-11T14:08:52.000Z</time>
      </trkpt>
      <trkpt lat="45.31713" lon="4.59937">
        <ele>728</ele>
        <time>2026-05-11T14:08:53.000Z</time>
      </trkpt>
      <trkpt lat="45.31715" lon="4.59941">
        <ele>728</ele>
        <time>2026-05-11T14:08:54.000Z</time>
      </trkpt>
      <trkpt lat="45.31718" lon="4.59946">
        <ele>727.79998779297</ele>
        <time>2026-05-11T14:08:55.000Z</time>
      </trkpt>
      <trkpt lat="45.31721" lon="4.59951">
        <ele>727.59997558594</ele>
        <time>2026-05-11T14:08:56.000Z</time>
      </trkpt>
      <trkpt lat="45.31724" lon="4.59957">
        <ele>727.59997558594</ele>
        <time>2026-05-11T14:08:57.000Z</time>
      </trkpt>
      <trkpt lat="45.31727" lon="4.59962">
        <ele>727.20001220703</ele>
        <time>2026-05-11T14:08:58.000Z</time>
      </trkpt>
      <trkpt lat="45.31729" lon="4.59968">
        <ele>727</ele>
        <time>2026-05-11T14:08:59.000Z</time>
      </trkpt>
      <trkpt lat="45.31732" lon="4.59973">
        <ele>726.79998779297</ele>
        <time>2026-05-11T14:09:00.000Z</time>
      </trkpt>
      <trkpt lat="45.31735" lon="4.59979">
        <ele>726.59997558594</ele>
        <time>2026-05-11T14:09:01.000Z</time>
      </trkpt>
      <trkpt lat="45.31737" lon="4.59985">
        <ele>726.40002441406</ele>
        <time>2026-05-11T14:09:02.000Z</time>
      </trkpt>
      <trkpt lat="45.3174" lon="4.59991">
        <ele>726</ele>
        <time>2026-05-11T14:09:03.000Z</time>
      </trkpt>
      <trkpt lat="45.31744" lon="4.59998">
        <ele>725.59997558594</ele>
        <time>2026-05-11T14:09:04.000Z</time>
      </trkpt>
      <trkpt lat="45.31747" lon="4.60006">
        <ele>725.20001220703</ele>
        <time>2026-05-11T14:09:05.000Z</time>
      </trkpt>
      <trkpt lat="45.31751" lon="4.60014">
        <ele>724.79998779297</ele>
        <time>2026-05-11T14:09:06.000Z</time>
      </trkpt>
      <trkpt lat="45.31756" lon="4.60021">
        <ele>724.20001220703</ele>
        <time>2026-05-11T14:09:07.000Z</time>
      </trkpt>
      <trkpt lat="45.3176" lon="4.60029">
        <ele>723.59997558594</ele>
        <time>2026-05-11T14:09:08.000Z</time>
      </trkpt>
      <trkpt lat="45.31765" lon="4.60036">
        <ele>723.20001220703</ele>
        <time>2026-05-11T14:09:09.000Z</time>
      </trkpt>
      <trkpt lat="45.3177" lon="4.60044">
        <ele>722.40002441406</ele>
        <time>2026-05-11T14:09:10.000Z</time>
      </trkpt>
      <trkpt lat="45.31777" lon="4.60053">
        <ele>721.40002441406</ele>
        <time>2026-05-11T14:09:11.000Z</time>
      </trkpt>
      <trkpt lat="45.31784" lon="4.60062">
        <ele>720.59997558594</ele>
        <time>2026-05-11T14:09:12.000Z</time>
      </trkpt>
      <trkpt lat="45.31792" lon="4.6007">
        <ele>719.79998779297</ele>
        <time>2026-05-11T14:09:13.000Z</time>
      </trkpt>
      <trkpt lat="45.318" lon="4.6008">
        <ele>718.79998779297</ele>
        <time>2026-05-11T14:09:14.000Z</time>
      </trkpt>
      <trkpt lat="45.31808" lon="4.60089">
        <ele>717.79998779297</ele>
        <time>2026-05-11T14:09:15.000Z</time>
      </trkpt>
      <trkpt lat="45.31816" lon="4.601">
        <ele>716.79998779297</ele>
        <time>2026-05-11T14:09:16.000Z</time>
      </trkpt>
      <trkpt lat="45.31823" lon="4.60111">
        <ele>715.59997558594</ele>
        <time>2026-05-11T14:09:17.000Z</time>
      </trkpt>
      <trkpt lat="45.31829" lon="4.60122">
        <ele>714.59997558594</ele>
        <time>2026-05-11T14:09:18.000Z</time>
      </trkpt>
      <trkpt lat="45.31836" lon="4.60132">
        <ele>713.79998779297</ele>
        <time>2026-05-11T14:09:19.000Z</time>
      </trkpt>
      <trkpt lat="45.31842" lon="4.60142">
        <ele>713</ele>
        <time>2026-05-11T14:09:20.000Z</time>
      </trkpt>
      <trkpt lat="45.31848" lon="4.60151">
        <ele>712.40002441406</ele>
        <time>2026-05-11T14:09:21.000Z</time>
      </trkpt>
      <trkpt lat="45.31853" lon="4.60159">
        <ele>712</ele>
        <time>2026-05-11T14:09:22.000Z</time>
      </trkpt>
      <trkpt lat="45.31858" lon="4.60166">
        <ele>712</ele>
        <time>2026-05-11T14:09:23.000Z</time>
      </trkpt>
      <trkpt lat="45.31862" lon="4.60172">
        <ele>711.79998779297</ele>
        <time>2026-05-11T14:09:24.000Z</time>
      </trkpt>
      <trkpt lat="45.31866" lon="4.60177">
        <ele>712</ele>
        <time>2026-05-11T14:09:25.000Z</time>
      </trkpt>
      <trkpt lat="45.31869" lon="4.60182">
        <ele>712</ele>
        <time>2026-05-11T14:09:26.000Z</time>
      </trkpt>
      <trkpt lat="45.31872" lon="4.60187">
        <ele>712.40002441406</ele>
        <time>2026-05-11T14:09:27.000Z</time>
      </trkpt>
      <trkpt lat="45.31875" lon="4.60191">
        <ele>712.59997558594</ele>
        <time>2026-05-11T14:09:28.000Z</time>
      </trkpt>
      <trkpt lat="45.31877" lon="4.60195">
        <ele>712.79998779297</ele>
        <time>2026-05-11T14:09:29.000Z</time>
      </trkpt>
      <trkpt lat="45.31878" lon="4.60198">
        <ele>713</ele>
        <time>2026-05-11T14:09:30.000Z</time>
      </trkpt>
      <trkpt lat="45.31879" lon="4.60202">
        <ele>713.20001220703</ele>
        <time>2026-05-11T14:09:31.000Z</time>
      </trkpt>
      <trkpt lat="45.3188" lon="4.60206">
        <ele>713.40002441406</ele>
        <time>2026-05-11T14:09:32.000Z</time>
      </trkpt>
      <trkpt lat="45.31881" lon="4.6021">
        <ele>713.59997558594</ele>
        <time>2026-05-11T14:09:33.000Z</time>
      </trkpt>
      <trkpt lat="45.31883" lon="4.60215">
        <ele>713.79998779297</ele>
        <time>2026-05-11T14:09:34.000Z</time>
      </trkpt>
      <trkpt lat="45.31884" lon="4.6022">
        <ele>714</ele>
        <time>2026-05-11T14:09:35.000Z</time>
      </trkpt>
      <trkpt lat="45.31885" lon="4.60226">
        <ele>714</ele>
        <time>2026-05-11T14:09:36.000Z</time>
      </trkpt>
      <trkpt lat="45.31886" lon="4.60231">
        <ele>714</ele>
        <time>2026-05-11T14:09:37.000Z</time>
      </trkpt>
      <trkpt lat="45.31887" lon="4.60237">
        <ele>714</ele>
        <time>2026-05-11T14:09:38.000Z</time>
      </trkpt>
      <trkpt lat="45.31888" lon="4.60243">
        <ele>714</ele>
        <time>2026-05-11T14:09:39.000Z</time>
      </trkpt>
      <trkpt lat="45.31889" lon="4.60249">
        <ele>714</ele>
        <time>2026-05-11T14:09:40.000Z</time>
      </trkpt>
      <trkpt lat="45.3189" lon="4.60254">
        <ele>713.79998779297</ele>
        <time>2026-05-11T14:09:41.000Z</time>
      </trkpt>
      <trkpt lat="45.31891" lon="4.6026">
        <ele>713.79998779297</ele>
        <time>2026-05-11T14:09:42.000Z</time>
      </trkpt>
      <trkpt lat="45.31892" lon="4.60265">
        <ele>713.59997558594</ele>
        <time>2026-05-11T14:09:43.000Z</time>
      </trkpt>
      <trkpt lat="45.31893" lon="4.6027">
        <ele>713.59997558594</ele>
        <time>2026-05-11T14:09:44.000Z</time>
      </trkpt>
      <trkpt lat="45.31894" lon="4.60275">
        <ele>713.59997558594</ele>
        <time>2026-05-11T14:09:45.000Z</time>
      </trkpt>
      <trkpt lat="45.31894" lon="4.60278">
        <ele>713.59997558594</ele>
        <time>2026-05-11T14:09:46.000Z</time>
      </trkpt>
      <trkpt lat="45.31895" lon="4.60282">
        <ele>713.59997558594</ele>
        <time>2026-05-11T14:09:47.000Z</time>
      </trkpt>
      <trkpt lat="45.31895" lon="4.60286">
        <ele>713.59997558594</ele>
        <time>2026-05-11T14:09:48.000Z</time>
      </trkpt>
      <trkpt lat="45.31895" lon="4.60291">
        <ele>713.59997558594</ele>
        <time>2026-05-11T14:09:49.000Z</time>
      </trkpt>
      <trkpt lat="45.31896" lon="4.60296">
        <ele>713.59997558594</ele>
        <time>2026-05-11T14:09:50.000Z</time>
      </trkpt>
      <trkpt lat="45.31896" lon="4.60301">
        <ele>713.59997558594</ele>
        <time>2026-05-11T14:09:51.000Z</time>
      </trkpt>
      <trkpt lat="45.31896" lon="4.60306">
        <ele>713.59997558594</ele>
        <time>2026-05-11T14:09:52.000Z</time>
      </trkpt>
      <trkpt lat="45.31896" lon="4.60311">
        <ele>713.59997558594</ele>
        <time>2026-05-11T14:09:53.000Z</time>
      </trkpt>
      <trkpt lat="45.31896" lon="4.60317">
        <ele>713.40002441406</ele>
        <time>2026-05-11T14:09:54.000Z</time>
      </trkpt>
      <trkpt lat="45.31896" lon="4.60323">
        <ele>713.40002441406</ele>
        <time>2026-05-11T14:09:55.000Z</time>
      </trkpt>
      <trkpt lat="45.31896" lon="4.60328">
        <ele>713.20001220703</ele>
        <time>2026-05-11T14:09:56.000Z</time>
      </trkpt>
      <trkpt lat="45.31896" lon="4.60334">
        <ele>713</ele>
        <time>2026-05-11T14:09:57.000Z</time>
      </trkpt>
      <trkpt lat="45.31896" lon="4.60339">
        <ele>712.79998779297</ele>
        <time>2026-05-11T14:09:58.000Z</time>
      </trkpt>
      <trkpt lat="45.31895" lon="4.60345">
        <ele>712.40002441406</ele>
        <time>2026-05-11T14:09:59.000Z</time>
      </trkpt>
      <trkpt lat="45.31895" lon="4.6035">
        <ele>712.20001220703</ele>
        <time>2026-05-11T14:10:00.000Z</time>
      </trkpt>
      <trkpt lat="45.31894" lon="4.60357">
        <ele>711.79998779297</ele>
        <time>2026-05-11T14:10:01.000Z</time>
      </trkpt>
      <trkpt lat="45.31892" lon="4.60362">
        <ele>711.40002441406</ele>
        <time>2026-05-11T14:10:02.000Z</time>
      </trkpt>
      <trkpt lat="45.31891" lon="4.60368">
        <ele>710.79998779297</ele>
        <time>2026-05-11T14:10:03.000Z</time>
      </trkpt>
      <trkpt lat="45.31888" lon="4.60373">
        <ele>710.40002441406</ele>
        <time>2026-05-11T14:10:04.000Z</time>
      </trkpt>
      <trkpt lat="45.31886" lon="4.60379">
        <ele>709.79998779297</ele>
        <time>2026-05-11T14:10:05.000Z</time>
      </trkpt>
      <trkpt lat="45.31884" lon="4.60385">
        <ele>709.20001220703</ele>
        <time>2026-05-11T14:10:06.000Z</time>
      </trkpt>
      <trkpt lat="45.31882" lon="4.60391">
        <ele>708.59997558594</ele>
        <time>2026-05-11T14:10:07.000Z</time>
      </trkpt>
      <trkpt lat="45.31881" lon="4.60398">
        <ele>708</ele>
        <time>2026-05-11T14:10:08.000Z</time>
      </trkpt>
      <trkpt lat="45.3188" lon="4.60403">
        <ele>707.40002441406</ele>
        <time>2026-05-11T14:10:09.000Z</time>
      </trkpt>
      <trkpt lat="45.31879" lon="4.60408">
        <ele>707</ele>
        <time>2026-05-11T14:10:10.000Z</time>
      </trkpt>
      <trkpt lat="45.31877" lon="4.60412">
        <ele>706.59997558594</ele>
        <time>2026-05-11T14:10:11.000Z</time>
      </trkpt>
      <trkpt lat="45.31875" lon="4.60416">
        <ele>706.20001220703</ele>
        <time>2026-05-11T14:10:12.000Z</time>
      </trkpt>
      <trkpt lat="45.31874" lon="4.60419">
        <ele>705.79998779297</ele>
        <time>2026-05-11T14:10:13.000Z</time>
      </trkpt>
      <trkpt lat="45.31874" lon="4.60423">
        <ele>705.40002441406</ele>
        <time>2026-05-11T14:10:14.000Z</time>
      </trkpt>
      <trkpt lat="45.31873" lon="4.60427">
        <ele>705</ele>
        <time>2026-05-11T14:10:15.000Z</time>
      </trkpt>
      <trkpt lat="45.31874" lon="4.60431">
        <ele>704.59997558594</ele>
        <time>2026-05-11T14:10:16.000Z</time>
      </trkpt>
      <trkpt lat="45.31874" lon="4.60436">
        <ele>704.20001220703</ele>
        <time>2026-05-11T14:10:17.000Z</time>
      </trkpt>
      <trkpt lat="45.31875" lon="4.60441">
        <ele>704</ele>
        <time>2026-05-11T14:10:18.000Z</time>
      </trkpt>
      <trkpt lat="45.31876" lon="4.60445">
        <ele>703.59997558594</ele>
        <time>2026-05-11T14:10:19.000Z</time>
      </trkpt>
      <trkpt lat="45.31877" lon="4.6045">
        <ele>703.20001220703</ele>
        <time>2026-05-11T14:10:20.000Z</time>
      </trkpt>
      <trkpt lat="45.31878" lon="4.60455">
        <ele>702.59997558594</ele>
        <time>2026-05-11T14:10:21.000Z</time>
      </trkpt>
      <trkpt lat="45.31879" lon="4.60461">
        <ele>702</ele>
        <time>2026-05-11T14:10:22.000Z</time>
      </trkpt>
      <trkpt lat="45.31881" lon="4.60467">
        <ele>701.59997558594</ele>
        <time>2026-05-11T14:10:23.000Z</time>
      </trkpt>
      <trkpt lat="45.31882" lon="4.60472">
        <ele>701</ele>
        <time>2026-05-11T14:10:24.000Z</time>
      </trkpt>
      <trkpt lat="45.31882" lon="4.60477">
        <ele>700.59997558594</ele>
        <time>2026-05-11T14:10:25.000Z</time>
      </trkpt>
      <trkpt lat="45.31883" lon="4.60482">
        <ele>700</ele>
        <time>2026-05-11T14:10:26.000Z</time>
      </trkpt>
      <trkpt lat="45.31884" lon="4.60487">
        <ele>699.40002441406</ele>
        <time>2026-05-11T14:10:27.000Z</time>
      </trkpt>
      <trkpt lat="45.31885" lon="4.60492">
        <ele>698.59997558594</ele>
        <time>2026-05-11T14:10:28.000Z</time>
      </trkpt>
      <trkpt lat="45.31887" lon="4.60498">
        <ele>698</ele>
        <time>2026-05-11T14:10:29.000Z</time>
      </trkpt>
      <trkpt lat="45.3189" lon="4.60503">
        <ele>697.40002441406</ele>
        <time>2026-05-11T14:10:30.000Z</time>
      </trkpt>
      <trkpt lat="45.31893" lon="4.6051">
        <ele>696.79998779297</ele>
        <time>2026-05-11T14:10:31.000Z</time>
      </trkpt>
      <trkpt lat="45.31895" lon="4.60519">
        <ele>696.40002441406</ele>
        <time>2026-05-11T14:10:32.000Z</time>
      </trkpt>
      <trkpt lat="45.31897" lon="4.60528">
        <ele>695.79998779297</ele>
        <time>2026-05-11T14:10:33.000Z</time>
      </trkpt>
      <trkpt lat="45.31899" lon="4.60537">
        <ele>695</ele>
        <time>2026-05-11T14:10:34.000Z</time>
      </trkpt>
      <trkpt lat="45.31901" lon="4.60545">
        <ele>694.40002441406</ele>
        <time>2026-05-11T14:10:35.000Z</time>
      </trkpt>
      <trkpt lat="45.31904" lon="4.60553">
        <ele>694</ele>
        <time>2026-05-11T14:10:36.000Z</time>
      </trkpt>
      <trkpt lat="45.31907" lon="4.60561">
        <ele>693.40002441406</ele>
        <time>2026-05-11T14:10:37.000Z</time>
      </trkpt>
      <trkpt lat="45.31911" lon="4.60568">
        <ele>693</ele>
        <time>2026-05-11T14:10:38.000Z</time>
      </trkpt>
      <trkpt lat="45.31914" lon="4.60575">
        <ele>692.59997558594</ele>
        <time>2026-05-11T14:10:39.000Z</time>
      </trkpt>
      <trkpt lat="45.31918" lon="4.60582">
        <ele>692</ele>
        <time>2026-05-11T14:10:40.000Z</time>
      </trkpt>
      <trkpt lat="45.31921" lon="4.60589">
        <ele>691.59997558594</ele>
        <time>2026-05-11T14:10:41.000Z</time>
      </trkpt>
      <trkpt lat="45.31924" lon="4.60596">
        <ele>691</ele>
        <time>2026-05-11T14:10:42.000Z</time>
      </trkpt>
      <trkpt lat="45.31926" lon="4.60601">
        <ele>690.59997558594</ele>
        <time>2026-05-11T14:10:43.000Z</time>
      </trkpt>
      <trkpt lat="45.31929" lon="4.60606">
        <ele>690</ele>
        <time>2026-05-11T14:10:44.000Z</time>
      </trkpt>
      <trkpt lat="45.31932" lon="4.6061">
        <ele>689.59997558594</ele>
        <time>2026-05-11T14:10:45.000Z</time>
      </trkpt>
      <trkpt lat="45.31934" lon="4.60614">
        <ele>689</ele>
        <time>2026-05-11T14:10:46.000Z</time>
      </trkpt>
      <trkpt lat="45.31935" lon="4.60618">
        <ele>688.40002441406</ele>
        <time>2026-05-11T14:10:47.000Z</time>
      </trkpt>
      <trkpt lat="45.31936" lon="4.60623">
        <ele>688</ele>
        <time>2026-05-11T14:10:48.000Z</time>
      </trkpt>
      <trkpt lat="45.31936" lon="4.60623">
        <ele>687.59997558594</ele>
        <time>2026-05-11T14:10:49.000Z</time>
      </trkpt>
      <trkpt lat="45.31939" lon="4.60636">
        <ele>687</ele>
        <time>2026-05-11T14:10:50.000Z</time>
      </trkpt>
      <trkpt lat="45.31943" lon="4.60643">
        <ele>686.40002441406</ele>
        <time>2026-05-11T14:10:51.000Z</time>
      </trkpt>
      <trkpt lat="45.31946" lon="4.60652">
        <ele>685.79998779297</ele>
        <time>2026-05-11T14:10:52.000Z</time>
      </trkpt>
      <trkpt lat="45.3195" lon="4.6066">
        <ele>684.79998779297</ele>
        <time>2026-05-11T14:10:53.000Z</time>
      </trkpt>
      <trkpt lat="45.31955" lon="4.60669">
        <ele>684</ele>
        <time>2026-05-11T14:10:54.000Z</time>
      </trkpt>
      <trkpt lat="45.31959" lon="4.60679">
        <ele>683.40002441406</ele>
        <time>2026-05-11T14:10:55.000Z</time>
      </trkpt>
      <trkpt lat="45.31963" lon="4.6069">
        <ele>682.59997558594</ele>
        <time>2026-05-11T14:10:56.000Z</time>
      </trkpt>
      <trkpt lat="45.31966" lon="4.60701">
        <ele>681.79998779297</ele>
        <time>2026-05-11T14:10:57.000Z</time>
      </trkpt>
      <trkpt lat="45.31968" lon="4.60711">
        <ele>681.20001220703</ele>
        <time>2026-05-11T14:10:58.000Z</time>
      </trkpt>
      <trkpt lat="45.3197" lon="4.60722">
        <ele>680.59997558594</ele>
        <time>2026-05-11T14:10:59.000Z</time>
      </trkpt>
      <trkpt lat="45.31971" lon="4.60733">
        <ele>680</ele>
        <time>2026-05-11T14:11:00.000Z</time>
      </trkpt>
      <trkpt lat="45.31972" lon="4.60742">
        <ele>679.40002441406</ele>
        <time>2026-05-11T14:11:01.000Z</time>
      </trkpt>
      <trkpt lat="45.31973" lon="4.60752">
        <ele>679</ele>
        <time>2026-05-11T14:11:02.000Z</time>
      </trkpt>
      <trkpt lat="45.31974" lon="4.6076">
        <ele>678.59997558594</ele>
        <time>2026-05-11T14:11:03.000Z</time>
      </trkpt>
      <trkpt lat="45.31975" lon="4.60767">
        <ele>678.20001220703</ele>
        <time>2026-05-11T14:11:04.000Z</time>
      </trkpt>
      <trkpt lat="45.31975" lon="4.60774">
        <ele>677.79998779297</ele>
        <time>2026-05-11T14:11:05.000Z</time>
      </trkpt>
      <trkpt lat="45.31976" lon="4.60781">
        <ele>677.59997558594</ele>
        <time>2026-05-11T14:11:06.000Z</time>
      </trkpt>
      <trkpt lat="45.31976" lon="4.60787">
        <ele>677.20001220703</ele>
        <time>2026-05-11T14:11:07.000Z</time>
      </trkpt>
      <trkpt lat="45.31977" lon="4.60793">
        <ele>677</ele>
        <time>2026-05-11T14:11:08.000Z</time>
      </trkpt>
      <trkpt lat="45.31977" lon="4.60798">
        <ele>676.79998779297</ele>
        <time>2026-05-11T14:11:09.000Z</time>
      </trkpt>
      <trkpt lat="45.31977" lon="4.60803">
        <ele>676.59997558594</ele>
        <time>2026-05-11T14:11:10.000Z</time>
      </trkpt>
      <trkpt lat="45.31977" lon="4.60807">
        <ele>676.40002441406</ele>
        <time>2026-05-11T14:11:11.000Z</time>
      </trkpt>
      <trkpt lat="45.31978" lon="4.6081">
        <ele>676.20001220703</ele>
        <time>2026-05-11T14:11:12.000Z</time>
      </trkpt>
      <trkpt lat="45.31979" lon="4.60813">
        <ele>676</ele>
        <time>2026-05-11T14:11:13.000Z</time>
      </trkpt>
      <trkpt lat="45.31979" lon="4.60814">
        <ele>676</ele>
        <time>2026-05-11T14:11:14.000Z</time>
      </trkpt>
      <trkpt lat="45.31979" lon="4.60814">
        <ele>675.79998779297</ele>
        <time>2026-05-11T14:11:15.000Z</time>
      </trkpt>
      <trkpt lat="45.31979" lon="4.60814">
        <ele>675.59997558594</ele>
        <time>2026-05-11T14:11:16.000Z</time>
      </trkpt>
      <trkpt lat="45.31981" lon="4.60817">
        <ele>675</ele>
        <time>2026-05-11T14:11:29.000Z</time>
      </trkpt>
      <trkpt lat="45.31983" lon="4.60817">
        <ele>675</ele>
        <time>2026-05-11T14:11:30.000Z</time>
      </trkpt>
      <trkpt lat="45.31985" lon="4.60815">
        <ele>674.79998779297</ele>
        <time>2026-05-11T14:11:31.000Z</time>
      </trkpt>
      <trkpt lat="45.31986" lon="4.60813">
        <ele>674.59997558594</ele>
        <time>2026-05-11T14:11:32.000Z</time>
      </trkpt>
      <trkpt lat="45.31988" lon="4.60811">
        <ele>674.40002441406</ele>
        <time>2026-05-11T14:11:33.000Z</time>
      </trkpt>
      <trkpt lat="45.3199" lon="4.60808">
        <ele>674.20001220703</ele>
        <time>2026-05-11T14:11:34.000Z</time>
      </trkpt>
      <trkpt lat="45.31992" lon="4.60806">
        <ele>674.20001220703</ele>
        <time>2026-05-11T14:11:35.000Z</time>
      </trkpt>
      <trkpt lat="45.31993" lon="4.60803">
        <ele>674.20001220703</ele>
        <time>2026-05-11T14:11:36.000Z</time>
      </trkpt>
      <trkpt lat="45.31995" lon="4.608">
        <ele>674.20001220703</ele>
        <time>2026-05-11T14:11:37.000Z</time>
      </trkpt>
      <trkpt lat="45.31997" lon="4.60798">
        <ele>674.20001220703</ele>
        <time>2026-05-11T14:11:38.000Z</time>
      </trkpt>
      <trkpt lat="45.31999" lon="4.60795">
        <ele>674.20001220703</ele>
        <time>2026-05-11T14:11:39.000Z</time>
      </trkpt>
      <trkpt lat="45.32001" lon="4.60792">
        <ele>674.40002441406</ele>
        <time>2026-05-11T14:11:40.000Z</time>
      </trkpt>
      <trkpt lat="45.32003" lon="4.60789">
        <ele>674.40002441406</ele>
        <time>2026-05-11T14:11:41.000Z</time>
      </trkpt>
      <trkpt lat="45.32005" lon="4.60786">
        <ele>674.59997558594</ele>
        <time>2026-05-11T14:11:42.000Z</time>
      </trkpt>
      <trkpt lat="45.32007" lon="4.60783">
        <ele>674.59997558594</ele>
        <time>2026-05-11T14:11:43.000Z</time>
      </trkpt>
      <trkpt lat="45.32008" lon="4.60779">
        <ele>674.79998779297</ele>
        <time>2026-05-11T14:11:44.000Z</time>
      </trkpt>
      <trkpt lat="45.32009" lon="4.60775">
        <ele>675</ele>
        <time>2026-05-11T14:11:45.000Z</time>
      </trkpt>
      <trkpt lat="45.3201" lon="4.60771">
        <ele>675.20001220703</ele>
        <time>2026-05-11T14:11:46.000Z</time>
      </trkpt>
      <trkpt lat="45.32011" lon="4.60768">
        <ele>675.40002441406</ele>
        <time>2026-05-11T14:11:47.000Z</time>
      </trkpt>
      <trkpt lat="45.32012" lon="4.60764">
        <ele>675.59997558594</ele>
        <time>2026-05-11T14:11:48.000Z</time>
      </trkpt>
      <trkpt lat="45.32012" lon="4.6076">
        <ele>675.79998779297</ele>
        <time>2026-05-11T14:11:49.000Z</time>
      </trkpt>
      <trkpt lat="45.32013" lon="4.60755">
        <ele>676</ele>
        <time>2026-05-11T14:11:50.000Z</time>
      </trkpt>
      <trkpt lat="45.32014" lon="4.60751">
        <ele>676.20001220703</ele>
        <time>2026-05-11T14:11:51.000Z</time>
      </trkpt>
      <trkpt lat="45.32014" lon="4.60748">
        <ele>676.40002441406</ele>
        <time>2026-05-11T14:11:52.000Z</time>
      </trkpt>
      <trkpt lat="45.32015" lon="4.60744">
        <ele>676.59997558594</ele>
        <time>2026-05-11T14:11:53.000Z</time>
      </trkpt>
      <trkpt lat="45.32016" lon="4.60741">
        <ele>676.79998779297</ele>
        <time>2026-05-11T14:11:54.000Z</time>
      </trkpt>
      <trkpt lat="45.32016" lon="4.60737">
        <ele>677</ele>
        <time>2026-05-11T14:11:55.000Z</time>
      </trkpt>
      <trkpt lat="45.32017" lon="4.60734">
        <ele>677.20001220703</ele>
        <time>2026-05-11T14:11:56.000Z</time>
      </trkpt>
      <trkpt lat="45.32017" lon="4.6073">
        <ele>677.40002441406</ele>
        <time>2026-05-11T14:11:57.000Z</time>
      </trkpt>
      <trkpt lat="45.32018" lon="4.60726">
        <ele>677.40002441406</ele>
        <time>2026-05-11T14:11:58.000Z</time>
      </trkpt>
      <trkpt lat="45.32018" lon="4.60723">
        <ele>677.59997558594</ele>
        <time>2026-05-11T14:11:59.000Z</time>
      </trkpt>
      <trkpt lat="45.32019" lon="4.6072">
        <ele>677.59997558594</ele>
        <time>2026-05-11T14:12:00.000Z</time>
      </trkpt>
      <trkpt lat="45.32019" lon="4.60717">
        <ele>677.79998779297</ele>
        <time>2026-05-11T14:12:01.000Z</time>
      </trkpt>
      <trkpt lat="45.3202" lon="4.60714">
        <ele>677.79998779297</ele>
        <time>2026-05-11T14:12:02.000Z</time>
      </trkpt>
      <trkpt lat="45.3202" lon="4.60711">
        <ele>678</ele>
        <time>2026-05-11T14:12:03.000Z</time>
      </trkpt>
      <trkpt lat="45.32021" lon="4.60708">
        <ele>678</ele>
        <time>2026-05-11T14:12:04.000Z</time>
      </trkpt>
      <trkpt lat="45.32021" lon="4.60705">
        <ele>678.20001220703</ele>
        <time>2026-05-11T14:12:05.000Z</time>
      </trkpt>
      <trkpt lat="45.32022" lon="4.60703">
        <ele>678.40002441406</ele>
        <time>2026-05-11T14:12:06.000Z</time>
      </trkpt>
      <trkpt lat="45.32023" lon="4.607">
        <ele>678.40002441406</ele>
        <time>2026-05-11T14:12:07.000Z</time>
      </trkpt>
      <trkpt lat="45.32023" lon="4.60697">
        <ele>678.59997558594</ele>
        <time>2026-05-11T14:12:08.000Z</time>
      </trkpt>
      <trkpt lat="45.32024" lon="4.60694">
        <ele>678.59997558594</ele>
        <time>2026-05-11T14:12:09.000Z</time>
      </trkpt>
      <trkpt lat="45.32025" lon="4.6069">
        <ele>678.59997558594</ele>
        <time>2026-05-11T14:12:10.000Z</time>
      </trkpt>
      <trkpt lat="45.32026" lon="4.60687">
        <ele>678.79998779297</ele>
        <time>2026-05-11T14:12:11.000Z</time>
      </trkpt>
      <trkpt lat="45.32026" lon="4.60684">
        <ele>678.79998779297</ele>
        <time>2026-05-11T14:12:12.000Z</time>
      </trkpt>
      <trkpt lat="45.32027" lon="4.60681">
        <ele>679</ele>
        <time>2026-05-11T14:12:13.000Z</time>
      </trkpt>
      <trkpt lat="45.32028" lon="4.60678">
        <ele>679.20001220703</ele>
        <time>2026-05-11T14:12:14.000Z</time>
      </trkpt>
      <trkpt lat="45.32028" lon="4.60675">
        <ele>679.20001220703</ele>
        <time>2026-05-11T14:12:15.000Z</time>
      </trkpt>
      <trkpt lat="45.32029" lon="4.60672">
        <ele>679.20001220703</ele>
        <time>2026-05-11T14:12:16.000Z</time>
      </trkpt>
      <trkpt lat="45.32029" lon="4.6067">
        <ele>679.40002441406</ele>
        <time>2026-05-11T14:12:17.000Z</time>
      </trkpt>
      <trkpt lat="45.3203" lon="4.60667">
        <ele>679.59997558594</ele>
        <time>2026-05-11T14:12:18.000Z</time>
      </trkpt>
      <trkpt lat="45.3203" lon="4.60664">
        <ele>679.59997558594</ele>
        <time>2026-05-11T14:12:19.000Z</time>
      </trkpt>
      <trkpt lat="45.32031" lon="4.60661">
        <ele>679.79998779297</ele>
        <time>2026-05-11T14:12:20.000Z</time>
      </trkpt>
      <trkpt lat="45.32032" lon="4.60658">
        <ele>680</ele>
        <time>2026-05-11T14:12:21.000Z</time>
      </trkpt>
      <trkpt lat="45.32032" lon="4.60655">
        <ele>680</ele>
        <time>2026-05-11T14:12:22.000Z</time>
      </trkpt>
      <trkpt lat="45.32033" lon="4.60652">
        <ele>680.20001220703</ele>
        <time>2026-05-11T14:12:23.000Z</time>
      </trkpt>
      <trkpt lat="45.32033" lon="4.60649">
        <ele>680.40002441406</ele>
        <time>2026-05-11T14:12:24.000Z</time>
      </trkpt>
      <trkpt lat="45.32034" lon="4.60646">
        <ele>680.59997558594</ele>
        <time>2026-05-11T14:12:25.000Z</time>
      </trkpt>
      <trkpt lat="45.32034" lon="4.60644">
        <ele>680.79998779297</ele>
        <time>2026-05-11T14:12:26.000Z</time>
      </trkpt>
      <trkpt lat="45.32034" lon="4.60641">
        <ele>681</ele>
        <time>2026-05-11T14:12:27.000Z</time>
      </trkpt>
      <trkpt lat="45.32034" lon="4.60639">
        <ele>681.20001220703</ele>
        <time>2026-05-11T14:12:28.000Z</time>
      </trkpt>
      <trkpt lat="45.32035" lon="4.60637">
        <ele>681.20001220703</ele>
        <time>2026-05-11T14:12:29.000Z</time>
      </trkpt>
      <trkpt lat="45.32035" lon="4.60634">
        <ele>681.40002441406</ele>
        <time>2026-05-11T14:12:30.000Z</time>
      </trkpt>
      <trkpt lat="45.32036" lon="4.60632">
        <ele>681.59997558594</ele>
        <time>2026-05-11T14:12:31.000Z</time>
      </trkpt>
      <trkpt lat="45.32036" lon="4.60629">
        <ele>681.59997558594</ele>
        <time>2026-05-11T14:12:32.000Z</time>
      </trkpt>
      <trkpt lat="45.32037" lon="4.60627">
        <ele>681.79998779297</ele>
        <time>2026-05-11T14:12:33.000Z</time>
      </trkpt>
      <trkpt lat="45.32037" lon="4.60624">
        <ele>681.79998779297</ele>
        <time>2026-05-11T14:12:34.000Z</time>
      </trkpt>
      <trkpt lat="45.32038" lon="4.60622">
        <ele>682</ele>
        <time>2026-05-11T14:12:35.000Z</time>
      </trkpt>
      <trkpt lat="45.32038" lon="4.60619">
        <ele>682.20001220703</ele>
        <time>2026-05-11T14:12:36.000Z</time>
      </trkpt>
      <trkpt lat="45.32038" lon="4.60617">
        <ele>682.40002441406</ele>
        <time>2026-05-11T14:12:37.000Z</time>
      </trkpt>
      <trkpt lat="45.32039" lon="4.60615">
        <ele>682.59997558594</ele>
        <time>2026-05-11T14:12:38.000Z</time>
      </trkpt>
      <trkpt lat="45.32039" lon="4.60613">
        <ele>682.59997558594</ele>
        <time>2026-05-11T14:12:39.000Z</time>
      </trkpt>
      <trkpt lat="45.32039" lon="4.60612">
        <ele>682.79998779297</ele>
        <time>2026-05-11T14:12:40.000Z</time>
      </trkpt>
      <trkpt lat="45.3204" lon="4.60609">
        <ele>683</ele>
        <time>2026-05-11T14:12:41.000Z</time>
      </trkpt>
      <trkpt lat="45.3204" lon="4.60607">
        <ele>683</ele>
        <time>2026-05-11T14:12:42.000Z</time>
      </trkpt>
      <trkpt lat="45.32041" lon="4.60605">
        <ele>683.20001220703</ele>
        <time>2026-05-11T14:12:43.000Z</time>
      </trkpt>
      <trkpt lat="45.32042" lon="4.60603">
        <ele>683.20001220703</ele>
        <time>2026-05-11T14:12:44.000Z</time>
      </trkpt>
      <trkpt lat="45.32043" lon="4.60601">
        <ele>683.40002441406</ele>
        <time>2026-05-11T14:12:45.000Z</time>
      </trkpt>
      <trkpt lat="45.32045" lon="4.606">
        <ele>683.59997558594</ele>
        <time>2026-05-11T14:12:46.000Z</time>
      </trkpt>
      <trkpt lat="45.32046" lon="4.60598">
        <ele>683.59997558594</ele>
        <time>2026-05-11T14:12:47.000Z</time>
      </trkpt>
      <trkpt lat="45.32047" lon="4.60597">
        <ele>683.79998779297</ele>
        <time>2026-05-11T14:12:48.000Z</time>
      </trkpt>
      <trkpt lat="45.32049" lon="4.60596">
        <ele>683.79998779297</ele>
        <time>2026-05-11T14:12:49.000Z</time>
      </trkpt>
      <trkpt lat="45.32051" lon="4.60595">
        <ele>684</ele>
        <time>2026-05-11T14:12:50.000Z</time>
      </trkpt>
      <trkpt lat="45.32053" lon="4.60593">
        <ele>684.20001220703</ele>
        <time>2026-05-11T14:12:51.000Z</time>
      </trkpt>
      <trkpt lat="45.32055" lon="4.60592">
        <ele>684.20001220703</ele>
        <time>2026-05-11T14:12:52.000Z</time>
      </trkpt>
      <trkpt lat="45.32057" lon="4.6059">
        <ele>684.40002441406</ele>
        <time>2026-05-11T14:12:53.000Z</time>
      </trkpt>
      <trkpt lat="45.32059" lon="4.60588">
        <ele>684.40002441406</ele>
        <time>2026-05-11T14:12:54.000Z</time>
      </trkpt>
      <trkpt lat="45.3206" lon="4.60587">
        <ele>684.40002441406</ele>
        <time>2026-05-11T14:12:55.000Z</time>
      </trkpt>
      <trkpt lat="45.32062" lon="4.60586">
        <ele>684.40002441406</ele>
        <time>2026-05-11T14:12:56.000Z</time>
      </trkpt>
      <trkpt lat="45.32064" lon="4.60584">
        <ele>684.40002441406</ele>
        <time>2026-05-11T14:12:57.000Z</time>
      </trkpt>
      <trkpt lat="45.32066" lon="4.60583">
        <ele>684.40002441406</ele>
        <time>2026-05-11T14:12:58.000Z</time>
      </trkpt>
      <trkpt lat="45.32068" lon="4.60581">
        <ele>684.40002441406</ele>
        <time>2026-05-11T14:12:59.000Z</time>
      </trkpt>
      <trkpt lat="45.3207" lon="4.60579">
        <ele>684.40002441406</ele>
        <time>2026-05-11T14:13:00.000Z</time>
      </trkpt>
      <trkpt lat="45.32072" lon="4.60578">
        <ele>684.59997558594</ele>
        <time>2026-05-11T14:13:01.000Z</time>
      </trkpt>
      <trkpt lat="45.32074" lon="4.60576">
        <ele>684.59997558594</ele>
        <time>2026-05-11T14:13:02.000Z</time>
      </trkpt>
      <trkpt lat="45.32076" lon="4.60575">
        <ele>684.79998779297</ele>
        <time>2026-05-11T14:13:03.000Z</time>
      </trkpt>
      <trkpt lat="45.32077" lon="4.60573">
        <ele>685</ele>
        <time>2026-05-11T14:13:04.000Z</time>
      </trkpt>
      <trkpt lat="45.32079" lon="4.60571">
        <ele>685.20001220703</ele>
        <time>2026-05-11T14:13:05.000Z</time>
      </trkpt>
      <trkpt lat="45.32081" lon="4.6057">
        <ele>685.40002441406</ele>
        <time>2026-05-11T14:13:06.000Z</time>
      </trkpt>
      <trkpt lat="45.32083" lon="4.60568">
        <ele>685.40002441406</ele>
        <time>2026-05-11T14:13:07.000Z</time>
      </trkpt>
      <trkpt lat="45.32085" lon="4.60567">
        <ele>685.40002441406</ele>
        <time>2026-05-11T14:13:08.000Z</time>
      </trkpt>
      <trkpt lat="45.32086" lon="4.60565">
        <ele>685.59997558594</ele>
        <time>2026-05-11T14:13:09.000Z</time>
      </trkpt>
      <trkpt lat="45.32088" lon="4.60563">
        <ele>685.59997558594</ele>
        <time>2026-05-11T14:13:10.000Z</time>
      </trkpt>
      <trkpt lat="45.3209" lon="4.60561">
        <ele>685.79998779297</ele>
        <time>2026-05-11T14:13:11.000Z</time>
      </trkpt>
      <trkpt lat="45.32092" lon="4.6056">
        <ele>685.79998779297</ele>
        <time>2026-05-11T14:13:12.000Z</time>
      </trkpt>
      <trkpt lat="45.32094" lon="4.60558">
        <ele>686</ele>
        <time>2026-05-11T14:13:13.000Z</time>
      </trkpt>
      <trkpt lat="45.32096" lon="4.60556">
        <ele>686.20001220703</ele>
        <time>2026-05-11T14:13:14.000Z</time>
      </trkpt>
      <trkpt lat="45.32098" lon="4.60555">
        <ele>686.20001220703</ele>
        <time>2026-05-11T14:13:15.000Z</time>
      </trkpt>
      <trkpt lat="45.321" lon="4.60553">
        <ele>686.40002441406</ele>
        <time>2026-05-11T14:13:16.000Z</time>
      </trkpt>
      <trkpt lat="45.32102" lon="4.60551">
        <ele>686.59997558594</ele>
        <time>2026-05-11T14:13:17.000Z</time>
      </trkpt>
      <trkpt lat="45.32104" lon="4.60549">
        <ele>686.59997558594</ele>
        <time>2026-05-11T14:13:18.000Z</time>
      </trkpt>
      <trkpt lat="45.32106" lon="4.60548">
        <ele>686.59997558594</ele>
        <time>2026-05-11T14:13:19.000Z</time>
      </trkpt>
      <trkpt lat="45.32108" lon="4.60546">
        <ele>686.59997558594</ele>
        <time>2026-05-11T14:13:20.000Z</time>
      </trkpt>
      <trkpt lat="45.32111" lon="4.60544">
        <ele>686.59997558594</ele>
        <time>2026-05-11T14:13:21.000Z</time>
      </trkpt>
      <trkpt lat="45.32113" lon="4.60542">
        <ele>686.59997558594</ele>
        <time>2026-05-11T14:13:22.000Z</time>
      </trkpt>
      <trkpt lat="45.32115" lon="4.60539">
        <ele>686.59997558594</ele>
        <time>2026-05-11T14:13:23.000Z</time>
      </trkpt>
      <trkpt lat="45.32117" lon="4.60537">
        <ele>686.79998779297</ele>
        <time>2026-05-11T14:13:24.000Z</time>
      </trkpt>
      <trkpt lat="45.32119" lon="4.60535">
        <ele>686.79998779297</ele>
        <time>2026-05-11T14:13:25.000Z</time>
      </trkpt>
      <trkpt lat="45.32122" lon="4.60533">
        <ele>686.79998779297</ele>
        <time>2026-05-11T14:13:26.000Z</time>
      </trkpt>
      <trkpt lat="45.32124" lon="4.60531">
        <ele>686.79998779297</ele>
        <time>2026-05-11T14:13:27.000Z</time>
      </trkpt>
      <trkpt lat="45.32127" lon="4.60529">
        <ele>686.79998779297</ele>
        <time>2026-05-11T14:13:28.000Z</time>
      </trkpt>
      <trkpt lat="45.32129" lon="4.60526">
        <ele>687</ele>
        <time>2026-05-11T14:13:29.000Z</time>
      </trkpt>
      <trkpt lat="45.32132" lon="4.60524">
        <ele>687</ele>
        <time>2026-05-11T14:13:30.000Z</time>
      </trkpt>
      <trkpt lat="45.32134" lon="4.60522">
        <ele>687</ele>
        <time>2026-05-11T14:13:31.000Z</time>
      </trkpt>
      <trkpt lat="45.32136" lon="4.6052">
        <ele>687.20001220703</ele>
        <time>2026-05-11T14:13:32.000Z</time>
      </trkpt>
      <trkpt lat="45.32138" lon="4.60518">
        <ele>687.20001220703</ele>
        <time>2026-05-11T14:13:33.000Z</time>
      </trkpt>
      <trkpt lat="45.3214" lon="4.60516">
        <ele>687.20001220703</ele>
        <time>2026-05-11T14:13:34.000Z</time>
      </trkpt>
      <trkpt lat="45.32143" lon="4.60514">
        <ele>687.20001220703</ele>
        <time>2026-05-11T14:13:35.000Z</time>
      </trkpt>
      <trkpt lat="45.32145" lon="4.60512">
        <ele>687.40002441406</ele>
        <time>2026-05-11T14:13:36.000Z</time>
      </trkpt>
      <trkpt lat="45.32148" lon="4.60509">
        <ele>687.40002441406</ele>
        <time>2026-05-11T14:13:37.000Z</time>
      </trkpt>
      <trkpt lat="45.3215" lon="4.60507">
        <ele>687.40002441406</ele>
        <time>2026-05-11T14:13:38.000Z</time>
      </trkpt>
      <trkpt lat="45.32152" lon="4.60504">
        <ele>687.40002441406</ele>
        <time>2026-05-11T14:13:39.000Z</time>
      </trkpt>
      <trkpt lat="45.32154" lon="4.60503">
        <ele>687.59997558594</ele>
        <time>2026-05-11T14:13:40.000Z</time>
      </trkpt>
      <trkpt lat="45.32156" lon="4.60502">
        <ele>687.59997558594</ele>
        <time>2026-05-11T14:13:41.000Z</time>
      </trkpt>
      <trkpt lat="45.32157" lon="4.60501">
        <ele>687.59997558594</ele>
        <time>2026-05-11T14:13:42.000Z</time>
      </trkpt>
      <trkpt lat="45.32159" lon="4.605">
        <ele>687.59997558594</ele>
        <time>2026-05-11T14:13:43.000Z</time>
      </trkpt>
      <trkpt lat="45.32161" lon="4.60501">
        <ele>687.59997558594</ele>
        <time>2026-05-11T14:13:44.000Z</time>
      </trkpt>
      <trkpt lat="45.32165" lon="4.60502">
        <ele>687.59997558594</ele>
        <time>2026-05-11T14:13:45.000Z</time>
      </trkpt>
      <trkpt lat="45.3217" lon="4.60504">
        <ele>687.59997558594</ele>
        <time>2026-05-11T14:13:46.000Z</time>
      </trkpt>
      <trkpt lat="45.32175" lon="4.60508">
        <ele>687.40002441406</ele>
        <time>2026-05-11T14:13:47.000Z</time>
      </trkpt>
      <trkpt lat="45.32182" lon="4.60511">
        <ele>687</ele>
        <time>2026-05-11T14:13:48.000Z</time>
      </trkpt>
      <trkpt lat="45.32189" lon="4.60515">
        <ele>686.40002441406</ele>
        <time>2026-05-11T14:13:49.000Z</time>
      </trkpt>
      <trkpt lat="45.32196" lon="4.60518">
        <ele>685.79998779297</ele>
        <time>2026-05-11T14:13:50.000Z</time>
      </trkpt>
      <trkpt lat="45.32204" lon="4.60519">
        <ele>685</ele>
        <time>2026-05-11T14:13:51.000Z</time>
      </trkpt>
      <trkpt lat="45.32213" lon="4.6052">
        <ele>684.20001220703</ele>
        <time>2026-05-11T14:13:52.000Z</time>
      </trkpt>
      <trkpt lat="45.32222" lon="4.60519">
        <ele>683.40002441406</ele>
        <time>2026-05-11T14:13:53.000Z</time>
      </trkpt>
      <trkpt lat="45.32231" lon="4.60518">
        <ele>682.59997558594</ele>
        <time>2026-05-11T14:13:54.000Z</time>
      </trkpt>
      <trkpt lat="45.3224" lon="4.60515">
        <ele>681.59997558594</ele>
        <time>2026-05-11T14:13:55.000Z</time>
      </trkpt>
      <trkpt lat="45.32249" lon="4.60513">
        <ele>680.79998779297</ele>
        <time>2026-05-11T14:13:56.000Z</time>
      </trkpt>
      <trkpt lat="45.32258" lon="4.6051">
        <ele>680</ele>
        <time>2026-05-11T14:13:57.000Z</time>
      </trkpt>
      <trkpt lat="45.32266" lon="4.60506">
        <ele>679.20001220703</ele>
        <time>2026-05-11T14:13:58.000Z</time>
      </trkpt>
      <trkpt lat="45.32272" lon="4.60502">
        <ele>678.59997558594</ele>
        <time>2026-05-11T14:13:59.000Z</time>
      </trkpt>
      <trkpt lat="45.32277" lon="4.60498">
        <ele>678.20001220703</ele>
        <time>2026-05-11T14:14:00.000Z</time>
      </trkpt>
      <trkpt lat="45.32282" lon="4.60493">
        <ele>677.59997558594</ele>
        <time>2026-05-11T14:14:01.000Z</time>
      </trkpt>
      <trkpt lat="45.32285" lon="4.60488">
        <ele>677.40002441406</ele>
        <time>2026-05-11T14:14:02.000Z</time>
      </trkpt>
      <trkpt lat="45.32286" lon="4.60481">
        <ele>677.20001220703</ele>
        <time>2026-05-11T14:14:03.000Z</time>
      </trkpt>
      <trkpt lat="45.32287" lon="4.60474">
        <ele>676.79998779297</ele>
        <time>2026-05-11T14:14:04.000Z</time>
      </trkpt>
      <trkpt lat="45.32288" lon="4.60467">
        <ele>676.59997558594</ele>
        <time>2026-05-11T14:14:05.000Z</time>
      </trkpt>
      <trkpt lat="45.32291" lon="4.60459">
        <ele>676.40002441406</ele>
        <time>2026-05-11T14:14:06.000Z</time>
      </trkpt>
      <trkpt lat="45.32296" lon="4.60453">
        <ele>676.20001220703</ele>
        <time>2026-05-11T14:14:07.000Z</time>
      </trkpt>
      <trkpt lat="45.32302" lon="4.6045">
        <ele>676</ele>
        <time>2026-05-11T14:14:08.000Z</time>
      </trkpt>
      <trkpt lat="45.32307" lon="4.60451">
        <ele>676</ele>
        <time>2026-05-11T14:14:09.000Z</time>
      </trkpt>
      <trkpt lat="45.32312" lon="4.6045">
        <ele>675.79998779297</ele>
        <time>2026-05-11T14:14:10.000Z</time>
      </trkpt>
      <trkpt lat="45.32316" lon="4.60449">
        <ele>675.79998779297</ele>
        <time>2026-05-11T14:14:11.000Z</time>
      </trkpt>
      <trkpt lat="45.32321" lon="4.60449">
        <ele>675.79998779297</ele>
        <time>2026-05-11T14:14:12.000Z</time>
      </trkpt>
      <trkpt lat="45.32324" lon="4.60448">
        <ele>675.79998779297</ele>
        <time>2026-05-11T14:14:13.000Z</time>
      </trkpt>
      <trkpt lat="45.32327" lon="4.60448">
        <ele>676</ele>
        <time>2026-05-11T14:14:14.000Z</time>
      </trkpt>
      <trkpt lat="45.3233" lon="4.60448">
        <ele>676.20001220703</ele>
        <time>2026-05-11T14:14:15.000Z</time>
      </trkpt>
      <trkpt lat="45.32333" lon="4.60449">
        <ele>676.20001220703</ele>
        <time>2026-05-11T14:14:16.000Z</time>
      </trkpt>
      <trkpt lat="45.32336" lon="4.6045">
        <ele>676.40002441406</ele>
        <time>2026-05-11T14:14:17.000Z</time>
      </trkpt>
      <trkpt lat="45.32339" lon="4.60451">
        <ele>676.40002441406</ele>
        <time>2026-05-11T14:14:18.000Z</time>
      </trkpt>
      <trkpt lat="45.32342" lon="4.60452">
        <ele>676.40002441406</ele>
        <time>2026-05-11T14:14:19.000Z</time>
      </trkpt>
      <trkpt lat="45.32344" lon="4.60454">
        <ele>676.40002441406</ele>
        <time>2026-05-11T14:14:20.000Z</time>
      </trkpt>
      <trkpt lat="45.32346" lon="4.60456">
        <ele>676.40002441406</ele>
        <time>2026-05-11T14:14:21.000Z</time>
      </trkpt>
      <trkpt lat="45.32348" lon="4.60458">
        <ele>676.40002441406</ele>
        <time>2026-05-11T14:14:22.000Z</time>
      </trkpt>
      <trkpt lat="45.32349" lon="4.6046">
        <ele>676.59997558594</ele>
        <time>2026-05-11T14:14:23.000Z</time>
      </trkpt>
      <trkpt lat="45.32351" lon="4.60462">
        <ele>676.79998779297</ele>
        <time>2026-05-11T14:14:24.000Z</time>
      </trkpt>
      <trkpt lat="45.32352" lon="4.60463">
        <ele>676.79998779297</ele>
        <time>2026-05-11T14:14:25.000Z</time>
      </trkpt>
      <trkpt lat="45.32353" lon="4.60466">
        <ele>677</ele>
        <time>2026-05-11T14:14:26.000Z</time>
      </trkpt>
      <trkpt lat="45.32354" lon="4.60468">
        <ele>677</ele>
        <time>2026-05-11T14:14:27.000Z</time>
      </trkpt>
      <trkpt lat="45.32355" lon="4.6047">
        <ele>677</ele>
        <time>2026-05-11T14:14:28.000Z</time>
      </trkpt>
      <trkpt lat="45.32355" lon="4.60473">
        <ele>677</ele>
        <time>2026-05-11T14:14:29.000Z</time>
      </trkpt>
      <trkpt lat="45.32355" lon="4.60475">
        <ele>676.79998779297</ele>
        <time>2026-05-11T14:14:30.000Z</time>
      </trkpt>
      <trkpt lat="45.32355" lon="4.60476">
        <ele>676.59997558594</ele>
        <time>2026-05-11T14:14:31.000Z</time>
      </trkpt>
      <trkpt lat="45.32354" lon="4.60478">
        <ele>676.40002441406</ele>
        <time>2026-05-11T14:14:32.000Z</time>
      </trkpt>
      <trkpt lat="45.32354" lon="4.60479">
        <ele>676.20001220703</ele>
        <time>2026-05-11T14:14:33.000Z</time>
      </trkpt>
      <trkpt lat="45.32353" lon="4.6048">
        <ele>676</ele>
        <time>2026-05-11T14:14:34.000Z</time>
      </trkpt>
      <trkpt lat="45.32353" lon="4.6048">
        <ele>675.59997558594</ele>
        <time>2026-05-11T14:14:35.000Z</time>
      </trkpt>
      <trkpt lat="45.32353" lon="4.60481">
        <ele>675.40002441406</ele>
        <time>2026-05-11T14:14:36.000Z</time>
      </trkpt>
    </trkseg>
  </trk>
</gpx>